<?xml version="1.0" encoding="UTF-8" standalone="no" ?>
<gpx xmlns="http://www.topografix.com/GPX/1/1" xmlns:xsi="http://www.w3.org/2001/XMLSchema-instance" xsi:schemaLocation="http://www.topografix.com/GPX/1/1 http://www.topografix.com/GPX/1/1/gpx.xsd" version="1.1" creator="VisuGPX - https://www.visugpx.com">
  <metadata>
    <name>Daumazan/A Montbrun Montfa Camarade Le Mas Les Bordes Casteras Carla-Bayle</name>
    <desc><![CDATA[Très belle boucle avec Sabine.]]></desc>
  </metadata>
  <trk>
    <name><![CDATA[Daumazan/A Montbrun Montfa Camarade Le Mas Les Bordes Casteras Carla-Bayle_1]]></name>
    <trkseg>
      <trkpt lat="43.14104" lon="1.30407">
        <ele>264.4</ele>
        <time>2023-03-05T11:06:24Z</time>
        <extensions>
          <gpxtpx:TrackPointExtension xmlns:gpxtpx="http://www.garmin.com/xmlschemas/TrackPointExtension/v1">
            <gpxtpx:hr>71</gpxtpx:hr>
          </gpxtpx:TrackPointExtension>
        </extensions>
      </trkpt>
      <trkpt lat="43.14104" lon="1.30407">
        <ele>264.4</ele>
        <time>2023-03-05T11:06:25Z</time>
        <extensions>
          <gpxtpx:TrackPointExtension xmlns:gpxtpx="http://www.garmin.com/xmlschemas/TrackPointExtension/v1">
            <gpxtpx:hr>71</gpxtpx:hr>
          </gpxtpx:TrackPointExtension>
        </extensions>
      </trkpt>
      <trkpt lat="43.14104" lon="1.30407">
        <ele>268.4</ele>
        <time>2023-03-05T11:07:45Z</time>
      </trkpt>
      <trkpt lat="43.14101" lon="1.30411">
        <ele>268.4</ele>
        <time>2023-03-05T11:07:47Z</time>
      </trkpt>
      <trkpt lat="43.14089" lon="1.30413">
        <ele>268.4</ele>
        <time>2023-03-05T11:07:51Z</time>
      </trkpt>
      <trkpt lat="43.14087" lon="1.30413">
        <ele>268.4</ele>
        <time>2023-03-05T11:07:52Z</time>
      </trkpt>
      <trkpt lat="43.14075" lon="1.30415">
        <ele>268.4</ele>
        <time>2023-03-05T11:07:56Z</time>
      </trkpt>
      <trkpt lat="43.14076" lon="1.30426">
        <ele>268.4</ele>
        <time>2023-03-05T11:07:59Z</time>
      </trkpt>
      <trkpt lat="43.14079" lon="1.30433">
        <ele>268.4</ele>
        <time>2023-03-05T11:08:01Z</time>
      </trkpt>
      <trkpt lat="43.14085" lon="1.30444">
        <ele>268.4</ele>
        <time>2023-03-05T11:08:04Z</time>
      </trkpt>
      <trkpt lat="43.14092" lon="1.30457">
        <ele>267.2</ele>
        <time>2023-03-05T11:08:07Z</time>
      </trkpt>
      <trkpt lat="43.14095" lon="1.30462">
        <ele>264.8</ele>
        <time>2023-03-05T11:08:08Z</time>
      </trkpt>
      <trkpt lat="43.14098" lon="1.30467">
        <ele>263.6</ele>
        <time>2023-03-05T11:08:09Z</time>
      </trkpt>
      <trkpt lat="43.14106" lon="1.30483">
        <ele>262.4</ele>
        <time>2023-03-05T11:08:10Z</time>
      </trkpt>
      <trkpt lat="43.14106" lon="1.30483">
        <ele>262.4</ele>
        <time>2023-03-05T11:08:12Z</time>
      </trkpt>
      <trkpt lat="43.14108" lon="1.30489">
        <ele>262.4</ele>
        <time>2023-03-05T11:08:13Z</time>
      </trkpt>
      <trkpt lat="43.14115" lon="1.30511">
        <ele>262.4</ele>
        <time>2023-03-05T11:08:17Z</time>
      </trkpt>
      <trkpt lat="43.14127" lon="1.30548">
        <ele>262.4</ele>
        <time>2023-03-05T11:08:24Z</time>
      </trkpt>
      <trkpt lat="43.14129" lon="1.30553">
        <ele>262.4</ele>
        <time>2023-03-05T11:08:25Z</time>
      </trkpt>
      <trkpt lat="43.14141" lon="1.30567">
        <ele>262</ele>
        <time>2023-03-05T11:08:29Z</time>
      </trkpt>
      <trkpt lat="43.14144" lon="1.30571">
        <ele>261.6</ele>
        <time>2023-03-05T11:08:30Z</time>
      </trkpt>
      <trkpt lat="43.14147" lon="1.30574">
        <ele>261.2</ele>
        <time>2023-03-05T11:08:31Z</time>
      </trkpt>
      <trkpt lat="43.1415" lon="1.30578">
        <ele>260.8</ele>
        <time>2023-03-05T11:08:32Z</time>
      </trkpt>
      <trkpt lat="43.14152" lon="1.30581">
        <ele>260.4</ele>
        <time>2023-03-05T11:08:33Z</time>
      </trkpt>
      <trkpt lat="43.14155" lon="1.30585">
        <ele>260.4</ele>
        <time>2023-03-05T11:08:34Z</time>
      </trkpt>
      <trkpt lat="43.14169" lon="1.30602">
        <ele>260.4</ele>
        <time>2023-03-05T11:08:39Z</time>
      </trkpt>
      <trkpt lat="43.14186" lon="1.30623">
        <ele>260.4</ele>
        <time>2023-03-05T11:08:45Z</time>
      </trkpt>
      <trkpt lat="43.14209" lon="1.30647">
        <ele>260.4</ele>
        <time>2023-03-05T11:08:53Z</time>
      </trkpt>
      <trkpt lat="43.14229" lon="1.30668">
        <ele>260.4</ele>
        <time>2023-03-05T11:09:00Z</time>
      </trkpt>
      <trkpt lat="43.14258" lon="1.30701">
        <ele>260.4</ele>
        <time>2023-03-05T11:09:10Z</time>
      </trkpt>
      <trkpt lat="43.14274" lon="1.30716">
        <ele>260.4</ele>
        <time>2023-03-05T11:09:15Z</time>
      </trkpt>
      <trkpt lat="43.14276" lon="1.30721">
        <ele>260</ele>
        <time>2023-03-05T11:09:16Z</time>
      </trkpt>
      <trkpt lat="43.14276" lon="1.30727">
        <ele>259.6</ele>
        <time>2023-03-05T11:09:17Z</time>
      </trkpt>
      <trkpt lat="43.14274" lon="1.30733">
        <ele>259.2</ele>
        <time>2023-03-05T11:09:18Z</time>
      </trkpt>
      <trkpt lat="43.14272" lon="1.30738">
        <ele>258.8</ele>
        <time>2023-03-05T11:09:19Z</time>
      </trkpt>
      <trkpt lat="43.14269" lon="1.30742">
        <ele>258.2</ele>
        <time>2023-03-05T11:09:20Z</time>
      </trkpt>
      <trkpt lat="43.14259" lon="1.30766">
        <ele>258.2</ele>
        <time>2023-03-05T11:09:25Z</time>
      </trkpt>
      <trkpt lat="43.14259" lon="1.30771">
        <ele>258.2</ele>
        <time>2023-03-05T11:09:26Z</time>
      </trkpt>
      <trkpt lat="43.14268" lon="1.30783">
        <ele>258.2</ele>
        <time>2023-03-05T11:09:30Z</time>
      </trkpt>
      <trkpt lat="43.14274" lon="1.30788">
        <ele>258.2</ele>
        <time>2023-03-05T11:09:32Z</time>
      </trkpt>
      <trkpt lat="43.14278" lon="1.30798">
        <ele>258.2</ele>
        <time>2023-03-05T11:09:35Z</time>
      </trkpt>
      <trkpt lat="43.14271" lon="1.30812">
        <ele>258.2</ele>
        <time>2023-03-05T11:09:39Z</time>
      </trkpt>
      <trkpt lat="43.14251" lon="1.30835">
        <ele>258.2</ele>
        <time>2023-03-05T11:09:46Z</time>
      </trkpt>
      <trkpt lat="43.14228" lon="1.30855">
        <ele>258.2</ele>
        <time>2023-03-05T11:09:53Z</time>
      </trkpt>
      <trkpt lat="43.14202" lon="1.30877">
        <ele>258.2</ele>
        <time>2023-03-05T11:10:01Z</time>
      </trkpt>
      <trkpt lat="43.14179" lon="1.30902">
        <ele>258.2</ele>
        <time>2023-03-05T11:10:09Z</time>
      </trkpt>
      <trkpt lat="43.14167" lon="1.30927">
        <ele>258.2</ele>
        <time>2023-03-05T11:10:15Z</time>
      </trkpt>
      <trkpt lat="43.14161" lon="1.30938">
        <ele>258.2</ele>
        <time>2023-03-05T11:10:18Z</time>
      </trkpt>
      <trkpt lat="43.14157" lon="1.30939">
        <ele>258.2</ele>
        <time>2023-03-05T11:10:19Z</time>
      </trkpt>
      <trkpt lat="43.14148" lon="1.30931">
        <ele>258.2</ele>
        <time>2023-03-05T11:10:22Z</time>
      </trkpt>
      <trkpt lat="43.14145" lon="1.30928">
        <ele>258.2</ele>
        <time>2023-03-05T11:10:23Z</time>
      </trkpt>
      <trkpt lat="43.14122" lon="1.30904">
        <ele>258.2</ele>
        <time>2023-03-05T11:10:31Z</time>
      </trkpt>
      <trkpt lat="43.14105" lon="1.30885">
        <ele>258.2</ele>
        <time>2023-03-05T11:10:37Z</time>
      </trkpt>
      <trkpt lat="43.14079" lon="1.30861">
        <ele>258.2</ele>
        <time>2023-03-05T11:10:45Z</time>
      </trkpt>
      <trkpt lat="43.14068" lon="1.30847">
        <ele>258.2</ele>
        <time>2023-03-05T11:10:49Z</time>
      </trkpt>
      <trkpt lat="43.14061" lon="1.3084">
        <ele>258.2</ele>
        <time>2023-03-05T11:10:51Z</time>
      </trkpt>
      <trkpt lat="43.14057" lon="1.30836">
        <ele>258.8</ele>
        <time>2023-03-05T11:10:52Z</time>
      </trkpt>
      <trkpt lat="43.14053" lon="1.30832">
        <ele>259.2</ele>
        <time>2023-03-05T11:10:53Z</time>
      </trkpt>
      <trkpt lat="43.14049" lon="1.30828">
        <ele>259.6</ele>
        <time>2023-03-05T11:10:54Z</time>
      </trkpt>
      <trkpt lat="43.14045" lon="1.30825">
        <ele>260</ele>
        <time>2023-03-05T11:10:55Z</time>
      </trkpt>
      <trkpt lat="43.14041" lon="1.30821">
        <ele>260.4</ele>
        <time>2023-03-05T11:10:56Z</time>
      </trkpt>
      <trkpt lat="43.1403" lon="1.30812">
        <ele>260.4</ele>
        <time>2023-03-05T11:10:59Z</time>
      </trkpt>
      <trkpt lat="43.14023" lon="1.30804">
        <ele>260.4</ele>
        <time>2023-03-05T11:11:01Z</time>
      </trkpt>
      <trkpt lat="43.14006" lon="1.30787">
        <ele>260.4</ele>
        <time>2023-03-05T11:11:06Z</time>
      </trkpt>
      <trkpt lat="43.13985" lon="1.30766">
        <ele>260.4</ele>
        <time>2023-03-05T11:11:12Z</time>
      </trkpt>
      <trkpt lat="43.13967" lon="1.30748">
        <ele>260.4</ele>
        <time>2023-03-05T11:11:17Z</time>
      </trkpt>
      <trkpt lat="43.13963" lon="1.30744">
        <ele>260.4</ele>
        <time>2023-03-05T11:11:18Z</time>
      </trkpt>
      <trkpt lat="43.13941" lon="1.30723">
        <ele>260.4</ele>
        <time>2023-03-05T11:11:24Z</time>
      </trkpt>
      <trkpt lat="43.13915" lon="1.30698">
        <ele>260.4</ele>
        <time>2023-03-05T11:11:31Z</time>
      </trkpt>
      <trkpt lat="43.13891" lon="1.30675">
        <ele>260.4</ele>
        <time>2023-03-05T11:11:38Z</time>
      </trkpt>
      <trkpt lat="43.13877" lon="1.30654">
        <ele>260.4</ele>
        <time>2023-03-05T11:11:43Z</time>
      </trkpt>
      <trkpt lat="43.13875" lon="1.3065">
        <ele>260.4</ele>
        <time>2023-03-05T11:11:44Z</time>
      </trkpt>
      <trkpt lat="43.13857" lon="1.30615">
        <ele>260.4</ele>
        <time>2023-03-05T11:11:52Z</time>
      </trkpt>
      <trkpt lat="43.13835" lon="1.30583">
        <ele>260.4</ele>
        <time>2023-03-05T11:12:00Z</time>
      </trkpt>
      <trkpt lat="43.13816" lon="1.30564">
        <ele>260.8</ele>
        <time>2023-03-05T11:12:06Z</time>
      </trkpt>
      <trkpt lat="43.13812" lon="1.30561">
        <ele>261.2</ele>
        <time>2023-03-05T11:12:07Z</time>
      </trkpt>
      <trkpt lat="43.13809" lon="1.30558">
        <ele>261.6</ele>
        <time>2023-03-05T11:12:08Z</time>
      </trkpt>
      <trkpt lat="43.13805" lon="1.30556">
        <ele>262</ele>
        <time>2023-03-05T11:12:09Z</time>
      </trkpt>
      <trkpt lat="43.13802" lon="1.30554">
        <ele>262.6</ele>
        <time>2023-03-05T11:12:10Z</time>
      </trkpt>
      <trkpt lat="43.13785" lon="1.30543">
        <ele>262.6</ele>
        <time>2023-03-05T11:12:15Z</time>
      </trkpt>
      <trkpt lat="43.1376" lon="1.30528">
        <ele>263</ele>
        <time>2023-03-05T11:12:22Z</time>
      </trkpt>
      <trkpt lat="43.13757" lon="1.30526">
        <ele>263.4</ele>
        <time>2023-03-05T11:12:23Z</time>
      </trkpt>
      <trkpt lat="43.13754" lon="1.30524">
        <ele>263.8</ele>
        <time>2023-03-05T11:12:24Z</time>
      </trkpt>
      <trkpt lat="43.1375" lon="1.30522">
        <ele>264.2</ele>
        <time>2023-03-05T11:12:25Z</time>
      </trkpt>
      <trkpt lat="43.13747" lon="1.30519">
        <ele>264.6</ele>
        <time>2023-03-05T11:12:26Z</time>
      </trkpt>
      <trkpt lat="43.13735" lon="1.30509">
        <ele>264.6</ele>
        <time>2023-03-05T11:12:30Z</time>
      </trkpt>
      <trkpt lat="43.1371" lon="1.30488">
        <ele>264.6</ele>
        <time>2023-03-05T11:12:38Z</time>
      </trkpt>
      <trkpt lat="43.13704" lon="1.30482">
        <ele>265</ele>
        <time>2023-03-05T11:12:40Z</time>
      </trkpt>
      <trkpt lat="43.13701" lon="1.3048">
        <ele>265.4</ele>
        <time>2023-03-05T11:12:41Z</time>
      </trkpt>
      <trkpt lat="43.13698" lon="1.30477">
        <ele>266.2</ele>
        <time>2023-03-05T11:12:42Z</time>
      </trkpt>
      <trkpt lat="43.13695" lon="1.30474">
        <ele>266.6</ele>
        <time>2023-03-05T11:12:43Z</time>
      </trkpt>
      <trkpt lat="43.13687" lon="1.30466">
        <ele>266.6</ele>
        <time>2023-03-05T11:12:46Z</time>
      </trkpt>
      <trkpt lat="43.13666" lon="1.30444">
        <ele>266.6</ele>
        <time>2023-03-05T11:12:54Z</time>
      </trkpt>
      <trkpt lat="43.13655" lon="1.30429">
        <ele>267</ele>
        <time>2023-03-05T11:12:59Z</time>
      </trkpt>
      <trkpt lat="43.13653" lon="1.30427">
        <ele>267.4</ele>
        <time>2023-03-05T11:13:00Z</time>
      </trkpt>
      <trkpt lat="43.1365" lon="1.30424">
        <ele>267.8</ele>
        <time>2023-03-05T11:13:01Z</time>
      </trkpt>
      <trkpt lat="43.13647" lon="1.30421">
        <ele>268.2</ele>
        <time>2023-03-05T11:13:02Z</time>
      </trkpt>
      <trkpt lat="43.13645" lon="1.30418">
        <ele>268.8</ele>
        <time>2023-03-05T11:13:03Z</time>
      </trkpt>
      <trkpt lat="43.13633" lon="1.30404">
        <ele>269.2</ele>
        <time>2023-03-05T11:13:08Z</time>
      </trkpt>
      <trkpt lat="43.13631" lon="1.30402">
        <ele>269.6</ele>
        <time>2023-03-05T11:13:09Z</time>
      </trkpt>
      <trkpt lat="43.13629" lon="1.30399">
        <ele>270</ele>
        <time>2023-03-05T11:13:10Z</time>
      </trkpt>
      <trkpt lat="43.13628" lon="1.30397">
        <ele>270.4</ele>
        <time>2023-03-05T11:13:11Z</time>
      </trkpt>
      <trkpt lat="43.13627" lon="1.30394">
        <ele>270.8</ele>
        <time>2023-03-05T11:13:12Z</time>
      </trkpt>
      <trkpt lat="43.13624" lon="1.3039">
        <ele>270.8</ele>
        <time>2023-03-05T11:13:14Z</time>
      </trkpt>
      <trkpt lat="43.13622" lon="1.30386">
        <ele>270.8</ele>
        <time>2023-03-05T11:13:16Z</time>
      </trkpt>
      <trkpt lat="43.13622" lon="1.30378">
        <ele>270.8</ele>
        <time>2023-03-05T11:13:19Z</time>
      </trkpt>
      <trkpt lat="43.13624" lon="1.30367">
        <ele>271.2</ele>
        <time>2023-03-05T11:13:22Z</time>
      </trkpt>
      <trkpt lat="43.13624" lon="1.30363">
        <ele>271.6</ele>
        <time>2023-03-05T11:13:23Z</time>
      </trkpt>
      <trkpt lat="43.13624" lon="1.3036">
        <ele>272</ele>
        <time>2023-03-05T11:13:24Z</time>
      </trkpt>
      <trkpt lat="43.13624" lon="1.30356">
        <ele>272.4</ele>
        <time>2023-03-05T11:13:25Z</time>
      </trkpt>
      <trkpt lat="43.13624" lon="1.30354">
        <ele>272.8</ele>
        <time>2023-03-05T11:13:26Z</time>
      </trkpt>
      <trkpt lat="43.13624" lon="1.3035">
        <ele>272.8</ele>
        <time>2023-03-05T11:13:28Z</time>
      </trkpt>
      <trkpt lat="43.13623" lon="1.30348">
        <ele>273.4</ele>
        <time>2023-03-05T11:13:29Z</time>
      </trkpt>
      <trkpt lat="43.13623" lon="1.30345">
        <ele>273.8</ele>
        <time>2023-03-05T11:13:30Z</time>
      </trkpt>
      <trkpt lat="43.13623" lon="1.30342">
        <ele>274.8</ele>
        <time>2023-03-05T11:13:31Z</time>
      </trkpt>
      <trkpt lat="43.13622" lon="1.3034">
        <ele>275.2</ele>
        <time>2023-03-05T11:13:32Z</time>
      </trkpt>
      <trkpt lat="43.13622" lon="1.30337">
        <ele>275.2</ele>
        <time>2023-03-05T11:13:33Z</time>
      </trkpt>
      <trkpt lat="43.13621" lon="1.30334">
        <ele>275.2</ele>
        <time>2023-03-05T11:13:34Z</time>
      </trkpt>
      <trkpt lat="43.13618" lon="1.30325">
        <ele>275.6</ele>
        <time>2023-03-05T11:13:37Z</time>
      </trkpt>
      <trkpt lat="43.13618" lon="1.30321">
        <ele>276.2</ele>
        <time>2023-03-05T11:13:38Z</time>
      </trkpt>
      <trkpt lat="43.13617" lon="1.30318">
        <ele>276.6</ele>
        <time>2023-03-05T11:13:39Z</time>
      </trkpt>
      <trkpt lat="43.13615" lon="1.30314">
        <ele>277</ele>
        <time>2023-03-05T11:13:40Z</time>
      </trkpt>
      <trkpt lat="43.13614" lon="1.30311">
        <ele>277.4</ele>
        <time>2023-03-05T11:13:41Z</time>
      </trkpt>
      <trkpt lat="43.1361" lon="1.30295">
        <ele>277.4</ele>
        <time>2023-03-05T11:13:46Z</time>
      </trkpt>
      <trkpt lat="43.13602" lon="1.30271">
        <ele>277.4</ele>
        <time>2023-03-05T11:13:53Z</time>
      </trkpt>
      <trkpt lat="43.136" lon="1.30246">
        <ele>277.4</ele>
        <time>2023-03-05T11:13:58Z</time>
        <extensions>
          <gpxtpx:TrackPointExtension xmlns:gpxtpx="http://www.garmin.com/xmlschemas/TrackPointExtension/v1">
            <gpxtpx:hr>72</gpxtpx:hr>
          </gpxtpx:TrackPointExtension>
        </extensions>
      </trkpt>
      <trkpt lat="43.13598" lon="1.30221">
        <ele>277.4</ele>
        <time>2023-03-05T11:14:03Z</time>
        <extensions>
          <gpxtpx:TrackPointExtension xmlns:gpxtpx="http://www.garmin.com/xmlschemas/TrackPointExtension/v1">
            <gpxtpx:hr>72</gpxtpx:hr>
          </gpxtpx:TrackPointExtension>
        </extensions>
      </trkpt>
      <trkpt lat="43.13597" lon="1.30212">
        <ele>277.8</ele>
        <time>2023-03-05T11:14:05Z</time>
      </trkpt>
      <trkpt lat="43.13597" lon="1.30208">
        <ele>278.2</ele>
        <time>2023-03-05T11:14:06Z</time>
      </trkpt>
      <trkpt lat="43.13597" lon="1.30203">
        <ele>278.6</ele>
        <time>2023-03-05T11:14:07Z</time>
      </trkpt>
      <trkpt lat="43.13596" lon="1.30198">
        <ele>279</ele>
        <time>2023-03-05T11:14:08Z</time>
      </trkpt>
      <trkpt lat="43.13596" lon="1.30192">
        <ele>279.4</ele>
        <time>2023-03-05T11:14:09Z</time>
      </trkpt>
      <trkpt lat="43.13592" lon="1.3017">
        <ele>279.4</ele>
        <time>2023-03-05T11:14:14Z</time>
      </trkpt>
      <trkpt lat="43.13585" lon="1.30143">
        <ele>279.4</ele>
        <time>2023-03-05T11:14:19Z</time>
        <extensions>
          <gpxtpx:TrackPointExtension xmlns:gpxtpx="http://www.garmin.com/xmlschemas/TrackPointExtension/v1">
            <gpxtpx:hr>72</gpxtpx:hr>
          </gpxtpx:TrackPointExtension>
        </extensions>
      </trkpt>
      <trkpt lat="43.13579" lon="1.30118">
        <ele>279.4</ele>
        <time>2023-03-05T11:14:24Z</time>
        <extensions>
          <gpxtpx:TrackPointExtension xmlns:gpxtpx="http://www.garmin.com/xmlschemas/TrackPointExtension/v1">
            <gpxtpx:hr>72</gpxtpx:hr>
          </gpxtpx:TrackPointExtension>
        </extensions>
      </trkpt>
      <trkpt lat="43.13567" lon="1.30095">
        <ele>279.4</ele>
        <time>2023-03-05T11:14:30Z</time>
      </trkpt>
      <trkpt lat="43.13556" lon="1.30068">
        <ele>279</ele>
        <time>2023-03-05T11:14:35Z</time>
      </trkpt>
      <trkpt lat="43.13553" lon="1.30062">
        <ele>278.6</ele>
        <time>2023-03-05T11:14:36Z</time>
      </trkpt>
      <trkpt lat="43.1355" lon="1.30055">
        <ele>278</ele>
        <time>2023-03-05T11:14:37Z</time>
      </trkpt>
      <trkpt lat="43.13547" lon="1.30049">
        <ele>277.6</ele>
        <time>2023-03-05T11:14:38Z</time>
      </trkpt>
      <trkpt lat="43.13544" lon="1.30042">
        <ele>277.2</ele>
        <time>2023-03-05T11:14:39Z</time>
      </trkpt>
      <trkpt lat="43.13542" lon="1.30036">
        <ele>277.2</ele>
        <time>2023-03-05T11:14:40Z</time>
      </trkpt>
      <trkpt lat="43.1354" lon="1.3003">
        <ele>277.2</ele>
        <time>2023-03-05T11:14:41Z</time>
      </trkpt>
      <trkpt lat="43.13533" lon="1.30018">
        <ele>277.2</ele>
        <time>2023-03-05T11:14:45Z</time>
      </trkpt>
      <trkpt lat="43.1353" lon="1.30012">
        <ele>277.2</ele>
        <time>2023-03-05T11:14:48Z</time>
      </trkpt>
      <trkpt lat="43.1353" lon="1.30011">
        <ele>277.2</ele>
        <time>2023-03-05T11:14:49Z</time>
      </trkpt>
      <trkpt lat="43.1353" lon="1.30009">
        <ele>277.6</ele>
        <time>2023-03-05T11:14:50Z</time>
      </trkpt>
      <trkpt lat="43.13529" lon="1.30007">
        <ele>278.2</ele>
        <time>2023-03-05T11:14:51Z</time>
        <extensions>
          <gpxtpx:TrackPointExtension xmlns:gpxtpx="http://www.garmin.com/xmlschemas/TrackPointExtension/v1">
            <gpxtpx:hr>72</gpxtpx:hr>
          </gpxtpx:TrackPointExtension>
        </extensions>
      </trkpt>
      <trkpt lat="43.13528" lon="1.30005">
        <ele>278.6</ele>
        <time>2023-03-05T11:14:52Z</time>
        <extensions>
          <gpxtpx:TrackPointExtension xmlns:gpxtpx="http://www.garmin.com/xmlschemas/TrackPointExtension/v1">
            <gpxtpx:hr>72</gpxtpx:hr>
          </gpxtpx:TrackPointExtension>
        </extensions>
      </trkpt>
      <trkpt lat="43.13527" lon="1.30004">
        <ele>279.2</ele>
        <time>2023-03-05T11:14:53Z</time>
        <extensions>
          <gpxtpx:TrackPointExtension xmlns:gpxtpx="http://www.garmin.com/xmlschemas/TrackPointExtension/v1">
            <gpxtpx:hr>72</gpxtpx:hr>
          </gpxtpx:TrackPointExtension>
        </extensions>
      </trkpt>
      <trkpt lat="43.13526" lon="1.30002">
        <ele>279.6</ele>
        <time>2023-03-05T11:14:54Z</time>
        <extensions>
          <gpxtpx:TrackPointExtension xmlns:gpxtpx="http://www.garmin.com/xmlschemas/TrackPointExtension/v1">
            <gpxtpx:hr>72</gpxtpx:hr>
          </gpxtpx:TrackPointExtension>
        </extensions>
      </trkpt>
      <trkpt lat="43.13526" lon="1.3">
        <ele>280.2</ele>
        <time>2023-03-05T11:14:55Z</time>
        <extensions>
          <gpxtpx:TrackPointExtension xmlns:gpxtpx="http://www.garmin.com/xmlschemas/TrackPointExtension/v1">
            <gpxtpx:hr>72</gpxtpx:hr>
          </gpxtpx:TrackPointExtension>
        </extensions>
      </trkpt>
      <trkpt lat="43.13525" lon="1.29999">
        <ele>280.6</ele>
        <time>2023-03-05T11:14:56Z</time>
      </trkpt>
      <trkpt lat="43.13525" lon="1.29999">
        <ele>281.2</ele>
        <time>2023-03-05T11:14:57Z</time>
      </trkpt>
      <trkpt lat="43.13525" lon="1.29997">
        <ele>281.6</ele>
        <time>2023-03-05T11:14:58Z</time>
      </trkpt>
      <trkpt lat="43.13524" lon="1.29996">
        <ele>282.2</ele>
        <time>2023-03-05T11:14:59Z</time>
      </trkpt>
      <trkpt lat="43.13524" lon="1.29996">
        <ele>282.6</ele>
        <time>2023-03-05T11:15:00Z</time>
      </trkpt>
      <trkpt lat="43.13523" lon="1.29994">
        <ele>283</ele>
        <time>2023-03-05T11:15:01Z</time>
      </trkpt>
      <trkpt lat="43.13523" lon="1.29991">
        <ele>283.4</ele>
        <time>2023-03-05T11:15:02Z</time>
      </trkpt>
      <trkpt lat="43.13522" lon="1.29989">
        <ele>283.8</ele>
        <time>2023-03-05T11:15:03Z</time>
      </trkpt>
      <trkpt lat="43.13522" lon="1.29987">
        <ele>284.2</ele>
        <time>2023-03-05T11:15:04Z</time>
      </trkpt>
      <trkpt lat="43.1352" lon="1.29986">
        <ele>284.6</ele>
        <time>2023-03-05T11:15:05Z</time>
      </trkpt>
      <trkpt lat="43.13519" lon="1.29984">
        <ele>285</ele>
        <time>2023-03-05T11:15:06Z</time>
      </trkpt>
      <trkpt lat="43.13518" lon="1.29981">
        <ele>285.4</ele>
        <time>2023-03-05T11:15:07Z</time>
      </trkpt>
      <trkpt lat="43.13517" lon="1.2998">
        <ele>285.8</ele>
        <time>2023-03-05T11:15:08Z</time>
      </trkpt>
      <trkpt lat="43.13517" lon="1.29978">
        <ele>286.2</ele>
        <time>2023-03-05T11:15:09Z</time>
      </trkpt>
      <trkpt lat="43.13516" lon="1.29976">
        <ele>287.2</ele>
        <time>2023-03-05T11:15:10Z</time>
      </trkpt>
      <trkpt lat="43.13515" lon="1.29974">
        <ele>287.6</ele>
        <time>2023-03-05T11:15:11Z</time>
      </trkpt>
      <trkpt lat="43.13515" lon="1.29971">
        <ele>288</ele>
        <time>2023-03-05T11:15:12Z</time>
      </trkpt>
      <trkpt lat="43.13515" lon="1.29969">
        <ele>288.4</ele>
        <time>2023-03-05T11:15:13Z</time>
      </trkpt>
      <trkpt lat="43.13514" lon="1.29967">
        <ele>288.8</ele>
        <time>2023-03-05T11:15:14Z</time>
      </trkpt>
      <trkpt lat="43.13513" lon="1.29965">
        <ele>289.4</ele>
        <time>2023-03-05T11:15:15Z</time>
      </trkpt>
      <trkpt lat="43.13512" lon="1.29962">
        <ele>289.8</ele>
        <time>2023-03-05T11:15:16Z</time>
      </trkpt>
      <trkpt lat="43.13512" lon="1.2996">
        <ele>290.2</ele>
        <time>2023-03-05T11:15:17Z</time>
      </trkpt>
      <trkpt lat="43.13511" lon="1.29958">
        <ele>290.6</ele>
        <time>2023-03-05T11:15:18Z</time>
      </trkpt>
      <trkpt lat="43.13511" lon="1.29956">
        <ele>290.6</ele>
        <time>2023-03-05T11:15:19Z</time>
      </trkpt>
      <trkpt lat="43.1351" lon="1.29953">
        <ele>291</ele>
        <time>2023-03-05T11:15:20Z</time>
      </trkpt>
      <trkpt lat="43.13509" lon="1.29951">
        <ele>291.4</ele>
        <time>2023-03-05T11:15:21Z</time>
      </trkpt>
      <trkpt lat="43.13509" lon="1.29949">
        <ele>291.8</ele>
        <time>2023-03-05T11:15:22Z</time>
      </trkpt>
      <trkpt lat="43.13509" lon="1.29946">
        <ele>292.4</ele>
        <time>2023-03-05T11:15:23Z</time>
      </trkpt>
      <trkpt lat="43.13508" lon="1.29944">
        <ele>292.8</ele>
        <time>2023-03-05T11:15:24Z</time>
      </trkpt>
      <trkpt lat="43.13507" lon="1.29942">
        <ele>292.8</ele>
        <time>2023-03-05T11:15:25Z</time>
      </trkpt>
      <trkpt lat="43.13505" lon="1.29935">
        <ele>293.2</ele>
        <time>2023-03-05T11:15:29Z</time>
      </trkpt>
      <trkpt lat="43.13504" lon="1.29934">
        <ele>293.6</ele>
        <time>2023-03-05T11:15:30Z</time>
      </trkpt>
      <trkpt lat="43.13503" lon="1.29932">
        <ele>294</ele>
        <time>2023-03-05T11:15:31Z</time>
      </trkpt>
      <trkpt lat="43.13503" lon="1.29933">
        <ele>294.4</ele>
        <time>2023-03-05T11:15:32Z</time>
      </trkpt>
      <trkpt lat="43.13503" lon="1.29933">
        <ele>294.8</ele>
        <time>2023-03-05T11:15:33Z</time>
      </trkpt>
      <trkpt lat="43.13503" lon="1.29933">
        <ele>294.8</ele>
        <time>2023-03-05T11:15:34Z</time>
      </trkpt>
      <trkpt lat="43.13503" lon="1.29931">
        <ele>294.8</ele>
        <time>2023-03-05T11:16:48Z</time>
      </trkpt>
      <trkpt lat="43.13502" lon="1.29929">
        <ele>294.8</ele>
        <time>2023-03-05T11:16:49Z</time>
      </trkpt>
      <trkpt lat="43.13497" lon="1.29921">
        <ele>294.8</ele>
        <time>2023-03-05T11:16:54Z</time>
      </trkpt>
      <trkpt lat="43.13496" lon="1.29918">
        <ele>295.2</ele>
        <time>2023-03-05T11:16:55Z</time>
      </trkpt>
      <trkpt lat="43.13495" lon="1.29916">
        <ele>295.6</ele>
        <time>2023-03-05T11:16:56Z</time>
      </trkpt>
      <trkpt lat="43.13493" lon="1.29914">
        <ele>296</ele>
        <time>2023-03-05T11:16:57Z</time>
      </trkpt>
      <trkpt lat="43.13492" lon="1.29912">
        <ele>296.4</ele>
        <time>2023-03-05T11:16:58Z</time>
      </trkpt>
      <trkpt lat="43.13491" lon="1.2991">
        <ele>297</ele>
        <time>2023-03-05T11:16:59Z</time>
      </trkpt>
      <trkpt lat="43.1349" lon="1.29909">
        <ele>297</ele>
        <time>2023-03-05T11:17:00Z</time>
      </trkpt>
      <trkpt lat="43.13485" lon="1.29904">
        <ele>297.4</ele>
        <time>2023-03-05T11:17:03Z</time>
      </trkpt>
      <trkpt lat="43.13483" lon="1.29902">
        <ele>297.8</ele>
        <time>2023-03-05T11:17:04Z</time>
      </trkpt>
      <trkpt lat="43.13481" lon="1.299">
        <ele>298.2</ele>
        <time>2023-03-05T11:17:05Z</time>
      </trkpt>
      <trkpt lat="43.1348" lon="1.29899">
        <ele>298.6</ele>
        <time>2023-03-05T11:17:06Z</time>
      </trkpt>
      <trkpt lat="43.13478" lon="1.29897">
        <ele>299</ele>
        <time>2023-03-05T11:17:07Z</time>
      </trkpt>
      <trkpt lat="43.13477" lon="1.29895">
        <ele>299</ele>
        <time>2023-03-05T11:17:08Z</time>
      </trkpt>
      <trkpt lat="43.13473" lon="1.29891">
        <ele>299.4</ele>
        <time>2023-03-05T11:17:10Z</time>
      </trkpt>
      <trkpt lat="43.13473" lon="1.29891">
        <ele>299.8</ele>
        <time>2023-03-05T11:17:11Z</time>
      </trkpt>
      <trkpt lat="43.13471" lon="1.29887">
        <ele>300.6</ele>
        <time>2023-03-05T11:17:13Z</time>
      </trkpt>
      <trkpt lat="43.13469" lon="1.29885">
        <ele>301</ele>
        <time>2023-03-05T11:17:14Z</time>
      </trkpt>
      <trkpt lat="43.13464" lon="1.29881">
        <ele>301.4</ele>
        <time>2023-03-05T11:17:17Z</time>
      </trkpt>
      <trkpt lat="43.13462" lon="1.2988">
        <ele>301.8</ele>
        <time>2023-03-05T11:17:18Z</time>
      </trkpt>
      <trkpt lat="43.13461" lon="1.29879">
        <ele>302.4</ele>
        <time>2023-03-05T11:17:19Z</time>
      </trkpt>
      <trkpt lat="43.13459" lon="1.29877">
        <ele>302.8</ele>
        <time>2023-03-05T11:17:20Z</time>
      </trkpt>
      <trkpt lat="43.13457" lon="1.29876">
        <ele>303.2</ele>
        <time>2023-03-05T11:17:21Z</time>
      </trkpt>
      <trkpt lat="43.1345" lon="1.29871">
        <ele>303.6</ele>
        <time>2023-03-05T11:17:24Z</time>
      </trkpt>
      <trkpt lat="43.13447" lon="1.29869">
        <ele>304</ele>
        <time>2023-03-05T11:17:25Z</time>
      </trkpt>
      <trkpt lat="43.13445" lon="1.29868">
        <ele>304.6</ele>
        <time>2023-03-05T11:17:26Z</time>
      </trkpt>
      <trkpt lat="43.13444" lon="1.29866">
        <ele>305</ele>
        <time>2023-03-05T11:17:27Z</time>
      </trkpt>
      <trkpt lat="43.13442" lon="1.29865">
        <ele>305.4</ele>
        <time>2023-03-05T11:17:28Z</time>
      </trkpt>
      <trkpt lat="43.13434" lon="1.29859">
        <ele>305.4</ele>
        <time>2023-03-05T11:17:32Z</time>
      </trkpt>
      <trkpt lat="43.13432" lon="1.29858">
        <ele>305.8</ele>
        <time>2023-03-05T11:17:33Z</time>
      </trkpt>
      <trkpt lat="43.13431" lon="1.29857">
        <ele>306.2</ele>
        <time>2023-03-05T11:17:34Z</time>
      </trkpt>
      <trkpt lat="43.13429" lon="1.29856">
        <ele>306.6</ele>
        <time>2023-03-05T11:17:35Z</time>
      </trkpt>
      <trkpt lat="43.13427" lon="1.29855">
        <ele>307.2</ele>
        <time>2023-03-05T11:17:36Z</time>
      </trkpt>
      <trkpt lat="43.13426" lon="1.29854">
        <ele>307.6</ele>
        <time>2023-03-05T11:17:37Z</time>
      </trkpt>
      <trkpt lat="43.13423" lon="1.29851">
        <ele>307.6</ele>
        <time>2023-03-05T11:17:39Z</time>
      </trkpt>
      <trkpt lat="43.1342" lon="1.29849">
        <ele>308</ele>
        <time>2023-03-05T11:17:41Z</time>
      </trkpt>
      <trkpt lat="43.13418" lon="1.29848">
        <ele>308.4</ele>
        <time>2023-03-05T11:17:42Z</time>
      </trkpt>
      <trkpt lat="43.13417" lon="1.29847">
        <ele>308.8</ele>
        <time>2023-03-05T11:17:43Z</time>
      </trkpt>
      <trkpt lat="43.13415" lon="1.29846">
        <ele>309.4</ele>
        <time>2023-03-05T11:17:44Z</time>
      </trkpt>
      <trkpt lat="43.13413" lon="1.29845">
        <ele>309.8</ele>
        <time>2023-03-05T11:17:45Z</time>
      </trkpt>
      <trkpt lat="43.1341" lon="1.29843">
        <ele>309.8</ele>
        <time>2023-03-05T11:17:47Z</time>
      </trkpt>
      <trkpt lat="43.13396" lon="1.29831">
        <ele>309.8</ele>
        <time>2023-03-05T11:17:54Z</time>
      </trkpt>
      <trkpt lat="43.13391" lon="1.29827">
        <ele>310.2</ele>
        <time>2023-03-05T11:17:56Z</time>
      </trkpt>
      <trkpt lat="43.13389" lon="1.29825">
        <ele>310.6</ele>
        <time>2023-03-05T11:17:57Z</time>
      </trkpt>
      <trkpt lat="43.13387" lon="1.29824">
        <ele>311</ele>
        <time>2023-03-05T11:17:58Z</time>
      </trkpt>
      <trkpt lat="43.13384" lon="1.29822">
        <ele>311.4</ele>
        <time>2023-03-05T11:17:59Z</time>
      </trkpt>
      <trkpt lat="43.13382" lon="1.2982">
        <ele>311.8</ele>
        <time>2023-03-05T11:18:00Z</time>
      </trkpt>
      <trkpt lat="43.13377" lon="1.29815">
        <ele>311.8</ele>
        <time>2023-03-05T11:18:02Z</time>
      </trkpt>
      <trkpt lat="43.13366" lon="1.29803">
        <ele>311.8</ele>
        <time>2023-03-05T11:18:07Z</time>
      </trkpt>
      <trkpt lat="43.13346" lon="1.29782">
        <ele>311.8</ele>
        <time>2023-03-05T11:18:14Z</time>
      </trkpt>
      <trkpt lat="43.13331" lon="1.29766">
        <ele>311.8</ele>
        <time>2023-03-05T11:18:19Z</time>
        <extensions>
          <gpxtpx:TrackPointExtension xmlns:gpxtpx="http://www.garmin.com/xmlschemas/TrackPointExtension/v1">
            <gpxtpx:hr>72</gpxtpx:hr>
          </gpxtpx:TrackPointExtension>
        </extensions>
      </trkpt>
      <trkpt lat="43.13321" lon="1.29754">
        <ele>311.8</ele>
        <time>2023-03-05T11:18:23Z</time>
        <extensions>
          <gpxtpx:TrackPointExtension xmlns:gpxtpx="http://www.garmin.com/xmlschemas/TrackPointExtension/v1">
            <gpxtpx:hr>72</gpxtpx:hr>
          </gpxtpx:TrackPointExtension>
        </extensions>
      </trkpt>
      <trkpt lat="43.13306" lon="1.29737">
        <ele>311.8</ele>
        <time>2023-03-05T11:18:29Z</time>
        <extensions>
          <gpxtpx:TrackPointExtension xmlns:gpxtpx="http://www.garmin.com/xmlschemas/TrackPointExtension/v1">
            <gpxtpx:hr>72</gpxtpx:hr>
          </gpxtpx:TrackPointExtension>
        </extensions>
      </trkpt>
      <trkpt lat="43.13293" lon="1.29719">
        <ele>311.8</ele>
        <time>2023-03-05T11:18:35Z</time>
        <extensions>
          <gpxtpx:TrackPointExtension xmlns:gpxtpx="http://www.garmin.com/xmlschemas/TrackPointExtension/v1">
            <gpxtpx:hr>72</gpxtpx:hr>
          </gpxtpx:TrackPointExtension>
        </extensions>
      </trkpt>
      <trkpt lat="43.13283" lon="1.29704">
        <ele>312.2</ele>
        <time>2023-03-05T11:18:40Z</time>
      </trkpt>
      <trkpt lat="43.13281" lon="1.29701">
        <ele>312.8</ele>
        <time>2023-03-05T11:18:41Z</time>
      </trkpt>
      <trkpt lat="43.13279" lon="1.29698">
        <ele>313.2</ele>
        <time>2023-03-05T11:18:42Z</time>
      </trkpt>
      <trkpt lat="43.13277" lon="1.29695">
        <ele>313.6</ele>
        <time>2023-03-05T11:18:43Z</time>
      </trkpt>
      <trkpt lat="43.13275" lon="1.29692">
        <ele>314</ele>
        <time>2023-03-05T11:18:44Z</time>
      </trkpt>
      <trkpt lat="43.13257" lon="1.29662">
        <ele>314</ele>
        <time>2023-03-05T11:18:53Z</time>
      </trkpt>
      <trkpt lat="43.13242" lon="1.29638">
        <ele>314</ele>
        <time>2023-03-05T11:19:00Z</time>
        <extensions>
          <gpxtpx:TrackPointExtension xmlns:gpxtpx="http://www.garmin.com/xmlschemas/TrackPointExtension/v1">
            <gpxtpx:hr>72</gpxtpx:hr>
          </gpxtpx:TrackPointExtension>
        </extensions>
      </trkpt>
      <trkpt lat="43.13224" lon="1.29608">
        <ele>314</ele>
        <time>2023-03-05T11:19:09Z</time>
      </trkpt>
      <trkpt lat="43.13215" lon="1.2959">
        <ele>314.4</ele>
        <time>2023-03-05T11:19:14Z</time>
        <extensions>
          <gpxtpx:TrackPointExtension xmlns:gpxtpx="http://www.garmin.com/xmlschemas/TrackPointExtension/v1">
            <gpxtpx:hr>72</gpxtpx:hr>
          </gpxtpx:TrackPointExtension>
        </extensions>
      </trkpt>
      <trkpt lat="43.13214" lon="1.29586">
        <ele>314.8</ele>
        <time>2023-03-05T11:19:15Z</time>
        <extensions>
          <gpxtpx:TrackPointExtension xmlns:gpxtpx="http://www.garmin.com/xmlschemas/TrackPointExtension/v1">
            <gpxtpx:hr>72</gpxtpx:hr>
          </gpxtpx:TrackPointExtension>
        </extensions>
      </trkpt>
      <trkpt lat="43.13212" lon="1.29582">
        <ele>315.2</ele>
        <time>2023-03-05T11:19:16Z</time>
        <extensions>
          <gpxtpx:TrackPointExtension xmlns:gpxtpx="http://www.garmin.com/xmlschemas/TrackPointExtension/v1">
            <gpxtpx:hr>72</gpxtpx:hr>
          </gpxtpx:TrackPointExtension>
        </extensions>
      </trkpt>
      <trkpt lat="43.13211" lon="1.29578">
        <ele>316.2</ele>
        <time>2023-03-05T11:19:17Z</time>
        <extensions>
          <gpxtpx:TrackPointExtension xmlns:gpxtpx="http://www.garmin.com/xmlschemas/TrackPointExtension/v1">
            <gpxtpx:hr>72</gpxtpx:hr>
          </gpxtpx:TrackPointExtension>
        </extensions>
      </trkpt>
      <trkpt lat="43.1321" lon="1.29574">
        <ele>316.2</ele>
        <time>2023-03-05T11:19:18Z</time>
      </trkpt>
      <trkpt lat="43.13204" lon="1.29542">
        <ele>316.2</ele>
        <time>2023-03-05T11:19:26Z</time>
        <extensions>
          <gpxtpx:TrackPointExtension xmlns:gpxtpx="http://www.garmin.com/xmlschemas/TrackPointExtension/v1">
            <gpxtpx:hr>72</gpxtpx:hr>
          </gpxtpx:TrackPointExtension>
        </extensions>
      </trkpt>
      <trkpt lat="43.13202" lon="1.29533">
        <ele>316.6</ele>
        <time>2023-03-05T11:19:28Z</time>
        <extensions>
          <gpxtpx:TrackPointExtension xmlns:gpxtpx="http://www.garmin.com/xmlschemas/TrackPointExtension/v1">
            <gpxtpx:hr>72</gpxtpx:hr>
          </gpxtpx:TrackPointExtension>
        </extensions>
      </trkpt>
      <trkpt lat="43.13201" lon="1.29529">
        <ele>317</ele>
        <time>2023-03-05T11:19:29Z</time>
        <extensions>
          <gpxtpx:TrackPointExtension xmlns:gpxtpx="http://www.garmin.com/xmlschemas/TrackPointExtension/v1">
            <gpxtpx:hr>72</gpxtpx:hr>
          </gpxtpx:TrackPointExtension>
        </extensions>
      </trkpt>
      <trkpt lat="43.132" lon="1.29525">
        <ele>317.4</ele>
        <time>2023-03-05T11:19:30Z</time>
        <extensions>
          <gpxtpx:TrackPointExtension xmlns:gpxtpx="http://www.garmin.com/xmlschemas/TrackPointExtension/v1">
            <gpxtpx:hr>72</gpxtpx:hr>
          </gpxtpx:TrackPointExtension>
        </extensions>
      </trkpt>
      <trkpt lat="43.13199" lon="1.29522">
        <ele>317.8</ele>
        <time>2023-03-05T11:19:31Z</time>
        <extensions>
          <gpxtpx:TrackPointExtension xmlns:gpxtpx="http://www.garmin.com/xmlschemas/TrackPointExtension/v1">
            <gpxtpx:hr>72</gpxtpx:hr>
          </gpxtpx:TrackPointExtension>
        </extensions>
      </trkpt>
      <trkpt lat="43.13197" lon="1.29518">
        <ele>318.4</ele>
        <time>2023-03-05T11:19:32Z</time>
        <extensions>
          <gpxtpx:TrackPointExtension xmlns:gpxtpx="http://www.garmin.com/xmlschemas/TrackPointExtension/v1">
            <gpxtpx:hr>72</gpxtpx:hr>
          </gpxtpx:TrackPointExtension>
        </extensions>
      </trkpt>
      <trkpt lat="43.13196" lon="1.29514">
        <ele>318.4</ele>
        <time>2023-03-05T11:19:33Z</time>
      </trkpt>
      <trkpt lat="43.13185" lon="1.29493">
        <ele>318.8</ele>
        <time>2023-03-05T11:19:39Z</time>
      </trkpt>
      <trkpt lat="43.13183" lon="1.2949">
        <ele>319.2</ele>
        <time>2023-03-05T11:19:40Z</time>
      </trkpt>
      <trkpt lat="43.13181" lon="1.29487">
        <ele>319.6</ele>
        <time>2023-03-05T11:19:41Z</time>
      </trkpt>
      <trkpt lat="43.13179" lon="1.29485">
        <ele>320.6</ele>
        <time>2023-03-05T11:19:42Z</time>
      </trkpt>
      <trkpt lat="43.13163" lon="1.29468">
        <ele>321</ele>
        <time>2023-03-05T11:19:49Z</time>
      </trkpt>
      <trkpt lat="43.1316" lon="1.29466">
        <ele>321.4</ele>
        <time>2023-03-05T11:19:50Z</time>
      </trkpt>
      <trkpt lat="43.13158" lon="1.29465">
        <ele>321.8</ele>
        <time>2023-03-05T11:19:51Z</time>
      </trkpt>
      <trkpt lat="43.13155" lon="1.29463">
        <ele>322.2</ele>
        <time>2023-03-05T11:19:52Z</time>
      </trkpt>
      <trkpt lat="43.13153" lon="1.29461">
        <ele>322.6</ele>
        <time>2023-03-05T11:19:53Z</time>
      </trkpt>
      <trkpt lat="43.13138" lon="1.29454">
        <ele>322.6</ele>
        <time>2023-03-05T11:19:59Z</time>
      </trkpt>
      <trkpt lat="43.13133" lon="1.29451">
        <ele>323</ele>
        <time>2023-03-05T11:20:01Z</time>
      </trkpt>
      <trkpt lat="43.13131" lon="1.2945">
        <ele>323.4</ele>
        <time>2023-03-05T11:20:02Z</time>
      </trkpt>
      <trkpt lat="43.13129" lon="1.2945">
        <ele>323.8</ele>
        <time>2023-03-05T11:20:03Z</time>
      </trkpt>
      <trkpt lat="43.13127" lon="1.29449">
        <ele>324.2</ele>
        <time>2023-03-05T11:20:04Z</time>
      </trkpt>
      <trkpt lat="43.13125" lon="1.29449">
        <ele>324.6</ele>
        <time>2023-03-05T11:20:05Z</time>
      </trkpt>
      <trkpt lat="43.13121" lon="1.29447">
        <ele>324.6</ele>
        <time>2023-03-05T11:20:07Z</time>
      </trkpt>
      <trkpt lat="43.13116" lon="1.29449">
        <ele>324.6</ele>
        <time>2023-03-05T11:20:10Z</time>
        <extensions>
          <gpxtpx:TrackPointExtension xmlns:gpxtpx="http://www.garmin.com/xmlschemas/TrackPointExtension/v1">
            <gpxtpx:hr>71</gpxtpx:hr>
          </gpxtpx:TrackPointExtension>
        </extensions>
      </trkpt>
      <trkpt lat="43.13116" lon="1.29449">
        <ele>324.6</ele>
        <time>2023-03-05T11:20:11Z</time>
        <extensions>
          <gpxtpx:TrackPointExtension xmlns:gpxtpx="http://www.garmin.com/xmlschemas/TrackPointExtension/v1">
            <gpxtpx:hr>71</gpxtpx:hr>
          </gpxtpx:TrackPointExtension>
        </extensions>
      </trkpt>
      <trkpt lat="43.13116" lon="1.29445">
        <ele>326.6</ele>
        <time>2023-03-05T11:21:02Z</time>
      </trkpt>
      <trkpt lat="43.13117" lon="1.29437">
        <ele>326.6</ele>
        <time>2023-03-05T11:21:05Z</time>
      </trkpt>
      <trkpt lat="43.13118" lon="1.29424">
        <ele>326.6</ele>
        <time>2023-03-05T11:21:10Z</time>
      </trkpt>
      <trkpt lat="43.13119" lon="1.29421">
        <ele>326.6</ele>
        <time>2023-03-05T11:21:11Z</time>
      </trkpt>
      <trkpt lat="43.13121" lon="1.29409">
        <ele>326.6</ele>
        <time>2023-03-05T11:21:16Z</time>
      </trkpt>
      <trkpt lat="43.1312" lon="1.29407">
        <ele>326.6</ele>
        <time>2023-03-05T11:21:17Z</time>
      </trkpt>
      <trkpt lat="43.13119" lon="1.29398">
        <ele>326.6</ele>
        <time>2023-03-05T11:21:21Z</time>
      </trkpt>
      <trkpt lat="43.13118" lon="1.29395">
        <ele>326.6</ele>
        <time>2023-03-05T11:21:22Z</time>
      </trkpt>
      <trkpt lat="43.13117" lon="1.29387">
        <ele>326.6</ele>
        <time>2023-03-05T11:21:27Z</time>
      </trkpt>
      <trkpt lat="43.13116" lon="1.29384">
        <ele>327</ele>
        <time>2023-03-05T11:21:29Z</time>
        <extensions>
          <gpxtpx:TrackPointExtension xmlns:gpxtpx="http://www.garmin.com/xmlschemas/TrackPointExtension/v1">
            <gpxtpx:hr>65</gpxtpx:hr>
          </gpxtpx:TrackPointExtension>
        </extensions>
      </trkpt>
      <trkpt lat="43.13114" lon="1.29382">
        <ele>327.4</ele>
        <time>2023-03-05T11:21:30Z</time>
        <extensions>
          <gpxtpx:TrackPointExtension xmlns:gpxtpx="http://www.garmin.com/xmlschemas/TrackPointExtension/v1">
            <gpxtpx:hr>65</gpxtpx:hr>
          </gpxtpx:TrackPointExtension>
        </extensions>
      </trkpt>
      <trkpt lat="43.13113" lon="1.2938">
        <ele>327.8</ele>
        <time>2023-03-05T11:21:31Z</time>
        <extensions>
          <gpxtpx:TrackPointExtension xmlns:gpxtpx="http://www.garmin.com/xmlschemas/TrackPointExtension/v1">
            <gpxtpx:hr>65</gpxtpx:hr>
          </gpxtpx:TrackPointExtension>
        </extensions>
      </trkpt>
      <trkpt lat="43.13112" lon="1.29379">
        <ele>328.2</ele>
        <time>2023-03-05T11:21:32Z</time>
        <extensions>
          <gpxtpx:TrackPointExtension xmlns:gpxtpx="http://www.garmin.com/xmlschemas/TrackPointExtension/v1">
            <gpxtpx:hr>65</gpxtpx:hr>
          </gpxtpx:TrackPointExtension>
        </extensions>
      </trkpt>
      <trkpt lat="43.13111" lon="1.29378">
        <ele>328.8</ele>
        <time>2023-03-05T11:21:33Z</time>
        <extensions>
          <gpxtpx:TrackPointExtension xmlns:gpxtpx="http://www.garmin.com/xmlschemas/TrackPointExtension/v1">
            <gpxtpx:hr>65</gpxtpx:hr>
          </gpxtpx:TrackPointExtension>
        </extensions>
      </trkpt>
      <trkpt lat="43.13109" lon="1.29377">
        <ele>328.8</ele>
        <time>2023-03-05T11:21:34Z</time>
      </trkpt>
      <trkpt lat="43.13106" lon="1.29375">
        <ele>328.8</ele>
        <time>2023-03-05T11:21:36Z</time>
      </trkpt>
      <trkpt lat="43.13104" lon="1.29374">
        <ele>328.8</ele>
        <time>2023-03-05T11:21:37Z</time>
      </trkpt>
      <trkpt lat="43.13103" lon="1.29372">
        <ele>328.8</ele>
        <time>2023-03-05T11:21:39Z</time>
      </trkpt>
      <trkpt lat="43.13101" lon="1.29371">
        <ele>328.8</ele>
        <time>2023-03-05T11:21:40Z</time>
      </trkpt>
      <trkpt lat="43.13097" lon="1.29367">
        <ele>329.2</ele>
        <time>2023-03-05T11:21:44Z</time>
      </trkpt>
      <trkpt lat="43.13096" lon="1.29366">
        <ele>329.6</ele>
        <time>2023-03-05T11:21:45Z</time>
      </trkpt>
      <trkpt lat="43.13095" lon="1.29365">
        <ele>330</ele>
        <time>2023-03-05T11:21:46Z</time>
      </trkpt>
      <trkpt lat="43.13094" lon="1.29363">
        <ele>330.8</ele>
        <time>2023-03-05T11:21:47Z</time>
      </trkpt>
      <trkpt lat="43.1309" lon="1.29358">
        <ele>331.2</ele>
        <time>2023-03-05T11:21:51Z</time>
      </trkpt>
      <trkpt lat="43.13089" lon="1.29357">
        <ele>331.6</ele>
        <time>2023-03-05T11:21:52Z</time>
      </trkpt>
      <trkpt lat="43.13087" lon="1.29356">
        <ele>332</ele>
        <time>2023-03-05T11:21:53Z</time>
      </trkpt>
      <trkpt lat="43.13086" lon="1.29355">
        <ele>332.4</ele>
        <time>2023-03-05T11:21:54Z</time>
      </trkpt>
      <trkpt lat="43.13084" lon="1.29354">
        <ele>332.8</ele>
        <time>2023-03-05T11:21:55Z</time>
      </trkpt>
      <trkpt lat="43.13083" lon="1.29354">
        <ele>332.8</ele>
        <time>2023-03-05T11:21:56Z</time>
      </trkpt>
      <trkpt lat="43.1308" lon="1.29352">
        <ele>332.8</ele>
        <time>2023-03-05T11:21:58Z</time>
      </trkpt>
      <trkpt lat="43.13078" lon="1.2935">
        <ele>333.2</ele>
        <time>2023-03-05T11:22:00Z</time>
      </trkpt>
      <trkpt lat="43.13077" lon="1.29349">
        <ele>333.8</ele>
        <time>2023-03-05T11:22:01Z</time>
      </trkpt>
      <trkpt lat="43.13077" lon="1.29349">
        <ele>334.2</ele>
        <time>2023-03-05T11:22:02Z</time>
      </trkpt>
      <trkpt lat="43.1307" lon="1.29343">
        <ele>335</ele>
        <time>2023-03-05T11:22:40Z</time>
      </trkpt>
      <trkpt lat="43.13066" lon="1.2934">
        <ele>335.4</ele>
        <time>2023-03-05T11:22:42Z</time>
      </trkpt>
      <trkpt lat="43.13065" lon="1.29341">
        <ele>335.8</ele>
        <time>2023-03-05T11:22:43Z</time>
      </trkpt>
      <trkpt lat="43.13064" lon="1.2934">
        <ele>336.2</ele>
        <time>2023-03-05T11:22:44Z</time>
      </trkpt>
      <trkpt lat="43.13062" lon="1.29338">
        <ele>336.6</ele>
        <time>2023-03-05T11:22:45Z</time>
      </trkpt>
      <trkpt lat="43.13061" lon="1.29337">
        <ele>337</ele>
        <time>2023-03-05T11:22:46Z</time>
      </trkpt>
      <trkpt lat="43.13059" lon="1.29333">
        <ele>337</ele>
        <time>2023-03-05T11:22:48Z</time>
      </trkpt>
      <trkpt lat="43.1305" lon="1.29318">
        <ele>337</ele>
        <time>2023-03-05T11:22:55Z</time>
      </trkpt>
      <trkpt lat="43.13042" lon="1.29302">
        <ele>337</ele>
        <time>2023-03-05T11:23:01Z</time>
      </trkpt>
      <trkpt lat="43.1303" lon="1.29287">
        <ele>337.4</ele>
        <time>2023-03-05T11:23:07Z</time>
      </trkpt>
      <trkpt lat="43.13028" lon="1.29285">
        <ele>337.8</ele>
        <time>2023-03-05T11:23:08Z</time>
      </trkpt>
      <trkpt lat="43.13027" lon="1.29283">
        <ele>338.2</ele>
        <time>2023-03-05T11:23:09Z</time>
      </trkpt>
      <trkpt lat="43.13026" lon="1.29282">
        <ele>338.6</ele>
        <time>2023-03-05T11:23:10Z</time>
      </trkpt>
      <trkpt lat="43.13024" lon="1.2928">
        <ele>339</ele>
        <time>2023-03-05T11:23:11Z</time>
      </trkpt>
      <trkpt lat="43.13021" lon="1.29276">
        <ele>339</ele>
        <time>2023-03-05T11:23:13Z</time>
      </trkpt>
      <trkpt lat="43.13006" lon="1.29262">
        <ele>339</ele>
        <time>2023-03-05T11:23:21Z</time>
      </trkpt>
      <trkpt lat="43.13002" lon="1.29261">
        <ele>339</ele>
        <time>2023-03-05T11:23:23Z</time>
      </trkpt>
      <trkpt lat="43.13" lon="1.29262">
        <ele>339.4</ele>
        <time>2023-03-05T11:23:24Z</time>
      </trkpt>
      <trkpt lat="43.12999" lon="1.29263">
        <ele>340</ele>
        <time>2023-03-05T11:23:25Z</time>
      </trkpt>
      <trkpt lat="43.12998" lon="1.29264">
        <ele>340.8</ele>
        <time>2023-03-05T11:23:26Z</time>
      </trkpt>
      <trkpt lat="43.12998" lon="1.29266">
        <ele>341.2</ele>
        <time>2023-03-05T11:23:27Z</time>
      </trkpt>
      <trkpt lat="43.12997" lon="1.29268">
        <ele>341.2</ele>
        <time>2023-03-05T11:23:29Z</time>
      </trkpt>
      <trkpt lat="43.12997" lon="1.29269">
        <ele>341.6</ele>
        <time>2023-03-05T11:23:30Z</time>
      </trkpt>
      <trkpt lat="43.12997" lon="1.29271">
        <ele>342.2</ele>
        <time>2023-03-05T11:23:31Z</time>
      </trkpt>
      <trkpt lat="43.12996" lon="1.29273">
        <ele>342.6</ele>
        <time>2023-03-05T11:23:32Z</time>
      </trkpt>
      <trkpt lat="43.12996" lon="1.29275">
        <ele>343</ele>
        <time>2023-03-05T11:23:33Z</time>
      </trkpt>
      <trkpt lat="43.12996" lon="1.29277">
        <ele>343.4</ele>
        <time>2023-03-05T11:23:34Z</time>
      </trkpt>
      <trkpt lat="43.12996" lon="1.2928">
        <ele>343.4</ele>
        <time>2023-03-05T11:23:35Z</time>
      </trkpt>
      <trkpt lat="43.12996" lon="1.29282">
        <ele>343.4</ele>
        <time>2023-03-05T11:23:36Z</time>
      </trkpt>
      <trkpt lat="43.12996" lon="1.29284">
        <ele>343.4</ele>
        <time>2023-03-05T11:23:37Z</time>
      </trkpt>
      <trkpt lat="43.12997" lon="1.29296">
        <ele>343.4</ele>
        <time>2023-03-05T11:23:43Z</time>
      </trkpt>
      <trkpt lat="43.12997" lon="1.29299">
        <ele>343.8</ele>
        <time>2023-03-05T11:23:44Z</time>
      </trkpt>
      <trkpt lat="43.12998" lon="1.293">
        <ele>344.4</ele>
        <time>2023-03-05T11:23:45Z</time>
      </trkpt>
      <trkpt lat="43.12998" lon="1.29303">
        <ele>344.8</ele>
        <time>2023-03-05T11:23:46Z</time>
      </trkpt>
      <trkpt lat="43.12998" lon="1.29305">
        <ele>345.2</ele>
        <time>2023-03-05T11:23:47Z</time>
      </trkpt>
      <trkpt lat="43.12997" lon="1.29307">
        <ele>345.6</ele>
        <time>2023-03-05T11:23:48Z</time>
      </trkpt>
      <trkpt lat="43.12998" lon="1.29308">
        <ele>345.6</ele>
        <time>2023-03-05T11:23:49Z</time>
      </trkpt>
      <trkpt lat="43.12995" lon="1.2931">
        <ele>345.6</ele>
        <time>2023-03-05T11:24:22Z</time>
        <extensions>
          <gpxtpx:TrackPointExtension xmlns:gpxtpx="http://www.garmin.com/xmlschemas/TrackPointExtension/v1">
            <gpxtpx:hr>55</gpxtpx:hr>
          </gpxtpx:TrackPointExtension>
        </extensions>
      </trkpt>
      <trkpt lat="43.12993" lon="1.29311">
        <ele>345.6</ele>
        <time>2023-03-05T11:24:23Z</time>
        <extensions>
          <gpxtpx:TrackPointExtension xmlns:gpxtpx="http://www.garmin.com/xmlschemas/TrackPointExtension/v1">
            <gpxtpx:hr>55</gpxtpx:hr>
          </gpxtpx:TrackPointExtension>
        </extensions>
      </trkpt>
      <trkpt lat="43.12991" lon="1.29311">
        <ele>345.6</ele>
        <time>2023-03-05T11:24:24Z</time>
        <extensions>
          <gpxtpx:TrackPointExtension xmlns:gpxtpx="http://www.garmin.com/xmlschemas/TrackPointExtension/v1">
            <gpxtpx:hr>55</gpxtpx:hr>
          </gpxtpx:TrackPointExtension>
        </extensions>
      </trkpt>
      <trkpt lat="43.12979" lon="1.2931">
        <ele>345.6</ele>
        <time>2023-03-05T11:24:29Z</time>
        <extensions>
          <gpxtpx:TrackPointExtension xmlns:gpxtpx="http://www.garmin.com/xmlschemas/TrackPointExtension/v1">
            <gpxtpx:hr>53</gpxtpx:hr>
          </gpxtpx:TrackPointExtension>
        </extensions>
      </trkpt>
      <trkpt lat="43.12966" lon="1.29306">
        <ele>345.6</ele>
        <time>2023-03-05T11:24:34Z</time>
        <extensions>
          <gpxtpx:TrackPointExtension xmlns:gpxtpx="http://www.garmin.com/xmlschemas/TrackPointExtension/v1">
            <gpxtpx:hr>53</gpxtpx:hr>
          </gpxtpx:TrackPointExtension>
        </extensions>
      </trkpt>
      <trkpt lat="43.12953" lon="1.29303">
        <ele>345.6</ele>
        <time>2023-03-05T11:24:39Z</time>
        <extensions>
          <gpxtpx:TrackPointExtension xmlns:gpxtpx="http://www.garmin.com/xmlschemas/TrackPointExtension/v1">
            <gpxtpx:hr>53</gpxtpx:hr>
          </gpxtpx:TrackPointExtension>
        </extensions>
      </trkpt>
      <trkpt lat="43.12944" lon="1.29299">
        <ele>345.6</ele>
        <time>2023-03-05T11:24:44Z</time>
        <extensions>
          <gpxtpx:TrackPointExtension xmlns:gpxtpx="http://www.garmin.com/xmlschemas/TrackPointExtension/v1">
            <gpxtpx:hr>53</gpxtpx:hr>
          </gpxtpx:TrackPointExtension>
        </extensions>
      </trkpt>
      <trkpt lat="43.12942" lon="1.29299">
        <ele>345.6</ele>
        <time>2023-03-05T11:24:47Z</time>
        <extensions>
          <gpxtpx:TrackPointExtension xmlns:gpxtpx="http://www.garmin.com/xmlschemas/TrackPointExtension/v1">
            <gpxtpx:hr>60</gpxtpx:hr>
          </gpxtpx:TrackPointExtension>
        </extensions>
      </trkpt>
      <trkpt lat="43.12938" lon="1.29296">
        <ele>345.6</ele>
        <time>2023-03-05T11:27:14Z</time>
        <extensions>
          <gpxtpx:TrackPointExtension xmlns:gpxtpx="http://www.garmin.com/xmlschemas/TrackPointExtension/v1">
            <gpxtpx:hr>100</gpxtpx:hr>
          </gpxtpx:TrackPointExtension>
        </extensions>
      </trkpt>
      <trkpt lat="43.12937" lon="1.29295">
        <ele>345.6</ele>
        <time>2023-03-05T11:27:15Z</time>
        <extensions>
          <gpxtpx:TrackPointExtension xmlns:gpxtpx="http://www.garmin.com/xmlschemas/TrackPointExtension/v1">
            <gpxtpx:hr>100</gpxtpx:hr>
          </gpxtpx:TrackPointExtension>
        </extensions>
      </trkpt>
      <trkpt lat="43.12929" lon="1.29286">
        <ele>345.6</ele>
        <time>2023-03-05T11:27:21Z</time>
        <extensions>
          <gpxtpx:TrackPointExtension xmlns:gpxtpx="http://www.garmin.com/xmlschemas/TrackPointExtension/v1">
            <gpxtpx:hr>101</gpxtpx:hr>
          </gpxtpx:TrackPointExtension>
        </extensions>
      </trkpt>
      <trkpt lat="43.12928" lon="1.29285">
        <ele>346</ele>
        <time>2023-03-05T11:27:22Z</time>
        <extensions>
          <gpxtpx:TrackPointExtension xmlns:gpxtpx="http://www.garmin.com/xmlschemas/TrackPointExtension/v1">
            <gpxtpx:hr>101</gpxtpx:hr>
          </gpxtpx:TrackPointExtension>
        </extensions>
      </trkpt>
      <trkpt lat="43.12926" lon="1.29284">
        <ele>346.4</ele>
        <time>2023-03-05T11:27:23Z</time>
        <extensions>
          <gpxtpx:TrackPointExtension xmlns:gpxtpx="http://www.garmin.com/xmlschemas/TrackPointExtension/v1">
            <gpxtpx:hr>101</gpxtpx:hr>
          </gpxtpx:TrackPointExtension>
        </extensions>
      </trkpt>
      <trkpt lat="43.12926" lon="1.29282">
        <ele>346.8</ele>
        <time>2023-03-05T11:27:24Z</time>
        <extensions>
          <gpxtpx:TrackPointExtension xmlns:gpxtpx="http://www.garmin.com/xmlschemas/TrackPointExtension/v1">
            <gpxtpx:hr>100</gpxtpx:hr>
          </gpxtpx:TrackPointExtension>
        </extensions>
      </trkpt>
      <trkpt lat="43.12926" lon="1.29281">
        <ele>347.2</ele>
        <time>2023-03-05T11:27:25Z</time>
        <extensions>
          <gpxtpx:TrackPointExtension xmlns:gpxtpx="http://www.garmin.com/xmlschemas/TrackPointExtension/v1">
            <gpxtpx:hr>99</gpxtpx:hr>
          </gpxtpx:TrackPointExtension>
        </extensions>
      </trkpt>
      <trkpt lat="43.12928" lon="1.29279">
        <ele>347.6</ele>
        <time>2023-03-05T11:27:26Z</time>
        <extensions>
          <gpxtpx:TrackPointExtension xmlns:gpxtpx="http://www.garmin.com/xmlschemas/TrackPointExtension/v1">
            <gpxtpx:hr>99</gpxtpx:hr>
          </gpxtpx:TrackPointExtension>
        </extensions>
      </trkpt>
      <trkpt lat="43.12932" lon="1.29258">
        <ele>347.6</ele>
        <time>2023-03-05T11:27:30Z</time>
        <extensions>
          <gpxtpx:TrackPointExtension xmlns:gpxtpx="http://www.garmin.com/xmlschemas/TrackPointExtension/v1">
            <gpxtpx:hr>98</gpxtpx:hr>
          </gpxtpx:TrackPointExtension>
        </extensions>
      </trkpt>
      <trkpt lat="43.12929" lon="1.2925">
        <ele>347.2</ele>
        <time>2023-03-05T11:27:32Z</time>
        <extensions>
          <gpxtpx:TrackPointExtension xmlns:gpxtpx="http://www.garmin.com/xmlschemas/TrackPointExtension/v1">
            <gpxtpx:hr>98</gpxtpx:hr>
          </gpxtpx:TrackPointExtension>
        </extensions>
      </trkpt>
      <trkpt lat="43.12928" lon="1.29246">
        <ele>346.8</ele>
        <time>2023-03-05T11:27:33Z</time>
        <extensions>
          <gpxtpx:TrackPointExtension xmlns:gpxtpx="http://www.garmin.com/xmlschemas/TrackPointExtension/v1">
            <gpxtpx:hr>98</gpxtpx:hr>
          </gpxtpx:TrackPointExtension>
        </extensions>
      </trkpt>
      <trkpt lat="43.12926" lon="1.29244">
        <ele>346.4</ele>
        <time>2023-03-05T11:27:34Z</time>
        <extensions>
          <gpxtpx:TrackPointExtension xmlns:gpxtpx="http://www.garmin.com/xmlschemas/TrackPointExtension/v1">
            <gpxtpx:hr>99</gpxtpx:hr>
          </gpxtpx:TrackPointExtension>
        </extensions>
      </trkpt>
      <trkpt lat="43.12926" lon="1.29242">
        <ele>346</ele>
        <time>2023-03-05T11:27:35Z</time>
        <extensions>
          <gpxtpx:TrackPointExtension xmlns:gpxtpx="http://www.garmin.com/xmlschemas/TrackPointExtension/v1">
            <gpxtpx:hr>100</gpxtpx:hr>
          </gpxtpx:TrackPointExtension>
        </extensions>
      </trkpt>
      <trkpt lat="43.12925" lon="1.29239">
        <ele>345.6</ele>
        <time>2023-03-05T11:27:36Z</time>
        <extensions>
          <gpxtpx:TrackPointExtension xmlns:gpxtpx="http://www.garmin.com/xmlschemas/TrackPointExtension/v1">
            <gpxtpx:hr>101</gpxtpx:hr>
          </gpxtpx:TrackPointExtension>
        </extensions>
      </trkpt>
      <trkpt lat="43.12922" lon="1.29234">
        <ele>345.6</ele>
        <time>2023-03-05T11:27:38Z</time>
        <extensions>
          <gpxtpx:TrackPointExtension xmlns:gpxtpx="http://www.garmin.com/xmlschemas/TrackPointExtension/v1">
            <gpxtpx:hr>102</gpxtpx:hr>
          </gpxtpx:TrackPointExtension>
        </extensions>
      </trkpt>
      <trkpt lat="43.12919" lon="1.29228">
        <ele>346</ele>
        <time>2023-03-05T11:27:40Z</time>
        <extensions>
          <gpxtpx:TrackPointExtension xmlns:gpxtpx="http://www.garmin.com/xmlschemas/TrackPointExtension/v1">
            <gpxtpx:hr>104</gpxtpx:hr>
          </gpxtpx:TrackPointExtension>
        </extensions>
      </trkpt>
      <trkpt lat="43.12918" lon="1.29226">
        <ele>346.4</ele>
        <time>2023-03-05T11:27:41Z</time>
        <extensions>
          <gpxtpx:TrackPointExtension xmlns:gpxtpx="http://www.garmin.com/xmlschemas/TrackPointExtension/v1">
            <gpxtpx:hr>105</gpxtpx:hr>
          </gpxtpx:TrackPointExtension>
        </extensions>
      </trkpt>
      <trkpt lat="43.12917" lon="1.29223">
        <ele>346.8</ele>
        <time>2023-03-05T11:27:42Z</time>
        <extensions>
          <gpxtpx:TrackPointExtension xmlns:gpxtpx="http://www.garmin.com/xmlschemas/TrackPointExtension/v1">
            <gpxtpx:hr>106</gpxtpx:hr>
          </gpxtpx:TrackPointExtension>
        </extensions>
      </trkpt>
      <trkpt lat="43.12915" lon="1.2922">
        <ele>347.2</ele>
        <time>2023-03-05T11:27:43Z</time>
        <extensions>
          <gpxtpx:TrackPointExtension xmlns:gpxtpx="http://www.garmin.com/xmlschemas/TrackPointExtension/v1">
            <gpxtpx:hr>107</gpxtpx:hr>
          </gpxtpx:TrackPointExtension>
        </extensions>
      </trkpt>
      <trkpt lat="43.12914" lon="1.29218">
        <ele>347.6</ele>
        <time>2023-03-05T11:27:44Z</time>
        <extensions>
          <gpxtpx:TrackPointExtension xmlns:gpxtpx="http://www.garmin.com/xmlschemas/TrackPointExtension/v1">
            <gpxtpx:hr>108</gpxtpx:hr>
          </gpxtpx:TrackPointExtension>
        </extensions>
      </trkpt>
      <trkpt lat="43.12912" lon="1.29214">
        <ele>348.2</ele>
        <time>2023-03-05T11:27:46Z</time>
        <extensions>
          <gpxtpx:TrackPointExtension xmlns:gpxtpx="http://www.garmin.com/xmlschemas/TrackPointExtension/v1">
            <gpxtpx:hr>108</gpxtpx:hr>
          </gpxtpx:TrackPointExtension>
        </extensions>
      </trkpt>
      <trkpt lat="43.12912" lon="1.29212">
        <ele>348.6</ele>
        <time>2023-03-05T11:27:47Z</time>
        <extensions>
          <gpxtpx:TrackPointExtension xmlns:gpxtpx="http://www.garmin.com/xmlschemas/TrackPointExtension/v1">
            <gpxtpx:hr>108</gpxtpx:hr>
          </gpxtpx:TrackPointExtension>
        </extensions>
      </trkpt>
      <trkpt lat="43.12911" lon="1.29211">
        <ele>349</ele>
        <time>2023-03-05T11:27:48Z</time>
        <extensions>
          <gpxtpx:TrackPointExtension xmlns:gpxtpx="http://www.garmin.com/xmlschemas/TrackPointExtension/v1">
            <gpxtpx:hr>108</gpxtpx:hr>
          </gpxtpx:TrackPointExtension>
        </extensions>
      </trkpt>
      <trkpt lat="43.1291" lon="1.29209">
        <ele>349.4</ele>
        <time>2023-03-05T11:27:49Z</time>
        <extensions>
          <gpxtpx:TrackPointExtension xmlns:gpxtpx="http://www.garmin.com/xmlschemas/TrackPointExtension/v1">
            <gpxtpx:hr>108</gpxtpx:hr>
          </gpxtpx:TrackPointExtension>
        </extensions>
      </trkpt>
      <trkpt lat="43.1291" lon="1.29206">
        <ele>350</ele>
        <time>2023-03-05T11:27:50Z</time>
        <extensions>
          <gpxtpx:TrackPointExtension xmlns:gpxtpx="http://www.garmin.com/xmlschemas/TrackPointExtension/v1">
            <gpxtpx:hr>108</gpxtpx:hr>
          </gpxtpx:TrackPointExtension>
        </extensions>
      </trkpt>
      <trkpt lat="43.12908" lon="1.29201">
        <ele>350</ele>
        <time>2023-03-05T11:27:52Z</time>
        <extensions>
          <gpxtpx:TrackPointExtension xmlns:gpxtpx="http://www.garmin.com/xmlschemas/TrackPointExtension/v1">
            <gpxtpx:hr>108</gpxtpx:hr>
          </gpxtpx:TrackPointExtension>
        </extensions>
      </trkpt>
      <trkpt lat="43.12907" lon="1.29198">
        <ele>350.4</ele>
        <time>2023-03-05T11:27:53Z</time>
        <extensions>
          <gpxtpx:TrackPointExtension xmlns:gpxtpx="http://www.garmin.com/xmlschemas/TrackPointExtension/v1">
            <gpxtpx:hr>109</gpxtpx:hr>
          </gpxtpx:TrackPointExtension>
        </extensions>
      </trkpt>
      <trkpt lat="43.12907" lon="1.29195">
        <ele>350.8</ele>
        <time>2023-03-05T11:27:54Z</time>
        <extensions>
          <gpxtpx:TrackPointExtension xmlns:gpxtpx="http://www.garmin.com/xmlschemas/TrackPointExtension/v1">
            <gpxtpx:hr>109</gpxtpx:hr>
          </gpxtpx:TrackPointExtension>
        </extensions>
      </trkpt>
      <trkpt lat="43.12906" lon="1.29193">
        <ele>351.2</ele>
        <time>2023-03-05T11:27:55Z</time>
        <extensions>
          <gpxtpx:TrackPointExtension xmlns:gpxtpx="http://www.garmin.com/xmlschemas/TrackPointExtension/v1">
            <gpxtpx:hr>109</gpxtpx:hr>
          </gpxtpx:TrackPointExtension>
        </extensions>
      </trkpt>
      <trkpt lat="43.12906" lon="1.29191">
        <ele>352</ele>
        <time>2023-03-05T11:27:56Z</time>
        <extensions>
          <gpxtpx:TrackPointExtension xmlns:gpxtpx="http://www.garmin.com/xmlschemas/TrackPointExtension/v1">
            <gpxtpx:hr>110</gpxtpx:hr>
          </gpxtpx:TrackPointExtension>
        </extensions>
      </trkpt>
      <trkpt lat="43.12904" lon="1.29186">
        <ele>352</ele>
        <time>2023-03-05T11:27:58Z</time>
        <extensions>
          <gpxtpx:TrackPointExtension xmlns:gpxtpx="http://www.garmin.com/xmlschemas/TrackPointExtension/v1">
            <gpxtpx:hr>111</gpxtpx:hr>
          </gpxtpx:TrackPointExtension>
        </extensions>
      </trkpt>
      <trkpt lat="43.12903" lon="1.29184">
        <ele>352.4</ele>
        <time>2023-03-05T11:27:59Z</time>
        <extensions>
          <gpxtpx:TrackPointExtension xmlns:gpxtpx="http://www.garmin.com/xmlschemas/TrackPointExtension/v1">
            <gpxtpx:hr>112</gpxtpx:hr>
          </gpxtpx:TrackPointExtension>
        </extensions>
      </trkpt>
      <trkpt lat="43.12902" lon="1.29181">
        <ele>352.8</ele>
        <time>2023-03-05T11:28:00Z</time>
        <extensions>
          <gpxtpx:TrackPointExtension xmlns:gpxtpx="http://www.garmin.com/xmlschemas/TrackPointExtension/v1">
            <gpxtpx:hr>112</gpxtpx:hr>
          </gpxtpx:TrackPointExtension>
        </extensions>
      </trkpt>
      <trkpt lat="43.12901" lon="1.29179">
        <ele>353.4</ele>
        <time>2023-03-05T11:28:01Z</time>
        <extensions>
          <gpxtpx:TrackPointExtension xmlns:gpxtpx="http://www.garmin.com/xmlschemas/TrackPointExtension/v1">
            <gpxtpx:hr>113</gpxtpx:hr>
          </gpxtpx:TrackPointExtension>
        </extensions>
      </trkpt>
      <trkpt lat="43.129" lon="1.29176">
        <ele>353.8</ele>
        <time>2023-03-05T11:28:02Z</time>
        <extensions>
          <gpxtpx:TrackPointExtension xmlns:gpxtpx="http://www.garmin.com/xmlschemas/TrackPointExtension/v1">
            <gpxtpx:hr>113</gpxtpx:hr>
          </gpxtpx:TrackPointExtension>
        </extensions>
      </trkpt>
      <trkpt lat="43.12899" lon="1.29173">
        <ele>354.2</ele>
        <time>2023-03-05T11:28:03Z</time>
        <extensions>
          <gpxtpx:TrackPointExtension xmlns:gpxtpx="http://www.garmin.com/xmlschemas/TrackPointExtension/v1">
            <gpxtpx:hr>113</gpxtpx:hr>
          </gpxtpx:TrackPointExtension>
        </extensions>
      </trkpt>
      <trkpt lat="43.12896" lon="1.29168">
        <ele>354.2</ele>
        <time>2023-03-05T11:28:05Z</time>
        <extensions>
          <gpxtpx:TrackPointExtension xmlns:gpxtpx="http://www.garmin.com/xmlschemas/TrackPointExtension/v1">
            <gpxtpx:hr>114</gpxtpx:hr>
          </gpxtpx:TrackPointExtension>
        </extensions>
      </trkpt>
      <trkpt lat="43.12894" lon="1.29164">
        <ele>354.6</ele>
        <time>2023-03-05T11:28:07Z</time>
        <extensions>
          <gpxtpx:TrackPointExtension xmlns:gpxtpx="http://www.garmin.com/xmlschemas/TrackPointExtension/v1">
            <gpxtpx:hr>115</gpxtpx:hr>
          </gpxtpx:TrackPointExtension>
        </extensions>
      </trkpt>
      <trkpt lat="43.12892" lon="1.29162">
        <ele>355</ele>
        <time>2023-03-05T11:28:08Z</time>
        <extensions>
          <gpxtpx:TrackPointExtension xmlns:gpxtpx="http://www.garmin.com/xmlschemas/TrackPointExtension/v1">
            <gpxtpx:hr>115</gpxtpx:hr>
          </gpxtpx:TrackPointExtension>
        </extensions>
      </trkpt>
      <trkpt lat="43.12891" lon="1.2916">
        <ele>355.4</ele>
        <time>2023-03-05T11:28:09Z</time>
        <extensions>
          <gpxtpx:TrackPointExtension xmlns:gpxtpx="http://www.garmin.com/xmlschemas/TrackPointExtension/v1">
            <gpxtpx:hr>115</gpxtpx:hr>
          </gpxtpx:TrackPointExtension>
        </extensions>
      </trkpt>
      <trkpt lat="43.12889" lon="1.29159">
        <ele>355.8</ele>
        <time>2023-03-05T11:28:10Z</time>
        <extensions>
          <gpxtpx:TrackPointExtension xmlns:gpxtpx="http://www.garmin.com/xmlschemas/TrackPointExtension/v1">
            <gpxtpx:hr>115</gpxtpx:hr>
          </gpxtpx:TrackPointExtension>
        </extensions>
      </trkpt>
      <trkpt lat="43.12887" lon="1.29158">
        <ele>356.2</ele>
        <time>2023-03-05T11:28:11Z</time>
        <extensions>
          <gpxtpx:TrackPointExtension xmlns:gpxtpx="http://www.garmin.com/xmlschemas/TrackPointExtension/v1">
            <gpxtpx:hr>115</gpxtpx:hr>
          </gpxtpx:TrackPointExtension>
        </extensions>
      </trkpt>
      <trkpt lat="43.12881" lon="1.29156">
        <ele>356.2</ele>
        <time>2023-03-05T11:28:14Z</time>
        <extensions>
          <gpxtpx:TrackPointExtension xmlns:gpxtpx="http://www.garmin.com/xmlschemas/TrackPointExtension/v1">
            <gpxtpx:hr>118</gpxtpx:hr>
          </gpxtpx:TrackPointExtension>
        </extensions>
      </trkpt>
      <trkpt lat="43.12874" lon="1.29153">
        <ele>356.2</ele>
        <time>2023-03-05T11:28:17Z</time>
        <extensions>
          <gpxtpx:TrackPointExtension xmlns:gpxtpx="http://www.garmin.com/xmlschemas/TrackPointExtension/v1">
            <gpxtpx:hr>119</gpxtpx:hr>
          </gpxtpx:TrackPointExtension>
        </extensions>
      </trkpt>
      <trkpt lat="43.12856" lon="1.29142">
        <ele>356.2</ele>
        <time>2023-03-05T11:28:24Z</time>
        <extensions>
          <gpxtpx:TrackPointExtension xmlns:gpxtpx="http://www.garmin.com/xmlschemas/TrackPointExtension/v1">
            <gpxtpx:hr>120</gpxtpx:hr>
          </gpxtpx:TrackPointExtension>
        </extensions>
      </trkpt>
      <trkpt lat="43.12853" lon="1.29138">
        <ele>356.2</ele>
        <time>2023-03-05T11:28:26Z</time>
        <extensions>
          <gpxtpx:TrackPointExtension xmlns:gpxtpx="http://www.garmin.com/xmlschemas/TrackPointExtension/v1">
            <gpxtpx:hr>120</gpxtpx:hr>
          </gpxtpx:TrackPointExtension>
        </extensions>
      </trkpt>
      <trkpt lat="43.12853" lon="1.29131">
        <ele>356.2</ele>
        <time>2023-03-05T11:28:28Z</time>
        <extensions>
          <gpxtpx:TrackPointExtension xmlns:gpxtpx="http://www.garmin.com/xmlschemas/TrackPointExtension/v1">
            <gpxtpx:hr>120</gpxtpx:hr>
          </gpxtpx:TrackPointExtension>
        </extensions>
      </trkpt>
      <trkpt lat="43.12856" lon="1.29115">
        <ele>356.2</ele>
        <time>2023-03-05T11:28:32Z</time>
        <extensions>
          <gpxtpx:TrackPointExtension xmlns:gpxtpx="http://www.garmin.com/xmlschemas/TrackPointExtension/v1">
            <gpxtpx:hr>119</gpxtpx:hr>
          </gpxtpx:TrackPointExtension>
        </extensions>
      </trkpt>
      <trkpt lat="43.12857" lon="1.29111">
        <ele>356.2</ele>
        <time>2023-03-05T11:28:33Z</time>
        <extensions>
          <gpxtpx:TrackPointExtension xmlns:gpxtpx="http://www.garmin.com/xmlschemas/TrackPointExtension/v1">
            <gpxtpx:hr>118</gpxtpx:hr>
          </gpxtpx:TrackPointExtension>
        </extensions>
      </trkpt>
      <trkpt lat="43.12863" lon="1.29079">
        <ele>356.2</ele>
        <time>2023-03-05T11:28:40Z</time>
        <extensions>
          <gpxtpx:TrackPointExtension xmlns:gpxtpx="http://www.garmin.com/xmlschemas/TrackPointExtension/v1">
            <gpxtpx:hr>117</gpxtpx:hr>
          </gpxtpx:TrackPointExtension>
        </extensions>
      </trkpt>
      <trkpt lat="43.12868" lon="1.29053">
        <ele>356.2</ele>
        <time>2023-03-05T11:28:45Z</time>
        <extensions>
          <gpxtpx:TrackPointExtension xmlns:gpxtpx="http://www.garmin.com/xmlschemas/TrackPointExtension/v1">
            <gpxtpx:hr>116</gpxtpx:hr>
          </gpxtpx:TrackPointExtension>
        </extensions>
      </trkpt>
      <trkpt lat="43.12871" lon="1.29035">
        <ele>356.2</ele>
        <time>2023-03-05T11:28:49Z</time>
        <extensions>
          <gpxtpx:TrackPointExtension xmlns:gpxtpx="http://www.garmin.com/xmlschemas/TrackPointExtension/v1">
            <gpxtpx:hr>113</gpxtpx:hr>
          </gpxtpx:TrackPointExtension>
        </extensions>
      </trkpt>
      <trkpt lat="43.12873" lon="1.29027">
        <ele>356.2</ele>
        <time>2023-03-05T11:28:51Z</time>
        <extensions>
          <gpxtpx:TrackPointExtension xmlns:gpxtpx="http://www.garmin.com/xmlschemas/TrackPointExtension/v1">
            <gpxtpx:hr>113</gpxtpx:hr>
          </gpxtpx:TrackPointExtension>
        </extensions>
      </trkpt>
      <trkpt lat="43.12877" lon="1.29002">
        <ele>356.2</ele>
        <time>2023-03-05T11:28:57Z</time>
        <extensions>
          <gpxtpx:TrackPointExtension xmlns:gpxtpx="http://www.garmin.com/xmlschemas/TrackPointExtension/v1">
            <gpxtpx:hr>111</gpxtpx:hr>
          </gpxtpx:TrackPointExtension>
        </extensions>
      </trkpt>
      <trkpt lat="43.12879" lon="1.2899">
        <ele>356.2</ele>
        <time>2023-03-05T11:29:00Z</time>
        <extensions>
          <gpxtpx:TrackPointExtension xmlns:gpxtpx="http://www.garmin.com/xmlschemas/TrackPointExtension/v1">
            <gpxtpx:hr>107</gpxtpx:hr>
          </gpxtpx:TrackPointExtension>
        </extensions>
      </trkpt>
      <trkpt lat="43.12882" lon="1.2897">
        <ele>356.2</ele>
        <time>2023-03-05T11:29:05Z</time>
        <extensions>
          <gpxtpx:TrackPointExtension xmlns:gpxtpx="http://www.garmin.com/xmlschemas/TrackPointExtension/v1">
            <gpxtpx:hr>106</gpxtpx:hr>
          </gpxtpx:TrackPointExtension>
        </extensions>
      </trkpt>
      <trkpt lat="43.12877" lon="1.28956">
        <ele>356.2</ele>
        <time>2023-03-05T11:29:09Z</time>
        <extensions>
          <gpxtpx:TrackPointExtension xmlns:gpxtpx="http://www.garmin.com/xmlschemas/TrackPointExtension/v1">
            <gpxtpx:hr>105</gpxtpx:hr>
          </gpxtpx:TrackPointExtension>
        </extensions>
      </trkpt>
      <trkpt lat="43.1287" lon="1.28939">
        <ele>355.8</ele>
        <time>2023-03-05T11:29:13Z</time>
        <extensions>
          <gpxtpx:TrackPointExtension xmlns:gpxtpx="http://www.garmin.com/xmlschemas/TrackPointExtension/v1">
            <gpxtpx:hr>103</gpxtpx:hr>
          </gpxtpx:TrackPointExtension>
        </extensions>
      </trkpt>
      <trkpt lat="43.12868" lon="1.28934">
        <ele>355.4</ele>
        <time>2023-03-05T11:29:14Z</time>
        <extensions>
          <gpxtpx:TrackPointExtension xmlns:gpxtpx="http://www.garmin.com/xmlschemas/TrackPointExtension/v1">
            <gpxtpx:hr>102</gpxtpx:hr>
          </gpxtpx:TrackPointExtension>
        </extensions>
      </trkpt>
      <trkpt lat="43.12866" lon="1.28927">
        <ele>355</ele>
        <time>2023-03-05T11:29:15Z</time>
        <extensions>
          <gpxtpx:TrackPointExtension xmlns:gpxtpx="http://www.garmin.com/xmlschemas/TrackPointExtension/v1">
            <gpxtpx:hr>102</gpxtpx:hr>
          </gpxtpx:TrackPointExtension>
        </extensions>
      </trkpt>
      <trkpt lat="43.12864" lon="1.28921">
        <ele>354.6</ele>
        <time>2023-03-05T11:29:16Z</time>
        <extensions>
          <gpxtpx:TrackPointExtension xmlns:gpxtpx="http://www.garmin.com/xmlschemas/TrackPointExtension/v1">
            <gpxtpx:hr>102</gpxtpx:hr>
          </gpxtpx:TrackPointExtension>
        </extensions>
      </trkpt>
      <trkpt lat="43.12862" lon="1.28913">
        <ele>354.2</ele>
        <time>2023-03-05T11:29:17Z</time>
        <extensions>
          <gpxtpx:TrackPointExtension xmlns:gpxtpx="http://www.garmin.com/xmlschemas/TrackPointExtension/v1">
            <gpxtpx:hr>103</gpxtpx:hr>
          </gpxtpx:TrackPointExtension>
        </extensions>
      </trkpt>
      <trkpt lat="43.12857" lon="1.28892">
        <ele>353.8</ele>
        <time>2023-03-05T11:29:20Z</time>
        <extensions>
          <gpxtpx:TrackPointExtension xmlns:gpxtpx="http://www.garmin.com/xmlschemas/TrackPointExtension/v1">
            <gpxtpx:hr>104</gpxtpx:hr>
          </gpxtpx:TrackPointExtension>
        </extensions>
      </trkpt>
      <trkpt lat="43.12856" lon="1.28885">
        <ele>353.4</ele>
        <time>2023-03-05T11:29:21Z</time>
        <extensions>
          <gpxtpx:TrackPointExtension xmlns:gpxtpx="http://www.garmin.com/xmlschemas/TrackPointExtension/v1">
            <gpxtpx:hr>103</gpxtpx:hr>
          </gpxtpx:TrackPointExtension>
        </extensions>
      </trkpt>
      <trkpt lat="43.12854" lon="1.28878">
        <ele>352.8</ele>
        <time>2023-03-05T11:29:22Z</time>
        <extensions>
          <gpxtpx:TrackPointExtension xmlns:gpxtpx="http://www.garmin.com/xmlschemas/TrackPointExtension/v1">
            <gpxtpx:hr>103</gpxtpx:hr>
          </gpxtpx:TrackPointExtension>
        </extensions>
      </trkpt>
      <trkpt lat="43.12852" lon="1.28872">
        <ele>352.4</ele>
        <time>2023-03-05T11:29:23Z</time>
        <extensions>
          <gpxtpx:TrackPointExtension xmlns:gpxtpx="http://www.garmin.com/xmlschemas/TrackPointExtension/v1">
            <gpxtpx:hr>102</gpxtpx:hr>
          </gpxtpx:TrackPointExtension>
        </extensions>
      </trkpt>
      <trkpt lat="43.12851" lon="1.28867">
        <ele>352</ele>
        <time>2023-03-05T11:29:24Z</time>
        <extensions>
          <gpxtpx:TrackPointExtension xmlns:gpxtpx="http://www.garmin.com/xmlschemas/TrackPointExtension/v1">
            <gpxtpx:hr>102</gpxtpx:hr>
          </gpxtpx:TrackPointExtension>
        </extensions>
      </trkpt>
      <trkpt lat="43.12848" lon="1.28862">
        <ele>352</ele>
        <time>2023-03-05T11:29:25Z</time>
        <extensions>
          <gpxtpx:TrackPointExtension xmlns:gpxtpx="http://www.garmin.com/xmlschemas/TrackPointExtension/v1">
            <gpxtpx:hr>101</gpxtpx:hr>
          </gpxtpx:TrackPointExtension>
        </extensions>
      </trkpt>
      <trkpt lat="43.12842" lon="1.28855">
        <ele>352</ele>
        <time>2023-03-05T11:29:28Z</time>
        <extensions>
          <gpxtpx:TrackPointExtension xmlns:gpxtpx="http://www.garmin.com/xmlschemas/TrackPointExtension/v1">
            <gpxtpx:hr>100</gpxtpx:hr>
          </gpxtpx:TrackPointExtension>
        </extensions>
      </trkpt>
      <trkpt lat="43.12839" lon="1.28854">
        <ele>351.6</ele>
        <time>2023-03-05T11:29:29Z</time>
        <extensions>
          <gpxtpx:TrackPointExtension xmlns:gpxtpx="http://www.garmin.com/xmlschemas/TrackPointExtension/v1">
            <gpxtpx:hr>99</gpxtpx:hr>
          </gpxtpx:TrackPointExtension>
        </extensions>
      </trkpt>
      <trkpt lat="43.12836" lon="1.28851">
        <ele>351.2</ele>
        <time>2023-03-05T11:29:30Z</time>
        <extensions>
          <gpxtpx:TrackPointExtension xmlns:gpxtpx="http://www.garmin.com/xmlschemas/TrackPointExtension/v1">
            <gpxtpx:hr>99</gpxtpx:hr>
          </gpxtpx:TrackPointExtension>
        </extensions>
      </trkpt>
      <trkpt lat="43.12834" lon="1.28848">
        <ele>350.6</ele>
        <time>2023-03-05T11:29:31Z</time>
        <extensions>
          <gpxtpx:TrackPointExtension xmlns:gpxtpx="http://www.garmin.com/xmlschemas/TrackPointExtension/v1">
            <gpxtpx:hr>99</gpxtpx:hr>
          </gpxtpx:TrackPointExtension>
        </extensions>
      </trkpt>
      <trkpt lat="43.12833" lon="1.28843">
        <ele>350.2</ele>
        <time>2023-03-05T11:29:32Z</time>
        <extensions>
          <gpxtpx:TrackPointExtension xmlns:gpxtpx="http://www.garmin.com/xmlschemas/TrackPointExtension/v1">
            <gpxtpx:hr>99</gpxtpx:hr>
          </gpxtpx:TrackPointExtension>
        </extensions>
      </trkpt>
      <trkpt lat="43.12832" lon="1.28838">
        <ele>349.8</ele>
        <time>2023-03-05T11:29:33Z</time>
        <extensions>
          <gpxtpx:TrackPointExtension xmlns:gpxtpx="http://www.garmin.com/xmlschemas/TrackPointExtension/v1">
            <gpxtpx:hr>99</gpxtpx:hr>
          </gpxtpx:TrackPointExtension>
        </extensions>
      </trkpt>
      <trkpt lat="43.12829" lon="1.28833">
        <ele>349.8</ele>
        <time>2023-03-05T11:29:35Z</time>
        <extensions>
          <gpxtpx:TrackPointExtension xmlns:gpxtpx="http://www.garmin.com/xmlschemas/TrackPointExtension/v1">
            <gpxtpx:hr>98</gpxtpx:hr>
          </gpxtpx:TrackPointExtension>
        </extensions>
      </trkpt>
      <trkpt lat="43.12828" lon="1.28829">
        <ele>349.8</ele>
        <time>2023-03-05T11:29:36Z</time>
        <extensions>
          <gpxtpx:TrackPointExtension xmlns:gpxtpx="http://www.garmin.com/xmlschemas/TrackPointExtension/v1">
            <gpxtpx:hr>97</gpxtpx:hr>
          </gpxtpx:TrackPointExtension>
        </extensions>
      </trkpt>
      <trkpt lat="43.12825" lon="1.28818">
        <ele>349.8</ele>
        <time>2023-03-05T11:29:40Z</time>
        <extensions>
          <gpxtpx:TrackPointExtension xmlns:gpxtpx="http://www.garmin.com/xmlschemas/TrackPointExtension/v1">
            <gpxtpx:hr>98</gpxtpx:hr>
          </gpxtpx:TrackPointExtension>
        </extensions>
      </trkpt>
      <trkpt lat="43.12824" lon="1.28816">
        <ele>349.8</ele>
        <time>2023-03-05T11:29:41Z</time>
        <extensions>
          <gpxtpx:TrackPointExtension xmlns:gpxtpx="http://www.garmin.com/xmlschemas/TrackPointExtension/v1">
            <gpxtpx:hr>98</gpxtpx:hr>
          </gpxtpx:TrackPointExtension>
        </extensions>
      </trkpt>
      <trkpt lat="43.12817" lon="1.28812">
        <ele>349.8</ele>
        <time>2023-03-05T11:29:45Z</time>
        <extensions>
          <gpxtpx:TrackPointExtension xmlns:gpxtpx="http://www.garmin.com/xmlschemas/TrackPointExtension/v1">
            <gpxtpx:hr>96</gpxtpx:hr>
          </gpxtpx:TrackPointExtension>
        </extensions>
      </trkpt>
      <trkpt lat="43.12812" lon="1.28812">
        <ele>349.4</ele>
        <time>2023-03-05T11:29:49Z</time>
        <extensions>
          <gpxtpx:TrackPointExtension xmlns:gpxtpx="http://www.garmin.com/xmlschemas/TrackPointExtension/v1">
            <gpxtpx:hr>96</gpxtpx:hr>
          </gpxtpx:TrackPointExtension>
        </extensions>
      </trkpt>
      <trkpt lat="43.12809" lon="1.28812">
        <ele>347.6</ele>
        <time>2023-03-05T11:29:59Z</time>
        <extensions>
          <gpxtpx:TrackPointExtension xmlns:gpxtpx="http://www.garmin.com/xmlschemas/TrackPointExtension/v1">
            <gpxtpx:hr>93</gpxtpx:hr>
          </gpxtpx:TrackPointExtension>
        </extensions>
      </trkpt>
      <trkpt lat="43.1281" lon="1.28817">
        <ele>347.6</ele>
        <time>2023-03-05T11:30:01Z</time>
        <extensions>
          <gpxtpx:TrackPointExtension xmlns:gpxtpx="http://www.garmin.com/xmlschemas/TrackPointExtension/v1">
            <gpxtpx:hr>93</gpxtpx:hr>
          </gpxtpx:TrackPointExtension>
        </extensions>
      </trkpt>
      <trkpt lat="43.12812" lon="1.28821">
        <ele>347.6</ele>
        <time>2023-03-05T11:30:03Z</time>
        <extensions>
          <gpxtpx:TrackPointExtension xmlns:gpxtpx="http://www.garmin.com/xmlschemas/TrackPointExtension/v1">
            <gpxtpx:hr>93</gpxtpx:hr>
          </gpxtpx:TrackPointExtension>
        </extensions>
      </trkpt>
      <trkpt lat="43.12815" lon="1.28815">
        <ele>347.6</ele>
        <time>2023-03-05T11:30:06Z</time>
        <extensions>
          <gpxtpx:TrackPointExtension xmlns:gpxtpx="http://www.garmin.com/xmlschemas/TrackPointExtension/v1">
            <gpxtpx:hr>95</gpxtpx:hr>
          </gpxtpx:TrackPointExtension>
        </extensions>
      </trkpt>
      <trkpt lat="43.12817" lon="1.28809">
        <ele>347.6</ele>
        <time>2023-03-05T11:30:10Z</time>
        <extensions>
          <gpxtpx:TrackPointExtension xmlns:gpxtpx="http://www.garmin.com/xmlschemas/TrackPointExtension/v1">
            <gpxtpx:hr>96</gpxtpx:hr>
          </gpxtpx:TrackPointExtension>
        </extensions>
      </trkpt>
      <trkpt lat="43.12818" lon="1.28798">
        <ele>347.6</ele>
        <time>2023-03-05T11:30:14Z</time>
        <extensions>
          <gpxtpx:TrackPointExtension xmlns:gpxtpx="http://www.garmin.com/xmlschemas/TrackPointExtension/v1">
            <gpxtpx:hr>99</gpxtpx:hr>
          </gpxtpx:TrackPointExtension>
        </extensions>
      </trkpt>
      <trkpt lat="43.12818" lon="1.28795">
        <ele>347.6</ele>
        <time>2023-03-05T11:30:15Z</time>
        <extensions>
          <gpxtpx:TrackPointExtension xmlns:gpxtpx="http://www.garmin.com/xmlschemas/TrackPointExtension/v1">
            <gpxtpx:hr>100</gpxtpx:hr>
          </gpxtpx:TrackPointExtension>
        </extensions>
      </trkpt>
      <trkpt lat="43.12818" lon="1.28787">
        <ele>347.6</ele>
        <time>2023-03-05T11:30:17Z</time>
        <extensions>
          <gpxtpx:TrackPointExtension xmlns:gpxtpx="http://www.garmin.com/xmlschemas/TrackPointExtension/v1">
            <gpxtpx:hr>102</gpxtpx:hr>
          </gpxtpx:TrackPointExtension>
        </extensions>
      </trkpt>
      <trkpt lat="43.12813" lon="1.28776">
        <ele>347.6</ele>
        <time>2023-03-05T11:30:21Z</time>
        <extensions>
          <gpxtpx:TrackPointExtension xmlns:gpxtpx="http://www.garmin.com/xmlschemas/TrackPointExtension/v1">
            <gpxtpx:hr>102</gpxtpx:hr>
          </gpxtpx:TrackPointExtension>
        </extensions>
      </trkpt>
      <trkpt lat="43.12805" lon="1.2876">
        <ele>348</ele>
        <time>2023-03-05T11:30:27Z</time>
        <extensions>
          <gpxtpx:TrackPointExtension xmlns:gpxtpx="http://www.garmin.com/xmlschemas/TrackPointExtension/v1">
            <gpxtpx:hr>103</gpxtpx:hr>
          </gpxtpx:TrackPointExtension>
        </extensions>
      </trkpt>
      <trkpt lat="43.12803" lon="1.28758">
        <ele>348.4</ele>
        <time>2023-03-05T11:30:28Z</time>
        <extensions>
          <gpxtpx:TrackPointExtension xmlns:gpxtpx="http://www.garmin.com/xmlschemas/TrackPointExtension/v1">
            <gpxtpx:hr>102</gpxtpx:hr>
          </gpxtpx:TrackPointExtension>
        </extensions>
      </trkpt>
      <trkpt lat="43.12802" lon="1.28757">
        <ele>348.8</ele>
        <time>2023-03-05T11:30:29Z</time>
        <extensions>
          <gpxtpx:TrackPointExtension xmlns:gpxtpx="http://www.garmin.com/xmlschemas/TrackPointExtension/v1">
            <gpxtpx:hr>103</gpxtpx:hr>
          </gpxtpx:TrackPointExtension>
        </extensions>
      </trkpt>
      <trkpt lat="43.128" lon="1.28755">
        <ele>349.4</ele>
        <time>2023-03-05T11:30:30Z</time>
        <extensions>
          <gpxtpx:TrackPointExtension xmlns:gpxtpx="http://www.garmin.com/xmlschemas/TrackPointExtension/v1">
            <gpxtpx:hr>104</gpxtpx:hr>
          </gpxtpx:TrackPointExtension>
        </extensions>
      </trkpt>
      <trkpt lat="43.12798" lon="1.28752">
        <ele>349.8</ele>
        <time>2023-03-05T11:30:31Z</time>
        <extensions>
          <gpxtpx:TrackPointExtension xmlns:gpxtpx="http://www.garmin.com/xmlschemas/TrackPointExtension/v1">
            <gpxtpx:hr>103</gpxtpx:hr>
          </gpxtpx:TrackPointExtension>
        </extensions>
      </trkpt>
      <trkpt lat="43.12793" lon="1.28747">
        <ele>349.8</ele>
        <time>2023-03-05T11:30:33Z</time>
        <extensions>
          <gpxtpx:TrackPointExtension xmlns:gpxtpx="http://www.garmin.com/xmlschemas/TrackPointExtension/v1">
            <gpxtpx:hr>103</gpxtpx:hr>
          </gpxtpx:TrackPointExtension>
        </extensions>
      </trkpt>
      <trkpt lat="43.12783" lon="1.2873">
        <ele>349.8</ele>
        <time>2023-03-05T11:30:38Z</time>
        <extensions>
          <gpxtpx:TrackPointExtension xmlns:gpxtpx="http://www.garmin.com/xmlschemas/TrackPointExtension/v1">
            <gpxtpx:hr>105</gpxtpx:hr>
          </gpxtpx:TrackPointExtension>
        </extensions>
      </trkpt>
      <trkpt lat="43.12782" lon="1.28727">
        <ele>349.8</ele>
        <time>2023-03-05T11:30:39Z</time>
        <extensions>
          <gpxtpx:TrackPointExtension xmlns:gpxtpx="http://www.garmin.com/xmlschemas/TrackPointExtension/v1">
            <gpxtpx:hr>105</gpxtpx:hr>
          </gpxtpx:TrackPointExtension>
        </extensions>
      </trkpt>
      <trkpt lat="43.1278" lon="1.28716">
        <ele>350.2</ele>
        <time>2023-03-05T11:30:42Z</time>
        <extensions>
          <gpxtpx:TrackPointExtension xmlns:gpxtpx="http://www.garmin.com/xmlschemas/TrackPointExtension/v1">
            <gpxtpx:hr>106</gpxtpx:hr>
          </gpxtpx:TrackPointExtension>
        </extensions>
      </trkpt>
      <trkpt lat="43.12779" lon="1.28713">
        <ele>350.6</ele>
        <time>2023-03-05T11:30:43Z</time>
        <extensions>
          <gpxtpx:TrackPointExtension xmlns:gpxtpx="http://www.garmin.com/xmlschemas/TrackPointExtension/v1">
            <gpxtpx:hr>106</gpxtpx:hr>
          </gpxtpx:TrackPointExtension>
        </extensions>
      </trkpt>
      <trkpt lat="43.12777" lon="1.28711">
        <ele>351</ele>
        <time>2023-03-05T11:30:44Z</time>
        <extensions>
          <gpxtpx:TrackPointExtension xmlns:gpxtpx="http://www.garmin.com/xmlschemas/TrackPointExtension/v1">
            <gpxtpx:hr>107</gpxtpx:hr>
          </gpxtpx:TrackPointExtension>
        </extensions>
      </trkpt>
      <trkpt lat="43.12775" lon="1.28708">
        <ele>351.4</ele>
        <time>2023-03-05T11:30:45Z</time>
        <extensions>
          <gpxtpx:TrackPointExtension xmlns:gpxtpx="http://www.garmin.com/xmlschemas/TrackPointExtension/v1">
            <gpxtpx:hr>108</gpxtpx:hr>
          </gpxtpx:TrackPointExtension>
        </extensions>
      </trkpt>
      <trkpt lat="43.12772" lon="1.28706">
        <ele>351.8</ele>
        <time>2023-03-05T11:30:46Z</time>
        <extensions>
          <gpxtpx:TrackPointExtension xmlns:gpxtpx="http://www.garmin.com/xmlschemas/TrackPointExtension/v1">
            <gpxtpx:hr>108</gpxtpx:hr>
          </gpxtpx:TrackPointExtension>
        </extensions>
      </trkpt>
      <trkpt lat="43.12758" lon="1.28701">
        <ele>351.8</ele>
        <time>2023-03-05T11:30:51Z</time>
        <extensions>
          <gpxtpx:TrackPointExtension xmlns:gpxtpx="http://www.garmin.com/xmlschemas/TrackPointExtension/v1">
            <gpxtpx:hr>109</gpxtpx:hr>
          </gpxtpx:TrackPointExtension>
        </extensions>
      </trkpt>
      <trkpt lat="43.12749" lon="1.28699">
        <ele>351.8</ele>
        <time>2023-03-05T11:30:54Z</time>
        <extensions>
          <gpxtpx:TrackPointExtension xmlns:gpxtpx="http://www.garmin.com/xmlschemas/TrackPointExtension/v1">
            <gpxtpx:hr>112</gpxtpx:hr>
          </gpxtpx:TrackPointExtension>
        </extensions>
      </trkpt>
      <trkpt lat="43.12736" lon="1.28698">
        <ele>351.8</ele>
        <time>2023-03-05T11:30:57Z</time>
        <extensions>
          <gpxtpx:TrackPointExtension xmlns:gpxtpx="http://www.garmin.com/xmlschemas/TrackPointExtension/v1">
            <gpxtpx:hr>112</gpxtpx:hr>
          </gpxtpx:TrackPointExtension>
        </extensions>
      </trkpt>
      <trkpt lat="43.12706" lon="1.28695">
        <ele>351.8</ele>
        <time>2023-03-05T11:31:05Z</time>
        <extensions>
          <gpxtpx:TrackPointExtension xmlns:gpxtpx="http://www.garmin.com/xmlschemas/TrackPointExtension/v1">
            <gpxtpx:hr>110</gpxtpx:hr>
          </gpxtpx:TrackPointExtension>
        </extensions>
      </trkpt>
      <trkpt lat="43.12684" lon="1.28697">
        <ele>351.8</ele>
        <time>2023-03-05T11:31:12Z</time>
        <extensions>
          <gpxtpx:TrackPointExtension xmlns:gpxtpx="http://www.garmin.com/xmlschemas/TrackPointExtension/v1">
            <gpxtpx:hr>107</gpxtpx:hr>
          </gpxtpx:TrackPointExtension>
        </extensions>
      </trkpt>
      <trkpt lat="43.12681" lon="1.28696">
        <ele>351.8</ele>
        <time>2023-03-05T11:31:14Z</time>
        <extensions>
          <gpxtpx:TrackPointExtension xmlns:gpxtpx="http://www.garmin.com/xmlschemas/TrackPointExtension/v1">
            <gpxtpx:hr>105</gpxtpx:hr>
          </gpxtpx:TrackPointExtension>
        </extensions>
      </trkpt>
      <trkpt lat="43.1268" lon="1.28693">
        <ele>351.8</ele>
        <time>2023-03-05T11:31:16Z</time>
        <extensions>
          <gpxtpx:TrackPointExtension xmlns:gpxtpx="http://www.garmin.com/xmlschemas/TrackPointExtension/v1">
            <gpxtpx:hr>104</gpxtpx:hr>
          </gpxtpx:TrackPointExtension>
        </extensions>
      </trkpt>
      <trkpt lat="43.12679" lon="1.28692">
        <ele>351.8</ele>
        <time>2023-03-05T11:31:18Z</time>
        <extensions>
          <gpxtpx:TrackPointExtension xmlns:gpxtpx="http://www.garmin.com/xmlschemas/TrackPointExtension/v1">
            <gpxtpx:hr>104</gpxtpx:hr>
          </gpxtpx:TrackPointExtension>
        </extensions>
      </trkpt>
      <trkpt lat="43.12677" lon="1.28684">
        <ele>351.8</ele>
        <time>2023-03-05T11:31:33Z</time>
        <extensions>
          <gpxtpx:TrackPointExtension xmlns:gpxtpx="http://www.garmin.com/xmlschemas/TrackPointExtension/v1">
            <gpxtpx:hr>99</gpxtpx:hr>
          </gpxtpx:TrackPointExtension>
        </extensions>
      </trkpt>
      <trkpt lat="43.12676" lon="1.28681">
        <ele>351.8</ele>
        <time>2023-03-05T11:31:34Z</time>
        <extensions>
          <gpxtpx:TrackPointExtension xmlns:gpxtpx="http://www.garmin.com/xmlschemas/TrackPointExtension/v1">
            <gpxtpx:hr>100</gpxtpx:hr>
          </gpxtpx:TrackPointExtension>
        </extensions>
      </trkpt>
      <trkpt lat="43.12676" lon="1.28676">
        <ele>351.8</ele>
        <time>2023-03-05T11:31:36Z</time>
        <extensions>
          <gpxtpx:TrackPointExtension xmlns:gpxtpx="http://www.garmin.com/xmlschemas/TrackPointExtension/v1">
            <gpxtpx:hr>103</gpxtpx:hr>
          </gpxtpx:TrackPointExtension>
        </extensions>
      </trkpt>
      <trkpt lat="43.12676" lon="1.2866">
        <ele>351.8</ele>
        <time>2023-03-05T11:31:40Z</time>
        <extensions>
          <gpxtpx:TrackPointExtension xmlns:gpxtpx="http://www.garmin.com/xmlschemas/TrackPointExtension/v1">
            <gpxtpx:hr>103</gpxtpx:hr>
          </gpxtpx:TrackPointExtension>
        </extensions>
      </trkpt>
      <trkpt lat="43.12674" lon="1.28648">
        <ele>351.8</ele>
        <time>2023-03-05T11:31:44Z</time>
        <extensions>
          <gpxtpx:TrackPointExtension xmlns:gpxtpx="http://www.garmin.com/xmlschemas/TrackPointExtension/v1">
            <gpxtpx:hr>100</gpxtpx:hr>
          </gpxtpx:TrackPointExtension>
        </extensions>
      </trkpt>
      <trkpt lat="43.12675" lon="1.28645">
        <ele>351.8</ele>
        <time>2023-03-05T11:31:45Z</time>
        <extensions>
          <gpxtpx:TrackPointExtension xmlns:gpxtpx="http://www.garmin.com/xmlschemas/TrackPointExtension/v1">
            <gpxtpx:hr>100</gpxtpx:hr>
          </gpxtpx:TrackPointExtension>
        </extensions>
      </trkpt>
      <trkpt lat="43.1268" lon="1.28631">
        <ele>351.8</ele>
        <time>2023-03-05T11:31:49Z</time>
        <extensions>
          <gpxtpx:TrackPointExtension xmlns:gpxtpx="http://www.garmin.com/xmlschemas/TrackPointExtension/v1">
            <gpxtpx:hr>99</gpxtpx:hr>
          </gpxtpx:TrackPointExtension>
        </extensions>
      </trkpt>
      <trkpt lat="43.12686" lon="1.28607">
        <ele>351.8</ele>
        <time>2023-03-05T11:31:55Z</time>
        <extensions>
          <gpxtpx:TrackPointExtension xmlns:gpxtpx="http://www.garmin.com/xmlschemas/TrackPointExtension/v1">
            <gpxtpx:hr>101</gpxtpx:hr>
          </gpxtpx:TrackPointExtension>
        </extensions>
      </trkpt>
      <trkpt lat="43.12686" lon="1.28588">
        <ele>351.8</ele>
        <time>2023-03-05T11:32:00Z</time>
        <extensions>
          <gpxtpx:TrackPointExtension xmlns:gpxtpx="http://www.garmin.com/xmlschemas/TrackPointExtension/v1">
            <gpxtpx:hr>104</gpxtpx:hr>
          </gpxtpx:TrackPointExtension>
        </extensions>
      </trkpt>
      <trkpt lat="43.12683" lon="1.28563">
        <ele>351.8</ele>
        <time>2023-03-05T11:32:05Z</time>
        <extensions>
          <gpxtpx:TrackPointExtension xmlns:gpxtpx="http://www.garmin.com/xmlschemas/TrackPointExtension/v1">
            <gpxtpx:hr>105</gpxtpx:hr>
          </gpxtpx:TrackPointExtension>
        </extensions>
      </trkpt>
      <trkpt lat="43.12681" lon="1.28538">
        <ele>351.8</ele>
        <time>2023-03-05T11:32:11Z</time>
        <extensions>
          <gpxtpx:TrackPointExtension xmlns:gpxtpx="http://www.garmin.com/xmlschemas/TrackPointExtension/v1">
            <gpxtpx:hr>104</gpxtpx:hr>
          </gpxtpx:TrackPointExtension>
        </extensions>
      </trkpt>
      <trkpt lat="43.12677" lon="1.28511">
        <ele>351.8</ele>
        <time>2023-03-05T11:32:17Z</time>
        <extensions>
          <gpxtpx:TrackPointExtension xmlns:gpxtpx="http://www.garmin.com/xmlschemas/TrackPointExtension/v1">
            <gpxtpx:hr>101</gpxtpx:hr>
          </gpxtpx:TrackPointExtension>
        </extensions>
      </trkpt>
      <trkpt lat="43.12677" lon="1.28506">
        <ele>351.4</ele>
        <time>2023-03-05T11:32:18Z</time>
        <extensions>
          <gpxtpx:TrackPointExtension xmlns:gpxtpx="http://www.garmin.com/xmlschemas/TrackPointExtension/v1">
            <gpxtpx:hr>101</gpxtpx:hr>
          </gpxtpx:TrackPointExtension>
        </extensions>
      </trkpt>
      <trkpt lat="43.12676" lon="1.285">
        <ele>351</ele>
        <time>2023-03-05T11:32:19Z</time>
        <extensions>
          <gpxtpx:TrackPointExtension xmlns:gpxtpx="http://www.garmin.com/xmlschemas/TrackPointExtension/v1">
            <gpxtpx:hr>100</gpxtpx:hr>
          </gpxtpx:TrackPointExtension>
        </extensions>
      </trkpt>
      <trkpt lat="43.12676" lon="1.28493">
        <ele>350.6</ele>
        <time>2023-03-05T11:32:20Z</time>
        <extensions>
          <gpxtpx:TrackPointExtension xmlns:gpxtpx="http://www.garmin.com/xmlschemas/TrackPointExtension/v1">
            <gpxtpx:hr>100</gpxtpx:hr>
          </gpxtpx:TrackPointExtension>
        </extensions>
      </trkpt>
      <trkpt lat="43.12676" lon="1.28485">
        <ele>350.2</ele>
        <time>2023-03-05T11:32:21Z</time>
        <extensions>
          <gpxtpx:TrackPointExtension xmlns:gpxtpx="http://www.garmin.com/xmlschemas/TrackPointExtension/v1">
            <gpxtpx:hr>100</gpxtpx:hr>
          </gpxtpx:TrackPointExtension>
        </extensions>
      </trkpt>
      <trkpt lat="43.12676" lon="1.28478">
        <ele>349.8</ele>
        <time>2023-03-05T11:32:22Z</time>
        <extensions>
          <gpxtpx:TrackPointExtension xmlns:gpxtpx="http://www.garmin.com/xmlschemas/TrackPointExtension/v1">
            <gpxtpx:hr>100</gpxtpx:hr>
          </gpxtpx:TrackPointExtension>
        </extensions>
      </trkpt>
      <trkpt lat="43.12675" lon="1.28469">
        <ele>349.2</ele>
        <time>2023-03-05T11:32:23Z</time>
        <extensions>
          <gpxtpx:TrackPointExtension xmlns:gpxtpx="http://www.garmin.com/xmlschemas/TrackPointExtension/v1">
            <gpxtpx:hr>100</gpxtpx:hr>
          </gpxtpx:TrackPointExtension>
        </extensions>
      </trkpt>
      <trkpt lat="43.12675" lon="1.28461">
        <ele>348.8</ele>
        <time>2023-03-05T11:32:24Z</time>
        <extensions>
          <gpxtpx:TrackPointExtension xmlns:gpxtpx="http://www.garmin.com/xmlschemas/TrackPointExtension/v1">
            <gpxtpx:hr>100</gpxtpx:hr>
          </gpxtpx:TrackPointExtension>
        </extensions>
      </trkpt>
      <trkpt lat="43.12675" lon="1.28453">
        <ele>348.4</ele>
        <time>2023-03-05T11:32:25Z</time>
        <extensions>
          <gpxtpx:TrackPointExtension xmlns:gpxtpx="http://www.garmin.com/xmlschemas/TrackPointExtension/v1">
            <gpxtpx:hr>101</gpxtpx:hr>
          </gpxtpx:TrackPointExtension>
        </extensions>
      </trkpt>
      <trkpt lat="43.12674" lon="1.28446">
        <ele>348</ele>
        <time>2023-03-05T11:32:26Z</time>
        <extensions>
          <gpxtpx:TrackPointExtension xmlns:gpxtpx="http://www.garmin.com/xmlschemas/TrackPointExtension/v1">
            <gpxtpx:hr>102</gpxtpx:hr>
          </gpxtpx:TrackPointExtension>
        </extensions>
      </trkpt>
      <trkpt lat="43.12674" lon="1.28438">
        <ele>347.6</ele>
        <time>2023-03-05T11:32:27Z</time>
        <extensions>
          <gpxtpx:TrackPointExtension xmlns:gpxtpx="http://www.garmin.com/xmlschemas/TrackPointExtension/v1">
            <gpxtpx:hr>102</gpxtpx:hr>
          </gpxtpx:TrackPointExtension>
        </extensions>
      </trkpt>
      <trkpt lat="43.12673" lon="1.2843">
        <ele>346.6</ele>
        <time>2023-03-05T11:32:28Z</time>
        <extensions>
          <gpxtpx:TrackPointExtension xmlns:gpxtpx="http://www.garmin.com/xmlschemas/TrackPointExtension/v1">
            <gpxtpx:hr>102</gpxtpx:hr>
          </gpxtpx:TrackPointExtension>
        </extensions>
      </trkpt>
      <trkpt lat="43.12673" lon="1.28423">
        <ele>346.2</ele>
        <time>2023-03-05T11:32:29Z</time>
        <extensions>
          <gpxtpx:TrackPointExtension xmlns:gpxtpx="http://www.garmin.com/xmlschemas/TrackPointExtension/v1">
            <gpxtpx:hr>102</gpxtpx:hr>
          </gpxtpx:TrackPointExtension>
        </extensions>
      </trkpt>
      <trkpt lat="43.12671" lon="1.28417">
        <ele>345.6</ele>
        <time>2023-03-05T11:32:30Z</time>
        <extensions>
          <gpxtpx:TrackPointExtension xmlns:gpxtpx="http://www.garmin.com/xmlschemas/TrackPointExtension/v1">
            <gpxtpx:hr>102</gpxtpx:hr>
          </gpxtpx:TrackPointExtension>
        </extensions>
      </trkpt>
      <trkpt lat="43.1267" lon="1.28413">
        <ele>345.2</ele>
        <time>2023-03-05T11:32:31Z</time>
        <extensions>
          <gpxtpx:TrackPointExtension xmlns:gpxtpx="http://www.garmin.com/xmlschemas/TrackPointExtension/v1">
            <gpxtpx:hr>102</gpxtpx:hr>
          </gpxtpx:TrackPointExtension>
        </extensions>
      </trkpt>
      <trkpt lat="43.12669" lon="1.28409">
        <ele>344.6</ele>
        <time>2023-03-05T11:32:32Z</time>
        <extensions>
          <gpxtpx:TrackPointExtension xmlns:gpxtpx="http://www.garmin.com/xmlschemas/TrackPointExtension/v1">
            <gpxtpx:hr>101</gpxtpx:hr>
          </gpxtpx:TrackPointExtension>
        </extensions>
      </trkpt>
      <trkpt lat="43.12668" lon="1.28404">
        <ele>344</ele>
        <time>2023-03-05T11:32:33Z</time>
        <extensions>
          <gpxtpx:TrackPointExtension xmlns:gpxtpx="http://www.garmin.com/xmlschemas/TrackPointExtension/v1">
            <gpxtpx:hr>101</gpxtpx:hr>
          </gpxtpx:TrackPointExtension>
        </extensions>
      </trkpt>
      <trkpt lat="43.12667" lon="1.28401">
        <ele>343.6</ele>
        <time>2023-03-05T11:32:34Z</time>
        <extensions>
          <gpxtpx:TrackPointExtension xmlns:gpxtpx="http://www.garmin.com/xmlschemas/TrackPointExtension/v1">
            <gpxtpx:hr>100</gpxtpx:hr>
          </gpxtpx:TrackPointExtension>
        </extensions>
      </trkpt>
      <trkpt lat="43.12665" lon="1.28396">
        <ele>343</ele>
        <time>2023-03-05T11:32:35Z</time>
        <extensions>
          <gpxtpx:TrackPointExtension xmlns:gpxtpx="http://www.garmin.com/xmlschemas/TrackPointExtension/v1">
            <gpxtpx:hr>99</gpxtpx:hr>
          </gpxtpx:TrackPointExtension>
        </extensions>
      </trkpt>
      <trkpt lat="43.12664" lon="1.28391">
        <ele>342.4</ele>
        <time>2023-03-05T11:32:36Z</time>
        <extensions>
          <gpxtpx:TrackPointExtension xmlns:gpxtpx="http://www.garmin.com/xmlschemas/TrackPointExtension/v1">
            <gpxtpx:hr>98</gpxtpx:hr>
          </gpxtpx:TrackPointExtension>
        </extensions>
      </trkpt>
      <trkpt lat="43.12662" lon="1.28387">
        <ele>341.8</ele>
        <time>2023-03-05T11:32:37Z</time>
        <extensions>
          <gpxtpx:TrackPointExtension xmlns:gpxtpx="http://www.garmin.com/xmlschemas/TrackPointExtension/v1">
            <gpxtpx:hr>97</gpxtpx:hr>
          </gpxtpx:TrackPointExtension>
        </extensions>
      </trkpt>
      <trkpt lat="43.1266" lon="1.28383">
        <ele>341.2</ele>
        <time>2023-03-05T11:32:38Z</time>
        <extensions>
          <gpxtpx:TrackPointExtension xmlns:gpxtpx="http://www.garmin.com/xmlschemas/TrackPointExtension/v1">
            <gpxtpx:hr>97</gpxtpx:hr>
          </gpxtpx:TrackPointExtension>
        </extensions>
      </trkpt>
      <trkpt lat="43.12658" lon="1.28378">
        <ele>340.6</ele>
        <time>2023-03-05T11:32:39Z</time>
        <extensions>
          <gpxtpx:TrackPointExtension xmlns:gpxtpx="http://www.garmin.com/xmlschemas/TrackPointExtension/v1">
            <gpxtpx:hr>96</gpxtpx:hr>
          </gpxtpx:TrackPointExtension>
        </extensions>
      </trkpt>
      <trkpt lat="43.12656" lon="1.28372">
        <ele>339.8</ele>
        <time>2023-03-05T11:32:40Z</time>
        <extensions>
          <gpxtpx:TrackPointExtension xmlns:gpxtpx="http://www.garmin.com/xmlschemas/TrackPointExtension/v1">
            <gpxtpx:hr>96</gpxtpx:hr>
          </gpxtpx:TrackPointExtension>
        </extensions>
      </trkpt>
      <trkpt lat="43.12654" lon="1.28366">
        <ele>339</ele>
        <time>2023-03-05T11:32:41Z</time>
        <extensions>
          <gpxtpx:TrackPointExtension xmlns:gpxtpx="http://www.garmin.com/xmlschemas/TrackPointExtension/v1">
            <gpxtpx:hr>96</gpxtpx:hr>
          </gpxtpx:TrackPointExtension>
        </extensions>
      </trkpt>
      <trkpt lat="43.12652" lon="1.28362">
        <ele>338.2</ele>
        <time>2023-03-05T11:32:42Z</time>
        <extensions>
          <gpxtpx:TrackPointExtension xmlns:gpxtpx="http://www.garmin.com/xmlschemas/TrackPointExtension/v1">
            <gpxtpx:hr>95</gpxtpx:hr>
          </gpxtpx:TrackPointExtension>
        </extensions>
      </trkpt>
      <trkpt lat="43.1265" lon="1.28358">
        <ele>337.2</ele>
        <time>2023-03-05T11:32:43Z</time>
        <extensions>
          <gpxtpx:TrackPointExtension xmlns:gpxtpx="http://www.garmin.com/xmlschemas/TrackPointExtension/v1">
            <gpxtpx:hr>95</gpxtpx:hr>
          </gpxtpx:TrackPointExtension>
        </extensions>
      </trkpt>
      <trkpt lat="43.12649" lon="1.28354">
        <ele>336.2</ele>
        <time>2023-03-05T11:32:44Z</time>
        <extensions>
          <gpxtpx:TrackPointExtension xmlns:gpxtpx="http://www.garmin.com/xmlschemas/TrackPointExtension/v1">
            <gpxtpx:hr>94</gpxtpx:hr>
          </gpxtpx:TrackPointExtension>
        </extensions>
      </trkpt>
      <trkpt lat="43.12648" lon="1.2835">
        <ele>335.2</ele>
        <time>2023-03-05T11:32:45Z</time>
        <extensions>
          <gpxtpx:TrackPointExtension xmlns:gpxtpx="http://www.garmin.com/xmlschemas/TrackPointExtension/v1">
            <gpxtpx:hr>95</gpxtpx:hr>
          </gpxtpx:TrackPointExtension>
        </extensions>
      </trkpt>
      <trkpt lat="43.12646" lon="1.28346">
        <ele>334.2</ele>
        <time>2023-03-05T11:32:46Z</time>
        <extensions>
          <gpxtpx:TrackPointExtension xmlns:gpxtpx="http://www.garmin.com/xmlschemas/TrackPointExtension/v1">
            <gpxtpx:hr>94</gpxtpx:hr>
          </gpxtpx:TrackPointExtension>
        </extensions>
      </trkpt>
      <trkpt lat="43.12644" lon="1.28342">
        <ele>333.2</ele>
        <time>2023-03-05T11:32:47Z</time>
        <extensions>
          <gpxtpx:TrackPointExtension xmlns:gpxtpx="http://www.garmin.com/xmlschemas/TrackPointExtension/v1">
            <gpxtpx:hr>94</gpxtpx:hr>
          </gpxtpx:TrackPointExtension>
        </extensions>
      </trkpt>
      <trkpt lat="43.12642" lon="1.28338">
        <ele>332.2</ele>
        <time>2023-03-05T11:32:48Z</time>
        <extensions>
          <gpxtpx:TrackPointExtension xmlns:gpxtpx="http://www.garmin.com/xmlschemas/TrackPointExtension/v1">
            <gpxtpx:hr>94</gpxtpx:hr>
          </gpxtpx:TrackPointExtension>
        </extensions>
      </trkpt>
      <trkpt lat="43.1264" lon="1.28335">
        <ele>331</ele>
        <time>2023-03-05T11:32:49Z</time>
        <extensions>
          <gpxtpx:TrackPointExtension xmlns:gpxtpx="http://www.garmin.com/xmlschemas/TrackPointExtension/v1">
            <gpxtpx:hr>94</gpxtpx:hr>
          </gpxtpx:TrackPointExtension>
        </extensions>
      </trkpt>
      <trkpt lat="43.12637" lon="1.2833">
        <ele>329.8</ele>
        <time>2023-03-05T11:32:50Z</time>
        <extensions>
          <gpxtpx:TrackPointExtension xmlns:gpxtpx="http://www.garmin.com/xmlschemas/TrackPointExtension/v1">
            <gpxtpx:hr>93</gpxtpx:hr>
          </gpxtpx:TrackPointExtension>
        </extensions>
      </trkpt>
      <trkpt lat="43.12636" lon="1.28327">
        <ele>328.8</ele>
        <time>2023-03-05T11:32:51Z</time>
        <extensions>
          <gpxtpx:TrackPointExtension xmlns:gpxtpx="http://www.garmin.com/xmlschemas/TrackPointExtension/v1">
            <gpxtpx:hr>93</gpxtpx:hr>
          </gpxtpx:TrackPointExtension>
        </extensions>
      </trkpt>
      <trkpt lat="43.12634" lon="1.28324">
        <ele>327.6</ele>
        <time>2023-03-05T11:32:52Z</time>
        <extensions>
          <gpxtpx:TrackPointExtension xmlns:gpxtpx="http://www.garmin.com/xmlschemas/TrackPointExtension/v1">
            <gpxtpx:hr>93</gpxtpx:hr>
          </gpxtpx:TrackPointExtension>
        </extensions>
      </trkpt>
      <trkpt lat="43.12632" lon="1.28321">
        <ele>325.2</ele>
        <time>2023-03-05T11:32:53Z</time>
        <extensions>
          <gpxtpx:TrackPointExtension xmlns:gpxtpx="http://www.garmin.com/xmlschemas/TrackPointExtension/v1">
            <gpxtpx:hr>93</gpxtpx:hr>
          </gpxtpx:TrackPointExtension>
        </extensions>
      </trkpt>
      <trkpt lat="43.12631" lon="1.28317">
        <ele>324.2</ele>
        <time>2023-03-05T11:32:54Z</time>
        <extensions>
          <gpxtpx:TrackPointExtension xmlns:gpxtpx="http://www.garmin.com/xmlschemas/TrackPointExtension/v1">
            <gpxtpx:hr>93</gpxtpx:hr>
          </gpxtpx:TrackPointExtension>
        </extensions>
      </trkpt>
      <trkpt lat="43.12628" lon="1.28313">
        <ele>323</ele>
        <time>2023-03-05T11:32:55Z</time>
        <extensions>
          <gpxtpx:TrackPointExtension xmlns:gpxtpx="http://www.garmin.com/xmlschemas/TrackPointExtension/v1">
            <gpxtpx:hr>93</gpxtpx:hr>
          </gpxtpx:TrackPointExtension>
        </extensions>
      </trkpt>
      <trkpt lat="43.12627" lon="1.2831">
        <ele>322</ele>
        <time>2023-03-05T11:32:56Z</time>
        <extensions>
          <gpxtpx:TrackPointExtension xmlns:gpxtpx="http://www.garmin.com/xmlschemas/TrackPointExtension/v1">
            <gpxtpx:hr>93</gpxtpx:hr>
          </gpxtpx:TrackPointExtension>
        </extensions>
      </trkpt>
      <trkpt lat="43.12625" lon="1.28307">
        <ele>321</ele>
        <time>2023-03-05T11:32:57Z</time>
        <extensions>
          <gpxtpx:TrackPointExtension xmlns:gpxtpx="http://www.garmin.com/xmlschemas/TrackPointExtension/v1">
            <gpxtpx:hr>93</gpxtpx:hr>
          </gpxtpx:TrackPointExtension>
        </extensions>
      </trkpt>
      <trkpt lat="43.12622" lon="1.28303">
        <ele>319.8</ele>
        <time>2023-03-05T11:32:58Z</time>
        <extensions>
          <gpxtpx:TrackPointExtension xmlns:gpxtpx="http://www.garmin.com/xmlschemas/TrackPointExtension/v1">
            <gpxtpx:hr>93</gpxtpx:hr>
          </gpxtpx:TrackPointExtension>
        </extensions>
      </trkpt>
      <trkpt lat="43.1262" lon="1.283">
        <ele>318.8</ele>
        <time>2023-03-05T11:32:59Z</time>
        <extensions>
          <gpxtpx:TrackPointExtension xmlns:gpxtpx="http://www.garmin.com/xmlschemas/TrackPointExtension/v1">
            <gpxtpx:hr>92</gpxtpx:hr>
          </gpxtpx:TrackPointExtension>
        </extensions>
      </trkpt>
      <trkpt lat="43.12617" lon="1.28296">
        <ele>317.6</ele>
        <time>2023-03-05T11:33:00Z</time>
        <extensions>
          <gpxtpx:TrackPointExtension xmlns:gpxtpx="http://www.garmin.com/xmlschemas/TrackPointExtension/v1">
            <gpxtpx:hr>92</gpxtpx:hr>
          </gpxtpx:TrackPointExtension>
        </extensions>
      </trkpt>
      <trkpt lat="43.12614" lon="1.28293">
        <ele>316.6</ele>
        <time>2023-03-05T11:33:01Z</time>
        <extensions>
          <gpxtpx:TrackPointExtension xmlns:gpxtpx="http://www.garmin.com/xmlschemas/TrackPointExtension/v1">
            <gpxtpx:hr>92</gpxtpx:hr>
          </gpxtpx:TrackPointExtension>
        </extensions>
      </trkpt>
      <trkpt lat="43.1261" lon="1.2829">
        <ele>315.8</ele>
        <time>2023-03-05T11:33:02Z</time>
        <extensions>
          <gpxtpx:TrackPointExtension xmlns:gpxtpx="http://www.garmin.com/xmlschemas/TrackPointExtension/v1">
            <gpxtpx:hr>92</gpxtpx:hr>
          </gpxtpx:TrackPointExtension>
        </extensions>
      </trkpt>
      <trkpt lat="43.12606" lon="1.28286">
        <ele>314.6</ele>
        <time>2023-03-05T11:33:03Z</time>
        <extensions>
          <gpxtpx:TrackPointExtension xmlns:gpxtpx="http://www.garmin.com/xmlschemas/TrackPointExtension/v1">
            <gpxtpx:hr>92</gpxtpx:hr>
          </gpxtpx:TrackPointExtension>
        </extensions>
      </trkpt>
      <trkpt lat="43.12602" lon="1.28283">
        <ele>313.6</ele>
        <time>2023-03-05T11:33:04Z</time>
        <extensions>
          <gpxtpx:TrackPointExtension xmlns:gpxtpx="http://www.garmin.com/xmlschemas/TrackPointExtension/v1">
            <gpxtpx:hr>92</gpxtpx:hr>
          </gpxtpx:TrackPointExtension>
        </extensions>
      </trkpt>
      <trkpt lat="43.12598" lon="1.2828">
        <ele>312.4</ele>
        <time>2023-03-05T11:33:05Z</time>
        <extensions>
          <gpxtpx:TrackPointExtension xmlns:gpxtpx="http://www.garmin.com/xmlschemas/TrackPointExtension/v1">
            <gpxtpx:hr>92</gpxtpx:hr>
          </gpxtpx:TrackPointExtension>
        </extensions>
      </trkpt>
      <trkpt lat="43.12594" lon="1.28277">
        <ele>311.2</ele>
        <time>2023-03-05T11:33:06Z</time>
        <extensions>
          <gpxtpx:TrackPointExtension xmlns:gpxtpx="http://www.garmin.com/xmlschemas/TrackPointExtension/v1">
            <gpxtpx:hr>93</gpxtpx:hr>
          </gpxtpx:TrackPointExtension>
        </extensions>
      </trkpt>
      <trkpt lat="43.1259" lon="1.28275">
        <ele>310.2</ele>
        <time>2023-03-05T11:33:07Z</time>
        <extensions>
          <gpxtpx:TrackPointExtension xmlns:gpxtpx="http://www.garmin.com/xmlschemas/TrackPointExtension/v1">
            <gpxtpx:hr>93</gpxtpx:hr>
          </gpxtpx:TrackPointExtension>
        </extensions>
      </trkpt>
      <trkpt lat="43.12588" lon="1.28274">
        <ele>309</ele>
        <time>2023-03-05T11:33:08Z</time>
        <extensions>
          <gpxtpx:TrackPointExtension xmlns:gpxtpx="http://www.garmin.com/xmlschemas/TrackPointExtension/v1">
            <gpxtpx:hr>93</gpxtpx:hr>
          </gpxtpx:TrackPointExtension>
        </extensions>
      </trkpt>
      <trkpt lat="43.12584" lon="1.28271">
        <ele>307.8</ele>
        <time>2023-03-05T11:33:09Z</time>
        <extensions>
          <gpxtpx:TrackPointExtension xmlns:gpxtpx="http://www.garmin.com/xmlschemas/TrackPointExtension/v1">
            <gpxtpx:hr>93</gpxtpx:hr>
          </gpxtpx:TrackPointExtension>
        </extensions>
      </trkpt>
      <trkpt lat="43.1258" lon="1.28268">
        <ele>306.8</ele>
        <time>2023-03-05T11:33:10Z</time>
        <extensions>
          <gpxtpx:TrackPointExtension xmlns:gpxtpx="http://www.garmin.com/xmlschemas/TrackPointExtension/v1">
            <gpxtpx:hr>93</gpxtpx:hr>
          </gpxtpx:TrackPointExtension>
        </extensions>
      </trkpt>
      <trkpt lat="43.12576" lon="1.28265">
        <ele>305.8</ele>
        <time>2023-03-05T11:33:11Z</time>
        <extensions>
          <gpxtpx:TrackPointExtension xmlns:gpxtpx="http://www.garmin.com/xmlschemas/TrackPointExtension/v1">
            <gpxtpx:hr>92</gpxtpx:hr>
          </gpxtpx:TrackPointExtension>
        </extensions>
      </trkpt>
      <trkpt lat="43.12573" lon="1.28262">
        <ele>304.6</ele>
        <time>2023-03-05T11:33:12Z</time>
        <extensions>
          <gpxtpx:TrackPointExtension xmlns:gpxtpx="http://www.garmin.com/xmlschemas/TrackPointExtension/v1">
            <gpxtpx:hr>92</gpxtpx:hr>
          </gpxtpx:TrackPointExtension>
        </extensions>
      </trkpt>
      <trkpt lat="43.12569" lon="1.28259">
        <ele>303.6</ele>
        <time>2023-03-05T11:33:13Z</time>
        <extensions>
          <gpxtpx:TrackPointExtension xmlns:gpxtpx="http://www.garmin.com/xmlschemas/TrackPointExtension/v1">
            <gpxtpx:hr>92</gpxtpx:hr>
          </gpxtpx:TrackPointExtension>
        </extensions>
      </trkpt>
      <trkpt lat="43.12567" lon="1.28256">
        <ele>302.6</ele>
        <time>2023-03-05T11:33:14Z</time>
        <extensions>
          <gpxtpx:TrackPointExtension xmlns:gpxtpx="http://www.garmin.com/xmlschemas/TrackPointExtension/v1">
            <gpxtpx:hr>93</gpxtpx:hr>
          </gpxtpx:TrackPointExtension>
        </extensions>
      </trkpt>
      <trkpt lat="43.12563" lon="1.28254">
        <ele>301.6</ele>
        <time>2023-03-05T11:33:15Z</time>
        <extensions>
          <gpxtpx:TrackPointExtension xmlns:gpxtpx="http://www.garmin.com/xmlschemas/TrackPointExtension/v1">
            <gpxtpx:hr>93</gpxtpx:hr>
          </gpxtpx:TrackPointExtension>
        </extensions>
      </trkpt>
      <trkpt lat="43.1256" lon="1.2825">
        <ele>300.6</ele>
        <time>2023-03-05T11:33:16Z</time>
        <extensions>
          <gpxtpx:TrackPointExtension xmlns:gpxtpx="http://www.garmin.com/xmlschemas/TrackPointExtension/v1">
            <gpxtpx:hr>93</gpxtpx:hr>
          </gpxtpx:TrackPointExtension>
        </extensions>
      </trkpt>
      <trkpt lat="43.12557" lon="1.28247">
        <ele>298.6</ele>
        <time>2023-03-05T11:33:17Z</time>
        <extensions>
          <gpxtpx:TrackPointExtension xmlns:gpxtpx="http://www.garmin.com/xmlschemas/TrackPointExtension/v1">
            <gpxtpx:hr>93</gpxtpx:hr>
          </gpxtpx:TrackPointExtension>
        </extensions>
      </trkpt>
      <trkpt lat="43.12554" lon="1.28244">
        <ele>297.6</ele>
        <time>2023-03-05T11:33:18Z</time>
        <extensions>
          <gpxtpx:TrackPointExtension xmlns:gpxtpx="http://www.garmin.com/xmlschemas/TrackPointExtension/v1">
            <gpxtpx:hr>93</gpxtpx:hr>
          </gpxtpx:TrackPointExtension>
        </extensions>
      </trkpt>
      <trkpt lat="43.12551" lon="1.2824">
        <ele>296.6</ele>
        <time>2023-03-05T11:33:19Z</time>
        <extensions>
          <gpxtpx:TrackPointExtension xmlns:gpxtpx="http://www.garmin.com/xmlschemas/TrackPointExtension/v1">
            <gpxtpx:hr>93</gpxtpx:hr>
          </gpxtpx:TrackPointExtension>
        </extensions>
      </trkpt>
      <trkpt lat="43.12549" lon="1.28239">
        <ele>295.6</ele>
        <time>2023-03-05T11:33:20Z</time>
        <extensions>
          <gpxtpx:TrackPointExtension xmlns:gpxtpx="http://www.garmin.com/xmlschemas/TrackPointExtension/v1">
            <gpxtpx:hr>93</gpxtpx:hr>
          </gpxtpx:TrackPointExtension>
        </extensions>
      </trkpt>
      <trkpt lat="43.12548" lon="1.28237">
        <ele>294.6</ele>
        <time>2023-03-05T11:33:21Z</time>
        <extensions>
          <gpxtpx:TrackPointExtension xmlns:gpxtpx="http://www.garmin.com/xmlschemas/TrackPointExtension/v1">
            <gpxtpx:hr>93</gpxtpx:hr>
          </gpxtpx:TrackPointExtension>
        </extensions>
      </trkpt>
      <trkpt lat="43.12547" lon="1.28235">
        <ele>293.4</ele>
        <time>2023-03-05T11:33:22Z</time>
        <extensions>
          <gpxtpx:TrackPointExtension xmlns:gpxtpx="http://www.garmin.com/xmlschemas/TrackPointExtension/v1">
            <gpxtpx:hr>93</gpxtpx:hr>
          </gpxtpx:TrackPointExtension>
        </extensions>
      </trkpt>
      <trkpt lat="43.12546" lon="1.28232">
        <ele>292.4</ele>
        <time>2023-03-05T11:33:23Z</time>
        <extensions>
          <gpxtpx:TrackPointExtension xmlns:gpxtpx="http://www.garmin.com/xmlschemas/TrackPointExtension/v1">
            <gpxtpx:hr>93</gpxtpx:hr>
          </gpxtpx:TrackPointExtension>
        </extensions>
      </trkpt>
      <trkpt lat="43.12546" lon="1.28231">
        <ele>291.4</ele>
        <time>2023-03-05T11:33:24Z</time>
        <extensions>
          <gpxtpx:TrackPointExtension xmlns:gpxtpx="http://www.garmin.com/xmlschemas/TrackPointExtension/v1">
            <gpxtpx:hr>93</gpxtpx:hr>
          </gpxtpx:TrackPointExtension>
        </extensions>
      </trkpt>
      <trkpt lat="43.12547" lon="1.2823">
        <ele>290.2</ele>
        <time>2023-03-05T11:33:25Z</time>
        <extensions>
          <gpxtpx:TrackPointExtension xmlns:gpxtpx="http://www.garmin.com/xmlschemas/TrackPointExtension/v1">
            <gpxtpx:hr>92</gpxtpx:hr>
          </gpxtpx:TrackPointExtension>
        </extensions>
      </trkpt>
      <trkpt lat="43.12548" lon="1.28229">
        <ele>290.2</ele>
        <time>2023-03-05T11:33:26Z</time>
        <extensions>
          <gpxtpx:TrackPointExtension xmlns:gpxtpx="http://www.garmin.com/xmlschemas/TrackPointExtension/v1">
            <gpxtpx:hr>92</gpxtpx:hr>
          </gpxtpx:TrackPointExtension>
        </extensions>
      </trkpt>
      <trkpt lat="43.12551" lon="1.2822">
        <ele>290.2</ele>
        <time>2023-03-05T11:33:29Z</time>
        <extensions>
          <gpxtpx:TrackPointExtension xmlns:gpxtpx="http://www.garmin.com/xmlschemas/TrackPointExtension/v1">
            <gpxtpx:hr>95</gpxtpx:hr>
          </gpxtpx:TrackPointExtension>
        </extensions>
      </trkpt>
      <trkpt lat="43.12554" lon="1.28217">
        <ele>290.2</ele>
        <time>2023-03-05T11:33:30Z</time>
        <extensions>
          <gpxtpx:TrackPointExtension xmlns:gpxtpx="http://www.garmin.com/xmlschemas/TrackPointExtension/v1">
            <gpxtpx:hr>95</gpxtpx:hr>
          </gpxtpx:TrackPointExtension>
        </extensions>
      </trkpt>
      <trkpt lat="43.12556" lon="1.28213">
        <ele>290.2</ele>
        <time>2023-03-05T11:33:31Z</time>
        <extensions>
          <gpxtpx:TrackPointExtension xmlns:gpxtpx="http://www.garmin.com/xmlschemas/TrackPointExtension/v1">
            <gpxtpx:hr>95</gpxtpx:hr>
          </gpxtpx:TrackPointExtension>
        </extensions>
      </trkpt>
      <trkpt lat="43.12561" lon="1.28203">
        <ele>290.2</ele>
        <time>2023-03-05T11:33:33Z</time>
        <extensions>
          <gpxtpx:TrackPointExtension xmlns:gpxtpx="http://www.garmin.com/xmlschemas/TrackPointExtension/v1">
            <gpxtpx:hr>96</gpxtpx:hr>
          </gpxtpx:TrackPointExtension>
        </extensions>
      </trkpt>
      <trkpt lat="43.12572" lon="1.28182">
        <ele>290.2</ele>
        <time>2023-03-05T11:33:37Z</time>
        <extensions>
          <gpxtpx:TrackPointExtension xmlns:gpxtpx="http://www.garmin.com/xmlschemas/TrackPointExtension/v1">
            <gpxtpx:hr>97</gpxtpx:hr>
          </gpxtpx:TrackPointExtension>
        </extensions>
      </trkpt>
      <trkpt lat="43.12575" lon="1.28177">
        <ele>289.8</ele>
        <time>2023-03-05T11:33:38Z</time>
        <extensions>
          <gpxtpx:TrackPointExtension xmlns:gpxtpx="http://www.garmin.com/xmlschemas/TrackPointExtension/v1">
            <gpxtpx:hr>97</gpxtpx:hr>
          </gpxtpx:TrackPointExtension>
        </extensions>
      </trkpt>
      <trkpt lat="43.12578" lon="1.28173">
        <ele>289.4</ele>
        <time>2023-03-05T11:33:39Z</time>
        <extensions>
          <gpxtpx:TrackPointExtension xmlns:gpxtpx="http://www.garmin.com/xmlschemas/TrackPointExtension/v1">
            <gpxtpx:hr>97</gpxtpx:hr>
          </gpxtpx:TrackPointExtension>
        </extensions>
      </trkpt>
      <trkpt lat="43.12582" lon="1.28169">
        <ele>289</ele>
        <time>2023-03-05T11:33:40Z</time>
        <extensions>
          <gpxtpx:TrackPointExtension xmlns:gpxtpx="http://www.garmin.com/xmlschemas/TrackPointExtension/v1">
            <gpxtpx:hr>97</gpxtpx:hr>
          </gpxtpx:TrackPointExtension>
        </extensions>
      </trkpt>
      <trkpt lat="43.12585" lon="1.28165">
        <ele>288.6</ele>
        <time>2023-03-05T11:33:41Z</time>
        <extensions>
          <gpxtpx:TrackPointExtension xmlns:gpxtpx="http://www.garmin.com/xmlschemas/TrackPointExtension/v1">
            <gpxtpx:hr>97</gpxtpx:hr>
          </gpxtpx:TrackPointExtension>
        </extensions>
      </trkpt>
      <trkpt lat="43.12589" lon="1.28162">
        <ele>288.2</ele>
        <time>2023-03-05T11:33:42Z</time>
        <extensions>
          <gpxtpx:TrackPointExtension xmlns:gpxtpx="http://www.garmin.com/xmlschemas/TrackPointExtension/v1">
            <gpxtpx:hr>96</gpxtpx:hr>
          </gpxtpx:TrackPointExtension>
        </extensions>
      </trkpt>
      <trkpt lat="43.12592" lon="1.2816">
        <ele>288.2</ele>
        <time>2023-03-05T11:33:43Z</time>
        <extensions>
          <gpxtpx:TrackPointExtension xmlns:gpxtpx="http://www.garmin.com/xmlschemas/TrackPointExtension/v1">
            <gpxtpx:hr>96</gpxtpx:hr>
          </gpxtpx:TrackPointExtension>
        </extensions>
      </trkpt>
      <trkpt lat="43.12611" lon="1.28148">
        <ele>288.2</ele>
        <time>2023-03-05T11:33:48Z</time>
        <extensions>
          <gpxtpx:TrackPointExtension xmlns:gpxtpx="http://www.garmin.com/xmlschemas/TrackPointExtension/v1">
            <gpxtpx:hr>99</gpxtpx:hr>
          </gpxtpx:TrackPointExtension>
        </extensions>
      </trkpt>
      <trkpt lat="43.12619" lon="1.28145">
        <ele>288.2</ele>
        <time>2023-03-05T11:33:50Z</time>
        <extensions>
          <gpxtpx:TrackPointExtension xmlns:gpxtpx="http://www.garmin.com/xmlschemas/TrackPointExtension/v1">
            <gpxtpx:hr>100</gpxtpx:hr>
          </gpxtpx:TrackPointExtension>
        </extensions>
      </trkpt>
      <trkpt lat="43.12638" lon="1.28139">
        <ele>288.2</ele>
        <time>2023-03-05T11:33:55Z</time>
        <extensions>
          <gpxtpx:TrackPointExtension xmlns:gpxtpx="http://www.garmin.com/xmlschemas/TrackPointExtension/v1">
            <gpxtpx:hr>97</gpxtpx:hr>
          </gpxtpx:TrackPointExtension>
        </extensions>
      </trkpt>
      <trkpt lat="43.12641" lon="1.28137">
        <ele>288.2</ele>
        <time>2023-03-05T11:33:56Z</time>
        <extensions>
          <gpxtpx:TrackPointExtension xmlns:gpxtpx="http://www.garmin.com/xmlschemas/TrackPointExtension/v1">
            <gpxtpx:hr>96</gpxtpx:hr>
          </gpxtpx:TrackPointExtension>
        </extensions>
      </trkpt>
      <trkpt lat="43.1266" lon="1.28118">
        <ele>288.2</ele>
        <time>2023-03-05T11:34:02Z</time>
        <extensions>
          <gpxtpx:TrackPointExtension xmlns:gpxtpx="http://www.garmin.com/xmlschemas/TrackPointExtension/v1">
            <gpxtpx:hr>96</gpxtpx:hr>
          </gpxtpx:TrackPointExtension>
        </extensions>
      </trkpt>
      <trkpt lat="43.1267" lon="1.28099">
        <ele>288.2</ele>
        <time>2023-03-05T11:34:06Z</time>
        <extensions>
          <gpxtpx:TrackPointExtension xmlns:gpxtpx="http://www.garmin.com/xmlschemas/TrackPointExtension/v1">
            <gpxtpx:hr>94</gpxtpx:hr>
          </gpxtpx:TrackPointExtension>
        </extensions>
      </trkpt>
      <trkpt lat="43.12674" lon="1.28087">
        <ele>288.2</ele>
        <time>2023-03-05T11:34:08Z</time>
        <extensions>
          <gpxtpx:TrackPointExtension xmlns:gpxtpx="http://www.garmin.com/xmlschemas/TrackPointExtension/v1">
            <gpxtpx:hr>93</gpxtpx:hr>
          </gpxtpx:TrackPointExtension>
        </extensions>
      </trkpt>
      <trkpt lat="43.12681" lon="1.28067">
        <ele>287.6</ele>
        <time>2023-03-05T11:34:11Z</time>
        <extensions>
          <gpxtpx:TrackPointExtension xmlns:gpxtpx="http://www.garmin.com/xmlschemas/TrackPointExtension/v1">
            <gpxtpx:hr>94</gpxtpx:hr>
          </gpxtpx:TrackPointExtension>
        </extensions>
      </trkpt>
      <trkpt lat="43.12684" lon="1.28061">
        <ele>287.2</ele>
        <time>2023-03-05T11:34:12Z</time>
        <extensions>
          <gpxtpx:TrackPointExtension xmlns:gpxtpx="http://www.garmin.com/xmlschemas/TrackPointExtension/v1">
            <gpxtpx:hr>94</gpxtpx:hr>
          </gpxtpx:TrackPointExtension>
        </extensions>
      </trkpt>
      <trkpt lat="43.12686" lon="1.28054">
        <ele>286.8</ele>
        <time>2023-03-05T11:34:13Z</time>
        <extensions>
          <gpxtpx:TrackPointExtension xmlns:gpxtpx="http://www.garmin.com/xmlschemas/TrackPointExtension/v1">
            <gpxtpx:hr>94</gpxtpx:hr>
          </gpxtpx:TrackPointExtension>
        </extensions>
      </trkpt>
      <trkpt lat="43.12687" lon="1.28047">
        <ele>286.2</ele>
        <time>2023-03-05T11:34:14Z</time>
        <extensions>
          <gpxtpx:TrackPointExtension xmlns:gpxtpx="http://www.garmin.com/xmlschemas/TrackPointExtension/v1">
            <gpxtpx:hr>94</gpxtpx:hr>
          </gpxtpx:TrackPointExtension>
        </extensions>
      </trkpt>
      <trkpt lat="43.12689" lon="1.2804">
        <ele>285.8</ele>
        <time>2023-03-05T11:34:15Z</time>
        <extensions>
          <gpxtpx:TrackPointExtension xmlns:gpxtpx="http://www.garmin.com/xmlschemas/TrackPointExtension/v1">
            <gpxtpx:hr>94</gpxtpx:hr>
          </gpxtpx:TrackPointExtension>
        </extensions>
      </trkpt>
      <trkpt lat="43.12694" lon="1.2802">
        <ele>285.2</ele>
        <time>2023-03-05T11:34:18Z</time>
        <extensions>
          <gpxtpx:TrackPointExtension xmlns:gpxtpx="http://www.garmin.com/xmlschemas/TrackPointExtension/v1">
            <gpxtpx:hr>96</gpxtpx:hr>
          </gpxtpx:TrackPointExtension>
        </extensions>
      </trkpt>
      <trkpt lat="43.12695" lon="1.28014">
        <ele>284.8</ele>
        <time>2023-03-05T11:34:19Z</time>
        <extensions>
          <gpxtpx:TrackPointExtension xmlns:gpxtpx="http://www.garmin.com/xmlschemas/TrackPointExtension/v1">
            <gpxtpx:hr>97</gpxtpx:hr>
          </gpxtpx:TrackPointExtension>
        </extensions>
      </trkpt>
      <trkpt lat="43.12696" lon="1.28008">
        <ele>284.4</ele>
        <time>2023-03-05T11:34:20Z</time>
        <extensions>
          <gpxtpx:TrackPointExtension xmlns:gpxtpx="http://www.garmin.com/xmlschemas/TrackPointExtension/v1">
            <gpxtpx:hr>97</gpxtpx:hr>
          </gpxtpx:TrackPointExtension>
        </extensions>
      </trkpt>
      <trkpt lat="43.12697" lon="1.28001">
        <ele>284</ele>
        <time>2023-03-05T11:34:21Z</time>
        <extensions>
          <gpxtpx:TrackPointExtension xmlns:gpxtpx="http://www.garmin.com/xmlschemas/TrackPointExtension/v1">
            <gpxtpx:hr>96</gpxtpx:hr>
          </gpxtpx:TrackPointExtension>
        </extensions>
      </trkpt>
      <trkpt lat="43.12699" lon="1.27995">
        <ele>283.4</ele>
        <time>2023-03-05T11:34:22Z</time>
        <extensions>
          <gpxtpx:TrackPointExtension xmlns:gpxtpx="http://www.garmin.com/xmlschemas/TrackPointExtension/v1">
            <gpxtpx:hr>96</gpxtpx:hr>
          </gpxtpx:TrackPointExtension>
        </extensions>
      </trkpt>
      <trkpt lat="43.12707" lon="1.27945">
        <ele>283.4</ele>
        <time>2023-03-05T11:34:30Z</time>
        <extensions>
          <gpxtpx:TrackPointExtension xmlns:gpxtpx="http://www.garmin.com/xmlschemas/TrackPointExtension/v1">
            <gpxtpx:hr>98</gpxtpx:hr>
          </gpxtpx:TrackPointExtension>
        </extensions>
      </trkpt>
      <trkpt lat="43.12717" lon="1.27899">
        <ele>283.4</ele>
        <time>2023-03-05T11:34:37Z</time>
        <extensions>
          <gpxtpx:TrackPointExtension xmlns:gpxtpx="http://www.garmin.com/xmlschemas/TrackPointExtension/v1">
            <gpxtpx:hr>99</gpxtpx:hr>
          </gpxtpx:TrackPointExtension>
        </extensions>
      </trkpt>
      <trkpt lat="43.12718" lon="1.27892">
        <ele>283.4</ele>
        <time>2023-03-05T11:34:38Z</time>
        <extensions>
          <gpxtpx:TrackPointExtension xmlns:gpxtpx="http://www.garmin.com/xmlschemas/TrackPointExtension/v1">
            <gpxtpx:hr>99</gpxtpx:hr>
          </gpxtpx:TrackPointExtension>
        </extensions>
      </trkpt>
      <trkpt lat="43.12716" lon="1.27872">
        <ele>283.4</ele>
        <time>2023-03-05T11:34:41Z</time>
        <extensions>
          <gpxtpx:TrackPointExtension xmlns:gpxtpx="http://www.garmin.com/xmlschemas/TrackPointExtension/v1">
            <gpxtpx:hr>97</gpxtpx:hr>
          </gpxtpx:TrackPointExtension>
        </extensions>
      </trkpt>
      <trkpt lat="43.12716" lon="1.27858">
        <ele>283.4</ele>
        <time>2023-03-05T11:34:43Z</time>
        <extensions>
          <gpxtpx:TrackPointExtension xmlns:gpxtpx="http://www.garmin.com/xmlschemas/TrackPointExtension/v1">
            <gpxtpx:hr>97</gpxtpx:hr>
          </gpxtpx:TrackPointExtension>
        </extensions>
      </trkpt>
      <trkpt lat="43.12718" lon="1.27838">
        <ele>283.4</ele>
        <time>2023-03-05T11:34:46Z</time>
        <extensions>
          <gpxtpx:TrackPointExtension xmlns:gpxtpx="http://www.garmin.com/xmlschemas/TrackPointExtension/v1">
            <gpxtpx:hr>99</gpxtpx:hr>
          </gpxtpx:TrackPointExtension>
        </extensions>
      </trkpt>
      <trkpt lat="43.12723" lon="1.27821">
        <ele>283.4</ele>
        <time>2023-03-05T11:34:49Z</time>
        <extensions>
          <gpxtpx:TrackPointExtension xmlns:gpxtpx="http://www.garmin.com/xmlschemas/TrackPointExtension/v1">
            <gpxtpx:hr>99</gpxtpx:hr>
          </gpxtpx:TrackPointExtension>
        </extensions>
      </trkpt>
      <trkpt lat="43.12727" lon="1.27805">
        <ele>283.4</ele>
        <time>2023-03-05T11:34:52Z</time>
        <extensions>
          <gpxtpx:TrackPointExtension xmlns:gpxtpx="http://www.garmin.com/xmlschemas/TrackPointExtension/v1">
            <gpxtpx:hr>100</gpxtpx:hr>
          </gpxtpx:TrackPointExtension>
        </extensions>
      </trkpt>
      <trkpt lat="43.12737" lon="1.27778">
        <ele>283.4</ele>
        <time>2023-03-05T11:34:57Z</time>
        <extensions>
          <gpxtpx:TrackPointExtension xmlns:gpxtpx="http://www.garmin.com/xmlschemas/TrackPointExtension/v1">
            <gpxtpx:hr>100</gpxtpx:hr>
          </gpxtpx:TrackPointExtension>
        </extensions>
      </trkpt>
      <trkpt lat="43.12743" lon="1.27769">
        <ele>283.4</ele>
        <time>2023-03-05T11:34:59Z</time>
        <extensions>
          <gpxtpx:TrackPointExtension xmlns:gpxtpx="http://www.garmin.com/xmlschemas/TrackPointExtension/v1">
            <gpxtpx:hr>100</gpxtpx:hr>
          </gpxtpx:TrackPointExtension>
        </extensions>
      </trkpt>
      <trkpt lat="43.12746" lon="1.27764">
        <ele>284</ele>
        <time>2023-03-05T11:35:00Z</time>
        <extensions>
          <gpxtpx:TrackPointExtension xmlns:gpxtpx="http://www.garmin.com/xmlschemas/TrackPointExtension/v1">
            <gpxtpx:hr>102</gpxtpx:hr>
          </gpxtpx:TrackPointExtension>
        </extensions>
      </trkpt>
      <trkpt lat="43.12748" lon="1.27759">
        <ele>284.4</ele>
        <time>2023-03-05T11:35:01Z</time>
        <extensions>
          <gpxtpx:TrackPointExtension xmlns:gpxtpx="http://www.garmin.com/xmlschemas/TrackPointExtension/v1">
            <gpxtpx:hr>102</gpxtpx:hr>
          </gpxtpx:TrackPointExtension>
        </extensions>
      </trkpt>
      <trkpt lat="43.12751" lon="1.27754">
        <ele>284.8</ele>
        <time>2023-03-05T11:35:02Z</time>
        <extensions>
          <gpxtpx:TrackPointExtension xmlns:gpxtpx="http://www.garmin.com/xmlschemas/TrackPointExtension/v1">
            <gpxtpx:hr>104</gpxtpx:hr>
          </gpxtpx:TrackPointExtension>
        </extensions>
      </trkpt>
      <trkpt lat="43.12753" lon="1.27748">
        <ele>285.2</ele>
        <time>2023-03-05T11:35:03Z</time>
        <extensions>
          <gpxtpx:TrackPointExtension xmlns:gpxtpx="http://www.garmin.com/xmlschemas/TrackPointExtension/v1">
            <gpxtpx:hr>104</gpxtpx:hr>
          </gpxtpx:TrackPointExtension>
        </extensions>
      </trkpt>
      <trkpt lat="43.12754" lon="1.27742">
        <ele>285.6</ele>
        <time>2023-03-05T11:35:04Z</time>
        <extensions>
          <gpxtpx:TrackPointExtension xmlns:gpxtpx="http://www.garmin.com/xmlschemas/TrackPointExtension/v1">
            <gpxtpx:hr>104</gpxtpx:hr>
          </gpxtpx:TrackPointExtension>
        </extensions>
      </trkpt>
      <trkpt lat="43.12755" lon="1.27736">
        <ele>285.6</ele>
        <time>2023-03-05T11:35:05Z</time>
        <extensions>
          <gpxtpx:TrackPointExtension xmlns:gpxtpx="http://www.garmin.com/xmlschemas/TrackPointExtension/v1">
            <gpxtpx:hr>105</gpxtpx:hr>
          </gpxtpx:TrackPointExtension>
        </extensions>
      </trkpt>
      <trkpt lat="43.12759" lon="1.27702">
        <ele>286</ele>
        <time>2023-03-05T11:35:11Z</time>
        <extensions>
          <gpxtpx:TrackPointExtension xmlns:gpxtpx="http://www.garmin.com/xmlschemas/TrackPointExtension/v1">
            <gpxtpx:hr>107</gpxtpx:hr>
          </gpxtpx:TrackPointExtension>
        </extensions>
      </trkpt>
      <trkpt lat="43.1276" lon="1.27696">
        <ele>286.4</ele>
        <time>2023-03-05T11:35:12Z</time>
        <extensions>
          <gpxtpx:TrackPointExtension xmlns:gpxtpx="http://www.garmin.com/xmlschemas/TrackPointExtension/v1">
            <gpxtpx:hr>106</gpxtpx:hr>
          </gpxtpx:TrackPointExtension>
        </extensions>
      </trkpt>
      <trkpt lat="43.12761" lon="1.27691">
        <ele>286.8</ele>
        <time>2023-03-05T11:35:13Z</time>
        <extensions>
          <gpxtpx:TrackPointExtension xmlns:gpxtpx="http://www.garmin.com/xmlschemas/TrackPointExtension/v1">
            <gpxtpx:hr>107</gpxtpx:hr>
          </gpxtpx:TrackPointExtension>
        </extensions>
      </trkpt>
      <trkpt lat="43.12762" lon="1.27686">
        <ele>287.2</ele>
        <time>2023-03-05T11:35:14Z</time>
        <extensions>
          <gpxtpx:TrackPointExtension xmlns:gpxtpx="http://www.garmin.com/xmlschemas/TrackPointExtension/v1">
            <gpxtpx:hr>107</gpxtpx:hr>
          </gpxtpx:TrackPointExtension>
        </extensions>
      </trkpt>
      <trkpt lat="43.12763" lon="1.27681">
        <ele>287.8</ele>
        <time>2023-03-05T11:35:15Z</time>
        <extensions>
          <gpxtpx:TrackPointExtension xmlns:gpxtpx="http://www.garmin.com/xmlschemas/TrackPointExtension/v1">
            <gpxtpx:hr>107</gpxtpx:hr>
          </gpxtpx:TrackPointExtension>
        </extensions>
      </trkpt>
      <trkpt lat="43.12768" lon="1.27663">
        <ele>287.8</ele>
        <time>2023-03-05T11:35:18Z</time>
        <extensions>
          <gpxtpx:TrackPointExtension xmlns:gpxtpx="http://www.garmin.com/xmlschemas/TrackPointExtension/v1">
            <gpxtpx:hr>107</gpxtpx:hr>
          </gpxtpx:TrackPointExtension>
        </extensions>
      </trkpt>
      <trkpt lat="43.1278" lon="1.27628">
        <ele>287.8</ele>
        <time>2023-03-05T11:35:23Z</time>
        <extensions>
          <gpxtpx:TrackPointExtension xmlns:gpxtpx="http://www.garmin.com/xmlschemas/TrackPointExtension/v1">
            <gpxtpx:hr>107</gpxtpx:hr>
          </gpxtpx:TrackPointExtension>
        </extensions>
      </trkpt>
      <trkpt lat="43.12786" lon="1.27614">
        <ele>287.2</ele>
        <time>2023-03-05T11:35:25Z</time>
        <extensions>
          <gpxtpx:TrackPointExtension xmlns:gpxtpx="http://www.garmin.com/xmlschemas/TrackPointExtension/v1">
            <gpxtpx:hr>108</gpxtpx:hr>
          </gpxtpx:TrackPointExtension>
        </extensions>
      </trkpt>
      <trkpt lat="43.12789" lon="1.27607">
        <ele>286.8</ele>
        <time>2023-03-05T11:35:26Z</time>
        <extensions>
          <gpxtpx:TrackPointExtension xmlns:gpxtpx="http://www.garmin.com/xmlschemas/TrackPointExtension/v1">
            <gpxtpx:hr>109</gpxtpx:hr>
          </gpxtpx:TrackPointExtension>
        </extensions>
      </trkpt>
      <trkpt lat="43.12792" lon="1.27602">
        <ele>286.4</ele>
        <time>2023-03-05T11:35:27Z</time>
        <extensions>
          <gpxtpx:TrackPointExtension xmlns:gpxtpx="http://www.garmin.com/xmlschemas/TrackPointExtension/v1">
            <gpxtpx:hr>109</gpxtpx:hr>
          </gpxtpx:TrackPointExtension>
        </extensions>
      </trkpt>
      <trkpt lat="43.12795" lon="1.27598">
        <ele>285.8</ele>
        <time>2023-03-05T11:35:28Z</time>
        <extensions>
          <gpxtpx:TrackPointExtension xmlns:gpxtpx="http://www.garmin.com/xmlschemas/TrackPointExtension/v1">
            <gpxtpx:hr>109</gpxtpx:hr>
          </gpxtpx:TrackPointExtension>
        </extensions>
      </trkpt>
      <trkpt lat="43.12796" lon="1.27593">
        <ele>285.4</ele>
        <time>2023-03-05T11:35:29Z</time>
        <extensions>
          <gpxtpx:TrackPointExtension xmlns:gpxtpx="http://www.garmin.com/xmlschemas/TrackPointExtension/v1">
            <gpxtpx:hr>110</gpxtpx:hr>
          </gpxtpx:TrackPointExtension>
        </extensions>
      </trkpt>
      <trkpt lat="43.12796" lon="1.2758">
        <ele>285</ele>
        <time>2023-03-05T11:35:31Z</time>
        <extensions>
          <gpxtpx:TrackPointExtension xmlns:gpxtpx="http://www.garmin.com/xmlschemas/TrackPointExtension/v1">
            <gpxtpx:hr>109</gpxtpx:hr>
          </gpxtpx:TrackPointExtension>
        </extensions>
      </trkpt>
      <trkpt lat="43.12796" lon="1.27576">
        <ele>284.6</ele>
        <time>2023-03-05T11:35:32Z</time>
        <extensions>
          <gpxtpx:TrackPointExtension xmlns:gpxtpx="http://www.garmin.com/xmlschemas/TrackPointExtension/v1">
            <gpxtpx:hr>109</gpxtpx:hr>
          </gpxtpx:TrackPointExtension>
        </extensions>
      </trkpt>
      <trkpt lat="43.12796" lon="1.27572">
        <ele>284</ele>
        <time>2023-03-05T11:35:33Z</time>
        <extensions>
          <gpxtpx:TrackPointExtension xmlns:gpxtpx="http://www.garmin.com/xmlschemas/TrackPointExtension/v1">
            <gpxtpx:hr>109</gpxtpx:hr>
          </gpxtpx:TrackPointExtension>
        </extensions>
      </trkpt>
      <trkpt lat="43.12795" lon="1.27569">
        <ele>283.6</ele>
        <time>2023-03-05T11:35:34Z</time>
        <extensions>
          <gpxtpx:TrackPointExtension xmlns:gpxtpx="http://www.garmin.com/xmlschemas/TrackPointExtension/v1">
            <gpxtpx:hr>109</gpxtpx:hr>
          </gpxtpx:TrackPointExtension>
        </extensions>
      </trkpt>
      <trkpt lat="43.12795" lon="1.27566">
        <ele>283.2</ele>
        <time>2023-03-05T11:35:35Z</time>
        <extensions>
          <gpxtpx:TrackPointExtension xmlns:gpxtpx="http://www.garmin.com/xmlschemas/TrackPointExtension/v1">
            <gpxtpx:hr>109</gpxtpx:hr>
          </gpxtpx:TrackPointExtension>
        </extensions>
      </trkpt>
      <trkpt lat="43.12794" lon="1.2756">
        <ele>283.2</ele>
        <time>2023-03-05T11:35:38Z</time>
        <extensions>
          <gpxtpx:TrackPointExtension xmlns:gpxtpx="http://www.garmin.com/xmlschemas/TrackPointExtension/v1">
            <gpxtpx:hr>111</gpxtpx:hr>
          </gpxtpx:TrackPointExtension>
        </extensions>
      </trkpt>
      <trkpt lat="43.12792" lon="1.27557">
        <ele>283.6</ele>
        <time>2023-03-05T11:35:40Z</time>
        <extensions>
          <gpxtpx:TrackPointExtension xmlns:gpxtpx="http://www.garmin.com/xmlschemas/TrackPointExtension/v1">
            <gpxtpx:hr>112</gpxtpx:hr>
          </gpxtpx:TrackPointExtension>
        </extensions>
      </trkpt>
      <trkpt lat="43.12791" lon="1.27554">
        <ele>284</ele>
        <time>2023-03-05T11:35:41Z</time>
        <extensions>
          <gpxtpx:TrackPointExtension xmlns:gpxtpx="http://www.garmin.com/xmlschemas/TrackPointExtension/v1">
            <gpxtpx:hr>112</gpxtpx:hr>
          </gpxtpx:TrackPointExtension>
        </extensions>
      </trkpt>
      <trkpt lat="43.12789" lon="1.27552">
        <ele>284.4</ele>
        <time>2023-03-05T11:35:42Z</time>
        <extensions>
          <gpxtpx:TrackPointExtension xmlns:gpxtpx="http://www.garmin.com/xmlschemas/TrackPointExtension/v1">
            <gpxtpx:hr>111</gpxtpx:hr>
          </gpxtpx:TrackPointExtension>
        </extensions>
      </trkpt>
      <trkpt lat="43.12788" lon="1.2755">
        <ele>284.8</ele>
        <time>2023-03-05T11:35:43Z</time>
        <extensions>
          <gpxtpx:TrackPointExtension xmlns:gpxtpx="http://www.garmin.com/xmlschemas/TrackPointExtension/v1">
            <gpxtpx:hr>111</gpxtpx:hr>
          </gpxtpx:TrackPointExtension>
        </extensions>
      </trkpt>
      <trkpt lat="43.12787" lon="1.27547">
        <ele>285.2</ele>
        <time>2023-03-05T11:35:44Z</time>
        <extensions>
          <gpxtpx:TrackPointExtension xmlns:gpxtpx="http://www.garmin.com/xmlschemas/TrackPointExtension/v1">
            <gpxtpx:hr>110</gpxtpx:hr>
          </gpxtpx:TrackPointExtension>
        </extensions>
      </trkpt>
      <trkpt lat="43.12785" lon="1.2754">
        <ele>285.6</ele>
        <time>2023-03-05T11:35:47Z</time>
        <extensions>
          <gpxtpx:TrackPointExtension xmlns:gpxtpx="http://www.garmin.com/xmlschemas/TrackPointExtension/v1">
            <gpxtpx:hr>109</gpxtpx:hr>
          </gpxtpx:TrackPointExtension>
        </extensions>
      </trkpt>
      <trkpt lat="43.12784" lon="1.27538">
        <ele>286</ele>
        <time>2023-03-05T11:35:48Z</time>
        <extensions>
          <gpxtpx:TrackPointExtension xmlns:gpxtpx="http://www.garmin.com/xmlschemas/TrackPointExtension/v1">
            <gpxtpx:hr>109</gpxtpx:hr>
          </gpxtpx:TrackPointExtension>
        </extensions>
      </trkpt>
      <trkpt lat="43.12783" lon="1.27535">
        <ele>286.4</ele>
        <time>2023-03-05T11:35:49Z</time>
        <extensions>
          <gpxtpx:TrackPointExtension xmlns:gpxtpx="http://www.garmin.com/xmlschemas/TrackPointExtension/v1">
            <gpxtpx:hr>108</gpxtpx:hr>
          </gpxtpx:TrackPointExtension>
        </extensions>
      </trkpt>
      <trkpt lat="43.12782" lon="1.27532">
        <ele>287</ele>
        <time>2023-03-05T11:35:50Z</time>
        <extensions>
          <gpxtpx:TrackPointExtension xmlns:gpxtpx="http://www.garmin.com/xmlschemas/TrackPointExtension/v1">
            <gpxtpx:hr>109</gpxtpx:hr>
          </gpxtpx:TrackPointExtension>
        </extensions>
      </trkpt>
      <trkpt lat="43.12781" lon="1.27529">
        <ele>287.4</ele>
        <time>2023-03-05T11:35:51Z</time>
        <extensions>
          <gpxtpx:TrackPointExtension xmlns:gpxtpx="http://www.garmin.com/xmlschemas/TrackPointExtension/v1">
            <gpxtpx:hr>109</gpxtpx:hr>
          </gpxtpx:TrackPointExtension>
        </extensions>
      </trkpt>
      <trkpt lat="43.12776" lon="1.27519">
        <ele>287.4</ele>
        <time>2023-03-05T11:35:55Z</time>
        <extensions>
          <gpxtpx:TrackPointExtension xmlns:gpxtpx="http://www.garmin.com/xmlschemas/TrackPointExtension/v1">
            <gpxtpx:hr>110</gpxtpx:hr>
          </gpxtpx:TrackPointExtension>
        </extensions>
      </trkpt>
      <trkpt lat="43.12768" lon="1.27506">
        <ele>287.8</ele>
        <time>2023-03-05T11:36:00Z</time>
        <extensions>
          <gpxtpx:TrackPointExtension xmlns:gpxtpx="http://www.garmin.com/xmlschemas/TrackPointExtension/v1">
            <gpxtpx:hr>111</gpxtpx:hr>
          </gpxtpx:TrackPointExtension>
        </extensions>
      </trkpt>
      <trkpt lat="43.12767" lon="1.27503">
        <ele>288.2</ele>
        <time>2023-03-05T11:36:01Z</time>
        <extensions>
          <gpxtpx:TrackPointExtension xmlns:gpxtpx="http://www.garmin.com/xmlschemas/TrackPointExtension/v1">
            <gpxtpx:hr>112</gpxtpx:hr>
          </gpxtpx:TrackPointExtension>
        </extensions>
      </trkpt>
      <trkpt lat="43.12765" lon="1.27501">
        <ele>288.6</ele>
        <time>2023-03-05T11:36:02Z</time>
        <extensions>
          <gpxtpx:TrackPointExtension xmlns:gpxtpx="http://www.garmin.com/xmlschemas/TrackPointExtension/v1">
            <gpxtpx:hr>113</gpxtpx:hr>
          </gpxtpx:TrackPointExtension>
        </extensions>
      </trkpt>
      <trkpt lat="43.12764" lon="1.27498">
        <ele>289</ele>
        <time>2023-03-05T11:36:03Z</time>
        <extensions>
          <gpxtpx:TrackPointExtension xmlns:gpxtpx="http://www.garmin.com/xmlschemas/TrackPointExtension/v1">
            <gpxtpx:hr>113</gpxtpx:hr>
          </gpxtpx:TrackPointExtension>
        </extensions>
      </trkpt>
      <trkpt lat="43.12763" lon="1.27496">
        <ele>289.4</ele>
        <time>2023-03-05T11:36:04Z</time>
        <extensions>
          <gpxtpx:TrackPointExtension xmlns:gpxtpx="http://www.garmin.com/xmlschemas/TrackPointExtension/v1">
            <gpxtpx:hr>114</gpxtpx:hr>
          </gpxtpx:TrackPointExtension>
        </extensions>
      </trkpt>
      <trkpt lat="43.1276" lon="1.27493">
        <ele>289.4</ele>
        <time>2023-03-05T11:36:06Z</time>
        <extensions>
          <gpxtpx:TrackPointExtension xmlns:gpxtpx="http://www.garmin.com/xmlschemas/TrackPointExtension/v1">
            <gpxtpx:hr>114</gpxtpx:hr>
          </gpxtpx:TrackPointExtension>
        </extensions>
      </trkpt>
      <trkpt lat="43.12758" lon="1.27492">
        <ele>289.8</ele>
        <time>2023-03-05T11:36:07Z</time>
        <extensions>
          <gpxtpx:TrackPointExtension xmlns:gpxtpx="http://www.garmin.com/xmlschemas/TrackPointExtension/v1">
            <gpxtpx:hr>114</gpxtpx:hr>
          </gpxtpx:TrackPointExtension>
        </extensions>
      </trkpt>
      <trkpt lat="43.12758" lon="1.2749">
        <ele>290.2</ele>
        <time>2023-03-05T11:36:08Z</time>
        <extensions>
          <gpxtpx:TrackPointExtension xmlns:gpxtpx="http://www.garmin.com/xmlschemas/TrackPointExtension/v1">
            <gpxtpx:hr>114</gpxtpx:hr>
          </gpxtpx:TrackPointExtension>
        </extensions>
      </trkpt>
      <trkpt lat="43.12758" lon="1.27488">
        <ele>290.6</ele>
        <time>2023-03-05T11:36:09Z</time>
        <extensions>
          <gpxtpx:TrackPointExtension xmlns:gpxtpx="http://www.garmin.com/xmlschemas/TrackPointExtension/v1">
            <gpxtpx:hr>115</gpxtpx:hr>
          </gpxtpx:TrackPointExtension>
        </extensions>
      </trkpt>
      <trkpt lat="43.12758" lon="1.27486">
        <ele>291</ele>
        <time>2023-03-05T11:36:10Z</time>
        <extensions>
          <gpxtpx:TrackPointExtension xmlns:gpxtpx="http://www.garmin.com/xmlschemas/TrackPointExtension/v1">
            <gpxtpx:hr>115</gpxtpx:hr>
          </gpxtpx:TrackPointExtension>
        </extensions>
      </trkpt>
      <trkpt lat="43.12758" lon="1.27484">
        <ele>291.4</ele>
        <time>2023-03-05T11:36:11Z</time>
        <extensions>
          <gpxtpx:TrackPointExtension xmlns:gpxtpx="http://www.garmin.com/xmlschemas/TrackPointExtension/v1">
            <gpxtpx:hr>115</gpxtpx:hr>
          </gpxtpx:TrackPointExtension>
        </extensions>
      </trkpt>
      <trkpt lat="43.12758" lon="1.2748">
        <ele>291.8</ele>
        <time>2023-03-05T11:36:13Z</time>
        <extensions>
          <gpxtpx:TrackPointExtension xmlns:gpxtpx="http://www.garmin.com/xmlschemas/TrackPointExtension/v1">
            <gpxtpx:hr>115</gpxtpx:hr>
          </gpxtpx:TrackPointExtension>
        </extensions>
      </trkpt>
      <trkpt lat="43.12757" lon="1.27478">
        <ele>292.4</ele>
        <time>2023-03-05T11:36:14Z</time>
        <extensions>
          <gpxtpx:TrackPointExtension xmlns:gpxtpx="http://www.garmin.com/xmlschemas/TrackPointExtension/v1">
            <gpxtpx:hr>116</gpxtpx:hr>
          </gpxtpx:TrackPointExtension>
        </extensions>
      </trkpt>
      <trkpt lat="43.12757" lon="1.27476">
        <ele>292.8</ele>
        <time>2023-03-05T11:36:15Z</time>
        <extensions>
          <gpxtpx:TrackPointExtension xmlns:gpxtpx="http://www.garmin.com/xmlschemas/TrackPointExtension/v1">
            <gpxtpx:hr>116</gpxtpx:hr>
          </gpxtpx:TrackPointExtension>
        </extensions>
      </trkpt>
      <trkpt lat="43.12757" lon="1.27473">
        <ele>293.2</ele>
        <time>2023-03-05T11:36:16Z</time>
        <extensions>
          <gpxtpx:TrackPointExtension xmlns:gpxtpx="http://www.garmin.com/xmlschemas/TrackPointExtension/v1">
            <gpxtpx:hr>117</gpxtpx:hr>
          </gpxtpx:TrackPointExtension>
        </extensions>
      </trkpt>
      <trkpt lat="43.12757" lon="1.27469">
        <ele>293.8</ele>
        <time>2023-03-05T11:36:17Z</time>
        <extensions>
          <gpxtpx:TrackPointExtension xmlns:gpxtpx="http://www.garmin.com/xmlschemas/TrackPointExtension/v1">
            <gpxtpx:hr>117</gpxtpx:hr>
          </gpxtpx:TrackPointExtension>
        </extensions>
      </trkpt>
      <trkpt lat="43.12757" lon="1.27464">
        <ele>294.2</ele>
        <time>2023-03-05T11:36:18Z</time>
        <extensions>
          <gpxtpx:TrackPointExtension xmlns:gpxtpx="http://www.garmin.com/xmlschemas/TrackPointExtension/v1">
            <gpxtpx:hr>118</gpxtpx:hr>
          </gpxtpx:TrackPointExtension>
        </extensions>
      </trkpt>
      <trkpt lat="43.12757" lon="1.2746">
        <ele>294.6</ele>
        <time>2023-03-05T11:36:19Z</time>
        <extensions>
          <gpxtpx:TrackPointExtension xmlns:gpxtpx="http://www.garmin.com/xmlschemas/TrackPointExtension/v1">
            <gpxtpx:hr>119</gpxtpx:hr>
          </gpxtpx:TrackPointExtension>
        </extensions>
      </trkpt>
      <trkpt lat="43.12757" lon="1.27456">
        <ele>295.2</ele>
        <time>2023-03-05T11:36:20Z</time>
        <extensions>
          <gpxtpx:TrackPointExtension xmlns:gpxtpx="http://www.garmin.com/xmlschemas/TrackPointExtension/v1">
            <gpxtpx:hr>120</gpxtpx:hr>
          </gpxtpx:TrackPointExtension>
        </extensions>
      </trkpt>
      <trkpt lat="43.12756" lon="1.27452">
        <ele>295.6</ele>
        <time>2023-03-05T11:36:21Z</time>
        <extensions>
          <gpxtpx:TrackPointExtension xmlns:gpxtpx="http://www.garmin.com/xmlschemas/TrackPointExtension/v1">
            <gpxtpx:hr>120</gpxtpx:hr>
          </gpxtpx:TrackPointExtension>
        </extensions>
      </trkpt>
      <trkpt lat="43.12757" lon="1.2745">
        <ele>296.2</ele>
        <time>2023-03-05T11:36:22Z</time>
        <extensions>
          <gpxtpx:TrackPointExtension xmlns:gpxtpx="http://www.garmin.com/xmlschemas/TrackPointExtension/v1">
            <gpxtpx:hr>121</gpxtpx:hr>
          </gpxtpx:TrackPointExtension>
        </extensions>
      </trkpt>
      <trkpt lat="43.12758" lon="1.27446">
        <ele>296.6</ele>
        <time>2023-03-05T11:36:23Z</time>
        <extensions>
          <gpxtpx:TrackPointExtension xmlns:gpxtpx="http://www.garmin.com/xmlschemas/TrackPointExtension/v1">
            <gpxtpx:hr>121</gpxtpx:hr>
          </gpxtpx:TrackPointExtension>
        </extensions>
      </trkpt>
      <trkpt lat="43.12758" lon="1.27444">
        <ele>297</ele>
        <time>2023-03-05T11:36:24Z</time>
        <extensions>
          <gpxtpx:TrackPointExtension xmlns:gpxtpx="http://www.garmin.com/xmlschemas/TrackPointExtension/v1">
            <gpxtpx:hr>121</gpxtpx:hr>
          </gpxtpx:TrackPointExtension>
        </extensions>
      </trkpt>
      <trkpt lat="43.12759" lon="1.27441">
        <ele>297.4</ele>
        <time>2023-03-05T11:36:25Z</time>
        <extensions>
          <gpxtpx:TrackPointExtension xmlns:gpxtpx="http://www.garmin.com/xmlschemas/TrackPointExtension/v1">
            <gpxtpx:hr>122</gpxtpx:hr>
          </gpxtpx:TrackPointExtension>
        </extensions>
      </trkpt>
      <trkpt lat="43.1276" lon="1.27439">
        <ele>297.8</ele>
        <time>2023-03-05T11:36:26Z</time>
        <extensions>
          <gpxtpx:TrackPointExtension xmlns:gpxtpx="http://www.garmin.com/xmlschemas/TrackPointExtension/v1">
            <gpxtpx:hr>122</gpxtpx:hr>
          </gpxtpx:TrackPointExtension>
        </extensions>
      </trkpt>
      <trkpt lat="43.1276" lon="1.27435">
        <ele>298.4</ele>
        <time>2023-03-05T11:36:27Z</time>
        <extensions>
          <gpxtpx:TrackPointExtension xmlns:gpxtpx="http://www.garmin.com/xmlschemas/TrackPointExtension/v1">
            <gpxtpx:hr>123</gpxtpx:hr>
          </gpxtpx:TrackPointExtension>
        </extensions>
      </trkpt>
      <trkpt lat="43.12761" lon="1.27433">
        <ele>299</ele>
        <time>2023-03-05T11:36:28Z</time>
        <extensions>
          <gpxtpx:TrackPointExtension xmlns:gpxtpx="http://www.garmin.com/xmlschemas/TrackPointExtension/v1">
            <gpxtpx:hr>123</gpxtpx:hr>
          </gpxtpx:TrackPointExtension>
        </extensions>
      </trkpt>
      <trkpt lat="43.12763" lon="1.27431">
        <ele>299.4</ele>
        <time>2023-03-05T11:36:29Z</time>
        <extensions>
          <gpxtpx:TrackPointExtension xmlns:gpxtpx="http://www.garmin.com/xmlschemas/TrackPointExtension/v1">
            <gpxtpx:hr>123</gpxtpx:hr>
          </gpxtpx:TrackPointExtension>
        </extensions>
      </trkpt>
      <trkpt lat="43.12763" lon="1.27428">
        <ele>300</ele>
        <time>2023-03-05T11:36:30Z</time>
        <extensions>
          <gpxtpx:TrackPointExtension xmlns:gpxtpx="http://www.garmin.com/xmlschemas/TrackPointExtension/v1">
            <gpxtpx:hr>124</gpxtpx:hr>
          </gpxtpx:TrackPointExtension>
        </extensions>
      </trkpt>
      <trkpt lat="43.12762" lon="1.27424">
        <ele>300.6</ele>
        <time>2023-03-05T11:36:31Z</time>
        <extensions>
          <gpxtpx:TrackPointExtension xmlns:gpxtpx="http://www.garmin.com/xmlschemas/TrackPointExtension/v1">
            <gpxtpx:hr>124</gpxtpx:hr>
          </gpxtpx:TrackPointExtension>
        </extensions>
      </trkpt>
      <trkpt lat="43.12762" lon="1.27422">
        <ele>301.2</ele>
        <time>2023-03-05T11:36:32Z</time>
        <extensions>
          <gpxtpx:TrackPointExtension xmlns:gpxtpx="http://www.garmin.com/xmlschemas/TrackPointExtension/v1">
            <gpxtpx:hr>124</gpxtpx:hr>
          </gpxtpx:TrackPointExtension>
        </extensions>
      </trkpt>
      <trkpt lat="43.12762" lon="1.2742">
        <ele>301.8</ele>
        <time>2023-03-05T11:36:33Z</time>
        <extensions>
          <gpxtpx:TrackPointExtension xmlns:gpxtpx="http://www.garmin.com/xmlschemas/TrackPointExtension/v1">
            <gpxtpx:hr>125</gpxtpx:hr>
          </gpxtpx:TrackPointExtension>
        </extensions>
      </trkpt>
      <trkpt lat="43.12763" lon="1.27417">
        <ele>302.4</ele>
        <time>2023-03-05T11:36:34Z</time>
        <extensions>
          <gpxtpx:TrackPointExtension xmlns:gpxtpx="http://www.garmin.com/xmlschemas/TrackPointExtension/v1">
            <gpxtpx:hr>125</gpxtpx:hr>
          </gpxtpx:TrackPointExtension>
        </extensions>
      </trkpt>
      <trkpt lat="43.12763" lon="1.27413">
        <ele>303.4</ele>
        <time>2023-03-05T11:36:35Z</time>
        <extensions>
          <gpxtpx:TrackPointExtension xmlns:gpxtpx="http://www.garmin.com/xmlschemas/TrackPointExtension/v1">
            <gpxtpx:hr>125</gpxtpx:hr>
          </gpxtpx:TrackPointExtension>
        </extensions>
      </trkpt>
      <trkpt lat="43.12764" lon="1.27409">
        <ele>304</ele>
        <time>2023-03-05T11:36:36Z</time>
        <extensions>
          <gpxtpx:TrackPointExtension xmlns:gpxtpx="http://www.garmin.com/xmlschemas/TrackPointExtension/v1">
            <gpxtpx:hr>125</gpxtpx:hr>
          </gpxtpx:TrackPointExtension>
        </extensions>
      </trkpt>
      <trkpt lat="43.12764" lon="1.27407">
        <ele>304.6</ele>
        <time>2023-03-05T11:36:37Z</time>
        <extensions>
          <gpxtpx:TrackPointExtension xmlns:gpxtpx="http://www.garmin.com/xmlschemas/TrackPointExtension/v1">
            <gpxtpx:hr>126</gpxtpx:hr>
          </gpxtpx:TrackPointExtension>
        </extensions>
      </trkpt>
      <trkpt lat="43.12765" lon="1.27405">
        <ele>305</ele>
        <time>2023-03-05T11:36:38Z</time>
        <extensions>
          <gpxtpx:TrackPointExtension xmlns:gpxtpx="http://www.garmin.com/xmlschemas/TrackPointExtension/v1">
            <gpxtpx:hr>126</gpxtpx:hr>
          </gpxtpx:TrackPointExtension>
        </extensions>
      </trkpt>
      <trkpt lat="43.12766" lon="1.27401">
        <ele>305.6</ele>
        <time>2023-03-05T11:36:39Z</time>
        <extensions>
          <gpxtpx:TrackPointExtension xmlns:gpxtpx="http://www.garmin.com/xmlschemas/TrackPointExtension/v1">
            <gpxtpx:hr>127</gpxtpx:hr>
          </gpxtpx:TrackPointExtension>
        </extensions>
      </trkpt>
      <trkpt lat="43.12766" lon="1.27399">
        <ele>306</ele>
        <time>2023-03-05T11:36:40Z</time>
        <extensions>
          <gpxtpx:TrackPointExtension xmlns:gpxtpx="http://www.garmin.com/xmlschemas/TrackPointExtension/v1">
            <gpxtpx:hr>127</gpxtpx:hr>
          </gpxtpx:TrackPointExtension>
        </extensions>
      </trkpt>
      <trkpt lat="43.12766" lon="1.27397">
        <ele>306.6</ele>
        <time>2023-03-05T11:36:41Z</time>
        <extensions>
          <gpxtpx:TrackPointExtension xmlns:gpxtpx="http://www.garmin.com/xmlschemas/TrackPointExtension/v1">
            <gpxtpx:hr>128</gpxtpx:hr>
          </gpxtpx:TrackPointExtension>
        </extensions>
      </trkpt>
      <trkpt lat="43.12766" lon="1.27394">
        <ele>307</ele>
        <time>2023-03-05T11:36:42Z</time>
        <extensions>
          <gpxtpx:TrackPointExtension xmlns:gpxtpx="http://www.garmin.com/xmlschemas/TrackPointExtension/v1">
            <gpxtpx:hr>129</gpxtpx:hr>
          </gpxtpx:TrackPointExtension>
        </extensions>
      </trkpt>
      <trkpt lat="43.12767" lon="1.27392">
        <ele>307.6</ele>
        <time>2023-03-05T11:36:43Z</time>
        <extensions>
          <gpxtpx:TrackPointExtension xmlns:gpxtpx="http://www.garmin.com/xmlschemas/TrackPointExtension/v1">
            <gpxtpx:hr>129</gpxtpx:hr>
          </gpxtpx:TrackPointExtension>
        </extensions>
      </trkpt>
      <trkpt lat="43.12767" lon="1.2739">
        <ele>308</ele>
        <time>2023-03-05T11:36:44Z</time>
        <extensions>
          <gpxtpx:TrackPointExtension xmlns:gpxtpx="http://www.garmin.com/xmlschemas/TrackPointExtension/v1">
            <gpxtpx:hr>129</gpxtpx:hr>
          </gpxtpx:TrackPointExtension>
        </extensions>
      </trkpt>
      <trkpt lat="43.12767" lon="1.27388">
        <ele>308.4</ele>
        <time>2023-03-05T11:36:45Z</time>
        <extensions>
          <gpxtpx:TrackPointExtension xmlns:gpxtpx="http://www.garmin.com/xmlschemas/TrackPointExtension/v1">
            <gpxtpx:hr>129</gpxtpx:hr>
          </gpxtpx:TrackPointExtension>
        </extensions>
      </trkpt>
      <trkpt lat="43.12768" lon="1.27386">
        <ele>308.8</ele>
        <time>2023-03-05T11:36:46Z</time>
        <extensions>
          <gpxtpx:TrackPointExtension xmlns:gpxtpx="http://www.garmin.com/xmlschemas/TrackPointExtension/v1">
            <gpxtpx:hr>130</gpxtpx:hr>
          </gpxtpx:TrackPointExtension>
        </extensions>
      </trkpt>
      <trkpt lat="43.12768" lon="1.27384">
        <ele>309.2</ele>
        <time>2023-03-05T11:36:47Z</time>
        <extensions>
          <gpxtpx:TrackPointExtension xmlns:gpxtpx="http://www.garmin.com/xmlschemas/TrackPointExtension/v1">
            <gpxtpx:hr>130</gpxtpx:hr>
          </gpxtpx:TrackPointExtension>
        </extensions>
      </trkpt>
      <trkpt lat="43.12768" lon="1.27382">
        <ele>309.8</ele>
        <time>2023-03-05T11:36:48Z</time>
        <extensions>
          <gpxtpx:TrackPointExtension xmlns:gpxtpx="http://www.garmin.com/xmlschemas/TrackPointExtension/v1">
            <gpxtpx:hr>130</gpxtpx:hr>
          </gpxtpx:TrackPointExtension>
        </extensions>
      </trkpt>
      <trkpt lat="43.12769" lon="1.27381">
        <ele>309.8</ele>
        <time>2023-03-05T11:36:49Z</time>
        <extensions>
          <gpxtpx:TrackPointExtension xmlns:gpxtpx="http://www.garmin.com/xmlschemas/TrackPointExtension/v1">
            <gpxtpx:hr>129</gpxtpx:hr>
          </gpxtpx:TrackPointExtension>
        </extensions>
      </trkpt>
      <trkpt lat="43.12769" lon="1.27375">
        <ele>310.2</ele>
        <time>2023-03-05T11:36:52Z</time>
        <extensions>
          <gpxtpx:TrackPointExtension xmlns:gpxtpx="http://www.garmin.com/xmlschemas/TrackPointExtension/v1">
            <gpxtpx:hr>129</gpxtpx:hr>
          </gpxtpx:TrackPointExtension>
        </extensions>
      </trkpt>
      <trkpt lat="43.12768" lon="1.27373">
        <ele>310.6</ele>
        <time>2023-03-05T11:36:53Z</time>
        <extensions>
          <gpxtpx:TrackPointExtension xmlns:gpxtpx="http://www.garmin.com/xmlschemas/TrackPointExtension/v1">
            <gpxtpx:hr>129</gpxtpx:hr>
          </gpxtpx:TrackPointExtension>
        </extensions>
      </trkpt>
      <trkpt lat="43.12768" lon="1.2737">
        <ele>311</ele>
        <time>2023-03-05T11:36:54Z</time>
        <extensions>
          <gpxtpx:TrackPointExtension xmlns:gpxtpx="http://www.garmin.com/xmlschemas/TrackPointExtension/v1">
            <gpxtpx:hr>129</gpxtpx:hr>
          </gpxtpx:TrackPointExtension>
        </extensions>
      </trkpt>
      <trkpt lat="43.12768" lon="1.27368">
        <ele>311.6</ele>
        <time>2023-03-05T11:36:55Z</time>
        <extensions>
          <gpxtpx:TrackPointExtension xmlns:gpxtpx="http://www.garmin.com/xmlschemas/TrackPointExtension/v1">
            <gpxtpx:hr>129</gpxtpx:hr>
          </gpxtpx:TrackPointExtension>
        </extensions>
      </trkpt>
      <trkpt lat="43.12768" lon="1.27366">
        <ele>312</ele>
        <time>2023-03-05T11:36:56Z</time>
        <extensions>
          <gpxtpx:TrackPointExtension xmlns:gpxtpx="http://www.garmin.com/xmlschemas/TrackPointExtension/v1">
            <gpxtpx:hr>129</gpxtpx:hr>
          </gpxtpx:TrackPointExtension>
        </extensions>
      </trkpt>
      <trkpt lat="43.12769" lon="1.27356">
        <ele>312.4</ele>
        <time>2023-03-05T11:37:01Z</time>
        <extensions>
          <gpxtpx:TrackPointExtension xmlns:gpxtpx="http://www.garmin.com/xmlschemas/TrackPointExtension/v1">
            <gpxtpx:hr>130</gpxtpx:hr>
          </gpxtpx:TrackPointExtension>
        </extensions>
      </trkpt>
      <trkpt lat="43.12769" lon="1.27355">
        <ele>312.8</ele>
        <time>2023-03-05T11:37:02Z</time>
        <extensions>
          <gpxtpx:TrackPointExtension xmlns:gpxtpx="http://www.garmin.com/xmlschemas/TrackPointExtension/v1">
            <gpxtpx:hr>129</gpxtpx:hr>
          </gpxtpx:TrackPointExtension>
        </extensions>
      </trkpt>
      <trkpt lat="43.1277" lon="1.27354">
        <ele>313.2</ele>
        <time>2023-03-05T11:37:03Z</time>
        <extensions>
          <gpxtpx:TrackPointExtension xmlns:gpxtpx="http://www.garmin.com/xmlschemas/TrackPointExtension/v1">
            <gpxtpx:hr>130</gpxtpx:hr>
          </gpxtpx:TrackPointExtension>
        </extensions>
      </trkpt>
      <trkpt lat="43.1277" lon="1.27353">
        <ele>313.8</ele>
        <time>2023-03-05T11:37:04Z</time>
        <extensions>
          <gpxtpx:TrackPointExtension xmlns:gpxtpx="http://www.garmin.com/xmlschemas/TrackPointExtension/v1">
            <gpxtpx:hr>129</gpxtpx:hr>
          </gpxtpx:TrackPointExtension>
        </extensions>
      </trkpt>
      <trkpt lat="43.1277" lon="1.27351">
        <ele>314.2</ele>
        <time>2023-03-05T11:37:05Z</time>
        <extensions>
          <gpxtpx:TrackPointExtension xmlns:gpxtpx="http://www.garmin.com/xmlschemas/TrackPointExtension/v1">
            <gpxtpx:hr>129</gpxtpx:hr>
          </gpxtpx:TrackPointExtension>
        </extensions>
      </trkpt>
      <trkpt lat="43.12771" lon="1.2735">
        <ele>314.2</ele>
        <time>2023-03-05T11:37:06Z</time>
        <extensions>
          <gpxtpx:TrackPointExtension xmlns:gpxtpx="http://www.garmin.com/xmlschemas/TrackPointExtension/v1">
            <gpxtpx:hr>129</gpxtpx:hr>
          </gpxtpx:TrackPointExtension>
        </extensions>
      </trkpt>
      <trkpt lat="43.12772" lon="1.27342">
        <ele>314.6</ele>
        <time>2023-03-05T11:37:11Z</time>
        <extensions>
          <gpxtpx:TrackPointExtension xmlns:gpxtpx="http://www.garmin.com/xmlschemas/TrackPointExtension/v1">
            <gpxtpx:hr>129</gpxtpx:hr>
          </gpxtpx:TrackPointExtension>
        </extensions>
      </trkpt>
      <trkpt lat="43.12772" lon="1.27341">
        <ele>315</ele>
        <time>2023-03-05T11:37:12Z</time>
        <extensions>
          <gpxtpx:TrackPointExtension xmlns:gpxtpx="http://www.garmin.com/xmlschemas/TrackPointExtension/v1">
            <gpxtpx:hr>129</gpxtpx:hr>
          </gpxtpx:TrackPointExtension>
        </extensions>
      </trkpt>
      <trkpt lat="43.12773" lon="1.27339">
        <ele>315.4</ele>
        <time>2023-03-05T11:37:13Z</time>
        <extensions>
          <gpxtpx:TrackPointExtension xmlns:gpxtpx="http://www.garmin.com/xmlschemas/TrackPointExtension/v1">
            <gpxtpx:hr>129</gpxtpx:hr>
          </gpxtpx:TrackPointExtension>
        </extensions>
      </trkpt>
      <trkpt lat="43.12773" lon="1.27337">
        <ele>315.8</ele>
        <time>2023-03-05T11:37:14Z</time>
        <extensions>
          <gpxtpx:TrackPointExtension xmlns:gpxtpx="http://www.garmin.com/xmlschemas/TrackPointExtension/v1">
            <gpxtpx:hr>129</gpxtpx:hr>
          </gpxtpx:TrackPointExtension>
        </extensions>
      </trkpt>
      <trkpt lat="43.12774" lon="1.27335">
        <ele>316.2</ele>
        <time>2023-03-05T11:37:15Z</time>
        <extensions>
          <gpxtpx:TrackPointExtension xmlns:gpxtpx="http://www.garmin.com/xmlschemas/TrackPointExtension/v1">
            <gpxtpx:hr>129</gpxtpx:hr>
          </gpxtpx:TrackPointExtension>
        </extensions>
      </trkpt>
      <trkpt lat="43.12775" lon="1.2733">
        <ele>316.2</ele>
        <time>2023-03-05T11:37:17Z</time>
        <extensions>
          <gpxtpx:TrackPointExtension xmlns:gpxtpx="http://www.garmin.com/xmlschemas/TrackPointExtension/v1">
            <gpxtpx:hr>129</gpxtpx:hr>
          </gpxtpx:TrackPointExtension>
        </extensions>
      </trkpt>
      <trkpt lat="43.12774" lon="1.27316">
        <ele>316.2</ele>
        <time>2023-03-05T11:37:22Z</time>
        <extensions>
          <gpxtpx:TrackPointExtension xmlns:gpxtpx="http://www.garmin.com/xmlschemas/TrackPointExtension/v1">
            <gpxtpx:hr>129</gpxtpx:hr>
          </gpxtpx:TrackPointExtension>
        </extensions>
      </trkpt>
      <trkpt lat="43.12775" lon="1.27311">
        <ele>316.2</ele>
        <time>2023-03-05T11:37:24Z</time>
        <extensions>
          <gpxtpx:TrackPointExtension xmlns:gpxtpx="http://www.garmin.com/xmlschemas/TrackPointExtension/v1">
            <gpxtpx:hr>128</gpxtpx:hr>
          </gpxtpx:TrackPointExtension>
        </extensions>
      </trkpt>
      <trkpt lat="43.12775" lon="1.27302">
        <ele>316.6</ele>
        <time>2023-03-05T11:37:27Z</time>
        <extensions>
          <gpxtpx:TrackPointExtension xmlns:gpxtpx="http://www.garmin.com/xmlschemas/TrackPointExtension/v1">
            <gpxtpx:hr>127</gpxtpx:hr>
          </gpxtpx:TrackPointExtension>
        </extensions>
      </trkpt>
      <trkpt lat="43.12775" lon="1.27299">
        <ele>317</ele>
        <time>2023-03-05T11:37:28Z</time>
        <extensions>
          <gpxtpx:TrackPointExtension xmlns:gpxtpx="http://www.garmin.com/xmlschemas/TrackPointExtension/v1">
            <gpxtpx:hr>127</gpxtpx:hr>
          </gpxtpx:TrackPointExtension>
        </extensions>
      </trkpt>
      <trkpt lat="43.12775" lon="1.27295">
        <ele>317.4</ele>
        <time>2023-03-05T11:37:29Z</time>
        <extensions>
          <gpxtpx:TrackPointExtension xmlns:gpxtpx="http://www.garmin.com/xmlschemas/TrackPointExtension/v1">
            <gpxtpx:hr>126</gpxtpx:hr>
          </gpxtpx:TrackPointExtension>
        </extensions>
      </trkpt>
      <trkpt lat="43.12775" lon="1.27291">
        <ele>317.8</ele>
        <time>2023-03-05T11:37:30Z</time>
        <extensions>
          <gpxtpx:TrackPointExtension xmlns:gpxtpx="http://www.garmin.com/xmlschemas/TrackPointExtension/v1">
            <gpxtpx:hr>126</gpxtpx:hr>
          </gpxtpx:TrackPointExtension>
        </extensions>
      </trkpt>
      <trkpt lat="43.12776" lon="1.27288">
        <ele>318.2</ele>
        <time>2023-03-05T11:37:31Z</time>
        <extensions>
          <gpxtpx:TrackPointExtension xmlns:gpxtpx="http://www.garmin.com/xmlschemas/TrackPointExtension/v1">
            <gpxtpx:hr>126</gpxtpx:hr>
          </gpxtpx:TrackPointExtension>
        </extensions>
      </trkpt>
      <trkpt lat="43.12776" lon="1.27279">
        <ele>318.2</ele>
        <time>2023-03-05T11:37:34Z</time>
        <extensions>
          <gpxtpx:TrackPointExtension xmlns:gpxtpx="http://www.garmin.com/xmlschemas/TrackPointExtension/v1">
            <gpxtpx:hr>126</gpxtpx:hr>
          </gpxtpx:TrackPointExtension>
        </extensions>
      </trkpt>
      <trkpt lat="43.12779" lon="1.27258">
        <ele>318.2</ele>
        <time>2023-03-05T11:37:39Z</time>
        <extensions>
          <gpxtpx:TrackPointExtension xmlns:gpxtpx="http://www.garmin.com/xmlschemas/TrackPointExtension/v1">
            <gpxtpx:hr>125</gpxtpx:hr>
          </gpxtpx:TrackPointExtension>
        </extensions>
      </trkpt>
      <trkpt lat="43.12784" lon="1.27245">
        <ele>317.8</ele>
        <time>2023-03-05T11:37:42Z</time>
        <extensions>
          <gpxtpx:TrackPointExtension xmlns:gpxtpx="http://www.garmin.com/xmlschemas/TrackPointExtension/v1">
            <gpxtpx:hr>125</gpxtpx:hr>
          </gpxtpx:TrackPointExtension>
        </extensions>
      </trkpt>
      <trkpt lat="43.12786" lon="1.27239">
        <ele>317.2</ele>
        <time>2023-03-05T11:37:43Z</time>
        <extensions>
          <gpxtpx:TrackPointExtension xmlns:gpxtpx="http://www.garmin.com/xmlschemas/TrackPointExtension/v1">
            <gpxtpx:hr>125</gpxtpx:hr>
          </gpxtpx:TrackPointExtension>
        </extensions>
      </trkpt>
      <trkpt lat="43.12788" lon="1.27234">
        <ele>316.8</ele>
        <time>2023-03-05T11:37:44Z</time>
        <extensions>
          <gpxtpx:TrackPointExtension xmlns:gpxtpx="http://www.garmin.com/xmlschemas/TrackPointExtension/v1">
            <gpxtpx:hr>125</gpxtpx:hr>
          </gpxtpx:TrackPointExtension>
        </extensions>
      </trkpt>
      <trkpt lat="43.1279" lon="1.27228">
        <ele>316.2</ele>
        <time>2023-03-05T11:37:45Z</time>
        <extensions>
          <gpxtpx:TrackPointExtension xmlns:gpxtpx="http://www.garmin.com/xmlschemas/TrackPointExtension/v1">
            <gpxtpx:hr>125</gpxtpx:hr>
          </gpxtpx:TrackPointExtension>
        </extensions>
      </trkpt>
      <trkpt lat="43.12792" lon="1.27221">
        <ele>315.8</ele>
        <time>2023-03-05T11:37:46Z</time>
        <extensions>
          <gpxtpx:TrackPointExtension xmlns:gpxtpx="http://www.garmin.com/xmlschemas/TrackPointExtension/v1">
            <gpxtpx:hr>125</gpxtpx:hr>
          </gpxtpx:TrackPointExtension>
        </extensions>
      </trkpt>
      <trkpt lat="43.12794" lon="1.27217">
        <ele>315.2</ele>
        <time>2023-03-05T11:37:47Z</time>
        <extensions>
          <gpxtpx:TrackPointExtension xmlns:gpxtpx="http://www.garmin.com/xmlschemas/TrackPointExtension/v1">
            <gpxtpx:hr>125</gpxtpx:hr>
          </gpxtpx:TrackPointExtension>
        </extensions>
      </trkpt>
      <trkpt lat="43.12795" lon="1.27213">
        <ele>314.8</ele>
        <time>2023-03-05T11:37:48Z</time>
        <extensions>
          <gpxtpx:TrackPointExtension xmlns:gpxtpx="http://www.garmin.com/xmlschemas/TrackPointExtension/v1">
            <gpxtpx:hr>125</gpxtpx:hr>
          </gpxtpx:TrackPointExtension>
        </extensions>
      </trkpt>
      <trkpt lat="43.12797" lon="1.27209">
        <ele>314.4</ele>
        <time>2023-03-05T11:37:49Z</time>
        <extensions>
          <gpxtpx:TrackPointExtension xmlns:gpxtpx="http://www.garmin.com/xmlschemas/TrackPointExtension/v1">
            <gpxtpx:hr>126</gpxtpx:hr>
          </gpxtpx:TrackPointExtension>
        </extensions>
      </trkpt>
      <trkpt lat="43.12799" lon="1.27204">
        <ele>313.4</ele>
        <time>2023-03-05T11:37:50Z</time>
        <extensions>
          <gpxtpx:TrackPointExtension xmlns:gpxtpx="http://www.garmin.com/xmlschemas/TrackPointExtension/v1">
            <gpxtpx:hr>125</gpxtpx:hr>
          </gpxtpx:TrackPointExtension>
        </extensions>
      </trkpt>
      <trkpt lat="43.12802" lon="1.27196">
        <ele>313</ele>
        <time>2023-03-05T11:37:52Z</time>
        <extensions>
          <gpxtpx:TrackPointExtension xmlns:gpxtpx="http://www.garmin.com/xmlschemas/TrackPointExtension/v1">
            <gpxtpx:hr>125</gpxtpx:hr>
          </gpxtpx:TrackPointExtension>
        </extensions>
      </trkpt>
      <trkpt lat="43.12804" lon="1.27192">
        <ele>312.4</ele>
        <time>2023-03-05T11:37:53Z</time>
        <extensions>
          <gpxtpx:TrackPointExtension xmlns:gpxtpx="http://www.garmin.com/xmlschemas/TrackPointExtension/v1">
            <gpxtpx:hr>124</gpxtpx:hr>
          </gpxtpx:TrackPointExtension>
        </extensions>
      </trkpt>
      <trkpt lat="43.12804" lon="1.27188">
        <ele>312</ele>
        <time>2023-03-05T11:37:54Z</time>
        <extensions>
          <gpxtpx:TrackPointExtension xmlns:gpxtpx="http://www.garmin.com/xmlschemas/TrackPointExtension/v1">
            <gpxtpx:hr>124</gpxtpx:hr>
          </gpxtpx:TrackPointExtension>
        </extensions>
      </trkpt>
      <trkpt lat="43.12804" lon="1.27184">
        <ele>311.6</ele>
        <time>2023-03-05T11:37:55Z</time>
        <extensions>
          <gpxtpx:TrackPointExtension xmlns:gpxtpx="http://www.garmin.com/xmlschemas/TrackPointExtension/v1">
            <gpxtpx:hr>123</gpxtpx:hr>
          </gpxtpx:TrackPointExtension>
        </extensions>
      </trkpt>
      <trkpt lat="43.12803" lon="1.2718">
        <ele>311.2</ele>
        <time>2023-03-05T11:37:56Z</time>
        <extensions>
          <gpxtpx:TrackPointExtension xmlns:gpxtpx="http://www.garmin.com/xmlschemas/TrackPointExtension/v1">
            <gpxtpx:hr>123</gpxtpx:hr>
          </gpxtpx:TrackPointExtension>
        </extensions>
      </trkpt>
      <trkpt lat="43.12798" lon="1.27177">
        <ele>311.2</ele>
        <time>2023-03-05T11:37:59Z</time>
        <extensions>
          <gpxtpx:TrackPointExtension xmlns:gpxtpx="http://www.garmin.com/xmlschemas/TrackPointExtension/v1">
            <gpxtpx:hr>121</gpxtpx:hr>
          </gpxtpx:TrackPointExtension>
        </extensions>
      </trkpt>
      <trkpt lat="43.12797" lon="1.27176">
        <ele>311.2</ele>
        <time>2023-03-05T11:38:00Z</time>
        <extensions>
          <gpxtpx:TrackPointExtension xmlns:gpxtpx="http://www.garmin.com/xmlschemas/TrackPointExtension/v1">
            <gpxtpx:hr>121</gpxtpx:hr>
          </gpxtpx:TrackPointExtension>
        </extensions>
      </trkpt>
      <trkpt lat="43.12796" lon="1.27174">
        <ele>311.2</ele>
        <time>2023-03-05T11:38:01Z</time>
        <extensions>
          <gpxtpx:TrackPointExtension xmlns:gpxtpx="http://www.garmin.com/xmlschemas/TrackPointExtension/v1">
            <gpxtpx:hr>121</gpxtpx:hr>
          </gpxtpx:TrackPointExtension>
        </extensions>
      </trkpt>
      <trkpt lat="43.12791" lon="1.27171">
        <ele>311.2</ele>
        <time>2023-03-05T11:38:05Z</time>
        <extensions>
          <gpxtpx:TrackPointExtension xmlns:gpxtpx="http://www.garmin.com/xmlschemas/TrackPointExtension/v1">
            <gpxtpx:hr>119</gpxtpx:hr>
          </gpxtpx:TrackPointExtension>
        </extensions>
      </trkpt>
      <trkpt lat="43.1279" lon="1.2717">
        <ele>311.6</ele>
        <time>2023-03-05T11:38:06Z</time>
        <extensions>
          <gpxtpx:TrackPointExtension xmlns:gpxtpx="http://www.garmin.com/xmlschemas/TrackPointExtension/v1">
            <gpxtpx:hr>119</gpxtpx:hr>
          </gpxtpx:TrackPointExtension>
        </extensions>
      </trkpt>
      <trkpt lat="43.12789" lon="1.27169">
        <ele>312</ele>
        <time>2023-03-05T11:38:07Z</time>
        <extensions>
          <gpxtpx:TrackPointExtension xmlns:gpxtpx="http://www.garmin.com/xmlschemas/TrackPointExtension/v1">
            <gpxtpx:hr>119</gpxtpx:hr>
          </gpxtpx:TrackPointExtension>
        </extensions>
      </trkpt>
      <trkpt lat="43.12787" lon="1.27168">
        <ele>312.6</ele>
        <time>2023-03-05T11:38:08Z</time>
        <extensions>
          <gpxtpx:TrackPointExtension xmlns:gpxtpx="http://www.garmin.com/xmlschemas/TrackPointExtension/v1">
            <gpxtpx:hr>119</gpxtpx:hr>
          </gpxtpx:TrackPointExtension>
        </extensions>
      </trkpt>
      <trkpt lat="43.12786" lon="1.27168">
        <ele>313</ele>
        <time>2023-03-05T11:38:09Z</time>
        <extensions>
          <gpxtpx:TrackPointExtension xmlns:gpxtpx="http://www.garmin.com/xmlschemas/TrackPointExtension/v1">
            <gpxtpx:hr>119</gpxtpx:hr>
          </gpxtpx:TrackPointExtension>
        </extensions>
      </trkpt>
      <trkpt lat="43.12784" lon="1.27167">
        <ele>313.4</ele>
        <time>2023-03-05T11:38:10Z</time>
        <extensions>
          <gpxtpx:TrackPointExtension xmlns:gpxtpx="http://www.garmin.com/xmlschemas/TrackPointExtension/v1">
            <gpxtpx:hr>119</gpxtpx:hr>
          </gpxtpx:TrackPointExtension>
        </extensions>
      </trkpt>
      <trkpt lat="43.12783" lon="1.27167">
        <ele>313.8</ele>
        <time>2023-03-05T11:38:11Z</time>
        <extensions>
          <gpxtpx:TrackPointExtension xmlns:gpxtpx="http://www.garmin.com/xmlschemas/TrackPointExtension/v1">
            <gpxtpx:hr>120</gpxtpx:hr>
          </gpxtpx:TrackPointExtension>
        </extensions>
      </trkpt>
      <trkpt lat="43.12782" lon="1.27167">
        <ele>314.2</ele>
        <time>2023-03-05T11:38:12Z</time>
        <extensions>
          <gpxtpx:TrackPointExtension xmlns:gpxtpx="http://www.garmin.com/xmlschemas/TrackPointExtension/v1">
            <gpxtpx:hr>120</gpxtpx:hr>
          </gpxtpx:TrackPointExtension>
        </extensions>
      </trkpt>
      <trkpt lat="43.1278" lon="1.27166">
        <ele>314.6</ele>
        <time>2023-03-05T11:38:13Z</time>
        <extensions>
          <gpxtpx:TrackPointExtension xmlns:gpxtpx="http://www.garmin.com/xmlschemas/TrackPointExtension/v1">
            <gpxtpx:hr>121</gpxtpx:hr>
          </gpxtpx:TrackPointExtension>
        </extensions>
      </trkpt>
      <trkpt lat="43.12778" lon="1.27165">
        <ele>315.6</ele>
        <time>2023-03-05T11:38:14Z</time>
        <extensions>
          <gpxtpx:TrackPointExtension xmlns:gpxtpx="http://www.garmin.com/xmlschemas/TrackPointExtension/v1">
            <gpxtpx:hr>121</gpxtpx:hr>
          </gpxtpx:TrackPointExtension>
        </extensions>
      </trkpt>
      <trkpt lat="43.12776" lon="1.27163">
        <ele>316</ele>
        <time>2023-03-05T11:38:16Z</time>
        <extensions>
          <gpxtpx:TrackPointExtension xmlns:gpxtpx="http://www.garmin.com/xmlschemas/TrackPointExtension/v1">
            <gpxtpx:hr>120</gpxtpx:hr>
          </gpxtpx:TrackPointExtension>
        </extensions>
      </trkpt>
      <trkpt lat="43.12774" lon="1.27163">
        <ele>316.4</ele>
        <time>2023-03-05T11:38:17Z</time>
        <extensions>
          <gpxtpx:TrackPointExtension xmlns:gpxtpx="http://www.garmin.com/xmlschemas/TrackPointExtension/v1">
            <gpxtpx:hr>120</gpxtpx:hr>
          </gpxtpx:TrackPointExtension>
        </extensions>
      </trkpt>
      <trkpt lat="43.12772" lon="1.27162">
        <ele>316.8</ele>
        <time>2023-03-05T11:38:18Z</time>
        <extensions>
          <gpxtpx:TrackPointExtension xmlns:gpxtpx="http://www.garmin.com/xmlschemas/TrackPointExtension/v1">
            <gpxtpx:hr>120</gpxtpx:hr>
          </gpxtpx:TrackPointExtension>
        </extensions>
      </trkpt>
      <trkpt lat="43.12771" lon="1.27161">
        <ele>317.4</ele>
        <time>2023-03-05T11:38:19Z</time>
        <extensions>
          <gpxtpx:TrackPointExtension xmlns:gpxtpx="http://www.garmin.com/xmlschemas/TrackPointExtension/v1">
            <gpxtpx:hr>120</gpxtpx:hr>
          </gpxtpx:TrackPointExtension>
        </extensions>
      </trkpt>
      <trkpt lat="43.1277" lon="1.2716">
        <ele>317.8</ele>
        <time>2023-03-05T11:38:20Z</time>
        <extensions>
          <gpxtpx:TrackPointExtension xmlns:gpxtpx="http://www.garmin.com/xmlschemas/TrackPointExtension/v1">
            <gpxtpx:hr>120</gpxtpx:hr>
          </gpxtpx:TrackPointExtension>
        </extensions>
      </trkpt>
      <trkpt lat="43.12766" lon="1.2716">
        <ele>318.2</ele>
        <time>2023-03-05T11:38:22Z</time>
        <extensions>
          <gpxtpx:TrackPointExtension xmlns:gpxtpx="http://www.garmin.com/xmlschemas/TrackPointExtension/v1">
            <gpxtpx:hr>120</gpxtpx:hr>
          </gpxtpx:TrackPointExtension>
        </extensions>
      </trkpt>
      <trkpt lat="43.12765" lon="1.2716">
        <ele>318.8</ele>
        <time>2023-03-05T11:38:23Z</time>
        <extensions>
          <gpxtpx:TrackPointExtension xmlns:gpxtpx="http://www.garmin.com/xmlschemas/TrackPointExtension/v1">
            <gpxtpx:hr>120</gpxtpx:hr>
          </gpxtpx:TrackPointExtension>
        </extensions>
      </trkpt>
      <trkpt lat="43.12764" lon="1.27161">
        <ele>319.2</ele>
        <time>2023-03-05T11:38:24Z</time>
        <extensions>
          <gpxtpx:TrackPointExtension xmlns:gpxtpx="http://www.garmin.com/xmlschemas/TrackPointExtension/v1">
            <gpxtpx:hr>120</gpxtpx:hr>
          </gpxtpx:TrackPointExtension>
        </extensions>
      </trkpt>
      <trkpt lat="43.12762" lon="1.2716">
        <ele>319.6</ele>
        <time>2023-03-05T11:38:25Z</time>
        <extensions>
          <gpxtpx:TrackPointExtension xmlns:gpxtpx="http://www.garmin.com/xmlschemas/TrackPointExtension/v1">
            <gpxtpx:hr>120</gpxtpx:hr>
          </gpxtpx:TrackPointExtension>
        </extensions>
      </trkpt>
      <trkpt lat="43.12761" lon="1.2716">
        <ele>320.2</ele>
        <time>2023-03-05T11:38:26Z</time>
        <extensions>
          <gpxtpx:TrackPointExtension xmlns:gpxtpx="http://www.garmin.com/xmlschemas/TrackPointExtension/v1">
            <gpxtpx:hr>120</gpxtpx:hr>
          </gpxtpx:TrackPointExtension>
        </extensions>
      </trkpt>
      <trkpt lat="43.12757" lon="1.27159">
        <ele>320.6</ele>
        <time>2023-03-05T11:38:28Z</time>
        <extensions>
          <gpxtpx:TrackPointExtension xmlns:gpxtpx="http://www.garmin.com/xmlschemas/TrackPointExtension/v1">
            <gpxtpx:hr>120</gpxtpx:hr>
          </gpxtpx:TrackPointExtension>
        </extensions>
      </trkpt>
      <trkpt lat="43.12755" lon="1.2716">
        <ele>321</ele>
        <time>2023-03-05T11:38:29Z</time>
        <extensions>
          <gpxtpx:TrackPointExtension xmlns:gpxtpx="http://www.garmin.com/xmlschemas/TrackPointExtension/v1">
            <gpxtpx:hr>120</gpxtpx:hr>
          </gpxtpx:TrackPointExtension>
        </extensions>
      </trkpt>
      <trkpt lat="43.12754" lon="1.27159">
        <ele>321.6</ele>
        <time>2023-03-05T11:38:30Z</time>
        <extensions>
          <gpxtpx:TrackPointExtension xmlns:gpxtpx="http://www.garmin.com/xmlschemas/TrackPointExtension/v1">
            <gpxtpx:hr>121</gpxtpx:hr>
          </gpxtpx:TrackPointExtension>
        </extensions>
      </trkpt>
      <trkpt lat="43.12752" lon="1.27159">
        <ele>322</ele>
        <time>2023-03-05T11:38:31Z</time>
        <extensions>
          <gpxtpx:TrackPointExtension xmlns:gpxtpx="http://www.garmin.com/xmlschemas/TrackPointExtension/v1">
            <gpxtpx:hr>121</gpxtpx:hr>
          </gpxtpx:TrackPointExtension>
        </extensions>
      </trkpt>
      <trkpt lat="43.12751" lon="1.27159">
        <ele>322.4</ele>
        <time>2023-03-05T11:38:32Z</time>
        <extensions>
          <gpxtpx:TrackPointExtension xmlns:gpxtpx="http://www.garmin.com/xmlschemas/TrackPointExtension/v1">
            <gpxtpx:hr>121</gpxtpx:hr>
          </gpxtpx:TrackPointExtension>
        </extensions>
      </trkpt>
      <trkpt lat="43.12747" lon="1.27159">
        <ele>322.8</ele>
        <time>2023-03-05T11:38:34Z</time>
        <extensions>
          <gpxtpx:TrackPointExtension xmlns:gpxtpx="http://www.garmin.com/xmlschemas/TrackPointExtension/v1">
            <gpxtpx:hr>121</gpxtpx:hr>
          </gpxtpx:TrackPointExtension>
        </extensions>
      </trkpt>
      <trkpt lat="43.12745" lon="1.27159">
        <ele>323.4</ele>
        <time>2023-03-05T11:38:35Z</time>
        <extensions>
          <gpxtpx:TrackPointExtension xmlns:gpxtpx="http://www.garmin.com/xmlschemas/TrackPointExtension/v1">
            <gpxtpx:hr>121</gpxtpx:hr>
          </gpxtpx:TrackPointExtension>
        </extensions>
      </trkpt>
      <trkpt lat="43.12744" lon="1.27159">
        <ele>323.8</ele>
        <time>2023-03-05T11:38:36Z</time>
        <extensions>
          <gpxtpx:TrackPointExtension xmlns:gpxtpx="http://www.garmin.com/xmlschemas/TrackPointExtension/v1">
            <gpxtpx:hr>122</gpxtpx:hr>
          </gpxtpx:TrackPointExtension>
        </extensions>
      </trkpt>
      <trkpt lat="43.12743" lon="1.27158">
        <ele>324.2</ele>
        <time>2023-03-05T11:38:37Z</time>
        <extensions>
          <gpxtpx:TrackPointExtension xmlns:gpxtpx="http://www.garmin.com/xmlschemas/TrackPointExtension/v1">
            <gpxtpx:hr>122</gpxtpx:hr>
          </gpxtpx:TrackPointExtension>
        </extensions>
      </trkpt>
      <trkpt lat="43.12741" lon="1.27158">
        <ele>324.8</ele>
        <time>2023-03-05T11:38:38Z</time>
        <extensions>
          <gpxtpx:TrackPointExtension xmlns:gpxtpx="http://www.garmin.com/xmlschemas/TrackPointExtension/v1">
            <gpxtpx:hr>122</gpxtpx:hr>
          </gpxtpx:TrackPointExtension>
        </extensions>
      </trkpt>
      <trkpt lat="43.12739" lon="1.27157">
        <ele>325.2</ele>
        <time>2023-03-05T11:38:39Z</time>
        <extensions>
          <gpxtpx:TrackPointExtension xmlns:gpxtpx="http://www.garmin.com/xmlschemas/TrackPointExtension/v1">
            <gpxtpx:hr>123</gpxtpx:hr>
          </gpxtpx:TrackPointExtension>
        </extensions>
      </trkpt>
      <trkpt lat="43.12738" lon="1.27157">
        <ele>325.6</ele>
        <time>2023-03-05T11:38:40Z</time>
        <extensions>
          <gpxtpx:TrackPointExtension xmlns:gpxtpx="http://www.garmin.com/xmlschemas/TrackPointExtension/v1">
            <gpxtpx:hr>123</gpxtpx:hr>
          </gpxtpx:TrackPointExtension>
        </extensions>
      </trkpt>
      <trkpt lat="43.12736" lon="1.27157">
        <ele>326</ele>
        <time>2023-03-05T11:38:41Z</time>
        <extensions>
          <gpxtpx:TrackPointExtension xmlns:gpxtpx="http://www.garmin.com/xmlschemas/TrackPointExtension/v1">
            <gpxtpx:hr>123</gpxtpx:hr>
          </gpxtpx:TrackPointExtension>
        </extensions>
      </trkpt>
      <trkpt lat="43.12735" lon="1.27157">
        <ele>326.4</ele>
        <time>2023-03-05T11:38:42Z</time>
        <extensions>
          <gpxtpx:TrackPointExtension xmlns:gpxtpx="http://www.garmin.com/xmlschemas/TrackPointExtension/v1">
            <gpxtpx:hr>123</gpxtpx:hr>
          </gpxtpx:TrackPointExtension>
        </extensions>
      </trkpt>
      <trkpt lat="43.12733" lon="1.27157">
        <ele>326.8</ele>
        <time>2023-03-05T11:38:43Z</time>
        <extensions>
          <gpxtpx:TrackPointExtension xmlns:gpxtpx="http://www.garmin.com/xmlschemas/TrackPointExtension/v1">
            <gpxtpx:hr>123</gpxtpx:hr>
          </gpxtpx:TrackPointExtension>
        </extensions>
      </trkpt>
      <trkpt lat="43.12731" lon="1.27156">
        <ele>326.8</ele>
        <time>2023-03-05T11:38:44Z</time>
        <extensions>
          <gpxtpx:TrackPointExtension xmlns:gpxtpx="http://www.garmin.com/xmlschemas/TrackPointExtension/v1">
            <gpxtpx:hr>124</gpxtpx:hr>
          </gpxtpx:TrackPointExtension>
        </extensions>
      </trkpt>
      <trkpt lat="43.1273" lon="1.27155">
        <ele>327.2</ele>
        <time>2023-03-05T11:38:45Z</time>
        <extensions>
          <gpxtpx:TrackPointExtension xmlns:gpxtpx="http://www.garmin.com/xmlschemas/TrackPointExtension/v1">
            <gpxtpx:hr>124</gpxtpx:hr>
          </gpxtpx:TrackPointExtension>
        </extensions>
      </trkpt>
      <trkpt lat="43.12728" lon="1.27154">
        <ele>327.6</ele>
        <time>2023-03-05T11:38:46Z</time>
        <extensions>
          <gpxtpx:TrackPointExtension xmlns:gpxtpx="http://www.garmin.com/xmlschemas/TrackPointExtension/v1">
            <gpxtpx:hr>124</gpxtpx:hr>
          </gpxtpx:TrackPointExtension>
        </extensions>
      </trkpt>
      <trkpt lat="43.12726" lon="1.27153">
        <ele>328</ele>
        <time>2023-03-05T11:38:47Z</time>
        <extensions>
          <gpxtpx:TrackPointExtension xmlns:gpxtpx="http://www.garmin.com/xmlschemas/TrackPointExtension/v1">
            <gpxtpx:hr>124</gpxtpx:hr>
          </gpxtpx:TrackPointExtension>
        </extensions>
      </trkpt>
      <trkpt lat="43.12724" lon="1.27152">
        <ele>328.4</ele>
        <time>2023-03-05T11:38:48Z</time>
        <extensions>
          <gpxtpx:TrackPointExtension xmlns:gpxtpx="http://www.garmin.com/xmlschemas/TrackPointExtension/v1">
            <gpxtpx:hr>125</gpxtpx:hr>
          </gpxtpx:TrackPointExtension>
        </extensions>
      </trkpt>
      <trkpt lat="43.12723" lon="1.27151">
        <ele>328.8</ele>
        <time>2023-03-05T11:38:49Z</time>
        <extensions>
          <gpxtpx:TrackPointExtension xmlns:gpxtpx="http://www.garmin.com/xmlschemas/TrackPointExtension/v1">
            <gpxtpx:hr>125</gpxtpx:hr>
          </gpxtpx:TrackPointExtension>
        </extensions>
      </trkpt>
      <trkpt lat="43.12721" lon="1.2715">
        <ele>328.8</ele>
        <time>2023-03-05T11:38:50Z</time>
        <extensions>
          <gpxtpx:TrackPointExtension xmlns:gpxtpx="http://www.garmin.com/xmlschemas/TrackPointExtension/v1">
            <gpxtpx:hr>126</gpxtpx:hr>
          </gpxtpx:TrackPointExtension>
        </extensions>
      </trkpt>
      <trkpt lat="43.12717" lon="1.27147">
        <ele>328.8</ele>
        <time>2023-03-05T11:38:52Z</time>
        <extensions>
          <gpxtpx:TrackPointExtension xmlns:gpxtpx="http://www.garmin.com/xmlschemas/TrackPointExtension/v1">
            <gpxtpx:hr>127</gpxtpx:hr>
          </gpxtpx:TrackPointExtension>
        </extensions>
      </trkpt>
      <trkpt lat="43.12714" lon="1.27145">
        <ele>329.2</ele>
        <time>2023-03-05T11:38:54Z</time>
        <extensions>
          <gpxtpx:TrackPointExtension xmlns:gpxtpx="http://www.garmin.com/xmlschemas/TrackPointExtension/v1">
            <gpxtpx:hr>128</gpxtpx:hr>
          </gpxtpx:TrackPointExtension>
        </extensions>
      </trkpt>
      <trkpt lat="43.12713" lon="1.27145">
        <ele>329.8</ele>
        <time>2023-03-05T11:38:55Z</time>
        <extensions>
          <gpxtpx:TrackPointExtension xmlns:gpxtpx="http://www.garmin.com/xmlschemas/TrackPointExtension/v1">
            <gpxtpx:hr>128</gpxtpx:hr>
          </gpxtpx:TrackPointExtension>
        </extensions>
      </trkpt>
      <trkpt lat="43.12711" lon="1.27144">
        <ele>330.2</ele>
        <time>2023-03-05T11:38:56Z</time>
        <extensions>
          <gpxtpx:TrackPointExtension xmlns:gpxtpx="http://www.garmin.com/xmlschemas/TrackPointExtension/v1">
            <gpxtpx:hr>129</gpxtpx:hr>
          </gpxtpx:TrackPointExtension>
        </extensions>
      </trkpt>
      <trkpt lat="43.12709" lon="1.27143">
        <ele>330.6</ele>
        <time>2023-03-05T11:38:57Z</time>
        <extensions>
          <gpxtpx:TrackPointExtension xmlns:gpxtpx="http://www.garmin.com/xmlschemas/TrackPointExtension/v1">
            <gpxtpx:hr>129</gpxtpx:hr>
          </gpxtpx:TrackPointExtension>
        </extensions>
      </trkpt>
      <trkpt lat="43.12706" lon="1.27142">
        <ele>331</ele>
        <time>2023-03-05T11:38:58Z</time>
        <extensions>
          <gpxtpx:TrackPointExtension xmlns:gpxtpx="http://www.garmin.com/xmlschemas/TrackPointExtension/v1">
            <gpxtpx:hr>129</gpxtpx:hr>
          </gpxtpx:TrackPointExtension>
        </extensions>
      </trkpt>
      <trkpt lat="43.12698" lon="1.27138">
        <ele>331</ele>
        <time>2023-03-05T11:39:02Z</time>
        <extensions>
          <gpxtpx:TrackPointExtension xmlns:gpxtpx="http://www.garmin.com/xmlschemas/TrackPointExtension/v1">
            <gpxtpx:hr>130</gpxtpx:hr>
          </gpxtpx:TrackPointExtension>
        </extensions>
      </trkpt>
      <trkpt lat="43.12693" lon="1.27136">
        <ele>331.6</ele>
        <time>2023-03-05T11:39:04Z</time>
        <extensions>
          <gpxtpx:TrackPointExtension xmlns:gpxtpx="http://www.garmin.com/xmlschemas/TrackPointExtension/v1">
            <gpxtpx:hr>130</gpxtpx:hr>
          </gpxtpx:TrackPointExtension>
        </extensions>
      </trkpt>
      <trkpt lat="43.12691" lon="1.27135">
        <ele>332</ele>
        <time>2023-03-05T11:39:05Z</time>
        <extensions>
          <gpxtpx:TrackPointExtension xmlns:gpxtpx="http://www.garmin.com/xmlschemas/TrackPointExtension/v1">
            <gpxtpx:hr>129</gpxtpx:hr>
          </gpxtpx:TrackPointExtension>
        </extensions>
      </trkpt>
      <trkpt lat="43.12688" lon="1.27135">
        <ele>332.4</ele>
        <time>2023-03-05T11:39:06Z</time>
        <extensions>
          <gpxtpx:TrackPointExtension xmlns:gpxtpx="http://www.garmin.com/xmlschemas/TrackPointExtension/v1">
            <gpxtpx:hr>129</gpxtpx:hr>
          </gpxtpx:TrackPointExtension>
        </extensions>
      </trkpt>
      <trkpt lat="43.12685" lon="1.27133">
        <ele>332.8</ele>
        <time>2023-03-05T11:39:07Z</time>
        <extensions>
          <gpxtpx:TrackPointExtension xmlns:gpxtpx="http://www.garmin.com/xmlschemas/TrackPointExtension/v1">
            <gpxtpx:hr>128</gpxtpx:hr>
          </gpxtpx:TrackPointExtension>
        </extensions>
      </trkpt>
      <trkpt lat="43.12681" lon="1.27132">
        <ele>333.2</ele>
        <time>2023-03-05T11:39:08Z</time>
        <extensions>
          <gpxtpx:TrackPointExtension xmlns:gpxtpx="http://www.garmin.com/xmlschemas/TrackPointExtension/v1">
            <gpxtpx:hr>128</gpxtpx:hr>
          </gpxtpx:TrackPointExtension>
        </extensions>
      </trkpt>
      <trkpt lat="43.1267" lon="1.27131">
        <ele>333.2</ele>
        <time>2023-03-05T11:39:12Z</time>
        <extensions>
          <gpxtpx:TrackPointExtension xmlns:gpxtpx="http://www.garmin.com/xmlschemas/TrackPointExtension/v1">
            <gpxtpx:hr>127</gpxtpx:hr>
          </gpxtpx:TrackPointExtension>
        </extensions>
      </trkpt>
      <trkpt lat="43.12662" lon="1.27129">
        <ele>333.2</ele>
        <time>2023-03-05T11:39:16Z</time>
        <extensions>
          <gpxtpx:TrackPointExtension xmlns:gpxtpx="http://www.garmin.com/xmlschemas/TrackPointExtension/v1">
            <gpxtpx:hr>127</gpxtpx:hr>
          </gpxtpx:TrackPointExtension>
        </extensions>
      </trkpt>
      <trkpt lat="43.12658" lon="1.2713">
        <ele>333.6</ele>
        <time>2023-03-05T11:39:18Z</time>
        <extensions>
          <gpxtpx:TrackPointExtension xmlns:gpxtpx="http://www.garmin.com/xmlschemas/TrackPointExtension/v1">
            <gpxtpx:hr>126</gpxtpx:hr>
          </gpxtpx:TrackPointExtension>
        </extensions>
      </trkpt>
      <trkpt lat="43.12656" lon="1.27129">
        <ele>334</ele>
        <time>2023-03-05T11:39:19Z</time>
        <extensions>
          <gpxtpx:TrackPointExtension xmlns:gpxtpx="http://www.garmin.com/xmlschemas/TrackPointExtension/v1">
            <gpxtpx:hr>126</gpxtpx:hr>
          </gpxtpx:TrackPointExtension>
        </extensions>
      </trkpt>
      <trkpt lat="43.12654" lon="1.27128">
        <ele>334.4</ele>
        <time>2023-03-05T11:39:20Z</time>
        <extensions>
          <gpxtpx:TrackPointExtension xmlns:gpxtpx="http://www.garmin.com/xmlschemas/TrackPointExtension/v1">
            <gpxtpx:hr>125</gpxtpx:hr>
          </gpxtpx:TrackPointExtension>
        </extensions>
      </trkpt>
      <trkpt lat="43.12652" lon="1.27128">
        <ele>334.8</ele>
        <time>2023-03-05T11:39:21Z</time>
        <extensions>
          <gpxtpx:TrackPointExtension xmlns:gpxtpx="http://www.garmin.com/xmlschemas/TrackPointExtension/v1">
            <gpxtpx:hr>125</gpxtpx:hr>
          </gpxtpx:TrackPointExtension>
        </extensions>
      </trkpt>
      <trkpt lat="43.1265" lon="1.27128">
        <ele>335.2</ele>
        <time>2023-03-05T11:39:22Z</time>
        <extensions>
          <gpxtpx:TrackPointExtension xmlns:gpxtpx="http://www.garmin.com/xmlschemas/TrackPointExtension/v1">
            <gpxtpx:hr>125</gpxtpx:hr>
          </gpxtpx:TrackPointExtension>
        </extensions>
      </trkpt>
      <trkpt lat="43.12648" lon="1.27128">
        <ele>335.6</ele>
        <time>2023-03-05T11:39:23Z</time>
        <extensions>
          <gpxtpx:TrackPointExtension xmlns:gpxtpx="http://www.garmin.com/xmlschemas/TrackPointExtension/v1">
            <gpxtpx:hr>125</gpxtpx:hr>
          </gpxtpx:TrackPointExtension>
        </extensions>
      </trkpt>
      <trkpt lat="43.12646" lon="1.27128">
        <ele>336</ele>
        <time>2023-03-05T11:39:24Z</time>
        <extensions>
          <gpxtpx:TrackPointExtension xmlns:gpxtpx="http://www.garmin.com/xmlschemas/TrackPointExtension/v1">
            <gpxtpx:hr>125</gpxtpx:hr>
          </gpxtpx:TrackPointExtension>
        </extensions>
      </trkpt>
      <trkpt lat="43.12645" lon="1.27127">
        <ele>336.4</ele>
        <time>2023-03-05T11:39:25Z</time>
        <extensions>
          <gpxtpx:TrackPointExtension xmlns:gpxtpx="http://www.garmin.com/xmlschemas/TrackPointExtension/v1">
            <gpxtpx:hr>125</gpxtpx:hr>
          </gpxtpx:TrackPointExtension>
        </extensions>
      </trkpt>
      <trkpt lat="43.12644" lon="1.27126">
        <ele>336.8</ele>
        <time>2023-03-05T11:39:26Z</time>
        <extensions>
          <gpxtpx:TrackPointExtension xmlns:gpxtpx="http://www.garmin.com/xmlschemas/TrackPointExtension/v1">
            <gpxtpx:hr>125</gpxtpx:hr>
          </gpxtpx:TrackPointExtension>
        </extensions>
      </trkpt>
      <trkpt lat="43.12642" lon="1.27127">
        <ele>337.4</ele>
        <time>2023-03-05T11:39:27Z</time>
        <extensions>
          <gpxtpx:TrackPointExtension xmlns:gpxtpx="http://www.garmin.com/xmlschemas/TrackPointExtension/v1">
            <gpxtpx:hr>125</gpxtpx:hr>
          </gpxtpx:TrackPointExtension>
        </extensions>
      </trkpt>
      <trkpt lat="43.12638" lon="1.27128">
        <ele>337.8</ele>
        <time>2023-03-05T11:39:29Z</time>
        <extensions>
          <gpxtpx:TrackPointExtension xmlns:gpxtpx="http://www.garmin.com/xmlschemas/TrackPointExtension/v1">
            <gpxtpx:hr>126</gpxtpx:hr>
          </gpxtpx:TrackPointExtension>
        </extensions>
      </trkpt>
      <trkpt lat="43.12636" lon="1.27128">
        <ele>338.2</ele>
        <time>2023-03-05T11:39:30Z</time>
        <extensions>
          <gpxtpx:TrackPointExtension xmlns:gpxtpx="http://www.garmin.com/xmlschemas/TrackPointExtension/v1">
            <gpxtpx:hr>126</gpxtpx:hr>
          </gpxtpx:TrackPointExtension>
        </extensions>
      </trkpt>
      <trkpt lat="43.12634" lon="1.27128">
        <ele>338.6</ele>
        <time>2023-03-05T11:39:31Z</time>
        <extensions>
          <gpxtpx:TrackPointExtension xmlns:gpxtpx="http://www.garmin.com/xmlschemas/TrackPointExtension/v1">
            <gpxtpx:hr>126</gpxtpx:hr>
          </gpxtpx:TrackPointExtension>
        </extensions>
      </trkpt>
      <trkpt lat="43.12631" lon="1.27129">
        <ele>339</ele>
        <time>2023-03-05T11:39:32Z</time>
        <extensions>
          <gpxtpx:TrackPointExtension xmlns:gpxtpx="http://www.garmin.com/xmlschemas/TrackPointExtension/v1">
            <gpxtpx:hr>126</gpxtpx:hr>
          </gpxtpx:TrackPointExtension>
        </extensions>
      </trkpt>
      <trkpt lat="43.1263" lon="1.27129">
        <ele>339.4</ele>
        <time>2023-03-05T11:39:33Z</time>
        <extensions>
          <gpxtpx:TrackPointExtension xmlns:gpxtpx="http://www.garmin.com/xmlschemas/TrackPointExtension/v1">
            <gpxtpx:hr>126</gpxtpx:hr>
          </gpxtpx:TrackPointExtension>
        </extensions>
      </trkpt>
      <trkpt lat="43.12627" lon="1.27129">
        <ele>339.4</ele>
        <time>2023-03-05T11:39:34Z</time>
        <extensions>
          <gpxtpx:TrackPointExtension xmlns:gpxtpx="http://www.garmin.com/xmlschemas/TrackPointExtension/v1">
            <gpxtpx:hr>126</gpxtpx:hr>
          </gpxtpx:TrackPointExtension>
        </extensions>
      </trkpt>
      <trkpt lat="43.12617" lon="1.27132">
        <ele>340</ele>
        <time>2023-03-05T11:39:39Z</time>
        <extensions>
          <gpxtpx:TrackPointExtension xmlns:gpxtpx="http://www.garmin.com/xmlschemas/TrackPointExtension/v1">
            <gpxtpx:hr>126</gpxtpx:hr>
          </gpxtpx:TrackPointExtension>
        </extensions>
      </trkpt>
      <trkpt lat="43.12616" lon="1.27133">
        <ele>340.4</ele>
        <time>2023-03-05T11:39:40Z</time>
        <extensions>
          <gpxtpx:TrackPointExtension xmlns:gpxtpx="http://www.garmin.com/xmlschemas/TrackPointExtension/v1">
            <gpxtpx:hr>126</gpxtpx:hr>
          </gpxtpx:TrackPointExtension>
        </extensions>
      </trkpt>
      <trkpt lat="43.12614" lon="1.27135">
        <ele>340.8</ele>
        <time>2023-03-05T11:39:41Z</time>
        <extensions>
          <gpxtpx:TrackPointExtension xmlns:gpxtpx="http://www.garmin.com/xmlschemas/TrackPointExtension/v1">
            <gpxtpx:hr>126</gpxtpx:hr>
          </gpxtpx:TrackPointExtension>
        </extensions>
      </trkpt>
      <trkpt lat="43.12613" lon="1.27137">
        <ele>341.2</ele>
        <time>2023-03-05T11:39:42Z</time>
        <extensions>
          <gpxtpx:TrackPointExtension xmlns:gpxtpx="http://www.garmin.com/xmlschemas/TrackPointExtension/v1">
            <gpxtpx:hr>126</gpxtpx:hr>
          </gpxtpx:TrackPointExtension>
        </extensions>
      </trkpt>
      <trkpt lat="43.12612" lon="1.27139">
        <ele>341.8</ele>
        <time>2023-03-05T11:39:43Z</time>
        <extensions>
          <gpxtpx:TrackPointExtension xmlns:gpxtpx="http://www.garmin.com/xmlschemas/TrackPointExtension/v1">
            <gpxtpx:hr>125</gpxtpx:hr>
          </gpxtpx:TrackPointExtension>
        </extensions>
      </trkpt>
      <trkpt lat="43.12606" lon="1.27151">
        <ele>341.8</ele>
        <time>2023-03-05T11:39:47Z</time>
        <extensions>
          <gpxtpx:TrackPointExtension xmlns:gpxtpx="http://www.garmin.com/xmlschemas/TrackPointExtension/v1">
            <gpxtpx:hr>126</gpxtpx:hr>
          </gpxtpx:TrackPointExtension>
        </extensions>
      </trkpt>
      <trkpt lat="43.12591" lon="1.27172">
        <ele>341.8</ele>
        <time>2023-03-05T11:39:51Z</time>
        <extensions>
          <gpxtpx:TrackPointExtension xmlns:gpxtpx="http://www.garmin.com/xmlschemas/TrackPointExtension/v1">
            <gpxtpx:hr>127</gpxtpx:hr>
          </gpxtpx:TrackPointExtension>
        </extensions>
      </trkpt>
      <trkpt lat="43.12582" lon="1.27183">
        <ele>340.8</ele>
        <time>2023-03-05T11:39:53Z</time>
        <extensions>
          <gpxtpx:TrackPointExtension xmlns:gpxtpx="http://www.garmin.com/xmlschemas/TrackPointExtension/v1">
            <gpxtpx:hr>127</gpxtpx:hr>
          </gpxtpx:TrackPointExtension>
        </extensions>
      </trkpt>
      <trkpt lat="43.12576" lon="1.27186">
        <ele>340.4</ele>
        <time>2023-03-05T11:39:54Z</time>
        <extensions>
          <gpxtpx:TrackPointExtension xmlns:gpxtpx="http://www.garmin.com/xmlschemas/TrackPointExtension/v1">
            <gpxtpx:hr>127</gpxtpx:hr>
          </gpxtpx:TrackPointExtension>
        </extensions>
      </trkpt>
      <trkpt lat="43.1257" lon="1.27188">
        <ele>339.8</ele>
        <time>2023-03-05T11:39:55Z</time>
        <extensions>
          <gpxtpx:TrackPointExtension xmlns:gpxtpx="http://www.garmin.com/xmlschemas/TrackPointExtension/v1">
            <gpxtpx:hr>127</gpxtpx:hr>
          </gpxtpx:TrackPointExtension>
        </extensions>
      </trkpt>
      <trkpt lat="43.12562" lon="1.2719">
        <ele>339.2</ele>
        <time>2023-03-05T11:39:56Z</time>
        <extensions>
          <gpxtpx:TrackPointExtension xmlns:gpxtpx="http://www.garmin.com/xmlschemas/TrackPointExtension/v1">
            <gpxtpx:hr>127</gpxtpx:hr>
          </gpxtpx:TrackPointExtension>
        </extensions>
      </trkpt>
      <trkpt lat="43.12556" lon="1.27194">
        <ele>338.8</ele>
        <time>2023-03-05T11:39:57Z</time>
        <extensions>
          <gpxtpx:TrackPointExtension xmlns:gpxtpx="http://www.garmin.com/xmlschemas/TrackPointExtension/v1">
            <gpxtpx:hr>127</gpxtpx:hr>
          </gpxtpx:TrackPointExtension>
        </extensions>
      </trkpt>
      <trkpt lat="43.1255" lon="1.27197">
        <ele>338.2</ele>
        <time>2023-03-05T11:39:58Z</time>
        <extensions>
          <gpxtpx:TrackPointExtension xmlns:gpxtpx="http://www.garmin.com/xmlschemas/TrackPointExtension/v1">
            <gpxtpx:hr>126</gpxtpx:hr>
          </gpxtpx:TrackPointExtension>
        </extensions>
      </trkpt>
      <trkpt lat="43.12545" lon="1.27201">
        <ele>337.6</ele>
        <time>2023-03-05T11:39:59Z</time>
        <extensions>
          <gpxtpx:TrackPointExtension xmlns:gpxtpx="http://www.garmin.com/xmlschemas/TrackPointExtension/v1">
            <gpxtpx:hr>126</gpxtpx:hr>
          </gpxtpx:TrackPointExtension>
        </extensions>
      </trkpt>
      <trkpt lat="43.1254" lon="1.27204">
        <ele>337</ele>
        <time>2023-03-05T11:40:00Z</time>
        <extensions>
          <gpxtpx:TrackPointExtension xmlns:gpxtpx="http://www.garmin.com/xmlschemas/TrackPointExtension/v1">
            <gpxtpx:hr>127</gpxtpx:hr>
          </gpxtpx:TrackPointExtension>
        </extensions>
      </trkpt>
      <trkpt lat="43.12524" lon="1.27202">
        <ele>337</ele>
        <time>2023-03-05T11:40:03Z</time>
        <extensions>
          <gpxtpx:TrackPointExtension xmlns:gpxtpx="http://www.garmin.com/xmlschemas/TrackPointExtension/v1">
            <gpxtpx:hr>126</gpxtpx:hr>
          </gpxtpx:TrackPointExtension>
        </extensions>
      </trkpt>
      <trkpt lat="43.12503" lon="1.27194">
        <ele>337</ele>
        <time>2023-03-05T11:40:07Z</time>
        <extensions>
          <gpxtpx:TrackPointExtension xmlns:gpxtpx="http://www.garmin.com/xmlschemas/TrackPointExtension/v1">
            <gpxtpx:hr>126</gpxtpx:hr>
          </gpxtpx:TrackPointExtension>
        </extensions>
      </trkpt>
      <trkpt lat="43.12489" lon="1.27186">
        <ele>337</ele>
        <time>2023-03-05T11:40:10Z</time>
        <extensions>
          <gpxtpx:TrackPointExtension xmlns:gpxtpx="http://www.garmin.com/xmlschemas/TrackPointExtension/v1">
            <gpxtpx:hr>125</gpxtpx:hr>
          </gpxtpx:TrackPointExtension>
        </extensions>
      </trkpt>
      <trkpt lat="43.12485" lon="1.27181">
        <ele>337</ele>
        <time>2023-03-05T11:40:11Z</time>
        <extensions>
          <gpxtpx:TrackPointExtension xmlns:gpxtpx="http://www.garmin.com/xmlschemas/TrackPointExtension/v1">
            <gpxtpx:hr>125</gpxtpx:hr>
          </gpxtpx:TrackPointExtension>
        </extensions>
      </trkpt>
      <trkpt lat="43.12466" lon="1.27167">
        <ele>337</ele>
        <time>2023-03-05T11:40:15Z</time>
        <extensions>
          <gpxtpx:TrackPointExtension xmlns:gpxtpx="http://www.garmin.com/xmlschemas/TrackPointExtension/v1">
            <gpxtpx:hr>123</gpxtpx:hr>
          </gpxtpx:TrackPointExtension>
        </extensions>
      </trkpt>
      <trkpt lat="43.1246" lon="1.27164">
        <ele>336.6</ele>
        <time>2023-03-05T11:40:16Z</time>
        <extensions>
          <gpxtpx:TrackPointExtension xmlns:gpxtpx="http://www.garmin.com/xmlschemas/TrackPointExtension/v1">
            <gpxtpx:hr>123</gpxtpx:hr>
          </gpxtpx:TrackPointExtension>
        </extensions>
      </trkpt>
      <trkpt lat="43.12454" lon="1.27163">
        <ele>336</ele>
        <time>2023-03-05T11:40:17Z</time>
        <extensions>
          <gpxtpx:TrackPointExtension xmlns:gpxtpx="http://www.garmin.com/xmlschemas/TrackPointExtension/v1">
            <gpxtpx:hr>122</gpxtpx:hr>
          </gpxtpx:TrackPointExtension>
        </extensions>
      </trkpt>
      <trkpt lat="43.12448" lon="1.2716">
        <ele>335</ele>
        <time>2023-03-05T11:40:18Z</time>
        <extensions>
          <gpxtpx:TrackPointExtension xmlns:gpxtpx="http://www.garmin.com/xmlschemas/TrackPointExtension/v1">
            <gpxtpx:hr>122</gpxtpx:hr>
          </gpxtpx:TrackPointExtension>
        </extensions>
      </trkpt>
      <trkpt lat="43.12442" lon="1.27158">
        <ele>334.6</ele>
        <time>2023-03-05T11:40:19Z</time>
        <extensions>
          <gpxtpx:TrackPointExtension xmlns:gpxtpx="http://www.garmin.com/xmlschemas/TrackPointExtension/v1">
            <gpxtpx:hr>121</gpxtpx:hr>
          </gpxtpx:TrackPointExtension>
        </extensions>
      </trkpt>
      <trkpt lat="43.12431" lon="1.27155">
        <ele>334.6</ele>
        <time>2023-03-05T11:40:21Z</time>
        <extensions>
          <gpxtpx:TrackPointExtension xmlns:gpxtpx="http://www.garmin.com/xmlschemas/TrackPointExtension/v1">
            <gpxtpx:hr>120</gpxtpx:hr>
          </gpxtpx:TrackPointExtension>
        </extensions>
      </trkpt>
      <trkpt lat="43.12424" lon="1.27155">
        <ele>334.2</ele>
        <time>2023-03-05T11:40:22Z</time>
        <extensions>
          <gpxtpx:TrackPointExtension xmlns:gpxtpx="http://www.garmin.com/xmlschemas/TrackPointExtension/v1">
            <gpxtpx:hr>119</gpxtpx:hr>
          </gpxtpx:TrackPointExtension>
        </extensions>
      </trkpt>
      <trkpt lat="43.12418" lon="1.27155">
        <ele>333.8</ele>
        <time>2023-03-05T11:40:23Z</time>
        <extensions>
          <gpxtpx:TrackPointExtension xmlns:gpxtpx="http://www.garmin.com/xmlschemas/TrackPointExtension/v1">
            <gpxtpx:hr>119</gpxtpx:hr>
          </gpxtpx:TrackPointExtension>
        </extensions>
      </trkpt>
      <trkpt lat="43.12413" lon="1.27156">
        <ele>333.4</ele>
        <time>2023-03-05T11:40:24Z</time>
        <extensions>
          <gpxtpx:TrackPointExtension xmlns:gpxtpx="http://www.garmin.com/xmlschemas/TrackPointExtension/v1">
            <gpxtpx:hr>119</gpxtpx:hr>
          </gpxtpx:TrackPointExtension>
        </extensions>
      </trkpt>
      <trkpt lat="43.12407" lon="1.27158">
        <ele>333</ele>
        <time>2023-03-05T11:40:25Z</time>
        <extensions>
          <gpxtpx:TrackPointExtension xmlns:gpxtpx="http://www.garmin.com/xmlschemas/TrackPointExtension/v1">
            <gpxtpx:hr>119</gpxtpx:hr>
          </gpxtpx:TrackPointExtension>
        </extensions>
      </trkpt>
      <trkpt lat="43.12402" lon="1.27159">
        <ele>332.6</ele>
        <time>2023-03-05T11:40:26Z</time>
        <extensions>
          <gpxtpx:TrackPointExtension xmlns:gpxtpx="http://www.garmin.com/xmlschemas/TrackPointExtension/v1">
            <gpxtpx:hr>118</gpxtpx:hr>
          </gpxtpx:TrackPointExtension>
        </extensions>
      </trkpt>
      <trkpt lat="43.12381" lon="1.27167">
        <ele>332.6</ele>
        <time>2023-03-05T11:40:31Z</time>
        <extensions>
          <gpxtpx:TrackPointExtension xmlns:gpxtpx="http://www.garmin.com/xmlschemas/TrackPointExtension/v1">
            <gpxtpx:hr>115</gpxtpx:hr>
          </gpxtpx:TrackPointExtension>
        </extensions>
      </trkpt>
      <trkpt lat="43.12367" lon="1.27169">
        <ele>332.6</ele>
        <time>2023-03-05T11:40:36Z</time>
        <extensions>
          <gpxtpx:TrackPointExtension xmlns:gpxtpx="http://www.garmin.com/xmlschemas/TrackPointExtension/v1">
            <gpxtpx:hr>114</gpxtpx:hr>
          </gpxtpx:TrackPointExtension>
        </extensions>
      </trkpt>
      <trkpt lat="43.12365" lon="1.27171">
        <ele>332.6</ele>
        <time>2023-03-05T11:40:37Z</time>
        <extensions>
          <gpxtpx:TrackPointExtension xmlns:gpxtpx="http://www.garmin.com/xmlschemas/TrackPointExtension/v1">
            <gpxtpx:hr>113</gpxtpx:hr>
          </gpxtpx:TrackPointExtension>
        </extensions>
      </trkpt>
      <trkpt lat="43.12365" lon="1.27177">
        <ele>332.6</ele>
        <time>2023-03-05T11:40:40Z</time>
        <extensions>
          <gpxtpx:TrackPointExtension xmlns:gpxtpx="http://www.garmin.com/xmlschemas/TrackPointExtension/v1">
            <gpxtpx:hr>112</gpxtpx:hr>
          </gpxtpx:TrackPointExtension>
        </extensions>
      </trkpt>
      <trkpt lat="43.12362" lon="1.2718">
        <ele>332.6</ele>
        <time>2023-03-05T11:40:42Z</time>
        <extensions>
          <gpxtpx:TrackPointExtension xmlns:gpxtpx="http://www.garmin.com/xmlschemas/TrackPointExtension/v1">
            <gpxtpx:hr>113</gpxtpx:hr>
          </gpxtpx:TrackPointExtension>
        </extensions>
      </trkpt>
      <trkpt lat="43.12357" lon="1.27184">
        <ele>332.6</ele>
        <time>2023-03-05T11:40:45Z</time>
        <extensions>
          <gpxtpx:TrackPointExtension xmlns:gpxtpx="http://www.garmin.com/xmlschemas/TrackPointExtension/v1">
            <gpxtpx:hr>113</gpxtpx:hr>
          </gpxtpx:TrackPointExtension>
        </extensions>
      </trkpt>
      <trkpt lat="43.1234" lon="1.2719">
        <ele>332.6</ele>
        <time>2023-03-05T11:40:53Z</time>
        <extensions>
          <gpxtpx:TrackPointExtension xmlns:gpxtpx="http://www.garmin.com/xmlschemas/TrackPointExtension/v1">
            <gpxtpx:hr>113</gpxtpx:hr>
          </gpxtpx:TrackPointExtension>
        </extensions>
      </trkpt>
      <trkpt lat="43.12328" lon="1.27193">
        <ele>332.6</ele>
        <time>2023-03-05T11:40:58Z</time>
        <extensions>
          <gpxtpx:TrackPointExtension xmlns:gpxtpx="http://www.garmin.com/xmlschemas/TrackPointExtension/v1">
            <gpxtpx:hr>110</gpxtpx:hr>
          </gpxtpx:TrackPointExtension>
        </extensions>
      </trkpt>
      <trkpt lat="43.12323" lon="1.27193">
        <ele>332.6</ele>
        <time>2023-03-05T11:41:00Z</time>
        <extensions>
          <gpxtpx:TrackPointExtension xmlns:gpxtpx="http://www.garmin.com/xmlschemas/TrackPointExtension/v1">
            <gpxtpx:hr>109</gpxtpx:hr>
          </gpxtpx:TrackPointExtension>
        </extensions>
      </trkpt>
      <trkpt lat="43.12321" lon="1.27193">
        <ele>333</ele>
        <time>2023-03-05T11:41:01Z</time>
        <extensions>
          <gpxtpx:TrackPointExtension xmlns:gpxtpx="http://www.garmin.com/xmlschemas/TrackPointExtension/v1">
            <gpxtpx:hr>109</gpxtpx:hr>
          </gpxtpx:TrackPointExtension>
        </extensions>
      </trkpt>
      <trkpt lat="43.12319" lon="1.27192">
        <ele>333.4</ele>
        <time>2023-03-05T11:41:02Z</time>
        <extensions>
          <gpxtpx:TrackPointExtension xmlns:gpxtpx="http://www.garmin.com/xmlschemas/TrackPointExtension/v1">
            <gpxtpx:hr>109</gpxtpx:hr>
          </gpxtpx:TrackPointExtension>
        </extensions>
      </trkpt>
      <trkpt lat="43.12317" lon="1.27191">
        <ele>333.8</ele>
        <time>2023-03-05T11:41:03Z</time>
        <extensions>
          <gpxtpx:TrackPointExtension xmlns:gpxtpx="http://www.garmin.com/xmlschemas/TrackPointExtension/v1">
            <gpxtpx:hr>109</gpxtpx:hr>
          </gpxtpx:TrackPointExtension>
        </extensions>
      </trkpt>
      <trkpt lat="43.12315" lon="1.27191">
        <ele>334.2</ele>
        <time>2023-03-05T11:41:04Z</time>
        <extensions>
          <gpxtpx:TrackPointExtension xmlns:gpxtpx="http://www.garmin.com/xmlschemas/TrackPointExtension/v1">
            <gpxtpx:hr>109</gpxtpx:hr>
          </gpxtpx:TrackPointExtension>
        </extensions>
      </trkpt>
      <trkpt lat="43.12312" lon="1.27191">
        <ele>334.6</ele>
        <time>2023-03-05T11:41:05Z</time>
        <extensions>
          <gpxtpx:TrackPointExtension xmlns:gpxtpx="http://www.garmin.com/xmlschemas/TrackPointExtension/v1">
            <gpxtpx:hr>109</gpxtpx:hr>
          </gpxtpx:TrackPointExtension>
        </extensions>
      </trkpt>
      <trkpt lat="43.12308" lon="1.27191">
        <ele>335</ele>
        <time>2023-03-05T11:41:07Z</time>
        <extensions>
          <gpxtpx:TrackPointExtension xmlns:gpxtpx="http://www.garmin.com/xmlschemas/TrackPointExtension/v1">
            <gpxtpx:hr>110</gpxtpx:hr>
          </gpxtpx:TrackPointExtension>
        </extensions>
      </trkpt>
      <trkpt lat="43.12306" lon="1.27191">
        <ele>335.4</ele>
        <time>2023-03-05T11:41:08Z</time>
        <extensions>
          <gpxtpx:TrackPointExtension xmlns:gpxtpx="http://www.garmin.com/xmlschemas/TrackPointExtension/v1">
            <gpxtpx:hr>110</gpxtpx:hr>
          </gpxtpx:TrackPointExtension>
        </extensions>
      </trkpt>
      <trkpt lat="43.12304" lon="1.27191">
        <ele>335.8</ele>
        <time>2023-03-05T11:41:09Z</time>
        <extensions>
          <gpxtpx:TrackPointExtension xmlns:gpxtpx="http://www.garmin.com/xmlschemas/TrackPointExtension/v1">
            <gpxtpx:hr>111</gpxtpx:hr>
          </gpxtpx:TrackPointExtension>
        </extensions>
      </trkpt>
      <trkpt lat="43.12302" lon="1.27191">
        <ele>336.2</ele>
        <time>2023-03-05T11:41:10Z</time>
        <extensions>
          <gpxtpx:TrackPointExtension xmlns:gpxtpx="http://www.garmin.com/xmlschemas/TrackPointExtension/v1">
            <gpxtpx:hr>111</gpxtpx:hr>
          </gpxtpx:TrackPointExtension>
        </extensions>
      </trkpt>
      <trkpt lat="43.123" lon="1.27191">
        <ele>336.6</ele>
        <time>2023-03-05T11:41:11Z</time>
        <extensions>
          <gpxtpx:TrackPointExtension xmlns:gpxtpx="http://www.garmin.com/xmlschemas/TrackPointExtension/v1">
            <gpxtpx:hr>112</gpxtpx:hr>
          </gpxtpx:TrackPointExtension>
        </extensions>
      </trkpt>
      <trkpt lat="43.12298" lon="1.27191">
        <ele>337.2</ele>
        <time>2023-03-05T11:41:12Z</time>
        <extensions>
          <gpxtpx:TrackPointExtension xmlns:gpxtpx="http://www.garmin.com/xmlschemas/TrackPointExtension/v1">
            <gpxtpx:hr>112</gpxtpx:hr>
          </gpxtpx:TrackPointExtension>
        </extensions>
      </trkpt>
      <trkpt lat="43.12296" lon="1.27191">
        <ele>337.6</ele>
        <time>2023-03-05T11:41:13Z</time>
        <extensions>
          <gpxtpx:TrackPointExtension xmlns:gpxtpx="http://www.garmin.com/xmlschemas/TrackPointExtension/v1">
            <gpxtpx:hr>112</gpxtpx:hr>
          </gpxtpx:TrackPointExtension>
        </extensions>
      </trkpt>
      <trkpt lat="43.12294" lon="1.27191">
        <ele>338.2</ele>
        <time>2023-03-05T11:41:14Z</time>
        <extensions>
          <gpxtpx:TrackPointExtension xmlns:gpxtpx="http://www.garmin.com/xmlschemas/TrackPointExtension/v1">
            <gpxtpx:hr>113</gpxtpx:hr>
          </gpxtpx:TrackPointExtension>
        </extensions>
      </trkpt>
      <trkpt lat="43.12292" lon="1.2719">
        <ele>338.6</ele>
        <time>2023-03-05T11:41:15Z</time>
        <extensions>
          <gpxtpx:TrackPointExtension xmlns:gpxtpx="http://www.garmin.com/xmlschemas/TrackPointExtension/v1">
            <gpxtpx:hr>113</gpxtpx:hr>
          </gpxtpx:TrackPointExtension>
        </extensions>
      </trkpt>
      <trkpt lat="43.1229" lon="1.2719">
        <ele>339</ele>
        <time>2023-03-05T11:41:16Z</time>
        <extensions>
          <gpxtpx:TrackPointExtension xmlns:gpxtpx="http://www.garmin.com/xmlschemas/TrackPointExtension/v1">
            <gpxtpx:hr>114</gpxtpx:hr>
          </gpxtpx:TrackPointExtension>
        </extensions>
      </trkpt>
      <trkpt lat="43.12288" lon="1.2719">
        <ele>339.4</ele>
        <time>2023-03-05T11:41:17Z</time>
        <extensions>
          <gpxtpx:TrackPointExtension xmlns:gpxtpx="http://www.garmin.com/xmlschemas/TrackPointExtension/v1">
            <gpxtpx:hr>114</gpxtpx:hr>
          </gpxtpx:TrackPointExtension>
        </extensions>
      </trkpt>
      <trkpt lat="43.12286" lon="1.2719">
        <ele>340</ele>
        <time>2023-03-05T11:41:18Z</time>
        <extensions>
          <gpxtpx:TrackPointExtension xmlns:gpxtpx="http://www.garmin.com/xmlschemas/TrackPointExtension/v1">
            <gpxtpx:hr>115</gpxtpx:hr>
          </gpxtpx:TrackPointExtension>
        </extensions>
      </trkpt>
      <trkpt lat="43.12284" lon="1.2719">
        <ele>340.4</ele>
        <time>2023-03-05T11:41:19Z</time>
        <extensions>
          <gpxtpx:TrackPointExtension xmlns:gpxtpx="http://www.garmin.com/xmlschemas/TrackPointExtension/v1">
            <gpxtpx:hr>115</gpxtpx:hr>
          </gpxtpx:TrackPointExtension>
        </extensions>
      </trkpt>
      <trkpt lat="43.12282" lon="1.27189">
        <ele>340.8</ele>
        <time>2023-03-05T11:41:20Z</time>
        <extensions>
          <gpxtpx:TrackPointExtension xmlns:gpxtpx="http://www.garmin.com/xmlschemas/TrackPointExtension/v1">
            <gpxtpx:hr>116</gpxtpx:hr>
          </gpxtpx:TrackPointExtension>
        </extensions>
      </trkpt>
      <trkpt lat="43.1228" lon="1.27189">
        <ele>341.2</ele>
        <time>2023-03-05T11:41:21Z</time>
        <extensions>
          <gpxtpx:TrackPointExtension xmlns:gpxtpx="http://www.garmin.com/xmlschemas/TrackPointExtension/v1">
            <gpxtpx:hr>116</gpxtpx:hr>
          </gpxtpx:TrackPointExtension>
        </extensions>
      </trkpt>
      <trkpt lat="43.12278" lon="1.27188">
        <ele>341.6</ele>
        <time>2023-03-05T11:41:22Z</time>
        <extensions>
          <gpxtpx:TrackPointExtension xmlns:gpxtpx="http://www.garmin.com/xmlschemas/TrackPointExtension/v1">
            <gpxtpx:hr>116</gpxtpx:hr>
          </gpxtpx:TrackPointExtension>
        </extensions>
      </trkpt>
      <trkpt lat="43.12276" lon="1.27188">
        <ele>342</ele>
        <time>2023-03-05T11:41:23Z</time>
        <extensions>
          <gpxtpx:TrackPointExtension xmlns:gpxtpx="http://www.garmin.com/xmlschemas/TrackPointExtension/v1">
            <gpxtpx:hr>117</gpxtpx:hr>
          </gpxtpx:TrackPointExtension>
        </extensions>
      </trkpt>
      <trkpt lat="43.12274" lon="1.27188">
        <ele>342.4</ele>
        <time>2023-03-05T11:41:24Z</time>
        <extensions>
          <gpxtpx:TrackPointExtension xmlns:gpxtpx="http://www.garmin.com/xmlschemas/TrackPointExtension/v1">
            <gpxtpx:hr>117</gpxtpx:hr>
          </gpxtpx:TrackPointExtension>
        </extensions>
      </trkpt>
      <trkpt lat="43.12273" lon="1.27188">
        <ele>343</ele>
        <time>2023-03-05T11:41:25Z</time>
        <extensions>
          <gpxtpx:TrackPointExtension xmlns:gpxtpx="http://www.garmin.com/xmlschemas/TrackPointExtension/v1">
            <gpxtpx:hr>117</gpxtpx:hr>
          </gpxtpx:TrackPointExtension>
        </extensions>
      </trkpt>
      <trkpt lat="43.1227" lon="1.27187">
        <ele>343.4</ele>
        <time>2023-03-05T11:41:26Z</time>
        <extensions>
          <gpxtpx:TrackPointExtension xmlns:gpxtpx="http://www.garmin.com/xmlschemas/TrackPointExtension/v1">
            <gpxtpx:hr>117</gpxtpx:hr>
          </gpxtpx:TrackPointExtension>
        </extensions>
      </trkpt>
      <trkpt lat="43.12266" lon="1.27186">
        <ele>343.8</ele>
        <time>2023-03-05T11:41:28Z</time>
        <extensions>
          <gpxtpx:TrackPointExtension xmlns:gpxtpx="http://www.garmin.com/xmlschemas/TrackPointExtension/v1">
            <gpxtpx:hr>118</gpxtpx:hr>
          </gpxtpx:TrackPointExtension>
        </extensions>
      </trkpt>
      <trkpt lat="43.12264" lon="1.27186">
        <ele>344.4</ele>
        <time>2023-03-05T11:41:29Z</time>
        <extensions>
          <gpxtpx:TrackPointExtension xmlns:gpxtpx="http://www.garmin.com/xmlschemas/TrackPointExtension/v1">
            <gpxtpx:hr>118</gpxtpx:hr>
          </gpxtpx:TrackPointExtension>
        </extensions>
      </trkpt>
      <trkpt lat="43.12262" lon="1.27186">
        <ele>344.8</ele>
        <time>2023-03-05T11:41:30Z</time>
        <extensions>
          <gpxtpx:TrackPointExtension xmlns:gpxtpx="http://www.garmin.com/xmlschemas/TrackPointExtension/v1">
            <gpxtpx:hr>118</gpxtpx:hr>
          </gpxtpx:TrackPointExtension>
        </extensions>
      </trkpt>
      <trkpt lat="43.1226" lon="1.27185">
        <ele>345.4</ele>
        <time>2023-03-05T11:41:31Z</time>
        <extensions>
          <gpxtpx:TrackPointExtension xmlns:gpxtpx="http://www.garmin.com/xmlschemas/TrackPointExtension/v1">
            <gpxtpx:hr>118</gpxtpx:hr>
          </gpxtpx:TrackPointExtension>
        </extensions>
      </trkpt>
      <trkpt lat="43.12258" lon="1.27184">
        <ele>345.8</ele>
        <time>2023-03-05T11:41:32Z</time>
        <extensions>
          <gpxtpx:TrackPointExtension xmlns:gpxtpx="http://www.garmin.com/xmlschemas/TrackPointExtension/v1">
            <gpxtpx:hr>119</gpxtpx:hr>
          </gpxtpx:TrackPointExtension>
        </extensions>
      </trkpt>
      <trkpt lat="43.12257" lon="1.27183">
        <ele>346.2</ele>
        <time>2023-03-05T11:41:33Z</time>
        <extensions>
          <gpxtpx:TrackPointExtension xmlns:gpxtpx="http://www.garmin.com/xmlschemas/TrackPointExtension/v1">
            <gpxtpx:hr>119</gpxtpx:hr>
          </gpxtpx:TrackPointExtension>
        </extensions>
      </trkpt>
      <trkpt lat="43.12255" lon="1.27182">
        <ele>346.8</ele>
        <time>2023-03-05T11:41:34Z</time>
        <extensions>
          <gpxtpx:TrackPointExtension xmlns:gpxtpx="http://www.garmin.com/xmlschemas/TrackPointExtension/v1">
            <gpxtpx:hr>120</gpxtpx:hr>
          </gpxtpx:TrackPointExtension>
        </extensions>
      </trkpt>
      <trkpt lat="43.12253" lon="1.27181">
        <ele>347.2</ele>
        <time>2023-03-05T11:41:35Z</time>
        <extensions>
          <gpxtpx:TrackPointExtension xmlns:gpxtpx="http://www.garmin.com/xmlschemas/TrackPointExtension/v1">
            <gpxtpx:hr>120</gpxtpx:hr>
          </gpxtpx:TrackPointExtension>
        </extensions>
      </trkpt>
      <trkpt lat="43.12252" lon="1.27181">
        <ele>347.6</ele>
        <time>2023-03-05T11:41:36Z</time>
        <extensions>
          <gpxtpx:TrackPointExtension xmlns:gpxtpx="http://www.garmin.com/xmlschemas/TrackPointExtension/v1">
            <gpxtpx:hr>120</gpxtpx:hr>
          </gpxtpx:TrackPointExtension>
        </extensions>
      </trkpt>
      <trkpt lat="43.1225" lon="1.2718">
        <ele>348</ele>
        <time>2023-03-05T11:41:37Z</time>
        <extensions>
          <gpxtpx:TrackPointExtension xmlns:gpxtpx="http://www.garmin.com/xmlschemas/TrackPointExtension/v1">
            <gpxtpx:hr>121</gpxtpx:hr>
          </gpxtpx:TrackPointExtension>
        </extensions>
      </trkpt>
      <trkpt lat="43.12248" lon="1.27179">
        <ele>348.4</ele>
        <time>2023-03-05T11:41:38Z</time>
        <extensions>
          <gpxtpx:TrackPointExtension xmlns:gpxtpx="http://www.garmin.com/xmlschemas/TrackPointExtension/v1">
            <gpxtpx:hr>121</gpxtpx:hr>
          </gpxtpx:TrackPointExtension>
        </extensions>
      </trkpt>
      <trkpt lat="43.12246" lon="1.27178">
        <ele>349</ele>
        <time>2023-03-05T11:41:39Z</time>
        <extensions>
          <gpxtpx:TrackPointExtension xmlns:gpxtpx="http://www.garmin.com/xmlschemas/TrackPointExtension/v1">
            <gpxtpx:hr>121</gpxtpx:hr>
          </gpxtpx:TrackPointExtension>
        </extensions>
      </trkpt>
      <trkpt lat="43.12245" lon="1.27178">
        <ele>349.4</ele>
        <time>2023-03-05T11:41:40Z</time>
        <extensions>
          <gpxtpx:TrackPointExtension xmlns:gpxtpx="http://www.garmin.com/xmlschemas/TrackPointExtension/v1">
            <gpxtpx:hr>122</gpxtpx:hr>
          </gpxtpx:TrackPointExtension>
        </extensions>
      </trkpt>
      <trkpt lat="43.12242" lon="1.27178">
        <ele>349.8</ele>
        <time>2023-03-05T11:41:41Z</time>
        <extensions>
          <gpxtpx:TrackPointExtension xmlns:gpxtpx="http://www.garmin.com/xmlschemas/TrackPointExtension/v1">
            <gpxtpx:hr>123</gpxtpx:hr>
          </gpxtpx:TrackPointExtension>
        </extensions>
      </trkpt>
      <trkpt lat="43.12241" lon="1.27177">
        <ele>350.2</ele>
        <time>2023-03-05T11:41:42Z</time>
        <extensions>
          <gpxtpx:TrackPointExtension xmlns:gpxtpx="http://www.garmin.com/xmlschemas/TrackPointExtension/v1">
            <gpxtpx:hr>123</gpxtpx:hr>
          </gpxtpx:TrackPointExtension>
        </extensions>
      </trkpt>
      <trkpt lat="43.12239" lon="1.27176">
        <ele>350.6</ele>
        <time>2023-03-05T11:41:43Z</time>
        <extensions>
          <gpxtpx:TrackPointExtension xmlns:gpxtpx="http://www.garmin.com/xmlschemas/TrackPointExtension/v1">
            <gpxtpx:hr>124</gpxtpx:hr>
          </gpxtpx:TrackPointExtension>
        </extensions>
      </trkpt>
      <trkpt lat="43.12238" lon="1.27175">
        <ele>351</ele>
        <time>2023-03-05T11:41:44Z</time>
        <extensions>
          <gpxtpx:TrackPointExtension xmlns:gpxtpx="http://www.garmin.com/xmlschemas/TrackPointExtension/v1">
            <gpxtpx:hr>124</gpxtpx:hr>
          </gpxtpx:TrackPointExtension>
        </extensions>
      </trkpt>
      <trkpt lat="43.12236" lon="1.27174">
        <ele>351.4</ele>
        <time>2023-03-05T11:41:45Z</time>
        <extensions>
          <gpxtpx:TrackPointExtension xmlns:gpxtpx="http://www.garmin.com/xmlschemas/TrackPointExtension/v1">
            <gpxtpx:hr>125</gpxtpx:hr>
          </gpxtpx:TrackPointExtension>
        </extensions>
      </trkpt>
      <trkpt lat="43.12234" lon="1.27173">
        <ele>351.8</ele>
        <time>2023-03-05T11:41:46Z</time>
        <extensions>
          <gpxtpx:TrackPointExtension xmlns:gpxtpx="http://www.garmin.com/xmlschemas/TrackPointExtension/v1">
            <gpxtpx:hr>126</gpxtpx:hr>
          </gpxtpx:TrackPointExtension>
        </extensions>
      </trkpt>
      <trkpt lat="43.12233" lon="1.27173">
        <ele>352.4</ele>
        <time>2023-03-05T11:41:47Z</time>
        <extensions>
          <gpxtpx:TrackPointExtension xmlns:gpxtpx="http://www.garmin.com/xmlschemas/TrackPointExtension/v1">
            <gpxtpx:hr>126</gpxtpx:hr>
          </gpxtpx:TrackPointExtension>
        </extensions>
      </trkpt>
      <trkpt lat="43.1223" lon="1.27171">
        <ele>352.8</ele>
        <time>2023-03-05T11:41:49Z</time>
        <extensions>
          <gpxtpx:TrackPointExtension xmlns:gpxtpx="http://www.garmin.com/xmlschemas/TrackPointExtension/v1">
            <gpxtpx:hr>127</gpxtpx:hr>
          </gpxtpx:TrackPointExtension>
        </extensions>
      </trkpt>
      <trkpt lat="43.12228" lon="1.2717">
        <ele>353.2</ele>
        <time>2023-03-05T11:41:50Z</time>
        <extensions>
          <gpxtpx:TrackPointExtension xmlns:gpxtpx="http://www.garmin.com/xmlschemas/TrackPointExtension/v1">
            <gpxtpx:hr>127</gpxtpx:hr>
          </gpxtpx:TrackPointExtension>
        </extensions>
      </trkpt>
      <trkpt lat="43.12227" lon="1.2717">
        <ele>353.6</ele>
        <time>2023-03-05T11:41:51Z</time>
        <extensions>
          <gpxtpx:TrackPointExtension xmlns:gpxtpx="http://www.garmin.com/xmlschemas/TrackPointExtension/v1">
            <gpxtpx:hr>127</gpxtpx:hr>
          </gpxtpx:TrackPointExtension>
        </extensions>
      </trkpt>
      <trkpt lat="43.12225" lon="1.27169">
        <ele>354.2</ele>
        <time>2023-03-05T11:41:52Z</time>
        <extensions>
          <gpxtpx:TrackPointExtension xmlns:gpxtpx="http://www.garmin.com/xmlschemas/TrackPointExtension/v1">
            <gpxtpx:hr>127</gpxtpx:hr>
          </gpxtpx:TrackPointExtension>
        </extensions>
      </trkpt>
      <trkpt lat="43.12224" lon="1.27168">
        <ele>354.6</ele>
        <time>2023-03-05T11:41:53Z</time>
        <extensions>
          <gpxtpx:TrackPointExtension xmlns:gpxtpx="http://www.garmin.com/xmlschemas/TrackPointExtension/v1">
            <gpxtpx:hr>127</gpxtpx:hr>
          </gpxtpx:TrackPointExtension>
        </extensions>
      </trkpt>
      <trkpt lat="43.12221" lon="1.27166">
        <ele>355</ele>
        <time>2023-03-05T11:41:55Z</time>
        <extensions>
          <gpxtpx:TrackPointExtension xmlns:gpxtpx="http://www.garmin.com/xmlschemas/TrackPointExtension/v1">
            <gpxtpx:hr>128</gpxtpx:hr>
          </gpxtpx:TrackPointExtension>
        </extensions>
      </trkpt>
      <trkpt lat="43.12219" lon="1.27165">
        <ele>355.4</ele>
        <time>2023-03-05T11:41:56Z</time>
        <extensions>
          <gpxtpx:TrackPointExtension xmlns:gpxtpx="http://www.garmin.com/xmlschemas/TrackPointExtension/v1">
            <gpxtpx:hr>128</gpxtpx:hr>
          </gpxtpx:TrackPointExtension>
        </extensions>
      </trkpt>
      <trkpt lat="43.12218" lon="1.27165">
        <ele>356.2</ele>
        <time>2023-03-05T11:41:57Z</time>
        <extensions>
          <gpxtpx:TrackPointExtension xmlns:gpxtpx="http://www.garmin.com/xmlschemas/TrackPointExtension/v1">
            <gpxtpx:hr>129</gpxtpx:hr>
          </gpxtpx:TrackPointExtension>
        </extensions>
      </trkpt>
      <trkpt lat="43.12216" lon="1.27165">
        <ele>356.6</ele>
        <time>2023-03-05T11:41:58Z</time>
        <extensions>
          <gpxtpx:TrackPointExtension xmlns:gpxtpx="http://www.garmin.com/xmlschemas/TrackPointExtension/v1">
            <gpxtpx:hr>129</gpxtpx:hr>
          </gpxtpx:TrackPointExtension>
        </extensions>
      </trkpt>
      <trkpt lat="43.12213" lon="1.27163">
        <ele>357.2</ele>
        <time>2023-03-05T11:42:00Z</time>
        <extensions>
          <gpxtpx:TrackPointExtension xmlns:gpxtpx="http://www.garmin.com/xmlschemas/TrackPointExtension/v1">
            <gpxtpx:hr>129</gpxtpx:hr>
          </gpxtpx:TrackPointExtension>
        </extensions>
      </trkpt>
      <trkpt lat="43.12211" lon="1.27163">
        <ele>357.6</ele>
        <time>2023-03-05T11:42:01Z</time>
        <extensions>
          <gpxtpx:TrackPointExtension xmlns:gpxtpx="http://www.garmin.com/xmlschemas/TrackPointExtension/v1">
            <gpxtpx:hr>130</gpxtpx:hr>
          </gpxtpx:TrackPointExtension>
        </extensions>
      </trkpt>
      <trkpt lat="43.1221" lon="1.27162">
        <ele>358</ele>
        <time>2023-03-05T11:42:02Z</time>
        <extensions>
          <gpxtpx:TrackPointExtension xmlns:gpxtpx="http://www.garmin.com/xmlschemas/TrackPointExtension/v1">
            <gpxtpx:hr>130</gpxtpx:hr>
          </gpxtpx:TrackPointExtension>
        </extensions>
      </trkpt>
      <trkpt lat="43.12208" lon="1.27162">
        <ele>358.4</ele>
        <time>2023-03-05T11:42:03Z</time>
        <extensions>
          <gpxtpx:TrackPointExtension xmlns:gpxtpx="http://www.garmin.com/xmlschemas/TrackPointExtension/v1">
            <gpxtpx:hr>129</gpxtpx:hr>
          </gpxtpx:TrackPointExtension>
        </extensions>
      </trkpt>
      <trkpt lat="43.12207" lon="1.27162">
        <ele>358.8</ele>
        <time>2023-03-05T11:42:04Z</time>
        <extensions>
          <gpxtpx:TrackPointExtension xmlns:gpxtpx="http://www.garmin.com/xmlschemas/TrackPointExtension/v1">
            <gpxtpx:hr>129</gpxtpx:hr>
          </gpxtpx:TrackPointExtension>
        </extensions>
      </trkpt>
      <trkpt lat="43.12205" lon="1.27162">
        <ele>358.8</ele>
        <time>2023-03-05T11:42:05Z</time>
        <extensions>
          <gpxtpx:TrackPointExtension xmlns:gpxtpx="http://www.garmin.com/xmlschemas/TrackPointExtension/v1">
            <gpxtpx:hr>130</gpxtpx:hr>
          </gpxtpx:TrackPointExtension>
        </extensions>
      </trkpt>
      <trkpt lat="43.12201" lon="1.27161">
        <ele>359.2</ele>
        <time>2023-03-05T11:42:07Z</time>
        <extensions>
          <gpxtpx:TrackPointExtension xmlns:gpxtpx="http://www.garmin.com/xmlschemas/TrackPointExtension/v1">
            <gpxtpx:hr>129</gpxtpx:hr>
          </gpxtpx:TrackPointExtension>
        </extensions>
      </trkpt>
      <trkpt lat="43.12199" lon="1.27161">
        <ele>359.6</ele>
        <time>2023-03-05T11:42:08Z</time>
        <extensions>
          <gpxtpx:TrackPointExtension xmlns:gpxtpx="http://www.garmin.com/xmlschemas/TrackPointExtension/v1">
            <gpxtpx:hr>130</gpxtpx:hr>
          </gpxtpx:TrackPointExtension>
        </extensions>
      </trkpt>
      <trkpt lat="43.12197" lon="1.2716">
        <ele>360</ele>
        <time>2023-03-05T11:42:09Z</time>
        <extensions>
          <gpxtpx:TrackPointExtension xmlns:gpxtpx="http://www.garmin.com/xmlschemas/TrackPointExtension/v1">
            <gpxtpx:hr>129</gpxtpx:hr>
          </gpxtpx:TrackPointExtension>
        </extensions>
      </trkpt>
      <trkpt lat="43.12195" lon="1.2716">
        <ele>360.4</ele>
        <time>2023-03-05T11:42:10Z</time>
        <extensions>
          <gpxtpx:TrackPointExtension xmlns:gpxtpx="http://www.garmin.com/xmlschemas/TrackPointExtension/v1">
            <gpxtpx:hr>129</gpxtpx:hr>
          </gpxtpx:TrackPointExtension>
        </extensions>
      </trkpt>
      <trkpt lat="43.12194" lon="1.2716">
        <ele>361</ele>
        <time>2023-03-05T11:42:11Z</time>
        <extensions>
          <gpxtpx:TrackPointExtension xmlns:gpxtpx="http://www.garmin.com/xmlschemas/TrackPointExtension/v1">
            <gpxtpx:hr>130</gpxtpx:hr>
          </gpxtpx:TrackPointExtension>
        </extensions>
      </trkpt>
      <trkpt lat="43.12192" lon="1.2716">
        <ele>361</ele>
        <time>2023-03-05T11:42:12Z</time>
        <extensions>
          <gpxtpx:TrackPointExtension xmlns:gpxtpx="http://www.garmin.com/xmlschemas/TrackPointExtension/v1">
            <gpxtpx:hr>130</gpxtpx:hr>
          </gpxtpx:TrackPointExtension>
        </extensions>
      </trkpt>
      <trkpt lat="43.12187" lon="1.27159">
        <ele>361.4</ele>
        <time>2023-03-05T11:42:15Z</time>
        <extensions>
          <gpxtpx:TrackPointExtension xmlns:gpxtpx="http://www.garmin.com/xmlschemas/TrackPointExtension/v1">
            <gpxtpx:hr>131</gpxtpx:hr>
          </gpxtpx:TrackPointExtension>
        </extensions>
      </trkpt>
      <trkpt lat="43.12185" lon="1.27159">
        <ele>361.8</ele>
        <time>2023-03-05T11:42:16Z</time>
        <extensions>
          <gpxtpx:TrackPointExtension xmlns:gpxtpx="http://www.garmin.com/xmlschemas/TrackPointExtension/v1">
            <gpxtpx:hr>131</gpxtpx:hr>
          </gpxtpx:TrackPointExtension>
        </extensions>
      </trkpt>
      <trkpt lat="43.12183" lon="1.27159">
        <ele>362.2</ele>
        <time>2023-03-05T11:42:17Z</time>
        <extensions>
          <gpxtpx:TrackPointExtension xmlns:gpxtpx="http://www.garmin.com/xmlschemas/TrackPointExtension/v1">
            <gpxtpx:hr>131</gpxtpx:hr>
          </gpxtpx:TrackPointExtension>
        </extensions>
      </trkpt>
      <trkpt lat="43.12182" lon="1.27159">
        <ele>362.8</ele>
        <time>2023-03-05T11:42:18Z</time>
        <extensions>
          <gpxtpx:TrackPointExtension xmlns:gpxtpx="http://www.garmin.com/xmlschemas/TrackPointExtension/v1">
            <gpxtpx:hr>131</gpxtpx:hr>
          </gpxtpx:TrackPointExtension>
        </extensions>
      </trkpt>
      <trkpt lat="43.12181" lon="1.27159">
        <ele>363.2</ele>
        <time>2023-03-05T11:42:19Z</time>
        <extensions>
          <gpxtpx:TrackPointExtension xmlns:gpxtpx="http://www.garmin.com/xmlschemas/TrackPointExtension/v1">
            <gpxtpx:hr>131</gpxtpx:hr>
          </gpxtpx:TrackPointExtension>
        </extensions>
      </trkpt>
      <trkpt lat="43.12178" lon="1.27159">
        <ele>364.2</ele>
        <time>2023-03-05T11:42:21Z</time>
        <extensions>
          <gpxtpx:TrackPointExtension xmlns:gpxtpx="http://www.garmin.com/xmlschemas/TrackPointExtension/v1">
            <gpxtpx:hr>131</gpxtpx:hr>
          </gpxtpx:TrackPointExtension>
        </extensions>
      </trkpt>
      <trkpt lat="43.12178" lon="1.27159">
        <ele>364.6</ele>
        <time>2023-03-05T11:42:22Z</time>
        <extensions>
          <gpxtpx:TrackPointExtension xmlns:gpxtpx="http://www.garmin.com/xmlschemas/TrackPointExtension/v1">
            <gpxtpx:hr>131</gpxtpx:hr>
          </gpxtpx:TrackPointExtension>
        </extensions>
      </trkpt>
      <trkpt lat="43.12176" lon="1.27161">
        <ele>365.6</ele>
        <time>2023-03-05T11:45:39Z</time>
        <extensions>
          <gpxtpx:TrackPointExtension xmlns:gpxtpx="http://www.garmin.com/xmlschemas/TrackPointExtension/v1">
            <gpxtpx:hr>99</gpxtpx:hr>
          </gpxtpx:TrackPointExtension>
        </extensions>
      </trkpt>
      <trkpt lat="43.12174" lon="1.27162">
        <ele>365.6</ele>
        <time>2023-03-05T11:45:40Z</time>
        <extensions>
          <gpxtpx:TrackPointExtension xmlns:gpxtpx="http://www.garmin.com/xmlschemas/TrackPointExtension/v1">
            <gpxtpx:hr>99</gpxtpx:hr>
          </gpxtpx:TrackPointExtension>
        </extensions>
      </trkpt>
      <trkpt lat="43.12171" lon="1.27163">
        <ele>366</ele>
        <time>2023-03-05T11:45:42Z</time>
        <extensions>
          <gpxtpx:TrackPointExtension xmlns:gpxtpx="http://www.garmin.com/xmlschemas/TrackPointExtension/v1">
            <gpxtpx:hr>101</gpxtpx:hr>
          </gpxtpx:TrackPointExtension>
        </extensions>
      </trkpt>
      <trkpt lat="43.12169" lon="1.27164">
        <ele>366.4</ele>
        <time>2023-03-05T11:45:43Z</time>
        <extensions>
          <gpxtpx:TrackPointExtension xmlns:gpxtpx="http://www.garmin.com/xmlschemas/TrackPointExtension/v1">
            <gpxtpx:hr>102</gpxtpx:hr>
          </gpxtpx:TrackPointExtension>
        </extensions>
      </trkpt>
      <trkpt lat="43.12167" lon="1.27165">
        <ele>366.8</ele>
        <time>2023-03-05T11:45:44Z</time>
        <extensions>
          <gpxtpx:TrackPointExtension xmlns:gpxtpx="http://www.garmin.com/xmlschemas/TrackPointExtension/v1">
            <gpxtpx:hr>103</gpxtpx:hr>
          </gpxtpx:TrackPointExtension>
        </extensions>
      </trkpt>
      <trkpt lat="43.12166" lon="1.27165">
        <ele>367.4</ele>
        <time>2023-03-05T11:45:45Z</time>
        <extensions>
          <gpxtpx:TrackPointExtension xmlns:gpxtpx="http://www.garmin.com/xmlschemas/TrackPointExtension/v1">
            <gpxtpx:hr>104</gpxtpx:hr>
          </gpxtpx:TrackPointExtension>
        </extensions>
      </trkpt>
      <trkpt lat="43.12165" lon="1.27165">
        <ele>367.8</ele>
        <time>2023-03-05T11:45:46Z</time>
        <extensions>
          <gpxtpx:TrackPointExtension xmlns:gpxtpx="http://www.garmin.com/xmlschemas/TrackPointExtension/v1">
            <gpxtpx:hr>104</gpxtpx:hr>
          </gpxtpx:TrackPointExtension>
        </extensions>
      </trkpt>
      <trkpt lat="43.12163" lon="1.27165">
        <ele>368.2</ele>
        <time>2023-03-05T11:45:48Z</time>
        <extensions>
          <gpxtpx:TrackPointExtension xmlns:gpxtpx="http://www.garmin.com/xmlschemas/TrackPointExtension/v1">
            <gpxtpx:hr>105</gpxtpx:hr>
          </gpxtpx:TrackPointExtension>
        </extensions>
      </trkpt>
      <trkpt lat="43.12158" lon="1.27169">
        <ele>370</ele>
        <time>2023-03-05T11:46:49Z</time>
        <extensions>
          <gpxtpx:TrackPointExtension xmlns:gpxtpx="http://www.garmin.com/xmlschemas/TrackPointExtension/v1">
            <gpxtpx:hr>97</gpxtpx:hr>
          </gpxtpx:TrackPointExtension>
        </extensions>
      </trkpt>
      <trkpt lat="43.12156" lon="1.2717">
        <ele>370</ele>
        <time>2023-03-05T11:46:50Z</time>
        <extensions>
          <gpxtpx:TrackPointExtension xmlns:gpxtpx="http://www.garmin.com/xmlschemas/TrackPointExtension/v1">
            <gpxtpx:hr>98</gpxtpx:hr>
          </gpxtpx:TrackPointExtension>
        </extensions>
      </trkpt>
      <trkpt lat="43.12155" lon="1.27171">
        <ele>370.4</ele>
        <time>2023-03-05T11:46:51Z</time>
        <extensions>
          <gpxtpx:TrackPointExtension xmlns:gpxtpx="http://www.garmin.com/xmlschemas/TrackPointExtension/v1">
            <gpxtpx:hr>98</gpxtpx:hr>
          </gpxtpx:TrackPointExtension>
        </extensions>
      </trkpt>
      <trkpt lat="43.12153" lon="1.27173">
        <ele>371</ele>
        <time>2023-03-05T11:46:52Z</time>
        <extensions>
          <gpxtpx:TrackPointExtension xmlns:gpxtpx="http://www.garmin.com/xmlschemas/TrackPointExtension/v1">
            <gpxtpx:hr>99</gpxtpx:hr>
          </gpxtpx:TrackPointExtension>
        </extensions>
      </trkpt>
      <trkpt lat="43.12151" lon="1.27174">
        <ele>371.4</ele>
        <time>2023-03-05T11:46:53Z</time>
        <extensions>
          <gpxtpx:TrackPointExtension xmlns:gpxtpx="http://www.garmin.com/xmlschemas/TrackPointExtension/v1">
            <gpxtpx:hr>99</gpxtpx:hr>
          </gpxtpx:TrackPointExtension>
        </extensions>
      </trkpt>
      <trkpt lat="43.1215" lon="1.27175">
        <ele>372.4</ele>
        <time>2023-03-05T11:46:54Z</time>
        <extensions>
          <gpxtpx:TrackPointExtension xmlns:gpxtpx="http://www.garmin.com/xmlschemas/TrackPointExtension/v1">
            <gpxtpx:hr>100</gpxtpx:hr>
          </gpxtpx:TrackPointExtension>
        </extensions>
      </trkpt>
      <trkpt lat="43.12149" lon="1.27176">
        <ele>372.8</ele>
        <time>2023-03-05T11:46:55Z</time>
        <extensions>
          <gpxtpx:TrackPointExtension xmlns:gpxtpx="http://www.garmin.com/xmlschemas/TrackPointExtension/v1">
            <gpxtpx:hr>100</gpxtpx:hr>
          </gpxtpx:TrackPointExtension>
        </extensions>
      </trkpt>
      <trkpt lat="43.12148" lon="1.27177">
        <ele>373.4</ele>
        <time>2023-03-05T11:46:56Z</time>
        <extensions>
          <gpxtpx:TrackPointExtension xmlns:gpxtpx="http://www.garmin.com/xmlschemas/TrackPointExtension/v1">
            <gpxtpx:hr>101</gpxtpx:hr>
          </gpxtpx:TrackPointExtension>
        </extensions>
      </trkpt>
      <trkpt lat="43.12146" lon="1.27178">
        <ele>374</ele>
        <time>2023-03-05T11:46:57Z</time>
        <extensions>
          <gpxtpx:TrackPointExtension xmlns:gpxtpx="http://www.garmin.com/xmlschemas/TrackPointExtension/v1">
            <gpxtpx:hr>101</gpxtpx:hr>
          </gpxtpx:TrackPointExtension>
        </extensions>
      </trkpt>
      <trkpt lat="43.12145" lon="1.2718">
        <ele>374.4</ele>
        <time>2023-03-05T11:46:58Z</time>
        <extensions>
          <gpxtpx:TrackPointExtension xmlns:gpxtpx="http://www.garmin.com/xmlschemas/TrackPointExtension/v1">
            <gpxtpx:hr>101</gpxtpx:hr>
          </gpxtpx:TrackPointExtension>
        </extensions>
      </trkpt>
      <trkpt lat="43.12144" lon="1.27182">
        <ele>374.8</ele>
        <time>2023-03-05T11:46:59Z</time>
        <extensions>
          <gpxtpx:TrackPointExtension xmlns:gpxtpx="http://www.garmin.com/xmlschemas/TrackPointExtension/v1">
            <gpxtpx:hr>102</gpxtpx:hr>
          </gpxtpx:TrackPointExtension>
        </extensions>
      </trkpt>
      <trkpt lat="43.12143" lon="1.27185">
        <ele>375.4</ele>
        <time>2023-03-05T11:47:00Z</time>
        <extensions>
          <gpxtpx:TrackPointExtension xmlns:gpxtpx="http://www.garmin.com/xmlschemas/TrackPointExtension/v1">
            <gpxtpx:hr>103</gpxtpx:hr>
          </gpxtpx:TrackPointExtension>
        </extensions>
      </trkpt>
      <trkpt lat="43.12142" lon="1.27187">
        <ele>375.8</ele>
        <time>2023-03-05T11:47:01Z</time>
        <extensions>
          <gpxtpx:TrackPointExtension xmlns:gpxtpx="http://www.garmin.com/xmlschemas/TrackPointExtension/v1">
            <gpxtpx:hr>104</gpxtpx:hr>
          </gpxtpx:TrackPointExtension>
        </extensions>
      </trkpt>
      <trkpt lat="43.12141" lon="1.27189">
        <ele>376.2</ele>
        <time>2023-03-05T11:47:02Z</time>
        <extensions>
          <gpxtpx:TrackPointExtension xmlns:gpxtpx="http://www.garmin.com/xmlschemas/TrackPointExtension/v1">
            <gpxtpx:hr>105</gpxtpx:hr>
          </gpxtpx:TrackPointExtension>
        </extensions>
      </trkpt>
      <trkpt lat="43.12139" lon="1.27191">
        <ele>376.8</ele>
        <time>2023-03-05T11:47:03Z</time>
        <extensions>
          <gpxtpx:TrackPointExtension xmlns:gpxtpx="http://www.garmin.com/xmlschemas/TrackPointExtension/v1">
            <gpxtpx:hr>105</gpxtpx:hr>
          </gpxtpx:TrackPointExtension>
        </extensions>
      </trkpt>
      <trkpt lat="43.12138" lon="1.27193">
        <ele>377.2</ele>
        <time>2023-03-05T11:47:04Z</time>
        <extensions>
          <gpxtpx:TrackPointExtension xmlns:gpxtpx="http://www.garmin.com/xmlschemas/TrackPointExtension/v1">
            <gpxtpx:hr>106</gpxtpx:hr>
          </gpxtpx:TrackPointExtension>
        </extensions>
      </trkpt>
      <trkpt lat="43.12137" lon="1.27195">
        <ele>377.6</ele>
        <time>2023-03-05T11:47:05Z</time>
        <extensions>
          <gpxtpx:TrackPointExtension xmlns:gpxtpx="http://www.garmin.com/xmlschemas/TrackPointExtension/v1">
            <gpxtpx:hr>107</gpxtpx:hr>
          </gpxtpx:TrackPointExtension>
        </extensions>
      </trkpt>
      <trkpt lat="43.12135" lon="1.27197">
        <ele>378</ele>
        <time>2023-03-05T11:47:06Z</time>
        <extensions>
          <gpxtpx:TrackPointExtension xmlns:gpxtpx="http://www.garmin.com/xmlschemas/TrackPointExtension/v1">
            <gpxtpx:hr>107</gpxtpx:hr>
          </gpxtpx:TrackPointExtension>
        </extensions>
      </trkpt>
      <trkpt lat="43.12134" lon="1.27199">
        <ele>378.4</ele>
        <time>2023-03-05T11:47:07Z</time>
        <extensions>
          <gpxtpx:TrackPointExtension xmlns:gpxtpx="http://www.garmin.com/xmlschemas/TrackPointExtension/v1">
            <gpxtpx:hr>108</gpxtpx:hr>
          </gpxtpx:TrackPointExtension>
        </extensions>
      </trkpt>
      <trkpt lat="43.12132" lon="1.27201">
        <ele>379</ele>
        <time>2023-03-05T11:47:08Z</time>
        <extensions>
          <gpxtpx:TrackPointExtension xmlns:gpxtpx="http://www.garmin.com/xmlschemas/TrackPointExtension/v1">
            <gpxtpx:hr>109</gpxtpx:hr>
          </gpxtpx:TrackPointExtension>
        </extensions>
      </trkpt>
      <trkpt lat="43.12131" lon="1.27203">
        <ele>379.4</ele>
        <time>2023-03-05T11:47:09Z</time>
        <extensions>
          <gpxtpx:TrackPointExtension xmlns:gpxtpx="http://www.garmin.com/xmlschemas/TrackPointExtension/v1">
            <gpxtpx:hr>110</gpxtpx:hr>
          </gpxtpx:TrackPointExtension>
        </extensions>
      </trkpt>
      <trkpt lat="43.12129" lon="1.27205">
        <ele>379.8</ele>
        <time>2023-03-05T11:47:10Z</time>
        <extensions>
          <gpxtpx:TrackPointExtension xmlns:gpxtpx="http://www.garmin.com/xmlschemas/TrackPointExtension/v1">
            <gpxtpx:hr>112</gpxtpx:hr>
          </gpxtpx:TrackPointExtension>
        </extensions>
      </trkpt>
      <trkpt lat="43.12128" lon="1.27207">
        <ele>380.4</ele>
        <time>2023-03-05T11:47:11Z</time>
        <extensions>
          <gpxtpx:TrackPointExtension xmlns:gpxtpx="http://www.garmin.com/xmlschemas/TrackPointExtension/v1">
            <gpxtpx:hr>112</gpxtpx:hr>
          </gpxtpx:TrackPointExtension>
        </extensions>
      </trkpt>
      <trkpt lat="43.12126" lon="1.27209">
        <ele>380.8</ele>
        <time>2023-03-05T11:47:12Z</time>
        <extensions>
          <gpxtpx:TrackPointExtension xmlns:gpxtpx="http://www.garmin.com/xmlschemas/TrackPointExtension/v1">
            <gpxtpx:hr>113</gpxtpx:hr>
          </gpxtpx:TrackPointExtension>
        </extensions>
      </trkpt>
      <trkpt lat="43.12125" lon="1.2721">
        <ele>381.2</ele>
        <time>2023-03-05T11:47:13Z</time>
        <extensions>
          <gpxtpx:TrackPointExtension xmlns:gpxtpx="http://www.garmin.com/xmlschemas/TrackPointExtension/v1">
            <gpxtpx:hr>114</gpxtpx:hr>
          </gpxtpx:TrackPointExtension>
        </extensions>
      </trkpt>
      <trkpt lat="43.12124" lon="1.27212">
        <ele>381.8</ele>
        <time>2023-03-05T11:47:14Z</time>
        <extensions>
          <gpxtpx:TrackPointExtension xmlns:gpxtpx="http://www.garmin.com/xmlschemas/TrackPointExtension/v1">
            <gpxtpx:hr>115</gpxtpx:hr>
          </gpxtpx:TrackPointExtension>
        </extensions>
      </trkpt>
      <trkpt lat="43.12123" lon="1.27215">
        <ele>382.2</ele>
        <time>2023-03-05T11:47:15Z</time>
        <extensions>
          <gpxtpx:TrackPointExtension xmlns:gpxtpx="http://www.garmin.com/xmlschemas/TrackPointExtension/v1">
            <gpxtpx:hr>117</gpxtpx:hr>
          </gpxtpx:TrackPointExtension>
        </extensions>
      </trkpt>
      <trkpt lat="43.12121" lon="1.27217">
        <ele>382.6</ele>
        <time>2023-03-05T11:47:16Z</time>
        <extensions>
          <gpxtpx:TrackPointExtension xmlns:gpxtpx="http://www.garmin.com/xmlschemas/TrackPointExtension/v1">
            <gpxtpx:hr>117</gpxtpx:hr>
          </gpxtpx:TrackPointExtension>
        </extensions>
      </trkpt>
      <trkpt lat="43.1212" lon="1.27219">
        <ele>383.2</ele>
        <time>2023-03-05T11:47:17Z</time>
        <extensions>
          <gpxtpx:TrackPointExtension xmlns:gpxtpx="http://www.garmin.com/xmlschemas/TrackPointExtension/v1">
            <gpxtpx:hr>118</gpxtpx:hr>
          </gpxtpx:TrackPointExtension>
        </extensions>
      </trkpt>
      <trkpt lat="43.12119" lon="1.27221">
        <ele>383.6</ele>
        <time>2023-03-05T11:47:18Z</time>
        <extensions>
          <gpxtpx:TrackPointExtension xmlns:gpxtpx="http://www.garmin.com/xmlschemas/TrackPointExtension/v1">
            <gpxtpx:hr>119</gpxtpx:hr>
          </gpxtpx:TrackPointExtension>
        </extensions>
      </trkpt>
      <trkpt lat="43.12117" lon="1.27224">
        <ele>384</ele>
        <time>2023-03-05T11:47:19Z</time>
        <extensions>
          <gpxtpx:TrackPointExtension xmlns:gpxtpx="http://www.garmin.com/xmlschemas/TrackPointExtension/v1">
            <gpxtpx:hr>119</gpxtpx:hr>
          </gpxtpx:TrackPointExtension>
        </extensions>
      </trkpt>
      <trkpt lat="43.12116" lon="1.27225">
        <ele>384.4</ele>
        <time>2023-03-05T11:47:20Z</time>
        <extensions>
          <gpxtpx:TrackPointExtension xmlns:gpxtpx="http://www.garmin.com/xmlschemas/TrackPointExtension/v1">
            <gpxtpx:hr>119</gpxtpx:hr>
          </gpxtpx:TrackPointExtension>
        </extensions>
      </trkpt>
      <trkpt lat="43.12114" lon="1.27227">
        <ele>385</ele>
        <time>2023-03-05T11:47:21Z</time>
        <extensions>
          <gpxtpx:TrackPointExtension xmlns:gpxtpx="http://www.garmin.com/xmlschemas/TrackPointExtension/v1">
            <gpxtpx:hr>119</gpxtpx:hr>
          </gpxtpx:TrackPointExtension>
        </extensions>
      </trkpt>
      <trkpt lat="43.12112" lon="1.27229">
        <ele>385.4</ele>
        <time>2023-03-05T11:47:22Z</time>
        <extensions>
          <gpxtpx:TrackPointExtension xmlns:gpxtpx="http://www.garmin.com/xmlschemas/TrackPointExtension/v1">
            <gpxtpx:hr>120</gpxtpx:hr>
          </gpxtpx:TrackPointExtension>
        </extensions>
      </trkpt>
      <trkpt lat="43.12111" lon="1.27231">
        <ele>385.8</ele>
        <time>2023-03-05T11:47:23Z</time>
        <extensions>
          <gpxtpx:TrackPointExtension xmlns:gpxtpx="http://www.garmin.com/xmlschemas/TrackPointExtension/v1">
            <gpxtpx:hr>119</gpxtpx:hr>
          </gpxtpx:TrackPointExtension>
        </extensions>
      </trkpt>
      <trkpt lat="43.1211" lon="1.27232">
        <ele>386.2</ele>
        <time>2023-03-05T11:47:24Z</time>
        <extensions>
          <gpxtpx:TrackPointExtension xmlns:gpxtpx="http://www.garmin.com/xmlschemas/TrackPointExtension/v1">
            <gpxtpx:hr>119</gpxtpx:hr>
          </gpxtpx:TrackPointExtension>
        </extensions>
      </trkpt>
      <trkpt lat="43.12109" lon="1.27234">
        <ele>386.8</ele>
        <time>2023-03-05T11:47:25Z</time>
        <extensions>
          <gpxtpx:TrackPointExtension xmlns:gpxtpx="http://www.garmin.com/xmlschemas/TrackPointExtension/v1">
            <gpxtpx:hr>119</gpxtpx:hr>
          </gpxtpx:TrackPointExtension>
        </extensions>
      </trkpt>
      <trkpt lat="43.12108" lon="1.27235">
        <ele>387.2</ele>
        <time>2023-03-05T11:47:26Z</time>
        <extensions>
          <gpxtpx:TrackPointExtension xmlns:gpxtpx="http://www.garmin.com/xmlschemas/TrackPointExtension/v1">
            <gpxtpx:hr>120</gpxtpx:hr>
          </gpxtpx:TrackPointExtension>
        </extensions>
      </trkpt>
      <trkpt lat="43.12106" lon="1.27238">
        <ele>387.6</ele>
        <time>2023-03-05T11:47:27Z</time>
        <extensions>
          <gpxtpx:TrackPointExtension xmlns:gpxtpx="http://www.garmin.com/xmlschemas/TrackPointExtension/v1">
            <gpxtpx:hr>119</gpxtpx:hr>
          </gpxtpx:TrackPointExtension>
        </extensions>
      </trkpt>
      <trkpt lat="43.12105" lon="1.2724">
        <ele>388</ele>
        <time>2023-03-05T11:47:28Z</time>
        <extensions>
          <gpxtpx:TrackPointExtension xmlns:gpxtpx="http://www.garmin.com/xmlschemas/TrackPointExtension/v1">
            <gpxtpx:hr>119</gpxtpx:hr>
          </gpxtpx:TrackPointExtension>
        </extensions>
      </trkpt>
      <trkpt lat="43.12104" lon="1.27241">
        <ele>388.6</ele>
        <time>2023-03-05T11:47:29Z</time>
        <extensions>
          <gpxtpx:TrackPointExtension xmlns:gpxtpx="http://www.garmin.com/xmlschemas/TrackPointExtension/v1">
            <gpxtpx:hr>120</gpxtpx:hr>
          </gpxtpx:TrackPointExtension>
        </extensions>
      </trkpt>
      <trkpt lat="43.12103" lon="1.27243">
        <ele>389</ele>
        <time>2023-03-05T11:47:30Z</time>
        <extensions>
          <gpxtpx:TrackPointExtension xmlns:gpxtpx="http://www.garmin.com/xmlschemas/TrackPointExtension/v1">
            <gpxtpx:hr>120</gpxtpx:hr>
          </gpxtpx:TrackPointExtension>
        </extensions>
      </trkpt>
      <trkpt lat="43.12103" lon="1.27245">
        <ele>389.4</ele>
        <time>2023-03-05T11:47:31Z</time>
        <extensions>
          <gpxtpx:TrackPointExtension xmlns:gpxtpx="http://www.garmin.com/xmlschemas/TrackPointExtension/v1">
            <gpxtpx:hr>120</gpxtpx:hr>
          </gpxtpx:TrackPointExtension>
        </extensions>
      </trkpt>
      <trkpt lat="43.12103" lon="1.27246">
        <ele>389.8</ele>
        <time>2023-03-05T11:47:32Z</time>
        <extensions>
          <gpxtpx:TrackPointExtension xmlns:gpxtpx="http://www.garmin.com/xmlschemas/TrackPointExtension/v1">
            <gpxtpx:hr>120</gpxtpx:hr>
          </gpxtpx:TrackPointExtension>
        </extensions>
      </trkpt>
      <trkpt lat="43.12101" lon="1.27249">
        <ele>390.2</ele>
        <time>2023-03-05T11:47:33Z</time>
        <extensions>
          <gpxtpx:TrackPointExtension xmlns:gpxtpx="http://www.garmin.com/xmlschemas/TrackPointExtension/v1">
            <gpxtpx:hr>120</gpxtpx:hr>
          </gpxtpx:TrackPointExtension>
        </extensions>
      </trkpt>
      <trkpt lat="43.121" lon="1.27251">
        <ele>390.6</ele>
        <time>2023-03-05T11:47:34Z</time>
        <extensions>
          <gpxtpx:TrackPointExtension xmlns:gpxtpx="http://www.garmin.com/xmlschemas/TrackPointExtension/v1">
            <gpxtpx:hr>120</gpxtpx:hr>
          </gpxtpx:TrackPointExtension>
        </extensions>
      </trkpt>
      <trkpt lat="43.12099" lon="1.27253">
        <ele>391</ele>
        <time>2023-03-05T11:47:35Z</time>
        <extensions>
          <gpxtpx:TrackPointExtension xmlns:gpxtpx="http://www.garmin.com/xmlschemas/TrackPointExtension/v1">
            <gpxtpx:hr>121</gpxtpx:hr>
          </gpxtpx:TrackPointExtension>
        </extensions>
      </trkpt>
      <trkpt lat="43.12098" lon="1.27255">
        <ele>391.4</ele>
        <time>2023-03-05T11:47:36Z</time>
        <extensions>
          <gpxtpx:TrackPointExtension xmlns:gpxtpx="http://www.garmin.com/xmlschemas/TrackPointExtension/v1">
            <gpxtpx:hr>122</gpxtpx:hr>
          </gpxtpx:TrackPointExtension>
        </extensions>
      </trkpt>
      <trkpt lat="43.12098" lon="1.27257">
        <ele>391.8</ele>
        <time>2023-03-05T11:47:37Z</time>
        <extensions>
          <gpxtpx:TrackPointExtension xmlns:gpxtpx="http://www.garmin.com/xmlschemas/TrackPointExtension/v1">
            <gpxtpx:hr>122</gpxtpx:hr>
          </gpxtpx:TrackPointExtension>
        </extensions>
      </trkpt>
      <trkpt lat="43.12097" lon="1.27259">
        <ele>392.4</ele>
        <time>2023-03-05T11:47:38Z</time>
        <extensions>
          <gpxtpx:TrackPointExtension xmlns:gpxtpx="http://www.garmin.com/xmlschemas/TrackPointExtension/v1">
            <gpxtpx:hr>123</gpxtpx:hr>
          </gpxtpx:TrackPointExtension>
        </extensions>
      </trkpt>
      <trkpt lat="43.12096" lon="1.27262">
        <ele>392.8</ele>
        <time>2023-03-05T11:47:39Z</time>
        <extensions>
          <gpxtpx:TrackPointExtension xmlns:gpxtpx="http://www.garmin.com/xmlschemas/TrackPointExtension/v1">
            <gpxtpx:hr>124</gpxtpx:hr>
          </gpxtpx:TrackPointExtension>
        </extensions>
      </trkpt>
      <trkpt lat="43.12095" lon="1.27265">
        <ele>393.2</ele>
        <time>2023-03-05T11:47:40Z</time>
        <extensions>
          <gpxtpx:TrackPointExtension xmlns:gpxtpx="http://www.garmin.com/xmlschemas/TrackPointExtension/v1">
            <gpxtpx:hr>124</gpxtpx:hr>
          </gpxtpx:TrackPointExtension>
        </extensions>
      </trkpt>
      <trkpt lat="43.12094" lon="1.27267">
        <ele>393.6</ele>
        <time>2023-03-05T11:47:41Z</time>
        <extensions>
          <gpxtpx:TrackPointExtension xmlns:gpxtpx="http://www.garmin.com/xmlschemas/TrackPointExtension/v1">
            <gpxtpx:hr>125</gpxtpx:hr>
          </gpxtpx:TrackPointExtension>
        </extensions>
      </trkpt>
      <trkpt lat="43.12093" lon="1.27269">
        <ele>394</ele>
        <time>2023-03-05T11:47:42Z</time>
        <extensions>
          <gpxtpx:TrackPointExtension xmlns:gpxtpx="http://www.garmin.com/xmlschemas/TrackPointExtension/v1">
            <gpxtpx:hr>126</gpxtpx:hr>
          </gpxtpx:TrackPointExtension>
        </extensions>
      </trkpt>
      <trkpt lat="43.12091" lon="1.27271">
        <ele>394.4</ele>
        <time>2023-03-05T11:47:43Z</time>
        <extensions>
          <gpxtpx:TrackPointExtension xmlns:gpxtpx="http://www.garmin.com/xmlschemas/TrackPointExtension/v1">
            <gpxtpx:hr>127</gpxtpx:hr>
          </gpxtpx:TrackPointExtension>
        </extensions>
      </trkpt>
      <trkpt lat="43.12089" lon="1.27273">
        <ele>394.8</ele>
        <time>2023-03-05T11:47:44Z</time>
        <extensions>
          <gpxtpx:TrackPointExtension xmlns:gpxtpx="http://www.garmin.com/xmlschemas/TrackPointExtension/v1">
            <gpxtpx:hr>127</gpxtpx:hr>
          </gpxtpx:TrackPointExtension>
        </extensions>
      </trkpt>
      <trkpt lat="43.12088" lon="1.27275">
        <ele>395.4</ele>
        <time>2023-03-05T11:47:45Z</time>
        <extensions>
          <gpxtpx:TrackPointExtension xmlns:gpxtpx="http://www.garmin.com/xmlschemas/TrackPointExtension/v1">
            <gpxtpx:hr>127</gpxtpx:hr>
          </gpxtpx:TrackPointExtension>
        </extensions>
      </trkpt>
      <trkpt lat="43.12087" lon="1.27277">
        <ele>395.8</ele>
        <time>2023-03-05T11:47:46Z</time>
        <extensions>
          <gpxtpx:TrackPointExtension xmlns:gpxtpx="http://www.garmin.com/xmlschemas/TrackPointExtension/v1">
            <gpxtpx:hr>128</gpxtpx:hr>
          </gpxtpx:TrackPointExtension>
        </extensions>
      </trkpt>
      <trkpt lat="43.12086" lon="1.27279">
        <ele>396.2</ele>
        <time>2023-03-05T11:47:47Z</time>
        <extensions>
          <gpxtpx:TrackPointExtension xmlns:gpxtpx="http://www.garmin.com/xmlschemas/TrackPointExtension/v1">
            <gpxtpx:hr>128</gpxtpx:hr>
          </gpxtpx:TrackPointExtension>
        </extensions>
      </trkpt>
      <trkpt lat="43.12085" lon="1.27281">
        <ele>396.6</ele>
        <time>2023-03-05T11:47:48Z</time>
        <extensions>
          <gpxtpx:TrackPointExtension xmlns:gpxtpx="http://www.garmin.com/xmlschemas/TrackPointExtension/v1">
            <gpxtpx:hr>128</gpxtpx:hr>
          </gpxtpx:TrackPointExtension>
        </extensions>
      </trkpt>
      <trkpt lat="43.1208" lon="1.27287">
        <ele>397</ele>
        <time>2023-03-05T11:47:51Z</time>
        <extensions>
          <gpxtpx:TrackPointExtension xmlns:gpxtpx="http://www.garmin.com/xmlschemas/TrackPointExtension/v1">
            <gpxtpx:hr>130</gpxtpx:hr>
          </gpxtpx:TrackPointExtension>
        </extensions>
      </trkpt>
      <trkpt lat="43.12078" lon="1.27289">
        <ele>397.6</ele>
        <time>2023-03-05T11:47:52Z</time>
        <extensions>
          <gpxtpx:TrackPointExtension xmlns:gpxtpx="http://www.garmin.com/xmlschemas/TrackPointExtension/v1">
            <gpxtpx:hr>130</gpxtpx:hr>
          </gpxtpx:TrackPointExtension>
        </extensions>
      </trkpt>
      <trkpt lat="43.12077" lon="1.2729">
        <ele>398</ele>
        <time>2023-03-05T11:47:53Z</time>
        <extensions>
          <gpxtpx:TrackPointExtension xmlns:gpxtpx="http://www.garmin.com/xmlschemas/TrackPointExtension/v1">
            <gpxtpx:hr>130</gpxtpx:hr>
          </gpxtpx:TrackPointExtension>
        </extensions>
      </trkpt>
      <trkpt lat="43.12076" lon="1.27292">
        <ele>398.4</ele>
        <time>2023-03-05T11:47:54Z</time>
        <extensions>
          <gpxtpx:TrackPointExtension xmlns:gpxtpx="http://www.garmin.com/xmlschemas/TrackPointExtension/v1">
            <gpxtpx:hr>130</gpxtpx:hr>
          </gpxtpx:TrackPointExtension>
        </extensions>
      </trkpt>
      <trkpt lat="43.12074" lon="1.27294">
        <ele>399</ele>
        <time>2023-03-05T11:47:55Z</time>
        <extensions>
          <gpxtpx:TrackPointExtension xmlns:gpxtpx="http://www.garmin.com/xmlschemas/TrackPointExtension/v1">
            <gpxtpx:hr>131</gpxtpx:hr>
          </gpxtpx:TrackPointExtension>
        </extensions>
      </trkpt>
      <trkpt lat="43.12072" lon="1.273">
        <ele>399.4</ele>
        <time>2023-03-05T11:47:57Z</time>
        <extensions>
          <gpxtpx:TrackPointExtension xmlns:gpxtpx="http://www.garmin.com/xmlschemas/TrackPointExtension/v1">
            <gpxtpx:hr>131</gpxtpx:hr>
          </gpxtpx:TrackPointExtension>
        </extensions>
      </trkpt>
      <trkpt lat="43.12072" lon="1.27303">
        <ele>399.8</ele>
        <time>2023-03-05T11:47:58Z</time>
        <extensions>
          <gpxtpx:TrackPointExtension xmlns:gpxtpx="http://www.garmin.com/xmlschemas/TrackPointExtension/v1">
            <gpxtpx:hr>131</gpxtpx:hr>
          </gpxtpx:TrackPointExtension>
        </extensions>
      </trkpt>
      <trkpt lat="43.12071" lon="1.27305">
        <ele>400.2</ele>
        <time>2023-03-05T11:47:59Z</time>
        <extensions>
          <gpxtpx:TrackPointExtension xmlns:gpxtpx="http://www.garmin.com/xmlschemas/TrackPointExtension/v1">
            <gpxtpx:hr>131</gpxtpx:hr>
          </gpxtpx:TrackPointExtension>
        </extensions>
      </trkpt>
      <trkpt lat="43.1207" lon="1.27308">
        <ele>400.6</ele>
        <time>2023-03-05T11:48:00Z</time>
        <extensions>
          <gpxtpx:TrackPointExtension xmlns:gpxtpx="http://www.garmin.com/xmlschemas/TrackPointExtension/v1">
            <gpxtpx:hr>131</gpxtpx:hr>
          </gpxtpx:TrackPointExtension>
        </extensions>
      </trkpt>
      <trkpt lat="43.12069" lon="1.27311">
        <ele>401</ele>
        <time>2023-03-05T11:48:01Z</time>
        <extensions>
          <gpxtpx:TrackPointExtension xmlns:gpxtpx="http://www.garmin.com/xmlschemas/TrackPointExtension/v1">
            <gpxtpx:hr>131</gpxtpx:hr>
          </gpxtpx:TrackPointExtension>
        </extensions>
      </trkpt>
      <trkpt lat="43.12067" lon="1.27316">
        <ele>401</ele>
        <time>2023-03-05T11:48:03Z</time>
        <extensions>
          <gpxtpx:TrackPointExtension xmlns:gpxtpx="http://www.garmin.com/xmlschemas/TrackPointExtension/v1">
            <gpxtpx:hr>132</gpxtpx:hr>
          </gpxtpx:TrackPointExtension>
        </extensions>
      </trkpt>
      <trkpt lat="43.12066" lon="1.27319">
        <ele>401.4</ele>
        <time>2023-03-05T11:48:04Z</time>
        <extensions>
          <gpxtpx:TrackPointExtension xmlns:gpxtpx="http://www.garmin.com/xmlschemas/TrackPointExtension/v1">
            <gpxtpx:hr>131</gpxtpx:hr>
          </gpxtpx:TrackPointExtension>
        </extensions>
      </trkpt>
      <trkpt lat="43.12065" lon="1.27322">
        <ele>401.8</ele>
        <time>2023-03-05T11:48:05Z</time>
        <extensions>
          <gpxtpx:TrackPointExtension xmlns:gpxtpx="http://www.garmin.com/xmlschemas/TrackPointExtension/v1">
            <gpxtpx:hr>132</gpxtpx:hr>
          </gpxtpx:TrackPointExtension>
        </extensions>
      </trkpt>
      <trkpt lat="43.12064" lon="1.27325">
        <ele>402.4</ele>
        <time>2023-03-05T11:48:06Z</time>
        <extensions>
          <gpxtpx:TrackPointExtension xmlns:gpxtpx="http://www.garmin.com/xmlschemas/TrackPointExtension/v1">
            <gpxtpx:hr>132</gpxtpx:hr>
          </gpxtpx:TrackPointExtension>
        </extensions>
      </trkpt>
      <trkpt lat="43.12063" lon="1.27327">
        <ele>402.8</ele>
        <time>2023-03-05T11:48:07Z</time>
        <extensions>
          <gpxtpx:TrackPointExtension xmlns:gpxtpx="http://www.garmin.com/xmlschemas/TrackPointExtension/v1">
            <gpxtpx:hr>132</gpxtpx:hr>
          </gpxtpx:TrackPointExtension>
        </extensions>
      </trkpt>
      <trkpt lat="43.12063" lon="1.27329">
        <ele>403.2</ele>
        <time>2023-03-05T11:48:08Z</time>
        <extensions>
          <gpxtpx:TrackPointExtension xmlns:gpxtpx="http://www.garmin.com/xmlschemas/TrackPointExtension/v1">
            <gpxtpx:hr>132</gpxtpx:hr>
          </gpxtpx:TrackPointExtension>
        </extensions>
      </trkpt>
      <trkpt lat="43.12061" lon="1.27331">
        <ele>403.2</ele>
        <time>2023-03-05T11:48:09Z</time>
        <extensions>
          <gpxtpx:TrackPointExtension xmlns:gpxtpx="http://www.garmin.com/xmlschemas/TrackPointExtension/v1">
            <gpxtpx:hr>132</gpxtpx:hr>
          </gpxtpx:TrackPointExtension>
        </extensions>
      </trkpt>
      <trkpt lat="43.1206" lon="1.27337">
        <ele>403.6</ele>
        <time>2023-03-05T11:48:11Z</time>
        <extensions>
          <gpxtpx:TrackPointExtension xmlns:gpxtpx="http://www.garmin.com/xmlschemas/TrackPointExtension/v1">
            <gpxtpx:hr>132</gpxtpx:hr>
          </gpxtpx:TrackPointExtension>
        </extensions>
      </trkpt>
      <trkpt lat="43.12058" lon="1.27339">
        <ele>404</ele>
        <time>2023-03-05T11:48:12Z</time>
        <extensions>
          <gpxtpx:TrackPointExtension xmlns:gpxtpx="http://www.garmin.com/xmlschemas/TrackPointExtension/v1">
            <gpxtpx:hr>132</gpxtpx:hr>
          </gpxtpx:TrackPointExtension>
        </extensions>
      </trkpt>
      <trkpt lat="43.12057" lon="1.27341">
        <ele>404.4</ele>
        <time>2023-03-05T11:48:13Z</time>
        <extensions>
          <gpxtpx:TrackPointExtension xmlns:gpxtpx="http://www.garmin.com/xmlschemas/TrackPointExtension/v1">
            <gpxtpx:hr>133</gpxtpx:hr>
          </gpxtpx:TrackPointExtension>
        </extensions>
      </trkpt>
      <trkpt lat="43.12057" lon="1.27343">
        <ele>404.8</ele>
        <time>2023-03-05T11:48:14Z</time>
        <extensions>
          <gpxtpx:TrackPointExtension xmlns:gpxtpx="http://www.garmin.com/xmlschemas/TrackPointExtension/v1">
            <gpxtpx:hr>133</gpxtpx:hr>
          </gpxtpx:TrackPointExtension>
        </extensions>
      </trkpt>
      <trkpt lat="43.12056" lon="1.27345">
        <ele>405.4</ele>
        <time>2023-03-05T11:48:15Z</time>
        <extensions>
          <gpxtpx:TrackPointExtension xmlns:gpxtpx="http://www.garmin.com/xmlschemas/TrackPointExtension/v1">
            <gpxtpx:hr>134</gpxtpx:hr>
          </gpxtpx:TrackPointExtension>
        </extensions>
      </trkpt>
      <trkpt lat="43.12055" lon="1.27352">
        <ele>405.8</ele>
        <time>2023-03-05T11:48:18Z</time>
        <extensions>
          <gpxtpx:TrackPointExtension xmlns:gpxtpx="http://www.garmin.com/xmlschemas/TrackPointExtension/v1">
            <gpxtpx:hr>134</gpxtpx:hr>
          </gpxtpx:TrackPointExtension>
        </extensions>
      </trkpt>
      <trkpt lat="43.12054" lon="1.27354">
        <ele>406.2</ele>
        <time>2023-03-05T11:48:19Z</time>
        <extensions>
          <gpxtpx:TrackPointExtension xmlns:gpxtpx="http://www.garmin.com/xmlschemas/TrackPointExtension/v1">
            <gpxtpx:hr>134</gpxtpx:hr>
          </gpxtpx:TrackPointExtension>
        </extensions>
      </trkpt>
      <trkpt lat="43.12053" lon="1.27356">
        <ele>406.6</ele>
        <time>2023-03-05T11:48:20Z</time>
        <extensions>
          <gpxtpx:TrackPointExtension xmlns:gpxtpx="http://www.garmin.com/xmlschemas/TrackPointExtension/v1">
            <gpxtpx:hr>134</gpxtpx:hr>
          </gpxtpx:TrackPointExtension>
        </extensions>
      </trkpt>
      <trkpt lat="43.12052" lon="1.27359">
        <ele>407</ele>
        <time>2023-03-05T11:48:21Z</time>
        <extensions>
          <gpxtpx:TrackPointExtension xmlns:gpxtpx="http://www.garmin.com/xmlschemas/TrackPointExtension/v1">
            <gpxtpx:hr>134</gpxtpx:hr>
          </gpxtpx:TrackPointExtension>
        </extensions>
      </trkpt>
      <trkpt lat="43.12051" lon="1.27361">
        <ele>407.4</ele>
        <time>2023-03-05T11:48:22Z</time>
        <extensions>
          <gpxtpx:TrackPointExtension xmlns:gpxtpx="http://www.garmin.com/xmlschemas/TrackPointExtension/v1">
            <gpxtpx:hr>134</gpxtpx:hr>
          </gpxtpx:TrackPointExtension>
        </extensions>
      </trkpt>
      <trkpt lat="43.12046" lon="1.27373">
        <ele>407.4</ele>
        <time>2023-03-05T11:48:25Z</time>
        <extensions>
          <gpxtpx:TrackPointExtension xmlns:gpxtpx="http://www.garmin.com/xmlschemas/TrackPointExtension/v1">
            <gpxtpx:hr>134</gpxtpx:hr>
          </gpxtpx:TrackPointExtension>
        </extensions>
      </trkpt>
      <trkpt lat="43.12044" lon="1.27376">
        <ele>407.8</ele>
        <time>2023-03-05T11:48:26Z</time>
        <extensions>
          <gpxtpx:TrackPointExtension xmlns:gpxtpx="http://www.garmin.com/xmlschemas/TrackPointExtension/v1">
            <gpxtpx:hr>135</gpxtpx:hr>
          </gpxtpx:TrackPointExtension>
        </extensions>
      </trkpt>
      <trkpt lat="43.12043" lon="1.2738">
        <ele>408.2</ele>
        <time>2023-03-05T11:48:27Z</time>
        <extensions>
          <gpxtpx:TrackPointExtension xmlns:gpxtpx="http://www.garmin.com/xmlschemas/TrackPointExtension/v1">
            <gpxtpx:hr>135</gpxtpx:hr>
          </gpxtpx:TrackPointExtension>
        </extensions>
      </trkpt>
      <trkpt lat="43.12041" lon="1.27384">
        <ele>408.8</ele>
        <time>2023-03-05T11:48:28Z</time>
        <extensions>
          <gpxtpx:TrackPointExtension xmlns:gpxtpx="http://www.garmin.com/xmlschemas/TrackPointExtension/v1">
            <gpxtpx:hr>134</gpxtpx:hr>
          </gpxtpx:TrackPointExtension>
        </extensions>
      </trkpt>
      <trkpt lat="43.12039" lon="1.27388">
        <ele>409.2</ele>
        <time>2023-03-05T11:48:29Z</time>
        <extensions>
          <gpxtpx:TrackPointExtension xmlns:gpxtpx="http://www.garmin.com/xmlschemas/TrackPointExtension/v1">
            <gpxtpx:hr>135</gpxtpx:hr>
          </gpxtpx:TrackPointExtension>
        </extensions>
      </trkpt>
      <trkpt lat="43.12038" lon="1.27391">
        <ele>409.8</ele>
        <time>2023-03-05T11:48:30Z</time>
        <extensions>
          <gpxtpx:TrackPointExtension xmlns:gpxtpx="http://www.garmin.com/xmlschemas/TrackPointExtension/v1">
            <gpxtpx:hr>135</gpxtpx:hr>
          </gpxtpx:TrackPointExtension>
        </extensions>
      </trkpt>
      <trkpt lat="43.12037" lon="1.27395">
        <ele>410.4</ele>
        <time>2023-03-05T11:48:31Z</time>
        <extensions>
          <gpxtpx:TrackPointExtension xmlns:gpxtpx="http://www.garmin.com/xmlschemas/TrackPointExtension/v1">
            <gpxtpx:hr>135</gpxtpx:hr>
          </gpxtpx:TrackPointExtension>
        </extensions>
      </trkpt>
      <trkpt lat="43.12035" lon="1.27398">
        <ele>411.4</ele>
        <time>2023-03-05T11:48:32Z</time>
        <extensions>
          <gpxtpx:TrackPointExtension xmlns:gpxtpx="http://www.garmin.com/xmlschemas/TrackPointExtension/v1">
            <gpxtpx:hr>135</gpxtpx:hr>
          </gpxtpx:TrackPointExtension>
        </extensions>
      </trkpt>
      <trkpt lat="43.12034" lon="1.27401">
        <ele>412</ele>
        <time>2023-03-05T11:48:33Z</time>
        <extensions>
          <gpxtpx:TrackPointExtension xmlns:gpxtpx="http://www.garmin.com/xmlschemas/TrackPointExtension/v1">
            <gpxtpx:hr>135</gpxtpx:hr>
          </gpxtpx:TrackPointExtension>
        </extensions>
      </trkpt>
      <trkpt lat="43.1203" lon="1.27411">
        <ele>412.4</ele>
        <time>2023-03-05T11:48:37Z</time>
        <extensions>
          <gpxtpx:TrackPointExtension xmlns:gpxtpx="http://www.garmin.com/xmlschemas/TrackPointExtension/v1">
            <gpxtpx:hr>136</gpxtpx:hr>
          </gpxtpx:TrackPointExtension>
        </extensions>
      </trkpt>
      <trkpt lat="43.1203" lon="1.27413">
        <ele>413</ele>
        <time>2023-03-05T11:48:38Z</time>
        <extensions>
          <gpxtpx:TrackPointExtension xmlns:gpxtpx="http://www.garmin.com/xmlschemas/TrackPointExtension/v1">
            <gpxtpx:hr>136</gpxtpx:hr>
          </gpxtpx:TrackPointExtension>
        </extensions>
      </trkpt>
      <trkpt lat="43.12029" lon="1.27417">
        <ele>413.4</ele>
        <time>2023-03-05T11:48:39Z</time>
        <extensions>
          <gpxtpx:TrackPointExtension xmlns:gpxtpx="http://www.garmin.com/xmlschemas/TrackPointExtension/v1">
            <gpxtpx:hr>136</gpxtpx:hr>
          </gpxtpx:TrackPointExtension>
        </extensions>
      </trkpt>
      <trkpt lat="43.12028" lon="1.2742">
        <ele>413.8</ele>
        <time>2023-03-05T11:48:40Z</time>
        <extensions>
          <gpxtpx:TrackPointExtension xmlns:gpxtpx="http://www.garmin.com/xmlschemas/TrackPointExtension/v1">
            <gpxtpx:hr>136</gpxtpx:hr>
          </gpxtpx:TrackPointExtension>
        </extensions>
      </trkpt>
      <trkpt lat="43.12027" lon="1.27422">
        <ele>414.2</ele>
        <time>2023-03-05T11:48:41Z</time>
        <extensions>
          <gpxtpx:TrackPointExtension xmlns:gpxtpx="http://www.garmin.com/xmlschemas/TrackPointExtension/v1">
            <gpxtpx:hr>136</gpxtpx:hr>
          </gpxtpx:TrackPointExtension>
        </extensions>
      </trkpt>
      <trkpt lat="43.12025" lon="1.27428">
        <ele>414.2</ele>
        <time>2023-03-05T11:48:43Z</time>
        <extensions>
          <gpxtpx:TrackPointExtension xmlns:gpxtpx="http://www.garmin.com/xmlschemas/TrackPointExtension/v1">
            <gpxtpx:hr>137</gpxtpx:hr>
          </gpxtpx:TrackPointExtension>
        </extensions>
      </trkpt>
      <trkpt lat="43.12023" lon="1.27431">
        <ele>414.6</ele>
        <time>2023-03-05T11:48:44Z</time>
        <extensions>
          <gpxtpx:TrackPointExtension xmlns:gpxtpx="http://www.garmin.com/xmlschemas/TrackPointExtension/v1">
            <gpxtpx:hr>137</gpxtpx:hr>
          </gpxtpx:TrackPointExtension>
        </extensions>
      </trkpt>
      <trkpt lat="43.12022" lon="1.27434">
        <ele>415</ele>
        <time>2023-03-05T11:48:45Z</time>
        <extensions>
          <gpxtpx:TrackPointExtension xmlns:gpxtpx="http://www.garmin.com/xmlschemas/TrackPointExtension/v1">
            <gpxtpx:hr>137</gpxtpx:hr>
          </gpxtpx:TrackPointExtension>
        </extensions>
      </trkpt>
      <trkpt lat="43.12021" lon="1.27437">
        <ele>415.4</ele>
        <time>2023-03-05T11:48:46Z</time>
        <extensions>
          <gpxtpx:TrackPointExtension xmlns:gpxtpx="http://www.garmin.com/xmlschemas/TrackPointExtension/v1">
            <gpxtpx:hr>137</gpxtpx:hr>
          </gpxtpx:TrackPointExtension>
        </extensions>
      </trkpt>
      <trkpt lat="43.12021" lon="1.2744">
        <ele>415.8</ele>
        <time>2023-03-05T11:48:47Z</time>
        <extensions>
          <gpxtpx:TrackPointExtension xmlns:gpxtpx="http://www.garmin.com/xmlschemas/TrackPointExtension/v1">
            <gpxtpx:hr>137</gpxtpx:hr>
          </gpxtpx:TrackPointExtension>
        </extensions>
      </trkpt>
      <trkpt lat="43.12021" lon="1.27443">
        <ele>416.4</ele>
        <time>2023-03-05T11:48:48Z</time>
        <extensions>
          <gpxtpx:TrackPointExtension xmlns:gpxtpx="http://www.garmin.com/xmlschemas/TrackPointExtension/v1">
            <gpxtpx:hr>137</gpxtpx:hr>
          </gpxtpx:TrackPointExtension>
        </extensions>
      </trkpt>
      <trkpt lat="43.12015" lon="1.27458">
        <ele>416.8</ele>
        <time>2023-03-05T11:48:52Z</time>
        <extensions>
          <gpxtpx:TrackPointExtension xmlns:gpxtpx="http://www.garmin.com/xmlschemas/TrackPointExtension/v1">
            <gpxtpx:hr>138</gpxtpx:hr>
          </gpxtpx:TrackPointExtension>
        </extensions>
      </trkpt>
      <trkpt lat="43.12013" lon="1.27461">
        <ele>417.2</ele>
        <time>2023-03-05T11:48:53Z</time>
        <extensions>
          <gpxtpx:TrackPointExtension xmlns:gpxtpx="http://www.garmin.com/xmlschemas/TrackPointExtension/v1">
            <gpxtpx:hr>138</gpxtpx:hr>
          </gpxtpx:TrackPointExtension>
        </extensions>
      </trkpt>
      <trkpt lat="43.12011" lon="1.27466">
        <ele>417.6</ele>
        <time>2023-03-05T11:48:54Z</time>
        <extensions>
          <gpxtpx:TrackPointExtension xmlns:gpxtpx="http://www.garmin.com/xmlschemas/TrackPointExtension/v1">
            <gpxtpx:hr>138</gpxtpx:hr>
          </gpxtpx:TrackPointExtension>
        </extensions>
      </trkpt>
      <trkpt lat="43.12009" lon="1.27469">
        <ele>418.2</ele>
        <time>2023-03-05T11:48:55Z</time>
        <extensions>
          <gpxtpx:TrackPointExtension xmlns:gpxtpx="http://www.garmin.com/xmlschemas/TrackPointExtension/v1">
            <gpxtpx:hr>138</gpxtpx:hr>
          </gpxtpx:TrackPointExtension>
        </extensions>
      </trkpt>
      <trkpt lat="43.12007" lon="1.27473">
        <ele>418.6</ele>
        <time>2023-03-05T11:48:56Z</time>
        <extensions>
          <gpxtpx:TrackPointExtension xmlns:gpxtpx="http://www.garmin.com/xmlschemas/TrackPointExtension/v1">
            <gpxtpx:hr>139</gpxtpx:hr>
          </gpxtpx:TrackPointExtension>
        </extensions>
      </trkpt>
      <trkpt lat="43.12003" lon="1.27488">
        <ele>418.6</ele>
        <time>2023-03-05T11:48:59Z</time>
        <extensions>
          <gpxtpx:TrackPointExtension xmlns:gpxtpx="http://www.garmin.com/xmlschemas/TrackPointExtension/v1">
            <gpxtpx:hr>139</gpxtpx:hr>
          </gpxtpx:TrackPointExtension>
        </extensions>
      </trkpt>
      <trkpt lat="43.12002" lon="1.27492">
        <ele>419</ele>
        <time>2023-03-05T11:49:00Z</time>
        <extensions>
          <gpxtpx:TrackPointExtension xmlns:gpxtpx="http://www.garmin.com/xmlschemas/TrackPointExtension/v1">
            <gpxtpx:hr>138</gpxtpx:hr>
          </gpxtpx:TrackPointExtension>
        </extensions>
      </trkpt>
      <trkpt lat="43.12001" lon="1.27497">
        <ele>419.4</ele>
        <time>2023-03-05T11:49:01Z</time>
        <extensions>
          <gpxtpx:TrackPointExtension xmlns:gpxtpx="http://www.garmin.com/xmlschemas/TrackPointExtension/v1">
            <gpxtpx:hr>138</gpxtpx:hr>
          </gpxtpx:TrackPointExtension>
        </extensions>
      </trkpt>
      <trkpt lat="43.11998" lon="1.27501">
        <ele>419.8</ele>
        <time>2023-03-05T11:49:02Z</time>
        <extensions>
          <gpxtpx:TrackPointExtension xmlns:gpxtpx="http://www.garmin.com/xmlschemas/TrackPointExtension/v1">
            <gpxtpx:hr>138</gpxtpx:hr>
          </gpxtpx:TrackPointExtension>
        </extensions>
      </trkpt>
      <trkpt lat="43.11996" lon="1.27504">
        <ele>420.2</ele>
        <time>2023-03-05T11:49:03Z</time>
        <extensions>
          <gpxtpx:TrackPointExtension xmlns:gpxtpx="http://www.garmin.com/xmlschemas/TrackPointExtension/v1">
            <gpxtpx:hr>138</gpxtpx:hr>
          </gpxtpx:TrackPointExtension>
        </extensions>
      </trkpt>
      <trkpt lat="43.11993" lon="1.27507">
        <ele>420.6</ele>
        <time>2023-03-05T11:49:04Z</time>
        <extensions>
          <gpxtpx:TrackPointExtension xmlns:gpxtpx="http://www.garmin.com/xmlschemas/TrackPointExtension/v1">
            <gpxtpx:hr>138</gpxtpx:hr>
          </gpxtpx:TrackPointExtension>
        </extensions>
      </trkpt>
      <trkpt lat="43.11985" lon="1.27513">
        <ele>420.6</ele>
        <time>2023-03-05T11:49:07Z</time>
        <extensions>
          <gpxtpx:TrackPointExtension xmlns:gpxtpx="http://www.garmin.com/xmlschemas/TrackPointExtension/v1">
            <gpxtpx:hr>138</gpxtpx:hr>
          </gpxtpx:TrackPointExtension>
        </extensions>
      </trkpt>
      <trkpt lat="43.1198" lon="1.27517">
        <ele>420.6</ele>
        <time>2023-03-05T11:49:09Z</time>
        <extensions>
          <gpxtpx:TrackPointExtension xmlns:gpxtpx="http://www.garmin.com/xmlschemas/TrackPointExtension/v1">
            <gpxtpx:hr>138</gpxtpx:hr>
          </gpxtpx:TrackPointExtension>
        </extensions>
      </trkpt>
      <trkpt lat="43.11966" lon="1.27531">
        <ele>420.6</ele>
        <time>2023-03-05T11:49:13Z</time>
        <extensions>
          <gpxtpx:TrackPointExtension xmlns:gpxtpx="http://www.garmin.com/xmlschemas/TrackPointExtension/v1">
            <gpxtpx:hr>135</gpxtpx:hr>
          </gpxtpx:TrackPointExtension>
        </extensions>
      </trkpt>
      <trkpt lat="43.11956" lon="1.27546">
        <ele>420.2</ele>
        <time>2023-03-05T11:49:16Z</time>
        <extensions>
          <gpxtpx:TrackPointExtension xmlns:gpxtpx="http://www.garmin.com/xmlschemas/TrackPointExtension/v1">
            <gpxtpx:hr>135</gpxtpx:hr>
          </gpxtpx:TrackPointExtension>
        </extensions>
      </trkpt>
      <trkpt lat="43.11952" lon="1.27551">
        <ele>419.8</ele>
        <time>2023-03-05T11:49:17Z</time>
        <extensions>
          <gpxtpx:TrackPointExtension xmlns:gpxtpx="http://www.garmin.com/xmlschemas/TrackPointExtension/v1">
            <gpxtpx:hr>134</gpxtpx:hr>
          </gpxtpx:TrackPointExtension>
        </extensions>
      </trkpt>
      <trkpt lat="43.11947" lon="1.27552">
        <ele>419.4</ele>
        <time>2023-03-05T11:49:18Z</time>
        <extensions>
          <gpxtpx:TrackPointExtension xmlns:gpxtpx="http://www.garmin.com/xmlschemas/TrackPointExtension/v1">
            <gpxtpx:hr>134</gpxtpx:hr>
          </gpxtpx:TrackPointExtension>
        </extensions>
      </trkpt>
      <trkpt lat="43.1194" lon="1.27553">
        <ele>418.8</ele>
        <time>2023-03-05T11:49:19Z</time>
        <extensions>
          <gpxtpx:TrackPointExtension xmlns:gpxtpx="http://www.garmin.com/xmlschemas/TrackPointExtension/v1">
            <gpxtpx:hr>133</gpxtpx:hr>
          </gpxtpx:TrackPointExtension>
        </extensions>
      </trkpt>
      <trkpt lat="43.11934" lon="1.27554">
        <ele>417.6</ele>
        <time>2023-03-05T11:49:20Z</time>
        <extensions>
          <gpxtpx:TrackPointExtension xmlns:gpxtpx="http://www.garmin.com/xmlschemas/TrackPointExtension/v1">
            <gpxtpx:hr>133</gpxtpx:hr>
          </gpxtpx:TrackPointExtension>
        </extensions>
      </trkpt>
      <trkpt lat="43.11927" lon="1.27556">
        <ele>417</ele>
        <time>2023-03-05T11:49:21Z</time>
        <extensions>
          <gpxtpx:TrackPointExtension xmlns:gpxtpx="http://www.garmin.com/xmlschemas/TrackPointExtension/v1">
            <gpxtpx:hr>132</gpxtpx:hr>
          </gpxtpx:TrackPointExtension>
        </extensions>
      </trkpt>
      <trkpt lat="43.11921" lon="1.27557">
        <ele>416.4</ele>
        <time>2023-03-05T11:49:22Z</time>
        <extensions>
          <gpxtpx:TrackPointExtension xmlns:gpxtpx="http://www.garmin.com/xmlschemas/TrackPointExtension/v1">
            <gpxtpx:hr>131</gpxtpx:hr>
          </gpxtpx:TrackPointExtension>
        </extensions>
      </trkpt>
      <trkpt lat="43.11916" lon="1.27558">
        <ele>416</ele>
        <time>2023-03-05T11:49:23Z</time>
        <extensions>
          <gpxtpx:TrackPointExtension xmlns:gpxtpx="http://www.garmin.com/xmlschemas/TrackPointExtension/v1">
            <gpxtpx:hr>131</gpxtpx:hr>
          </gpxtpx:TrackPointExtension>
        </extensions>
      </trkpt>
      <trkpt lat="43.11912" lon="1.2756">
        <ele>415.4</ele>
        <time>2023-03-05T11:49:24Z</time>
        <extensions>
          <gpxtpx:TrackPointExtension xmlns:gpxtpx="http://www.garmin.com/xmlschemas/TrackPointExtension/v1">
            <gpxtpx:hr>130</gpxtpx:hr>
          </gpxtpx:TrackPointExtension>
        </extensions>
      </trkpt>
      <trkpt lat="43.11908" lon="1.27562">
        <ele>414.8</ele>
        <time>2023-03-05T11:49:25Z</time>
        <extensions>
          <gpxtpx:TrackPointExtension xmlns:gpxtpx="http://www.garmin.com/xmlschemas/TrackPointExtension/v1">
            <gpxtpx:hr>129</gpxtpx:hr>
          </gpxtpx:TrackPointExtension>
        </extensions>
      </trkpt>
      <trkpt lat="43.11904" lon="1.27565">
        <ele>414.4</ele>
        <time>2023-03-05T11:49:26Z</time>
        <extensions>
          <gpxtpx:TrackPointExtension xmlns:gpxtpx="http://www.garmin.com/xmlschemas/TrackPointExtension/v1">
            <gpxtpx:hr>128</gpxtpx:hr>
          </gpxtpx:TrackPointExtension>
        </extensions>
      </trkpt>
      <trkpt lat="43.119" lon="1.27568">
        <ele>413.8</ele>
        <time>2023-03-05T11:49:27Z</time>
        <extensions>
          <gpxtpx:TrackPointExtension xmlns:gpxtpx="http://www.garmin.com/xmlschemas/TrackPointExtension/v1">
            <gpxtpx:hr>128</gpxtpx:hr>
          </gpxtpx:TrackPointExtension>
        </extensions>
      </trkpt>
      <trkpt lat="43.11888" lon="1.27575">
        <ele>413.4</ele>
        <time>2023-03-05T11:49:30Z</time>
        <extensions>
          <gpxtpx:TrackPointExtension xmlns:gpxtpx="http://www.garmin.com/xmlschemas/TrackPointExtension/v1">
            <gpxtpx:hr>126</gpxtpx:hr>
          </gpxtpx:TrackPointExtension>
        </extensions>
      </trkpt>
      <trkpt lat="43.11885" lon="1.27576">
        <ele>413</ele>
        <time>2023-03-05T11:49:31Z</time>
        <extensions>
          <gpxtpx:TrackPointExtension xmlns:gpxtpx="http://www.garmin.com/xmlschemas/TrackPointExtension/v1">
            <gpxtpx:hr>126</gpxtpx:hr>
          </gpxtpx:TrackPointExtension>
        </extensions>
      </trkpt>
      <trkpt lat="43.11883" lon="1.27577">
        <ele>412.6</ele>
        <time>2023-03-05T11:49:32Z</time>
        <extensions>
          <gpxtpx:TrackPointExtension xmlns:gpxtpx="http://www.garmin.com/xmlschemas/TrackPointExtension/v1">
            <gpxtpx:hr>125</gpxtpx:hr>
          </gpxtpx:TrackPointExtension>
        </extensions>
      </trkpt>
      <trkpt lat="43.1188" lon="1.27579">
        <ele>412.2</ele>
        <time>2023-03-05T11:49:33Z</time>
        <extensions>
          <gpxtpx:TrackPointExtension xmlns:gpxtpx="http://www.garmin.com/xmlschemas/TrackPointExtension/v1">
            <gpxtpx:hr>125</gpxtpx:hr>
          </gpxtpx:TrackPointExtension>
        </extensions>
      </trkpt>
      <trkpt lat="43.11877" lon="1.2758">
        <ele>411.8</ele>
        <time>2023-03-05T11:49:34Z</time>
        <extensions>
          <gpxtpx:TrackPointExtension xmlns:gpxtpx="http://www.garmin.com/xmlschemas/TrackPointExtension/v1">
            <gpxtpx:hr>125</gpxtpx:hr>
          </gpxtpx:TrackPointExtension>
        </extensions>
      </trkpt>
      <trkpt lat="43.11867" lon="1.27583">
        <ele>411.8</ele>
        <time>2023-03-05T11:49:37Z</time>
        <extensions>
          <gpxtpx:TrackPointExtension xmlns:gpxtpx="http://www.garmin.com/xmlschemas/TrackPointExtension/v1">
            <gpxtpx:hr>124</gpxtpx:hr>
          </gpxtpx:TrackPointExtension>
        </extensions>
      </trkpt>
      <trkpt lat="43.11858" lon="1.27585">
        <ele>411.4</ele>
        <time>2023-03-05T11:49:40Z</time>
        <extensions>
          <gpxtpx:TrackPointExtension xmlns:gpxtpx="http://www.garmin.com/xmlschemas/TrackPointExtension/v1">
            <gpxtpx:hr>125</gpxtpx:hr>
          </gpxtpx:TrackPointExtension>
        </extensions>
      </trkpt>
      <trkpt lat="43.11855" lon="1.27586">
        <ele>411</ele>
        <time>2023-03-05T11:49:41Z</time>
        <extensions>
          <gpxtpx:TrackPointExtension xmlns:gpxtpx="http://www.garmin.com/xmlschemas/TrackPointExtension/v1">
            <gpxtpx:hr>125</gpxtpx:hr>
          </gpxtpx:TrackPointExtension>
        </extensions>
      </trkpt>
      <trkpt lat="43.11852" lon="1.27586">
        <ele>410.6</ele>
        <time>2023-03-05T11:49:42Z</time>
        <extensions>
          <gpxtpx:TrackPointExtension xmlns:gpxtpx="http://www.garmin.com/xmlschemas/TrackPointExtension/v1">
            <gpxtpx:hr>124</gpxtpx:hr>
          </gpxtpx:TrackPointExtension>
        </extensions>
      </trkpt>
      <trkpt lat="43.11849" lon="1.27585">
        <ele>410</ele>
        <time>2023-03-05T11:49:43Z</time>
        <extensions>
          <gpxtpx:TrackPointExtension xmlns:gpxtpx="http://www.garmin.com/xmlschemas/TrackPointExtension/v1">
            <gpxtpx:hr>124</gpxtpx:hr>
          </gpxtpx:TrackPointExtension>
        </extensions>
      </trkpt>
      <trkpt lat="43.11846" lon="1.27584">
        <ele>409.4</ele>
        <time>2023-03-05T11:49:44Z</time>
        <extensions>
          <gpxtpx:TrackPointExtension xmlns:gpxtpx="http://www.garmin.com/xmlschemas/TrackPointExtension/v1">
            <gpxtpx:hr>124</gpxtpx:hr>
          </gpxtpx:TrackPointExtension>
        </extensions>
      </trkpt>
      <trkpt lat="43.11843" lon="1.27583">
        <ele>408.2</ele>
        <time>2023-03-05T11:49:45Z</time>
        <extensions>
          <gpxtpx:TrackPointExtension xmlns:gpxtpx="http://www.garmin.com/xmlschemas/TrackPointExtension/v1">
            <gpxtpx:hr>124</gpxtpx:hr>
          </gpxtpx:TrackPointExtension>
        </extensions>
      </trkpt>
      <trkpt lat="43.1184" lon="1.27583">
        <ele>407.6</ele>
        <time>2023-03-05T11:49:46Z</time>
        <extensions>
          <gpxtpx:TrackPointExtension xmlns:gpxtpx="http://www.garmin.com/xmlschemas/TrackPointExtension/v1">
            <gpxtpx:hr>124</gpxtpx:hr>
          </gpxtpx:TrackPointExtension>
        </extensions>
      </trkpt>
      <trkpt lat="43.11837" lon="1.27582">
        <ele>407.2</ele>
        <time>2023-03-05T11:49:47Z</time>
        <extensions>
          <gpxtpx:TrackPointExtension xmlns:gpxtpx="http://www.garmin.com/xmlschemas/TrackPointExtension/v1">
            <gpxtpx:hr>123</gpxtpx:hr>
          </gpxtpx:TrackPointExtension>
        </extensions>
      </trkpt>
      <trkpt lat="43.11835" lon="1.27582">
        <ele>406.8</ele>
        <time>2023-03-05T11:49:48Z</time>
        <extensions>
          <gpxtpx:TrackPointExtension xmlns:gpxtpx="http://www.garmin.com/xmlschemas/TrackPointExtension/v1">
            <gpxtpx:hr>123</gpxtpx:hr>
          </gpxtpx:TrackPointExtension>
        </extensions>
      </trkpt>
      <trkpt lat="43.11832" lon="1.27582">
        <ele>406.2</ele>
        <time>2023-03-05T11:49:49Z</time>
        <extensions>
          <gpxtpx:TrackPointExtension xmlns:gpxtpx="http://www.garmin.com/xmlschemas/TrackPointExtension/v1">
            <gpxtpx:hr>123</gpxtpx:hr>
          </gpxtpx:TrackPointExtension>
        </extensions>
      </trkpt>
      <trkpt lat="43.11828" lon="1.27585">
        <ele>405.8</ele>
        <time>2023-03-05T11:49:50Z</time>
        <extensions>
          <gpxtpx:TrackPointExtension xmlns:gpxtpx="http://www.garmin.com/xmlschemas/TrackPointExtension/v1">
            <gpxtpx:hr>123</gpxtpx:hr>
          </gpxtpx:TrackPointExtension>
        </extensions>
      </trkpt>
      <trkpt lat="43.11825" lon="1.27588">
        <ele>405.2</ele>
        <time>2023-03-05T11:49:51Z</time>
        <extensions>
          <gpxtpx:TrackPointExtension xmlns:gpxtpx="http://www.garmin.com/xmlschemas/TrackPointExtension/v1">
            <gpxtpx:hr>124</gpxtpx:hr>
          </gpxtpx:TrackPointExtension>
        </extensions>
      </trkpt>
      <trkpt lat="43.11818" lon="1.27595">
        <ele>405.2</ele>
        <time>2023-03-05T11:49:53Z</time>
        <extensions>
          <gpxtpx:TrackPointExtension xmlns:gpxtpx="http://www.garmin.com/xmlschemas/TrackPointExtension/v1">
            <gpxtpx:hr>124</gpxtpx:hr>
          </gpxtpx:TrackPointExtension>
        </extensions>
      </trkpt>
      <trkpt lat="43.11811" lon="1.27604">
        <ele>405.2</ele>
        <time>2023-03-05T11:49:55Z</time>
        <extensions>
          <gpxtpx:TrackPointExtension xmlns:gpxtpx="http://www.garmin.com/xmlschemas/TrackPointExtension/v1">
            <gpxtpx:hr>125</gpxtpx:hr>
          </gpxtpx:TrackPointExtension>
        </extensions>
      </trkpt>
      <trkpt lat="43.11804" lon="1.27622">
        <ele>405.2</ele>
        <time>2023-03-05T11:49:59Z</time>
        <extensions>
          <gpxtpx:TrackPointExtension xmlns:gpxtpx="http://www.garmin.com/xmlschemas/TrackPointExtension/v1">
            <gpxtpx:hr>125</gpxtpx:hr>
          </gpxtpx:TrackPointExtension>
        </extensions>
      </trkpt>
      <trkpt lat="43.11798" lon="1.27635">
        <ele>405.8</ele>
        <time>2023-03-05T11:50:02Z</time>
        <extensions>
          <gpxtpx:TrackPointExtension xmlns:gpxtpx="http://www.garmin.com/xmlschemas/TrackPointExtension/v1">
            <gpxtpx:hr>125</gpxtpx:hr>
          </gpxtpx:TrackPointExtension>
        </extensions>
      </trkpt>
      <trkpt lat="43.11796" lon="1.27638">
        <ele>406.2</ele>
        <time>2023-03-05T11:50:03Z</time>
        <extensions>
          <gpxtpx:TrackPointExtension xmlns:gpxtpx="http://www.garmin.com/xmlschemas/TrackPointExtension/v1">
            <gpxtpx:hr>125</gpxtpx:hr>
          </gpxtpx:TrackPointExtension>
        </extensions>
      </trkpt>
      <trkpt lat="43.11793" lon="1.27643">
        <ele>406.6</ele>
        <time>2023-03-05T11:50:04Z</time>
        <extensions>
          <gpxtpx:TrackPointExtension xmlns:gpxtpx="http://www.garmin.com/xmlschemas/TrackPointExtension/v1">
            <gpxtpx:hr>125</gpxtpx:hr>
          </gpxtpx:TrackPointExtension>
        </extensions>
      </trkpt>
      <trkpt lat="43.1179" lon="1.27647">
        <ele>407</ele>
        <time>2023-03-05T11:50:05Z</time>
        <extensions>
          <gpxtpx:TrackPointExtension xmlns:gpxtpx="http://www.garmin.com/xmlschemas/TrackPointExtension/v1">
            <gpxtpx:hr>125</gpxtpx:hr>
          </gpxtpx:TrackPointExtension>
        </extensions>
      </trkpt>
      <trkpt lat="43.11787" lon="1.27651">
        <ele>407.6</ele>
        <time>2023-03-05T11:50:06Z</time>
        <extensions>
          <gpxtpx:TrackPointExtension xmlns:gpxtpx="http://www.garmin.com/xmlschemas/TrackPointExtension/v1">
            <gpxtpx:hr>126</gpxtpx:hr>
          </gpxtpx:TrackPointExtension>
        </extensions>
      </trkpt>
      <trkpt lat="43.11778" lon="1.2766">
        <ele>408</ele>
        <time>2023-03-05T11:50:09Z</time>
        <extensions>
          <gpxtpx:TrackPointExtension xmlns:gpxtpx="http://www.garmin.com/xmlschemas/TrackPointExtension/v1">
            <gpxtpx:hr>126</gpxtpx:hr>
          </gpxtpx:TrackPointExtension>
        </extensions>
      </trkpt>
      <trkpt lat="43.11774" lon="1.27663">
        <ele>409</ele>
        <time>2023-03-05T11:50:10Z</time>
        <extensions>
          <gpxtpx:TrackPointExtension xmlns:gpxtpx="http://www.garmin.com/xmlschemas/TrackPointExtension/v1">
            <gpxtpx:hr>126</gpxtpx:hr>
          </gpxtpx:TrackPointExtension>
        </extensions>
      </trkpt>
      <trkpt lat="43.11771" lon="1.27665">
        <ele>409.4</ele>
        <time>2023-03-05T11:50:11Z</time>
        <extensions>
          <gpxtpx:TrackPointExtension xmlns:gpxtpx="http://www.garmin.com/xmlschemas/TrackPointExtension/v1">
            <gpxtpx:hr>126</gpxtpx:hr>
          </gpxtpx:TrackPointExtension>
        </extensions>
      </trkpt>
      <trkpt lat="43.11768" lon="1.27667">
        <ele>410</ele>
        <time>2023-03-05T11:50:12Z</time>
        <extensions>
          <gpxtpx:TrackPointExtension xmlns:gpxtpx="http://www.garmin.com/xmlschemas/TrackPointExtension/v1">
            <gpxtpx:hr>126</gpxtpx:hr>
          </gpxtpx:TrackPointExtension>
        </extensions>
      </trkpt>
      <trkpt lat="43.11762" lon="1.27671">
        <ele>410.4</ele>
        <time>2023-03-05T11:50:14Z</time>
        <extensions>
          <gpxtpx:TrackPointExtension xmlns:gpxtpx="http://www.garmin.com/xmlschemas/TrackPointExtension/v1">
            <gpxtpx:hr>126</gpxtpx:hr>
          </gpxtpx:TrackPointExtension>
        </extensions>
      </trkpt>
      <trkpt lat="43.1176" lon="1.27673">
        <ele>410.8</ele>
        <time>2023-03-05T11:50:15Z</time>
        <extensions>
          <gpxtpx:TrackPointExtension xmlns:gpxtpx="http://www.garmin.com/xmlschemas/TrackPointExtension/v1">
            <gpxtpx:hr>126</gpxtpx:hr>
          </gpxtpx:TrackPointExtension>
        </extensions>
      </trkpt>
      <trkpt lat="43.11757" lon="1.27674">
        <ele>411.2</ele>
        <time>2023-03-05T11:50:16Z</time>
        <extensions>
          <gpxtpx:TrackPointExtension xmlns:gpxtpx="http://www.garmin.com/xmlschemas/TrackPointExtension/v1">
            <gpxtpx:hr>126</gpxtpx:hr>
          </gpxtpx:TrackPointExtension>
        </extensions>
      </trkpt>
      <trkpt lat="43.11754" lon="1.27676">
        <ele>411.6</ele>
        <time>2023-03-05T11:50:17Z</time>
        <extensions>
          <gpxtpx:TrackPointExtension xmlns:gpxtpx="http://www.garmin.com/xmlschemas/TrackPointExtension/v1">
            <gpxtpx:hr>126</gpxtpx:hr>
          </gpxtpx:TrackPointExtension>
        </extensions>
      </trkpt>
      <trkpt lat="43.11751" lon="1.27677">
        <ele>412</ele>
        <time>2023-03-05T11:50:18Z</time>
        <extensions>
          <gpxtpx:TrackPointExtension xmlns:gpxtpx="http://www.garmin.com/xmlschemas/TrackPointExtension/v1">
            <gpxtpx:hr>126</gpxtpx:hr>
          </gpxtpx:TrackPointExtension>
        </extensions>
      </trkpt>
      <trkpt lat="43.11742" lon="1.27682">
        <ele>412</ele>
        <time>2023-03-05T11:50:21Z</time>
        <extensions>
          <gpxtpx:TrackPointExtension xmlns:gpxtpx="http://www.garmin.com/xmlschemas/TrackPointExtension/v1">
            <gpxtpx:hr>126</gpxtpx:hr>
          </gpxtpx:TrackPointExtension>
        </extensions>
      </trkpt>
      <trkpt lat="43.11722" lon="1.27695">
        <ele>412</ele>
        <time>2023-03-05T11:50:27Z</time>
        <extensions>
          <gpxtpx:TrackPointExtension xmlns:gpxtpx="http://www.garmin.com/xmlschemas/TrackPointExtension/v1">
            <gpxtpx:hr>126</gpxtpx:hr>
          </gpxtpx:TrackPointExtension>
        </extensions>
      </trkpt>
      <trkpt lat="43.11711" lon="1.27702">
        <ele>412.4</ele>
        <time>2023-03-05T11:50:31Z</time>
        <extensions>
          <gpxtpx:TrackPointExtension xmlns:gpxtpx="http://www.garmin.com/xmlschemas/TrackPointExtension/v1">
            <gpxtpx:hr>125</gpxtpx:hr>
          </gpxtpx:TrackPointExtension>
        </extensions>
      </trkpt>
      <trkpt lat="43.11708" lon="1.27704">
        <ele>412.8</ele>
        <time>2023-03-05T11:50:32Z</time>
        <extensions>
          <gpxtpx:TrackPointExtension xmlns:gpxtpx="http://www.garmin.com/xmlschemas/TrackPointExtension/v1">
            <gpxtpx:hr>124</gpxtpx:hr>
          </gpxtpx:TrackPointExtension>
        </extensions>
      </trkpt>
      <trkpt lat="43.11705" lon="1.27706">
        <ele>413.2</ele>
        <time>2023-03-05T11:50:33Z</time>
        <extensions>
          <gpxtpx:TrackPointExtension xmlns:gpxtpx="http://www.garmin.com/xmlschemas/TrackPointExtension/v1">
            <gpxtpx:hr>124</gpxtpx:hr>
          </gpxtpx:TrackPointExtension>
        </extensions>
      </trkpt>
      <trkpt lat="43.11703" lon="1.27707">
        <ele>414</ele>
        <time>2023-03-05T11:50:34Z</time>
        <extensions>
          <gpxtpx:TrackPointExtension xmlns:gpxtpx="http://www.garmin.com/xmlschemas/TrackPointExtension/v1">
            <gpxtpx:hr>124</gpxtpx:hr>
          </gpxtpx:TrackPointExtension>
        </extensions>
      </trkpt>
      <trkpt lat="43.1169" lon="1.27712">
        <ele>414</ele>
        <time>2023-03-05T11:50:39Z</time>
        <extensions>
          <gpxtpx:TrackPointExtension xmlns:gpxtpx="http://www.garmin.com/xmlschemas/TrackPointExtension/v1">
            <gpxtpx:hr>124</gpxtpx:hr>
          </gpxtpx:TrackPointExtension>
        </extensions>
      </trkpt>
      <trkpt lat="43.11674" lon="1.27714">
        <ele>414</ele>
        <time>2023-03-05T11:50:44Z</time>
        <extensions>
          <gpxtpx:TrackPointExtension xmlns:gpxtpx="http://www.garmin.com/xmlschemas/TrackPointExtension/v1">
            <gpxtpx:hr>125</gpxtpx:hr>
          </gpxtpx:TrackPointExtension>
        </extensions>
      </trkpt>
      <trkpt lat="43.11663" lon="1.27715">
        <ele>414.4</ele>
        <time>2023-03-05T11:50:48Z</time>
        <extensions>
          <gpxtpx:TrackPointExtension xmlns:gpxtpx="http://www.garmin.com/xmlschemas/TrackPointExtension/v1">
            <gpxtpx:hr>124</gpxtpx:hr>
          </gpxtpx:TrackPointExtension>
        </extensions>
      </trkpt>
      <trkpt lat="43.1166" lon="1.27715">
        <ele>414.8</ele>
        <time>2023-03-05T11:50:49Z</time>
        <extensions>
          <gpxtpx:TrackPointExtension xmlns:gpxtpx="http://www.garmin.com/xmlschemas/TrackPointExtension/v1">
            <gpxtpx:hr>124</gpxtpx:hr>
          </gpxtpx:TrackPointExtension>
        </extensions>
      </trkpt>
      <trkpt lat="43.11657" lon="1.27716">
        <ele>415.2</ele>
        <time>2023-03-05T11:50:50Z</time>
        <extensions>
          <gpxtpx:TrackPointExtension xmlns:gpxtpx="http://www.garmin.com/xmlschemas/TrackPointExtension/v1">
            <gpxtpx:hr>124</gpxtpx:hr>
          </gpxtpx:TrackPointExtension>
        </extensions>
      </trkpt>
      <trkpt lat="43.11653" lon="1.27716">
        <ele>415.6</ele>
        <time>2023-03-05T11:50:51Z</time>
        <extensions>
          <gpxtpx:TrackPointExtension xmlns:gpxtpx="http://www.garmin.com/xmlschemas/TrackPointExtension/v1">
            <gpxtpx:hr>124</gpxtpx:hr>
          </gpxtpx:TrackPointExtension>
        </extensions>
      </trkpt>
      <trkpt lat="43.11649" lon="1.27715">
        <ele>416</ele>
        <time>2023-03-05T11:50:52Z</time>
        <extensions>
          <gpxtpx:TrackPointExtension xmlns:gpxtpx="http://www.garmin.com/xmlschemas/TrackPointExtension/v1">
            <gpxtpx:hr>123</gpxtpx:hr>
          </gpxtpx:TrackPointExtension>
        </extensions>
      </trkpt>
      <trkpt lat="43.11645" lon="1.27713">
        <ele>416</ele>
        <time>2023-03-05T11:50:53Z</time>
        <extensions>
          <gpxtpx:TrackPointExtension xmlns:gpxtpx="http://www.garmin.com/xmlschemas/TrackPointExtension/v1">
            <gpxtpx:hr>123</gpxtpx:hr>
          </gpxtpx:TrackPointExtension>
        </extensions>
      </trkpt>
      <trkpt lat="43.11637" lon="1.27709">
        <ele>416</ele>
        <time>2023-03-05T11:50:55Z</time>
        <extensions>
          <gpxtpx:TrackPointExtension xmlns:gpxtpx="http://www.garmin.com/xmlschemas/TrackPointExtension/v1">
            <gpxtpx:hr>122</gpxtpx:hr>
          </gpxtpx:TrackPointExtension>
        </extensions>
      </trkpt>
      <trkpt lat="43.11633" lon="1.27705">
        <ele>415.6</ele>
        <time>2023-03-05T11:50:56Z</time>
        <extensions>
          <gpxtpx:TrackPointExtension xmlns:gpxtpx="http://www.garmin.com/xmlschemas/TrackPointExtension/v1">
            <gpxtpx:hr>122</gpxtpx:hr>
          </gpxtpx:TrackPointExtension>
        </extensions>
      </trkpt>
      <trkpt lat="43.11628" lon="1.27703">
        <ele>414.8</ele>
        <time>2023-03-05T11:50:57Z</time>
        <extensions>
          <gpxtpx:TrackPointExtension xmlns:gpxtpx="http://www.garmin.com/xmlschemas/TrackPointExtension/v1">
            <gpxtpx:hr>122</gpxtpx:hr>
          </gpxtpx:TrackPointExtension>
        </extensions>
      </trkpt>
      <trkpt lat="43.11623" lon="1.277">
        <ele>414.2</ele>
        <time>2023-03-05T11:50:58Z</time>
        <extensions>
          <gpxtpx:TrackPointExtension xmlns:gpxtpx="http://www.garmin.com/xmlschemas/TrackPointExtension/v1">
            <gpxtpx:hr>122</gpxtpx:hr>
          </gpxtpx:TrackPointExtension>
        </extensions>
      </trkpt>
      <trkpt lat="43.11618" lon="1.27698">
        <ele>413.8</ele>
        <time>2023-03-05T11:50:59Z</time>
        <extensions>
          <gpxtpx:TrackPointExtension xmlns:gpxtpx="http://www.garmin.com/xmlschemas/TrackPointExtension/v1">
            <gpxtpx:hr>121</gpxtpx:hr>
          </gpxtpx:TrackPointExtension>
        </extensions>
      </trkpt>
      <trkpt lat="43.11613" lon="1.27695">
        <ele>413.4</ele>
        <time>2023-03-05T11:51:00Z</time>
        <extensions>
          <gpxtpx:TrackPointExtension xmlns:gpxtpx="http://www.garmin.com/xmlschemas/TrackPointExtension/v1">
            <gpxtpx:hr>121</gpxtpx:hr>
          </gpxtpx:TrackPointExtension>
        </extensions>
      </trkpt>
      <trkpt lat="43.11608" lon="1.27693">
        <ele>413</ele>
        <time>2023-03-05T11:51:01Z</time>
        <extensions>
          <gpxtpx:TrackPointExtension xmlns:gpxtpx="http://www.garmin.com/xmlschemas/TrackPointExtension/v1">
            <gpxtpx:hr>121</gpxtpx:hr>
          </gpxtpx:TrackPointExtension>
        </extensions>
      </trkpt>
      <trkpt lat="43.11603" lon="1.27691">
        <ele>412.6</ele>
        <time>2023-03-05T11:51:02Z</time>
        <extensions>
          <gpxtpx:TrackPointExtension xmlns:gpxtpx="http://www.garmin.com/xmlschemas/TrackPointExtension/v1">
            <gpxtpx:hr>121</gpxtpx:hr>
          </gpxtpx:TrackPointExtension>
        </extensions>
      </trkpt>
      <trkpt lat="43.11598" lon="1.2769">
        <ele>412.2</ele>
        <time>2023-03-05T11:51:03Z</time>
        <extensions>
          <gpxtpx:TrackPointExtension xmlns:gpxtpx="http://www.garmin.com/xmlschemas/TrackPointExtension/v1">
            <gpxtpx:hr>121</gpxtpx:hr>
          </gpxtpx:TrackPointExtension>
        </extensions>
      </trkpt>
      <trkpt lat="43.11594" lon="1.27688">
        <ele>411.6</ele>
        <time>2023-03-05T11:51:04Z</time>
        <extensions>
          <gpxtpx:TrackPointExtension xmlns:gpxtpx="http://www.garmin.com/xmlschemas/TrackPointExtension/v1">
            <gpxtpx:hr>120</gpxtpx:hr>
          </gpxtpx:TrackPointExtension>
        </extensions>
      </trkpt>
      <trkpt lat="43.1159" lon="1.27685">
        <ele>411.2</ele>
        <time>2023-03-05T11:51:05Z</time>
        <extensions>
          <gpxtpx:TrackPointExtension xmlns:gpxtpx="http://www.garmin.com/xmlschemas/TrackPointExtension/v1">
            <gpxtpx:hr>120</gpxtpx:hr>
          </gpxtpx:TrackPointExtension>
        </extensions>
      </trkpt>
      <trkpt lat="43.11586" lon="1.27682">
        <ele>410.6</ele>
        <time>2023-03-05T11:51:06Z</time>
        <extensions>
          <gpxtpx:TrackPointExtension xmlns:gpxtpx="http://www.garmin.com/xmlschemas/TrackPointExtension/v1">
            <gpxtpx:hr>120</gpxtpx:hr>
          </gpxtpx:TrackPointExtension>
        </extensions>
      </trkpt>
      <trkpt lat="43.11581" lon="1.27679">
        <ele>410</ele>
        <time>2023-03-05T11:51:07Z</time>
        <extensions>
          <gpxtpx:TrackPointExtension xmlns:gpxtpx="http://www.garmin.com/xmlschemas/TrackPointExtension/v1">
            <gpxtpx:hr>119</gpxtpx:hr>
          </gpxtpx:TrackPointExtension>
        </extensions>
      </trkpt>
      <trkpt lat="43.11576" lon="1.27674">
        <ele>409.6</ele>
        <time>2023-03-05T11:51:08Z</time>
        <extensions>
          <gpxtpx:TrackPointExtension xmlns:gpxtpx="http://www.garmin.com/xmlschemas/TrackPointExtension/v1">
            <gpxtpx:hr>118</gpxtpx:hr>
          </gpxtpx:TrackPointExtension>
        </extensions>
      </trkpt>
      <trkpt lat="43.11571" lon="1.27669">
        <ele>409.2</ele>
        <time>2023-03-05T11:51:09Z</time>
        <extensions>
          <gpxtpx:TrackPointExtension xmlns:gpxtpx="http://www.garmin.com/xmlschemas/TrackPointExtension/v1">
            <gpxtpx:hr>117</gpxtpx:hr>
          </gpxtpx:TrackPointExtension>
        </extensions>
      </trkpt>
      <trkpt lat="43.11566" lon="1.27664">
        <ele>408.6</ele>
        <time>2023-03-05T11:51:10Z</time>
        <extensions>
          <gpxtpx:TrackPointExtension xmlns:gpxtpx="http://www.garmin.com/xmlschemas/TrackPointExtension/v1">
            <gpxtpx:hr>116</gpxtpx:hr>
          </gpxtpx:TrackPointExtension>
        </extensions>
      </trkpt>
      <trkpt lat="43.11561" lon="1.2766">
        <ele>408.2</ele>
        <time>2023-03-05T11:51:11Z</time>
        <extensions>
          <gpxtpx:TrackPointExtension xmlns:gpxtpx="http://www.garmin.com/xmlschemas/TrackPointExtension/v1">
            <gpxtpx:hr>115</gpxtpx:hr>
          </gpxtpx:TrackPointExtension>
        </extensions>
      </trkpt>
      <trkpt lat="43.11556" lon="1.27657">
        <ele>407.8</ele>
        <time>2023-03-05T11:51:12Z</time>
        <extensions>
          <gpxtpx:TrackPointExtension xmlns:gpxtpx="http://www.garmin.com/xmlschemas/TrackPointExtension/v1">
            <gpxtpx:hr>115</gpxtpx:hr>
          </gpxtpx:TrackPointExtension>
        </extensions>
      </trkpt>
      <trkpt lat="43.1155" lon="1.27654">
        <ele>407.4</ele>
        <time>2023-03-05T11:51:13Z</time>
        <extensions>
          <gpxtpx:TrackPointExtension xmlns:gpxtpx="http://www.garmin.com/xmlschemas/TrackPointExtension/v1">
            <gpxtpx:hr>115</gpxtpx:hr>
          </gpxtpx:TrackPointExtension>
        </extensions>
      </trkpt>
      <trkpt lat="43.1154" lon="1.2765">
        <ele>407.4</ele>
        <time>2023-03-05T11:51:15Z</time>
        <extensions>
          <gpxtpx:TrackPointExtension xmlns:gpxtpx="http://www.garmin.com/xmlschemas/TrackPointExtension/v1">
            <gpxtpx:hr>115</gpxtpx:hr>
          </gpxtpx:TrackPointExtension>
        </extensions>
      </trkpt>
      <trkpt lat="43.11535" lon="1.27649">
        <ele>407.4</ele>
        <time>2023-03-05T11:51:16Z</time>
        <extensions>
          <gpxtpx:TrackPointExtension xmlns:gpxtpx="http://www.garmin.com/xmlschemas/TrackPointExtension/v1">
            <gpxtpx:hr>115</gpxtpx:hr>
          </gpxtpx:TrackPointExtension>
        </extensions>
      </trkpt>
      <trkpt lat="43.11531" lon="1.27649">
        <ele>407.4</ele>
        <time>2023-03-05T11:51:17Z</time>
        <extensions>
          <gpxtpx:TrackPointExtension xmlns:gpxtpx="http://www.garmin.com/xmlschemas/TrackPointExtension/v1">
            <gpxtpx:hr>115</gpxtpx:hr>
          </gpxtpx:TrackPointExtension>
        </extensions>
      </trkpt>
      <trkpt lat="43.11512" lon="1.27658">
        <ele>407.4</ele>
        <time>2023-03-05T11:51:22Z</time>
        <extensions>
          <gpxtpx:TrackPointExtension xmlns:gpxtpx="http://www.garmin.com/xmlschemas/TrackPointExtension/v1">
            <gpxtpx:hr>115</gpxtpx:hr>
          </gpxtpx:TrackPointExtension>
        </extensions>
      </trkpt>
      <trkpt lat="43.11501" lon="1.27671">
        <ele>407.4</ele>
        <time>2023-03-05T11:51:26Z</time>
        <extensions>
          <gpxtpx:TrackPointExtension xmlns:gpxtpx="http://www.garmin.com/xmlschemas/TrackPointExtension/v1">
            <gpxtpx:hr>114</gpxtpx:hr>
          </gpxtpx:TrackPointExtension>
        </extensions>
      </trkpt>
      <trkpt lat="43.11496" lon="1.27682">
        <ele>407.4</ele>
        <time>2023-03-05T11:51:29Z</time>
        <extensions>
          <gpxtpx:TrackPointExtension xmlns:gpxtpx="http://www.garmin.com/xmlschemas/TrackPointExtension/v1">
            <gpxtpx:hr>115</gpxtpx:hr>
          </gpxtpx:TrackPointExtension>
        </extensions>
      </trkpt>
      <trkpt lat="43.11494" lon="1.27682">
        <ele>407.4</ele>
        <time>2023-03-05T11:51:30Z</time>
        <extensions>
          <gpxtpx:TrackPointExtension xmlns:gpxtpx="http://www.garmin.com/xmlschemas/TrackPointExtension/v1">
            <gpxtpx:hr>115</gpxtpx:hr>
          </gpxtpx:TrackPointExtension>
        </extensions>
      </trkpt>
      <trkpt lat="43.11491" lon="1.27678">
        <ele>407.4</ele>
        <time>2023-03-05T11:51:34Z</time>
        <extensions>
          <gpxtpx:TrackPointExtension xmlns:gpxtpx="http://www.garmin.com/xmlschemas/TrackPointExtension/v1">
            <gpxtpx:hr>114</gpxtpx:hr>
          </gpxtpx:TrackPointExtension>
        </extensions>
      </trkpt>
      <trkpt lat="43.11488" lon="1.27664">
        <ele>407.4</ele>
        <time>2023-03-05T11:51:38Z</time>
        <extensions>
          <gpxtpx:TrackPointExtension xmlns:gpxtpx="http://www.garmin.com/xmlschemas/TrackPointExtension/v1">
            <gpxtpx:hr>115</gpxtpx:hr>
          </gpxtpx:TrackPointExtension>
        </extensions>
      </trkpt>
      <trkpt lat="43.11484" lon="1.27654">
        <ele>407.8</ele>
        <time>2023-03-05T11:51:41Z</time>
        <extensions>
          <gpxtpx:TrackPointExtension xmlns:gpxtpx="http://www.garmin.com/xmlschemas/TrackPointExtension/v1">
            <gpxtpx:hr>115</gpxtpx:hr>
          </gpxtpx:TrackPointExtension>
        </extensions>
      </trkpt>
      <trkpt lat="43.11483" lon="1.27651">
        <ele>408.2</ele>
        <time>2023-03-05T11:51:42Z</time>
        <extensions>
          <gpxtpx:TrackPointExtension xmlns:gpxtpx="http://www.garmin.com/xmlschemas/TrackPointExtension/v1">
            <gpxtpx:hr>116</gpxtpx:hr>
          </gpxtpx:TrackPointExtension>
        </extensions>
      </trkpt>
      <trkpt lat="43.11482" lon="1.27647">
        <ele>408.6</ele>
        <time>2023-03-05T11:51:43Z</time>
        <extensions>
          <gpxtpx:TrackPointExtension xmlns:gpxtpx="http://www.garmin.com/xmlschemas/TrackPointExtension/v1">
            <gpxtpx:hr>117</gpxtpx:hr>
          </gpxtpx:TrackPointExtension>
        </extensions>
      </trkpt>
      <trkpt lat="43.11482" lon="1.27643">
        <ele>409</ele>
        <time>2023-03-05T11:51:44Z</time>
        <extensions>
          <gpxtpx:TrackPointExtension xmlns:gpxtpx="http://www.garmin.com/xmlschemas/TrackPointExtension/v1">
            <gpxtpx:hr>117</gpxtpx:hr>
          </gpxtpx:TrackPointExtension>
        </extensions>
      </trkpt>
      <trkpt lat="43.11481" lon="1.2764">
        <ele>409.6</ele>
        <time>2023-03-05T11:51:45Z</time>
        <extensions>
          <gpxtpx:TrackPointExtension xmlns:gpxtpx="http://www.garmin.com/xmlschemas/TrackPointExtension/v1">
            <gpxtpx:hr>118</gpxtpx:hr>
          </gpxtpx:TrackPointExtension>
        </extensions>
      </trkpt>
      <trkpt lat="43.11481" lon="1.27625">
        <ele>410</ele>
        <time>2023-03-05T11:51:50Z</time>
        <extensions>
          <gpxtpx:TrackPointExtension xmlns:gpxtpx="http://www.garmin.com/xmlschemas/TrackPointExtension/v1">
            <gpxtpx:hr>118</gpxtpx:hr>
          </gpxtpx:TrackPointExtension>
        </extensions>
      </trkpt>
      <trkpt lat="43.11481" lon="1.27623">
        <ele>410.4</ele>
        <time>2023-03-05T11:51:51Z</time>
        <extensions>
          <gpxtpx:TrackPointExtension xmlns:gpxtpx="http://www.garmin.com/xmlschemas/TrackPointExtension/v1">
            <gpxtpx:hr>118</gpxtpx:hr>
          </gpxtpx:TrackPointExtension>
        </extensions>
      </trkpt>
      <trkpt lat="43.11481" lon="1.2762">
        <ele>410.8</ele>
        <time>2023-03-05T11:51:52Z</time>
        <extensions>
          <gpxtpx:TrackPointExtension xmlns:gpxtpx="http://www.garmin.com/xmlschemas/TrackPointExtension/v1">
            <gpxtpx:hr>118</gpxtpx:hr>
          </gpxtpx:TrackPointExtension>
        </extensions>
      </trkpt>
      <trkpt lat="43.11481" lon="1.27617">
        <ele>411.2</ele>
        <time>2023-03-05T11:51:53Z</time>
        <extensions>
          <gpxtpx:TrackPointExtension xmlns:gpxtpx="http://www.garmin.com/xmlschemas/TrackPointExtension/v1">
            <gpxtpx:hr>118</gpxtpx:hr>
          </gpxtpx:TrackPointExtension>
        </extensions>
      </trkpt>
      <trkpt lat="43.11481" lon="1.27614">
        <ele>411.6</ele>
        <time>2023-03-05T11:51:54Z</time>
        <extensions>
          <gpxtpx:TrackPointExtension xmlns:gpxtpx="http://www.garmin.com/xmlschemas/TrackPointExtension/v1">
            <gpxtpx:hr>117</gpxtpx:hr>
          </gpxtpx:TrackPointExtension>
        </extensions>
      </trkpt>
      <trkpt lat="43.11482" lon="1.27607">
        <ele>411.6</ele>
        <time>2023-03-05T11:51:56Z</time>
        <extensions>
          <gpxtpx:TrackPointExtension xmlns:gpxtpx="http://www.garmin.com/xmlschemas/TrackPointExtension/v1">
            <gpxtpx:hr>117</gpxtpx:hr>
          </gpxtpx:TrackPointExtension>
        </extensions>
      </trkpt>
      <trkpt lat="43.11484" lon="1.27596">
        <ele>412</ele>
        <time>2023-03-05T11:51:59Z</time>
        <extensions>
          <gpxtpx:TrackPointExtension xmlns:gpxtpx="http://www.garmin.com/xmlschemas/TrackPointExtension/v1">
            <gpxtpx:hr>116</gpxtpx:hr>
          </gpxtpx:TrackPointExtension>
        </extensions>
      </trkpt>
      <trkpt lat="43.11485" lon="1.27593">
        <ele>412.4</ele>
        <time>2023-03-05T11:52:00Z</time>
        <extensions>
          <gpxtpx:TrackPointExtension xmlns:gpxtpx="http://www.garmin.com/xmlschemas/TrackPointExtension/v1">
            <gpxtpx:hr>116</gpxtpx:hr>
          </gpxtpx:TrackPointExtension>
        </extensions>
      </trkpt>
      <trkpt lat="43.11485" lon="1.27589">
        <ele>412.8</ele>
        <time>2023-03-05T11:52:01Z</time>
        <extensions>
          <gpxtpx:TrackPointExtension xmlns:gpxtpx="http://www.garmin.com/xmlschemas/TrackPointExtension/v1">
            <gpxtpx:hr>116</gpxtpx:hr>
          </gpxtpx:TrackPointExtension>
        </extensions>
      </trkpt>
      <trkpt lat="43.11485" lon="1.27586">
        <ele>413.2</ele>
        <time>2023-03-05T11:52:02Z</time>
        <extensions>
          <gpxtpx:TrackPointExtension xmlns:gpxtpx="http://www.garmin.com/xmlschemas/TrackPointExtension/v1">
            <gpxtpx:hr>116</gpxtpx:hr>
          </gpxtpx:TrackPointExtension>
        </extensions>
      </trkpt>
      <trkpt lat="43.11485" lon="1.27583">
        <ele>413.6</ele>
        <time>2023-03-05T11:52:03Z</time>
        <extensions>
          <gpxtpx:TrackPointExtension xmlns:gpxtpx="http://www.garmin.com/xmlschemas/TrackPointExtension/v1">
            <gpxtpx:hr>116</gpxtpx:hr>
          </gpxtpx:TrackPointExtension>
        </extensions>
      </trkpt>
      <trkpt lat="43.11488" lon="1.27566">
        <ele>413.6</ele>
        <time>2023-03-05T11:52:08Z</time>
        <extensions>
          <gpxtpx:TrackPointExtension xmlns:gpxtpx="http://www.garmin.com/xmlschemas/TrackPointExtension/v1">
            <gpxtpx:hr>116</gpxtpx:hr>
          </gpxtpx:TrackPointExtension>
        </extensions>
      </trkpt>
      <trkpt lat="43.11489" lon="1.27562">
        <ele>414.2</ele>
        <time>2023-03-05T11:52:09Z</time>
        <extensions>
          <gpxtpx:TrackPointExtension xmlns:gpxtpx="http://www.garmin.com/xmlschemas/TrackPointExtension/v1">
            <gpxtpx:hr>116</gpxtpx:hr>
          </gpxtpx:TrackPointExtension>
        </extensions>
      </trkpt>
      <trkpt lat="43.1149" lon="1.27559">
        <ele>414.6</ele>
        <time>2023-03-05T11:52:10Z</time>
        <extensions>
          <gpxtpx:TrackPointExtension xmlns:gpxtpx="http://www.garmin.com/xmlschemas/TrackPointExtension/v1">
            <gpxtpx:hr>116</gpxtpx:hr>
          </gpxtpx:TrackPointExtension>
        </extensions>
      </trkpt>
      <trkpt lat="43.11491" lon="1.27555">
        <ele>415</ele>
        <time>2023-03-05T11:52:11Z</time>
        <extensions>
          <gpxtpx:TrackPointExtension xmlns:gpxtpx="http://www.garmin.com/xmlschemas/TrackPointExtension/v1">
            <gpxtpx:hr>116</gpxtpx:hr>
          </gpxtpx:TrackPointExtension>
        </extensions>
      </trkpt>
      <trkpt lat="43.11491" lon="1.2755">
        <ele>416</ele>
        <time>2023-03-05T11:52:12Z</time>
        <extensions>
          <gpxtpx:TrackPointExtension xmlns:gpxtpx="http://www.garmin.com/xmlschemas/TrackPointExtension/v1">
            <gpxtpx:hr>117</gpxtpx:hr>
          </gpxtpx:TrackPointExtension>
        </extensions>
      </trkpt>
      <trkpt lat="43.11493" lon="1.27538">
        <ele>416</ele>
        <time>2023-03-05T11:52:15Z</time>
        <extensions>
          <gpxtpx:TrackPointExtension xmlns:gpxtpx="http://www.garmin.com/xmlschemas/TrackPointExtension/v1">
            <gpxtpx:hr>118</gpxtpx:hr>
          </gpxtpx:TrackPointExtension>
        </extensions>
      </trkpt>
      <trkpt lat="43.11494" lon="1.27534">
        <ele>416.4</ele>
        <time>2023-03-05T11:52:16Z</time>
        <extensions>
          <gpxtpx:TrackPointExtension xmlns:gpxtpx="http://www.garmin.com/xmlschemas/TrackPointExtension/v1">
            <gpxtpx:hr>118</gpxtpx:hr>
          </gpxtpx:TrackPointExtension>
        </extensions>
      </trkpt>
      <trkpt lat="43.11495" lon="1.2753">
        <ele>416.8</ele>
        <time>2023-03-05T11:52:17Z</time>
        <extensions>
          <gpxtpx:TrackPointExtension xmlns:gpxtpx="http://www.garmin.com/xmlschemas/TrackPointExtension/v1">
            <gpxtpx:hr>118</gpxtpx:hr>
          </gpxtpx:TrackPointExtension>
        </extensions>
      </trkpt>
      <trkpt lat="43.11495" lon="1.27526">
        <ele>417.4</ele>
        <time>2023-03-05T11:52:18Z</time>
        <extensions>
          <gpxtpx:TrackPointExtension xmlns:gpxtpx="http://www.garmin.com/xmlschemas/TrackPointExtension/v1">
            <gpxtpx:hr>118</gpxtpx:hr>
          </gpxtpx:TrackPointExtension>
        </extensions>
      </trkpt>
      <trkpt lat="43.11496" lon="1.27522">
        <ele>417.8</ele>
        <time>2023-03-05T11:52:19Z</time>
        <extensions>
          <gpxtpx:TrackPointExtension xmlns:gpxtpx="http://www.garmin.com/xmlschemas/TrackPointExtension/v1">
            <gpxtpx:hr>119</gpxtpx:hr>
          </gpxtpx:TrackPointExtension>
        </extensions>
      </trkpt>
      <trkpt lat="43.11497" lon="1.27518">
        <ele>418.2</ele>
        <time>2023-03-05T11:52:20Z</time>
        <extensions>
          <gpxtpx:TrackPointExtension xmlns:gpxtpx="http://www.garmin.com/xmlschemas/TrackPointExtension/v1">
            <gpxtpx:hr>119</gpxtpx:hr>
          </gpxtpx:TrackPointExtension>
        </extensions>
      </trkpt>
      <trkpt lat="43.11498" lon="1.2751">
        <ele>418.2</ele>
        <time>2023-03-05T11:52:22Z</time>
        <extensions>
          <gpxtpx:TrackPointExtension xmlns:gpxtpx="http://www.garmin.com/xmlschemas/TrackPointExtension/v1">
            <gpxtpx:hr>120</gpxtpx:hr>
          </gpxtpx:TrackPointExtension>
        </extensions>
      </trkpt>
      <trkpt lat="43.11499" lon="1.27502">
        <ele>418.6</ele>
        <time>2023-03-05T11:52:24Z</time>
        <extensions>
          <gpxtpx:TrackPointExtension xmlns:gpxtpx="http://www.garmin.com/xmlschemas/TrackPointExtension/v1">
            <gpxtpx:hr>120</gpxtpx:hr>
          </gpxtpx:TrackPointExtension>
        </extensions>
      </trkpt>
      <trkpt lat="43.115" lon="1.27498">
        <ele>419.2</ele>
        <time>2023-03-05T11:52:25Z</time>
        <extensions>
          <gpxtpx:TrackPointExtension xmlns:gpxtpx="http://www.garmin.com/xmlschemas/TrackPointExtension/v1">
            <gpxtpx:hr>121</gpxtpx:hr>
          </gpxtpx:TrackPointExtension>
        </extensions>
      </trkpt>
      <trkpt lat="43.115" lon="1.27494">
        <ele>419.6</ele>
        <time>2023-03-05T11:52:26Z</time>
        <extensions>
          <gpxtpx:TrackPointExtension xmlns:gpxtpx="http://www.garmin.com/xmlschemas/TrackPointExtension/v1">
            <gpxtpx:hr>121</gpxtpx:hr>
          </gpxtpx:TrackPointExtension>
        </extensions>
      </trkpt>
      <trkpt lat="43.11501" lon="1.2749">
        <ele>420</ele>
        <time>2023-03-05T11:52:27Z</time>
        <extensions>
          <gpxtpx:TrackPointExtension xmlns:gpxtpx="http://www.garmin.com/xmlschemas/TrackPointExtension/v1">
            <gpxtpx:hr>122</gpxtpx:hr>
          </gpxtpx:TrackPointExtension>
        </extensions>
      </trkpt>
      <trkpt lat="43.11501" lon="1.27485">
        <ele>420.4</ele>
        <time>2023-03-05T11:52:28Z</time>
        <extensions>
          <gpxtpx:TrackPointExtension xmlns:gpxtpx="http://www.garmin.com/xmlschemas/TrackPointExtension/v1">
            <gpxtpx:hr>122</gpxtpx:hr>
          </gpxtpx:TrackPointExtension>
        </extensions>
      </trkpt>
      <trkpt lat="43.11502" lon="1.27481">
        <ele>420.4</ele>
        <time>2023-03-05T11:52:29Z</time>
        <extensions>
          <gpxtpx:TrackPointExtension xmlns:gpxtpx="http://www.garmin.com/xmlschemas/TrackPointExtension/v1">
            <gpxtpx:hr>123</gpxtpx:hr>
          </gpxtpx:TrackPointExtension>
        </extensions>
      </trkpt>
      <trkpt lat="43.11504" lon="1.27468">
        <ele>420.8</ele>
        <time>2023-03-05T11:52:32Z</time>
        <extensions>
          <gpxtpx:TrackPointExtension xmlns:gpxtpx="http://www.garmin.com/xmlschemas/TrackPointExtension/v1">
            <gpxtpx:hr>124</gpxtpx:hr>
          </gpxtpx:TrackPointExtension>
        </extensions>
      </trkpt>
      <trkpt lat="43.11504" lon="1.27464">
        <ele>421.2</ele>
        <time>2023-03-05T11:52:33Z</time>
        <extensions>
          <gpxtpx:TrackPointExtension xmlns:gpxtpx="http://www.garmin.com/xmlschemas/TrackPointExtension/v1">
            <gpxtpx:hr>124</gpxtpx:hr>
          </gpxtpx:TrackPointExtension>
        </extensions>
      </trkpt>
      <trkpt lat="43.11505" lon="1.2746">
        <ele>421.8</ele>
        <time>2023-03-05T11:52:34Z</time>
        <extensions>
          <gpxtpx:TrackPointExtension xmlns:gpxtpx="http://www.garmin.com/xmlschemas/TrackPointExtension/v1">
            <gpxtpx:hr>124</gpxtpx:hr>
          </gpxtpx:TrackPointExtension>
        </extensions>
      </trkpt>
      <trkpt lat="43.11505" lon="1.27455">
        <ele>422.2</ele>
        <time>2023-03-05T11:52:35Z</time>
        <extensions>
          <gpxtpx:TrackPointExtension xmlns:gpxtpx="http://www.garmin.com/xmlschemas/TrackPointExtension/v1">
            <gpxtpx:hr>124</gpxtpx:hr>
          </gpxtpx:TrackPointExtension>
        </extensions>
      </trkpt>
      <trkpt lat="43.11506" lon="1.27451">
        <ele>422.6</ele>
        <time>2023-03-05T11:52:36Z</time>
        <extensions>
          <gpxtpx:TrackPointExtension xmlns:gpxtpx="http://www.garmin.com/xmlschemas/TrackPointExtension/v1">
            <gpxtpx:hr>125</gpxtpx:hr>
          </gpxtpx:TrackPointExtension>
        </extensions>
      </trkpt>
      <trkpt lat="43.11506" lon="1.27447">
        <ele>422.6</ele>
        <time>2023-03-05T11:52:37Z</time>
        <extensions>
          <gpxtpx:TrackPointExtension xmlns:gpxtpx="http://www.garmin.com/xmlschemas/TrackPointExtension/v1">
            <gpxtpx:hr>125</gpxtpx:hr>
          </gpxtpx:TrackPointExtension>
        </extensions>
      </trkpt>
      <trkpt lat="43.11507" lon="1.27443">
        <ele>423</ele>
        <time>2023-03-05T11:52:38Z</time>
        <extensions>
          <gpxtpx:TrackPointExtension xmlns:gpxtpx="http://www.garmin.com/xmlschemas/TrackPointExtension/v1">
            <gpxtpx:hr>125</gpxtpx:hr>
          </gpxtpx:TrackPointExtension>
        </extensions>
      </trkpt>
      <trkpt lat="43.11508" lon="1.27439">
        <ele>423.4</ele>
        <time>2023-03-05T11:52:39Z</time>
        <extensions>
          <gpxtpx:TrackPointExtension xmlns:gpxtpx="http://www.garmin.com/xmlschemas/TrackPointExtension/v1">
            <gpxtpx:hr>126</gpxtpx:hr>
          </gpxtpx:TrackPointExtension>
        </extensions>
      </trkpt>
      <trkpt lat="43.11508" lon="1.27434">
        <ele>423.8</ele>
        <time>2023-03-05T11:52:40Z</time>
        <extensions>
          <gpxtpx:TrackPointExtension xmlns:gpxtpx="http://www.garmin.com/xmlschemas/TrackPointExtension/v1">
            <gpxtpx:hr>126</gpxtpx:hr>
          </gpxtpx:TrackPointExtension>
        </extensions>
      </trkpt>
      <trkpt lat="43.11509" lon="1.27431">
        <ele>424.2</ele>
        <time>2023-03-05T11:52:41Z</time>
        <extensions>
          <gpxtpx:TrackPointExtension xmlns:gpxtpx="http://www.garmin.com/xmlschemas/TrackPointExtension/v1">
            <gpxtpx:hr>126</gpxtpx:hr>
          </gpxtpx:TrackPointExtension>
        </extensions>
      </trkpt>
      <trkpt lat="43.11509" lon="1.27427">
        <ele>424.6</ele>
        <time>2023-03-05T11:52:42Z</time>
        <extensions>
          <gpxtpx:TrackPointExtension xmlns:gpxtpx="http://www.garmin.com/xmlschemas/TrackPointExtension/v1">
            <gpxtpx:hr>126</gpxtpx:hr>
          </gpxtpx:TrackPointExtension>
        </extensions>
      </trkpt>
      <trkpt lat="43.1151" lon="1.27422">
        <ele>424.6</ele>
        <time>2023-03-05T11:52:43Z</time>
        <extensions>
          <gpxtpx:TrackPointExtension xmlns:gpxtpx="http://www.garmin.com/xmlschemas/TrackPointExtension/v1">
            <gpxtpx:hr>127</gpxtpx:hr>
          </gpxtpx:TrackPointExtension>
        </extensions>
      </trkpt>
      <trkpt lat="43.11511" lon="1.27414">
        <ele>425</ele>
        <time>2023-03-05T11:52:45Z</time>
        <extensions>
          <gpxtpx:TrackPointExtension xmlns:gpxtpx="http://www.garmin.com/xmlschemas/TrackPointExtension/v1">
            <gpxtpx:hr>127</gpxtpx:hr>
          </gpxtpx:TrackPointExtension>
        </extensions>
      </trkpt>
      <trkpt lat="43.11512" lon="1.2741">
        <ele>425.4</ele>
        <time>2023-03-05T11:52:46Z</time>
        <extensions>
          <gpxtpx:TrackPointExtension xmlns:gpxtpx="http://www.garmin.com/xmlschemas/TrackPointExtension/v1">
            <gpxtpx:hr>127</gpxtpx:hr>
          </gpxtpx:TrackPointExtension>
        </extensions>
      </trkpt>
      <trkpt lat="43.11512" lon="1.27406">
        <ele>425.8</ele>
        <time>2023-03-05T11:52:47Z</time>
        <extensions>
          <gpxtpx:TrackPointExtension xmlns:gpxtpx="http://www.garmin.com/xmlschemas/TrackPointExtension/v1">
            <gpxtpx:hr>128</gpxtpx:hr>
          </gpxtpx:TrackPointExtension>
        </extensions>
      </trkpt>
      <trkpt lat="43.11513" lon="1.27402">
        <ele>426.2</ele>
        <time>2023-03-05T11:52:48Z</time>
        <extensions>
          <gpxtpx:TrackPointExtension xmlns:gpxtpx="http://www.garmin.com/xmlschemas/TrackPointExtension/v1">
            <gpxtpx:hr>128</gpxtpx:hr>
          </gpxtpx:TrackPointExtension>
        </extensions>
      </trkpt>
      <trkpt lat="43.11514" lon="1.27398">
        <ele>426.6</ele>
        <time>2023-03-05T11:52:49Z</time>
        <extensions>
          <gpxtpx:TrackPointExtension xmlns:gpxtpx="http://www.garmin.com/xmlschemas/TrackPointExtension/v1">
            <gpxtpx:hr>128</gpxtpx:hr>
          </gpxtpx:TrackPointExtension>
        </extensions>
      </trkpt>
      <trkpt lat="43.11515" lon="1.27383">
        <ele>427.2</ele>
        <time>2023-03-05T11:52:53Z</time>
        <extensions>
          <gpxtpx:TrackPointExtension xmlns:gpxtpx="http://www.garmin.com/xmlschemas/TrackPointExtension/v1">
            <gpxtpx:hr>129</gpxtpx:hr>
          </gpxtpx:TrackPointExtension>
        </extensions>
      </trkpt>
      <trkpt lat="43.11516" lon="1.27379">
        <ele>427.6</ele>
        <time>2023-03-05T11:52:54Z</time>
        <extensions>
          <gpxtpx:TrackPointExtension xmlns:gpxtpx="http://www.garmin.com/xmlschemas/TrackPointExtension/v1">
            <gpxtpx:hr>129</gpxtpx:hr>
          </gpxtpx:TrackPointExtension>
        </extensions>
      </trkpt>
      <trkpt lat="43.11516" lon="1.27376">
        <ele>428</ele>
        <time>2023-03-05T11:52:55Z</time>
        <extensions>
          <gpxtpx:TrackPointExtension xmlns:gpxtpx="http://www.garmin.com/xmlschemas/TrackPointExtension/v1">
            <gpxtpx:hr>129</gpxtpx:hr>
          </gpxtpx:TrackPointExtension>
        </extensions>
      </trkpt>
      <trkpt lat="43.11516" lon="1.27372">
        <ele>428.4</ele>
        <time>2023-03-05T11:52:56Z</time>
        <extensions>
          <gpxtpx:TrackPointExtension xmlns:gpxtpx="http://www.garmin.com/xmlschemas/TrackPointExtension/v1">
            <gpxtpx:hr>128</gpxtpx:hr>
          </gpxtpx:TrackPointExtension>
        </extensions>
      </trkpt>
      <trkpt lat="43.11517" lon="1.27368">
        <ele>429</ele>
        <time>2023-03-05T11:52:57Z</time>
        <extensions>
          <gpxtpx:TrackPointExtension xmlns:gpxtpx="http://www.garmin.com/xmlschemas/TrackPointExtension/v1">
            <gpxtpx:hr>128</gpxtpx:hr>
          </gpxtpx:TrackPointExtension>
        </extensions>
      </trkpt>
      <trkpt lat="43.11518" lon="1.27358">
        <ele>429.4</ele>
        <time>2023-03-05T11:53:00Z</time>
        <extensions>
          <gpxtpx:TrackPointExtension xmlns:gpxtpx="http://www.garmin.com/xmlschemas/TrackPointExtension/v1">
            <gpxtpx:hr>129</gpxtpx:hr>
          </gpxtpx:TrackPointExtension>
        </extensions>
      </trkpt>
      <trkpt lat="43.11519" lon="1.27354">
        <ele>430.4</ele>
        <time>2023-03-05T11:53:01Z</time>
        <extensions>
          <gpxtpx:TrackPointExtension xmlns:gpxtpx="http://www.garmin.com/xmlschemas/TrackPointExtension/v1">
            <gpxtpx:hr>129</gpxtpx:hr>
          </gpxtpx:TrackPointExtension>
        </extensions>
      </trkpt>
      <trkpt lat="43.1152" lon="1.2735">
        <ele>430.8</ele>
        <time>2023-03-05T11:53:02Z</time>
        <extensions>
          <gpxtpx:TrackPointExtension xmlns:gpxtpx="http://www.garmin.com/xmlschemas/TrackPointExtension/v1">
            <gpxtpx:hr>129</gpxtpx:hr>
          </gpxtpx:TrackPointExtension>
        </extensions>
      </trkpt>
      <trkpt lat="43.1152" lon="1.27347">
        <ele>431.2</ele>
        <time>2023-03-05T11:53:03Z</time>
        <extensions>
          <gpxtpx:TrackPointExtension xmlns:gpxtpx="http://www.garmin.com/xmlschemas/TrackPointExtension/v1">
            <gpxtpx:hr>130</gpxtpx:hr>
          </gpxtpx:TrackPointExtension>
        </extensions>
      </trkpt>
      <trkpt lat="43.11521" lon="1.27339">
        <ele>431.2</ele>
        <time>2023-03-05T11:53:05Z</time>
        <extensions>
          <gpxtpx:TrackPointExtension xmlns:gpxtpx="http://www.garmin.com/xmlschemas/TrackPointExtension/v1">
            <gpxtpx:hr>130</gpxtpx:hr>
          </gpxtpx:TrackPointExtension>
        </extensions>
      </trkpt>
      <trkpt lat="43.11521" lon="1.27335">
        <ele>431.6</ele>
        <time>2023-03-05T11:53:06Z</time>
        <extensions>
          <gpxtpx:TrackPointExtension xmlns:gpxtpx="http://www.garmin.com/xmlschemas/TrackPointExtension/v1">
            <gpxtpx:hr>131</gpxtpx:hr>
          </gpxtpx:TrackPointExtension>
        </extensions>
      </trkpt>
      <trkpt lat="43.11522" lon="1.27331">
        <ele>432</ele>
        <time>2023-03-05T11:53:07Z</time>
        <extensions>
          <gpxtpx:TrackPointExtension xmlns:gpxtpx="http://www.garmin.com/xmlschemas/TrackPointExtension/v1">
            <gpxtpx:hr>131</gpxtpx:hr>
          </gpxtpx:TrackPointExtension>
        </extensions>
      </trkpt>
      <trkpt lat="43.11522" lon="1.27327">
        <ele>432.4</ele>
        <time>2023-03-05T11:53:08Z</time>
        <extensions>
          <gpxtpx:TrackPointExtension xmlns:gpxtpx="http://www.garmin.com/xmlschemas/TrackPointExtension/v1">
            <gpxtpx:hr>131</gpxtpx:hr>
          </gpxtpx:TrackPointExtension>
        </extensions>
      </trkpt>
      <trkpt lat="43.11521" lon="1.27323">
        <ele>432.8</ele>
        <time>2023-03-05T11:53:09Z</time>
        <extensions>
          <gpxtpx:TrackPointExtension xmlns:gpxtpx="http://www.garmin.com/xmlschemas/TrackPointExtension/v1">
            <gpxtpx:hr>131</gpxtpx:hr>
          </gpxtpx:TrackPointExtension>
        </extensions>
      </trkpt>
      <trkpt lat="43.1152" lon="1.27319">
        <ele>433.4</ele>
        <time>2023-03-05T11:53:10Z</time>
        <extensions>
          <gpxtpx:TrackPointExtension xmlns:gpxtpx="http://www.garmin.com/xmlschemas/TrackPointExtension/v1">
            <gpxtpx:hr>131</gpxtpx:hr>
          </gpxtpx:TrackPointExtension>
        </extensions>
      </trkpt>
      <trkpt lat="43.11519" lon="1.27311">
        <ele>433.4</ele>
        <time>2023-03-05T11:53:12Z</time>
        <extensions>
          <gpxtpx:TrackPointExtension xmlns:gpxtpx="http://www.garmin.com/xmlschemas/TrackPointExtension/v1">
            <gpxtpx:hr>131</gpxtpx:hr>
          </gpxtpx:TrackPointExtension>
        </extensions>
      </trkpt>
      <trkpt lat="43.11515" lon="1.273">
        <ele>433.8</ele>
        <time>2023-03-05T11:53:15Z</time>
        <extensions>
          <gpxtpx:TrackPointExtension xmlns:gpxtpx="http://www.garmin.com/xmlschemas/TrackPointExtension/v1">
            <gpxtpx:hr>132</gpxtpx:hr>
          </gpxtpx:TrackPointExtension>
        </extensions>
      </trkpt>
      <trkpt lat="43.11514" lon="1.27296">
        <ele>434.2</ele>
        <time>2023-03-05T11:53:16Z</time>
        <extensions>
          <gpxtpx:TrackPointExtension xmlns:gpxtpx="http://www.garmin.com/xmlschemas/TrackPointExtension/v1">
            <gpxtpx:hr>132</gpxtpx:hr>
          </gpxtpx:TrackPointExtension>
        </extensions>
      </trkpt>
      <trkpt lat="43.11513" lon="1.27292">
        <ele>434.6</ele>
        <time>2023-03-05T11:53:17Z</time>
        <extensions>
          <gpxtpx:TrackPointExtension xmlns:gpxtpx="http://www.garmin.com/xmlschemas/TrackPointExtension/v1">
            <gpxtpx:hr>133</gpxtpx:hr>
          </gpxtpx:TrackPointExtension>
        </extensions>
      </trkpt>
      <trkpt lat="43.11512" lon="1.27289">
        <ele>435</ele>
        <time>2023-03-05T11:53:18Z</time>
        <extensions>
          <gpxtpx:TrackPointExtension xmlns:gpxtpx="http://www.garmin.com/xmlschemas/TrackPointExtension/v1">
            <gpxtpx:hr>133</gpxtpx:hr>
          </gpxtpx:TrackPointExtension>
        </extensions>
      </trkpt>
      <trkpt lat="43.1151" lon="1.27285">
        <ele>435.4</ele>
        <time>2023-03-05T11:53:19Z</time>
        <extensions>
          <gpxtpx:TrackPointExtension xmlns:gpxtpx="http://www.garmin.com/xmlschemas/TrackPointExtension/v1">
            <gpxtpx:hr>133</gpxtpx:hr>
          </gpxtpx:TrackPointExtension>
        </extensions>
      </trkpt>
      <trkpt lat="43.11504" lon="1.27267">
        <ele>435.4</ele>
        <time>2023-03-05T11:53:24Z</time>
        <extensions>
          <gpxtpx:TrackPointExtension xmlns:gpxtpx="http://www.garmin.com/xmlschemas/TrackPointExtension/v1">
            <gpxtpx:hr>134</gpxtpx:hr>
          </gpxtpx:TrackPointExtension>
        </extensions>
      </trkpt>
      <trkpt lat="43.11503" lon="1.27263">
        <ele>435.8</ele>
        <time>2023-03-05T11:53:25Z</time>
        <extensions>
          <gpxtpx:TrackPointExtension xmlns:gpxtpx="http://www.garmin.com/xmlschemas/TrackPointExtension/v1">
            <gpxtpx:hr>133</gpxtpx:hr>
          </gpxtpx:TrackPointExtension>
        </extensions>
      </trkpt>
      <trkpt lat="43.11502" lon="1.27259">
        <ele>436.8</ele>
        <time>2023-03-05T11:53:26Z</time>
        <extensions>
          <gpxtpx:TrackPointExtension xmlns:gpxtpx="http://www.garmin.com/xmlschemas/TrackPointExtension/v1">
            <gpxtpx:hr>133</gpxtpx:hr>
          </gpxtpx:TrackPointExtension>
        </extensions>
      </trkpt>
      <trkpt lat="43.11501" lon="1.27255">
        <ele>437.2</ele>
        <time>2023-03-05T11:53:27Z</time>
        <extensions>
          <gpxtpx:TrackPointExtension xmlns:gpxtpx="http://www.garmin.com/xmlschemas/TrackPointExtension/v1">
            <gpxtpx:hr>132</gpxtpx:hr>
          </gpxtpx:TrackPointExtension>
        </extensions>
      </trkpt>
      <trkpt lat="43.115" lon="1.27251">
        <ele>437.8</ele>
        <time>2023-03-05T11:53:28Z</time>
        <extensions>
          <gpxtpx:TrackPointExtension xmlns:gpxtpx="http://www.garmin.com/xmlschemas/TrackPointExtension/v1">
            <gpxtpx:hr>132</gpxtpx:hr>
          </gpxtpx:TrackPointExtension>
        </extensions>
      </trkpt>
      <trkpt lat="43.11498" lon="1.2724">
        <ele>437.8</ele>
        <time>2023-03-05T11:53:31Z</time>
        <extensions>
          <gpxtpx:TrackPointExtension xmlns:gpxtpx="http://www.garmin.com/xmlschemas/TrackPointExtension/v1">
            <gpxtpx:hr>133</gpxtpx:hr>
          </gpxtpx:TrackPointExtension>
        </extensions>
      </trkpt>
      <trkpt lat="43.11498" lon="1.27237">
        <ele>438.2</ele>
        <time>2023-03-05T11:53:32Z</time>
        <extensions>
          <gpxtpx:TrackPointExtension xmlns:gpxtpx="http://www.garmin.com/xmlschemas/TrackPointExtension/v1">
            <gpxtpx:hr>133</gpxtpx:hr>
          </gpxtpx:TrackPointExtension>
        </extensions>
      </trkpt>
      <trkpt lat="43.11498" lon="1.27233">
        <ele>438.6</ele>
        <time>2023-03-05T11:53:33Z</time>
        <extensions>
          <gpxtpx:TrackPointExtension xmlns:gpxtpx="http://www.garmin.com/xmlschemas/TrackPointExtension/v1">
            <gpxtpx:hr>133</gpxtpx:hr>
          </gpxtpx:TrackPointExtension>
        </extensions>
      </trkpt>
      <trkpt lat="43.11498" lon="1.2723">
        <ele>439</ele>
        <time>2023-03-05T11:53:34Z</time>
        <extensions>
          <gpxtpx:TrackPointExtension xmlns:gpxtpx="http://www.garmin.com/xmlschemas/TrackPointExtension/v1">
            <gpxtpx:hr>133</gpxtpx:hr>
          </gpxtpx:TrackPointExtension>
        </extensions>
      </trkpt>
      <trkpt lat="43.11497" lon="1.27227">
        <ele>439.4</ele>
        <time>2023-03-05T11:53:35Z</time>
        <extensions>
          <gpxtpx:TrackPointExtension xmlns:gpxtpx="http://www.garmin.com/xmlschemas/TrackPointExtension/v1">
            <gpxtpx:hr>133</gpxtpx:hr>
          </gpxtpx:TrackPointExtension>
        </extensions>
      </trkpt>
      <trkpt lat="43.11497" lon="1.27223">
        <ele>440</ele>
        <time>2023-03-05T11:53:36Z</time>
        <extensions>
          <gpxtpx:TrackPointExtension xmlns:gpxtpx="http://www.garmin.com/xmlschemas/TrackPointExtension/v1">
            <gpxtpx:hr>132</gpxtpx:hr>
          </gpxtpx:TrackPointExtension>
        </extensions>
      </trkpt>
      <trkpt lat="43.11496" lon="1.27216">
        <ele>440</ele>
        <time>2023-03-05T11:53:38Z</time>
        <extensions>
          <gpxtpx:TrackPointExtension xmlns:gpxtpx="http://www.garmin.com/xmlschemas/TrackPointExtension/v1">
            <gpxtpx:hr>132</gpxtpx:hr>
          </gpxtpx:TrackPointExtension>
        </extensions>
      </trkpt>
      <trkpt lat="43.11497" lon="1.27201">
        <ele>440.4</ele>
        <time>2023-03-05T11:53:43Z</time>
        <extensions>
          <gpxtpx:TrackPointExtension xmlns:gpxtpx="http://www.garmin.com/xmlschemas/TrackPointExtension/v1">
            <gpxtpx:hr>130</gpxtpx:hr>
          </gpxtpx:TrackPointExtension>
        </extensions>
      </trkpt>
      <trkpt lat="43.11497" lon="1.27199">
        <ele>440.8</ele>
        <time>2023-03-05T11:53:44Z</time>
        <extensions>
          <gpxtpx:TrackPointExtension xmlns:gpxtpx="http://www.garmin.com/xmlschemas/TrackPointExtension/v1">
            <gpxtpx:hr>129</gpxtpx:hr>
          </gpxtpx:TrackPointExtension>
        </extensions>
      </trkpt>
      <trkpt lat="43.11497" lon="1.27196">
        <ele>441.2</ele>
        <time>2023-03-05T11:53:45Z</time>
        <extensions>
          <gpxtpx:TrackPointExtension xmlns:gpxtpx="http://www.garmin.com/xmlschemas/TrackPointExtension/v1">
            <gpxtpx:hr>129</gpxtpx:hr>
          </gpxtpx:TrackPointExtension>
        </extensions>
      </trkpt>
      <trkpt lat="43.11497" lon="1.27194">
        <ele>441.6</ele>
        <time>2023-03-05T11:53:46Z</time>
        <extensions>
          <gpxtpx:TrackPointExtension xmlns:gpxtpx="http://www.garmin.com/xmlschemas/TrackPointExtension/v1">
            <gpxtpx:hr>129</gpxtpx:hr>
          </gpxtpx:TrackPointExtension>
        </extensions>
      </trkpt>
      <trkpt lat="43.11497" lon="1.27191">
        <ele>442</ele>
        <time>2023-03-05T11:53:47Z</time>
        <extensions>
          <gpxtpx:TrackPointExtension xmlns:gpxtpx="http://www.garmin.com/xmlschemas/TrackPointExtension/v1">
            <gpxtpx:hr>129</gpxtpx:hr>
          </gpxtpx:TrackPointExtension>
        </extensions>
      </trkpt>
      <trkpt lat="43.11498" lon="1.27185">
        <ele>442</ele>
        <time>2023-03-05T11:53:49Z</time>
        <extensions>
          <gpxtpx:TrackPointExtension xmlns:gpxtpx="http://www.garmin.com/xmlschemas/TrackPointExtension/v1">
            <gpxtpx:hr>129</gpxtpx:hr>
          </gpxtpx:TrackPointExtension>
        </extensions>
      </trkpt>
      <trkpt lat="43.11498" lon="1.27181">
        <ele>442</ele>
        <time>2023-03-05T11:53:50Z</time>
        <extensions>
          <gpxtpx:TrackPointExtension xmlns:gpxtpx="http://www.garmin.com/xmlschemas/TrackPointExtension/v1">
            <gpxtpx:hr>128</gpxtpx:hr>
          </gpxtpx:TrackPointExtension>
        </extensions>
      </trkpt>
      <trkpt lat="43.115" lon="1.27175">
        <ele>442.4</ele>
        <time>2023-03-05T11:53:52Z</time>
        <extensions>
          <gpxtpx:TrackPointExtension xmlns:gpxtpx="http://www.garmin.com/xmlschemas/TrackPointExtension/v1">
            <gpxtpx:hr>129</gpxtpx:hr>
          </gpxtpx:TrackPointExtension>
        </extensions>
      </trkpt>
      <trkpt lat="43.11501" lon="1.27172">
        <ele>442.8</ele>
        <time>2023-03-05T11:53:53Z</time>
        <extensions>
          <gpxtpx:TrackPointExtension xmlns:gpxtpx="http://www.garmin.com/xmlschemas/TrackPointExtension/v1">
            <gpxtpx:hr>129</gpxtpx:hr>
          </gpxtpx:TrackPointExtension>
        </extensions>
      </trkpt>
      <trkpt lat="43.11502" lon="1.27168">
        <ele>443.2</ele>
        <time>2023-03-05T11:53:54Z</time>
        <extensions>
          <gpxtpx:TrackPointExtension xmlns:gpxtpx="http://www.garmin.com/xmlschemas/TrackPointExtension/v1">
            <gpxtpx:hr>129</gpxtpx:hr>
          </gpxtpx:TrackPointExtension>
        </extensions>
      </trkpt>
      <trkpt lat="43.11503" lon="1.27165">
        <ele>443.6</ele>
        <time>2023-03-05T11:53:55Z</time>
        <extensions>
          <gpxtpx:TrackPointExtension xmlns:gpxtpx="http://www.garmin.com/xmlschemas/TrackPointExtension/v1">
            <gpxtpx:hr>129</gpxtpx:hr>
          </gpxtpx:TrackPointExtension>
        </extensions>
      </trkpt>
      <trkpt lat="43.11505" lon="1.27162">
        <ele>444</ele>
        <time>2023-03-05T11:53:56Z</time>
        <extensions>
          <gpxtpx:TrackPointExtension xmlns:gpxtpx="http://www.garmin.com/xmlschemas/TrackPointExtension/v1">
            <gpxtpx:hr>129</gpxtpx:hr>
          </gpxtpx:TrackPointExtension>
        </extensions>
      </trkpt>
      <trkpt lat="43.11513" lon="1.27145">
        <ele>444</ele>
        <time>2023-03-05T11:54:02Z</time>
        <extensions>
          <gpxtpx:TrackPointExtension xmlns:gpxtpx="http://www.garmin.com/xmlschemas/TrackPointExtension/v1">
            <gpxtpx:hr>129</gpxtpx:hr>
          </gpxtpx:TrackPointExtension>
        </extensions>
      </trkpt>
      <trkpt lat="43.11514" lon="1.27142">
        <ele>444.4</ele>
        <time>2023-03-05T11:54:03Z</time>
        <extensions>
          <gpxtpx:TrackPointExtension xmlns:gpxtpx="http://www.garmin.com/xmlschemas/TrackPointExtension/v1">
            <gpxtpx:hr>128</gpxtpx:hr>
          </gpxtpx:TrackPointExtension>
        </extensions>
      </trkpt>
      <trkpt lat="43.11515" lon="1.2714">
        <ele>444.8</ele>
        <time>2023-03-05T11:54:04Z</time>
        <extensions>
          <gpxtpx:TrackPointExtension xmlns:gpxtpx="http://www.garmin.com/xmlschemas/TrackPointExtension/v1">
            <gpxtpx:hr>128</gpxtpx:hr>
          </gpxtpx:TrackPointExtension>
        </extensions>
      </trkpt>
      <trkpt lat="43.11515" lon="1.27139">
        <ele>445.2</ele>
        <time>2023-03-05T11:54:05Z</time>
        <extensions>
          <gpxtpx:TrackPointExtension xmlns:gpxtpx="http://www.garmin.com/xmlschemas/TrackPointExtension/v1">
            <gpxtpx:hr>128</gpxtpx:hr>
          </gpxtpx:TrackPointExtension>
        </extensions>
      </trkpt>
      <trkpt lat="43.11515" lon="1.27137">
        <ele>445.8</ele>
        <time>2023-03-05T11:54:06Z</time>
        <extensions>
          <gpxtpx:TrackPointExtension xmlns:gpxtpx="http://www.garmin.com/xmlschemas/TrackPointExtension/v1">
            <gpxtpx:hr>127</gpxtpx:hr>
          </gpxtpx:TrackPointExtension>
        </extensions>
      </trkpt>
      <trkpt lat="43.11514" lon="1.27137">
        <ele>446.2</ele>
        <time>2023-03-05T11:54:07Z</time>
        <extensions>
          <gpxtpx:TrackPointExtension xmlns:gpxtpx="http://www.garmin.com/xmlschemas/TrackPointExtension/v1">
            <gpxtpx:hr>127</gpxtpx:hr>
          </gpxtpx:TrackPointExtension>
        </extensions>
      </trkpt>
      <trkpt lat="43.1151" lon="1.27138">
        <ele>446.2</ele>
        <time>2023-03-05T11:54:10Z</time>
        <extensions>
          <gpxtpx:TrackPointExtension xmlns:gpxtpx="http://www.garmin.com/xmlschemas/TrackPointExtension/v1">
            <gpxtpx:hr>126</gpxtpx:hr>
          </gpxtpx:TrackPointExtension>
        </extensions>
      </trkpt>
      <trkpt lat="43.11507" lon="1.2714">
        <ele>446.2</ele>
        <time>2023-03-05T11:54:12Z</time>
        <extensions>
          <gpxtpx:TrackPointExtension xmlns:gpxtpx="http://www.garmin.com/xmlschemas/TrackPointExtension/v1">
            <gpxtpx:hr>125</gpxtpx:hr>
          </gpxtpx:TrackPointExtension>
        </extensions>
      </trkpt>
      <trkpt lat="43.11504" lon="1.27143">
        <ele>446.2</ele>
        <time>2023-03-05T11:54:14Z</time>
        <extensions>
          <gpxtpx:TrackPointExtension xmlns:gpxtpx="http://www.garmin.com/xmlschemas/TrackPointExtension/v1">
            <gpxtpx:hr>125</gpxtpx:hr>
          </gpxtpx:TrackPointExtension>
        </extensions>
      </trkpt>
      <trkpt lat="43.11503" lon="1.27145">
        <ele>445.8</ele>
        <time>2023-03-05T11:54:15Z</time>
        <extensions>
          <gpxtpx:TrackPointExtension xmlns:gpxtpx="http://www.garmin.com/xmlschemas/TrackPointExtension/v1">
            <gpxtpx:hr>124</gpxtpx:hr>
          </gpxtpx:TrackPointExtension>
        </extensions>
      </trkpt>
      <trkpt lat="43.11501" lon="1.27146">
        <ele>445.2</ele>
        <time>2023-03-05T11:54:16Z</time>
        <extensions>
          <gpxtpx:TrackPointExtension xmlns:gpxtpx="http://www.garmin.com/xmlschemas/TrackPointExtension/v1">
            <gpxtpx:hr>124</gpxtpx:hr>
          </gpxtpx:TrackPointExtension>
        </extensions>
      </trkpt>
      <trkpt lat="43.115" lon="1.27147">
        <ele>444.8</ele>
        <time>2023-03-05T11:54:17Z</time>
        <extensions>
          <gpxtpx:TrackPointExtension xmlns:gpxtpx="http://www.garmin.com/xmlschemas/TrackPointExtension/v1">
            <gpxtpx:hr>124</gpxtpx:hr>
          </gpxtpx:TrackPointExtension>
        </extensions>
      </trkpt>
      <trkpt lat="43.11499" lon="1.27149">
        <ele>444.4</ele>
        <time>2023-03-05T11:54:18Z</time>
        <extensions>
          <gpxtpx:TrackPointExtension xmlns:gpxtpx="http://www.garmin.com/xmlschemas/TrackPointExtension/v1">
            <gpxtpx:hr>124</gpxtpx:hr>
          </gpxtpx:TrackPointExtension>
        </extensions>
      </trkpt>
      <trkpt lat="43.11499" lon="1.27151">
        <ele>444</ele>
        <time>2023-03-05T11:54:19Z</time>
        <extensions>
          <gpxtpx:TrackPointExtension xmlns:gpxtpx="http://www.garmin.com/xmlschemas/TrackPointExtension/v1">
            <gpxtpx:hr>123</gpxtpx:hr>
          </gpxtpx:TrackPointExtension>
        </extensions>
      </trkpt>
      <trkpt lat="43.11496" lon="1.27162">
        <ele>444</ele>
        <time>2023-03-05T11:54:25Z</time>
        <extensions>
          <gpxtpx:TrackPointExtension xmlns:gpxtpx="http://www.garmin.com/xmlschemas/TrackPointExtension/v1">
            <gpxtpx:hr>124</gpxtpx:hr>
          </gpxtpx:TrackPointExtension>
        </extensions>
      </trkpt>
      <trkpt lat="43.11494" lon="1.27167">
        <ele>443.6</ele>
        <time>2023-03-05T11:54:27Z</time>
        <extensions>
          <gpxtpx:TrackPointExtension xmlns:gpxtpx="http://www.garmin.com/xmlschemas/TrackPointExtension/v1">
            <gpxtpx:hr>123</gpxtpx:hr>
          </gpxtpx:TrackPointExtension>
        </extensions>
      </trkpt>
      <trkpt lat="43.11494" lon="1.27171">
        <ele>443.2</ele>
        <time>2023-03-05T11:54:28Z</time>
        <extensions>
          <gpxtpx:TrackPointExtension xmlns:gpxtpx="http://www.garmin.com/xmlschemas/TrackPointExtension/v1">
            <gpxtpx:hr>123</gpxtpx:hr>
          </gpxtpx:TrackPointExtension>
        </extensions>
      </trkpt>
      <trkpt lat="43.11493" lon="1.27174">
        <ele>442.8</ele>
        <time>2023-03-05T11:54:29Z</time>
        <extensions>
          <gpxtpx:TrackPointExtension xmlns:gpxtpx="http://www.garmin.com/xmlschemas/TrackPointExtension/v1">
            <gpxtpx:hr>124</gpxtpx:hr>
          </gpxtpx:TrackPointExtension>
        </extensions>
      </trkpt>
      <trkpt lat="43.11492" lon="1.27177">
        <ele>442.4</ele>
        <time>2023-03-05T11:54:30Z</time>
        <extensions>
          <gpxtpx:TrackPointExtension xmlns:gpxtpx="http://www.garmin.com/xmlschemas/TrackPointExtension/v1">
            <gpxtpx:hr>123</gpxtpx:hr>
          </gpxtpx:TrackPointExtension>
        </extensions>
      </trkpt>
      <trkpt lat="43.11492" lon="1.2718">
        <ele>441.8</ele>
        <time>2023-03-05T11:54:31Z</time>
        <extensions>
          <gpxtpx:TrackPointExtension xmlns:gpxtpx="http://www.garmin.com/xmlschemas/TrackPointExtension/v1">
            <gpxtpx:hr>123</gpxtpx:hr>
          </gpxtpx:TrackPointExtension>
        </extensions>
      </trkpt>
      <trkpt lat="43.11491" lon="1.27181">
        <ele>441.4</ele>
        <time>2023-03-05T11:54:32Z</time>
        <extensions>
          <gpxtpx:TrackPointExtension xmlns:gpxtpx="http://www.garmin.com/xmlschemas/TrackPointExtension/v1">
            <gpxtpx:hr>123</gpxtpx:hr>
          </gpxtpx:TrackPointExtension>
        </extensions>
      </trkpt>
      <trkpt lat="43.11489" lon="1.27182">
        <ele>441</ele>
        <time>2023-03-05T11:54:33Z</time>
        <extensions>
          <gpxtpx:TrackPointExtension xmlns:gpxtpx="http://www.garmin.com/xmlschemas/TrackPointExtension/v1">
            <gpxtpx:hr>124</gpxtpx:hr>
          </gpxtpx:TrackPointExtension>
        </extensions>
      </trkpt>
      <trkpt lat="43.11485" lon="1.27181">
        <ele>440.6</ele>
        <time>2023-03-05T11:54:34Z</time>
        <extensions>
          <gpxtpx:TrackPointExtension xmlns:gpxtpx="http://www.garmin.com/xmlschemas/TrackPointExtension/v1">
            <gpxtpx:hr>123</gpxtpx:hr>
          </gpxtpx:TrackPointExtension>
        </extensions>
      </trkpt>
      <trkpt lat="43.11484" lon="1.27179">
        <ele>440.2</ele>
        <time>2023-03-05T11:54:35Z</time>
        <extensions>
          <gpxtpx:TrackPointExtension xmlns:gpxtpx="http://www.garmin.com/xmlschemas/TrackPointExtension/v1">
            <gpxtpx:hr>122</gpxtpx:hr>
          </gpxtpx:TrackPointExtension>
        </extensions>
      </trkpt>
      <trkpt lat="43.11482" lon="1.27175">
        <ele>439.8</ele>
        <time>2023-03-05T11:54:36Z</time>
        <extensions>
          <gpxtpx:TrackPointExtension xmlns:gpxtpx="http://www.garmin.com/xmlschemas/TrackPointExtension/v1">
            <gpxtpx:hr>122</gpxtpx:hr>
          </gpxtpx:TrackPointExtension>
        </extensions>
      </trkpt>
      <trkpt lat="43.11481" lon="1.27171">
        <ele>439.8</ele>
        <time>2023-03-05T11:54:37Z</time>
        <extensions>
          <gpxtpx:TrackPointExtension xmlns:gpxtpx="http://www.garmin.com/xmlschemas/TrackPointExtension/v1">
            <gpxtpx:hr>121</gpxtpx:hr>
          </gpxtpx:TrackPointExtension>
        </extensions>
      </trkpt>
      <trkpt lat="43.1148" lon="1.27165">
        <ele>439.8</ele>
        <time>2023-03-05T11:54:38Z</time>
        <extensions>
          <gpxtpx:TrackPointExtension xmlns:gpxtpx="http://www.garmin.com/xmlschemas/TrackPointExtension/v1">
            <gpxtpx:hr>120</gpxtpx:hr>
          </gpxtpx:TrackPointExtension>
        </extensions>
      </trkpt>
      <trkpt lat="43.1148" lon="1.27159">
        <ele>439.2</ele>
        <time>2023-03-05T11:54:39Z</time>
        <extensions>
          <gpxtpx:TrackPointExtension xmlns:gpxtpx="http://www.garmin.com/xmlschemas/TrackPointExtension/v1">
            <gpxtpx:hr>119</gpxtpx:hr>
          </gpxtpx:TrackPointExtension>
        </extensions>
      </trkpt>
      <trkpt lat="43.11479" lon="1.27154">
        <ele>438.4</ele>
        <time>2023-03-05T11:54:40Z</time>
        <extensions>
          <gpxtpx:TrackPointExtension xmlns:gpxtpx="http://www.garmin.com/xmlschemas/TrackPointExtension/v1">
            <gpxtpx:hr>119</gpxtpx:hr>
          </gpxtpx:TrackPointExtension>
        </extensions>
      </trkpt>
      <trkpt lat="43.11479" lon="1.2715">
        <ele>437.8</ele>
        <time>2023-03-05T11:54:41Z</time>
        <extensions>
          <gpxtpx:TrackPointExtension xmlns:gpxtpx="http://www.garmin.com/xmlschemas/TrackPointExtension/v1">
            <gpxtpx:hr>118</gpxtpx:hr>
          </gpxtpx:TrackPointExtension>
        </extensions>
      </trkpt>
      <trkpt lat="43.11478" lon="1.27145">
        <ele>437.4</ele>
        <time>2023-03-05T11:54:42Z</time>
        <extensions>
          <gpxtpx:TrackPointExtension xmlns:gpxtpx="http://www.garmin.com/xmlschemas/TrackPointExtension/v1">
            <gpxtpx:hr>118</gpxtpx:hr>
          </gpxtpx:TrackPointExtension>
        </extensions>
      </trkpt>
      <trkpt lat="43.11475" lon="1.27132">
        <ele>437</ele>
        <time>2023-03-05T11:54:45Z</time>
        <extensions>
          <gpxtpx:TrackPointExtension xmlns:gpxtpx="http://www.garmin.com/xmlschemas/TrackPointExtension/v1">
            <gpxtpx:hr>116</gpxtpx:hr>
          </gpxtpx:TrackPointExtension>
        </extensions>
      </trkpt>
      <trkpt lat="43.11474" lon="1.27127">
        <ele>436.4</ele>
        <time>2023-03-05T11:54:46Z</time>
        <extensions>
          <gpxtpx:TrackPointExtension xmlns:gpxtpx="http://www.garmin.com/xmlschemas/TrackPointExtension/v1">
            <gpxtpx:hr>115</gpxtpx:hr>
          </gpxtpx:TrackPointExtension>
        </extensions>
      </trkpt>
      <trkpt lat="43.11472" lon="1.27122">
        <ele>436</ele>
        <time>2023-03-05T11:54:47Z</time>
        <extensions>
          <gpxtpx:TrackPointExtension xmlns:gpxtpx="http://www.garmin.com/xmlschemas/TrackPointExtension/v1">
            <gpxtpx:hr>113</gpxtpx:hr>
          </gpxtpx:TrackPointExtension>
        </extensions>
      </trkpt>
      <trkpt lat="43.1147" lon="1.27118">
        <ele>435.6</ele>
        <time>2023-03-05T11:54:48Z</time>
        <extensions>
          <gpxtpx:TrackPointExtension xmlns:gpxtpx="http://www.garmin.com/xmlschemas/TrackPointExtension/v1">
            <gpxtpx:hr>112</gpxtpx:hr>
          </gpxtpx:TrackPointExtension>
        </extensions>
      </trkpt>
      <trkpt lat="43.11469" lon="1.27115">
        <ele>435</ele>
        <time>2023-03-05T11:54:49Z</time>
        <extensions>
          <gpxtpx:TrackPointExtension xmlns:gpxtpx="http://www.garmin.com/xmlschemas/TrackPointExtension/v1">
            <gpxtpx:hr>110</gpxtpx:hr>
          </gpxtpx:TrackPointExtension>
        </extensions>
      </trkpt>
      <trkpt lat="43.11467" lon="1.27113">
        <ele>434.4</ele>
        <time>2023-03-05T11:54:50Z</time>
        <extensions>
          <gpxtpx:TrackPointExtension xmlns:gpxtpx="http://www.garmin.com/xmlschemas/TrackPointExtension/v1">
            <gpxtpx:hr>110</gpxtpx:hr>
          </gpxtpx:TrackPointExtension>
        </extensions>
      </trkpt>
      <trkpt lat="43.11465" lon="1.27112">
        <ele>433.8</ele>
        <time>2023-03-05T11:54:51Z</time>
        <extensions>
          <gpxtpx:TrackPointExtension xmlns:gpxtpx="http://www.garmin.com/xmlschemas/TrackPointExtension/v1">
            <gpxtpx:hr>110</gpxtpx:hr>
          </gpxtpx:TrackPointExtension>
        </extensions>
      </trkpt>
      <trkpt lat="43.11464" lon="1.27112">
        <ele>433.4</ele>
        <time>2023-03-05T11:54:52Z</time>
        <extensions>
          <gpxtpx:TrackPointExtension xmlns:gpxtpx="http://www.garmin.com/xmlschemas/TrackPointExtension/v1">
            <gpxtpx:hr>110</gpxtpx:hr>
          </gpxtpx:TrackPointExtension>
        </extensions>
      </trkpt>
      <trkpt lat="43.11462" lon="1.27113">
        <ele>432.8</ele>
        <time>2023-03-05T11:54:53Z</time>
        <extensions>
          <gpxtpx:TrackPointExtension xmlns:gpxtpx="http://www.garmin.com/xmlschemas/TrackPointExtension/v1">
            <gpxtpx:hr>110</gpxtpx:hr>
          </gpxtpx:TrackPointExtension>
        </extensions>
      </trkpt>
      <trkpt lat="43.11458" lon="1.27118">
        <ele>432.8</ele>
        <time>2023-03-05T11:54:55Z</time>
        <extensions>
          <gpxtpx:TrackPointExtension xmlns:gpxtpx="http://www.garmin.com/xmlschemas/TrackPointExtension/v1">
            <gpxtpx:hr>111</gpxtpx:hr>
          </gpxtpx:TrackPointExtension>
        </extensions>
      </trkpt>
      <trkpt lat="43.11458" lon="1.27121">
        <ele>432.4</ele>
        <time>2023-03-05T11:54:56Z</time>
        <extensions>
          <gpxtpx:TrackPointExtension xmlns:gpxtpx="http://www.garmin.com/xmlschemas/TrackPointExtension/v1">
            <gpxtpx:hr>111</gpxtpx:hr>
          </gpxtpx:TrackPointExtension>
        </extensions>
      </trkpt>
      <trkpt lat="43.11456" lon="1.27125">
        <ele>432</ele>
        <time>2023-03-05T11:54:57Z</time>
        <extensions>
          <gpxtpx:TrackPointExtension xmlns:gpxtpx="http://www.garmin.com/xmlschemas/TrackPointExtension/v1">
            <gpxtpx:hr>111</gpxtpx:hr>
          </gpxtpx:TrackPointExtension>
        </extensions>
      </trkpt>
      <trkpt lat="43.11455" lon="1.27129">
        <ele>431.4</ele>
        <time>2023-03-05T11:54:58Z</time>
        <extensions>
          <gpxtpx:TrackPointExtension xmlns:gpxtpx="http://www.garmin.com/xmlschemas/TrackPointExtension/v1">
            <gpxtpx:hr>111</gpxtpx:hr>
          </gpxtpx:TrackPointExtension>
        </extensions>
      </trkpt>
      <trkpt lat="43.11453" lon="1.27133">
        <ele>431</ele>
        <time>2023-03-05T11:54:59Z</time>
        <extensions>
          <gpxtpx:TrackPointExtension xmlns:gpxtpx="http://www.garmin.com/xmlschemas/TrackPointExtension/v1">
            <gpxtpx:hr>111</gpxtpx:hr>
          </gpxtpx:TrackPointExtension>
        </extensions>
      </trkpt>
      <trkpt lat="43.11451" lon="1.27136">
        <ele>430.6</ele>
        <time>2023-03-05T11:55:00Z</time>
        <extensions>
          <gpxtpx:TrackPointExtension xmlns:gpxtpx="http://www.garmin.com/xmlschemas/TrackPointExtension/v1">
            <gpxtpx:hr>111</gpxtpx:hr>
          </gpxtpx:TrackPointExtension>
        </extensions>
      </trkpt>
      <trkpt lat="43.1145" lon="1.27139">
        <ele>430.2</ele>
        <time>2023-03-05T11:55:01Z</time>
        <extensions>
          <gpxtpx:TrackPointExtension xmlns:gpxtpx="http://www.garmin.com/xmlschemas/TrackPointExtension/v1">
            <gpxtpx:hr>111</gpxtpx:hr>
          </gpxtpx:TrackPointExtension>
        </extensions>
      </trkpt>
      <trkpt lat="43.11448" lon="1.27141">
        <ele>429.8</ele>
        <time>2023-03-05T11:55:02Z</time>
        <extensions>
          <gpxtpx:TrackPointExtension xmlns:gpxtpx="http://www.garmin.com/xmlschemas/TrackPointExtension/v1">
            <gpxtpx:hr>111</gpxtpx:hr>
          </gpxtpx:TrackPointExtension>
        </extensions>
      </trkpt>
      <trkpt lat="43.11446" lon="1.27144">
        <ele>429.4</ele>
        <time>2023-03-05T11:55:03Z</time>
        <extensions>
          <gpxtpx:TrackPointExtension xmlns:gpxtpx="http://www.garmin.com/xmlschemas/TrackPointExtension/v1">
            <gpxtpx:hr>112</gpxtpx:hr>
          </gpxtpx:TrackPointExtension>
        </extensions>
      </trkpt>
      <trkpt lat="43.11443" lon="1.27147">
        <ele>429</ele>
        <time>2023-03-05T11:55:04Z</time>
        <extensions>
          <gpxtpx:TrackPointExtension xmlns:gpxtpx="http://www.garmin.com/xmlschemas/TrackPointExtension/v1">
            <gpxtpx:hr>113</gpxtpx:hr>
          </gpxtpx:TrackPointExtension>
        </extensions>
      </trkpt>
      <trkpt lat="43.11439" lon="1.27148">
        <ele>428.2</ele>
        <time>2023-03-05T11:55:05Z</time>
        <extensions>
          <gpxtpx:TrackPointExtension xmlns:gpxtpx="http://www.garmin.com/xmlschemas/TrackPointExtension/v1">
            <gpxtpx:hr>114</gpxtpx:hr>
          </gpxtpx:TrackPointExtension>
        </extensions>
      </trkpt>
      <trkpt lat="43.11435" lon="1.27149">
        <ele>427.6</ele>
        <time>2023-03-05T11:55:06Z</time>
        <extensions>
          <gpxtpx:TrackPointExtension xmlns:gpxtpx="http://www.garmin.com/xmlschemas/TrackPointExtension/v1">
            <gpxtpx:hr>114</gpxtpx:hr>
          </gpxtpx:TrackPointExtension>
        </extensions>
      </trkpt>
      <trkpt lat="43.11431" lon="1.2715">
        <ele>427.2</ele>
        <time>2023-03-05T11:55:07Z</time>
        <extensions>
          <gpxtpx:TrackPointExtension xmlns:gpxtpx="http://www.garmin.com/xmlschemas/TrackPointExtension/v1">
            <gpxtpx:hr>115</gpxtpx:hr>
          </gpxtpx:TrackPointExtension>
        </extensions>
      </trkpt>
      <trkpt lat="43.11427" lon="1.27149">
        <ele>426.6</ele>
        <time>2023-03-05T11:55:08Z</time>
        <extensions>
          <gpxtpx:TrackPointExtension xmlns:gpxtpx="http://www.garmin.com/xmlschemas/TrackPointExtension/v1">
            <gpxtpx:hr>116</gpxtpx:hr>
          </gpxtpx:TrackPointExtension>
        </extensions>
      </trkpt>
      <trkpt lat="43.11424" lon="1.27148">
        <ele>426</ele>
        <time>2023-03-05T11:55:09Z</time>
        <extensions>
          <gpxtpx:TrackPointExtension xmlns:gpxtpx="http://www.garmin.com/xmlschemas/TrackPointExtension/v1">
            <gpxtpx:hr>115</gpxtpx:hr>
          </gpxtpx:TrackPointExtension>
        </extensions>
      </trkpt>
      <trkpt lat="43.11421" lon="1.27147">
        <ele>425.4</ele>
        <time>2023-03-05T11:55:10Z</time>
        <extensions>
          <gpxtpx:TrackPointExtension xmlns:gpxtpx="http://www.garmin.com/xmlschemas/TrackPointExtension/v1">
            <gpxtpx:hr>115</gpxtpx:hr>
          </gpxtpx:TrackPointExtension>
        </extensions>
      </trkpt>
      <trkpt lat="43.11418" lon="1.27147">
        <ele>424.8</ele>
        <time>2023-03-05T11:55:11Z</time>
        <extensions>
          <gpxtpx:TrackPointExtension xmlns:gpxtpx="http://www.garmin.com/xmlschemas/TrackPointExtension/v1">
            <gpxtpx:hr>116</gpxtpx:hr>
          </gpxtpx:TrackPointExtension>
        </extensions>
      </trkpt>
      <trkpt lat="43.11414" lon="1.27147">
        <ele>424.2</ele>
        <time>2023-03-05T11:55:12Z</time>
        <extensions>
          <gpxtpx:TrackPointExtension xmlns:gpxtpx="http://www.garmin.com/xmlschemas/TrackPointExtension/v1">
            <gpxtpx:hr>115</gpxtpx:hr>
          </gpxtpx:TrackPointExtension>
        </extensions>
      </trkpt>
      <trkpt lat="43.1141" lon="1.27147">
        <ele>423.6</ele>
        <time>2023-03-05T11:55:13Z</time>
        <extensions>
          <gpxtpx:TrackPointExtension xmlns:gpxtpx="http://www.garmin.com/xmlschemas/TrackPointExtension/v1">
            <gpxtpx:hr>115</gpxtpx:hr>
          </gpxtpx:TrackPointExtension>
        </extensions>
      </trkpt>
      <trkpt lat="43.11406" lon="1.27147">
        <ele>423</ele>
        <time>2023-03-05T11:55:14Z</time>
        <extensions>
          <gpxtpx:TrackPointExtension xmlns:gpxtpx="http://www.garmin.com/xmlschemas/TrackPointExtension/v1">
            <gpxtpx:hr>115</gpxtpx:hr>
          </gpxtpx:TrackPointExtension>
        </extensions>
      </trkpt>
      <trkpt lat="43.11402" lon="1.27148">
        <ele>422.4</ele>
        <time>2023-03-05T11:55:15Z</time>
        <extensions>
          <gpxtpx:TrackPointExtension xmlns:gpxtpx="http://www.garmin.com/xmlschemas/TrackPointExtension/v1">
            <gpxtpx:hr>114</gpxtpx:hr>
          </gpxtpx:TrackPointExtension>
        </extensions>
      </trkpt>
      <trkpt lat="43.11398" lon="1.27148">
        <ele>421.8</ele>
        <time>2023-03-05T11:55:16Z</time>
        <extensions>
          <gpxtpx:TrackPointExtension xmlns:gpxtpx="http://www.garmin.com/xmlschemas/TrackPointExtension/v1">
            <gpxtpx:hr>114</gpxtpx:hr>
          </gpxtpx:TrackPointExtension>
        </extensions>
      </trkpt>
      <trkpt lat="43.11393" lon="1.27148">
        <ele>421.2</ele>
        <time>2023-03-05T11:55:17Z</time>
        <extensions>
          <gpxtpx:TrackPointExtension xmlns:gpxtpx="http://www.garmin.com/xmlschemas/TrackPointExtension/v1">
            <gpxtpx:hr>114</gpxtpx:hr>
          </gpxtpx:TrackPointExtension>
        </extensions>
      </trkpt>
      <trkpt lat="43.1139" lon="1.27149">
        <ele>420.4</ele>
        <time>2023-03-05T11:55:18Z</time>
        <extensions>
          <gpxtpx:TrackPointExtension xmlns:gpxtpx="http://www.garmin.com/xmlschemas/TrackPointExtension/v1">
            <gpxtpx:hr>114</gpxtpx:hr>
          </gpxtpx:TrackPointExtension>
        </extensions>
      </trkpt>
      <trkpt lat="43.11386" lon="1.27151">
        <ele>419.8</ele>
        <time>2023-03-05T11:55:19Z</time>
        <extensions>
          <gpxtpx:TrackPointExtension xmlns:gpxtpx="http://www.garmin.com/xmlschemas/TrackPointExtension/v1">
            <gpxtpx:hr>113</gpxtpx:hr>
          </gpxtpx:TrackPointExtension>
        </extensions>
      </trkpt>
      <trkpt lat="43.11382" lon="1.27153">
        <ele>419.2</ele>
        <time>2023-03-05T11:55:20Z</time>
        <extensions>
          <gpxtpx:TrackPointExtension xmlns:gpxtpx="http://www.garmin.com/xmlschemas/TrackPointExtension/v1">
            <gpxtpx:hr>113</gpxtpx:hr>
          </gpxtpx:TrackPointExtension>
        </extensions>
      </trkpt>
      <trkpt lat="43.11378" lon="1.27156">
        <ele>419.2</ele>
        <time>2023-03-05T11:55:21Z</time>
        <extensions>
          <gpxtpx:TrackPointExtension xmlns:gpxtpx="http://www.garmin.com/xmlschemas/TrackPointExtension/v1">
            <gpxtpx:hr>113</gpxtpx:hr>
          </gpxtpx:TrackPointExtension>
        </extensions>
      </trkpt>
      <trkpt lat="43.11375" lon="1.2716">
        <ele>418.8</ele>
        <time>2023-03-05T11:55:22Z</time>
        <extensions>
          <gpxtpx:TrackPointExtension xmlns:gpxtpx="http://www.garmin.com/xmlschemas/TrackPointExtension/v1">
            <gpxtpx:hr>113</gpxtpx:hr>
          </gpxtpx:TrackPointExtension>
        </extensions>
      </trkpt>
      <trkpt lat="43.11372" lon="1.27163">
        <ele>418.4</ele>
        <time>2023-03-05T11:55:23Z</time>
        <extensions>
          <gpxtpx:TrackPointExtension xmlns:gpxtpx="http://www.garmin.com/xmlschemas/TrackPointExtension/v1">
            <gpxtpx:hr>112</gpxtpx:hr>
          </gpxtpx:TrackPointExtension>
        </extensions>
      </trkpt>
      <trkpt lat="43.1137" lon="1.27168">
        <ele>418</ele>
        <time>2023-03-05T11:55:24Z</time>
        <extensions>
          <gpxtpx:TrackPointExtension xmlns:gpxtpx="http://www.garmin.com/xmlschemas/TrackPointExtension/v1">
            <gpxtpx:hr>111</gpxtpx:hr>
          </gpxtpx:TrackPointExtension>
        </extensions>
      </trkpt>
      <trkpt lat="43.11367" lon="1.27174">
        <ele>417.4</ele>
        <time>2023-03-05T11:55:25Z</time>
        <extensions>
          <gpxtpx:TrackPointExtension xmlns:gpxtpx="http://www.garmin.com/xmlschemas/TrackPointExtension/v1">
            <gpxtpx:hr>112</gpxtpx:hr>
          </gpxtpx:TrackPointExtension>
        </extensions>
      </trkpt>
      <trkpt lat="43.11365" lon="1.27181">
        <ele>417</ele>
        <time>2023-03-05T11:55:26Z</time>
        <extensions>
          <gpxtpx:TrackPointExtension xmlns:gpxtpx="http://www.garmin.com/xmlschemas/TrackPointExtension/v1">
            <gpxtpx:hr>112</gpxtpx:hr>
          </gpxtpx:TrackPointExtension>
        </extensions>
      </trkpt>
      <trkpt lat="43.11361" lon="1.27195">
        <ele>416.6</ele>
        <time>2023-03-05T11:55:28Z</time>
        <extensions>
          <gpxtpx:TrackPointExtension xmlns:gpxtpx="http://www.garmin.com/xmlschemas/TrackPointExtension/v1">
            <gpxtpx:hr>111</gpxtpx:hr>
          </gpxtpx:TrackPointExtension>
        </extensions>
      </trkpt>
      <trkpt lat="43.11359" lon="1.27201">
        <ele>415.8</ele>
        <time>2023-03-05T11:55:29Z</time>
        <extensions>
          <gpxtpx:TrackPointExtension xmlns:gpxtpx="http://www.garmin.com/xmlschemas/TrackPointExtension/v1">
            <gpxtpx:hr>111</gpxtpx:hr>
          </gpxtpx:TrackPointExtension>
        </extensions>
      </trkpt>
      <trkpt lat="43.11357" lon="1.27207">
        <ele>415.4</ele>
        <time>2023-03-05T11:55:30Z</time>
        <extensions>
          <gpxtpx:TrackPointExtension xmlns:gpxtpx="http://www.garmin.com/xmlschemas/TrackPointExtension/v1">
            <gpxtpx:hr>111</gpxtpx:hr>
          </gpxtpx:TrackPointExtension>
        </extensions>
      </trkpt>
      <trkpt lat="43.11356" lon="1.27212">
        <ele>415</ele>
        <time>2023-03-05T11:55:31Z</time>
        <extensions>
          <gpxtpx:TrackPointExtension xmlns:gpxtpx="http://www.garmin.com/xmlschemas/TrackPointExtension/v1">
            <gpxtpx:hr>110</gpxtpx:hr>
          </gpxtpx:TrackPointExtension>
        </extensions>
      </trkpt>
      <trkpt lat="43.11348" lon="1.27233">
        <ele>415</ele>
        <time>2023-03-05T11:55:36Z</time>
        <extensions>
          <gpxtpx:TrackPointExtension xmlns:gpxtpx="http://www.garmin.com/xmlschemas/TrackPointExtension/v1">
            <gpxtpx:hr>110</gpxtpx:hr>
          </gpxtpx:TrackPointExtension>
        </extensions>
      </trkpt>
      <trkpt lat="43.1134" lon="1.2725">
        <ele>415</ele>
        <time>2023-03-05T11:55:41Z</time>
        <extensions>
          <gpxtpx:TrackPointExtension xmlns:gpxtpx="http://www.garmin.com/xmlschemas/TrackPointExtension/v1">
            <gpxtpx:hr>112</gpxtpx:hr>
          </gpxtpx:TrackPointExtension>
        </extensions>
      </trkpt>
      <trkpt lat="43.11338" lon="1.27259">
        <ele>414.6</ele>
        <time>2023-03-05T11:55:43Z</time>
        <extensions>
          <gpxtpx:TrackPointExtension xmlns:gpxtpx="http://www.garmin.com/xmlschemas/TrackPointExtension/v1">
            <gpxtpx:hr>111</gpxtpx:hr>
          </gpxtpx:TrackPointExtension>
        </extensions>
      </trkpt>
      <trkpt lat="43.11337" lon="1.27267">
        <ele>414.2</ele>
        <time>2023-03-05T11:55:44Z</time>
        <extensions>
          <gpxtpx:TrackPointExtension xmlns:gpxtpx="http://www.garmin.com/xmlschemas/TrackPointExtension/v1">
            <gpxtpx:hr>110</gpxtpx:hr>
          </gpxtpx:TrackPointExtension>
        </extensions>
      </trkpt>
      <trkpt lat="43.11336" lon="1.27274">
        <ele>413.8</ele>
        <time>2023-03-05T11:55:45Z</time>
        <extensions>
          <gpxtpx:TrackPointExtension xmlns:gpxtpx="http://www.garmin.com/xmlschemas/TrackPointExtension/v1">
            <gpxtpx:hr>110</gpxtpx:hr>
          </gpxtpx:TrackPointExtension>
        </extensions>
      </trkpt>
      <trkpt lat="43.11335" lon="1.27282">
        <ele>413.4</ele>
        <time>2023-03-05T11:55:46Z</time>
        <extensions>
          <gpxtpx:TrackPointExtension xmlns:gpxtpx="http://www.garmin.com/xmlschemas/TrackPointExtension/v1">
            <gpxtpx:hr>110</gpxtpx:hr>
          </gpxtpx:TrackPointExtension>
        </extensions>
      </trkpt>
      <trkpt lat="43.11334" lon="1.27288">
        <ele>412.8</ele>
        <time>2023-03-05T11:55:47Z</time>
        <extensions>
          <gpxtpx:TrackPointExtension xmlns:gpxtpx="http://www.garmin.com/xmlschemas/TrackPointExtension/v1">
            <gpxtpx:hr>110</gpxtpx:hr>
          </gpxtpx:TrackPointExtension>
        </extensions>
      </trkpt>
      <trkpt lat="43.11333" lon="1.27294">
        <ele>412.4</ele>
        <time>2023-03-05T11:55:48Z</time>
        <extensions>
          <gpxtpx:TrackPointExtension xmlns:gpxtpx="http://www.garmin.com/xmlschemas/TrackPointExtension/v1">
            <gpxtpx:hr>110</gpxtpx:hr>
          </gpxtpx:TrackPointExtension>
        </extensions>
      </trkpt>
      <trkpt lat="43.11332" lon="1.273">
        <ele>412</ele>
        <time>2023-03-05T11:55:49Z</time>
        <extensions>
          <gpxtpx:TrackPointExtension xmlns:gpxtpx="http://www.garmin.com/xmlschemas/TrackPointExtension/v1">
            <gpxtpx:hr>109</gpxtpx:hr>
          </gpxtpx:TrackPointExtension>
        </extensions>
      </trkpt>
      <trkpt lat="43.11331" lon="1.27305">
        <ele>411.4</ele>
        <time>2023-03-05T11:55:50Z</time>
        <extensions>
          <gpxtpx:TrackPointExtension xmlns:gpxtpx="http://www.garmin.com/xmlschemas/TrackPointExtension/v1">
            <gpxtpx:hr>109</gpxtpx:hr>
          </gpxtpx:TrackPointExtension>
        </extensions>
      </trkpt>
      <trkpt lat="43.11329" lon="1.27309">
        <ele>411</ele>
        <time>2023-03-05T11:55:51Z</time>
        <extensions>
          <gpxtpx:TrackPointExtension xmlns:gpxtpx="http://www.garmin.com/xmlschemas/TrackPointExtension/v1">
            <gpxtpx:hr>109</gpxtpx:hr>
          </gpxtpx:TrackPointExtension>
        </extensions>
      </trkpt>
      <trkpt lat="43.11327" lon="1.27313">
        <ele>410.6</ele>
        <time>2023-03-05T11:55:52Z</time>
        <extensions>
          <gpxtpx:TrackPointExtension xmlns:gpxtpx="http://www.garmin.com/xmlschemas/TrackPointExtension/v1">
            <gpxtpx:hr>110</gpxtpx:hr>
          </gpxtpx:TrackPointExtension>
        </extensions>
      </trkpt>
      <trkpt lat="43.11325" lon="1.27315">
        <ele>410.6</ele>
        <time>2023-03-05T11:55:53Z</time>
        <extensions>
          <gpxtpx:TrackPointExtension xmlns:gpxtpx="http://www.garmin.com/xmlschemas/TrackPointExtension/v1">
            <gpxtpx:hr>110</gpxtpx:hr>
          </gpxtpx:TrackPointExtension>
        </extensions>
      </trkpt>
      <trkpt lat="43.11322" lon="1.27317">
        <ele>410</ele>
        <time>2023-03-05T11:55:54Z</time>
        <extensions>
          <gpxtpx:TrackPointExtension xmlns:gpxtpx="http://www.garmin.com/xmlschemas/TrackPointExtension/v1">
            <gpxtpx:hr>110</gpxtpx:hr>
          </gpxtpx:TrackPointExtension>
        </extensions>
      </trkpt>
      <trkpt lat="43.11318" lon="1.27318">
        <ele>409.6</ele>
        <time>2023-03-05T11:55:55Z</time>
        <extensions>
          <gpxtpx:TrackPointExtension xmlns:gpxtpx="http://www.garmin.com/xmlschemas/TrackPointExtension/v1">
            <gpxtpx:hr>110</gpxtpx:hr>
          </gpxtpx:TrackPointExtension>
        </extensions>
      </trkpt>
      <trkpt lat="43.11313" lon="1.27318">
        <ele>409.2</ele>
        <time>2023-03-05T11:55:56Z</time>
        <extensions>
          <gpxtpx:TrackPointExtension xmlns:gpxtpx="http://www.garmin.com/xmlschemas/TrackPointExtension/v1">
            <gpxtpx:hr>110</gpxtpx:hr>
          </gpxtpx:TrackPointExtension>
        </extensions>
      </trkpt>
      <trkpt lat="43.11307" lon="1.27318">
        <ele>408.8</ele>
        <time>2023-03-05T11:55:57Z</time>
        <extensions>
          <gpxtpx:TrackPointExtension xmlns:gpxtpx="http://www.garmin.com/xmlschemas/TrackPointExtension/v1">
            <gpxtpx:hr>109</gpxtpx:hr>
          </gpxtpx:TrackPointExtension>
        </extensions>
      </trkpt>
      <trkpt lat="43.11301" lon="1.27318">
        <ele>408.2</ele>
        <time>2023-03-05T11:55:58Z</time>
        <extensions>
          <gpxtpx:TrackPointExtension xmlns:gpxtpx="http://www.garmin.com/xmlschemas/TrackPointExtension/v1">
            <gpxtpx:hr>108</gpxtpx:hr>
          </gpxtpx:TrackPointExtension>
        </extensions>
      </trkpt>
      <trkpt lat="43.11296" lon="1.27318">
        <ele>407.6</ele>
        <time>2023-03-05T11:55:59Z</time>
        <extensions>
          <gpxtpx:TrackPointExtension xmlns:gpxtpx="http://www.garmin.com/xmlschemas/TrackPointExtension/v1">
            <gpxtpx:hr>107</gpxtpx:hr>
          </gpxtpx:TrackPointExtension>
        </extensions>
      </trkpt>
      <trkpt lat="43.1129" lon="1.27318">
        <ele>407</ele>
        <time>2023-03-05T11:56:00Z</time>
        <extensions>
          <gpxtpx:TrackPointExtension xmlns:gpxtpx="http://www.garmin.com/xmlschemas/TrackPointExtension/v1">
            <gpxtpx:hr>107</gpxtpx:hr>
          </gpxtpx:TrackPointExtension>
        </extensions>
      </trkpt>
      <trkpt lat="43.11285" lon="1.27319">
        <ele>406.4</ele>
        <time>2023-03-05T11:56:01Z</time>
        <extensions>
          <gpxtpx:TrackPointExtension xmlns:gpxtpx="http://www.garmin.com/xmlschemas/TrackPointExtension/v1">
            <gpxtpx:hr>107</gpxtpx:hr>
          </gpxtpx:TrackPointExtension>
        </extensions>
      </trkpt>
      <trkpt lat="43.11279" lon="1.2732">
        <ele>405.8</ele>
        <time>2023-03-05T11:56:02Z</time>
        <extensions>
          <gpxtpx:TrackPointExtension xmlns:gpxtpx="http://www.garmin.com/xmlschemas/TrackPointExtension/v1">
            <gpxtpx:hr>107</gpxtpx:hr>
          </gpxtpx:TrackPointExtension>
        </extensions>
      </trkpt>
      <trkpt lat="43.11274" lon="1.27321">
        <ele>405.2</ele>
        <time>2023-03-05T11:56:03Z</time>
        <extensions>
          <gpxtpx:TrackPointExtension xmlns:gpxtpx="http://www.garmin.com/xmlschemas/TrackPointExtension/v1">
            <gpxtpx:hr>106</gpxtpx:hr>
          </gpxtpx:TrackPointExtension>
        </extensions>
      </trkpt>
      <trkpt lat="43.11269" lon="1.27322">
        <ele>404.6</ele>
        <time>2023-03-05T11:56:04Z</time>
        <extensions>
          <gpxtpx:TrackPointExtension xmlns:gpxtpx="http://www.garmin.com/xmlschemas/TrackPointExtension/v1">
            <gpxtpx:hr>105</gpxtpx:hr>
          </gpxtpx:TrackPointExtension>
        </extensions>
      </trkpt>
      <trkpt lat="43.11265" lon="1.27322">
        <ele>403.8</ele>
        <time>2023-03-05T11:56:05Z</time>
        <extensions>
          <gpxtpx:TrackPointExtension xmlns:gpxtpx="http://www.garmin.com/xmlschemas/TrackPointExtension/v1">
            <gpxtpx:hr>104</gpxtpx:hr>
          </gpxtpx:TrackPointExtension>
        </extensions>
      </trkpt>
      <trkpt lat="43.1126" lon="1.27323">
        <ele>403</ele>
        <time>2023-03-05T11:56:06Z</time>
        <extensions>
          <gpxtpx:TrackPointExtension xmlns:gpxtpx="http://www.garmin.com/xmlschemas/TrackPointExtension/v1">
            <gpxtpx:hr>104</gpxtpx:hr>
          </gpxtpx:TrackPointExtension>
        </extensions>
      </trkpt>
      <trkpt lat="43.11257" lon="1.27322">
        <ele>402.2</ele>
        <time>2023-03-05T11:56:07Z</time>
        <extensions>
          <gpxtpx:TrackPointExtension xmlns:gpxtpx="http://www.garmin.com/xmlschemas/TrackPointExtension/v1">
            <gpxtpx:hr>104</gpxtpx:hr>
          </gpxtpx:TrackPointExtension>
        </extensions>
      </trkpt>
      <trkpt lat="43.11252" lon="1.27321">
        <ele>401.4</ele>
        <time>2023-03-05T11:56:08Z</time>
        <extensions>
          <gpxtpx:TrackPointExtension xmlns:gpxtpx="http://www.garmin.com/xmlschemas/TrackPointExtension/v1">
            <gpxtpx:hr>104</gpxtpx:hr>
          </gpxtpx:TrackPointExtension>
        </extensions>
      </trkpt>
      <trkpt lat="43.11249" lon="1.2732">
        <ele>400.8</ele>
        <time>2023-03-05T11:56:09Z</time>
        <extensions>
          <gpxtpx:TrackPointExtension xmlns:gpxtpx="http://www.garmin.com/xmlschemas/TrackPointExtension/v1">
            <gpxtpx:hr>105</gpxtpx:hr>
          </gpxtpx:TrackPointExtension>
        </extensions>
      </trkpt>
      <trkpt lat="43.11244" lon="1.27317">
        <ele>400</ele>
        <time>2023-03-05T11:56:10Z</time>
        <extensions>
          <gpxtpx:TrackPointExtension xmlns:gpxtpx="http://www.garmin.com/xmlschemas/TrackPointExtension/v1">
            <gpxtpx:hr>106</gpxtpx:hr>
          </gpxtpx:TrackPointExtension>
        </extensions>
      </trkpt>
      <trkpt lat="43.1124" lon="1.27314">
        <ele>399.2</ele>
        <time>2023-03-05T11:56:11Z</time>
        <extensions>
          <gpxtpx:TrackPointExtension xmlns:gpxtpx="http://www.garmin.com/xmlschemas/TrackPointExtension/v1">
            <gpxtpx:hr>106</gpxtpx:hr>
          </gpxtpx:TrackPointExtension>
        </extensions>
      </trkpt>
      <trkpt lat="43.11237" lon="1.27311">
        <ele>398.6</ele>
        <time>2023-03-05T11:56:12Z</time>
        <extensions>
          <gpxtpx:TrackPointExtension xmlns:gpxtpx="http://www.garmin.com/xmlschemas/TrackPointExtension/v1">
            <gpxtpx:hr>106</gpxtpx:hr>
          </gpxtpx:TrackPointExtension>
        </extensions>
      </trkpt>
      <trkpt lat="43.11234" lon="1.27309">
        <ele>397.8</ele>
        <time>2023-03-05T11:56:13Z</time>
        <extensions>
          <gpxtpx:TrackPointExtension xmlns:gpxtpx="http://www.garmin.com/xmlschemas/TrackPointExtension/v1">
            <gpxtpx:hr>106</gpxtpx:hr>
          </gpxtpx:TrackPointExtension>
        </extensions>
      </trkpt>
      <trkpt lat="43.11232" lon="1.27306">
        <ele>397.2</ele>
        <time>2023-03-05T11:56:14Z</time>
        <extensions>
          <gpxtpx:TrackPointExtension xmlns:gpxtpx="http://www.garmin.com/xmlschemas/TrackPointExtension/v1">
            <gpxtpx:hr>105</gpxtpx:hr>
          </gpxtpx:TrackPointExtension>
        </extensions>
      </trkpt>
      <trkpt lat="43.1123" lon="1.27302">
        <ele>396.4</ele>
        <time>2023-03-05T11:56:15Z</time>
        <extensions>
          <gpxtpx:TrackPointExtension xmlns:gpxtpx="http://www.garmin.com/xmlschemas/TrackPointExtension/v1">
            <gpxtpx:hr>104</gpxtpx:hr>
          </gpxtpx:TrackPointExtension>
        </extensions>
      </trkpt>
      <trkpt lat="43.11228" lon="1.27298">
        <ele>395.6</ele>
        <time>2023-03-05T11:56:16Z</time>
        <extensions>
          <gpxtpx:TrackPointExtension xmlns:gpxtpx="http://www.garmin.com/xmlschemas/TrackPointExtension/v1">
            <gpxtpx:hr>103</gpxtpx:hr>
          </gpxtpx:TrackPointExtension>
        </extensions>
      </trkpt>
      <trkpt lat="43.11227" lon="1.27293">
        <ele>394.8</ele>
        <time>2023-03-05T11:56:17Z</time>
        <extensions>
          <gpxtpx:TrackPointExtension xmlns:gpxtpx="http://www.garmin.com/xmlschemas/TrackPointExtension/v1">
            <gpxtpx:hr>103</gpxtpx:hr>
          </gpxtpx:TrackPointExtension>
        </extensions>
      </trkpt>
      <trkpt lat="43.11225" lon="1.27289">
        <ele>394.2</ele>
        <time>2023-03-05T11:56:18Z</time>
        <extensions>
          <gpxtpx:TrackPointExtension xmlns:gpxtpx="http://www.garmin.com/xmlschemas/TrackPointExtension/v1">
            <gpxtpx:hr>103</gpxtpx:hr>
          </gpxtpx:TrackPointExtension>
        </extensions>
      </trkpt>
      <trkpt lat="43.11225" lon="1.27285">
        <ele>394.2</ele>
        <time>2023-03-05T11:56:19Z</time>
        <extensions>
          <gpxtpx:TrackPointExtension xmlns:gpxtpx="http://www.garmin.com/xmlschemas/TrackPointExtension/v1">
            <gpxtpx:hr>103</gpxtpx:hr>
          </gpxtpx:TrackPointExtension>
        </extensions>
      </trkpt>
      <trkpt lat="43.11225" lon="1.27281">
        <ele>394.2</ele>
        <time>2023-03-05T11:56:20Z</time>
        <extensions>
          <gpxtpx:TrackPointExtension xmlns:gpxtpx="http://www.garmin.com/xmlschemas/TrackPointExtension/v1">
            <gpxtpx:hr>103</gpxtpx:hr>
          </gpxtpx:TrackPointExtension>
        </extensions>
      </trkpt>
      <trkpt lat="43.11226" lon="1.27269">
        <ele>394.2</ele>
        <time>2023-03-05T11:56:23Z</time>
        <extensions>
          <gpxtpx:TrackPointExtension xmlns:gpxtpx="http://www.garmin.com/xmlschemas/TrackPointExtension/v1">
            <gpxtpx:hr>107</gpxtpx:hr>
          </gpxtpx:TrackPointExtension>
        </extensions>
      </trkpt>
      <trkpt lat="43.11225" lon="1.2726">
        <ele>394.2</ele>
        <time>2023-03-05T11:56:25Z</time>
        <extensions>
          <gpxtpx:TrackPointExtension xmlns:gpxtpx="http://www.garmin.com/xmlschemas/TrackPointExtension/v1">
            <gpxtpx:hr>110</gpxtpx:hr>
          </gpxtpx:TrackPointExtension>
        </extensions>
      </trkpt>
      <trkpt lat="43.11224" lon="1.27243">
        <ele>394.2</ele>
        <time>2023-03-05T11:56:30Z</time>
        <extensions>
          <gpxtpx:TrackPointExtension xmlns:gpxtpx="http://www.garmin.com/xmlschemas/TrackPointExtension/v1">
            <gpxtpx:hr>112</gpxtpx:hr>
          </gpxtpx:TrackPointExtension>
        </extensions>
      </trkpt>
      <trkpt lat="43.11224" lon="1.27226">
        <ele>394.2</ele>
        <time>2023-03-05T11:56:35Z</time>
        <extensions>
          <gpxtpx:TrackPointExtension xmlns:gpxtpx="http://www.garmin.com/xmlschemas/TrackPointExtension/v1">
            <gpxtpx:hr>113</gpxtpx:hr>
          </gpxtpx:TrackPointExtension>
        </extensions>
      </trkpt>
      <trkpt lat="43.11224" lon="1.27201">
        <ele>394.2</ele>
        <time>2023-03-05T11:56:41Z</time>
        <extensions>
          <gpxtpx:TrackPointExtension xmlns:gpxtpx="http://www.garmin.com/xmlschemas/TrackPointExtension/v1">
            <gpxtpx:hr>114</gpxtpx:hr>
          </gpxtpx:TrackPointExtension>
        </extensions>
      </trkpt>
      <trkpt lat="43.1122" lon="1.27178">
        <ele>394.2</ele>
        <time>2023-03-05T11:56:46Z</time>
        <extensions>
          <gpxtpx:TrackPointExtension xmlns:gpxtpx="http://www.garmin.com/xmlschemas/TrackPointExtension/v1">
            <gpxtpx:hr>114</gpxtpx:hr>
          </gpxtpx:TrackPointExtension>
        </extensions>
      </trkpt>
      <trkpt lat="43.11217" lon="1.27165">
        <ele>393.8</ele>
        <time>2023-03-05T11:56:48Z</time>
        <extensions>
          <gpxtpx:TrackPointExtension xmlns:gpxtpx="http://www.garmin.com/xmlschemas/TrackPointExtension/v1">
            <gpxtpx:hr>114</gpxtpx:hr>
          </gpxtpx:TrackPointExtension>
        </extensions>
      </trkpt>
      <trkpt lat="43.11216" lon="1.27159">
        <ele>393.4</ele>
        <time>2023-03-05T11:56:49Z</time>
        <extensions>
          <gpxtpx:TrackPointExtension xmlns:gpxtpx="http://www.garmin.com/xmlschemas/TrackPointExtension/v1">
            <gpxtpx:hr>114</gpxtpx:hr>
          </gpxtpx:TrackPointExtension>
        </extensions>
      </trkpt>
      <trkpt lat="43.11214" lon="1.27152">
        <ele>392.8</ele>
        <time>2023-03-05T11:56:50Z</time>
        <extensions>
          <gpxtpx:TrackPointExtension xmlns:gpxtpx="http://www.garmin.com/xmlschemas/TrackPointExtension/v1">
            <gpxtpx:hr>114</gpxtpx:hr>
          </gpxtpx:TrackPointExtension>
        </extensions>
      </trkpt>
      <trkpt lat="43.11213" lon="1.27146">
        <ele>392.4</ele>
        <time>2023-03-05T11:56:51Z</time>
        <extensions>
          <gpxtpx:TrackPointExtension xmlns:gpxtpx="http://www.garmin.com/xmlschemas/TrackPointExtension/v1">
            <gpxtpx:hr>113</gpxtpx:hr>
          </gpxtpx:TrackPointExtension>
        </extensions>
      </trkpt>
      <trkpt lat="43.11212" lon="1.2714">
        <ele>392</ele>
        <time>2023-03-05T11:56:52Z</time>
        <extensions>
          <gpxtpx:TrackPointExtension xmlns:gpxtpx="http://www.garmin.com/xmlschemas/TrackPointExtension/v1">
            <gpxtpx:hr>113</gpxtpx:hr>
          </gpxtpx:TrackPointExtension>
        </extensions>
      </trkpt>
      <trkpt lat="43.1121" lon="1.27123">
        <ele>392</ele>
        <time>2023-03-05T11:56:56Z</time>
        <extensions>
          <gpxtpx:TrackPointExtension xmlns:gpxtpx="http://www.garmin.com/xmlschemas/TrackPointExtension/v1">
            <gpxtpx:hr>113</gpxtpx:hr>
          </gpxtpx:TrackPointExtension>
        </extensions>
      </trkpt>
      <trkpt lat="43.11204" lon="1.271">
        <ele>392</ele>
        <time>2023-03-05T11:57:00Z</time>
        <extensions>
          <gpxtpx:TrackPointExtension xmlns:gpxtpx="http://www.garmin.com/xmlschemas/TrackPointExtension/v1">
            <gpxtpx:hr>114</gpxtpx:hr>
          </gpxtpx:TrackPointExtension>
        </extensions>
      </trkpt>
      <trkpt lat="43.11202" lon="1.27093">
        <ele>391.6</ele>
        <time>2023-03-05T11:57:01Z</time>
        <extensions>
          <gpxtpx:TrackPointExtension xmlns:gpxtpx="http://www.garmin.com/xmlschemas/TrackPointExtension/v1">
            <gpxtpx:hr>114</gpxtpx:hr>
          </gpxtpx:TrackPointExtension>
        </extensions>
      </trkpt>
      <trkpt lat="43.11202" lon="1.27086">
        <ele>391.2</ele>
        <time>2023-03-05T11:57:02Z</time>
        <extensions>
          <gpxtpx:TrackPointExtension xmlns:gpxtpx="http://www.garmin.com/xmlschemas/TrackPointExtension/v1">
            <gpxtpx:hr>113</gpxtpx:hr>
          </gpxtpx:TrackPointExtension>
        </extensions>
      </trkpt>
      <trkpt lat="43.112" lon="1.27078">
        <ele>390.8</ele>
        <time>2023-03-05T11:57:03Z</time>
        <extensions>
          <gpxtpx:TrackPointExtension xmlns:gpxtpx="http://www.garmin.com/xmlschemas/TrackPointExtension/v1">
            <gpxtpx:hr>113</gpxtpx:hr>
          </gpxtpx:TrackPointExtension>
        </extensions>
      </trkpt>
      <trkpt lat="43.11199" lon="1.27072">
        <ele>390.4</ele>
        <time>2023-03-05T11:57:04Z</time>
        <extensions>
          <gpxtpx:TrackPointExtension xmlns:gpxtpx="http://www.garmin.com/xmlschemas/TrackPointExtension/v1">
            <gpxtpx:hr>113</gpxtpx:hr>
          </gpxtpx:TrackPointExtension>
        </extensions>
      </trkpt>
      <trkpt lat="43.11197" lon="1.27063">
        <ele>390</ele>
        <time>2023-03-05T11:57:05Z</time>
        <extensions>
          <gpxtpx:TrackPointExtension xmlns:gpxtpx="http://www.garmin.com/xmlschemas/TrackPointExtension/v1">
            <gpxtpx:hr>113</gpxtpx:hr>
          </gpxtpx:TrackPointExtension>
        </extensions>
      </trkpt>
      <trkpt lat="43.11194" lon="1.27046">
        <ele>389.6</ele>
        <time>2023-03-05T11:57:07Z</time>
        <extensions>
          <gpxtpx:TrackPointExtension xmlns:gpxtpx="http://www.garmin.com/xmlschemas/TrackPointExtension/v1">
            <gpxtpx:hr>111</gpxtpx:hr>
          </gpxtpx:TrackPointExtension>
        </extensions>
      </trkpt>
      <trkpt lat="43.11194" lon="1.27039">
        <ele>388.8</ele>
        <time>2023-03-05T11:57:08Z</time>
        <extensions>
          <gpxtpx:TrackPointExtension xmlns:gpxtpx="http://www.garmin.com/xmlschemas/TrackPointExtension/v1">
            <gpxtpx:hr>110</gpxtpx:hr>
          </gpxtpx:TrackPointExtension>
        </extensions>
      </trkpt>
      <trkpt lat="43.11193" lon="1.27031">
        <ele>388.4</ele>
        <time>2023-03-05T11:57:09Z</time>
        <extensions>
          <gpxtpx:TrackPointExtension xmlns:gpxtpx="http://www.garmin.com/xmlschemas/TrackPointExtension/v1">
            <gpxtpx:hr>109</gpxtpx:hr>
          </gpxtpx:TrackPointExtension>
        </extensions>
      </trkpt>
      <trkpt lat="43.11192" lon="1.27023">
        <ele>387.8</ele>
        <time>2023-03-05T11:57:10Z</time>
        <extensions>
          <gpxtpx:TrackPointExtension xmlns:gpxtpx="http://www.garmin.com/xmlschemas/TrackPointExtension/v1">
            <gpxtpx:hr>108</gpxtpx:hr>
          </gpxtpx:TrackPointExtension>
        </extensions>
      </trkpt>
      <trkpt lat="43.1119" lon="1.27007">
        <ele>387.4</ele>
        <time>2023-03-05T11:57:12Z</time>
        <extensions>
          <gpxtpx:TrackPointExtension xmlns:gpxtpx="http://www.garmin.com/xmlschemas/TrackPointExtension/v1">
            <gpxtpx:hr>107</gpxtpx:hr>
          </gpxtpx:TrackPointExtension>
        </extensions>
      </trkpt>
      <trkpt lat="43.11188" lon="1.26999">
        <ele>387</ele>
        <time>2023-03-05T11:57:13Z</time>
        <extensions>
          <gpxtpx:TrackPointExtension xmlns:gpxtpx="http://www.garmin.com/xmlschemas/TrackPointExtension/v1">
            <gpxtpx:hr>106</gpxtpx:hr>
          </gpxtpx:TrackPointExtension>
        </extensions>
      </trkpt>
      <trkpt lat="43.11186" lon="1.26991">
        <ele>386.6</ele>
        <time>2023-03-05T11:57:14Z</time>
        <extensions>
          <gpxtpx:TrackPointExtension xmlns:gpxtpx="http://www.garmin.com/xmlschemas/TrackPointExtension/v1">
            <gpxtpx:hr>106</gpxtpx:hr>
          </gpxtpx:TrackPointExtension>
        </extensions>
      </trkpt>
      <trkpt lat="43.11185" lon="1.26983">
        <ele>386.2</ele>
        <time>2023-03-05T11:57:15Z</time>
        <extensions>
          <gpxtpx:TrackPointExtension xmlns:gpxtpx="http://www.garmin.com/xmlschemas/TrackPointExtension/v1">
            <gpxtpx:hr>106</gpxtpx:hr>
          </gpxtpx:TrackPointExtension>
        </extensions>
      </trkpt>
      <trkpt lat="43.11184" lon="1.26977">
        <ele>385.8</ele>
        <time>2023-03-05T11:57:16Z</time>
        <extensions>
          <gpxtpx:TrackPointExtension xmlns:gpxtpx="http://www.garmin.com/xmlschemas/TrackPointExtension/v1">
            <gpxtpx:hr>106</gpxtpx:hr>
          </gpxtpx:TrackPointExtension>
        </extensions>
      </trkpt>
      <trkpt lat="43.11182" lon="1.26959">
        <ele>385.8</ele>
        <time>2023-03-05T11:57:19Z</time>
        <extensions>
          <gpxtpx:TrackPointExtension xmlns:gpxtpx="http://www.garmin.com/xmlschemas/TrackPointExtension/v1">
            <gpxtpx:hr>106</gpxtpx:hr>
          </gpxtpx:TrackPointExtension>
        </extensions>
      </trkpt>
      <trkpt lat="43.11179" lon="1.26941">
        <ele>385.8</ele>
        <time>2023-03-05T11:57:22Z</time>
        <extensions>
          <gpxtpx:TrackPointExtension xmlns:gpxtpx="http://www.garmin.com/xmlschemas/TrackPointExtension/v1">
            <gpxtpx:hr>109</gpxtpx:hr>
          </gpxtpx:TrackPointExtension>
        </extensions>
      </trkpt>
      <trkpt lat="43.11177" lon="1.2693">
        <ele>385.8</ele>
        <time>2023-03-05T11:57:24Z</time>
        <extensions>
          <gpxtpx:TrackPointExtension xmlns:gpxtpx="http://www.garmin.com/xmlschemas/TrackPointExtension/v1">
            <gpxtpx:hr>110</gpxtpx:hr>
          </gpxtpx:TrackPointExtension>
        </extensions>
      </trkpt>
      <trkpt lat="43.11177" lon="1.26907">
        <ele>385.8</ele>
        <time>2023-03-05T11:57:28Z</time>
        <extensions>
          <gpxtpx:TrackPointExtension xmlns:gpxtpx="http://www.garmin.com/xmlschemas/TrackPointExtension/v1">
            <gpxtpx:hr>110</gpxtpx:hr>
          </gpxtpx:TrackPointExtension>
        </extensions>
      </trkpt>
      <trkpt lat="43.11175" lon="1.26879">
        <ele>385.8</ele>
        <time>2023-03-05T11:57:32Z</time>
        <extensions>
          <gpxtpx:TrackPointExtension xmlns:gpxtpx="http://www.garmin.com/xmlschemas/TrackPointExtension/v1">
            <gpxtpx:hr>107</gpxtpx:hr>
          </gpxtpx:TrackPointExtension>
        </extensions>
      </trkpt>
      <trkpt lat="43.11174" lon="1.26873">
        <ele>385.8</ele>
        <time>2023-03-05T11:57:33Z</time>
        <extensions>
          <gpxtpx:TrackPointExtension xmlns:gpxtpx="http://www.garmin.com/xmlschemas/TrackPointExtension/v1">
            <gpxtpx:hr>107</gpxtpx:hr>
          </gpxtpx:TrackPointExtension>
        </extensions>
      </trkpt>
      <trkpt lat="43.11173" lon="1.26866">
        <ele>385.4</ele>
        <time>2023-03-05T11:57:34Z</time>
        <extensions>
          <gpxtpx:TrackPointExtension xmlns:gpxtpx="http://www.garmin.com/xmlschemas/TrackPointExtension/v1">
            <gpxtpx:hr>107</gpxtpx:hr>
          </gpxtpx:TrackPointExtension>
        </extensions>
      </trkpt>
      <trkpt lat="43.11172" lon="1.26859">
        <ele>385</ele>
        <time>2023-03-05T11:57:35Z</time>
        <extensions>
          <gpxtpx:TrackPointExtension xmlns:gpxtpx="http://www.garmin.com/xmlschemas/TrackPointExtension/v1">
            <gpxtpx:hr>107</gpxtpx:hr>
          </gpxtpx:TrackPointExtension>
        </extensions>
      </trkpt>
      <trkpt lat="43.11172" lon="1.26853">
        <ele>384.6</ele>
        <time>2023-03-05T11:57:36Z</time>
        <extensions>
          <gpxtpx:TrackPointExtension xmlns:gpxtpx="http://www.garmin.com/xmlschemas/TrackPointExtension/v1">
            <gpxtpx:hr>106</gpxtpx:hr>
          </gpxtpx:TrackPointExtension>
        </extensions>
      </trkpt>
      <trkpt lat="43.11172" lon="1.26846">
        <ele>384.2</ele>
        <time>2023-03-05T11:57:37Z</time>
        <extensions>
          <gpxtpx:TrackPointExtension xmlns:gpxtpx="http://www.garmin.com/xmlschemas/TrackPointExtension/v1">
            <gpxtpx:hr>106</gpxtpx:hr>
          </gpxtpx:TrackPointExtension>
        </extensions>
      </trkpt>
      <trkpt lat="43.11171" lon="1.2684">
        <ele>383.8</ele>
        <time>2023-03-05T11:57:38Z</time>
        <extensions>
          <gpxtpx:TrackPointExtension xmlns:gpxtpx="http://www.garmin.com/xmlschemas/TrackPointExtension/v1">
            <gpxtpx:hr>105</gpxtpx:hr>
          </gpxtpx:TrackPointExtension>
        </extensions>
      </trkpt>
      <trkpt lat="43.11165" lon="1.26815">
        <ele>383.2</ele>
        <time>2023-03-05T11:57:43Z</time>
        <extensions>
          <gpxtpx:TrackPointExtension xmlns:gpxtpx="http://www.garmin.com/xmlschemas/TrackPointExtension/v1">
            <gpxtpx:hr>105</gpxtpx:hr>
          </gpxtpx:TrackPointExtension>
        </extensions>
      </trkpt>
      <trkpt lat="43.11163" lon="1.26811">
        <ele>382.8</ele>
        <time>2023-03-05T11:57:44Z</time>
        <extensions>
          <gpxtpx:TrackPointExtension xmlns:gpxtpx="http://www.garmin.com/xmlschemas/TrackPointExtension/v1">
            <gpxtpx:hr>105</gpxtpx:hr>
          </gpxtpx:TrackPointExtension>
        </extensions>
      </trkpt>
      <trkpt lat="43.1116" lon="1.26808">
        <ele>382.2</ele>
        <time>2023-03-05T11:57:45Z</time>
        <extensions>
          <gpxtpx:TrackPointExtension xmlns:gpxtpx="http://www.garmin.com/xmlschemas/TrackPointExtension/v1">
            <gpxtpx:hr>104</gpxtpx:hr>
          </gpxtpx:TrackPointExtension>
        </extensions>
      </trkpt>
      <trkpt lat="43.11157" lon="1.26806">
        <ele>381.8</ele>
        <time>2023-03-05T11:57:46Z</time>
        <extensions>
          <gpxtpx:TrackPointExtension xmlns:gpxtpx="http://www.garmin.com/xmlschemas/TrackPointExtension/v1">
            <gpxtpx:hr>104</gpxtpx:hr>
          </gpxtpx:TrackPointExtension>
        </extensions>
      </trkpt>
      <trkpt lat="43.11154" lon="1.26804">
        <ele>381.2</ele>
        <time>2023-03-05T11:57:47Z</time>
        <extensions>
          <gpxtpx:TrackPointExtension xmlns:gpxtpx="http://www.garmin.com/xmlschemas/TrackPointExtension/v1">
            <gpxtpx:hr>104</gpxtpx:hr>
          </gpxtpx:TrackPointExtension>
        </extensions>
      </trkpt>
      <trkpt lat="43.1115" lon="1.26802">
        <ele>380.6</ele>
        <time>2023-03-05T11:57:48Z</time>
        <extensions>
          <gpxtpx:TrackPointExtension xmlns:gpxtpx="http://www.garmin.com/xmlschemas/TrackPointExtension/v1">
            <gpxtpx:hr>103</gpxtpx:hr>
          </gpxtpx:TrackPointExtension>
        </extensions>
      </trkpt>
      <trkpt lat="43.11146" lon="1.268">
        <ele>380</ele>
        <time>2023-03-05T11:57:49Z</time>
        <extensions>
          <gpxtpx:TrackPointExtension xmlns:gpxtpx="http://www.garmin.com/xmlschemas/TrackPointExtension/v1">
            <gpxtpx:hr>103</gpxtpx:hr>
          </gpxtpx:TrackPointExtension>
        </extensions>
      </trkpt>
      <trkpt lat="43.11143" lon="1.26797">
        <ele>379.6</ele>
        <time>2023-03-05T11:57:50Z</time>
        <extensions>
          <gpxtpx:TrackPointExtension xmlns:gpxtpx="http://www.garmin.com/xmlschemas/TrackPointExtension/v1">
            <gpxtpx:hr>103</gpxtpx:hr>
          </gpxtpx:TrackPointExtension>
        </extensions>
      </trkpt>
      <trkpt lat="43.11141" lon="1.26795">
        <ele>379</ele>
        <time>2023-03-05T11:57:51Z</time>
        <extensions>
          <gpxtpx:TrackPointExtension xmlns:gpxtpx="http://www.garmin.com/xmlschemas/TrackPointExtension/v1">
            <gpxtpx:hr>103</gpxtpx:hr>
          </gpxtpx:TrackPointExtension>
        </extensions>
      </trkpt>
      <trkpt lat="43.11138" lon="1.2679">
        <ele>378.6</ele>
        <time>2023-03-05T11:57:54Z</time>
        <extensions>
          <gpxtpx:TrackPointExtension xmlns:gpxtpx="http://www.garmin.com/xmlschemas/TrackPointExtension/v1">
            <gpxtpx:hr>102</gpxtpx:hr>
          </gpxtpx:TrackPointExtension>
        </extensions>
      </trkpt>
      <trkpt lat="43.11138" lon="1.2679">
        <ele>378.2</ele>
        <time>2023-03-05T11:57:55Z</time>
        <extensions>
          <gpxtpx:TrackPointExtension xmlns:gpxtpx="http://www.garmin.com/xmlschemas/TrackPointExtension/v1">
            <gpxtpx:hr>102</gpxtpx:hr>
          </gpxtpx:TrackPointExtension>
        </extensions>
      </trkpt>
      <trkpt lat="43.11137" lon="1.26785">
        <ele>377</ele>
        <time>2023-03-05T12:01:31Z</time>
        <extensions>
          <gpxtpx:TrackPointExtension xmlns:gpxtpx="http://www.garmin.com/xmlschemas/TrackPointExtension/v1">
            <gpxtpx:hr>99</gpxtpx:hr>
          </gpxtpx:TrackPointExtension>
        </extensions>
      </trkpt>
      <trkpt lat="43.11135" lon="1.26778">
        <ele>377</ele>
        <time>2023-03-05T12:01:33Z</time>
        <extensions>
          <gpxtpx:TrackPointExtension xmlns:gpxtpx="http://www.garmin.com/xmlschemas/TrackPointExtension/v1">
            <gpxtpx:hr>99</gpxtpx:hr>
          </gpxtpx:TrackPointExtension>
        </extensions>
      </trkpt>
      <trkpt lat="43.1113" lon="1.26769">
        <ele>377</ele>
        <time>2023-03-05T12:01:36Z</time>
        <extensions>
          <gpxtpx:TrackPointExtension xmlns:gpxtpx="http://www.garmin.com/xmlschemas/TrackPointExtension/v1">
            <gpxtpx:hr>101</gpxtpx:hr>
          </gpxtpx:TrackPointExtension>
        </extensions>
      </trkpt>
      <trkpt lat="43.11126" lon="1.26764">
        <ele>377</ele>
        <time>2023-03-05T12:01:38Z</time>
        <extensions>
          <gpxtpx:TrackPointExtension xmlns:gpxtpx="http://www.garmin.com/xmlschemas/TrackPointExtension/v1">
            <gpxtpx:hr>102</gpxtpx:hr>
          </gpxtpx:TrackPointExtension>
        </extensions>
      </trkpt>
      <trkpt lat="43.1112" lon="1.26754">
        <ele>377</ele>
        <time>2023-03-05T12:01:41Z</time>
        <extensions>
          <gpxtpx:TrackPointExtension xmlns:gpxtpx="http://www.garmin.com/xmlschemas/TrackPointExtension/v1">
            <gpxtpx:hr>105</gpxtpx:hr>
          </gpxtpx:TrackPointExtension>
        </extensions>
      </trkpt>
      <trkpt lat="43.11118" lon="1.26749">
        <ele>377</ele>
        <time>2023-03-05T12:01:42Z</time>
        <extensions>
          <gpxtpx:TrackPointExtension xmlns:gpxtpx="http://www.garmin.com/xmlschemas/TrackPointExtension/v1">
            <gpxtpx:hr>105</gpxtpx:hr>
          </gpxtpx:TrackPointExtension>
        </extensions>
      </trkpt>
      <trkpt lat="43.11114" lon="1.26744">
        <ele>377</ele>
        <time>2023-03-05T12:01:45Z</time>
        <extensions>
          <gpxtpx:TrackPointExtension xmlns:gpxtpx="http://www.garmin.com/xmlschemas/TrackPointExtension/v1">
            <gpxtpx:hr>107</gpxtpx:hr>
          </gpxtpx:TrackPointExtension>
        </extensions>
      </trkpt>
      <trkpt lat="43.11113" lon="1.2674">
        <ele>377</ele>
        <time>2023-03-05T12:01:47Z</time>
        <extensions>
          <gpxtpx:TrackPointExtension xmlns:gpxtpx="http://www.garmin.com/xmlschemas/TrackPointExtension/v1">
            <gpxtpx:hr>106</gpxtpx:hr>
          </gpxtpx:TrackPointExtension>
        </extensions>
      </trkpt>
      <trkpt lat="43.11111" lon="1.26739">
        <ele>377.4</ele>
        <time>2023-03-05T12:01:50Z</time>
        <extensions>
          <gpxtpx:TrackPointExtension xmlns:gpxtpx="http://www.garmin.com/xmlschemas/TrackPointExtension/v1">
            <gpxtpx:hr>106</gpxtpx:hr>
          </gpxtpx:TrackPointExtension>
        </extensions>
      </trkpt>
      <trkpt lat="43.11111" lon="1.2674">
        <ele>377.8</ele>
        <time>2023-03-05T12:01:51Z</time>
        <extensions>
          <gpxtpx:TrackPointExtension xmlns:gpxtpx="http://www.garmin.com/xmlschemas/TrackPointExtension/v1">
            <gpxtpx:hr>106</gpxtpx:hr>
          </gpxtpx:TrackPointExtension>
        </extensions>
      </trkpt>
      <trkpt lat="43.1111" lon="1.26741">
        <ele>378.2</ele>
        <time>2023-03-05T12:01:52Z</time>
        <extensions>
          <gpxtpx:TrackPointExtension xmlns:gpxtpx="http://www.garmin.com/xmlschemas/TrackPointExtension/v1">
            <gpxtpx:hr>106</gpxtpx:hr>
          </gpxtpx:TrackPointExtension>
        </extensions>
      </trkpt>
      <trkpt lat="43.11108" lon="1.26742">
        <ele>378.6</ele>
        <time>2023-03-05T12:01:53Z</time>
        <extensions>
          <gpxtpx:TrackPointExtension xmlns:gpxtpx="http://www.garmin.com/xmlschemas/TrackPointExtension/v1">
            <gpxtpx:hr>107</gpxtpx:hr>
          </gpxtpx:TrackPointExtension>
        </extensions>
      </trkpt>
      <trkpt lat="43.11107" lon="1.26743">
        <ele>379.2</ele>
        <time>2023-03-05T12:01:54Z</time>
        <extensions>
          <gpxtpx:TrackPointExtension xmlns:gpxtpx="http://www.garmin.com/xmlschemas/TrackPointExtension/v1">
            <gpxtpx:hr>108</gpxtpx:hr>
          </gpxtpx:TrackPointExtension>
        </extensions>
      </trkpt>
      <trkpt lat="43.11104" lon="1.26746">
        <ele>379.2</ele>
        <time>2023-03-05T12:01:57Z</time>
        <extensions>
          <gpxtpx:TrackPointExtension xmlns:gpxtpx="http://www.garmin.com/xmlschemas/TrackPointExtension/v1">
            <gpxtpx:hr>110</gpxtpx:hr>
          </gpxtpx:TrackPointExtension>
        </extensions>
      </trkpt>
      <trkpt lat="43.11102" lon="1.26747">
        <ele>379.6</ele>
        <time>2023-03-05T12:01:58Z</time>
        <extensions>
          <gpxtpx:TrackPointExtension xmlns:gpxtpx="http://www.garmin.com/xmlschemas/TrackPointExtension/v1">
            <gpxtpx:hr>111</gpxtpx:hr>
          </gpxtpx:TrackPointExtension>
        </extensions>
      </trkpt>
      <trkpt lat="43.111" lon="1.26749">
        <ele>380</ele>
        <time>2023-03-05T12:01:59Z</time>
        <extensions>
          <gpxtpx:TrackPointExtension xmlns:gpxtpx="http://www.garmin.com/xmlschemas/TrackPointExtension/v1">
            <gpxtpx:hr>111</gpxtpx:hr>
          </gpxtpx:TrackPointExtension>
        </extensions>
      </trkpt>
      <trkpt lat="43.11097" lon="1.26751">
        <ele>380.4</ele>
        <time>2023-03-05T12:02:00Z</time>
        <extensions>
          <gpxtpx:TrackPointExtension xmlns:gpxtpx="http://www.garmin.com/xmlschemas/TrackPointExtension/v1">
            <gpxtpx:hr>111</gpxtpx:hr>
          </gpxtpx:TrackPointExtension>
        </extensions>
      </trkpt>
      <trkpt lat="43.11096" lon="1.26751">
        <ele>380.8</ele>
        <time>2023-03-05T12:02:01Z</time>
        <extensions>
          <gpxtpx:TrackPointExtension xmlns:gpxtpx="http://www.garmin.com/xmlschemas/TrackPointExtension/v1">
            <gpxtpx:hr>111</gpxtpx:hr>
          </gpxtpx:TrackPointExtension>
        </extensions>
      </trkpt>
      <trkpt lat="43.11094" lon="1.26753">
        <ele>381.2</ele>
        <time>2023-03-05T12:02:02Z</time>
        <extensions>
          <gpxtpx:TrackPointExtension xmlns:gpxtpx="http://www.garmin.com/xmlschemas/TrackPointExtension/v1">
            <gpxtpx:hr>112</gpxtpx:hr>
          </gpxtpx:TrackPointExtension>
        </extensions>
      </trkpt>
      <trkpt lat="43.11091" lon="1.26756">
        <ele>381.2</ele>
        <time>2023-03-05T12:02:04Z</time>
        <extensions>
          <gpxtpx:TrackPointExtension xmlns:gpxtpx="http://www.garmin.com/xmlschemas/TrackPointExtension/v1">
            <gpxtpx:hr>114</gpxtpx:hr>
          </gpxtpx:TrackPointExtension>
        </extensions>
      </trkpt>
      <trkpt lat="43.11089" lon="1.26758">
        <ele>381.2</ele>
        <time>2023-03-05T12:02:05Z</time>
        <extensions>
          <gpxtpx:TrackPointExtension xmlns:gpxtpx="http://www.garmin.com/xmlschemas/TrackPointExtension/v1">
            <gpxtpx:hr>115</gpxtpx:hr>
          </gpxtpx:TrackPointExtension>
        </extensions>
      </trkpt>
      <trkpt lat="43.11087" lon="1.26762">
        <ele>381.6</ele>
        <time>2023-03-05T12:02:07Z</time>
        <extensions>
          <gpxtpx:TrackPointExtension xmlns:gpxtpx="http://www.garmin.com/xmlschemas/TrackPointExtension/v1">
            <gpxtpx:hr>116</gpxtpx:hr>
          </gpxtpx:TrackPointExtension>
        </extensions>
      </trkpt>
      <trkpt lat="43.11086" lon="1.26765">
        <ele>382</ele>
        <time>2023-03-05T12:02:08Z</time>
        <extensions>
          <gpxtpx:TrackPointExtension xmlns:gpxtpx="http://www.garmin.com/xmlschemas/TrackPointExtension/v1">
            <gpxtpx:hr>116</gpxtpx:hr>
          </gpxtpx:TrackPointExtension>
        </extensions>
      </trkpt>
      <trkpt lat="43.11084" lon="1.26767">
        <ele>382.4</ele>
        <time>2023-03-05T12:02:09Z</time>
        <extensions>
          <gpxtpx:TrackPointExtension xmlns:gpxtpx="http://www.garmin.com/xmlschemas/TrackPointExtension/v1">
            <gpxtpx:hr>116</gpxtpx:hr>
          </gpxtpx:TrackPointExtension>
        </extensions>
      </trkpt>
      <trkpt lat="43.11082" lon="1.26769">
        <ele>383</ele>
        <time>2023-03-05T12:02:10Z</time>
        <extensions>
          <gpxtpx:TrackPointExtension xmlns:gpxtpx="http://www.garmin.com/xmlschemas/TrackPointExtension/v1">
            <gpxtpx:hr>116</gpxtpx:hr>
          </gpxtpx:TrackPointExtension>
        </extensions>
      </trkpt>
      <trkpt lat="43.1108" lon="1.2677">
        <ele>383.4</ele>
        <time>2023-03-05T12:02:11Z</time>
        <extensions>
          <gpxtpx:TrackPointExtension xmlns:gpxtpx="http://www.garmin.com/xmlschemas/TrackPointExtension/v1">
            <gpxtpx:hr>116</gpxtpx:hr>
          </gpxtpx:TrackPointExtension>
        </extensions>
      </trkpt>
      <trkpt lat="43.11077" lon="1.26774">
        <ele>383.4</ele>
        <time>2023-03-05T12:02:13Z</time>
        <extensions>
          <gpxtpx:TrackPointExtension xmlns:gpxtpx="http://www.garmin.com/xmlschemas/TrackPointExtension/v1">
            <gpxtpx:hr>117</gpxtpx:hr>
          </gpxtpx:TrackPointExtension>
        </extensions>
      </trkpt>
      <trkpt lat="43.11069" lon="1.26784">
        <ele>383.4</ele>
        <time>2023-03-05T12:02:18Z</time>
        <extensions>
          <gpxtpx:TrackPointExtension xmlns:gpxtpx="http://www.garmin.com/xmlschemas/TrackPointExtension/v1">
            <gpxtpx:hr>117</gpxtpx:hr>
          </gpxtpx:TrackPointExtension>
        </extensions>
      </trkpt>
      <trkpt lat="43.11065" lon="1.2679">
        <ele>383.8</ele>
        <time>2023-03-05T12:02:20Z</time>
        <extensions>
          <gpxtpx:TrackPointExtension xmlns:gpxtpx="http://www.garmin.com/xmlschemas/TrackPointExtension/v1">
            <gpxtpx:hr>117</gpxtpx:hr>
          </gpxtpx:TrackPointExtension>
        </extensions>
      </trkpt>
      <trkpt lat="43.11063" lon="1.26794">
        <ele>384.2</ele>
        <time>2023-03-05T12:02:21Z</time>
        <extensions>
          <gpxtpx:TrackPointExtension xmlns:gpxtpx="http://www.garmin.com/xmlschemas/TrackPointExtension/v1">
            <gpxtpx:hr>118</gpxtpx:hr>
          </gpxtpx:TrackPointExtension>
        </extensions>
      </trkpt>
      <trkpt lat="43.11062" lon="1.26797">
        <ele>384.6</ele>
        <time>2023-03-05T12:02:22Z</time>
        <extensions>
          <gpxtpx:TrackPointExtension xmlns:gpxtpx="http://www.garmin.com/xmlschemas/TrackPointExtension/v1">
            <gpxtpx:hr>118</gpxtpx:hr>
          </gpxtpx:TrackPointExtension>
        </extensions>
      </trkpt>
      <trkpt lat="43.1106" lon="1.268">
        <ele>385</ele>
        <time>2023-03-05T12:02:23Z</time>
        <extensions>
          <gpxtpx:TrackPointExtension xmlns:gpxtpx="http://www.garmin.com/xmlschemas/TrackPointExtension/v1">
            <gpxtpx:hr>119</gpxtpx:hr>
          </gpxtpx:TrackPointExtension>
        </extensions>
      </trkpt>
      <trkpt lat="43.11059" lon="1.26803">
        <ele>385.4</ele>
        <time>2023-03-05T12:02:24Z</time>
        <extensions>
          <gpxtpx:TrackPointExtension xmlns:gpxtpx="http://www.garmin.com/xmlschemas/TrackPointExtension/v1">
            <gpxtpx:hr>119</gpxtpx:hr>
          </gpxtpx:TrackPointExtension>
        </extensions>
      </trkpt>
      <trkpt lat="43.11053" lon="1.26809">
        <ele>385.4</ele>
        <time>2023-03-05T12:02:28Z</time>
        <extensions>
          <gpxtpx:TrackPointExtension xmlns:gpxtpx="http://www.garmin.com/xmlschemas/TrackPointExtension/v1">
            <gpxtpx:hr>120</gpxtpx:hr>
          </gpxtpx:TrackPointExtension>
        </extensions>
      </trkpt>
      <trkpt lat="43.11045" lon="1.26816">
        <ele>385.8</ele>
        <time>2023-03-05T12:02:32Z</time>
        <extensions>
          <gpxtpx:TrackPointExtension xmlns:gpxtpx="http://www.garmin.com/xmlschemas/TrackPointExtension/v1">
            <gpxtpx:hr>121</gpxtpx:hr>
          </gpxtpx:TrackPointExtension>
        </extensions>
      </trkpt>
      <trkpt lat="43.11043" lon="1.26819">
        <ele>386.2</ele>
        <time>2023-03-05T12:02:33Z</time>
        <extensions>
          <gpxtpx:TrackPointExtension xmlns:gpxtpx="http://www.garmin.com/xmlschemas/TrackPointExtension/v1">
            <gpxtpx:hr>121</gpxtpx:hr>
          </gpxtpx:TrackPointExtension>
        </extensions>
      </trkpt>
      <trkpt lat="43.11041" lon="1.2682">
        <ele>386.6</ele>
        <time>2023-03-05T12:02:34Z</time>
        <extensions>
          <gpxtpx:TrackPointExtension xmlns:gpxtpx="http://www.garmin.com/xmlschemas/TrackPointExtension/v1">
            <gpxtpx:hr>121</gpxtpx:hr>
          </gpxtpx:TrackPointExtension>
        </extensions>
      </trkpt>
      <trkpt lat="43.11039" lon="1.26821">
        <ele>387</ele>
        <time>2023-03-05T12:02:35Z</time>
        <extensions>
          <gpxtpx:TrackPointExtension xmlns:gpxtpx="http://www.garmin.com/xmlschemas/TrackPointExtension/v1">
            <gpxtpx:hr>121</gpxtpx:hr>
          </gpxtpx:TrackPointExtension>
        </extensions>
      </trkpt>
      <trkpt lat="43.11037" lon="1.26822">
        <ele>387.4</ele>
        <time>2023-03-05T12:02:36Z</time>
        <extensions>
          <gpxtpx:TrackPointExtension xmlns:gpxtpx="http://www.garmin.com/xmlschemas/TrackPointExtension/v1">
            <gpxtpx:hr>121</gpxtpx:hr>
          </gpxtpx:TrackPointExtension>
        </extensions>
      </trkpt>
      <trkpt lat="43.11032" lon="1.26824">
        <ele>387.4</ele>
        <time>2023-03-05T12:02:38Z</time>
        <extensions>
          <gpxtpx:TrackPointExtension xmlns:gpxtpx="http://www.garmin.com/xmlschemas/TrackPointExtension/v1">
            <gpxtpx:hr>123</gpxtpx:hr>
          </gpxtpx:TrackPointExtension>
        </extensions>
      </trkpt>
      <trkpt lat="43.11019" lon="1.2683">
        <ele>387.8</ele>
        <time>2023-03-05T12:02:43Z</time>
        <extensions>
          <gpxtpx:TrackPointExtension xmlns:gpxtpx="http://www.garmin.com/xmlschemas/TrackPointExtension/v1">
            <gpxtpx:hr>124</gpxtpx:hr>
          </gpxtpx:TrackPointExtension>
        </extensions>
      </trkpt>
      <trkpt lat="43.11017" lon="1.26832">
        <ele>388.4</ele>
        <time>2023-03-05T12:02:44Z</time>
        <extensions>
          <gpxtpx:TrackPointExtension xmlns:gpxtpx="http://www.garmin.com/xmlschemas/TrackPointExtension/v1">
            <gpxtpx:hr>124</gpxtpx:hr>
          </gpxtpx:TrackPointExtension>
        </extensions>
      </trkpt>
      <trkpt lat="43.11015" lon="1.26833">
        <ele>388.8</ele>
        <time>2023-03-05T12:02:45Z</time>
        <extensions>
          <gpxtpx:TrackPointExtension xmlns:gpxtpx="http://www.garmin.com/xmlschemas/TrackPointExtension/v1">
            <gpxtpx:hr>124</gpxtpx:hr>
          </gpxtpx:TrackPointExtension>
        </extensions>
      </trkpt>
      <trkpt lat="43.11012" lon="1.26834">
        <ele>389.2</ele>
        <time>2023-03-05T12:02:46Z</time>
        <extensions>
          <gpxtpx:TrackPointExtension xmlns:gpxtpx="http://www.garmin.com/xmlschemas/TrackPointExtension/v1">
            <gpxtpx:hr>125</gpxtpx:hr>
          </gpxtpx:TrackPointExtension>
        </extensions>
      </trkpt>
      <trkpt lat="43.1101" lon="1.26835">
        <ele>389.6</ele>
        <time>2023-03-05T12:02:47Z</time>
        <extensions>
          <gpxtpx:TrackPointExtension xmlns:gpxtpx="http://www.garmin.com/xmlschemas/TrackPointExtension/v1">
            <gpxtpx:hr>125</gpxtpx:hr>
          </gpxtpx:TrackPointExtension>
        </extensions>
      </trkpt>
      <trkpt lat="43.11007" lon="1.26838">
        <ele>389.6</ele>
        <time>2023-03-05T12:02:48Z</time>
        <extensions>
          <gpxtpx:TrackPointExtension xmlns:gpxtpx="http://www.garmin.com/xmlschemas/TrackPointExtension/v1">
            <gpxtpx:hr>126</gpxtpx:hr>
          </gpxtpx:TrackPointExtension>
        </extensions>
      </trkpt>
      <trkpt lat="43.11004" lon="1.2684">
        <ele>390</ele>
        <time>2023-03-05T12:02:49Z</time>
        <extensions>
          <gpxtpx:TrackPointExtension xmlns:gpxtpx="http://www.garmin.com/xmlschemas/TrackPointExtension/v1">
            <gpxtpx:hr>126</gpxtpx:hr>
          </gpxtpx:TrackPointExtension>
        </extensions>
      </trkpt>
      <trkpt lat="43.11002" lon="1.2684">
        <ele>390.4</ele>
        <time>2023-03-05T12:02:50Z</time>
        <extensions>
          <gpxtpx:TrackPointExtension xmlns:gpxtpx="http://www.garmin.com/xmlschemas/TrackPointExtension/v1">
            <gpxtpx:hr>126</gpxtpx:hr>
          </gpxtpx:TrackPointExtension>
        </extensions>
      </trkpt>
      <trkpt lat="43.10999" lon="1.2684">
        <ele>390.8</ele>
        <time>2023-03-05T12:02:51Z</time>
        <extensions>
          <gpxtpx:TrackPointExtension xmlns:gpxtpx="http://www.garmin.com/xmlschemas/TrackPointExtension/v1">
            <gpxtpx:hr>126</gpxtpx:hr>
          </gpxtpx:TrackPointExtension>
        </extensions>
      </trkpt>
      <trkpt lat="43.10998" lon="1.26841">
        <ele>391.2</ele>
        <time>2023-03-05T12:02:52Z</time>
        <extensions>
          <gpxtpx:TrackPointExtension xmlns:gpxtpx="http://www.garmin.com/xmlschemas/TrackPointExtension/v1">
            <gpxtpx:hr>126</gpxtpx:hr>
          </gpxtpx:TrackPointExtension>
        </extensions>
      </trkpt>
      <trkpt lat="43.10995" lon="1.26841">
        <ele>391.8</ele>
        <time>2023-03-05T12:02:53Z</time>
        <extensions>
          <gpxtpx:TrackPointExtension xmlns:gpxtpx="http://www.garmin.com/xmlschemas/TrackPointExtension/v1">
            <gpxtpx:hr>127</gpxtpx:hr>
          </gpxtpx:TrackPointExtension>
        </extensions>
      </trkpt>
      <trkpt lat="43.10993" lon="1.26842">
        <ele>392.2</ele>
        <time>2023-03-05T12:02:55Z</time>
        <extensions>
          <gpxtpx:TrackPointExtension xmlns:gpxtpx="http://www.garmin.com/xmlschemas/TrackPointExtension/v1">
            <gpxtpx:hr>126</gpxtpx:hr>
          </gpxtpx:TrackPointExtension>
        </extensions>
      </trkpt>
      <trkpt lat="43.10991" lon="1.26843">
        <ele>392.6</ele>
        <time>2023-03-05T12:02:56Z</time>
        <extensions>
          <gpxtpx:TrackPointExtension xmlns:gpxtpx="http://www.garmin.com/xmlschemas/TrackPointExtension/v1">
            <gpxtpx:hr>126</gpxtpx:hr>
          </gpxtpx:TrackPointExtension>
        </extensions>
      </trkpt>
      <trkpt lat="43.10989" lon="1.26844">
        <ele>393.2</ele>
        <time>2023-03-05T12:02:57Z</time>
        <extensions>
          <gpxtpx:TrackPointExtension xmlns:gpxtpx="http://www.garmin.com/xmlschemas/TrackPointExtension/v1">
            <gpxtpx:hr>126</gpxtpx:hr>
          </gpxtpx:TrackPointExtension>
        </extensions>
      </trkpt>
      <trkpt lat="43.10987" lon="1.26844">
        <ele>393.6</ele>
        <time>2023-03-05T12:02:58Z</time>
        <extensions>
          <gpxtpx:TrackPointExtension xmlns:gpxtpx="http://www.garmin.com/xmlschemas/TrackPointExtension/v1">
            <gpxtpx:hr>127</gpxtpx:hr>
          </gpxtpx:TrackPointExtension>
        </extensions>
      </trkpt>
      <trkpt lat="43.10987" lon="1.26844">
        <ele>394</ele>
        <time>2023-03-05T12:02:59Z</time>
        <extensions>
          <gpxtpx:TrackPointExtension xmlns:gpxtpx="http://www.garmin.com/xmlschemas/TrackPointExtension/v1">
            <gpxtpx:hr>127</gpxtpx:hr>
          </gpxtpx:TrackPointExtension>
        </extensions>
      </trkpt>
      <trkpt lat="43.10985" lon="1.26845">
        <ele>394</ele>
        <time>2023-03-05T12:03:01Z</time>
        <extensions>
          <gpxtpx:TrackPointExtension xmlns:gpxtpx="http://www.garmin.com/xmlschemas/TrackPointExtension/v1">
            <gpxtpx:hr>127</gpxtpx:hr>
          </gpxtpx:TrackPointExtension>
        </extensions>
      </trkpt>
      <trkpt lat="43.10983" lon="1.26845">
        <ele>394.4</ele>
        <time>2023-03-05T12:03:02Z</time>
        <extensions>
          <gpxtpx:TrackPointExtension xmlns:gpxtpx="http://www.garmin.com/xmlschemas/TrackPointExtension/v1">
            <gpxtpx:hr>127</gpxtpx:hr>
          </gpxtpx:TrackPointExtension>
        </extensions>
      </trkpt>
      <trkpt lat="43.10983" lon="1.26846">
        <ele>394.8</ele>
        <time>2023-03-05T12:03:03Z</time>
        <extensions>
          <gpxtpx:TrackPointExtension xmlns:gpxtpx="http://www.garmin.com/xmlschemas/TrackPointExtension/v1">
            <gpxtpx:hr>127</gpxtpx:hr>
          </gpxtpx:TrackPointExtension>
        </extensions>
      </trkpt>
      <trkpt lat="43.1098" lon="1.26845">
        <ele>395.2</ele>
        <time>2023-03-05T12:03:04Z</time>
        <extensions>
          <gpxtpx:TrackPointExtension xmlns:gpxtpx="http://www.garmin.com/xmlschemas/TrackPointExtension/v1">
            <gpxtpx:hr>127</gpxtpx:hr>
          </gpxtpx:TrackPointExtension>
        </extensions>
      </trkpt>
      <trkpt lat="43.10978" lon="1.26846">
        <ele>395.8</ele>
        <time>2023-03-05T12:03:05Z</time>
        <extensions>
          <gpxtpx:TrackPointExtension xmlns:gpxtpx="http://www.garmin.com/xmlschemas/TrackPointExtension/v1">
            <gpxtpx:hr>128</gpxtpx:hr>
          </gpxtpx:TrackPointExtension>
        </extensions>
      </trkpt>
      <trkpt lat="43.10976" lon="1.26846">
        <ele>396.2</ele>
        <time>2023-03-05T12:03:06Z</time>
        <extensions>
          <gpxtpx:TrackPointExtension xmlns:gpxtpx="http://www.garmin.com/xmlschemas/TrackPointExtension/v1">
            <gpxtpx:hr>128</gpxtpx:hr>
          </gpxtpx:TrackPointExtension>
        </extensions>
      </trkpt>
      <trkpt lat="43.10974" lon="1.26846">
        <ele>396.2</ele>
        <time>2023-03-05T12:03:07Z</time>
        <extensions>
          <gpxtpx:TrackPointExtension xmlns:gpxtpx="http://www.garmin.com/xmlschemas/TrackPointExtension/v1">
            <gpxtpx:hr>128</gpxtpx:hr>
          </gpxtpx:TrackPointExtension>
        </extensions>
      </trkpt>
      <trkpt lat="43.10964" lon="1.2685">
        <ele>396.2</ele>
        <time>2023-03-05T12:03:12Z</time>
        <extensions>
          <gpxtpx:TrackPointExtension xmlns:gpxtpx="http://www.garmin.com/xmlschemas/TrackPointExtension/v1">
            <gpxtpx:hr>128</gpxtpx:hr>
          </gpxtpx:TrackPointExtension>
        </extensions>
      </trkpt>
      <trkpt lat="43.10962" lon="1.26851">
        <ele>396.2</ele>
        <time>2023-03-05T12:03:13Z</time>
        <extensions>
          <gpxtpx:TrackPointExtension xmlns:gpxtpx="http://www.garmin.com/xmlschemas/TrackPointExtension/v1">
            <gpxtpx:hr>128</gpxtpx:hr>
          </gpxtpx:TrackPointExtension>
        </extensions>
      </trkpt>
      <trkpt lat="43.10957" lon="1.26857">
        <ele>396.2</ele>
        <time>2023-03-05T12:03:16Z</time>
        <extensions>
          <gpxtpx:TrackPointExtension xmlns:gpxtpx="http://www.garmin.com/xmlschemas/TrackPointExtension/v1">
            <gpxtpx:hr>129</gpxtpx:hr>
          </gpxtpx:TrackPointExtension>
        </extensions>
      </trkpt>
      <trkpt lat="43.10952" lon="1.26859">
        <ele>396.2</ele>
        <time>2023-03-05T12:03:19Z</time>
        <extensions>
          <gpxtpx:TrackPointExtension xmlns:gpxtpx="http://www.garmin.com/xmlschemas/TrackPointExtension/v1">
            <gpxtpx:hr>129</gpxtpx:hr>
          </gpxtpx:TrackPointExtension>
        </extensions>
      </trkpt>
      <trkpt lat="43.10951" lon="1.26861">
        <ele>396.2</ele>
        <time>2023-03-05T12:03:20Z</time>
        <extensions>
          <gpxtpx:TrackPointExtension xmlns:gpxtpx="http://www.garmin.com/xmlschemas/TrackPointExtension/v1">
            <gpxtpx:hr>128</gpxtpx:hr>
          </gpxtpx:TrackPointExtension>
        </extensions>
      </trkpt>
      <trkpt lat="43.10946" lon="1.26866">
        <ele>396.2</ele>
        <time>2023-03-05T12:03:25Z</time>
        <extensions>
          <gpxtpx:TrackPointExtension xmlns:gpxtpx="http://www.garmin.com/xmlschemas/TrackPointExtension/v1">
            <gpxtpx:hr>126</gpxtpx:hr>
          </gpxtpx:TrackPointExtension>
        </extensions>
      </trkpt>
      <trkpt lat="43.1094" lon="1.26875">
        <ele>398.2</ele>
        <time>2023-03-05T12:04:04Z</time>
        <extensions>
          <gpxtpx:TrackPointExtension xmlns:gpxtpx="http://www.garmin.com/xmlschemas/TrackPointExtension/v1">
            <gpxtpx:hr>122</gpxtpx:hr>
          </gpxtpx:TrackPointExtension>
        </extensions>
      </trkpt>
      <trkpt lat="43.10937" lon="1.26877">
        <ele>398.2</ele>
        <time>2023-03-05T12:04:06Z</time>
        <extensions>
          <gpxtpx:TrackPointExtension xmlns:gpxtpx="http://www.garmin.com/xmlschemas/TrackPointExtension/v1">
            <gpxtpx:hr>122</gpxtpx:hr>
          </gpxtpx:TrackPointExtension>
        </extensions>
      </trkpt>
      <trkpt lat="43.10931" lon="1.2688">
        <ele>398.6</ele>
        <time>2023-03-05T12:04:10Z</time>
        <extensions>
          <gpxtpx:TrackPointExtension xmlns:gpxtpx="http://www.garmin.com/xmlschemas/TrackPointExtension/v1">
            <gpxtpx:hr>121</gpxtpx:hr>
          </gpxtpx:TrackPointExtension>
        </extensions>
      </trkpt>
      <trkpt lat="43.1093" lon="1.26881">
        <ele>399</ele>
        <time>2023-03-05T12:04:11Z</time>
        <extensions>
          <gpxtpx:TrackPointExtension xmlns:gpxtpx="http://www.garmin.com/xmlschemas/TrackPointExtension/v1">
            <gpxtpx:hr>122</gpxtpx:hr>
          </gpxtpx:TrackPointExtension>
        </extensions>
      </trkpt>
      <trkpt lat="43.10929" lon="1.26882">
        <ele>399.4</ele>
        <time>2023-03-05T12:04:12Z</time>
        <extensions>
          <gpxtpx:TrackPointExtension xmlns:gpxtpx="http://www.garmin.com/xmlschemas/TrackPointExtension/v1">
            <gpxtpx:hr>122</gpxtpx:hr>
          </gpxtpx:TrackPointExtension>
        </extensions>
      </trkpt>
      <trkpt lat="43.10927" lon="1.26883">
        <ele>399.8</ele>
        <time>2023-03-05T12:04:13Z</time>
        <extensions>
          <gpxtpx:TrackPointExtension xmlns:gpxtpx="http://www.garmin.com/xmlschemas/TrackPointExtension/v1">
            <gpxtpx:hr>122</gpxtpx:hr>
          </gpxtpx:TrackPointExtension>
        </extensions>
      </trkpt>
      <trkpt lat="43.10926" lon="1.26883">
        <ele>400.2</ele>
        <time>2023-03-05T12:04:14Z</time>
        <extensions>
          <gpxtpx:TrackPointExtension xmlns:gpxtpx="http://www.garmin.com/xmlschemas/TrackPointExtension/v1">
            <gpxtpx:hr>122</gpxtpx:hr>
          </gpxtpx:TrackPointExtension>
        </extensions>
      </trkpt>
      <trkpt lat="43.10921" lon="1.26887">
        <ele>400.6</ele>
        <time>2023-03-05T12:04:17Z</time>
        <extensions>
          <gpxtpx:TrackPointExtension xmlns:gpxtpx="http://www.garmin.com/xmlschemas/TrackPointExtension/v1">
            <gpxtpx:hr>123</gpxtpx:hr>
          </gpxtpx:TrackPointExtension>
        </extensions>
      </trkpt>
      <trkpt lat="43.10919" lon="1.26889">
        <ele>401.2</ele>
        <time>2023-03-05T12:04:18Z</time>
        <extensions>
          <gpxtpx:TrackPointExtension xmlns:gpxtpx="http://www.garmin.com/xmlschemas/TrackPointExtension/v1">
            <gpxtpx:hr>123</gpxtpx:hr>
          </gpxtpx:TrackPointExtension>
        </extensions>
      </trkpt>
      <trkpt lat="43.10917" lon="1.2689">
        <ele>401.6</ele>
        <time>2023-03-05T12:04:19Z</time>
        <extensions>
          <gpxtpx:TrackPointExtension xmlns:gpxtpx="http://www.garmin.com/xmlschemas/TrackPointExtension/v1">
            <gpxtpx:hr>123</gpxtpx:hr>
          </gpxtpx:TrackPointExtension>
        </extensions>
      </trkpt>
      <trkpt lat="43.10915" lon="1.26891">
        <ele>402</ele>
        <time>2023-03-05T12:04:20Z</time>
        <extensions>
          <gpxtpx:TrackPointExtension xmlns:gpxtpx="http://www.garmin.com/xmlschemas/TrackPointExtension/v1">
            <gpxtpx:hr>123</gpxtpx:hr>
          </gpxtpx:TrackPointExtension>
        </extensions>
      </trkpt>
      <trkpt lat="43.10914" lon="1.26893">
        <ele>402.4</ele>
        <time>2023-03-05T12:04:21Z</time>
        <extensions>
          <gpxtpx:TrackPointExtension xmlns:gpxtpx="http://www.garmin.com/xmlschemas/TrackPointExtension/v1">
            <gpxtpx:hr>123</gpxtpx:hr>
          </gpxtpx:TrackPointExtension>
        </extensions>
      </trkpt>
      <trkpt lat="43.10908" lon="1.26898">
        <ele>403</ele>
        <time>2023-03-05T12:04:24Z</time>
        <extensions>
          <gpxtpx:TrackPointExtension xmlns:gpxtpx="http://www.garmin.com/xmlschemas/TrackPointExtension/v1">
            <gpxtpx:hr>123</gpxtpx:hr>
          </gpxtpx:TrackPointExtension>
        </extensions>
      </trkpt>
      <trkpt lat="43.10907" lon="1.269">
        <ele>403.4</ele>
        <time>2023-03-05T12:04:25Z</time>
        <extensions>
          <gpxtpx:TrackPointExtension xmlns:gpxtpx="http://www.garmin.com/xmlschemas/TrackPointExtension/v1">
            <gpxtpx:hr>124</gpxtpx:hr>
          </gpxtpx:TrackPointExtension>
        </extensions>
      </trkpt>
      <trkpt lat="43.10906" lon="1.269">
        <ele>403.8</ele>
        <time>2023-03-05T12:04:26Z</time>
        <extensions>
          <gpxtpx:TrackPointExtension xmlns:gpxtpx="http://www.garmin.com/xmlschemas/TrackPointExtension/v1">
            <gpxtpx:hr>124</gpxtpx:hr>
          </gpxtpx:TrackPointExtension>
        </extensions>
      </trkpt>
      <trkpt lat="43.10904" lon="1.26902">
        <ele>404.2</ele>
        <time>2023-03-05T12:04:27Z</time>
        <extensions>
          <gpxtpx:TrackPointExtension xmlns:gpxtpx="http://www.garmin.com/xmlschemas/TrackPointExtension/v1">
            <gpxtpx:hr>124</gpxtpx:hr>
          </gpxtpx:TrackPointExtension>
        </extensions>
      </trkpt>
      <trkpt lat="43.10902" lon="1.26903">
        <ele>404.8</ele>
        <time>2023-03-05T12:04:28Z</time>
        <extensions>
          <gpxtpx:TrackPointExtension xmlns:gpxtpx="http://www.garmin.com/xmlschemas/TrackPointExtension/v1">
            <gpxtpx:hr>124</gpxtpx:hr>
          </gpxtpx:TrackPointExtension>
        </extensions>
      </trkpt>
      <trkpt lat="43.10898" lon="1.26907">
        <ele>405.2</ele>
        <time>2023-03-05T12:04:31Z</time>
        <extensions>
          <gpxtpx:TrackPointExtension xmlns:gpxtpx="http://www.garmin.com/xmlschemas/TrackPointExtension/v1">
            <gpxtpx:hr>125</gpxtpx:hr>
          </gpxtpx:TrackPointExtension>
        </extensions>
      </trkpt>
      <trkpt lat="43.10896" lon="1.26908">
        <ele>405.6</ele>
        <time>2023-03-05T12:04:32Z</time>
        <extensions>
          <gpxtpx:TrackPointExtension xmlns:gpxtpx="http://www.garmin.com/xmlschemas/TrackPointExtension/v1">
            <gpxtpx:hr>124</gpxtpx:hr>
          </gpxtpx:TrackPointExtension>
        </extensions>
      </trkpt>
      <trkpt lat="43.10894" lon="1.2691">
        <ele>406</ele>
        <time>2023-03-05T12:04:33Z</time>
        <extensions>
          <gpxtpx:TrackPointExtension xmlns:gpxtpx="http://www.garmin.com/xmlschemas/TrackPointExtension/v1">
            <gpxtpx:hr>124</gpxtpx:hr>
          </gpxtpx:TrackPointExtension>
        </extensions>
      </trkpt>
      <trkpt lat="43.10892" lon="1.26911">
        <ele>406.8</ele>
        <time>2023-03-05T12:04:34Z</time>
        <extensions>
          <gpxtpx:TrackPointExtension xmlns:gpxtpx="http://www.garmin.com/xmlschemas/TrackPointExtension/v1">
            <gpxtpx:hr>124</gpxtpx:hr>
          </gpxtpx:TrackPointExtension>
        </extensions>
      </trkpt>
      <trkpt lat="43.10887" lon="1.26914">
        <ele>406.8</ele>
        <time>2023-03-05T12:04:37Z</time>
        <extensions>
          <gpxtpx:TrackPointExtension xmlns:gpxtpx="http://www.garmin.com/xmlschemas/TrackPointExtension/v1">
            <gpxtpx:hr>124</gpxtpx:hr>
          </gpxtpx:TrackPointExtension>
        </extensions>
      </trkpt>
      <trkpt lat="43.10886" lon="1.26915">
        <ele>407.2</ele>
        <time>2023-03-05T12:04:38Z</time>
        <extensions>
          <gpxtpx:TrackPointExtension xmlns:gpxtpx="http://www.garmin.com/xmlschemas/TrackPointExtension/v1">
            <gpxtpx:hr>124</gpxtpx:hr>
          </gpxtpx:TrackPointExtension>
        </extensions>
      </trkpt>
      <trkpt lat="43.10885" lon="1.26917">
        <ele>407.8</ele>
        <time>2023-03-05T12:04:39Z</time>
        <extensions>
          <gpxtpx:TrackPointExtension xmlns:gpxtpx="http://www.garmin.com/xmlschemas/TrackPointExtension/v1">
            <gpxtpx:hr>124</gpxtpx:hr>
          </gpxtpx:TrackPointExtension>
        </extensions>
      </trkpt>
      <trkpt lat="43.10883" lon="1.26918">
        <ele>408.2</ele>
        <time>2023-03-05T12:04:40Z</time>
        <extensions>
          <gpxtpx:TrackPointExtension xmlns:gpxtpx="http://www.garmin.com/xmlschemas/TrackPointExtension/v1">
            <gpxtpx:hr>125</gpxtpx:hr>
          </gpxtpx:TrackPointExtension>
        </extensions>
      </trkpt>
      <trkpt lat="43.10881" lon="1.26919">
        <ele>408.6</ele>
        <time>2023-03-05T12:04:41Z</time>
        <extensions>
          <gpxtpx:TrackPointExtension xmlns:gpxtpx="http://www.garmin.com/xmlschemas/TrackPointExtension/v1">
            <gpxtpx:hr>124</gpxtpx:hr>
          </gpxtpx:TrackPointExtension>
        </extensions>
      </trkpt>
      <trkpt lat="43.1088" lon="1.2692">
        <ele>409</ele>
        <time>2023-03-05T12:04:42Z</time>
        <extensions>
          <gpxtpx:TrackPointExtension xmlns:gpxtpx="http://www.garmin.com/xmlschemas/TrackPointExtension/v1">
            <gpxtpx:hr>125</gpxtpx:hr>
          </gpxtpx:TrackPointExtension>
        </extensions>
      </trkpt>
      <trkpt lat="43.10878" lon="1.26923">
        <ele>409.4</ele>
        <time>2023-03-05T12:04:44Z</time>
        <extensions>
          <gpxtpx:TrackPointExtension xmlns:gpxtpx="http://www.garmin.com/xmlschemas/TrackPointExtension/v1">
            <gpxtpx:hr>125</gpxtpx:hr>
          </gpxtpx:TrackPointExtension>
        </extensions>
      </trkpt>
      <trkpt lat="43.10876" lon="1.26925">
        <ele>409.8</ele>
        <time>2023-03-05T12:04:45Z</time>
        <extensions>
          <gpxtpx:TrackPointExtension xmlns:gpxtpx="http://www.garmin.com/xmlschemas/TrackPointExtension/v1">
            <gpxtpx:hr>125</gpxtpx:hr>
          </gpxtpx:TrackPointExtension>
        </extensions>
      </trkpt>
      <trkpt lat="43.10875" lon="1.26926">
        <ele>410.2</ele>
        <time>2023-03-05T12:04:46Z</time>
        <extensions>
          <gpxtpx:TrackPointExtension xmlns:gpxtpx="http://www.garmin.com/xmlschemas/TrackPointExtension/v1">
            <gpxtpx:hr>125</gpxtpx:hr>
          </gpxtpx:TrackPointExtension>
        </extensions>
      </trkpt>
      <trkpt lat="43.10874" lon="1.26927">
        <ele>410.6</ele>
        <time>2023-03-05T12:04:47Z</time>
        <extensions>
          <gpxtpx:TrackPointExtension xmlns:gpxtpx="http://www.garmin.com/xmlschemas/TrackPointExtension/v1">
            <gpxtpx:hr>126</gpxtpx:hr>
          </gpxtpx:TrackPointExtension>
        </extensions>
      </trkpt>
      <trkpt lat="43.10873" lon="1.26927">
        <ele>411</ele>
        <time>2023-03-05T12:04:48Z</time>
        <extensions>
          <gpxtpx:TrackPointExtension xmlns:gpxtpx="http://www.garmin.com/xmlschemas/TrackPointExtension/v1">
            <gpxtpx:hr>127</gpxtpx:hr>
          </gpxtpx:TrackPointExtension>
        </extensions>
      </trkpt>
      <trkpt lat="43.10871" lon="1.26927">
        <ele>411</ele>
        <time>2023-03-05T12:04:50Z</time>
        <extensions>
          <gpxtpx:TrackPointExtension xmlns:gpxtpx="http://www.garmin.com/xmlschemas/TrackPointExtension/v1">
            <gpxtpx:hr>128</gpxtpx:hr>
          </gpxtpx:TrackPointExtension>
        </extensions>
      </trkpt>
      <trkpt lat="43.10869" lon="1.26926">
        <ele>411.4</ele>
        <time>2023-03-05T12:04:51Z</time>
        <extensions>
          <gpxtpx:TrackPointExtension xmlns:gpxtpx="http://www.garmin.com/xmlschemas/TrackPointExtension/v1">
            <gpxtpx:hr>128</gpxtpx:hr>
          </gpxtpx:TrackPointExtension>
        </extensions>
      </trkpt>
      <trkpt lat="43.10867" lon="1.26926">
        <ele>411.8</ele>
        <time>2023-03-05T12:04:52Z</time>
        <extensions>
          <gpxtpx:TrackPointExtension xmlns:gpxtpx="http://www.garmin.com/xmlschemas/TrackPointExtension/v1">
            <gpxtpx:hr>128</gpxtpx:hr>
          </gpxtpx:TrackPointExtension>
        </extensions>
      </trkpt>
      <trkpt lat="43.10866" lon="1.26925">
        <ele>412.2</ele>
        <time>2023-03-05T12:04:53Z</time>
        <extensions>
          <gpxtpx:TrackPointExtension xmlns:gpxtpx="http://www.garmin.com/xmlschemas/TrackPointExtension/v1">
            <gpxtpx:hr>128</gpxtpx:hr>
          </gpxtpx:TrackPointExtension>
        </extensions>
      </trkpt>
      <trkpt lat="43.10864" lon="1.26925">
        <ele>412.6</ele>
        <time>2023-03-05T12:04:54Z</time>
        <extensions>
          <gpxtpx:TrackPointExtension xmlns:gpxtpx="http://www.garmin.com/xmlschemas/TrackPointExtension/v1">
            <gpxtpx:hr>128</gpxtpx:hr>
          </gpxtpx:TrackPointExtension>
        </extensions>
      </trkpt>
      <trkpt lat="43.10863" lon="1.26924">
        <ele>413</ele>
        <time>2023-03-05T12:04:55Z</time>
        <extensions>
          <gpxtpx:TrackPointExtension xmlns:gpxtpx="http://www.garmin.com/xmlschemas/TrackPointExtension/v1">
            <gpxtpx:hr>129</gpxtpx:hr>
          </gpxtpx:TrackPointExtension>
        </extensions>
      </trkpt>
      <trkpt lat="43.10861" lon="1.26923">
        <ele>413</ele>
        <time>2023-03-05T12:04:56Z</time>
        <extensions>
          <gpxtpx:TrackPointExtension xmlns:gpxtpx="http://www.garmin.com/xmlschemas/TrackPointExtension/v1">
            <gpxtpx:hr>129</gpxtpx:hr>
          </gpxtpx:TrackPointExtension>
        </extensions>
      </trkpt>
      <trkpt lat="43.10852" lon="1.2692">
        <ele>413</ele>
        <time>2023-03-05T12:05:00Z</time>
        <extensions>
          <gpxtpx:TrackPointExtension xmlns:gpxtpx="http://www.garmin.com/xmlschemas/TrackPointExtension/v1">
            <gpxtpx:hr>130</gpxtpx:hr>
          </gpxtpx:TrackPointExtension>
        </extensions>
      </trkpt>
      <trkpt lat="43.1085" lon="1.26916">
        <ele>413</ele>
        <time>2023-03-05T12:05:01Z</time>
        <extensions>
          <gpxtpx:TrackPointExtension xmlns:gpxtpx="http://www.garmin.com/xmlschemas/TrackPointExtension/v1">
            <gpxtpx:hr>130</gpxtpx:hr>
          </gpxtpx:TrackPointExtension>
        </extensions>
      </trkpt>
      <trkpt lat="43.10847" lon="1.269">
        <ele>413</ele>
        <time>2023-03-05T12:05:05Z</time>
        <extensions>
          <gpxtpx:TrackPointExtension xmlns:gpxtpx="http://www.garmin.com/xmlschemas/TrackPointExtension/v1">
            <gpxtpx:hr>130</gpxtpx:hr>
          </gpxtpx:TrackPointExtension>
        </extensions>
      </trkpt>
      <trkpt lat="43.10847" lon="1.26894">
        <ele>412.6</ele>
        <time>2023-03-05T12:05:06Z</time>
        <extensions>
          <gpxtpx:TrackPointExtension xmlns:gpxtpx="http://www.garmin.com/xmlschemas/TrackPointExtension/v1">
            <gpxtpx:hr>130</gpxtpx:hr>
          </gpxtpx:TrackPointExtension>
        </extensions>
      </trkpt>
      <trkpt lat="43.10847" lon="1.26889">
        <ele>412.2</ele>
        <time>2023-03-05T12:05:07Z</time>
        <extensions>
          <gpxtpx:TrackPointExtension xmlns:gpxtpx="http://www.garmin.com/xmlschemas/TrackPointExtension/v1">
            <gpxtpx:hr>129</gpxtpx:hr>
          </gpxtpx:TrackPointExtension>
        </extensions>
      </trkpt>
      <trkpt lat="43.10846" lon="1.26885">
        <ele>411.8</ele>
        <time>2023-03-05T12:05:08Z</time>
        <extensions>
          <gpxtpx:TrackPointExtension xmlns:gpxtpx="http://www.garmin.com/xmlschemas/TrackPointExtension/v1">
            <gpxtpx:hr>129</gpxtpx:hr>
          </gpxtpx:TrackPointExtension>
        </extensions>
      </trkpt>
      <trkpt lat="43.10846" lon="1.2688">
        <ele>411.4</ele>
        <time>2023-03-05T12:05:09Z</time>
        <extensions>
          <gpxtpx:TrackPointExtension xmlns:gpxtpx="http://www.garmin.com/xmlschemas/TrackPointExtension/v1">
            <gpxtpx:hr>129</gpxtpx:hr>
          </gpxtpx:TrackPointExtension>
        </extensions>
      </trkpt>
      <trkpt lat="43.10846" lon="1.26875">
        <ele>411</ele>
        <time>2023-03-05T12:05:10Z</time>
        <extensions>
          <gpxtpx:TrackPointExtension xmlns:gpxtpx="http://www.garmin.com/xmlschemas/TrackPointExtension/v1">
            <gpxtpx:hr>128</gpxtpx:hr>
          </gpxtpx:TrackPointExtension>
        </extensions>
      </trkpt>
      <trkpt lat="43.10847" lon="1.26871">
        <ele>410.6</ele>
        <time>2023-03-05T12:05:11Z</time>
        <extensions>
          <gpxtpx:TrackPointExtension xmlns:gpxtpx="http://www.garmin.com/xmlschemas/TrackPointExtension/v1">
            <gpxtpx:hr>127</gpxtpx:hr>
          </gpxtpx:TrackPointExtension>
        </extensions>
      </trkpt>
      <trkpt lat="43.10846" lon="1.26868">
        <ele>410.2</ele>
        <time>2023-03-05T12:05:12Z</time>
        <extensions>
          <gpxtpx:TrackPointExtension xmlns:gpxtpx="http://www.garmin.com/xmlschemas/TrackPointExtension/v1">
            <gpxtpx:hr>126</gpxtpx:hr>
          </gpxtpx:TrackPointExtension>
        </extensions>
      </trkpt>
      <trkpt lat="43.10845" lon="1.26865">
        <ele>409.6</ele>
        <time>2023-03-05T12:05:13Z</time>
        <extensions>
          <gpxtpx:TrackPointExtension xmlns:gpxtpx="http://www.garmin.com/xmlschemas/TrackPointExtension/v1">
            <gpxtpx:hr>124</gpxtpx:hr>
          </gpxtpx:TrackPointExtension>
        </extensions>
      </trkpt>
      <trkpt lat="43.10842" lon="1.26864">
        <ele>409.2</ele>
        <time>2023-03-05T12:05:14Z</time>
        <extensions>
          <gpxtpx:TrackPointExtension xmlns:gpxtpx="http://www.garmin.com/xmlschemas/TrackPointExtension/v1">
            <gpxtpx:hr>123</gpxtpx:hr>
          </gpxtpx:TrackPointExtension>
        </extensions>
      </trkpt>
      <trkpt lat="43.10839" lon="1.26865">
        <ele>408.6</ele>
        <time>2023-03-05T12:05:15Z</time>
        <extensions>
          <gpxtpx:TrackPointExtension xmlns:gpxtpx="http://www.garmin.com/xmlschemas/TrackPointExtension/v1">
            <gpxtpx:hr>123</gpxtpx:hr>
          </gpxtpx:TrackPointExtension>
        </extensions>
      </trkpt>
      <trkpt lat="43.10836" lon="1.26867">
        <ele>408.2</ele>
        <time>2023-03-05T12:05:16Z</time>
        <extensions>
          <gpxtpx:TrackPointExtension xmlns:gpxtpx="http://www.garmin.com/xmlschemas/TrackPointExtension/v1">
            <gpxtpx:hr>122</gpxtpx:hr>
          </gpxtpx:TrackPointExtension>
        </extensions>
      </trkpt>
      <trkpt lat="43.10833" lon="1.26869">
        <ele>407.6</ele>
        <time>2023-03-05T12:05:17Z</time>
        <extensions>
          <gpxtpx:TrackPointExtension xmlns:gpxtpx="http://www.garmin.com/xmlschemas/TrackPointExtension/v1">
            <gpxtpx:hr>122</gpxtpx:hr>
          </gpxtpx:TrackPointExtension>
        </extensions>
      </trkpt>
      <trkpt lat="43.1083" lon="1.26871">
        <ele>407.2</ele>
        <time>2023-03-05T12:05:18Z</time>
        <extensions>
          <gpxtpx:TrackPointExtension xmlns:gpxtpx="http://www.garmin.com/xmlschemas/TrackPointExtension/v1">
            <gpxtpx:hr>122</gpxtpx:hr>
          </gpxtpx:TrackPointExtension>
        </extensions>
      </trkpt>
      <trkpt lat="43.10828" lon="1.2687">
        <ele>406.6</ele>
        <time>2023-03-05T12:05:19Z</time>
        <extensions>
          <gpxtpx:TrackPointExtension xmlns:gpxtpx="http://www.garmin.com/xmlschemas/TrackPointExtension/v1">
            <gpxtpx:hr>121</gpxtpx:hr>
          </gpxtpx:TrackPointExtension>
        </extensions>
      </trkpt>
      <trkpt lat="43.10826" lon="1.26868">
        <ele>406</ele>
        <time>2023-03-05T12:05:20Z</time>
        <extensions>
          <gpxtpx:TrackPointExtension xmlns:gpxtpx="http://www.garmin.com/xmlschemas/TrackPointExtension/v1">
            <gpxtpx:hr>121</gpxtpx:hr>
          </gpxtpx:TrackPointExtension>
        </extensions>
      </trkpt>
      <trkpt lat="43.10824" lon="1.26867">
        <ele>405.4</ele>
        <time>2023-03-05T12:05:21Z</time>
        <extensions>
          <gpxtpx:TrackPointExtension xmlns:gpxtpx="http://www.garmin.com/xmlschemas/TrackPointExtension/v1">
            <gpxtpx:hr>121</gpxtpx:hr>
          </gpxtpx:TrackPointExtension>
        </extensions>
      </trkpt>
      <trkpt lat="43.10822" lon="1.26864">
        <ele>404.8</ele>
        <time>2023-03-05T12:05:22Z</time>
        <extensions>
          <gpxtpx:TrackPointExtension xmlns:gpxtpx="http://www.garmin.com/xmlschemas/TrackPointExtension/v1">
            <gpxtpx:hr>120</gpxtpx:hr>
          </gpxtpx:TrackPointExtension>
        </extensions>
      </trkpt>
      <trkpt lat="43.10821" lon="1.26861">
        <ele>404.2</ele>
        <time>2023-03-05T12:05:23Z</time>
        <extensions>
          <gpxtpx:TrackPointExtension xmlns:gpxtpx="http://www.garmin.com/xmlschemas/TrackPointExtension/v1">
            <gpxtpx:hr>119</gpxtpx:hr>
          </gpxtpx:TrackPointExtension>
        </extensions>
      </trkpt>
      <trkpt lat="43.10819" lon="1.26856">
        <ele>404.2</ele>
        <time>2023-03-05T12:05:24Z</time>
        <extensions>
          <gpxtpx:TrackPointExtension xmlns:gpxtpx="http://www.garmin.com/xmlschemas/TrackPointExtension/v1">
            <gpxtpx:hr>119</gpxtpx:hr>
          </gpxtpx:TrackPointExtension>
        </extensions>
      </trkpt>
      <trkpt lat="43.10817" lon="1.26852">
        <ele>403.8</ele>
        <time>2023-03-05T12:05:25Z</time>
        <extensions>
          <gpxtpx:TrackPointExtension xmlns:gpxtpx="http://www.garmin.com/xmlschemas/TrackPointExtension/v1">
            <gpxtpx:hr>118</gpxtpx:hr>
          </gpxtpx:TrackPointExtension>
        </extensions>
      </trkpt>
      <trkpt lat="43.10815" lon="1.26848">
        <ele>403.4</ele>
        <time>2023-03-05T12:05:26Z</time>
        <extensions>
          <gpxtpx:TrackPointExtension xmlns:gpxtpx="http://www.garmin.com/xmlschemas/TrackPointExtension/v1">
            <gpxtpx:hr>118</gpxtpx:hr>
          </gpxtpx:TrackPointExtension>
        </extensions>
      </trkpt>
      <trkpt lat="43.10813" lon="1.26843">
        <ele>403</ele>
        <time>2023-03-05T12:05:27Z</time>
        <extensions>
          <gpxtpx:TrackPointExtension xmlns:gpxtpx="http://www.garmin.com/xmlschemas/TrackPointExtension/v1">
            <gpxtpx:hr>118</gpxtpx:hr>
          </gpxtpx:TrackPointExtension>
        </extensions>
      </trkpt>
      <trkpt lat="43.1081" lon="1.26839">
        <ele>402.4</ele>
        <time>2023-03-05T12:05:28Z</time>
        <extensions>
          <gpxtpx:TrackPointExtension xmlns:gpxtpx="http://www.garmin.com/xmlschemas/TrackPointExtension/v1">
            <gpxtpx:hr>117</gpxtpx:hr>
          </gpxtpx:TrackPointExtension>
        </extensions>
      </trkpt>
      <trkpt lat="43.10808" lon="1.26836">
        <ele>402</ele>
        <time>2023-03-05T12:05:29Z</time>
        <extensions>
          <gpxtpx:TrackPointExtension xmlns:gpxtpx="http://www.garmin.com/xmlschemas/TrackPointExtension/v1">
            <gpxtpx:hr>117</gpxtpx:hr>
          </gpxtpx:TrackPointExtension>
        </extensions>
      </trkpt>
      <trkpt lat="43.10805" lon="1.26834">
        <ele>401.4</ele>
        <time>2023-03-05T12:05:30Z</time>
        <extensions>
          <gpxtpx:TrackPointExtension xmlns:gpxtpx="http://www.garmin.com/xmlschemas/TrackPointExtension/v1">
            <gpxtpx:hr>117</gpxtpx:hr>
          </gpxtpx:TrackPointExtension>
        </extensions>
      </trkpt>
      <trkpt lat="43.10802" lon="1.26831">
        <ele>401</ele>
        <time>2023-03-05T12:05:31Z</time>
        <extensions>
          <gpxtpx:TrackPointExtension xmlns:gpxtpx="http://www.garmin.com/xmlschemas/TrackPointExtension/v1">
            <gpxtpx:hr>117</gpxtpx:hr>
          </gpxtpx:TrackPointExtension>
        </extensions>
      </trkpt>
      <trkpt lat="43.10801" lon="1.26829">
        <ele>400.4</ele>
        <time>2023-03-05T12:05:32Z</time>
        <extensions>
          <gpxtpx:TrackPointExtension xmlns:gpxtpx="http://www.garmin.com/xmlschemas/TrackPointExtension/v1">
            <gpxtpx:hr>117</gpxtpx:hr>
          </gpxtpx:TrackPointExtension>
        </extensions>
      </trkpt>
      <trkpt lat="43.10799" lon="1.26827">
        <ele>400</ele>
        <time>2023-03-05T12:05:33Z</time>
        <extensions>
          <gpxtpx:TrackPointExtension xmlns:gpxtpx="http://www.garmin.com/xmlschemas/TrackPointExtension/v1">
            <gpxtpx:hr>117</gpxtpx:hr>
          </gpxtpx:TrackPointExtension>
        </extensions>
      </trkpt>
      <trkpt lat="43.10795" lon="1.26824">
        <ele>400</ele>
        <time>2023-03-05T12:05:35Z</time>
        <extensions>
          <gpxtpx:TrackPointExtension xmlns:gpxtpx="http://www.garmin.com/xmlschemas/TrackPointExtension/v1">
            <gpxtpx:hr>117</gpxtpx:hr>
          </gpxtpx:TrackPointExtension>
        </extensions>
      </trkpt>
      <trkpt lat="43.10787" lon="1.26818">
        <ele>400</ele>
        <time>2023-03-05T12:05:41Z</time>
        <extensions>
          <gpxtpx:TrackPointExtension xmlns:gpxtpx="http://www.garmin.com/xmlschemas/TrackPointExtension/v1">
            <gpxtpx:hr>118</gpxtpx:hr>
          </gpxtpx:TrackPointExtension>
        </extensions>
      </trkpt>
      <trkpt lat="43.10787" lon="1.26818">
        <ele>400.4</ele>
        <time>2023-03-05T12:05:42Z</time>
        <extensions>
          <gpxtpx:TrackPointExtension xmlns:gpxtpx="http://www.garmin.com/xmlschemas/TrackPointExtension/v1">
            <gpxtpx:hr>119</gpxtpx:hr>
          </gpxtpx:TrackPointExtension>
        </extensions>
      </trkpt>
      <trkpt lat="43.10787" lon="1.26817">
        <ele>400.8</ele>
        <time>2023-03-05T12:05:43Z</time>
        <extensions>
          <gpxtpx:TrackPointExtension xmlns:gpxtpx="http://www.garmin.com/xmlschemas/TrackPointExtension/v1">
            <gpxtpx:hr>120</gpxtpx:hr>
          </gpxtpx:TrackPointExtension>
        </extensions>
      </trkpt>
      <trkpt lat="43.10785" lon="1.26817">
        <ele>401.2</ele>
        <time>2023-03-05T12:05:44Z</time>
        <extensions>
          <gpxtpx:TrackPointExtension xmlns:gpxtpx="http://www.garmin.com/xmlschemas/TrackPointExtension/v1">
            <gpxtpx:hr>120</gpxtpx:hr>
          </gpxtpx:TrackPointExtension>
        </extensions>
      </trkpt>
      <trkpt lat="43.10784" lon="1.26816">
        <ele>401.6</ele>
        <time>2023-03-05T12:05:45Z</time>
        <extensions>
          <gpxtpx:TrackPointExtension xmlns:gpxtpx="http://www.garmin.com/xmlschemas/TrackPointExtension/v1">
            <gpxtpx:hr>121</gpxtpx:hr>
          </gpxtpx:TrackPointExtension>
        </extensions>
      </trkpt>
      <trkpt lat="43.10783" lon="1.26815">
        <ele>402.2</ele>
        <time>2023-03-05T12:05:46Z</time>
        <extensions>
          <gpxtpx:TrackPointExtension xmlns:gpxtpx="http://www.garmin.com/xmlschemas/TrackPointExtension/v1">
            <gpxtpx:hr>121</gpxtpx:hr>
          </gpxtpx:TrackPointExtension>
        </extensions>
      </trkpt>
      <trkpt lat="43.10782" lon="1.26814">
        <ele>402.2</ele>
        <time>2023-03-05T12:05:47Z</time>
        <extensions>
          <gpxtpx:TrackPointExtension xmlns:gpxtpx="http://www.garmin.com/xmlschemas/TrackPointExtension/v1">
            <gpxtpx:hr>121</gpxtpx:hr>
          </gpxtpx:TrackPointExtension>
        </extensions>
      </trkpt>
      <trkpt lat="43.1078" lon="1.26812">
        <ele>402.6</ele>
        <time>2023-03-05T12:05:49Z</time>
        <extensions>
          <gpxtpx:TrackPointExtension xmlns:gpxtpx="http://www.garmin.com/xmlschemas/TrackPointExtension/v1">
            <gpxtpx:hr>121</gpxtpx:hr>
          </gpxtpx:TrackPointExtension>
        </extensions>
      </trkpt>
      <trkpt lat="43.10779" lon="1.26812">
        <ele>403</ele>
        <time>2023-03-05T12:05:50Z</time>
        <extensions>
          <gpxtpx:TrackPointExtension xmlns:gpxtpx="http://www.garmin.com/xmlschemas/TrackPointExtension/v1">
            <gpxtpx:hr>121</gpxtpx:hr>
          </gpxtpx:TrackPointExtension>
        </extensions>
      </trkpt>
      <trkpt lat="43.10777" lon="1.2681">
        <ele>403.4</ele>
        <time>2023-03-05T12:05:51Z</time>
        <extensions>
          <gpxtpx:TrackPointExtension xmlns:gpxtpx="http://www.garmin.com/xmlschemas/TrackPointExtension/v1">
            <gpxtpx:hr>121</gpxtpx:hr>
          </gpxtpx:TrackPointExtension>
        </extensions>
      </trkpt>
      <trkpt lat="43.10776" lon="1.26809">
        <ele>404</ele>
        <time>2023-03-05T12:05:52Z</time>
        <extensions>
          <gpxtpx:TrackPointExtension xmlns:gpxtpx="http://www.garmin.com/xmlschemas/TrackPointExtension/v1">
            <gpxtpx:hr>121</gpxtpx:hr>
          </gpxtpx:TrackPointExtension>
        </extensions>
      </trkpt>
      <trkpt lat="43.10775" lon="1.26808">
        <ele>404.4</ele>
        <time>2023-03-05T12:05:53Z</time>
        <extensions>
          <gpxtpx:TrackPointExtension xmlns:gpxtpx="http://www.garmin.com/xmlschemas/TrackPointExtension/v1">
            <gpxtpx:hr>122</gpxtpx:hr>
          </gpxtpx:TrackPointExtension>
        </extensions>
      </trkpt>
      <trkpt lat="43.10773" lon="1.26805">
        <ele>404.8</ele>
        <time>2023-03-05T12:05:55Z</time>
        <extensions>
          <gpxtpx:TrackPointExtension xmlns:gpxtpx="http://www.garmin.com/xmlschemas/TrackPointExtension/v1">
            <gpxtpx:hr>122</gpxtpx:hr>
          </gpxtpx:TrackPointExtension>
        </extensions>
      </trkpt>
      <trkpt lat="43.10772" lon="1.26804">
        <ele>405.2</ele>
        <time>2023-03-05T12:05:56Z</time>
        <extensions>
          <gpxtpx:TrackPointExtension xmlns:gpxtpx="http://www.garmin.com/xmlschemas/TrackPointExtension/v1">
            <gpxtpx:hr>123</gpxtpx:hr>
          </gpxtpx:TrackPointExtension>
        </extensions>
      </trkpt>
      <trkpt lat="43.10771" lon="1.26803">
        <ele>405.6</ele>
        <time>2023-03-05T12:05:57Z</time>
        <extensions>
          <gpxtpx:TrackPointExtension xmlns:gpxtpx="http://www.garmin.com/xmlschemas/TrackPointExtension/v1">
            <gpxtpx:hr>123</gpxtpx:hr>
          </gpxtpx:TrackPointExtension>
        </extensions>
      </trkpt>
      <trkpt lat="43.1077" lon="1.26801">
        <ele>406</ele>
        <time>2023-03-05T12:05:58Z</time>
        <extensions>
          <gpxtpx:TrackPointExtension xmlns:gpxtpx="http://www.garmin.com/xmlschemas/TrackPointExtension/v1">
            <gpxtpx:hr>123</gpxtpx:hr>
          </gpxtpx:TrackPointExtension>
        </extensions>
      </trkpt>
      <trkpt lat="43.10768" lon="1.26801">
        <ele>406.6</ele>
        <time>2023-03-05T12:05:59Z</time>
        <extensions>
          <gpxtpx:TrackPointExtension xmlns:gpxtpx="http://www.garmin.com/xmlschemas/TrackPointExtension/v1">
            <gpxtpx:hr>123</gpxtpx:hr>
          </gpxtpx:TrackPointExtension>
        </extensions>
      </trkpt>
      <trkpt lat="43.10766" lon="1.26799">
        <ele>407</ele>
        <time>2023-03-05T12:06:01Z</time>
        <extensions>
          <gpxtpx:TrackPointExtension xmlns:gpxtpx="http://www.garmin.com/xmlschemas/TrackPointExtension/v1">
            <gpxtpx:hr>124</gpxtpx:hr>
          </gpxtpx:TrackPointExtension>
        </extensions>
      </trkpt>
      <trkpt lat="43.10765" lon="1.26798">
        <ele>407.4</ele>
        <time>2023-03-05T12:06:02Z</time>
        <extensions>
          <gpxtpx:TrackPointExtension xmlns:gpxtpx="http://www.garmin.com/xmlschemas/TrackPointExtension/v1">
            <gpxtpx:hr>124</gpxtpx:hr>
          </gpxtpx:TrackPointExtension>
        </extensions>
      </trkpt>
      <trkpt lat="43.10763" lon="1.26798">
        <ele>407.8</ele>
        <time>2023-03-05T12:06:03Z</time>
        <extensions>
          <gpxtpx:TrackPointExtension xmlns:gpxtpx="http://www.garmin.com/xmlschemas/TrackPointExtension/v1">
            <gpxtpx:hr>124</gpxtpx:hr>
          </gpxtpx:TrackPointExtension>
        </extensions>
      </trkpt>
      <trkpt lat="43.10762" lon="1.26797">
        <ele>408.2</ele>
        <time>2023-03-05T12:06:04Z</time>
        <extensions>
          <gpxtpx:TrackPointExtension xmlns:gpxtpx="http://www.garmin.com/xmlschemas/TrackPointExtension/v1">
            <gpxtpx:hr>124</gpxtpx:hr>
          </gpxtpx:TrackPointExtension>
        </extensions>
      </trkpt>
      <trkpt lat="43.1076" lon="1.26797">
        <ele>408.8</ele>
        <time>2023-03-05T12:06:05Z</time>
        <extensions>
          <gpxtpx:TrackPointExtension xmlns:gpxtpx="http://www.garmin.com/xmlschemas/TrackPointExtension/v1">
            <gpxtpx:hr>124</gpxtpx:hr>
          </gpxtpx:TrackPointExtension>
        </extensions>
      </trkpt>
      <trkpt lat="43.10752" lon="1.26794">
        <ele>409.2</ele>
        <time>2023-03-05T12:06:10Z</time>
        <extensions>
          <gpxtpx:TrackPointExtension xmlns:gpxtpx="http://www.garmin.com/xmlschemas/TrackPointExtension/v1">
            <gpxtpx:hr>125</gpxtpx:hr>
          </gpxtpx:TrackPointExtension>
        </extensions>
      </trkpt>
      <trkpt lat="43.10751" lon="1.26793">
        <ele>409.6</ele>
        <time>2023-03-05T12:06:11Z</time>
        <extensions>
          <gpxtpx:TrackPointExtension xmlns:gpxtpx="http://www.garmin.com/xmlschemas/TrackPointExtension/v1">
            <gpxtpx:hr>126</gpxtpx:hr>
          </gpxtpx:TrackPointExtension>
        </extensions>
      </trkpt>
      <trkpt lat="43.10749" lon="1.26793">
        <ele>410</ele>
        <time>2023-03-05T12:06:12Z</time>
        <extensions>
          <gpxtpx:TrackPointExtension xmlns:gpxtpx="http://www.garmin.com/xmlschemas/TrackPointExtension/v1">
            <gpxtpx:hr>126</gpxtpx:hr>
          </gpxtpx:TrackPointExtension>
        </extensions>
      </trkpt>
      <trkpt lat="43.10747" lon="1.26793">
        <ele>411</ele>
        <time>2023-03-05T12:06:13Z</time>
        <extensions>
          <gpxtpx:TrackPointExtension xmlns:gpxtpx="http://www.garmin.com/xmlschemas/TrackPointExtension/v1">
            <gpxtpx:hr>127</gpxtpx:hr>
          </gpxtpx:TrackPointExtension>
        </extensions>
      </trkpt>
      <trkpt lat="43.10742" lon="1.2679">
        <ele>411</ele>
        <time>2023-03-05T12:06:16Z</time>
        <extensions>
          <gpxtpx:TrackPointExtension xmlns:gpxtpx="http://www.garmin.com/xmlschemas/TrackPointExtension/v1">
            <gpxtpx:hr>127</gpxtpx:hr>
          </gpxtpx:TrackPointExtension>
        </extensions>
      </trkpt>
      <trkpt lat="43.10731" lon="1.26789">
        <ele>411</ele>
        <time>2023-03-05T12:06:21Z</time>
        <extensions>
          <gpxtpx:TrackPointExtension xmlns:gpxtpx="http://www.garmin.com/xmlschemas/TrackPointExtension/v1">
            <gpxtpx:hr>128</gpxtpx:hr>
          </gpxtpx:TrackPointExtension>
        </extensions>
      </trkpt>
      <trkpt lat="43.10719" lon="1.26783">
        <ele>411</ele>
        <time>2023-03-05T12:06:26Z</time>
        <extensions>
          <gpxtpx:TrackPointExtension xmlns:gpxtpx="http://www.garmin.com/xmlschemas/TrackPointExtension/v1">
            <gpxtpx:hr>128</gpxtpx:hr>
          </gpxtpx:TrackPointExtension>
        </extensions>
      </trkpt>
      <trkpt lat="43.10717" lon="1.26783">
        <ele>411</ele>
        <time>2023-03-05T12:06:27Z</time>
        <extensions>
          <gpxtpx:TrackPointExtension xmlns:gpxtpx="http://www.garmin.com/xmlschemas/TrackPointExtension/v1">
            <gpxtpx:hr>128</gpxtpx:hr>
          </gpxtpx:TrackPointExtension>
        </extensions>
      </trkpt>
      <trkpt lat="43.10706" lon="1.26776">
        <ele>411</ele>
        <time>2023-03-05T12:06:32Z</time>
        <extensions>
          <gpxtpx:TrackPointExtension xmlns:gpxtpx="http://www.garmin.com/xmlschemas/TrackPointExtension/v1">
            <gpxtpx:hr>129</gpxtpx:hr>
          </gpxtpx:TrackPointExtension>
        </extensions>
      </trkpt>
      <trkpt lat="43.10697" lon="1.26771">
        <ele>411.4</ele>
        <time>2023-03-05T12:06:35Z</time>
        <extensions>
          <gpxtpx:TrackPointExtension xmlns:gpxtpx="http://www.garmin.com/xmlschemas/TrackPointExtension/v1">
            <gpxtpx:hr>128</gpxtpx:hr>
          </gpxtpx:TrackPointExtension>
        </extensions>
      </trkpt>
      <trkpt lat="43.10695" lon="1.26769">
        <ele>411.8</ele>
        <time>2023-03-05T12:06:36Z</time>
        <extensions>
          <gpxtpx:TrackPointExtension xmlns:gpxtpx="http://www.garmin.com/xmlschemas/TrackPointExtension/v1">
            <gpxtpx:hr>128</gpxtpx:hr>
          </gpxtpx:TrackPointExtension>
        </extensions>
      </trkpt>
      <trkpt lat="43.10693" lon="1.26768">
        <ele>412.2</ele>
        <time>2023-03-05T12:06:37Z</time>
        <extensions>
          <gpxtpx:TrackPointExtension xmlns:gpxtpx="http://www.garmin.com/xmlschemas/TrackPointExtension/v1">
            <gpxtpx:hr>127</gpxtpx:hr>
          </gpxtpx:TrackPointExtension>
        </extensions>
      </trkpt>
      <trkpt lat="43.10692" lon="1.26767">
        <ele>413</ele>
        <time>2023-03-05T12:06:38Z</time>
        <extensions>
          <gpxtpx:TrackPointExtension xmlns:gpxtpx="http://www.garmin.com/xmlschemas/TrackPointExtension/v1">
            <gpxtpx:hr>127</gpxtpx:hr>
          </gpxtpx:TrackPointExtension>
        </extensions>
      </trkpt>
      <trkpt lat="43.1069" lon="1.26766">
        <ele>413</ele>
        <time>2023-03-05T12:06:39Z</time>
        <extensions>
          <gpxtpx:TrackPointExtension xmlns:gpxtpx="http://www.garmin.com/xmlschemas/TrackPointExtension/v1">
            <gpxtpx:hr>127</gpxtpx:hr>
          </gpxtpx:TrackPointExtension>
        </extensions>
      </trkpt>
      <trkpt lat="43.10687" lon="1.26767">
        <ele>413</ele>
        <time>2023-03-05T12:06:41Z</time>
        <extensions>
          <gpxtpx:TrackPointExtension xmlns:gpxtpx="http://www.garmin.com/xmlschemas/TrackPointExtension/v1">
            <gpxtpx:hr>127</gpxtpx:hr>
          </gpxtpx:TrackPointExtension>
        </extensions>
      </trkpt>
      <trkpt lat="43.10686" lon="1.26767">
        <ele>413</ele>
        <time>2023-03-05T12:06:42Z</time>
        <extensions>
          <gpxtpx:TrackPointExtension xmlns:gpxtpx="http://www.garmin.com/xmlschemas/TrackPointExtension/v1">
            <gpxtpx:hr>127</gpxtpx:hr>
          </gpxtpx:TrackPointExtension>
        </extensions>
      </trkpt>
      <trkpt lat="43.10678" lon="1.26769">
        <ele>413</ele>
        <time>2023-03-05T12:06:46Z</time>
        <extensions>
          <gpxtpx:TrackPointExtension xmlns:gpxtpx="http://www.garmin.com/xmlschemas/TrackPointExtension/v1">
            <gpxtpx:hr>127</gpxtpx:hr>
          </gpxtpx:TrackPointExtension>
        </extensions>
      </trkpt>
      <trkpt lat="43.10677" lon="1.26769">
        <ele>413</ele>
        <time>2023-03-05T12:06:47Z</time>
        <extensions>
          <gpxtpx:TrackPointExtension xmlns:gpxtpx="http://www.garmin.com/xmlschemas/TrackPointExtension/v1">
            <gpxtpx:hr>127</gpxtpx:hr>
          </gpxtpx:TrackPointExtension>
        </extensions>
      </trkpt>
      <trkpt lat="43.1067" lon="1.2677">
        <ele>413.4</ele>
        <time>2023-03-05T12:06:51Z</time>
        <extensions>
          <gpxtpx:TrackPointExtension xmlns:gpxtpx="http://www.garmin.com/xmlschemas/TrackPointExtension/v1">
            <gpxtpx:hr>126</gpxtpx:hr>
          </gpxtpx:TrackPointExtension>
        </extensions>
      </trkpt>
      <trkpt lat="43.10668" lon="1.26771">
        <ele>413.8</ele>
        <time>2023-03-05T12:06:52Z</time>
        <extensions>
          <gpxtpx:TrackPointExtension xmlns:gpxtpx="http://www.garmin.com/xmlschemas/TrackPointExtension/v1">
            <gpxtpx:hr>126</gpxtpx:hr>
          </gpxtpx:TrackPointExtension>
        </extensions>
      </trkpt>
      <trkpt lat="43.10666" lon="1.26772">
        <ele>414.2</ele>
        <time>2023-03-05T12:06:53Z</time>
        <extensions>
          <gpxtpx:TrackPointExtension xmlns:gpxtpx="http://www.garmin.com/xmlschemas/TrackPointExtension/v1">
            <gpxtpx:hr>125</gpxtpx:hr>
          </gpxtpx:TrackPointExtension>
        </extensions>
      </trkpt>
      <trkpt lat="43.10663" lon="1.26774">
        <ele>414.6</ele>
        <time>2023-03-05T12:06:54Z</time>
        <extensions>
          <gpxtpx:TrackPointExtension xmlns:gpxtpx="http://www.garmin.com/xmlschemas/TrackPointExtension/v1">
            <gpxtpx:hr>125</gpxtpx:hr>
          </gpxtpx:TrackPointExtension>
        </extensions>
      </trkpt>
      <trkpt lat="43.10661" lon="1.26774">
        <ele>415</ele>
        <time>2023-03-05T12:06:55Z</time>
        <extensions>
          <gpxtpx:TrackPointExtension xmlns:gpxtpx="http://www.garmin.com/xmlschemas/TrackPointExtension/v1">
            <gpxtpx:hr>125</gpxtpx:hr>
          </gpxtpx:TrackPointExtension>
        </extensions>
      </trkpt>
      <trkpt lat="43.10652" lon="1.26778">
        <ele>415</ele>
        <time>2023-03-05T12:06:59Z</time>
        <extensions>
          <gpxtpx:TrackPointExtension xmlns:gpxtpx="http://www.garmin.com/xmlschemas/TrackPointExtension/v1">
            <gpxtpx:hr>125</gpxtpx:hr>
          </gpxtpx:TrackPointExtension>
        </extensions>
      </trkpt>
      <trkpt lat="43.10644" lon="1.26782">
        <ele>415</ele>
        <time>2023-03-05T12:07:05Z</time>
        <extensions>
          <gpxtpx:TrackPointExtension xmlns:gpxtpx="http://www.garmin.com/xmlschemas/TrackPointExtension/v1">
            <gpxtpx:hr>123</gpxtpx:hr>
          </gpxtpx:TrackPointExtension>
        </extensions>
      </trkpt>
      <trkpt lat="43.10632" lon="1.26792">
        <ele>415</ele>
        <time>2023-03-05T12:07:12Z</time>
        <extensions>
          <gpxtpx:TrackPointExtension xmlns:gpxtpx="http://www.garmin.com/xmlschemas/TrackPointExtension/v1">
            <gpxtpx:hr>121</gpxtpx:hr>
          </gpxtpx:TrackPointExtension>
        </extensions>
      </trkpt>
      <trkpt lat="43.1063" lon="1.26793">
        <ele>415.4</ele>
        <time>2023-03-05T12:07:13Z</time>
        <extensions>
          <gpxtpx:TrackPointExtension xmlns:gpxtpx="http://www.garmin.com/xmlschemas/TrackPointExtension/v1">
            <gpxtpx:hr>121</gpxtpx:hr>
          </gpxtpx:TrackPointExtension>
        </extensions>
      </trkpt>
      <trkpt lat="43.10629" lon="1.26796">
        <ele>415.8</ele>
        <time>2023-03-05T12:07:14Z</time>
        <extensions>
          <gpxtpx:TrackPointExtension xmlns:gpxtpx="http://www.garmin.com/xmlschemas/TrackPointExtension/v1">
            <gpxtpx:hr>121</gpxtpx:hr>
          </gpxtpx:TrackPointExtension>
        </extensions>
      </trkpt>
      <trkpt lat="43.10627" lon="1.26797">
        <ele>416.2</ele>
        <time>2023-03-05T12:07:15Z</time>
        <extensions>
          <gpxtpx:TrackPointExtension xmlns:gpxtpx="http://www.garmin.com/xmlschemas/TrackPointExtension/v1">
            <gpxtpx:hr>121</gpxtpx:hr>
          </gpxtpx:TrackPointExtension>
        </extensions>
      </trkpt>
      <trkpt lat="43.10624" lon="1.26799">
        <ele>416.6</ele>
        <time>2023-03-05T12:07:16Z</time>
        <extensions>
          <gpxtpx:TrackPointExtension xmlns:gpxtpx="http://www.garmin.com/xmlschemas/TrackPointExtension/v1">
            <gpxtpx:hr>121</gpxtpx:hr>
          </gpxtpx:TrackPointExtension>
        </extensions>
      </trkpt>
      <trkpt lat="43.10622" lon="1.26801">
        <ele>417</ele>
        <time>2023-03-05T12:07:17Z</time>
        <extensions>
          <gpxtpx:TrackPointExtension xmlns:gpxtpx="http://www.garmin.com/xmlschemas/TrackPointExtension/v1">
            <gpxtpx:hr>121</gpxtpx:hr>
          </gpxtpx:TrackPointExtension>
        </extensions>
      </trkpt>
      <trkpt lat="43.10612" lon="1.26809">
        <ele>417</ele>
        <time>2023-03-05T12:07:22Z</time>
        <extensions>
          <gpxtpx:TrackPointExtension xmlns:gpxtpx="http://www.garmin.com/xmlschemas/TrackPointExtension/v1">
            <gpxtpx:hr>120</gpxtpx:hr>
          </gpxtpx:TrackPointExtension>
        </extensions>
      </trkpt>
      <trkpt lat="43.1061" lon="1.26811">
        <ele>417</ele>
        <time>2023-03-05T12:07:23Z</time>
        <extensions>
          <gpxtpx:TrackPointExtension xmlns:gpxtpx="http://www.garmin.com/xmlschemas/TrackPointExtension/v1">
            <gpxtpx:hr>120</gpxtpx:hr>
          </gpxtpx:TrackPointExtension>
        </extensions>
      </trkpt>
      <trkpt lat="43.106" lon="1.2682">
        <ele>417</ele>
        <time>2023-03-05T12:07:29Z</time>
        <extensions>
          <gpxtpx:TrackPointExtension xmlns:gpxtpx="http://www.garmin.com/xmlschemas/TrackPointExtension/v1">
            <gpxtpx:hr>119</gpxtpx:hr>
          </gpxtpx:TrackPointExtension>
        </extensions>
      </trkpt>
      <trkpt lat="43.10592" lon="1.26829">
        <ele>417</ele>
        <time>2023-03-05T12:07:33Z</time>
        <extensions>
          <gpxtpx:TrackPointExtension xmlns:gpxtpx="http://www.garmin.com/xmlschemas/TrackPointExtension/v1">
            <gpxtpx:hr>120</gpxtpx:hr>
          </gpxtpx:TrackPointExtension>
        </extensions>
      </trkpt>
      <trkpt lat="43.10584" lon="1.26838">
        <ele>417</ele>
        <time>2023-03-05T12:07:38Z</time>
        <extensions>
          <gpxtpx:TrackPointExtension xmlns:gpxtpx="http://www.garmin.com/xmlschemas/TrackPointExtension/v1">
            <gpxtpx:hr>121</gpxtpx:hr>
          </gpxtpx:TrackPointExtension>
        </extensions>
      </trkpt>
      <trkpt lat="43.10574" lon="1.26848">
        <ele>417</ele>
        <time>2023-03-05T12:07:45Z</time>
        <extensions>
          <gpxtpx:TrackPointExtension xmlns:gpxtpx="http://www.garmin.com/xmlschemas/TrackPointExtension/v1">
            <gpxtpx:hr>120</gpxtpx:hr>
          </gpxtpx:TrackPointExtension>
        </extensions>
      </trkpt>
      <trkpt lat="43.10572" lon="1.26853">
        <ele>417</ele>
        <time>2023-03-05T12:07:46Z</time>
        <extensions>
          <gpxtpx:TrackPointExtension xmlns:gpxtpx="http://www.garmin.com/xmlschemas/TrackPointExtension/v1">
            <gpxtpx:hr>119</gpxtpx:hr>
          </gpxtpx:TrackPointExtension>
        </extensions>
      </trkpt>
      <trkpt lat="43.10569" lon="1.26861">
        <ele>417</ele>
        <time>2023-03-05T12:07:49Z</time>
        <extensions>
          <gpxtpx:TrackPointExtension xmlns:gpxtpx="http://www.garmin.com/xmlschemas/TrackPointExtension/v1">
            <gpxtpx:hr>119</gpxtpx:hr>
          </gpxtpx:TrackPointExtension>
        </extensions>
      </trkpt>
      <trkpt lat="43.10565" lon="1.2687">
        <ele>417</ele>
        <time>2023-03-05T12:07:54Z</time>
        <extensions>
          <gpxtpx:TrackPointExtension xmlns:gpxtpx="http://www.garmin.com/xmlschemas/TrackPointExtension/v1">
            <gpxtpx:hr>116</gpxtpx:hr>
          </gpxtpx:TrackPointExtension>
        </extensions>
      </trkpt>
      <trkpt lat="43.10561" lon="1.26874">
        <ele>417</ele>
        <time>2023-03-05T12:07:58Z</time>
        <extensions>
          <gpxtpx:TrackPointExtension xmlns:gpxtpx="http://www.garmin.com/xmlschemas/TrackPointExtension/v1">
            <gpxtpx:hr>114</gpxtpx:hr>
          </gpxtpx:TrackPointExtension>
        </extensions>
      </trkpt>
      <trkpt lat="43.10558" lon="1.2688">
        <ele>420</ele>
        <time>2023-03-05T12:09:10Z</time>
        <extensions>
          <gpxtpx:TrackPointExtension xmlns:gpxtpx="http://www.garmin.com/xmlschemas/TrackPointExtension/v1">
            <gpxtpx:hr>105</gpxtpx:hr>
          </gpxtpx:TrackPointExtension>
        </extensions>
      </trkpt>
      <trkpt lat="43.10555" lon="1.26881">
        <ele>420</ele>
        <time>2023-03-05T12:09:11Z</time>
        <extensions>
          <gpxtpx:TrackPointExtension xmlns:gpxtpx="http://www.garmin.com/xmlschemas/TrackPointExtension/v1">
            <gpxtpx:hr>106</gpxtpx:hr>
          </gpxtpx:TrackPointExtension>
        </extensions>
      </trkpt>
      <trkpt lat="43.10548" lon="1.26883">
        <ele>420</ele>
        <time>2023-03-05T12:09:14Z</time>
        <extensions>
          <gpxtpx:TrackPointExtension xmlns:gpxtpx="http://www.garmin.com/xmlschemas/TrackPointExtension/v1">
            <gpxtpx:hr>106</gpxtpx:hr>
          </gpxtpx:TrackPointExtension>
        </extensions>
      </trkpt>
      <trkpt lat="43.10538" lon="1.2688">
        <ele>420</ele>
        <time>2023-03-05T12:09:18Z</time>
        <extensions>
          <gpxtpx:TrackPointExtension xmlns:gpxtpx="http://www.garmin.com/xmlschemas/TrackPointExtension/v1">
            <gpxtpx:hr>106</gpxtpx:hr>
          </gpxtpx:TrackPointExtension>
        </extensions>
      </trkpt>
      <trkpt lat="43.10536" lon="1.26878">
        <ele>420</ele>
        <time>2023-03-05T12:09:19Z</time>
        <extensions>
          <gpxtpx:TrackPointExtension xmlns:gpxtpx="http://www.garmin.com/xmlschemas/TrackPointExtension/v1">
            <gpxtpx:hr>106</gpxtpx:hr>
          </gpxtpx:TrackPointExtension>
        </extensions>
      </trkpt>
      <trkpt lat="43.10526" lon="1.26872">
        <ele>420</ele>
        <time>2023-03-05T12:09:23Z</time>
        <extensions>
          <gpxtpx:TrackPointExtension xmlns:gpxtpx="http://www.garmin.com/xmlschemas/TrackPointExtension/v1">
            <gpxtpx:hr>108</gpxtpx:hr>
          </gpxtpx:TrackPointExtension>
        </extensions>
      </trkpt>
      <trkpt lat="43.10516" lon="1.26861">
        <ele>420</ele>
        <time>2023-03-05T12:09:28Z</time>
        <extensions>
          <gpxtpx:TrackPointExtension xmlns:gpxtpx="http://www.garmin.com/xmlschemas/TrackPointExtension/v1">
            <gpxtpx:hr>111</gpxtpx:hr>
          </gpxtpx:TrackPointExtension>
        </extensions>
      </trkpt>
      <trkpt lat="43.10513" lon="1.26859">
        <ele>420.4</ele>
        <time>2023-03-05T12:09:29Z</time>
        <extensions>
          <gpxtpx:TrackPointExtension xmlns:gpxtpx="http://www.garmin.com/xmlschemas/TrackPointExtension/v1">
            <gpxtpx:hr>112</gpxtpx:hr>
          </gpxtpx:TrackPointExtension>
        </extensions>
      </trkpt>
      <trkpt lat="43.10511" lon="1.26857">
        <ele>421</ele>
        <time>2023-03-05T12:09:30Z</time>
        <extensions>
          <gpxtpx:TrackPointExtension xmlns:gpxtpx="http://www.garmin.com/xmlschemas/TrackPointExtension/v1">
            <gpxtpx:hr>113</gpxtpx:hr>
          </gpxtpx:TrackPointExtension>
        </extensions>
      </trkpt>
      <trkpt lat="43.10509" lon="1.26855">
        <ele>421.4</ele>
        <time>2023-03-05T12:09:31Z</time>
        <extensions>
          <gpxtpx:TrackPointExtension xmlns:gpxtpx="http://www.garmin.com/xmlschemas/TrackPointExtension/v1">
            <gpxtpx:hr>113</gpxtpx:hr>
          </gpxtpx:TrackPointExtension>
        </extensions>
      </trkpt>
      <trkpt lat="43.10506" lon="1.26854">
        <ele>421.8</ele>
        <time>2023-03-05T12:09:32Z</time>
        <extensions>
          <gpxtpx:TrackPointExtension xmlns:gpxtpx="http://www.garmin.com/xmlschemas/TrackPointExtension/v1">
            <gpxtpx:hr>114</gpxtpx:hr>
          </gpxtpx:TrackPointExtension>
        </extensions>
      </trkpt>
      <trkpt lat="43.10503" lon="1.26853">
        <ele>422.4</ele>
        <time>2023-03-05T12:09:33Z</time>
        <extensions>
          <gpxtpx:TrackPointExtension xmlns:gpxtpx="http://www.garmin.com/xmlschemas/TrackPointExtension/v1">
            <gpxtpx:hr>114</gpxtpx:hr>
          </gpxtpx:TrackPointExtension>
        </extensions>
      </trkpt>
      <trkpt lat="43.10499" lon="1.26851">
        <ele>422.8</ele>
        <time>2023-03-05T12:09:34Z</time>
        <extensions>
          <gpxtpx:TrackPointExtension xmlns:gpxtpx="http://www.garmin.com/xmlschemas/TrackPointExtension/v1">
            <gpxtpx:hr>115</gpxtpx:hr>
          </gpxtpx:TrackPointExtension>
        </extensions>
      </trkpt>
      <trkpt lat="43.10496" lon="1.2685">
        <ele>423.2</ele>
        <time>2023-03-05T12:09:35Z</time>
        <extensions>
          <gpxtpx:TrackPointExtension xmlns:gpxtpx="http://www.garmin.com/xmlschemas/TrackPointExtension/v1">
            <gpxtpx:hr>115</gpxtpx:hr>
          </gpxtpx:TrackPointExtension>
        </extensions>
      </trkpt>
      <trkpt lat="43.10493" lon="1.26848">
        <ele>423.6</ele>
        <time>2023-03-05T12:09:36Z</time>
        <extensions>
          <gpxtpx:TrackPointExtension xmlns:gpxtpx="http://www.garmin.com/xmlschemas/TrackPointExtension/v1">
            <gpxtpx:hr>116</gpxtpx:hr>
          </gpxtpx:TrackPointExtension>
        </extensions>
      </trkpt>
      <trkpt lat="43.10491" lon="1.26848">
        <ele>424</ele>
        <time>2023-03-05T12:09:37Z</time>
        <extensions>
          <gpxtpx:TrackPointExtension xmlns:gpxtpx="http://www.garmin.com/xmlschemas/TrackPointExtension/v1">
            <gpxtpx:hr>117</gpxtpx:hr>
          </gpxtpx:TrackPointExtension>
        </extensions>
      </trkpt>
      <trkpt lat="43.10489" lon="1.26848">
        <ele>424.6</ele>
        <time>2023-03-05T12:09:38Z</time>
        <extensions>
          <gpxtpx:TrackPointExtension xmlns:gpxtpx="http://www.garmin.com/xmlschemas/TrackPointExtension/v1">
            <gpxtpx:hr>117</gpxtpx:hr>
          </gpxtpx:TrackPointExtension>
        </extensions>
      </trkpt>
      <trkpt lat="43.10482" lon="1.26851">
        <ele>424.6</ele>
        <time>2023-03-05T12:09:42Z</time>
        <extensions>
          <gpxtpx:TrackPointExtension xmlns:gpxtpx="http://www.garmin.com/xmlschemas/TrackPointExtension/v1">
            <gpxtpx:hr>118</gpxtpx:hr>
          </gpxtpx:TrackPointExtension>
        </extensions>
      </trkpt>
      <trkpt lat="43.10475" lon="1.26853">
        <ele>424.6</ele>
        <time>2023-03-05T12:09:44Z</time>
        <extensions>
          <gpxtpx:TrackPointExtension xmlns:gpxtpx="http://www.garmin.com/xmlschemas/TrackPointExtension/v1">
            <gpxtpx:hr>119</gpxtpx:hr>
          </gpxtpx:TrackPointExtension>
        </extensions>
      </trkpt>
      <trkpt lat="43.10456" lon="1.26865">
        <ele>424.6</ele>
        <time>2023-03-05T12:09:48Z</time>
        <extensions>
          <gpxtpx:TrackPointExtension xmlns:gpxtpx="http://www.garmin.com/xmlschemas/TrackPointExtension/v1">
            <gpxtpx:hr>119</gpxtpx:hr>
          </gpxtpx:TrackPointExtension>
        </extensions>
      </trkpt>
      <trkpt lat="43.10446" lon="1.26874">
        <ele>424.6</ele>
        <time>2023-03-05T12:09:50Z</time>
        <extensions>
          <gpxtpx:TrackPointExtension xmlns:gpxtpx="http://www.garmin.com/xmlschemas/TrackPointExtension/v1">
            <gpxtpx:hr>119</gpxtpx:hr>
          </gpxtpx:TrackPointExtension>
        </extensions>
      </trkpt>
      <trkpt lat="43.10432" lon="1.26887">
        <ele>424.6</ele>
        <time>2023-03-05T12:09:53Z</time>
        <extensions>
          <gpxtpx:TrackPointExtension xmlns:gpxtpx="http://www.garmin.com/xmlschemas/TrackPointExtension/v1">
            <gpxtpx:hr>119</gpxtpx:hr>
          </gpxtpx:TrackPointExtension>
        </extensions>
      </trkpt>
      <trkpt lat="43.10427" lon="1.26892">
        <ele>423.6</ele>
        <time>2023-03-05T12:09:54Z</time>
        <extensions>
          <gpxtpx:TrackPointExtension xmlns:gpxtpx="http://www.garmin.com/xmlschemas/TrackPointExtension/v1">
            <gpxtpx:hr>119</gpxtpx:hr>
          </gpxtpx:TrackPointExtension>
        </extensions>
      </trkpt>
      <trkpt lat="43.10422" lon="1.26896">
        <ele>423.2</ele>
        <time>2023-03-05T12:09:55Z</time>
        <extensions>
          <gpxtpx:TrackPointExtension xmlns:gpxtpx="http://www.garmin.com/xmlschemas/TrackPointExtension/v1">
            <gpxtpx:hr>119</gpxtpx:hr>
          </gpxtpx:TrackPointExtension>
        </extensions>
      </trkpt>
      <trkpt lat="43.10417" lon="1.269">
        <ele>422.8</ele>
        <time>2023-03-05T12:09:56Z</time>
        <extensions>
          <gpxtpx:TrackPointExtension xmlns:gpxtpx="http://www.garmin.com/xmlschemas/TrackPointExtension/v1">
            <gpxtpx:hr>119</gpxtpx:hr>
          </gpxtpx:TrackPointExtension>
        </extensions>
      </trkpt>
      <trkpt lat="43.10412" lon="1.26903">
        <ele>422.4</ele>
        <time>2023-03-05T12:09:57Z</time>
        <extensions>
          <gpxtpx:TrackPointExtension xmlns:gpxtpx="http://www.garmin.com/xmlschemas/TrackPointExtension/v1">
            <gpxtpx:hr>119</gpxtpx:hr>
          </gpxtpx:TrackPointExtension>
        </extensions>
      </trkpt>
      <trkpt lat="43.10407" lon="1.26906">
        <ele>422.4</ele>
        <time>2023-03-05T12:09:58Z</time>
        <extensions>
          <gpxtpx:TrackPointExtension xmlns:gpxtpx="http://www.garmin.com/xmlschemas/TrackPointExtension/v1">
            <gpxtpx:hr>119</gpxtpx:hr>
          </gpxtpx:TrackPointExtension>
        </extensions>
      </trkpt>
      <trkpt lat="43.10387" lon="1.2692">
        <ele>422.4</ele>
        <time>2023-03-05T12:10:03Z</time>
        <extensions>
          <gpxtpx:TrackPointExtension xmlns:gpxtpx="http://www.garmin.com/xmlschemas/TrackPointExtension/v1">
            <gpxtpx:hr>117</gpxtpx:hr>
          </gpxtpx:TrackPointExtension>
        </extensions>
      </trkpt>
      <trkpt lat="43.10383" lon="1.26923">
        <ele>422.4</ele>
        <time>2023-03-05T12:10:04Z</time>
        <extensions>
          <gpxtpx:TrackPointExtension xmlns:gpxtpx="http://www.garmin.com/xmlschemas/TrackPointExtension/v1">
            <gpxtpx:hr>117</gpxtpx:hr>
          </gpxtpx:TrackPointExtension>
        </extensions>
      </trkpt>
      <trkpt lat="43.10375" lon="1.26928">
        <ele>422</ele>
        <time>2023-03-05T12:10:06Z</time>
        <extensions>
          <gpxtpx:TrackPointExtension xmlns:gpxtpx="http://www.garmin.com/xmlschemas/TrackPointExtension/v1">
            <gpxtpx:hr>117</gpxtpx:hr>
          </gpxtpx:TrackPointExtension>
        </extensions>
      </trkpt>
      <trkpt lat="43.10372" lon="1.26931">
        <ele>421.4</ele>
        <time>2023-03-05T12:10:07Z</time>
        <extensions>
          <gpxtpx:TrackPointExtension xmlns:gpxtpx="http://www.garmin.com/xmlschemas/TrackPointExtension/v1">
            <gpxtpx:hr>117</gpxtpx:hr>
          </gpxtpx:TrackPointExtension>
        </extensions>
      </trkpt>
      <trkpt lat="43.10368" lon="1.26934">
        <ele>421</ele>
        <time>2023-03-05T12:10:08Z</time>
        <extensions>
          <gpxtpx:TrackPointExtension xmlns:gpxtpx="http://www.garmin.com/xmlschemas/TrackPointExtension/v1">
            <gpxtpx:hr>117</gpxtpx:hr>
          </gpxtpx:TrackPointExtension>
        </extensions>
      </trkpt>
      <trkpt lat="43.10364" lon="1.26936">
        <ele>420.6</ele>
        <time>2023-03-05T12:10:09Z</time>
        <extensions>
          <gpxtpx:TrackPointExtension xmlns:gpxtpx="http://www.garmin.com/xmlschemas/TrackPointExtension/v1">
            <gpxtpx:hr>116</gpxtpx:hr>
          </gpxtpx:TrackPointExtension>
        </extensions>
      </trkpt>
      <trkpt lat="43.10359" lon="1.26939">
        <ele>420.2</ele>
        <time>2023-03-05T12:10:10Z</time>
        <extensions>
          <gpxtpx:TrackPointExtension xmlns:gpxtpx="http://www.garmin.com/xmlschemas/TrackPointExtension/v1">
            <gpxtpx:hr>116</gpxtpx:hr>
          </gpxtpx:TrackPointExtension>
        </extensions>
      </trkpt>
      <trkpt lat="43.10356" lon="1.26941">
        <ele>420.2</ele>
        <time>2023-03-05T12:10:11Z</time>
        <extensions>
          <gpxtpx:TrackPointExtension xmlns:gpxtpx="http://www.garmin.com/xmlschemas/TrackPointExtension/v1">
            <gpxtpx:hr>116</gpxtpx:hr>
          </gpxtpx:TrackPointExtension>
        </extensions>
      </trkpt>
      <trkpt lat="43.10352" lon="1.26943">
        <ele>420.2</ele>
        <time>2023-03-05T12:10:12Z</time>
        <extensions>
          <gpxtpx:TrackPointExtension xmlns:gpxtpx="http://www.garmin.com/xmlschemas/TrackPointExtension/v1">
            <gpxtpx:hr>116</gpxtpx:hr>
          </gpxtpx:TrackPointExtension>
        </extensions>
      </trkpt>
      <trkpt lat="43.10336" lon="1.2695">
        <ele>420.2</ele>
        <time>2023-03-05T12:10:16Z</time>
        <extensions>
          <gpxtpx:TrackPointExtension xmlns:gpxtpx="http://www.garmin.com/xmlschemas/TrackPointExtension/v1">
            <gpxtpx:hr>113</gpxtpx:hr>
          </gpxtpx:TrackPointExtension>
        </extensions>
      </trkpt>
      <trkpt lat="43.10332" lon="1.26951">
        <ele>420.2</ele>
        <time>2023-03-05T12:10:17Z</time>
        <extensions>
          <gpxtpx:TrackPointExtension xmlns:gpxtpx="http://www.garmin.com/xmlschemas/TrackPointExtension/v1">
            <gpxtpx:hr>112</gpxtpx:hr>
          </gpxtpx:TrackPointExtension>
        </extensions>
      </trkpt>
      <trkpt lat="43.10306" lon="1.26954">
        <ele>419.8</ele>
        <time>2023-03-05T12:10:24Z</time>
        <extensions>
          <gpxtpx:TrackPointExtension xmlns:gpxtpx="http://www.garmin.com/xmlschemas/TrackPointExtension/v1">
            <gpxtpx:hr>109</gpxtpx:hr>
          </gpxtpx:TrackPointExtension>
        </extensions>
      </trkpt>
      <trkpt lat="43.10302" lon="1.26953">
        <ele>419.4</ele>
        <time>2023-03-05T12:10:25Z</time>
        <extensions>
          <gpxtpx:TrackPointExtension xmlns:gpxtpx="http://www.garmin.com/xmlschemas/TrackPointExtension/v1">
            <gpxtpx:hr>109</gpxtpx:hr>
          </gpxtpx:TrackPointExtension>
        </extensions>
      </trkpt>
      <trkpt lat="43.10299" lon="1.26952">
        <ele>419</ele>
        <time>2023-03-05T12:10:26Z</time>
        <extensions>
          <gpxtpx:TrackPointExtension xmlns:gpxtpx="http://www.garmin.com/xmlschemas/TrackPointExtension/v1">
            <gpxtpx:hr>109</gpxtpx:hr>
          </gpxtpx:TrackPointExtension>
        </extensions>
      </trkpt>
      <trkpt lat="43.10296" lon="1.26952">
        <ele>418.4</ele>
        <time>2023-03-05T12:10:27Z</time>
        <extensions>
          <gpxtpx:TrackPointExtension xmlns:gpxtpx="http://www.garmin.com/xmlschemas/TrackPointExtension/v1">
            <gpxtpx:hr>108</gpxtpx:hr>
          </gpxtpx:TrackPointExtension>
        </extensions>
      </trkpt>
      <trkpt lat="43.10292" lon="1.26951">
        <ele>418</ele>
        <time>2023-03-05T12:10:28Z</time>
        <extensions>
          <gpxtpx:TrackPointExtension xmlns:gpxtpx="http://www.garmin.com/xmlschemas/TrackPointExtension/v1">
            <gpxtpx:hr>108</gpxtpx:hr>
          </gpxtpx:TrackPointExtension>
        </extensions>
      </trkpt>
      <trkpt lat="43.10279" lon="1.26945">
        <ele>418</ele>
        <time>2023-03-05T12:10:32Z</time>
        <extensions>
          <gpxtpx:TrackPointExtension xmlns:gpxtpx="http://www.garmin.com/xmlschemas/TrackPointExtension/v1">
            <gpxtpx:hr>108</gpxtpx:hr>
          </gpxtpx:TrackPointExtension>
        </extensions>
      </trkpt>
      <trkpt lat="43.10257" lon="1.26939">
        <ele>418</ele>
        <time>2023-03-05T12:10:39Z</time>
        <extensions>
          <gpxtpx:TrackPointExtension xmlns:gpxtpx="http://www.garmin.com/xmlschemas/TrackPointExtension/v1">
            <gpxtpx:hr>111</gpxtpx:hr>
          </gpxtpx:TrackPointExtension>
        </extensions>
      </trkpt>
      <trkpt lat="43.10252" lon="1.26939">
        <ele>418.4</ele>
        <time>2023-03-05T12:10:41Z</time>
        <extensions>
          <gpxtpx:TrackPointExtension xmlns:gpxtpx="http://www.garmin.com/xmlschemas/TrackPointExtension/v1">
            <gpxtpx:hr>111</gpxtpx:hr>
          </gpxtpx:TrackPointExtension>
        </extensions>
      </trkpt>
      <trkpt lat="43.10249" lon="1.26939">
        <ele>418.8</ele>
        <time>2023-03-05T12:10:42Z</time>
        <extensions>
          <gpxtpx:TrackPointExtension xmlns:gpxtpx="http://www.garmin.com/xmlschemas/TrackPointExtension/v1">
            <gpxtpx:hr>111</gpxtpx:hr>
          </gpxtpx:TrackPointExtension>
        </extensions>
      </trkpt>
      <trkpt lat="43.10246" lon="1.2694">
        <ele>419.2</ele>
        <time>2023-03-05T12:10:43Z</time>
        <extensions>
          <gpxtpx:TrackPointExtension xmlns:gpxtpx="http://www.garmin.com/xmlschemas/TrackPointExtension/v1">
            <gpxtpx:hr>112</gpxtpx:hr>
          </gpxtpx:TrackPointExtension>
        </extensions>
      </trkpt>
      <trkpt lat="43.10243" lon="1.2694">
        <ele>420.2</ele>
        <time>2023-03-05T12:10:44Z</time>
        <extensions>
          <gpxtpx:TrackPointExtension xmlns:gpxtpx="http://www.garmin.com/xmlschemas/TrackPointExtension/v1">
            <gpxtpx:hr>112</gpxtpx:hr>
          </gpxtpx:TrackPointExtension>
        </extensions>
      </trkpt>
      <trkpt lat="43.10234" lon="1.26941">
        <ele>420.6</ele>
        <time>2023-03-05T12:10:48Z</time>
        <extensions>
          <gpxtpx:TrackPointExtension xmlns:gpxtpx="http://www.garmin.com/xmlschemas/TrackPointExtension/v1">
            <gpxtpx:hr>111</gpxtpx:hr>
          </gpxtpx:TrackPointExtension>
        </extensions>
      </trkpt>
      <trkpt lat="43.10231" lon="1.26941">
        <ele>421</ele>
        <time>2023-03-05T12:10:49Z</time>
        <extensions>
          <gpxtpx:TrackPointExtension xmlns:gpxtpx="http://www.garmin.com/xmlschemas/TrackPointExtension/v1">
            <gpxtpx:hr>111</gpxtpx:hr>
          </gpxtpx:TrackPointExtension>
        </extensions>
      </trkpt>
      <trkpt lat="43.10228" lon="1.26942">
        <ele>421.4</ele>
        <time>2023-03-05T12:10:50Z</time>
        <extensions>
          <gpxtpx:TrackPointExtension xmlns:gpxtpx="http://www.garmin.com/xmlschemas/TrackPointExtension/v1">
            <gpxtpx:hr>111</gpxtpx:hr>
          </gpxtpx:TrackPointExtension>
        </extensions>
      </trkpt>
      <trkpt lat="43.10225" lon="1.26942">
        <ele>421.8</ele>
        <time>2023-03-05T12:10:51Z</time>
        <extensions>
          <gpxtpx:TrackPointExtension xmlns:gpxtpx="http://www.garmin.com/xmlschemas/TrackPointExtension/v1">
            <gpxtpx:hr>112</gpxtpx:hr>
          </gpxtpx:TrackPointExtension>
        </extensions>
      </trkpt>
      <trkpt lat="43.10222" lon="1.26942">
        <ele>422.4</ele>
        <time>2023-03-05T12:10:52Z</time>
        <extensions>
          <gpxtpx:TrackPointExtension xmlns:gpxtpx="http://www.garmin.com/xmlschemas/TrackPointExtension/v1">
            <gpxtpx:hr>113</gpxtpx:hr>
          </gpxtpx:TrackPointExtension>
        </extensions>
      </trkpt>
      <trkpt lat="43.10216" lon="1.26942">
        <ele>422.4</ele>
        <time>2023-03-05T12:10:54Z</time>
        <extensions>
          <gpxtpx:TrackPointExtension xmlns:gpxtpx="http://www.garmin.com/xmlschemas/TrackPointExtension/v1">
            <gpxtpx:hr>113</gpxtpx:hr>
          </gpxtpx:TrackPointExtension>
        </extensions>
      </trkpt>
      <trkpt lat="43.10214" lon="1.26942">
        <ele>422.8</ele>
        <time>2023-03-05T12:10:55Z</time>
        <extensions>
          <gpxtpx:TrackPointExtension xmlns:gpxtpx="http://www.garmin.com/xmlschemas/TrackPointExtension/v1">
            <gpxtpx:hr>113</gpxtpx:hr>
          </gpxtpx:TrackPointExtension>
        </extensions>
      </trkpt>
      <trkpt lat="43.1021" lon="1.26943">
        <ele>423.2</ele>
        <time>2023-03-05T12:10:56Z</time>
        <extensions>
          <gpxtpx:TrackPointExtension xmlns:gpxtpx="http://www.garmin.com/xmlschemas/TrackPointExtension/v1">
            <gpxtpx:hr>113</gpxtpx:hr>
          </gpxtpx:TrackPointExtension>
        </extensions>
      </trkpt>
      <trkpt lat="43.10207" lon="1.26944">
        <ele>423.6</ele>
        <time>2023-03-05T12:10:57Z</time>
        <extensions>
          <gpxtpx:TrackPointExtension xmlns:gpxtpx="http://www.garmin.com/xmlschemas/TrackPointExtension/v1">
            <gpxtpx:hr>113</gpxtpx:hr>
          </gpxtpx:TrackPointExtension>
        </extensions>
      </trkpt>
      <trkpt lat="43.10204" lon="1.26943">
        <ele>424</ele>
        <time>2023-03-05T12:10:58Z</time>
        <extensions>
          <gpxtpx:TrackPointExtension xmlns:gpxtpx="http://www.garmin.com/xmlschemas/TrackPointExtension/v1">
            <gpxtpx:hr>113</gpxtpx:hr>
          </gpxtpx:TrackPointExtension>
        </extensions>
      </trkpt>
      <trkpt lat="43.10201" lon="1.26943">
        <ele>424.4</ele>
        <time>2023-03-05T12:10:59Z</time>
        <extensions>
          <gpxtpx:TrackPointExtension xmlns:gpxtpx="http://www.garmin.com/xmlschemas/TrackPointExtension/v1">
            <gpxtpx:hr>114</gpxtpx:hr>
          </gpxtpx:TrackPointExtension>
        </extensions>
      </trkpt>
      <trkpt lat="43.10198" lon="1.26944">
        <ele>424.4</ele>
        <time>2023-03-05T12:11:00Z</time>
        <extensions>
          <gpxtpx:TrackPointExtension xmlns:gpxtpx="http://www.garmin.com/xmlschemas/TrackPointExtension/v1">
            <gpxtpx:hr>116</gpxtpx:hr>
          </gpxtpx:TrackPointExtension>
        </extensions>
      </trkpt>
      <trkpt lat="43.10192" lon="1.26946">
        <ele>424.8</ele>
        <time>2023-03-05T12:11:02Z</time>
        <extensions>
          <gpxtpx:TrackPointExtension xmlns:gpxtpx="http://www.garmin.com/xmlschemas/TrackPointExtension/v1">
            <gpxtpx:hr>118</gpxtpx:hr>
          </gpxtpx:TrackPointExtension>
        </extensions>
      </trkpt>
      <trkpt lat="43.1019" lon="1.26948">
        <ele>425.2</ele>
        <time>2023-03-05T12:11:03Z</time>
        <extensions>
          <gpxtpx:TrackPointExtension xmlns:gpxtpx="http://www.garmin.com/xmlschemas/TrackPointExtension/v1">
            <gpxtpx:hr>118</gpxtpx:hr>
          </gpxtpx:TrackPointExtension>
        </extensions>
      </trkpt>
      <trkpt lat="43.10188" lon="1.26949">
        <ele>425.6</ele>
        <time>2023-03-05T12:11:04Z</time>
        <extensions>
          <gpxtpx:TrackPointExtension xmlns:gpxtpx="http://www.garmin.com/xmlschemas/TrackPointExtension/v1">
            <gpxtpx:hr>119</gpxtpx:hr>
          </gpxtpx:TrackPointExtension>
        </extensions>
      </trkpt>
      <trkpt lat="43.10185" lon="1.26951">
        <ele>426.2</ele>
        <time>2023-03-05T12:11:05Z</time>
        <extensions>
          <gpxtpx:TrackPointExtension xmlns:gpxtpx="http://www.garmin.com/xmlschemas/TrackPointExtension/v1">
            <gpxtpx:hr>119</gpxtpx:hr>
          </gpxtpx:TrackPointExtension>
        </extensions>
      </trkpt>
      <trkpt lat="43.10183" lon="1.26954">
        <ele>426.6</ele>
        <time>2023-03-05T12:11:06Z</time>
        <extensions>
          <gpxtpx:TrackPointExtension xmlns:gpxtpx="http://www.garmin.com/xmlschemas/TrackPointExtension/v1">
            <gpxtpx:hr>119</gpxtpx:hr>
          </gpxtpx:TrackPointExtension>
        </extensions>
      </trkpt>
      <trkpt lat="43.10173" lon="1.26967">
        <ele>426.6</ele>
        <time>2023-03-05T12:11:10Z</time>
        <extensions>
          <gpxtpx:TrackPointExtension xmlns:gpxtpx="http://www.garmin.com/xmlschemas/TrackPointExtension/v1">
            <gpxtpx:hr>120</gpxtpx:hr>
          </gpxtpx:TrackPointExtension>
        </extensions>
      </trkpt>
      <trkpt lat="43.10162" lon="1.26982">
        <ele>427</ele>
        <time>2023-03-05T12:11:15Z</time>
        <extensions>
          <gpxtpx:TrackPointExtension xmlns:gpxtpx="http://www.garmin.com/xmlschemas/TrackPointExtension/v1">
            <gpxtpx:hr>113</gpxtpx:hr>
          </gpxtpx:TrackPointExtension>
        </extensions>
      </trkpt>
      <trkpt lat="43.10159" lon="1.26985">
        <ele>427.4</ele>
        <time>2023-03-05T12:11:16Z</time>
        <extensions>
          <gpxtpx:TrackPointExtension xmlns:gpxtpx="http://www.garmin.com/xmlschemas/TrackPointExtension/v1">
            <gpxtpx:hr>113</gpxtpx:hr>
          </gpxtpx:TrackPointExtension>
        </extensions>
      </trkpt>
      <trkpt lat="43.10157" lon="1.26989">
        <ele>427.8</ele>
        <time>2023-03-05T12:11:17Z</time>
        <extensions>
          <gpxtpx:TrackPointExtension xmlns:gpxtpx="http://www.garmin.com/xmlschemas/TrackPointExtension/v1">
            <gpxtpx:hr>115</gpxtpx:hr>
          </gpxtpx:TrackPointExtension>
        </extensions>
      </trkpt>
      <trkpt lat="43.10155" lon="1.26992">
        <ele>428.2</ele>
        <time>2023-03-05T12:11:18Z</time>
        <extensions>
          <gpxtpx:TrackPointExtension xmlns:gpxtpx="http://www.garmin.com/xmlschemas/TrackPointExtension/v1">
            <gpxtpx:hr>117</gpxtpx:hr>
          </gpxtpx:TrackPointExtension>
        </extensions>
      </trkpt>
      <trkpt lat="43.10154" lon="1.26996">
        <ele>428.6</ele>
        <time>2023-03-05T12:11:19Z</time>
        <extensions>
          <gpxtpx:TrackPointExtension xmlns:gpxtpx="http://www.garmin.com/xmlschemas/TrackPointExtension/v1">
            <gpxtpx:hr>119</gpxtpx:hr>
          </gpxtpx:TrackPointExtension>
        </extensions>
      </trkpt>
      <trkpt lat="43.10148" lon="1.27002">
        <ele>428.6</ele>
        <time>2023-03-05T12:11:21Z</time>
        <extensions>
          <gpxtpx:TrackPointExtension xmlns:gpxtpx="http://www.garmin.com/xmlschemas/TrackPointExtension/v1">
            <gpxtpx:hr>120</gpxtpx:hr>
          </gpxtpx:TrackPointExtension>
        </extensions>
      </trkpt>
      <trkpt lat="43.10144" lon="1.27009">
        <ele>428.6</ele>
        <time>2023-03-05T12:11:23Z</time>
        <extensions>
          <gpxtpx:TrackPointExtension xmlns:gpxtpx="http://www.garmin.com/xmlschemas/TrackPointExtension/v1">
            <gpxtpx:hr>123</gpxtpx:hr>
          </gpxtpx:TrackPointExtension>
        </extensions>
      </trkpt>
      <trkpt lat="43.1014" lon="1.27012">
        <ele>428.6</ele>
        <time>2023-03-05T12:11:25Z</time>
        <extensions>
          <gpxtpx:TrackPointExtension xmlns:gpxtpx="http://www.garmin.com/xmlschemas/TrackPointExtension/v1">
            <gpxtpx:hr>124</gpxtpx:hr>
          </gpxtpx:TrackPointExtension>
        </extensions>
      </trkpt>
      <trkpt lat="43.10135" lon="1.27016">
        <ele>428.6</ele>
        <time>2023-03-05T12:11:27Z</time>
        <extensions>
          <gpxtpx:TrackPointExtension xmlns:gpxtpx="http://www.garmin.com/xmlschemas/TrackPointExtension/v1">
            <gpxtpx:hr>124</gpxtpx:hr>
          </gpxtpx:TrackPointExtension>
        </extensions>
      </trkpt>
      <trkpt lat="43.1012" lon="1.27028">
        <ele>428.6</ele>
        <time>2023-03-05T12:11:31Z</time>
        <extensions>
          <gpxtpx:TrackPointExtension xmlns:gpxtpx="http://www.garmin.com/xmlschemas/TrackPointExtension/v1">
            <gpxtpx:hr>124</gpxtpx:hr>
          </gpxtpx:TrackPointExtension>
        </extensions>
      </trkpt>
      <trkpt lat="43.10098" lon="1.27042">
        <ele>428.6</ele>
        <time>2023-03-05T12:11:35Z</time>
        <extensions>
          <gpxtpx:TrackPointExtension xmlns:gpxtpx="http://www.garmin.com/xmlschemas/TrackPointExtension/v1">
            <gpxtpx:hr>125</gpxtpx:hr>
          </gpxtpx:TrackPointExtension>
        </extensions>
      </trkpt>
      <trkpt lat="43.10077" lon="1.2705">
        <ele>428.2</ele>
        <time>2023-03-05T12:11:38Z</time>
        <extensions>
          <gpxtpx:TrackPointExtension xmlns:gpxtpx="http://www.garmin.com/xmlschemas/TrackPointExtension/v1">
            <gpxtpx:hr>126</gpxtpx:hr>
          </gpxtpx:TrackPointExtension>
        </extensions>
      </trkpt>
      <trkpt lat="43.1007" lon="1.27051">
        <ele>427.8</ele>
        <time>2023-03-05T12:11:39Z</time>
        <extensions>
          <gpxtpx:TrackPointExtension xmlns:gpxtpx="http://www.garmin.com/xmlschemas/TrackPointExtension/v1">
            <gpxtpx:hr>126</gpxtpx:hr>
          </gpxtpx:TrackPointExtension>
        </extensions>
      </trkpt>
      <trkpt lat="43.10063" lon="1.27052">
        <ele>427.4</ele>
        <time>2023-03-05T12:11:40Z</time>
        <extensions>
          <gpxtpx:TrackPointExtension xmlns:gpxtpx="http://www.garmin.com/xmlschemas/TrackPointExtension/v1">
            <gpxtpx:hr>126</gpxtpx:hr>
          </gpxtpx:TrackPointExtension>
        </extensions>
      </trkpt>
      <trkpt lat="43.10056" lon="1.27053">
        <ele>426.8</ele>
        <time>2023-03-05T12:11:41Z</time>
        <extensions>
          <gpxtpx:TrackPointExtension xmlns:gpxtpx="http://www.garmin.com/xmlschemas/TrackPointExtension/v1">
            <gpxtpx:hr>125</gpxtpx:hr>
          </gpxtpx:TrackPointExtension>
        </extensions>
      </trkpt>
      <trkpt lat="43.10049" lon="1.27053">
        <ele>426.4</ele>
        <time>2023-03-05T12:11:42Z</time>
        <extensions>
          <gpxtpx:TrackPointExtension xmlns:gpxtpx="http://www.garmin.com/xmlschemas/TrackPointExtension/v1">
            <gpxtpx:hr>124</gpxtpx:hr>
          </gpxtpx:TrackPointExtension>
        </extensions>
      </trkpt>
      <trkpt lat="43.10043" lon="1.27056">
        <ele>426.4</ele>
        <time>2023-03-05T12:11:43Z</time>
        <extensions>
          <gpxtpx:TrackPointExtension xmlns:gpxtpx="http://www.garmin.com/xmlschemas/TrackPointExtension/v1">
            <gpxtpx:hr>123</gpxtpx:hr>
          </gpxtpx:TrackPointExtension>
        </extensions>
      </trkpt>
      <trkpt lat="43.10034" lon="1.27069">
        <ele>426.4</ele>
        <time>2023-03-05T12:11:45Z</time>
        <extensions>
          <gpxtpx:TrackPointExtension xmlns:gpxtpx="http://www.garmin.com/xmlschemas/TrackPointExtension/v1">
            <gpxtpx:hr>121</gpxtpx:hr>
          </gpxtpx:TrackPointExtension>
        </extensions>
      </trkpt>
      <trkpt lat="43.10025" lon="1.27093">
        <ele>426.4</ele>
        <time>2023-03-05T12:11:48Z</time>
        <extensions>
          <gpxtpx:TrackPointExtension xmlns:gpxtpx="http://www.garmin.com/xmlschemas/TrackPointExtension/v1">
            <gpxtpx:hr>119</gpxtpx:hr>
          </gpxtpx:TrackPointExtension>
        </extensions>
      </trkpt>
      <trkpt lat="43.10022" lon="1.271">
        <ele>426.4</ele>
        <time>2023-03-05T12:11:49Z</time>
        <extensions>
          <gpxtpx:TrackPointExtension xmlns:gpxtpx="http://www.garmin.com/xmlschemas/TrackPointExtension/v1">
            <gpxtpx:hr>119</gpxtpx:hr>
          </gpxtpx:TrackPointExtension>
        </extensions>
      </trkpt>
      <trkpt lat="43.10013" lon="1.27132">
        <ele>426.4</ele>
        <time>2023-03-05T12:11:54Z</time>
        <extensions>
          <gpxtpx:TrackPointExtension xmlns:gpxtpx="http://www.garmin.com/xmlschemas/TrackPointExtension/v1">
            <gpxtpx:hr>116</gpxtpx:hr>
          </gpxtpx:TrackPointExtension>
        </extensions>
      </trkpt>
      <trkpt lat="43.1001" lon="1.27142">
        <ele>426</ele>
        <time>2023-03-05T12:11:56Z</time>
        <extensions>
          <gpxtpx:TrackPointExtension xmlns:gpxtpx="http://www.garmin.com/xmlschemas/TrackPointExtension/v1">
            <gpxtpx:hr>113</gpxtpx:hr>
          </gpxtpx:TrackPointExtension>
        </extensions>
      </trkpt>
      <trkpt lat="43.10008" lon="1.27147">
        <ele>425.2</ele>
        <time>2023-03-05T12:11:57Z</time>
        <extensions>
          <gpxtpx:TrackPointExtension xmlns:gpxtpx="http://www.garmin.com/xmlschemas/TrackPointExtension/v1">
            <gpxtpx:hr>112</gpxtpx:hr>
          </gpxtpx:TrackPointExtension>
        </extensions>
      </trkpt>
      <trkpt lat="43.10005" lon="1.27149">
        <ele>424.8</ele>
        <time>2023-03-05T12:11:58Z</time>
        <extensions>
          <gpxtpx:TrackPointExtension xmlns:gpxtpx="http://www.garmin.com/xmlschemas/TrackPointExtension/v1">
            <gpxtpx:hr>111</gpxtpx:hr>
          </gpxtpx:TrackPointExtension>
        </extensions>
      </trkpt>
      <trkpt lat="43.10003" lon="1.27153">
        <ele>424.4</ele>
        <time>2023-03-05T12:11:59Z</time>
        <extensions>
          <gpxtpx:TrackPointExtension xmlns:gpxtpx="http://www.garmin.com/xmlschemas/TrackPointExtension/v1">
            <gpxtpx:hr>110</gpxtpx:hr>
          </gpxtpx:TrackPointExtension>
        </extensions>
      </trkpt>
      <trkpt lat="43.09989" lon="1.27161">
        <ele>424.4</ele>
        <time>2023-03-05T12:12:03Z</time>
        <extensions>
          <gpxtpx:TrackPointExtension xmlns:gpxtpx="http://www.garmin.com/xmlschemas/TrackPointExtension/v1">
            <gpxtpx:hr>108</gpxtpx:hr>
          </gpxtpx:TrackPointExtension>
        </extensions>
      </trkpt>
      <trkpt lat="43.09979" lon="1.2717">
        <ele>424.4</ele>
        <time>2023-03-05T12:12:06Z</time>
        <extensions>
          <gpxtpx:TrackPointExtension xmlns:gpxtpx="http://www.garmin.com/xmlschemas/TrackPointExtension/v1">
            <gpxtpx:hr>106</gpxtpx:hr>
          </gpxtpx:TrackPointExtension>
        </extensions>
      </trkpt>
      <trkpt lat="43.09977" lon="1.27173">
        <ele>424.4</ele>
        <time>2023-03-05T12:12:07Z</time>
        <extensions>
          <gpxtpx:TrackPointExtension xmlns:gpxtpx="http://www.garmin.com/xmlschemas/TrackPointExtension/v1">
            <gpxtpx:hr>106</gpxtpx:hr>
          </gpxtpx:TrackPointExtension>
        </extensions>
      </trkpt>
      <trkpt lat="43.0997" lon="1.27179">
        <ele>424.4</ele>
        <time>2023-03-05T12:12:09Z</time>
        <extensions>
          <gpxtpx:TrackPointExtension xmlns:gpxtpx="http://www.garmin.com/xmlschemas/TrackPointExtension/v1">
            <gpxtpx:hr>105</gpxtpx:hr>
          </gpxtpx:TrackPointExtension>
        </extensions>
      </trkpt>
      <trkpt lat="43.09957" lon="1.27189">
        <ele>424</ele>
        <time>2023-03-05T12:12:12Z</time>
        <extensions>
          <gpxtpx:TrackPointExtension xmlns:gpxtpx="http://www.garmin.com/xmlschemas/TrackPointExtension/v1">
            <gpxtpx:hr>103</gpxtpx:hr>
          </gpxtpx:TrackPointExtension>
        </extensions>
      </trkpt>
      <trkpt lat="43.09954" lon="1.27191">
        <ele>423.6</ele>
        <time>2023-03-05T12:12:13Z</time>
        <extensions>
          <gpxtpx:TrackPointExtension xmlns:gpxtpx="http://www.garmin.com/xmlschemas/TrackPointExtension/v1">
            <gpxtpx:hr>103</gpxtpx:hr>
          </gpxtpx:TrackPointExtension>
        </extensions>
      </trkpt>
      <trkpt lat="43.0995" lon="1.27194">
        <ele>423</ele>
        <time>2023-03-05T12:12:14Z</time>
        <extensions>
          <gpxtpx:TrackPointExtension xmlns:gpxtpx="http://www.garmin.com/xmlschemas/TrackPointExtension/v1">
            <gpxtpx:hr>104</gpxtpx:hr>
          </gpxtpx:TrackPointExtension>
        </extensions>
      </trkpt>
      <trkpt lat="43.09946" lon="1.27197">
        <ele>422.6</ele>
        <time>2023-03-05T12:12:15Z</time>
        <extensions>
          <gpxtpx:TrackPointExtension xmlns:gpxtpx="http://www.garmin.com/xmlschemas/TrackPointExtension/v1">
            <gpxtpx:hr>105</gpxtpx:hr>
          </gpxtpx:TrackPointExtension>
        </extensions>
      </trkpt>
      <trkpt lat="43.09943" lon="1.27199">
        <ele>422.2</ele>
        <time>2023-03-05T12:12:16Z</time>
        <extensions>
          <gpxtpx:TrackPointExtension xmlns:gpxtpx="http://www.garmin.com/xmlschemas/TrackPointExtension/v1">
            <gpxtpx:hr>105</gpxtpx:hr>
          </gpxtpx:TrackPointExtension>
        </extensions>
      </trkpt>
      <trkpt lat="43.09937" lon="1.27205">
        <ele>422.2</ele>
        <time>2023-03-05T12:12:18Z</time>
        <extensions>
          <gpxtpx:TrackPointExtension xmlns:gpxtpx="http://www.garmin.com/xmlschemas/TrackPointExtension/v1">
            <gpxtpx:hr>106</gpxtpx:hr>
          </gpxtpx:TrackPointExtension>
        </extensions>
      </trkpt>
      <trkpt lat="43.09924" lon="1.27207">
        <ele>422.2</ele>
        <time>2023-03-05T12:12:22Z</time>
        <extensions>
          <gpxtpx:TrackPointExtension xmlns:gpxtpx="http://www.garmin.com/xmlschemas/TrackPointExtension/v1">
            <gpxtpx:hr>107</gpxtpx:hr>
          </gpxtpx:TrackPointExtension>
        </extensions>
      </trkpt>
      <trkpt lat="43.09898" lon="1.27204">
        <ele>422.2</ele>
        <time>2023-03-05T12:12:29Z</time>
        <extensions>
          <gpxtpx:TrackPointExtension xmlns:gpxtpx="http://www.garmin.com/xmlschemas/TrackPointExtension/v1">
            <gpxtpx:hr>109</gpxtpx:hr>
          </gpxtpx:TrackPointExtension>
        </extensions>
      </trkpt>
      <trkpt lat="43.09892" lon="1.27203">
        <ele>422.6</ele>
        <time>2023-03-05T12:12:31Z</time>
        <extensions>
          <gpxtpx:TrackPointExtension xmlns:gpxtpx="http://www.garmin.com/xmlschemas/TrackPointExtension/v1">
            <gpxtpx:hr>108</gpxtpx:hr>
          </gpxtpx:TrackPointExtension>
        </extensions>
      </trkpt>
      <trkpt lat="43.09889" lon="1.27202">
        <ele>423.2</ele>
        <time>2023-03-05T12:12:32Z</time>
        <extensions>
          <gpxtpx:TrackPointExtension xmlns:gpxtpx="http://www.garmin.com/xmlschemas/TrackPointExtension/v1">
            <gpxtpx:hr>109</gpxtpx:hr>
          </gpxtpx:TrackPointExtension>
        </extensions>
      </trkpt>
      <trkpt lat="43.09887" lon="1.272">
        <ele>423.6</ele>
        <time>2023-03-05T12:12:33Z</time>
        <extensions>
          <gpxtpx:TrackPointExtension xmlns:gpxtpx="http://www.garmin.com/xmlschemas/TrackPointExtension/v1">
            <gpxtpx:hr>109</gpxtpx:hr>
          </gpxtpx:TrackPointExtension>
        </extensions>
      </trkpt>
      <trkpt lat="43.09884" lon="1.272">
        <ele>424</ele>
        <time>2023-03-05T12:12:34Z</time>
        <extensions>
          <gpxtpx:TrackPointExtension xmlns:gpxtpx="http://www.garmin.com/xmlschemas/TrackPointExtension/v1">
            <gpxtpx:hr>109</gpxtpx:hr>
          </gpxtpx:TrackPointExtension>
        </extensions>
      </trkpt>
      <trkpt lat="43.09881" lon="1.27198">
        <ele>424.6</ele>
        <time>2023-03-05T12:12:35Z</time>
        <extensions>
          <gpxtpx:TrackPointExtension xmlns:gpxtpx="http://www.garmin.com/xmlschemas/TrackPointExtension/v1">
            <gpxtpx:hr>109</gpxtpx:hr>
          </gpxtpx:TrackPointExtension>
        </extensions>
      </trkpt>
      <trkpt lat="43.09877" lon="1.27196">
        <ele>425</ele>
        <time>2023-03-05T12:12:37Z</time>
        <extensions>
          <gpxtpx:TrackPointExtension xmlns:gpxtpx="http://www.garmin.com/xmlschemas/TrackPointExtension/v1">
            <gpxtpx:hr>110</gpxtpx:hr>
          </gpxtpx:TrackPointExtension>
        </extensions>
      </trkpt>
      <trkpt lat="43.09875" lon="1.27194">
        <ele>425.4</ele>
        <time>2023-03-05T12:12:38Z</time>
        <extensions>
          <gpxtpx:TrackPointExtension xmlns:gpxtpx="http://www.garmin.com/xmlschemas/TrackPointExtension/v1">
            <gpxtpx:hr>110</gpxtpx:hr>
          </gpxtpx:TrackPointExtension>
        </extensions>
      </trkpt>
      <trkpt lat="43.09872" lon="1.27193">
        <ele>425.8</ele>
        <time>2023-03-05T12:12:39Z</time>
        <extensions>
          <gpxtpx:TrackPointExtension xmlns:gpxtpx="http://www.garmin.com/xmlschemas/TrackPointExtension/v1">
            <gpxtpx:hr>110</gpxtpx:hr>
          </gpxtpx:TrackPointExtension>
        </extensions>
      </trkpt>
      <trkpt lat="43.0987" lon="1.27192">
        <ele>426.2</ele>
        <time>2023-03-05T12:12:40Z</time>
        <extensions>
          <gpxtpx:TrackPointExtension xmlns:gpxtpx="http://www.garmin.com/xmlschemas/TrackPointExtension/v1">
            <gpxtpx:hr>110</gpxtpx:hr>
          </gpxtpx:TrackPointExtension>
        </extensions>
      </trkpt>
      <trkpt lat="43.09868" lon="1.2719">
        <ele>426.6</ele>
        <time>2023-03-05T12:12:41Z</time>
        <extensions>
          <gpxtpx:TrackPointExtension xmlns:gpxtpx="http://www.garmin.com/xmlschemas/TrackPointExtension/v1">
            <gpxtpx:hr>111</gpxtpx:hr>
          </gpxtpx:TrackPointExtension>
        </extensions>
      </trkpt>
      <trkpt lat="43.09866" lon="1.27186">
        <ele>427</ele>
        <time>2023-03-05T12:12:44Z</time>
        <extensions>
          <gpxtpx:TrackPointExtension xmlns:gpxtpx="http://www.garmin.com/xmlschemas/TrackPointExtension/v1">
            <gpxtpx:hr>112</gpxtpx:hr>
          </gpxtpx:TrackPointExtension>
        </extensions>
      </trkpt>
      <trkpt lat="43.09865" lon="1.27186">
        <ele>427.6</ele>
        <time>2023-03-05T12:12:45Z</time>
        <extensions>
          <gpxtpx:TrackPointExtension xmlns:gpxtpx="http://www.garmin.com/xmlschemas/TrackPointExtension/v1">
            <gpxtpx:hr>112</gpxtpx:hr>
          </gpxtpx:TrackPointExtension>
        </extensions>
      </trkpt>
      <trkpt lat="43.09865" lon="1.27186">
        <ele>428</ele>
        <time>2023-03-05T12:12:46Z</time>
        <extensions>
          <gpxtpx:TrackPointExtension xmlns:gpxtpx="http://www.garmin.com/xmlschemas/TrackPointExtension/v1">
            <gpxtpx:hr>112</gpxtpx:hr>
          </gpxtpx:TrackPointExtension>
        </extensions>
      </trkpt>
      <trkpt lat="43.09861" lon="1.27187">
        <ele>428.8</ele>
        <time>2023-03-05T12:12:53Z</time>
        <extensions>
          <gpxtpx:TrackPointExtension xmlns:gpxtpx="http://www.garmin.com/xmlschemas/TrackPointExtension/v1">
            <gpxtpx:hr>111</gpxtpx:hr>
          </gpxtpx:TrackPointExtension>
        </extensions>
      </trkpt>
      <trkpt lat="43.09858" lon="1.27184">
        <ele>428.8</ele>
        <time>2023-03-05T12:12:55Z</time>
        <extensions>
          <gpxtpx:TrackPointExtension xmlns:gpxtpx="http://www.garmin.com/xmlschemas/TrackPointExtension/v1">
            <gpxtpx:hr>112</gpxtpx:hr>
          </gpxtpx:TrackPointExtension>
        </extensions>
      </trkpt>
      <trkpt lat="43.0985" lon="1.2718">
        <ele>428.8</ele>
        <time>2023-03-05T12:12:58Z</time>
        <extensions>
          <gpxtpx:TrackPointExtension xmlns:gpxtpx="http://www.garmin.com/xmlschemas/TrackPointExtension/v1">
            <gpxtpx:hr>112</gpxtpx:hr>
          </gpxtpx:TrackPointExtension>
        </extensions>
      </trkpt>
      <trkpt lat="43.09842" lon="1.27178">
        <ele>428.8</ele>
        <time>2023-03-05T12:13:01Z</time>
        <extensions>
          <gpxtpx:TrackPointExtension xmlns:gpxtpx="http://www.garmin.com/xmlschemas/TrackPointExtension/v1">
            <gpxtpx:hr>112</gpxtpx:hr>
          </gpxtpx:TrackPointExtension>
        </extensions>
      </trkpt>
      <trkpt lat="43.0983" lon="1.27174">
        <ele>429.2</ele>
        <time>2023-03-05T12:13:05Z</time>
        <extensions>
          <gpxtpx:TrackPointExtension xmlns:gpxtpx="http://www.garmin.com/xmlschemas/TrackPointExtension/v1">
            <gpxtpx:hr>113</gpxtpx:hr>
          </gpxtpx:TrackPointExtension>
        </extensions>
      </trkpt>
      <trkpt lat="43.09827" lon="1.27172">
        <ele>429.6</ele>
        <time>2023-03-05T12:13:06Z</time>
        <extensions>
          <gpxtpx:TrackPointExtension xmlns:gpxtpx="http://www.garmin.com/xmlschemas/TrackPointExtension/v1">
            <gpxtpx:hr>113</gpxtpx:hr>
          </gpxtpx:TrackPointExtension>
        </extensions>
      </trkpt>
      <trkpt lat="43.09823" lon="1.2717">
        <ele>430</ele>
        <time>2023-03-05T12:13:07Z</time>
        <extensions>
          <gpxtpx:TrackPointExtension xmlns:gpxtpx="http://www.garmin.com/xmlschemas/TrackPointExtension/v1">
            <gpxtpx:hr>113</gpxtpx:hr>
          </gpxtpx:TrackPointExtension>
        </extensions>
      </trkpt>
      <trkpt lat="43.0982" lon="1.27167">
        <ele>430.4</ele>
        <time>2023-03-05T12:13:08Z</time>
        <extensions>
          <gpxtpx:TrackPointExtension xmlns:gpxtpx="http://www.garmin.com/xmlschemas/TrackPointExtension/v1">
            <gpxtpx:hr>114</gpxtpx:hr>
          </gpxtpx:TrackPointExtension>
        </extensions>
      </trkpt>
      <trkpt lat="43.09816" lon="1.27165">
        <ele>430.8</ele>
        <time>2023-03-05T12:13:09Z</time>
        <extensions>
          <gpxtpx:TrackPointExtension xmlns:gpxtpx="http://www.garmin.com/xmlschemas/TrackPointExtension/v1">
            <gpxtpx:hr>114</gpxtpx:hr>
          </gpxtpx:TrackPointExtension>
        </extensions>
      </trkpt>
      <trkpt lat="43.09813" lon="1.27162">
        <ele>430.8</ele>
        <time>2023-03-05T12:13:10Z</time>
        <extensions>
          <gpxtpx:TrackPointExtension xmlns:gpxtpx="http://www.garmin.com/xmlschemas/TrackPointExtension/v1">
            <gpxtpx:hr>115</gpxtpx:hr>
          </gpxtpx:TrackPointExtension>
        </extensions>
      </trkpt>
      <trkpt lat="43.09801" lon="1.27147">
        <ele>430.4</ele>
        <time>2023-03-05T12:13:15Z</time>
        <extensions>
          <gpxtpx:TrackPointExtension xmlns:gpxtpx="http://www.garmin.com/xmlschemas/TrackPointExtension/v1">
            <gpxtpx:hr>116</gpxtpx:hr>
          </gpxtpx:TrackPointExtension>
        </extensions>
      </trkpt>
      <trkpt lat="43.09798" lon="1.27142">
        <ele>429.8</ele>
        <time>2023-03-05T12:13:16Z</time>
        <extensions>
          <gpxtpx:TrackPointExtension xmlns:gpxtpx="http://www.garmin.com/xmlschemas/TrackPointExtension/v1">
            <gpxtpx:hr>117</gpxtpx:hr>
          </gpxtpx:TrackPointExtension>
        </extensions>
      </trkpt>
      <trkpt lat="43.09795" lon="1.27137">
        <ele>429.4</ele>
        <time>2023-03-05T12:13:17Z</time>
        <extensions>
          <gpxtpx:TrackPointExtension xmlns:gpxtpx="http://www.garmin.com/xmlschemas/TrackPointExtension/v1">
            <gpxtpx:hr>117</gpxtpx:hr>
          </gpxtpx:TrackPointExtension>
        </extensions>
      </trkpt>
      <trkpt lat="43.09791" lon="1.27131">
        <ele>429</ele>
        <time>2023-03-05T12:13:18Z</time>
        <extensions>
          <gpxtpx:TrackPointExtension xmlns:gpxtpx="http://www.garmin.com/xmlschemas/TrackPointExtension/v1">
            <gpxtpx:hr>117</gpxtpx:hr>
          </gpxtpx:TrackPointExtension>
        </extensions>
      </trkpt>
      <trkpt lat="43.09787" lon="1.27126">
        <ele>428.6</ele>
        <time>2023-03-05T12:13:19Z</time>
        <extensions>
          <gpxtpx:TrackPointExtension xmlns:gpxtpx="http://www.garmin.com/xmlschemas/TrackPointExtension/v1">
            <gpxtpx:hr>117</gpxtpx:hr>
          </gpxtpx:TrackPointExtension>
        </extensions>
      </trkpt>
      <trkpt lat="43.09779" lon="1.27119">
        <ele>428.6</ele>
        <time>2023-03-05T12:13:20Z</time>
        <extensions>
          <gpxtpx:TrackPointExtension xmlns:gpxtpx="http://www.garmin.com/xmlschemas/TrackPointExtension/v1">
            <gpxtpx:hr>116</gpxtpx:hr>
          </gpxtpx:TrackPointExtension>
        </extensions>
      </trkpt>
      <trkpt lat="43.0977" lon="1.27113">
        <ele>428</ele>
        <time>2023-03-05T12:13:21Z</time>
        <extensions>
          <gpxtpx:TrackPointExtension xmlns:gpxtpx="http://www.garmin.com/xmlschemas/TrackPointExtension/v1">
            <gpxtpx:hr>116</gpxtpx:hr>
          </gpxtpx:TrackPointExtension>
        </extensions>
      </trkpt>
      <trkpt lat="43.09762" lon="1.2711">
        <ele>427.6</ele>
        <time>2023-03-05T12:13:22Z</time>
        <extensions>
          <gpxtpx:TrackPointExtension xmlns:gpxtpx="http://www.garmin.com/xmlschemas/TrackPointExtension/v1">
            <gpxtpx:hr>116</gpxtpx:hr>
          </gpxtpx:TrackPointExtension>
        </extensions>
      </trkpt>
      <trkpt lat="43.09754" lon="1.27107">
        <ele>427.2</ele>
        <time>2023-03-05T12:13:23Z</time>
        <extensions>
          <gpxtpx:TrackPointExtension xmlns:gpxtpx="http://www.garmin.com/xmlschemas/TrackPointExtension/v1">
            <gpxtpx:hr>116</gpxtpx:hr>
          </gpxtpx:TrackPointExtension>
        </extensions>
      </trkpt>
      <trkpt lat="43.09746" lon="1.27104">
        <ele>426.6</ele>
        <time>2023-03-05T12:13:24Z</time>
        <extensions>
          <gpxtpx:TrackPointExtension xmlns:gpxtpx="http://www.garmin.com/xmlschemas/TrackPointExtension/v1">
            <gpxtpx:hr>116</gpxtpx:hr>
          </gpxtpx:TrackPointExtension>
        </extensions>
      </trkpt>
      <trkpt lat="43.09738" lon="1.271">
        <ele>426.2</ele>
        <time>2023-03-05T12:13:25Z</time>
        <extensions>
          <gpxtpx:TrackPointExtension xmlns:gpxtpx="http://www.garmin.com/xmlschemas/TrackPointExtension/v1">
            <gpxtpx:hr>116</gpxtpx:hr>
          </gpxtpx:TrackPointExtension>
        </extensions>
      </trkpt>
      <trkpt lat="43.09724" lon="1.27095">
        <ele>426.2</ele>
        <time>2023-03-05T12:13:27Z</time>
        <extensions>
          <gpxtpx:TrackPointExtension xmlns:gpxtpx="http://www.garmin.com/xmlschemas/TrackPointExtension/v1">
            <gpxtpx:hr>115</gpxtpx:hr>
          </gpxtpx:TrackPointExtension>
        </extensions>
      </trkpt>
      <trkpt lat="43.09702" lon="1.27089">
        <ele>426.2</ele>
        <time>2023-03-05T12:13:31Z</time>
        <extensions>
          <gpxtpx:TrackPointExtension xmlns:gpxtpx="http://www.garmin.com/xmlschemas/TrackPointExtension/v1">
            <gpxtpx:hr>112</gpxtpx:hr>
          </gpxtpx:TrackPointExtension>
        </extensions>
      </trkpt>
      <trkpt lat="43.09694" lon="1.27087">
        <ele>426.2</ele>
        <time>2023-03-05T12:13:33Z</time>
        <extensions>
          <gpxtpx:TrackPointExtension xmlns:gpxtpx="http://www.garmin.com/xmlschemas/TrackPointExtension/v1">
            <gpxtpx:hr>111</gpxtpx:hr>
          </gpxtpx:TrackPointExtension>
        </extensions>
      </trkpt>
      <trkpt lat="43.09669" lon="1.27083">
        <ele>426.2</ele>
        <time>2023-03-05T12:13:39Z</time>
        <extensions>
          <gpxtpx:TrackPointExtension xmlns:gpxtpx="http://www.garmin.com/xmlschemas/TrackPointExtension/v1">
            <gpxtpx:hr>110</gpxtpx:hr>
          </gpxtpx:TrackPointExtension>
        </extensions>
      </trkpt>
      <trkpt lat="43.09656" lon="1.27079">
        <ele>426.2</ele>
        <time>2023-03-05T12:13:44Z</time>
        <extensions>
          <gpxtpx:TrackPointExtension xmlns:gpxtpx="http://www.garmin.com/xmlschemas/TrackPointExtension/v1">
            <gpxtpx:hr>108</gpxtpx:hr>
          </gpxtpx:TrackPointExtension>
        </extensions>
      </trkpt>
      <trkpt lat="43.09654" lon="1.27077">
        <ele>426.2</ele>
        <time>2023-03-05T12:13:47Z</time>
        <extensions>
          <gpxtpx:TrackPointExtension xmlns:gpxtpx="http://www.garmin.com/xmlschemas/TrackPointExtension/v1">
            <gpxtpx:hr>106</gpxtpx:hr>
          </gpxtpx:TrackPointExtension>
        </extensions>
      </trkpt>
      <trkpt lat="43.09654" lon="1.27076">
        <ele>426.2</ele>
        <time>2023-03-05T12:13:48Z</time>
        <extensions>
          <gpxtpx:TrackPointExtension xmlns:gpxtpx="http://www.garmin.com/xmlschemas/TrackPointExtension/v1">
            <gpxtpx:hr>106</gpxtpx:hr>
          </gpxtpx:TrackPointExtension>
        </extensions>
      </trkpt>
      <trkpt lat="43.09654" lon="1.27076">
        <ele>426.2</ele>
        <time>2023-03-05T12:13:49Z</time>
        <extensions>
          <gpxtpx:TrackPointExtension xmlns:gpxtpx="http://www.garmin.com/xmlschemas/TrackPointExtension/v1">
            <gpxtpx:hr>105</gpxtpx:hr>
          </gpxtpx:TrackPointExtension>
        </extensions>
      </trkpt>
      <trkpt lat="43.09645" lon="1.27084">
        <ele>426.2</ele>
        <time>2023-03-05T12:15:43Z</time>
        <extensions>
          <gpxtpx:TrackPointExtension xmlns:gpxtpx="http://www.garmin.com/xmlschemas/TrackPointExtension/v1">
            <gpxtpx:hr>99</gpxtpx:hr>
          </gpxtpx:TrackPointExtension>
        </extensions>
      </trkpt>
      <trkpt lat="43.09643" lon="1.27087">
        <ele>426.2</ele>
        <time>2023-03-05T12:15:44Z</time>
        <extensions>
          <gpxtpx:TrackPointExtension xmlns:gpxtpx="http://www.garmin.com/xmlschemas/TrackPointExtension/v1">
            <gpxtpx:hr>99</gpxtpx:hr>
          </gpxtpx:TrackPointExtension>
        </extensions>
      </trkpt>
      <trkpt lat="43.09642" lon="1.27091">
        <ele>426.2</ele>
        <time>2023-03-05T12:15:45Z</time>
        <extensions>
          <gpxtpx:TrackPointExtension xmlns:gpxtpx="http://www.garmin.com/xmlschemas/TrackPointExtension/v1">
            <gpxtpx:hr>99</gpxtpx:hr>
          </gpxtpx:TrackPointExtension>
        </extensions>
      </trkpt>
      <trkpt lat="43.0964" lon="1.27101">
        <ele>426.2</ele>
        <time>2023-03-05T12:15:47Z</time>
        <extensions>
          <gpxtpx:TrackPointExtension xmlns:gpxtpx="http://www.garmin.com/xmlschemas/TrackPointExtension/v1">
            <gpxtpx:hr>99</gpxtpx:hr>
          </gpxtpx:TrackPointExtension>
        </extensions>
      </trkpt>
      <trkpt lat="43.09637" lon="1.27111">
        <ele>426.2</ele>
        <time>2023-03-05T12:15:50Z</time>
        <extensions>
          <gpxtpx:TrackPointExtension xmlns:gpxtpx="http://www.garmin.com/xmlschemas/TrackPointExtension/v1">
            <gpxtpx:hr>101</gpxtpx:hr>
          </gpxtpx:TrackPointExtension>
        </extensions>
      </trkpt>
      <trkpt lat="43.09634" lon="1.27136">
        <ele>426.2</ele>
        <time>2023-03-05T12:15:55Z</time>
        <extensions>
          <gpxtpx:TrackPointExtension xmlns:gpxtpx="http://www.garmin.com/xmlschemas/TrackPointExtension/v1">
            <gpxtpx:hr>101</gpxtpx:hr>
          </gpxtpx:TrackPointExtension>
        </extensions>
      </trkpt>
      <trkpt lat="43.09633" lon="1.27146">
        <ele>426.2</ele>
        <time>2023-03-05T12:15:57Z</time>
        <extensions>
          <gpxtpx:TrackPointExtension xmlns:gpxtpx="http://www.garmin.com/xmlschemas/TrackPointExtension/v1">
            <gpxtpx:hr>105</gpxtpx:hr>
          </gpxtpx:TrackPointExtension>
        </extensions>
      </trkpt>
      <trkpt lat="43.09631" lon="1.27163">
        <ele>426.2</ele>
        <time>2023-03-05T12:16:00Z</time>
        <extensions>
          <gpxtpx:TrackPointExtension xmlns:gpxtpx="http://www.garmin.com/xmlschemas/TrackPointExtension/v1">
            <gpxtpx:hr>105</gpxtpx:hr>
          </gpxtpx:TrackPointExtension>
        </extensions>
      </trkpt>
      <trkpt lat="43.09626" lon="1.27196">
        <ele>426.2</ele>
        <time>2023-03-05T12:16:06Z</time>
        <extensions>
          <gpxtpx:TrackPointExtension xmlns:gpxtpx="http://www.garmin.com/xmlschemas/TrackPointExtension/v1">
            <gpxtpx:hr>104</gpxtpx:hr>
          </gpxtpx:TrackPointExtension>
        </extensions>
      </trkpt>
      <trkpt lat="43.09614" lon="1.27224">
        <ele>425.8</ele>
        <time>2023-03-05T12:16:12Z</time>
        <extensions>
          <gpxtpx:TrackPointExtension xmlns:gpxtpx="http://www.garmin.com/xmlschemas/TrackPointExtension/v1">
            <gpxtpx:hr>105</gpxtpx:hr>
          </gpxtpx:TrackPointExtension>
        </extensions>
      </trkpt>
      <trkpt lat="43.09612" lon="1.2723">
        <ele>425.4</ele>
        <time>2023-03-05T12:16:13Z</time>
        <extensions>
          <gpxtpx:TrackPointExtension xmlns:gpxtpx="http://www.garmin.com/xmlschemas/TrackPointExtension/v1">
            <gpxtpx:hr>106</gpxtpx:hr>
          </gpxtpx:TrackPointExtension>
        </extensions>
      </trkpt>
      <trkpt lat="43.0961" lon="1.27237">
        <ele>425</ele>
        <time>2023-03-05T12:16:14Z</time>
        <extensions>
          <gpxtpx:TrackPointExtension xmlns:gpxtpx="http://www.garmin.com/xmlschemas/TrackPointExtension/v1">
            <gpxtpx:hr>106</gpxtpx:hr>
          </gpxtpx:TrackPointExtension>
        </extensions>
      </trkpt>
      <trkpt lat="43.09607" lon="1.27243">
        <ele>424.6</ele>
        <time>2023-03-05T12:16:15Z</time>
        <extensions>
          <gpxtpx:TrackPointExtension xmlns:gpxtpx="http://www.garmin.com/xmlschemas/TrackPointExtension/v1">
            <gpxtpx:hr>106</gpxtpx:hr>
          </gpxtpx:TrackPointExtension>
        </extensions>
      </trkpt>
      <trkpt lat="43.09604" lon="1.27249">
        <ele>424.2</ele>
        <time>2023-03-05T12:16:16Z</time>
        <extensions>
          <gpxtpx:TrackPointExtension xmlns:gpxtpx="http://www.garmin.com/xmlschemas/TrackPointExtension/v1">
            <gpxtpx:hr>106</gpxtpx:hr>
          </gpxtpx:TrackPointExtension>
        </extensions>
      </trkpt>
      <trkpt lat="43.09598" lon="1.27263">
        <ele>424.2</ele>
        <time>2023-03-05T12:16:18Z</time>
        <extensions>
          <gpxtpx:TrackPointExtension xmlns:gpxtpx="http://www.garmin.com/xmlschemas/TrackPointExtension/v1">
            <gpxtpx:hr>107</gpxtpx:hr>
          </gpxtpx:TrackPointExtension>
        </extensions>
      </trkpt>
      <trkpt lat="43.09595" lon="1.27269">
        <ele>423.6</ele>
        <time>2023-03-05T12:16:19Z</time>
        <extensions>
          <gpxtpx:TrackPointExtension xmlns:gpxtpx="http://www.garmin.com/xmlschemas/TrackPointExtension/v1">
            <gpxtpx:hr>108</gpxtpx:hr>
          </gpxtpx:TrackPointExtension>
        </extensions>
      </trkpt>
      <trkpt lat="43.09594" lon="1.27272">
        <ele>423.2</ele>
        <time>2023-03-05T12:16:20Z</time>
        <extensions>
          <gpxtpx:TrackPointExtension xmlns:gpxtpx="http://www.garmin.com/xmlschemas/TrackPointExtension/v1">
            <gpxtpx:hr>108</gpxtpx:hr>
          </gpxtpx:TrackPointExtension>
        </extensions>
      </trkpt>
      <trkpt lat="43.09593" lon="1.27274">
        <ele>422.8</ele>
        <time>2023-03-05T12:16:21Z</time>
        <extensions>
          <gpxtpx:TrackPointExtension xmlns:gpxtpx="http://www.garmin.com/xmlschemas/TrackPointExtension/v1">
            <gpxtpx:hr>108</gpxtpx:hr>
          </gpxtpx:TrackPointExtension>
        </extensions>
      </trkpt>
      <trkpt lat="43.09592" lon="1.27276">
        <ele>422.4</ele>
        <time>2023-03-05T12:16:22Z</time>
        <extensions>
          <gpxtpx:TrackPointExtension xmlns:gpxtpx="http://www.garmin.com/xmlschemas/TrackPointExtension/v1">
            <gpxtpx:hr>108</gpxtpx:hr>
          </gpxtpx:TrackPointExtension>
        </extensions>
      </trkpt>
      <trkpt lat="43.09591" lon="1.27278">
        <ele>421.8</ele>
        <time>2023-03-05T12:16:23Z</time>
        <extensions>
          <gpxtpx:TrackPointExtension xmlns:gpxtpx="http://www.garmin.com/xmlschemas/TrackPointExtension/v1">
            <gpxtpx:hr>107</gpxtpx:hr>
          </gpxtpx:TrackPointExtension>
        </extensions>
      </trkpt>
      <trkpt lat="43.09591" lon="1.27281">
        <ele>421.8</ele>
        <time>2023-03-05T12:16:24Z</time>
        <extensions>
          <gpxtpx:TrackPointExtension xmlns:gpxtpx="http://www.garmin.com/xmlschemas/TrackPointExtension/v1">
            <gpxtpx:hr>107</gpxtpx:hr>
          </gpxtpx:TrackPointExtension>
        </extensions>
      </trkpt>
      <trkpt lat="43.09591" lon="1.27286">
        <ele>421.8</ele>
        <time>2023-03-05T12:16:26Z</time>
        <extensions>
          <gpxtpx:TrackPointExtension xmlns:gpxtpx="http://www.garmin.com/xmlschemas/TrackPointExtension/v1">
            <gpxtpx:hr>105</gpxtpx:hr>
          </gpxtpx:TrackPointExtension>
        </extensions>
      </trkpt>
      <trkpt lat="43.0959" lon="1.27292">
        <ele>421.8</ele>
        <time>2023-03-05T12:16:28Z</time>
        <extensions>
          <gpxtpx:TrackPointExtension xmlns:gpxtpx="http://www.garmin.com/xmlschemas/TrackPointExtension/v1">
            <gpxtpx:hr>105</gpxtpx:hr>
          </gpxtpx:TrackPointExtension>
        </extensions>
      </trkpt>
      <trkpt lat="43.0959" lon="1.273">
        <ele>421.8</ele>
        <time>2023-03-05T12:16:30Z</time>
        <extensions>
          <gpxtpx:TrackPointExtension xmlns:gpxtpx="http://www.garmin.com/xmlschemas/TrackPointExtension/v1">
            <gpxtpx:hr>105</gpxtpx:hr>
          </gpxtpx:TrackPointExtension>
        </extensions>
      </trkpt>
      <trkpt lat="43.09588" lon="1.27312">
        <ele>421.8</ele>
        <time>2023-03-05T12:16:33Z</time>
        <extensions>
          <gpxtpx:TrackPointExtension xmlns:gpxtpx="http://www.garmin.com/xmlschemas/TrackPointExtension/v1">
            <gpxtpx:hr>108</gpxtpx:hr>
          </gpxtpx:TrackPointExtension>
        </extensions>
      </trkpt>
      <trkpt lat="43.09585" lon="1.27322">
        <ele>421.8</ele>
        <time>2023-03-05T12:16:35Z</time>
        <extensions>
          <gpxtpx:TrackPointExtension xmlns:gpxtpx="http://www.garmin.com/xmlschemas/TrackPointExtension/v1">
            <gpxtpx:hr>108</gpxtpx:hr>
          </gpxtpx:TrackPointExtension>
        </extensions>
      </trkpt>
      <trkpt lat="43.09581" lon="1.27338">
        <ele>421.8</ele>
        <time>2023-03-05T12:16:39Z</time>
        <extensions>
          <gpxtpx:TrackPointExtension xmlns:gpxtpx="http://www.garmin.com/xmlschemas/TrackPointExtension/v1">
            <gpxtpx:hr>106</gpxtpx:hr>
          </gpxtpx:TrackPointExtension>
        </extensions>
      </trkpt>
      <trkpt lat="43.09582" lon="1.27354">
        <ele>421.8</ele>
        <time>2023-03-05T12:16:43Z</time>
        <extensions>
          <gpxtpx:TrackPointExtension xmlns:gpxtpx="http://www.garmin.com/xmlschemas/TrackPointExtension/v1">
            <gpxtpx:hr>106</gpxtpx:hr>
          </gpxtpx:TrackPointExtension>
        </extensions>
      </trkpt>
      <trkpt lat="43.09582" lon="1.2736">
        <ele>421.8</ele>
        <time>2023-03-05T12:16:44Z</time>
        <extensions>
          <gpxtpx:TrackPointExtension xmlns:gpxtpx="http://www.garmin.com/xmlschemas/TrackPointExtension/v1">
            <gpxtpx:hr>106</gpxtpx:hr>
          </gpxtpx:TrackPointExtension>
        </extensions>
      </trkpt>
      <trkpt lat="43.09586" lon="1.27371">
        <ele>421.8</ele>
        <time>2023-03-05T12:16:47Z</time>
        <extensions>
          <gpxtpx:TrackPointExtension xmlns:gpxtpx="http://www.garmin.com/xmlschemas/TrackPointExtension/v1">
            <gpxtpx:hr>106</gpxtpx:hr>
          </gpxtpx:TrackPointExtension>
        </extensions>
      </trkpt>
      <trkpt lat="43.09592" lon="1.27392">
        <ele>421.8</ele>
        <time>2023-03-05T12:16:52Z</time>
        <extensions>
          <gpxtpx:TrackPointExtension xmlns:gpxtpx="http://www.garmin.com/xmlschemas/TrackPointExtension/v1">
            <gpxtpx:hr>109</gpxtpx:hr>
          </gpxtpx:TrackPointExtension>
        </extensions>
      </trkpt>
      <trkpt lat="43.09593" lon="1.27396">
        <ele>421.8</ele>
        <time>2023-03-05T12:16:53Z</time>
        <extensions>
          <gpxtpx:TrackPointExtension xmlns:gpxtpx="http://www.garmin.com/xmlschemas/TrackPointExtension/v1">
            <gpxtpx:hr>110</gpxtpx:hr>
          </gpxtpx:TrackPointExtension>
        </extensions>
      </trkpt>
      <trkpt lat="43.09599" lon="1.27416">
        <ele>422.4</ele>
        <time>2023-03-05T12:16:59Z</time>
        <extensions>
          <gpxtpx:TrackPointExtension xmlns:gpxtpx="http://www.garmin.com/xmlschemas/TrackPointExtension/v1">
            <gpxtpx:hr>112</gpxtpx:hr>
          </gpxtpx:TrackPointExtension>
        </extensions>
      </trkpt>
      <trkpt lat="43.096" lon="1.27419">
        <ele>422.8</ele>
        <time>2023-03-05T12:17:00Z</time>
        <extensions>
          <gpxtpx:TrackPointExtension xmlns:gpxtpx="http://www.garmin.com/xmlschemas/TrackPointExtension/v1">
            <gpxtpx:hr>112</gpxtpx:hr>
          </gpxtpx:TrackPointExtension>
        </extensions>
      </trkpt>
      <trkpt lat="43.09601" lon="1.27422">
        <ele>423.2</ele>
        <time>2023-03-05T12:17:01Z</time>
        <extensions>
          <gpxtpx:TrackPointExtension xmlns:gpxtpx="http://www.garmin.com/xmlschemas/TrackPointExtension/v1">
            <gpxtpx:hr>112</gpxtpx:hr>
          </gpxtpx:TrackPointExtension>
        </extensions>
      </trkpt>
      <trkpt lat="43.09602" lon="1.27426">
        <ele>423.6</ele>
        <time>2023-03-05T12:17:02Z</time>
        <extensions>
          <gpxtpx:TrackPointExtension xmlns:gpxtpx="http://www.garmin.com/xmlschemas/TrackPointExtension/v1">
            <gpxtpx:hr>112</gpxtpx:hr>
          </gpxtpx:TrackPointExtension>
        </extensions>
      </trkpt>
      <trkpt lat="43.09602" lon="1.2743">
        <ele>424</ele>
        <time>2023-03-05T12:17:03Z</time>
        <extensions>
          <gpxtpx:TrackPointExtension xmlns:gpxtpx="http://www.garmin.com/xmlschemas/TrackPointExtension/v1">
            <gpxtpx:hr>112</gpxtpx:hr>
          </gpxtpx:TrackPointExtension>
        </extensions>
      </trkpt>
      <trkpt lat="43.09604" lon="1.27446">
        <ele>424</ele>
        <time>2023-03-05T12:17:07Z</time>
        <extensions>
          <gpxtpx:TrackPointExtension xmlns:gpxtpx="http://www.garmin.com/xmlschemas/TrackPointExtension/v1">
            <gpxtpx:hr>112</gpxtpx:hr>
          </gpxtpx:TrackPointExtension>
        </extensions>
      </trkpt>
      <trkpt lat="43.09606" lon="1.27453">
        <ele>424.4</ele>
        <time>2023-03-05T12:17:10Z</time>
        <extensions>
          <gpxtpx:TrackPointExtension xmlns:gpxtpx="http://www.garmin.com/xmlschemas/TrackPointExtension/v1">
            <gpxtpx:hr>113</gpxtpx:hr>
          </gpxtpx:TrackPointExtension>
        </extensions>
      </trkpt>
      <trkpt lat="43.09607" lon="1.27456">
        <ele>424.8</ele>
        <time>2023-03-05T12:17:11Z</time>
        <extensions>
          <gpxtpx:TrackPointExtension xmlns:gpxtpx="http://www.garmin.com/xmlschemas/TrackPointExtension/v1">
            <gpxtpx:hr>113</gpxtpx:hr>
          </gpxtpx:TrackPointExtension>
        </extensions>
      </trkpt>
      <trkpt lat="43.09608" lon="1.2746">
        <ele>425.2</ele>
        <time>2023-03-05T12:17:12Z</time>
        <extensions>
          <gpxtpx:TrackPointExtension xmlns:gpxtpx="http://www.garmin.com/xmlschemas/TrackPointExtension/v1">
            <gpxtpx:hr>112</gpxtpx:hr>
          </gpxtpx:TrackPointExtension>
        </extensions>
      </trkpt>
      <trkpt lat="43.0961" lon="1.27463">
        <ele>425.6</ele>
        <time>2023-03-05T12:17:13Z</time>
        <extensions>
          <gpxtpx:TrackPointExtension xmlns:gpxtpx="http://www.garmin.com/xmlschemas/TrackPointExtension/v1">
            <gpxtpx:hr>112</gpxtpx:hr>
          </gpxtpx:TrackPointExtension>
        </extensions>
      </trkpt>
      <trkpt lat="43.09611" lon="1.27466">
        <ele>426</ele>
        <time>2023-03-05T12:17:14Z</time>
        <extensions>
          <gpxtpx:TrackPointExtension xmlns:gpxtpx="http://www.garmin.com/xmlschemas/TrackPointExtension/v1">
            <gpxtpx:hr>112</gpxtpx:hr>
          </gpxtpx:TrackPointExtension>
        </extensions>
      </trkpt>
      <trkpt lat="43.09618" lon="1.27478">
        <ele>426</ele>
        <time>2023-03-05T12:17:18Z</time>
        <extensions>
          <gpxtpx:TrackPointExtension xmlns:gpxtpx="http://www.garmin.com/xmlschemas/TrackPointExtension/v1">
            <gpxtpx:hr>112</gpxtpx:hr>
          </gpxtpx:TrackPointExtension>
        </extensions>
      </trkpt>
      <trkpt lat="43.09621" lon="1.275">
        <ele>426</ele>
        <time>2023-03-05T12:17:23Z</time>
        <extensions>
          <gpxtpx:TrackPointExtension xmlns:gpxtpx="http://www.garmin.com/xmlschemas/TrackPointExtension/v1">
            <gpxtpx:hr>114</gpxtpx:hr>
          </gpxtpx:TrackPointExtension>
        </extensions>
      </trkpt>
      <trkpt lat="43.09621" lon="1.27505">
        <ele>425.6</ele>
        <time>2023-03-05T12:17:24Z</time>
        <extensions>
          <gpxtpx:TrackPointExtension xmlns:gpxtpx="http://www.garmin.com/xmlschemas/TrackPointExtension/v1">
            <gpxtpx:hr>114</gpxtpx:hr>
          </gpxtpx:TrackPointExtension>
        </extensions>
      </trkpt>
      <trkpt lat="43.09622" lon="1.27509">
        <ele>425.2</ele>
        <time>2023-03-05T12:17:25Z</time>
        <extensions>
          <gpxtpx:TrackPointExtension xmlns:gpxtpx="http://www.garmin.com/xmlschemas/TrackPointExtension/v1">
            <gpxtpx:hr>114</gpxtpx:hr>
          </gpxtpx:TrackPointExtension>
        </extensions>
      </trkpt>
      <trkpt lat="43.09624" lon="1.27513">
        <ele>424.8</ele>
        <time>2023-03-05T12:17:26Z</time>
        <extensions>
          <gpxtpx:TrackPointExtension xmlns:gpxtpx="http://www.garmin.com/xmlschemas/TrackPointExtension/v1">
            <gpxtpx:hr>114</gpxtpx:hr>
          </gpxtpx:TrackPointExtension>
        </extensions>
      </trkpt>
      <trkpt lat="43.09626" lon="1.27516">
        <ele>424.4</ele>
        <time>2023-03-05T12:17:27Z</time>
        <extensions>
          <gpxtpx:TrackPointExtension xmlns:gpxtpx="http://www.garmin.com/xmlschemas/TrackPointExtension/v1">
            <gpxtpx:hr>115</gpxtpx:hr>
          </gpxtpx:TrackPointExtension>
        </extensions>
      </trkpt>
      <trkpt lat="43.09629" lon="1.27519">
        <ele>424</ele>
        <time>2023-03-05T12:17:28Z</time>
        <extensions>
          <gpxtpx:TrackPointExtension xmlns:gpxtpx="http://www.garmin.com/xmlschemas/TrackPointExtension/v1">
            <gpxtpx:hr>115</gpxtpx:hr>
          </gpxtpx:TrackPointExtension>
        </extensions>
      </trkpt>
      <trkpt lat="43.09639" lon="1.27534">
        <ele>424</ele>
        <time>2023-03-05T12:17:33Z</time>
        <extensions>
          <gpxtpx:TrackPointExtension xmlns:gpxtpx="http://www.garmin.com/xmlschemas/TrackPointExtension/v1">
            <gpxtpx:hr>115</gpxtpx:hr>
          </gpxtpx:TrackPointExtension>
        </extensions>
      </trkpt>
      <trkpt lat="43.09653" lon="1.27548">
        <ele>424</ele>
        <time>2023-03-05T12:17:38Z</time>
        <extensions>
          <gpxtpx:TrackPointExtension xmlns:gpxtpx="http://www.garmin.com/xmlschemas/TrackPointExtension/v1">
            <gpxtpx:hr>115</gpxtpx:hr>
          </gpxtpx:TrackPointExtension>
        </extensions>
      </trkpt>
      <trkpt lat="43.09669" lon="1.27567">
        <ele>424</ele>
        <time>2023-03-05T12:17:44Z</time>
        <extensions>
          <gpxtpx:TrackPointExtension xmlns:gpxtpx="http://www.garmin.com/xmlschemas/TrackPointExtension/v1">
            <gpxtpx:hr>113</gpxtpx:hr>
          </gpxtpx:TrackPointExtension>
        </extensions>
      </trkpt>
      <trkpt lat="43.09677" lon="1.27582">
        <ele>424</ele>
        <time>2023-03-05T12:17:48Z</time>
        <extensions>
          <gpxtpx:TrackPointExtension xmlns:gpxtpx="http://www.garmin.com/xmlschemas/TrackPointExtension/v1">
            <gpxtpx:hr>110</gpxtpx:hr>
          </gpxtpx:TrackPointExtension>
        </extensions>
      </trkpt>
      <trkpt lat="43.09693" lon="1.27623">
        <ele>423.6</ele>
        <time>2023-03-05T12:17:56Z</time>
        <extensions>
          <gpxtpx:TrackPointExtension xmlns:gpxtpx="http://www.garmin.com/xmlschemas/TrackPointExtension/v1">
            <gpxtpx:hr>108</gpxtpx:hr>
          </gpxtpx:TrackPointExtension>
        </extensions>
      </trkpt>
      <trkpt lat="43.09695" lon="1.27628">
        <ele>423.2</ele>
        <time>2023-03-05T12:17:57Z</time>
        <extensions>
          <gpxtpx:TrackPointExtension xmlns:gpxtpx="http://www.garmin.com/xmlschemas/TrackPointExtension/v1">
            <gpxtpx:hr>108</gpxtpx:hr>
          </gpxtpx:TrackPointExtension>
        </extensions>
      </trkpt>
      <trkpt lat="43.09697" lon="1.27633">
        <ele>422.8</ele>
        <time>2023-03-05T12:17:58Z</time>
        <extensions>
          <gpxtpx:TrackPointExtension xmlns:gpxtpx="http://www.garmin.com/xmlschemas/TrackPointExtension/v1">
            <gpxtpx:hr>108</gpxtpx:hr>
          </gpxtpx:TrackPointExtension>
        </extensions>
      </trkpt>
      <trkpt lat="43.09698" lon="1.27638">
        <ele>422.4</ele>
        <time>2023-03-05T12:17:59Z</time>
        <extensions>
          <gpxtpx:TrackPointExtension xmlns:gpxtpx="http://www.garmin.com/xmlschemas/TrackPointExtension/v1">
            <gpxtpx:hr>108</gpxtpx:hr>
          </gpxtpx:TrackPointExtension>
        </extensions>
      </trkpt>
      <trkpt lat="43.09698" lon="1.27642">
        <ele>422</ele>
        <time>2023-03-05T12:18:00Z</time>
        <extensions>
          <gpxtpx:TrackPointExtension xmlns:gpxtpx="http://www.garmin.com/xmlschemas/TrackPointExtension/v1">
            <gpxtpx:hr>108</gpxtpx:hr>
          </gpxtpx:TrackPointExtension>
        </extensions>
      </trkpt>
      <trkpt lat="43.09699" lon="1.27667">
        <ele>422</ele>
        <time>2023-03-05T12:18:05Z</time>
        <extensions>
          <gpxtpx:TrackPointExtension xmlns:gpxtpx="http://www.garmin.com/xmlschemas/TrackPointExtension/v1">
            <gpxtpx:hr>107</gpxtpx:hr>
          </gpxtpx:TrackPointExtension>
        </extensions>
      </trkpt>
      <trkpt lat="43.09699" lon="1.27686">
        <ele>421.6</ele>
        <time>2023-03-05T12:18:08Z</time>
        <extensions>
          <gpxtpx:TrackPointExtension xmlns:gpxtpx="http://www.garmin.com/xmlschemas/TrackPointExtension/v1">
            <gpxtpx:hr>107</gpxtpx:hr>
          </gpxtpx:TrackPointExtension>
        </extensions>
      </trkpt>
      <trkpt lat="43.09699" lon="1.27692">
        <ele>420.8</ele>
        <time>2023-03-05T12:18:09Z</time>
        <extensions>
          <gpxtpx:TrackPointExtension xmlns:gpxtpx="http://www.garmin.com/xmlschemas/TrackPointExtension/v1">
            <gpxtpx:hr>107</gpxtpx:hr>
          </gpxtpx:TrackPointExtension>
        </extensions>
      </trkpt>
      <trkpt lat="43.09699" lon="1.27699">
        <ele>420.4</ele>
        <time>2023-03-05T12:18:10Z</time>
        <extensions>
          <gpxtpx:TrackPointExtension xmlns:gpxtpx="http://www.garmin.com/xmlschemas/TrackPointExtension/v1">
            <gpxtpx:hr>107</gpxtpx:hr>
          </gpxtpx:TrackPointExtension>
        </extensions>
      </trkpt>
      <trkpt lat="43.09699" lon="1.27705">
        <ele>420</ele>
        <time>2023-03-05T12:18:11Z</time>
        <extensions>
          <gpxtpx:TrackPointExtension xmlns:gpxtpx="http://www.garmin.com/xmlschemas/TrackPointExtension/v1">
            <gpxtpx:hr>107</gpxtpx:hr>
          </gpxtpx:TrackPointExtension>
        </extensions>
      </trkpt>
      <trkpt lat="43.09696" lon="1.27732">
        <ele>420</ele>
        <time>2023-03-05T12:18:16Z</time>
        <extensions>
          <gpxtpx:TrackPointExtension xmlns:gpxtpx="http://www.garmin.com/xmlschemas/TrackPointExtension/v1">
            <gpxtpx:hr>107</gpxtpx:hr>
          </gpxtpx:TrackPointExtension>
        </extensions>
      </trkpt>
      <trkpt lat="43.09693" lon="1.27766">
        <ele>420</ele>
        <time>2023-03-05T12:18:23Z</time>
        <extensions>
          <gpxtpx:TrackPointExtension xmlns:gpxtpx="http://www.garmin.com/xmlschemas/TrackPointExtension/v1">
            <gpxtpx:hr>107</gpxtpx:hr>
          </gpxtpx:TrackPointExtension>
        </extensions>
      </trkpt>
      <trkpt lat="43.09697" lon="1.27792">
        <ele>420</ele>
        <time>2023-03-05T12:18:28Z</time>
        <extensions>
          <gpxtpx:TrackPointExtension xmlns:gpxtpx="http://www.garmin.com/xmlschemas/TrackPointExtension/v1">
            <gpxtpx:hr>107</gpxtpx:hr>
          </gpxtpx:TrackPointExtension>
        </extensions>
      </trkpt>
      <trkpt lat="43.09707" lon="1.27837">
        <ele>420</ele>
        <time>2023-03-05T12:18:36Z</time>
        <extensions>
          <gpxtpx:TrackPointExtension xmlns:gpxtpx="http://www.garmin.com/xmlschemas/TrackPointExtension/v1">
            <gpxtpx:hr>106</gpxtpx:hr>
          </gpxtpx:TrackPointExtension>
        </extensions>
      </trkpt>
      <trkpt lat="43.09711" lon="1.27864">
        <ele>420</ele>
        <time>2023-03-05T12:18:41Z</time>
        <extensions>
          <gpxtpx:TrackPointExtension xmlns:gpxtpx="http://www.garmin.com/xmlschemas/TrackPointExtension/v1">
            <gpxtpx:hr>107</gpxtpx:hr>
          </gpxtpx:TrackPointExtension>
        </extensions>
      </trkpt>
      <trkpt lat="43.09713" lon="1.27889">
        <ele>420</ele>
        <time>2023-03-05T12:18:46Z</time>
        <extensions>
          <gpxtpx:TrackPointExtension xmlns:gpxtpx="http://www.garmin.com/xmlschemas/TrackPointExtension/v1">
            <gpxtpx:hr>110</gpxtpx:hr>
          </gpxtpx:TrackPointExtension>
        </extensions>
      </trkpt>
      <trkpt lat="43.09713" lon="1.279">
        <ele>420</ele>
        <time>2023-03-05T12:18:48Z</time>
        <extensions>
          <gpxtpx:TrackPointExtension xmlns:gpxtpx="http://www.garmin.com/xmlschemas/TrackPointExtension/v1">
            <gpxtpx:hr>112</gpxtpx:hr>
          </gpxtpx:TrackPointExtension>
        </extensions>
      </trkpt>
      <trkpt lat="43.09714" lon="1.27929">
        <ele>420</ele>
        <time>2023-03-05T12:18:52Z</time>
        <extensions>
          <gpxtpx:TrackPointExtension xmlns:gpxtpx="http://www.garmin.com/xmlschemas/TrackPointExtension/v1">
            <gpxtpx:hr>111</gpxtpx:hr>
          </gpxtpx:TrackPointExtension>
        </extensions>
      </trkpt>
      <trkpt lat="43.09713" lon="1.27937">
        <ele>420</ele>
        <time>2023-03-05T12:18:53Z</time>
        <extensions>
          <gpxtpx:TrackPointExtension xmlns:gpxtpx="http://www.garmin.com/xmlschemas/TrackPointExtension/v1">
            <gpxtpx:hr>111</gpxtpx:hr>
          </gpxtpx:TrackPointExtension>
        </extensions>
      </trkpt>
      <trkpt lat="43.09709" lon="1.27952">
        <ele>419.4</ele>
        <time>2023-03-05T12:18:55Z</time>
        <extensions>
          <gpxtpx:TrackPointExtension xmlns:gpxtpx="http://www.garmin.com/xmlschemas/TrackPointExtension/v1">
            <gpxtpx:hr>110</gpxtpx:hr>
          </gpxtpx:TrackPointExtension>
        </extensions>
      </trkpt>
      <trkpt lat="43.09706" lon="1.27958">
        <ele>419</ele>
        <time>2023-03-05T12:18:56Z</time>
        <extensions>
          <gpxtpx:TrackPointExtension xmlns:gpxtpx="http://www.garmin.com/xmlschemas/TrackPointExtension/v1">
            <gpxtpx:hr>110</gpxtpx:hr>
          </gpxtpx:TrackPointExtension>
        </extensions>
      </trkpt>
      <trkpt lat="43.09702" lon="1.27961">
        <ele>418.6</ele>
        <time>2023-03-05T12:18:57Z</time>
        <extensions>
          <gpxtpx:TrackPointExtension xmlns:gpxtpx="http://www.garmin.com/xmlschemas/TrackPointExtension/v1">
            <gpxtpx:hr>110</gpxtpx:hr>
          </gpxtpx:TrackPointExtension>
        </extensions>
      </trkpt>
      <trkpt lat="43.09699" lon="1.27965">
        <ele>417.8</ele>
        <time>2023-03-05T12:18:58Z</time>
        <extensions>
          <gpxtpx:TrackPointExtension xmlns:gpxtpx="http://www.garmin.com/xmlschemas/TrackPointExtension/v1">
            <gpxtpx:hr>110</gpxtpx:hr>
          </gpxtpx:TrackPointExtension>
        </extensions>
      </trkpt>
      <trkpt lat="43.09693" lon="1.27972">
        <ele>417.8</ele>
        <time>2023-03-05T12:19:00Z</time>
        <extensions>
          <gpxtpx:TrackPointExtension xmlns:gpxtpx="http://www.garmin.com/xmlschemas/TrackPointExtension/v1">
            <gpxtpx:hr>112</gpxtpx:hr>
          </gpxtpx:TrackPointExtension>
        </extensions>
      </trkpt>
      <trkpt lat="43.0969" lon="1.27982">
        <ele>417.8</ele>
        <time>2023-03-05T12:19:02Z</time>
        <extensions>
          <gpxtpx:TrackPointExtension xmlns:gpxtpx="http://www.garmin.com/xmlschemas/TrackPointExtension/v1">
            <gpxtpx:hr>114</gpxtpx:hr>
          </gpxtpx:TrackPointExtension>
        </extensions>
      </trkpt>
      <trkpt lat="43.09688" lon="1.27991">
        <ele>417.8</ele>
        <time>2023-03-05T12:19:04Z</time>
        <extensions>
          <gpxtpx:TrackPointExtension xmlns:gpxtpx="http://www.garmin.com/xmlschemas/TrackPointExtension/v1">
            <gpxtpx:hr>115</gpxtpx:hr>
          </gpxtpx:TrackPointExtension>
        </extensions>
      </trkpt>
      <trkpt lat="43.09687" lon="1.27995">
        <ele>418.2</ele>
        <time>2023-03-05T12:19:05Z</time>
        <extensions>
          <gpxtpx:TrackPointExtension xmlns:gpxtpx="http://www.garmin.com/xmlschemas/TrackPointExtension/v1">
            <gpxtpx:hr>116</gpxtpx:hr>
          </gpxtpx:TrackPointExtension>
        </extensions>
      </trkpt>
      <trkpt lat="43.09687" lon="1.28">
        <ele>418.6</ele>
        <time>2023-03-05T12:19:06Z</time>
        <extensions>
          <gpxtpx:TrackPointExtension xmlns:gpxtpx="http://www.garmin.com/xmlschemas/TrackPointExtension/v1">
            <gpxtpx:hr>117</gpxtpx:hr>
          </gpxtpx:TrackPointExtension>
        </extensions>
      </trkpt>
      <trkpt lat="43.09687" lon="1.28004">
        <ele>419.2</ele>
        <time>2023-03-05T12:19:07Z</time>
        <extensions>
          <gpxtpx:TrackPointExtension xmlns:gpxtpx="http://www.garmin.com/xmlschemas/TrackPointExtension/v1">
            <gpxtpx:hr>118</gpxtpx:hr>
          </gpxtpx:TrackPointExtension>
        </extensions>
      </trkpt>
      <trkpt lat="43.09687" lon="1.28009">
        <ele>419.6</ele>
        <time>2023-03-05T12:19:08Z</time>
        <extensions>
          <gpxtpx:TrackPointExtension xmlns:gpxtpx="http://www.garmin.com/xmlschemas/TrackPointExtension/v1">
            <gpxtpx:hr>119</gpxtpx:hr>
          </gpxtpx:TrackPointExtension>
        </extensions>
      </trkpt>
      <trkpt lat="43.09687" lon="1.28014">
        <ele>420</ele>
        <time>2023-03-05T12:19:09Z</time>
        <extensions>
          <gpxtpx:TrackPointExtension xmlns:gpxtpx="http://www.garmin.com/xmlschemas/TrackPointExtension/v1">
            <gpxtpx:hr>120</gpxtpx:hr>
          </gpxtpx:TrackPointExtension>
        </extensions>
      </trkpt>
      <trkpt lat="43.09686" lon="1.28024">
        <ele>420.4</ele>
        <time>2023-03-05T12:19:11Z</time>
        <extensions>
          <gpxtpx:TrackPointExtension xmlns:gpxtpx="http://www.garmin.com/xmlschemas/TrackPointExtension/v1">
            <gpxtpx:hr>121</gpxtpx:hr>
          </gpxtpx:TrackPointExtension>
        </extensions>
      </trkpt>
      <trkpt lat="43.09686" lon="1.28029">
        <ele>420.8</ele>
        <time>2023-03-05T12:19:12Z</time>
        <extensions>
          <gpxtpx:TrackPointExtension xmlns:gpxtpx="http://www.garmin.com/xmlschemas/TrackPointExtension/v1">
            <gpxtpx:hr>122</gpxtpx:hr>
          </gpxtpx:TrackPointExtension>
        </extensions>
      </trkpt>
      <trkpt lat="43.09686" lon="1.28034">
        <ele>421.4</ele>
        <time>2023-03-05T12:19:13Z</time>
        <extensions>
          <gpxtpx:TrackPointExtension xmlns:gpxtpx="http://www.garmin.com/xmlschemas/TrackPointExtension/v1">
            <gpxtpx:hr>122</gpxtpx:hr>
          </gpxtpx:TrackPointExtension>
        </extensions>
      </trkpt>
      <trkpt lat="43.09686" lon="1.28038">
        <ele>421.8</ele>
        <time>2023-03-05T12:19:14Z</time>
        <extensions>
          <gpxtpx:TrackPointExtension xmlns:gpxtpx="http://www.garmin.com/xmlschemas/TrackPointExtension/v1">
            <gpxtpx:hr>122</gpxtpx:hr>
          </gpxtpx:TrackPointExtension>
        </extensions>
      </trkpt>
      <trkpt lat="43.09686" lon="1.28042">
        <ele>422.2</ele>
        <time>2023-03-05T12:19:15Z</time>
        <extensions>
          <gpxtpx:TrackPointExtension xmlns:gpxtpx="http://www.garmin.com/xmlschemas/TrackPointExtension/v1">
            <gpxtpx:hr>122</gpxtpx:hr>
          </gpxtpx:TrackPointExtension>
        </extensions>
      </trkpt>
      <trkpt lat="43.09684" lon="1.2806">
        <ele>422.6</ele>
        <time>2023-03-05T12:19:19Z</time>
        <extensions>
          <gpxtpx:TrackPointExtension xmlns:gpxtpx="http://www.garmin.com/xmlschemas/TrackPointExtension/v1">
            <gpxtpx:hr>121</gpxtpx:hr>
          </gpxtpx:TrackPointExtension>
        </extensions>
      </trkpt>
      <trkpt lat="43.09684" lon="1.28064">
        <ele>423</ele>
        <time>2023-03-05T12:19:20Z</time>
        <extensions>
          <gpxtpx:TrackPointExtension xmlns:gpxtpx="http://www.garmin.com/xmlschemas/TrackPointExtension/v1">
            <gpxtpx:hr>121</gpxtpx:hr>
          </gpxtpx:TrackPointExtension>
        </extensions>
      </trkpt>
      <trkpt lat="43.09683" lon="1.28068">
        <ele>423.4</ele>
        <time>2023-03-05T12:19:21Z</time>
        <extensions>
          <gpxtpx:TrackPointExtension xmlns:gpxtpx="http://www.garmin.com/xmlschemas/TrackPointExtension/v1">
            <gpxtpx:hr>121</gpxtpx:hr>
          </gpxtpx:TrackPointExtension>
        </extensions>
      </trkpt>
      <trkpt lat="43.09682" lon="1.28072">
        <ele>423.8</ele>
        <time>2023-03-05T12:19:22Z</time>
        <extensions>
          <gpxtpx:TrackPointExtension xmlns:gpxtpx="http://www.garmin.com/xmlschemas/TrackPointExtension/v1">
            <gpxtpx:hr>121</gpxtpx:hr>
          </gpxtpx:TrackPointExtension>
        </extensions>
      </trkpt>
      <trkpt lat="43.09681" lon="1.28077">
        <ele>424.4</ele>
        <time>2023-03-05T12:19:23Z</time>
        <extensions>
          <gpxtpx:TrackPointExtension xmlns:gpxtpx="http://www.garmin.com/xmlschemas/TrackPointExtension/v1">
            <gpxtpx:hr>121</gpxtpx:hr>
          </gpxtpx:TrackPointExtension>
        </extensions>
      </trkpt>
      <trkpt lat="43.09679" lon="1.28088">
        <ele>424.4</ele>
        <time>2023-03-05T12:19:26Z</time>
        <extensions>
          <gpxtpx:TrackPointExtension xmlns:gpxtpx="http://www.garmin.com/xmlschemas/TrackPointExtension/v1">
            <gpxtpx:hr>122</gpxtpx:hr>
          </gpxtpx:TrackPointExtension>
        </extensions>
      </trkpt>
      <trkpt lat="43.09673" lon="1.28119">
        <ele>424.4</ele>
        <time>2023-03-05T12:19:32Z</time>
        <extensions>
          <gpxtpx:TrackPointExtension xmlns:gpxtpx="http://www.garmin.com/xmlschemas/TrackPointExtension/v1">
            <gpxtpx:hr>122</gpxtpx:hr>
          </gpxtpx:TrackPointExtension>
        </extensions>
      </trkpt>
      <trkpt lat="43.09672" lon="1.2813">
        <ele>424.4</ele>
        <time>2023-03-05T12:19:34Z</time>
        <extensions>
          <gpxtpx:TrackPointExtension xmlns:gpxtpx="http://www.garmin.com/xmlschemas/TrackPointExtension/v1">
            <gpxtpx:hr>122</gpxtpx:hr>
          </gpxtpx:TrackPointExtension>
        </extensions>
      </trkpt>
      <trkpt lat="43.09672" lon="1.2815">
        <ele>424.4</ele>
        <time>2023-03-05T12:19:38Z</time>
        <extensions>
          <gpxtpx:TrackPointExtension xmlns:gpxtpx="http://www.garmin.com/xmlschemas/TrackPointExtension/v1">
            <gpxtpx:hr>121</gpxtpx:hr>
          </gpxtpx:TrackPointExtension>
        </extensions>
      </trkpt>
      <trkpt lat="43.09679" lon="1.28182">
        <ele>424.4</ele>
        <time>2023-03-05T12:19:44Z</time>
        <extensions>
          <gpxtpx:TrackPointExtension xmlns:gpxtpx="http://www.garmin.com/xmlschemas/TrackPointExtension/v1">
            <gpxtpx:hr>121</gpxtpx:hr>
          </gpxtpx:TrackPointExtension>
        </extensions>
      </trkpt>
      <trkpt lat="43.0968" lon="1.28188">
        <ele>424.4</ele>
        <time>2023-03-05T12:19:45Z</time>
        <extensions>
          <gpxtpx:TrackPointExtension xmlns:gpxtpx="http://www.garmin.com/xmlschemas/TrackPointExtension/v1">
            <gpxtpx:hr>121</gpxtpx:hr>
          </gpxtpx:TrackPointExtension>
        </extensions>
      </trkpt>
      <trkpt lat="43.09686" lon="1.28214">
        <ele>424.4</ele>
        <time>2023-03-05T12:19:49Z</time>
        <extensions>
          <gpxtpx:TrackPointExtension xmlns:gpxtpx="http://www.garmin.com/xmlschemas/TrackPointExtension/v1">
            <gpxtpx:hr>121</gpxtpx:hr>
          </gpxtpx:TrackPointExtension>
        </extensions>
      </trkpt>
      <trkpt lat="43.09693" lon="1.28235">
        <ele>424.4</ele>
        <time>2023-03-05T12:19:52Z</time>
        <extensions>
          <gpxtpx:TrackPointExtension xmlns:gpxtpx="http://www.garmin.com/xmlschemas/TrackPointExtension/v1">
            <gpxtpx:hr>121</gpxtpx:hr>
          </gpxtpx:TrackPointExtension>
        </extensions>
      </trkpt>
      <trkpt lat="43.09695" lon="1.28248">
        <ele>424.4</ele>
        <time>2023-03-05T12:19:54Z</time>
        <extensions>
          <gpxtpx:TrackPointExtension xmlns:gpxtpx="http://www.garmin.com/xmlschemas/TrackPointExtension/v1">
            <gpxtpx:hr>122</gpxtpx:hr>
          </gpxtpx:TrackPointExtension>
        </extensions>
      </trkpt>
      <trkpt lat="43.09695" lon="1.28261">
        <ele>424.4</ele>
        <time>2023-03-05T12:19:56Z</time>
        <extensions>
          <gpxtpx:TrackPointExtension xmlns:gpxtpx="http://www.garmin.com/xmlschemas/TrackPointExtension/v1">
            <gpxtpx:hr>122</gpxtpx:hr>
          </gpxtpx:TrackPointExtension>
        </extensions>
      </trkpt>
      <trkpt lat="43.09694" lon="1.28278">
        <ele>424.4</ele>
        <time>2023-03-05T12:19:59Z</time>
        <extensions>
          <gpxtpx:TrackPointExtension xmlns:gpxtpx="http://www.garmin.com/xmlschemas/TrackPointExtension/v1">
            <gpxtpx:hr>122</gpxtpx:hr>
          </gpxtpx:TrackPointExtension>
        </extensions>
      </trkpt>
      <trkpt lat="43.09692" lon="1.28302">
        <ele>424.4</ele>
        <time>2023-03-05T12:20:04Z</time>
        <extensions>
          <gpxtpx:TrackPointExtension xmlns:gpxtpx="http://www.garmin.com/xmlschemas/TrackPointExtension/v1">
            <gpxtpx:hr>122</gpxtpx:hr>
          </gpxtpx:TrackPointExtension>
        </extensions>
      </trkpt>
      <trkpt lat="43.09692" lon="1.28306">
        <ele>424.8</ele>
        <time>2023-03-05T12:20:05Z</time>
        <extensions>
          <gpxtpx:TrackPointExtension xmlns:gpxtpx="http://www.garmin.com/xmlschemas/TrackPointExtension/v1">
            <gpxtpx:hr>122</gpxtpx:hr>
          </gpxtpx:TrackPointExtension>
        </extensions>
      </trkpt>
      <trkpt lat="43.09691" lon="1.28309">
        <ele>425.2</ele>
        <time>2023-03-05T12:20:06Z</time>
        <extensions>
          <gpxtpx:TrackPointExtension xmlns:gpxtpx="http://www.garmin.com/xmlschemas/TrackPointExtension/v1">
            <gpxtpx:hr>122</gpxtpx:hr>
          </gpxtpx:TrackPointExtension>
        </extensions>
      </trkpt>
      <trkpt lat="43.0969" lon="1.28313">
        <ele>425.6</ele>
        <time>2023-03-05T12:20:07Z</time>
        <extensions>
          <gpxtpx:TrackPointExtension xmlns:gpxtpx="http://www.garmin.com/xmlschemas/TrackPointExtension/v1">
            <gpxtpx:hr>122</gpxtpx:hr>
          </gpxtpx:TrackPointExtension>
        </extensions>
      </trkpt>
      <trkpt lat="43.09689" lon="1.28317">
        <ele>426</ele>
        <time>2023-03-05T12:20:08Z</time>
        <extensions>
          <gpxtpx:TrackPointExtension xmlns:gpxtpx="http://www.garmin.com/xmlschemas/TrackPointExtension/v1">
            <gpxtpx:hr>122</gpxtpx:hr>
          </gpxtpx:TrackPointExtension>
        </extensions>
      </trkpt>
      <trkpt lat="43.09688" lon="1.2832">
        <ele>426.4</ele>
        <time>2023-03-05T12:20:09Z</time>
        <extensions>
          <gpxtpx:TrackPointExtension xmlns:gpxtpx="http://www.garmin.com/xmlschemas/TrackPointExtension/v1">
            <gpxtpx:hr>123</gpxtpx:hr>
          </gpxtpx:TrackPointExtension>
        </extensions>
      </trkpt>
      <trkpt lat="43.09685" lon="1.28327">
        <ele>426.8</ele>
        <time>2023-03-05T12:20:11Z</time>
        <extensions>
          <gpxtpx:TrackPointExtension xmlns:gpxtpx="http://www.garmin.com/xmlschemas/TrackPointExtension/v1">
            <gpxtpx:hr>123</gpxtpx:hr>
          </gpxtpx:TrackPointExtension>
        </extensions>
      </trkpt>
      <trkpt lat="43.09685" lon="1.28331">
        <ele>427.8</ele>
        <time>2023-03-05T12:20:12Z</time>
        <extensions>
          <gpxtpx:TrackPointExtension xmlns:gpxtpx="http://www.garmin.com/xmlschemas/TrackPointExtension/v1">
            <gpxtpx:hr>123</gpxtpx:hr>
          </gpxtpx:TrackPointExtension>
        </extensions>
      </trkpt>
      <trkpt lat="43.09684" lon="1.28335">
        <ele>428.2</ele>
        <time>2023-03-05T12:20:13Z</time>
        <extensions>
          <gpxtpx:TrackPointExtension xmlns:gpxtpx="http://www.garmin.com/xmlschemas/TrackPointExtension/v1">
            <gpxtpx:hr>123</gpxtpx:hr>
          </gpxtpx:TrackPointExtension>
        </extensions>
      </trkpt>
      <trkpt lat="43.09683" lon="1.28338">
        <ele>428.8</ele>
        <time>2023-03-05T12:20:14Z</time>
        <extensions>
          <gpxtpx:TrackPointExtension xmlns:gpxtpx="http://www.garmin.com/xmlschemas/TrackPointExtension/v1">
            <gpxtpx:hr>123</gpxtpx:hr>
          </gpxtpx:TrackPointExtension>
        </extensions>
      </trkpt>
      <trkpt lat="43.09682" lon="1.28345">
        <ele>429.2</ele>
        <time>2023-03-05T12:20:16Z</time>
        <extensions>
          <gpxtpx:TrackPointExtension xmlns:gpxtpx="http://www.garmin.com/xmlschemas/TrackPointExtension/v1">
            <gpxtpx:hr>124</gpxtpx:hr>
          </gpxtpx:TrackPointExtension>
        </extensions>
      </trkpt>
      <trkpt lat="43.09682" lon="1.28348">
        <ele>429.6</ele>
        <time>2023-03-05T12:20:17Z</time>
        <extensions>
          <gpxtpx:TrackPointExtension xmlns:gpxtpx="http://www.garmin.com/xmlschemas/TrackPointExtension/v1">
            <gpxtpx:hr>124</gpxtpx:hr>
          </gpxtpx:TrackPointExtension>
        </extensions>
      </trkpt>
      <trkpt lat="43.09682" lon="1.28351">
        <ele>430</ele>
        <time>2023-03-05T12:20:18Z</time>
        <extensions>
          <gpxtpx:TrackPointExtension xmlns:gpxtpx="http://www.garmin.com/xmlschemas/TrackPointExtension/v1">
            <gpxtpx:hr>125</gpxtpx:hr>
          </gpxtpx:TrackPointExtension>
        </extensions>
      </trkpt>
      <trkpt lat="43.09682" lon="1.28354">
        <ele>430.4</ele>
        <time>2023-03-05T12:20:19Z</time>
        <extensions>
          <gpxtpx:TrackPointExtension xmlns:gpxtpx="http://www.garmin.com/xmlschemas/TrackPointExtension/v1">
            <gpxtpx:hr>125</gpxtpx:hr>
          </gpxtpx:TrackPointExtension>
        </extensions>
      </trkpt>
      <trkpt lat="43.09683" lon="1.28357">
        <ele>430.8</ele>
        <time>2023-03-05T12:20:20Z</time>
        <extensions>
          <gpxtpx:TrackPointExtension xmlns:gpxtpx="http://www.garmin.com/xmlschemas/TrackPointExtension/v1">
            <gpxtpx:hr>125</gpxtpx:hr>
          </gpxtpx:TrackPointExtension>
        </extensions>
      </trkpt>
      <trkpt lat="43.09685" lon="1.28359">
        <ele>430.8</ele>
        <time>2023-03-05T12:20:21Z</time>
        <extensions>
          <gpxtpx:TrackPointExtension xmlns:gpxtpx="http://www.garmin.com/xmlschemas/TrackPointExtension/v1">
            <gpxtpx:hr>125</gpxtpx:hr>
          </gpxtpx:TrackPointExtension>
        </extensions>
      </trkpt>
      <trkpt lat="43.09689" lon="1.28361">
        <ele>430.8</ele>
        <time>2023-03-05T12:20:23Z</time>
        <extensions>
          <gpxtpx:TrackPointExtension xmlns:gpxtpx="http://www.garmin.com/xmlschemas/TrackPointExtension/v1">
            <gpxtpx:hr>125</gpxtpx:hr>
          </gpxtpx:TrackPointExtension>
        </extensions>
      </trkpt>
      <trkpt lat="43.09693" lon="1.28363">
        <ele>431.4</ele>
        <time>2023-03-05T12:20:25Z</time>
        <extensions>
          <gpxtpx:TrackPointExtension xmlns:gpxtpx="http://www.garmin.com/xmlschemas/TrackPointExtension/v1">
            <gpxtpx:hr>126</gpxtpx:hr>
          </gpxtpx:TrackPointExtension>
        </extensions>
      </trkpt>
      <trkpt lat="43.09695" lon="1.28363">
        <ele>431.8</ele>
        <time>2023-03-05T12:20:26Z</time>
        <extensions>
          <gpxtpx:TrackPointExtension xmlns:gpxtpx="http://www.garmin.com/xmlschemas/TrackPointExtension/v1">
            <gpxtpx:hr>126</gpxtpx:hr>
          </gpxtpx:TrackPointExtension>
        </extensions>
      </trkpt>
      <trkpt lat="43.09697" lon="1.28364">
        <ele>432.2</ele>
        <time>2023-03-05T12:20:27Z</time>
        <extensions>
          <gpxtpx:TrackPointExtension xmlns:gpxtpx="http://www.garmin.com/xmlschemas/TrackPointExtension/v1">
            <gpxtpx:hr>126</gpxtpx:hr>
          </gpxtpx:TrackPointExtension>
        </extensions>
      </trkpt>
      <trkpt lat="43.097" lon="1.28364">
        <ele>432.8</ele>
        <time>2023-03-05T12:20:28Z</time>
        <extensions>
          <gpxtpx:TrackPointExtension xmlns:gpxtpx="http://www.garmin.com/xmlschemas/TrackPointExtension/v1">
            <gpxtpx:hr>126</gpxtpx:hr>
          </gpxtpx:TrackPointExtension>
        </extensions>
      </trkpt>
      <trkpt lat="43.09702" lon="1.28365">
        <ele>433.2</ele>
        <time>2023-03-05T12:20:29Z</time>
        <extensions>
          <gpxtpx:TrackPointExtension xmlns:gpxtpx="http://www.garmin.com/xmlschemas/TrackPointExtension/v1">
            <gpxtpx:hr>126</gpxtpx:hr>
          </gpxtpx:TrackPointExtension>
        </extensions>
      </trkpt>
      <trkpt lat="43.09709" lon="1.28366">
        <ele>433.6</ele>
        <time>2023-03-05T12:20:32Z</time>
        <extensions>
          <gpxtpx:TrackPointExtension xmlns:gpxtpx="http://www.garmin.com/xmlschemas/TrackPointExtension/v1">
            <gpxtpx:hr>126</gpxtpx:hr>
          </gpxtpx:TrackPointExtension>
        </extensions>
      </trkpt>
      <trkpt lat="43.09712" lon="1.28367">
        <ele>434</ele>
        <time>2023-03-05T12:20:33Z</time>
        <extensions>
          <gpxtpx:TrackPointExtension xmlns:gpxtpx="http://www.garmin.com/xmlschemas/TrackPointExtension/v1">
            <gpxtpx:hr>126</gpxtpx:hr>
          </gpxtpx:TrackPointExtension>
        </extensions>
      </trkpt>
      <trkpt lat="43.09714" lon="1.28367">
        <ele>434.4</ele>
        <time>2023-03-05T12:20:34Z</time>
        <extensions>
          <gpxtpx:TrackPointExtension xmlns:gpxtpx="http://www.garmin.com/xmlschemas/TrackPointExtension/v1">
            <gpxtpx:hr>126</gpxtpx:hr>
          </gpxtpx:TrackPointExtension>
        </extensions>
      </trkpt>
      <trkpt lat="43.09717" lon="1.28368">
        <ele>434.8</ele>
        <time>2023-03-05T12:20:35Z</time>
        <extensions>
          <gpxtpx:TrackPointExtension xmlns:gpxtpx="http://www.garmin.com/xmlschemas/TrackPointExtension/v1">
            <gpxtpx:hr>127</gpxtpx:hr>
          </gpxtpx:TrackPointExtension>
        </extensions>
      </trkpt>
      <trkpt lat="43.0972" lon="1.28369">
        <ele>435.2</ele>
        <time>2023-03-05T12:20:36Z</time>
        <extensions>
          <gpxtpx:TrackPointExtension xmlns:gpxtpx="http://www.garmin.com/xmlschemas/TrackPointExtension/v1">
            <gpxtpx:hr>128</gpxtpx:hr>
          </gpxtpx:TrackPointExtension>
        </extensions>
      </trkpt>
      <trkpt lat="43.09729" lon="1.28372">
        <ele>435.2</ele>
        <time>2023-03-05T12:20:40Z</time>
        <extensions>
          <gpxtpx:TrackPointExtension xmlns:gpxtpx="http://www.garmin.com/xmlschemas/TrackPointExtension/v1">
            <gpxtpx:hr>131</gpxtpx:hr>
          </gpxtpx:TrackPointExtension>
        </extensions>
      </trkpt>
      <trkpt lat="43.09738" lon="1.28371">
        <ele>435.2</ele>
        <time>2023-03-05T12:20:45Z</time>
        <extensions>
          <gpxtpx:TrackPointExtension xmlns:gpxtpx="http://www.garmin.com/xmlschemas/TrackPointExtension/v1">
            <gpxtpx:hr>131</gpxtpx:hr>
          </gpxtpx:TrackPointExtension>
        </extensions>
      </trkpt>
      <trkpt lat="43.09742" lon="1.28371">
        <ele>435.6</ele>
        <time>2023-03-05T12:20:47Z</time>
        <extensions>
          <gpxtpx:TrackPointExtension xmlns:gpxtpx="http://www.garmin.com/xmlschemas/TrackPointExtension/v1">
            <gpxtpx:hr>131</gpxtpx:hr>
          </gpxtpx:TrackPointExtension>
        </extensions>
      </trkpt>
      <trkpt lat="43.09744" lon="1.2837">
        <ele>436.2</ele>
        <time>2023-03-05T12:20:48Z</time>
        <extensions>
          <gpxtpx:TrackPointExtension xmlns:gpxtpx="http://www.garmin.com/xmlschemas/TrackPointExtension/v1">
            <gpxtpx:hr>131</gpxtpx:hr>
          </gpxtpx:TrackPointExtension>
        </extensions>
      </trkpt>
      <trkpt lat="43.09747" lon="1.28369">
        <ele>436.6</ele>
        <time>2023-03-05T12:20:49Z</time>
        <extensions>
          <gpxtpx:TrackPointExtension xmlns:gpxtpx="http://www.garmin.com/xmlschemas/TrackPointExtension/v1">
            <gpxtpx:hr>131</gpxtpx:hr>
          </gpxtpx:TrackPointExtension>
        </extensions>
      </trkpt>
      <trkpt lat="43.09749" lon="1.28367">
        <ele>437</ele>
        <time>2023-03-05T12:20:50Z</time>
        <extensions>
          <gpxtpx:TrackPointExtension xmlns:gpxtpx="http://www.garmin.com/xmlschemas/TrackPointExtension/v1">
            <gpxtpx:hr>130</gpxtpx:hr>
          </gpxtpx:TrackPointExtension>
        </extensions>
      </trkpt>
      <trkpt lat="43.0975" lon="1.28366">
        <ele>437.4</ele>
        <time>2023-03-05T12:20:51Z</time>
        <extensions>
          <gpxtpx:TrackPointExtension xmlns:gpxtpx="http://www.garmin.com/xmlschemas/TrackPointExtension/v1">
            <gpxtpx:hr>130</gpxtpx:hr>
          </gpxtpx:TrackPointExtension>
        </extensions>
      </trkpt>
      <trkpt lat="43.0976" lon="1.28364">
        <ele>437.4</ele>
        <time>2023-03-05T12:20:56Z</time>
        <extensions>
          <gpxtpx:TrackPointExtension xmlns:gpxtpx="http://www.garmin.com/xmlschemas/TrackPointExtension/v1">
            <gpxtpx:hr>128</gpxtpx:hr>
          </gpxtpx:TrackPointExtension>
        </extensions>
      </trkpt>
      <trkpt lat="43.09768" lon="1.28364">
        <ele>437.4</ele>
        <time>2023-03-05T12:20:59Z</time>
        <extensions>
          <gpxtpx:TrackPointExtension xmlns:gpxtpx="http://www.garmin.com/xmlschemas/TrackPointExtension/v1">
            <gpxtpx:hr>125</gpxtpx:hr>
          </gpxtpx:TrackPointExtension>
        </extensions>
      </trkpt>
      <trkpt lat="43.09775" lon="1.28366">
        <ele>437.4</ele>
        <time>2023-03-05T12:21:01Z</time>
        <extensions>
          <gpxtpx:TrackPointExtension xmlns:gpxtpx="http://www.garmin.com/xmlschemas/TrackPointExtension/v1">
            <gpxtpx:hr>124</gpxtpx:hr>
          </gpxtpx:TrackPointExtension>
        </extensions>
      </trkpt>
      <trkpt lat="43.09787" lon="1.28375">
        <ele>437.4</ele>
        <time>2023-03-05T12:21:05Z</time>
        <extensions>
          <gpxtpx:TrackPointExtension xmlns:gpxtpx="http://www.garmin.com/xmlschemas/TrackPointExtension/v1">
            <gpxtpx:hr>126</gpxtpx:hr>
          </gpxtpx:TrackPointExtension>
        </extensions>
      </trkpt>
      <trkpt lat="43.09793" lon="1.28383">
        <ele>437</ele>
        <time>2023-03-05T12:21:07Z</time>
        <extensions>
          <gpxtpx:TrackPointExtension xmlns:gpxtpx="http://www.garmin.com/xmlschemas/TrackPointExtension/v1">
            <gpxtpx:hr>126</gpxtpx:hr>
          </gpxtpx:TrackPointExtension>
        </extensions>
      </trkpt>
      <trkpt lat="43.09797" lon="1.28388">
        <ele>436.6</ele>
        <time>2023-03-05T12:21:08Z</time>
        <extensions>
          <gpxtpx:TrackPointExtension xmlns:gpxtpx="http://www.garmin.com/xmlschemas/TrackPointExtension/v1">
            <gpxtpx:hr>126</gpxtpx:hr>
          </gpxtpx:TrackPointExtension>
        </extensions>
      </trkpt>
      <trkpt lat="43.09799" lon="1.28393">
        <ele>436.2</ele>
        <time>2023-03-05T12:21:09Z</time>
        <extensions>
          <gpxtpx:TrackPointExtension xmlns:gpxtpx="http://www.garmin.com/xmlschemas/TrackPointExtension/v1">
            <gpxtpx:hr>126</gpxtpx:hr>
          </gpxtpx:TrackPointExtension>
        </extensions>
      </trkpt>
      <trkpt lat="43.09802" lon="1.28398">
        <ele>435.8</ele>
        <time>2023-03-05T12:21:10Z</time>
        <extensions>
          <gpxtpx:TrackPointExtension xmlns:gpxtpx="http://www.garmin.com/xmlschemas/TrackPointExtension/v1">
            <gpxtpx:hr>126</gpxtpx:hr>
          </gpxtpx:TrackPointExtension>
        </extensions>
      </trkpt>
      <trkpt lat="43.09805" lon="1.28405">
        <ele>435.4</ele>
        <time>2023-03-05T12:21:11Z</time>
        <extensions>
          <gpxtpx:TrackPointExtension xmlns:gpxtpx="http://www.garmin.com/xmlschemas/TrackPointExtension/v1">
            <gpxtpx:hr>125</gpxtpx:hr>
          </gpxtpx:TrackPointExtension>
        </extensions>
      </trkpt>
      <trkpt lat="43.09807" lon="1.28412">
        <ele>434.8</ele>
        <time>2023-03-05T12:21:12Z</time>
        <extensions>
          <gpxtpx:TrackPointExtension xmlns:gpxtpx="http://www.garmin.com/xmlschemas/TrackPointExtension/v1">
            <gpxtpx:hr>124</gpxtpx:hr>
          </gpxtpx:TrackPointExtension>
        </extensions>
      </trkpt>
      <trkpt lat="43.09809" lon="1.28418">
        <ele>434.4</ele>
        <time>2023-03-05T12:21:13Z</time>
        <extensions>
          <gpxtpx:TrackPointExtension xmlns:gpxtpx="http://www.garmin.com/xmlschemas/TrackPointExtension/v1">
            <gpxtpx:hr>123</gpxtpx:hr>
          </gpxtpx:TrackPointExtension>
        </extensions>
      </trkpt>
      <trkpt lat="43.0981" lon="1.28424">
        <ele>433.8</ele>
        <time>2023-03-05T12:21:14Z</time>
        <extensions>
          <gpxtpx:TrackPointExtension xmlns:gpxtpx="http://www.garmin.com/xmlschemas/TrackPointExtension/v1">
            <gpxtpx:hr>122</gpxtpx:hr>
          </gpxtpx:TrackPointExtension>
        </extensions>
      </trkpt>
      <trkpt lat="43.09811" lon="1.2843">
        <ele>433.4</ele>
        <time>2023-03-05T12:21:15Z</time>
        <extensions>
          <gpxtpx:TrackPointExtension xmlns:gpxtpx="http://www.garmin.com/xmlschemas/TrackPointExtension/v1">
            <gpxtpx:hr>122</gpxtpx:hr>
          </gpxtpx:TrackPointExtension>
        </extensions>
      </trkpt>
      <trkpt lat="43.09812" lon="1.28435">
        <ele>432.8</ele>
        <time>2023-03-05T12:21:16Z</time>
        <extensions>
          <gpxtpx:TrackPointExtension xmlns:gpxtpx="http://www.garmin.com/xmlschemas/TrackPointExtension/v1">
            <gpxtpx:hr>121</gpxtpx:hr>
          </gpxtpx:TrackPointExtension>
        </extensions>
      </trkpt>
      <trkpt lat="43.09813" lon="1.28441">
        <ele>432.4</ele>
        <time>2023-03-05T12:21:17Z</time>
        <extensions>
          <gpxtpx:TrackPointExtension xmlns:gpxtpx="http://www.garmin.com/xmlschemas/TrackPointExtension/v1">
            <gpxtpx:hr>121</gpxtpx:hr>
          </gpxtpx:TrackPointExtension>
        </extensions>
      </trkpt>
      <trkpt lat="43.09813" lon="1.28446">
        <ele>431.8</ele>
        <time>2023-03-05T12:21:18Z</time>
        <extensions>
          <gpxtpx:TrackPointExtension xmlns:gpxtpx="http://www.garmin.com/xmlschemas/TrackPointExtension/v1">
            <gpxtpx:hr>121</gpxtpx:hr>
          </gpxtpx:TrackPointExtension>
        </extensions>
      </trkpt>
      <trkpt lat="43.09814" lon="1.28452">
        <ele>431.2</ele>
        <time>2023-03-05T12:21:19Z</time>
        <extensions>
          <gpxtpx:TrackPointExtension xmlns:gpxtpx="http://www.garmin.com/xmlschemas/TrackPointExtension/v1">
            <gpxtpx:hr>121</gpxtpx:hr>
          </gpxtpx:TrackPointExtension>
        </extensions>
      </trkpt>
      <trkpt lat="43.09815" lon="1.28458">
        <ele>431.2</ele>
        <time>2023-03-05T12:21:20Z</time>
        <extensions>
          <gpxtpx:TrackPointExtension xmlns:gpxtpx="http://www.garmin.com/xmlschemas/TrackPointExtension/v1">
            <gpxtpx:hr>121</gpxtpx:hr>
          </gpxtpx:TrackPointExtension>
        </extensions>
      </trkpt>
      <trkpt lat="43.09816" lon="1.28465">
        <ele>430.8</ele>
        <time>2023-03-05T12:21:21Z</time>
        <extensions>
          <gpxtpx:TrackPointExtension xmlns:gpxtpx="http://www.garmin.com/xmlschemas/TrackPointExtension/v1">
            <gpxtpx:hr>120</gpxtpx:hr>
          </gpxtpx:TrackPointExtension>
        </extensions>
      </trkpt>
      <trkpt lat="43.09816" lon="1.28471">
        <ele>430.4</ele>
        <time>2023-03-05T12:21:22Z</time>
        <extensions>
          <gpxtpx:TrackPointExtension xmlns:gpxtpx="http://www.garmin.com/xmlschemas/TrackPointExtension/v1">
            <gpxtpx:hr>119</gpxtpx:hr>
          </gpxtpx:TrackPointExtension>
        </extensions>
      </trkpt>
      <trkpt lat="43.09817" lon="1.28479">
        <ele>430</ele>
        <time>2023-03-05T12:21:23Z</time>
        <extensions>
          <gpxtpx:TrackPointExtension xmlns:gpxtpx="http://www.garmin.com/xmlschemas/TrackPointExtension/v1">
            <gpxtpx:hr>119</gpxtpx:hr>
          </gpxtpx:TrackPointExtension>
        </extensions>
      </trkpt>
      <trkpt lat="43.09818" lon="1.28486">
        <ele>429.6</ele>
        <time>2023-03-05T12:21:24Z</time>
        <extensions>
          <gpxtpx:TrackPointExtension xmlns:gpxtpx="http://www.garmin.com/xmlschemas/TrackPointExtension/v1">
            <gpxtpx:hr>118</gpxtpx:hr>
          </gpxtpx:TrackPointExtension>
        </extensions>
      </trkpt>
      <trkpt lat="43.09819" lon="1.28495">
        <ele>428.4</ele>
        <time>2023-03-05T12:21:25Z</time>
        <extensions>
          <gpxtpx:TrackPointExtension xmlns:gpxtpx="http://www.garmin.com/xmlschemas/TrackPointExtension/v1">
            <gpxtpx:hr>117</gpxtpx:hr>
          </gpxtpx:TrackPointExtension>
        </extensions>
      </trkpt>
      <trkpt lat="43.09821" lon="1.28504">
        <ele>427.8</ele>
        <time>2023-03-05T12:21:26Z</time>
        <extensions>
          <gpxtpx:TrackPointExtension xmlns:gpxtpx="http://www.garmin.com/xmlschemas/TrackPointExtension/v1">
            <gpxtpx:hr>117</gpxtpx:hr>
          </gpxtpx:TrackPointExtension>
        </extensions>
      </trkpt>
      <trkpt lat="43.09824" lon="1.28513">
        <ele>427.2</ele>
        <time>2023-03-05T12:21:27Z</time>
        <extensions>
          <gpxtpx:TrackPointExtension xmlns:gpxtpx="http://www.garmin.com/xmlschemas/TrackPointExtension/v1">
            <gpxtpx:hr>116</gpxtpx:hr>
          </gpxtpx:TrackPointExtension>
        </extensions>
      </trkpt>
      <trkpt lat="43.09826" lon="1.28521">
        <ele>426.4</ele>
        <time>2023-03-05T12:21:28Z</time>
        <extensions>
          <gpxtpx:TrackPointExtension xmlns:gpxtpx="http://www.garmin.com/xmlschemas/TrackPointExtension/v1">
            <gpxtpx:hr>116</gpxtpx:hr>
          </gpxtpx:TrackPointExtension>
        </extensions>
      </trkpt>
      <trkpt lat="43.09827" lon="1.28527">
        <ele>425.8</ele>
        <time>2023-03-05T12:21:29Z</time>
        <extensions>
          <gpxtpx:TrackPointExtension xmlns:gpxtpx="http://www.garmin.com/xmlschemas/TrackPointExtension/v1">
            <gpxtpx:hr>116</gpxtpx:hr>
          </gpxtpx:TrackPointExtension>
        </extensions>
      </trkpt>
      <trkpt lat="43.09828" lon="1.28532">
        <ele>425</ele>
        <time>2023-03-05T12:21:30Z</time>
        <extensions>
          <gpxtpx:TrackPointExtension xmlns:gpxtpx="http://www.garmin.com/xmlschemas/TrackPointExtension/v1">
            <gpxtpx:hr>115</gpxtpx:hr>
          </gpxtpx:TrackPointExtension>
        </extensions>
      </trkpt>
      <trkpt lat="43.0983" lon="1.28536">
        <ele>424.4</ele>
        <time>2023-03-05T12:21:31Z</time>
        <extensions>
          <gpxtpx:TrackPointExtension xmlns:gpxtpx="http://www.garmin.com/xmlschemas/TrackPointExtension/v1">
            <gpxtpx:hr>115</gpxtpx:hr>
          </gpxtpx:TrackPointExtension>
        </extensions>
      </trkpt>
      <trkpt lat="43.09831" lon="1.28537">
        <ele>424.4</ele>
        <time>2023-03-05T12:21:32Z</time>
        <extensions>
          <gpxtpx:TrackPointExtension xmlns:gpxtpx="http://www.garmin.com/xmlschemas/TrackPointExtension/v1">
            <gpxtpx:hr>115</gpxtpx:hr>
          </gpxtpx:TrackPointExtension>
        </extensions>
      </trkpt>
      <trkpt lat="43.0983" lon="1.28544">
        <ele>422.4</ele>
        <time>2023-03-05T12:25:22Z</time>
        <extensions>
          <gpxtpx:TrackPointExtension xmlns:gpxtpx="http://www.garmin.com/xmlschemas/TrackPointExtension/v1">
            <gpxtpx:hr>107</gpxtpx:hr>
          </gpxtpx:TrackPointExtension>
        </extensions>
      </trkpt>
      <trkpt lat="43.09824" lon="1.28546">
        <ele>422.4</ele>
        <time>2023-03-05T12:25:28Z</time>
        <extensions>
          <gpxtpx:TrackPointExtension xmlns:gpxtpx="http://www.garmin.com/xmlschemas/TrackPointExtension/v1">
            <gpxtpx:hr>105</gpxtpx:hr>
          </gpxtpx:TrackPointExtension>
        </extensions>
      </trkpt>
      <trkpt lat="43.09819" lon="1.28545">
        <ele>422.4</ele>
        <time>2023-03-05T12:27:10Z</time>
        <extensions>
          <gpxtpx:TrackPointExtension xmlns:gpxtpx="http://www.garmin.com/xmlschemas/TrackPointExtension/v1">
            <gpxtpx:hr>102</gpxtpx:hr>
          </gpxtpx:TrackPointExtension>
        </extensions>
      </trkpt>
      <trkpt lat="43.09815" lon="1.28544">
        <ele>422.4</ele>
        <time>2023-03-05T12:27:13Z</time>
        <extensions>
          <gpxtpx:TrackPointExtension xmlns:gpxtpx="http://www.garmin.com/xmlschemas/TrackPointExtension/v1">
            <gpxtpx:hr>102</gpxtpx:hr>
          </gpxtpx:TrackPointExtension>
        </extensions>
      </trkpt>
      <trkpt lat="43.09814" lon="1.28544">
        <ele>422.4</ele>
        <time>2023-03-05T12:27:14Z</time>
        <extensions>
          <gpxtpx:TrackPointExtension xmlns:gpxtpx="http://www.garmin.com/xmlschemas/TrackPointExtension/v1">
            <gpxtpx:hr>102</gpxtpx:hr>
          </gpxtpx:TrackPointExtension>
        </extensions>
      </trkpt>
      <trkpt lat="43.09808" lon="1.28544">
        <ele>422.4</ele>
        <time>2023-03-05T12:27:18Z</time>
        <extensions>
          <gpxtpx:TrackPointExtension xmlns:gpxtpx="http://www.garmin.com/xmlschemas/TrackPointExtension/v1">
            <gpxtpx:hr>104</gpxtpx:hr>
          </gpxtpx:TrackPointExtension>
        </extensions>
      </trkpt>
      <trkpt lat="43.09807" lon="1.28545">
        <ele>422.8</ele>
        <time>2023-03-05T12:27:19Z</time>
        <extensions>
          <gpxtpx:TrackPointExtension xmlns:gpxtpx="http://www.garmin.com/xmlschemas/TrackPointExtension/v1">
            <gpxtpx:hr>104</gpxtpx:hr>
          </gpxtpx:TrackPointExtension>
        </extensions>
      </trkpt>
      <trkpt lat="43.09805" lon="1.28545">
        <ele>423.2</ele>
        <time>2023-03-05T12:27:20Z</time>
        <extensions>
          <gpxtpx:TrackPointExtension xmlns:gpxtpx="http://www.garmin.com/xmlschemas/TrackPointExtension/v1">
            <gpxtpx:hr>105</gpxtpx:hr>
          </gpxtpx:TrackPointExtension>
        </extensions>
      </trkpt>
      <trkpt lat="43.09803" lon="1.28545">
        <ele>423.6</ele>
        <time>2023-03-05T12:27:21Z</time>
        <extensions>
          <gpxtpx:TrackPointExtension xmlns:gpxtpx="http://www.garmin.com/xmlschemas/TrackPointExtension/v1">
            <gpxtpx:hr>106</gpxtpx:hr>
          </gpxtpx:TrackPointExtension>
        </extensions>
      </trkpt>
      <trkpt lat="43.09802" lon="1.28546">
        <ele>424</ele>
        <time>2023-03-05T12:27:22Z</time>
        <extensions>
          <gpxtpx:TrackPointExtension xmlns:gpxtpx="http://www.garmin.com/xmlschemas/TrackPointExtension/v1">
            <gpxtpx:hr>107</gpxtpx:hr>
          </gpxtpx:TrackPointExtension>
        </extensions>
      </trkpt>
      <trkpt lat="43.098" lon="1.28546">
        <ele>424.4</ele>
        <time>2023-03-05T12:27:23Z</time>
        <extensions>
          <gpxtpx:TrackPointExtension xmlns:gpxtpx="http://www.garmin.com/xmlschemas/TrackPointExtension/v1">
            <gpxtpx:hr>108</gpxtpx:hr>
          </gpxtpx:TrackPointExtension>
        </extensions>
      </trkpt>
      <trkpt lat="43.09797" lon="1.28547">
        <ele>424.4</ele>
        <time>2023-03-05T12:27:25Z</time>
        <extensions>
          <gpxtpx:TrackPointExtension xmlns:gpxtpx="http://www.garmin.com/xmlschemas/TrackPointExtension/v1">
            <gpxtpx:hr>109</gpxtpx:hr>
          </gpxtpx:TrackPointExtension>
        </extensions>
      </trkpt>
      <trkpt lat="43.09796" lon="1.28548">
        <ele>424.8</ele>
        <time>2023-03-05T12:27:26Z</time>
        <extensions>
          <gpxtpx:TrackPointExtension xmlns:gpxtpx="http://www.garmin.com/xmlschemas/TrackPointExtension/v1">
            <gpxtpx:hr>109</gpxtpx:hr>
          </gpxtpx:TrackPointExtension>
        </extensions>
      </trkpt>
      <trkpt lat="43.09794" lon="1.28549">
        <ele>425.2</ele>
        <time>2023-03-05T12:27:27Z</time>
        <extensions>
          <gpxtpx:TrackPointExtension xmlns:gpxtpx="http://www.garmin.com/xmlschemas/TrackPointExtension/v1">
            <gpxtpx:hr>110</gpxtpx:hr>
          </gpxtpx:TrackPointExtension>
        </extensions>
      </trkpt>
      <trkpt lat="43.09792" lon="1.28549">
        <ele>425.6</ele>
        <time>2023-03-05T12:27:28Z</time>
        <extensions>
          <gpxtpx:TrackPointExtension xmlns:gpxtpx="http://www.garmin.com/xmlschemas/TrackPointExtension/v1">
            <gpxtpx:hr>111</gpxtpx:hr>
          </gpxtpx:TrackPointExtension>
        </extensions>
      </trkpt>
      <trkpt lat="43.0979" lon="1.2855">
        <ele>426</ele>
        <time>2023-03-05T12:27:29Z</time>
        <extensions>
          <gpxtpx:TrackPointExtension xmlns:gpxtpx="http://www.garmin.com/xmlschemas/TrackPointExtension/v1">
            <gpxtpx:hr>111</gpxtpx:hr>
          </gpxtpx:TrackPointExtension>
        </extensions>
      </trkpt>
      <trkpt lat="43.09788" lon="1.2855">
        <ele>426.4</ele>
        <time>2023-03-05T12:27:30Z</time>
        <extensions>
          <gpxtpx:TrackPointExtension xmlns:gpxtpx="http://www.garmin.com/xmlschemas/TrackPointExtension/v1">
            <gpxtpx:hr>112</gpxtpx:hr>
          </gpxtpx:TrackPointExtension>
        </extensions>
      </trkpt>
      <trkpt lat="43.09784" lon="1.2855">
        <ele>426.8</ele>
        <time>2023-03-05T12:27:32Z</time>
        <extensions>
          <gpxtpx:TrackPointExtension xmlns:gpxtpx="http://www.garmin.com/xmlschemas/TrackPointExtension/v1">
            <gpxtpx:hr>112</gpxtpx:hr>
          </gpxtpx:TrackPointExtension>
        </extensions>
      </trkpt>
      <trkpt lat="43.09782" lon="1.2855">
        <ele>427.4</ele>
        <time>2023-03-05T12:27:33Z</time>
        <extensions>
          <gpxtpx:TrackPointExtension xmlns:gpxtpx="http://www.garmin.com/xmlschemas/TrackPointExtension/v1">
            <gpxtpx:hr>113</gpxtpx:hr>
          </gpxtpx:TrackPointExtension>
        </extensions>
      </trkpt>
      <trkpt lat="43.09781" lon="1.2855">
        <ele>427.8</ele>
        <time>2023-03-05T12:27:34Z</time>
        <extensions>
          <gpxtpx:TrackPointExtension xmlns:gpxtpx="http://www.garmin.com/xmlschemas/TrackPointExtension/v1">
            <gpxtpx:hr>114</gpxtpx:hr>
          </gpxtpx:TrackPointExtension>
        </extensions>
      </trkpt>
      <trkpt lat="43.09779" lon="1.2855">
        <ele>428.2</ele>
        <time>2023-03-05T12:27:35Z</time>
        <extensions>
          <gpxtpx:TrackPointExtension xmlns:gpxtpx="http://www.garmin.com/xmlschemas/TrackPointExtension/v1">
            <gpxtpx:hr>115</gpxtpx:hr>
          </gpxtpx:TrackPointExtension>
        </extensions>
      </trkpt>
      <trkpt lat="43.09777" lon="1.28551">
        <ele>428.8</ele>
        <time>2023-03-05T12:27:36Z</time>
        <extensions>
          <gpxtpx:TrackPointExtension xmlns:gpxtpx="http://www.garmin.com/xmlschemas/TrackPointExtension/v1">
            <gpxtpx:hr>116</gpxtpx:hr>
          </gpxtpx:TrackPointExtension>
        </extensions>
      </trkpt>
      <trkpt lat="43.09775" lon="1.28551">
        <ele>428.8</ele>
        <time>2023-03-05T12:27:37Z</time>
        <extensions>
          <gpxtpx:TrackPointExtension xmlns:gpxtpx="http://www.garmin.com/xmlschemas/TrackPointExtension/v1">
            <gpxtpx:hr>117</gpxtpx:hr>
          </gpxtpx:TrackPointExtension>
        </extensions>
      </trkpt>
      <trkpt lat="43.09774" lon="1.28551">
        <ele>429.6</ele>
        <time>2023-03-05T12:27:38Z</time>
        <extensions>
          <gpxtpx:TrackPointExtension xmlns:gpxtpx="http://www.garmin.com/xmlschemas/TrackPointExtension/v1">
            <gpxtpx:hr>118</gpxtpx:hr>
          </gpxtpx:TrackPointExtension>
        </extensions>
      </trkpt>
      <trkpt lat="43.09772" lon="1.28551">
        <ele>430</ele>
        <time>2023-03-05T12:27:39Z</time>
        <extensions>
          <gpxtpx:TrackPointExtension xmlns:gpxtpx="http://www.garmin.com/xmlschemas/TrackPointExtension/v1">
            <gpxtpx:hr>118</gpxtpx:hr>
          </gpxtpx:TrackPointExtension>
        </extensions>
      </trkpt>
      <trkpt lat="43.0977" lon="1.28551">
        <ele>430.4</ele>
        <time>2023-03-05T12:27:40Z</time>
        <extensions>
          <gpxtpx:TrackPointExtension xmlns:gpxtpx="http://www.garmin.com/xmlschemas/TrackPointExtension/v1">
            <gpxtpx:hr>119</gpxtpx:hr>
          </gpxtpx:TrackPointExtension>
        </extensions>
      </trkpt>
      <trkpt lat="43.09768" lon="1.2855">
        <ele>430.8</ele>
        <time>2023-03-05T12:27:41Z</time>
        <extensions>
          <gpxtpx:TrackPointExtension xmlns:gpxtpx="http://www.garmin.com/xmlschemas/TrackPointExtension/v1">
            <gpxtpx:hr>119</gpxtpx:hr>
          </gpxtpx:TrackPointExtension>
        </extensions>
      </trkpt>
      <trkpt lat="43.09766" lon="1.28549">
        <ele>430.8</ele>
        <time>2023-03-05T12:27:42Z</time>
        <extensions>
          <gpxtpx:TrackPointExtension xmlns:gpxtpx="http://www.garmin.com/xmlschemas/TrackPointExtension/v1">
            <gpxtpx:hr>120</gpxtpx:hr>
          </gpxtpx:TrackPointExtension>
        </extensions>
      </trkpt>
      <trkpt lat="43.09763" lon="1.28547">
        <ele>431.2</ele>
        <time>2023-03-05T12:27:44Z</time>
        <extensions>
          <gpxtpx:TrackPointExtension xmlns:gpxtpx="http://www.garmin.com/xmlschemas/TrackPointExtension/v1">
            <gpxtpx:hr>120</gpxtpx:hr>
          </gpxtpx:TrackPointExtension>
        </extensions>
      </trkpt>
      <trkpt lat="43.09762" lon="1.28547">
        <ele>431.6</ele>
        <time>2023-03-05T12:27:45Z</time>
        <extensions>
          <gpxtpx:TrackPointExtension xmlns:gpxtpx="http://www.garmin.com/xmlschemas/TrackPointExtension/v1">
            <gpxtpx:hr>121</gpxtpx:hr>
          </gpxtpx:TrackPointExtension>
        </extensions>
      </trkpt>
      <trkpt lat="43.0976" lon="1.28546">
        <ele>432</ele>
        <time>2023-03-05T12:27:46Z</time>
        <extensions>
          <gpxtpx:TrackPointExtension xmlns:gpxtpx="http://www.garmin.com/xmlschemas/TrackPointExtension/v1">
            <gpxtpx:hr>121</gpxtpx:hr>
          </gpxtpx:TrackPointExtension>
        </extensions>
      </trkpt>
      <trkpt lat="43.09758" lon="1.28546">
        <ele>432.4</ele>
        <time>2023-03-05T12:27:47Z</time>
        <extensions>
          <gpxtpx:TrackPointExtension xmlns:gpxtpx="http://www.garmin.com/xmlschemas/TrackPointExtension/v1">
            <gpxtpx:hr>121</gpxtpx:hr>
          </gpxtpx:TrackPointExtension>
        </extensions>
      </trkpt>
      <trkpt lat="43.09757" lon="1.28545">
        <ele>432.8</ele>
        <time>2023-03-05T12:27:48Z</time>
        <extensions>
          <gpxtpx:TrackPointExtension xmlns:gpxtpx="http://www.garmin.com/xmlschemas/TrackPointExtension/v1">
            <gpxtpx:hr>122</gpxtpx:hr>
          </gpxtpx:TrackPointExtension>
        </extensions>
      </trkpt>
      <trkpt lat="43.09753" lon="1.28545">
        <ele>433.2</ele>
        <time>2023-03-05T12:27:50Z</time>
        <extensions>
          <gpxtpx:TrackPointExtension xmlns:gpxtpx="http://www.garmin.com/xmlschemas/TrackPointExtension/v1">
            <gpxtpx:hr>122</gpxtpx:hr>
          </gpxtpx:TrackPointExtension>
        </extensions>
      </trkpt>
      <trkpt lat="43.09751" lon="1.28544">
        <ele>433.6</ele>
        <time>2023-03-05T12:27:51Z</time>
        <extensions>
          <gpxtpx:TrackPointExtension xmlns:gpxtpx="http://www.garmin.com/xmlschemas/TrackPointExtension/v1">
            <gpxtpx:hr>122</gpxtpx:hr>
          </gpxtpx:TrackPointExtension>
        </extensions>
      </trkpt>
      <trkpt lat="43.09749" lon="1.28543">
        <ele>434</ele>
        <time>2023-03-05T12:27:52Z</time>
        <extensions>
          <gpxtpx:TrackPointExtension xmlns:gpxtpx="http://www.garmin.com/xmlschemas/TrackPointExtension/v1">
            <gpxtpx:hr>122</gpxtpx:hr>
          </gpxtpx:TrackPointExtension>
        </extensions>
      </trkpt>
      <trkpt lat="43.09747" lon="1.28543">
        <ele>434.4</ele>
        <time>2023-03-05T12:27:53Z</time>
        <extensions>
          <gpxtpx:TrackPointExtension xmlns:gpxtpx="http://www.garmin.com/xmlschemas/TrackPointExtension/v1">
            <gpxtpx:hr>123</gpxtpx:hr>
          </gpxtpx:TrackPointExtension>
        </extensions>
      </trkpt>
      <trkpt lat="43.09745" lon="1.28542">
        <ele>434.8</ele>
        <time>2023-03-05T12:27:54Z</time>
        <extensions>
          <gpxtpx:TrackPointExtension xmlns:gpxtpx="http://www.garmin.com/xmlschemas/TrackPointExtension/v1">
            <gpxtpx:hr>123</gpxtpx:hr>
          </gpxtpx:TrackPointExtension>
        </extensions>
      </trkpt>
      <trkpt lat="43.0974" lon="1.28539">
        <ele>435.2</ele>
        <time>2023-03-05T12:27:57Z</time>
        <extensions>
          <gpxtpx:TrackPointExtension xmlns:gpxtpx="http://www.garmin.com/xmlschemas/TrackPointExtension/v1">
            <gpxtpx:hr>124</gpxtpx:hr>
          </gpxtpx:TrackPointExtension>
        </extensions>
      </trkpt>
      <trkpt lat="43.09738" lon="1.28539">
        <ele>435.6</ele>
        <time>2023-03-05T12:27:58Z</time>
        <extensions>
          <gpxtpx:TrackPointExtension xmlns:gpxtpx="http://www.garmin.com/xmlschemas/TrackPointExtension/v1">
            <gpxtpx:hr>125</gpxtpx:hr>
          </gpxtpx:TrackPointExtension>
        </extensions>
      </trkpt>
      <trkpt lat="43.09737" lon="1.28538">
        <ele>436.2</ele>
        <time>2023-03-05T12:27:59Z</time>
        <extensions>
          <gpxtpx:TrackPointExtension xmlns:gpxtpx="http://www.garmin.com/xmlschemas/TrackPointExtension/v1">
            <gpxtpx:hr>125</gpxtpx:hr>
          </gpxtpx:TrackPointExtension>
        </extensions>
      </trkpt>
      <trkpt lat="43.09735" lon="1.28538">
        <ele>436.6</ele>
        <time>2023-03-05T12:28:00Z</time>
        <extensions>
          <gpxtpx:TrackPointExtension xmlns:gpxtpx="http://www.garmin.com/xmlschemas/TrackPointExtension/v1">
            <gpxtpx:hr>125</gpxtpx:hr>
          </gpxtpx:TrackPointExtension>
        </extensions>
      </trkpt>
      <trkpt lat="43.09733" lon="1.28537">
        <ele>437</ele>
        <time>2023-03-05T12:28:01Z</time>
        <extensions>
          <gpxtpx:TrackPointExtension xmlns:gpxtpx="http://www.garmin.com/xmlschemas/TrackPointExtension/v1">
            <gpxtpx:hr>126</gpxtpx:hr>
          </gpxtpx:TrackPointExtension>
        </extensions>
      </trkpt>
      <trkpt lat="43.0973" lon="1.28536">
        <ele>437.4</ele>
        <time>2023-03-05T12:28:03Z</time>
        <extensions>
          <gpxtpx:TrackPointExtension xmlns:gpxtpx="http://www.garmin.com/xmlschemas/TrackPointExtension/v1">
            <gpxtpx:hr>126</gpxtpx:hr>
          </gpxtpx:TrackPointExtension>
        </extensions>
      </trkpt>
      <trkpt lat="43.09728" lon="1.28536">
        <ele>437.8</ele>
        <time>2023-03-05T12:28:04Z</time>
        <extensions>
          <gpxtpx:TrackPointExtension xmlns:gpxtpx="http://www.garmin.com/xmlschemas/TrackPointExtension/v1">
            <gpxtpx:hr>126</gpxtpx:hr>
          </gpxtpx:TrackPointExtension>
        </extensions>
      </trkpt>
      <trkpt lat="43.09726" lon="1.28535">
        <ele>438.2</ele>
        <time>2023-03-05T12:28:05Z</time>
        <extensions>
          <gpxtpx:TrackPointExtension xmlns:gpxtpx="http://www.garmin.com/xmlschemas/TrackPointExtension/v1">
            <gpxtpx:hr>126</gpxtpx:hr>
          </gpxtpx:TrackPointExtension>
        </extensions>
      </trkpt>
      <trkpt lat="43.09724" lon="1.28534">
        <ele>438.6</ele>
        <time>2023-03-05T12:28:06Z</time>
        <extensions>
          <gpxtpx:TrackPointExtension xmlns:gpxtpx="http://www.garmin.com/xmlschemas/TrackPointExtension/v1">
            <gpxtpx:hr>126</gpxtpx:hr>
          </gpxtpx:TrackPointExtension>
        </extensions>
      </trkpt>
      <trkpt lat="43.09723" lon="1.28534">
        <ele>439</ele>
        <time>2023-03-05T12:28:07Z</time>
        <extensions>
          <gpxtpx:TrackPointExtension xmlns:gpxtpx="http://www.garmin.com/xmlschemas/TrackPointExtension/v1">
            <gpxtpx:hr>126</gpxtpx:hr>
          </gpxtpx:TrackPointExtension>
        </extensions>
      </trkpt>
      <trkpt lat="43.09714" lon="1.2853">
        <ele>439</ele>
        <time>2023-03-05T12:28:12Z</time>
        <extensions>
          <gpxtpx:TrackPointExtension xmlns:gpxtpx="http://www.garmin.com/xmlschemas/TrackPointExtension/v1">
            <gpxtpx:hr>125</gpxtpx:hr>
          </gpxtpx:TrackPointExtension>
        </extensions>
      </trkpt>
      <trkpt lat="43.09713" lon="1.28529">
        <ele>439.4</ele>
        <time>2023-03-05T12:28:13Z</time>
        <extensions>
          <gpxtpx:TrackPointExtension xmlns:gpxtpx="http://www.garmin.com/xmlschemas/TrackPointExtension/v1">
            <gpxtpx:hr>125</gpxtpx:hr>
          </gpxtpx:TrackPointExtension>
        </extensions>
      </trkpt>
      <trkpt lat="43.09711" lon="1.28528">
        <ele>440</ele>
        <time>2023-03-05T12:28:14Z</time>
        <extensions>
          <gpxtpx:TrackPointExtension xmlns:gpxtpx="http://www.garmin.com/xmlschemas/TrackPointExtension/v1">
            <gpxtpx:hr>126</gpxtpx:hr>
          </gpxtpx:TrackPointExtension>
        </extensions>
      </trkpt>
      <trkpt lat="43.09709" lon="1.28528">
        <ele>440.4</ele>
        <time>2023-03-05T12:28:15Z</time>
        <extensions>
          <gpxtpx:TrackPointExtension xmlns:gpxtpx="http://www.garmin.com/xmlschemas/TrackPointExtension/v1">
            <gpxtpx:hr>125</gpxtpx:hr>
          </gpxtpx:TrackPointExtension>
        </extensions>
      </trkpt>
      <trkpt lat="43.09707" lon="1.28527">
        <ele>440.8</ele>
        <time>2023-03-05T12:28:16Z</time>
        <extensions>
          <gpxtpx:TrackPointExtension xmlns:gpxtpx="http://www.garmin.com/xmlschemas/TrackPointExtension/v1">
            <gpxtpx:hr>126</gpxtpx:hr>
          </gpxtpx:TrackPointExtension>
        </extensions>
      </trkpt>
      <trkpt lat="43.09705" lon="1.28526">
        <ele>441.2</ele>
        <time>2023-03-05T12:28:17Z</time>
        <extensions>
          <gpxtpx:TrackPointExtension xmlns:gpxtpx="http://www.garmin.com/xmlschemas/TrackPointExtension/v1">
            <gpxtpx:hr>126</gpxtpx:hr>
          </gpxtpx:TrackPointExtension>
        </extensions>
      </trkpt>
      <trkpt lat="43.09703" lon="1.28525">
        <ele>441.2</ele>
        <time>2023-03-05T12:28:18Z</time>
        <extensions>
          <gpxtpx:TrackPointExtension xmlns:gpxtpx="http://www.garmin.com/xmlschemas/TrackPointExtension/v1">
            <gpxtpx:hr>126</gpxtpx:hr>
          </gpxtpx:TrackPointExtension>
        </extensions>
      </trkpt>
      <trkpt lat="43.09695" lon="1.28523">
        <ele>441.6</ele>
        <time>2023-03-05T12:28:22Z</time>
        <extensions>
          <gpxtpx:TrackPointExtension xmlns:gpxtpx="http://www.garmin.com/xmlschemas/TrackPointExtension/v1">
            <gpxtpx:hr>127</gpxtpx:hr>
          </gpxtpx:TrackPointExtension>
        </extensions>
      </trkpt>
      <trkpt lat="43.09693" lon="1.28522">
        <ele>442</ele>
        <time>2023-03-05T12:28:23Z</time>
        <extensions>
          <gpxtpx:TrackPointExtension xmlns:gpxtpx="http://www.garmin.com/xmlschemas/TrackPointExtension/v1">
            <gpxtpx:hr>127</gpxtpx:hr>
          </gpxtpx:TrackPointExtension>
        </extensions>
      </trkpt>
      <trkpt lat="43.0969" lon="1.28522">
        <ele>442.4</ele>
        <time>2023-03-05T12:28:24Z</time>
        <extensions>
          <gpxtpx:TrackPointExtension xmlns:gpxtpx="http://www.garmin.com/xmlschemas/TrackPointExtension/v1">
            <gpxtpx:hr>128</gpxtpx:hr>
          </gpxtpx:TrackPointExtension>
        </extensions>
      </trkpt>
      <trkpt lat="43.09688" lon="1.28521">
        <ele>442.8</ele>
        <time>2023-03-05T12:28:25Z</time>
        <extensions>
          <gpxtpx:TrackPointExtension xmlns:gpxtpx="http://www.garmin.com/xmlschemas/TrackPointExtension/v1">
            <gpxtpx:hr>128</gpxtpx:hr>
          </gpxtpx:TrackPointExtension>
        </extensions>
      </trkpt>
      <trkpt lat="43.09685" lon="1.28521">
        <ele>443.2</ele>
        <time>2023-03-05T12:28:26Z</time>
        <extensions>
          <gpxtpx:TrackPointExtension xmlns:gpxtpx="http://www.garmin.com/xmlschemas/TrackPointExtension/v1">
            <gpxtpx:hr>128</gpxtpx:hr>
          </gpxtpx:TrackPointExtension>
        </extensions>
      </trkpt>
      <trkpt lat="43.09676" lon="1.28521">
        <ele>443.2</ele>
        <time>2023-03-05T12:28:30Z</time>
        <extensions>
          <gpxtpx:TrackPointExtension xmlns:gpxtpx="http://www.garmin.com/xmlschemas/TrackPointExtension/v1">
            <gpxtpx:hr>128</gpxtpx:hr>
          </gpxtpx:TrackPointExtension>
        </extensions>
      </trkpt>
      <trkpt lat="43.09665" lon="1.28523">
        <ele>443.6</ele>
        <time>2023-03-05T12:28:34Z</time>
        <extensions>
          <gpxtpx:TrackPointExtension xmlns:gpxtpx="http://www.garmin.com/xmlschemas/TrackPointExtension/v1">
            <gpxtpx:hr>129</gpxtpx:hr>
          </gpxtpx:TrackPointExtension>
        </extensions>
      </trkpt>
      <trkpt lat="43.09663" lon="1.28523">
        <ele>444</ele>
        <time>2023-03-05T12:28:35Z</time>
        <extensions>
          <gpxtpx:TrackPointExtension xmlns:gpxtpx="http://www.garmin.com/xmlschemas/TrackPointExtension/v1">
            <gpxtpx:hr>128</gpxtpx:hr>
          </gpxtpx:TrackPointExtension>
        </extensions>
      </trkpt>
      <trkpt lat="43.0966" lon="1.28524">
        <ele>444.4</ele>
        <time>2023-03-05T12:28:36Z</time>
        <extensions>
          <gpxtpx:TrackPointExtension xmlns:gpxtpx="http://www.garmin.com/xmlschemas/TrackPointExtension/v1">
            <gpxtpx:hr>128</gpxtpx:hr>
          </gpxtpx:TrackPointExtension>
        </extensions>
      </trkpt>
      <trkpt lat="43.09658" lon="1.28524">
        <ele>444.8</ele>
        <time>2023-03-05T12:28:37Z</time>
        <extensions>
          <gpxtpx:TrackPointExtension xmlns:gpxtpx="http://www.garmin.com/xmlschemas/TrackPointExtension/v1">
            <gpxtpx:hr>128</gpxtpx:hr>
          </gpxtpx:TrackPointExtension>
        </extensions>
      </trkpt>
      <trkpt lat="43.09656" lon="1.28525">
        <ele>445.2</ele>
        <time>2023-03-05T12:28:38Z</time>
        <extensions>
          <gpxtpx:TrackPointExtension xmlns:gpxtpx="http://www.garmin.com/xmlschemas/TrackPointExtension/v1">
            <gpxtpx:hr>128</gpxtpx:hr>
          </gpxtpx:TrackPointExtension>
        </extensions>
      </trkpt>
      <trkpt lat="43.09648" lon="1.28525">
        <ele>445.2</ele>
        <time>2023-03-05T12:28:42Z</time>
        <extensions>
          <gpxtpx:TrackPointExtension xmlns:gpxtpx="http://www.garmin.com/xmlschemas/TrackPointExtension/v1">
            <gpxtpx:hr>128</gpxtpx:hr>
          </gpxtpx:TrackPointExtension>
        </extensions>
      </trkpt>
      <trkpt lat="43.09647" lon="1.28526">
        <ele>445.8</ele>
        <time>2023-03-05T12:28:43Z</time>
        <extensions>
          <gpxtpx:TrackPointExtension xmlns:gpxtpx="http://www.garmin.com/xmlschemas/TrackPointExtension/v1">
            <gpxtpx:hr>127</gpxtpx:hr>
          </gpxtpx:TrackPointExtension>
        </extensions>
      </trkpt>
      <trkpt lat="43.09645" lon="1.28526">
        <ele>446.2</ele>
        <time>2023-03-05T12:28:44Z</time>
        <extensions>
          <gpxtpx:TrackPointExtension xmlns:gpxtpx="http://www.garmin.com/xmlschemas/TrackPointExtension/v1">
            <gpxtpx:hr>127</gpxtpx:hr>
          </gpxtpx:TrackPointExtension>
        </extensions>
      </trkpt>
      <trkpt lat="43.09643" lon="1.28526">
        <ele>446.6</ele>
        <time>2023-03-05T12:28:45Z</time>
        <extensions>
          <gpxtpx:TrackPointExtension xmlns:gpxtpx="http://www.garmin.com/xmlschemas/TrackPointExtension/v1">
            <gpxtpx:hr>128</gpxtpx:hr>
          </gpxtpx:TrackPointExtension>
        </extensions>
      </trkpt>
      <trkpt lat="43.0964" lon="1.28527">
        <ele>447</ele>
        <time>2023-03-05T12:28:46Z</time>
        <extensions>
          <gpxtpx:TrackPointExtension xmlns:gpxtpx="http://www.garmin.com/xmlschemas/TrackPointExtension/v1">
            <gpxtpx:hr>128</gpxtpx:hr>
          </gpxtpx:TrackPointExtension>
        </extensions>
      </trkpt>
      <trkpt lat="43.09638" lon="1.28527">
        <ele>447.4</ele>
        <time>2023-03-05T12:28:47Z</time>
        <extensions>
          <gpxtpx:TrackPointExtension xmlns:gpxtpx="http://www.garmin.com/xmlschemas/TrackPointExtension/v1">
            <gpxtpx:hr>128</gpxtpx:hr>
          </gpxtpx:TrackPointExtension>
        </extensions>
      </trkpt>
      <trkpt lat="43.09633" lon="1.28527">
        <ele>447.8</ele>
        <time>2023-03-05T12:28:50Z</time>
        <extensions>
          <gpxtpx:TrackPointExtension xmlns:gpxtpx="http://www.garmin.com/xmlschemas/TrackPointExtension/v1">
            <gpxtpx:hr>129</gpxtpx:hr>
          </gpxtpx:TrackPointExtension>
        </extensions>
      </trkpt>
      <trkpt lat="43.09631" lon="1.28527">
        <ele>448.2</ele>
        <time>2023-03-05T12:28:51Z</time>
        <extensions>
          <gpxtpx:TrackPointExtension xmlns:gpxtpx="http://www.garmin.com/xmlschemas/TrackPointExtension/v1">
            <gpxtpx:hr>128</gpxtpx:hr>
          </gpxtpx:TrackPointExtension>
        </extensions>
      </trkpt>
      <trkpt lat="43.0963" lon="1.28528">
        <ele>449</ele>
        <time>2023-03-05T12:28:52Z</time>
        <extensions>
          <gpxtpx:TrackPointExtension xmlns:gpxtpx="http://www.garmin.com/xmlschemas/TrackPointExtension/v1">
            <gpxtpx:hr>128</gpxtpx:hr>
          </gpxtpx:TrackPointExtension>
        </extensions>
      </trkpt>
      <trkpt lat="43.09628" lon="1.28528">
        <ele>449.4</ele>
        <time>2023-03-05T12:28:53Z</time>
        <extensions>
          <gpxtpx:TrackPointExtension xmlns:gpxtpx="http://www.garmin.com/xmlschemas/TrackPointExtension/v1">
            <gpxtpx:hr>128</gpxtpx:hr>
          </gpxtpx:TrackPointExtension>
        </extensions>
      </trkpt>
      <trkpt lat="43.09624" lon="1.28529">
        <ele>449.8</ele>
        <time>2023-03-05T12:28:55Z</time>
        <extensions>
          <gpxtpx:TrackPointExtension xmlns:gpxtpx="http://www.garmin.com/xmlschemas/TrackPointExtension/v1">
            <gpxtpx:hr>127</gpxtpx:hr>
          </gpxtpx:TrackPointExtension>
        </extensions>
      </trkpt>
      <trkpt lat="43.09623" lon="1.28529">
        <ele>450.2</ele>
        <time>2023-03-05T12:28:56Z</time>
        <extensions>
          <gpxtpx:TrackPointExtension xmlns:gpxtpx="http://www.garmin.com/xmlschemas/TrackPointExtension/v1">
            <gpxtpx:hr>128</gpxtpx:hr>
          </gpxtpx:TrackPointExtension>
        </extensions>
      </trkpt>
      <trkpt lat="43.09621" lon="1.28529">
        <ele>450.6</ele>
        <time>2023-03-05T12:28:57Z</time>
        <extensions>
          <gpxtpx:TrackPointExtension xmlns:gpxtpx="http://www.garmin.com/xmlschemas/TrackPointExtension/v1">
            <gpxtpx:hr>128</gpxtpx:hr>
          </gpxtpx:TrackPointExtension>
        </extensions>
      </trkpt>
      <trkpt lat="43.0962" lon="1.28529">
        <ele>451.2</ele>
        <time>2023-03-05T12:28:58Z</time>
        <extensions>
          <gpxtpx:TrackPointExtension xmlns:gpxtpx="http://www.garmin.com/xmlschemas/TrackPointExtension/v1">
            <gpxtpx:hr>128</gpxtpx:hr>
          </gpxtpx:TrackPointExtension>
        </extensions>
      </trkpt>
      <trkpt lat="43.09618" lon="1.28529">
        <ele>451.6</ele>
        <time>2023-03-05T12:28:59Z</time>
        <extensions>
          <gpxtpx:TrackPointExtension xmlns:gpxtpx="http://www.garmin.com/xmlschemas/TrackPointExtension/v1">
            <gpxtpx:hr>127</gpxtpx:hr>
          </gpxtpx:TrackPointExtension>
        </extensions>
      </trkpt>
      <trkpt lat="43.09616" lon="1.28528">
        <ele>452</ele>
        <time>2023-03-05T12:29:01Z</time>
        <extensions>
          <gpxtpx:TrackPointExtension xmlns:gpxtpx="http://www.garmin.com/xmlschemas/TrackPointExtension/v1">
            <gpxtpx:hr>128</gpxtpx:hr>
          </gpxtpx:TrackPointExtension>
        </extensions>
      </trkpt>
      <trkpt lat="43.09614" lon="1.28528">
        <ele>452.4</ele>
        <time>2023-03-05T12:29:02Z</time>
        <extensions>
          <gpxtpx:TrackPointExtension xmlns:gpxtpx="http://www.garmin.com/xmlschemas/TrackPointExtension/v1">
            <gpxtpx:hr>128</gpxtpx:hr>
          </gpxtpx:TrackPointExtension>
        </extensions>
      </trkpt>
      <trkpt lat="43.09612" lon="1.28528">
        <ele>452.8</ele>
        <time>2023-03-05T12:29:03Z</time>
        <extensions>
          <gpxtpx:TrackPointExtension xmlns:gpxtpx="http://www.garmin.com/xmlschemas/TrackPointExtension/v1">
            <gpxtpx:hr>128</gpxtpx:hr>
          </gpxtpx:TrackPointExtension>
        </extensions>
      </trkpt>
      <trkpt lat="43.0961" lon="1.28527">
        <ele>453.4</ele>
        <time>2023-03-05T12:29:04Z</time>
        <extensions>
          <gpxtpx:TrackPointExtension xmlns:gpxtpx="http://www.garmin.com/xmlschemas/TrackPointExtension/v1">
            <gpxtpx:hr>128</gpxtpx:hr>
          </gpxtpx:TrackPointExtension>
        </extensions>
      </trkpt>
      <trkpt lat="43.09608" lon="1.28528">
        <ele>453.8</ele>
        <time>2023-03-05T12:29:05Z</time>
        <extensions>
          <gpxtpx:TrackPointExtension xmlns:gpxtpx="http://www.garmin.com/xmlschemas/TrackPointExtension/v1">
            <gpxtpx:hr>128</gpxtpx:hr>
          </gpxtpx:TrackPointExtension>
        </extensions>
      </trkpt>
      <trkpt lat="43.09606" lon="1.28527">
        <ele>454.4</ele>
        <time>2023-03-05T12:29:06Z</time>
        <extensions>
          <gpxtpx:TrackPointExtension xmlns:gpxtpx="http://www.garmin.com/xmlschemas/TrackPointExtension/v1">
            <gpxtpx:hr>128</gpxtpx:hr>
          </gpxtpx:TrackPointExtension>
        </extensions>
      </trkpt>
      <trkpt lat="43.09605" lon="1.28527">
        <ele>454.8</ele>
        <time>2023-03-05T12:29:07Z</time>
        <extensions>
          <gpxtpx:TrackPointExtension xmlns:gpxtpx="http://www.garmin.com/xmlschemas/TrackPointExtension/v1">
            <gpxtpx:hr>128</gpxtpx:hr>
          </gpxtpx:TrackPointExtension>
        </extensions>
      </trkpt>
      <trkpt lat="43.09603" lon="1.28526">
        <ele>455.4</ele>
        <time>2023-03-05T12:29:08Z</time>
        <extensions>
          <gpxtpx:TrackPointExtension xmlns:gpxtpx="http://www.garmin.com/xmlschemas/TrackPointExtension/v1">
            <gpxtpx:hr>127</gpxtpx:hr>
          </gpxtpx:TrackPointExtension>
        </extensions>
      </trkpt>
      <trkpt lat="43.09601" lon="1.28526">
        <ele>456</ele>
        <time>2023-03-05T12:29:09Z</time>
        <extensions>
          <gpxtpx:TrackPointExtension xmlns:gpxtpx="http://www.garmin.com/xmlschemas/TrackPointExtension/v1">
            <gpxtpx:hr>127</gpxtpx:hr>
          </gpxtpx:TrackPointExtension>
        </extensions>
      </trkpt>
      <trkpt lat="43.09599" lon="1.28525">
        <ele>456</ele>
        <time>2023-03-05T12:29:10Z</time>
        <extensions>
          <gpxtpx:TrackPointExtension xmlns:gpxtpx="http://www.garmin.com/xmlschemas/TrackPointExtension/v1">
            <gpxtpx:hr>127</gpxtpx:hr>
          </gpxtpx:TrackPointExtension>
        </extensions>
      </trkpt>
      <trkpt lat="43.09597" lon="1.28525">
        <ele>456.4</ele>
        <time>2023-03-05T12:29:11Z</time>
        <extensions>
          <gpxtpx:TrackPointExtension xmlns:gpxtpx="http://www.garmin.com/xmlschemas/TrackPointExtension/v1">
            <gpxtpx:hr>127</gpxtpx:hr>
          </gpxtpx:TrackPointExtension>
        </extensions>
      </trkpt>
      <trkpt lat="43.09595" lon="1.28525">
        <ele>457</ele>
        <time>2023-03-05T12:29:12Z</time>
        <extensions>
          <gpxtpx:TrackPointExtension xmlns:gpxtpx="http://www.garmin.com/xmlschemas/TrackPointExtension/v1">
            <gpxtpx:hr>127</gpxtpx:hr>
          </gpxtpx:TrackPointExtension>
        </extensions>
      </trkpt>
      <trkpt lat="43.09593" lon="1.28526">
        <ele>457.4</ele>
        <time>2023-03-05T12:29:13Z</time>
        <extensions>
          <gpxtpx:TrackPointExtension xmlns:gpxtpx="http://www.garmin.com/xmlschemas/TrackPointExtension/v1">
            <gpxtpx:hr>127</gpxtpx:hr>
          </gpxtpx:TrackPointExtension>
        </extensions>
      </trkpt>
      <trkpt lat="43.09591" lon="1.28525">
        <ele>457.8</ele>
        <time>2023-03-05T12:29:14Z</time>
        <extensions>
          <gpxtpx:TrackPointExtension xmlns:gpxtpx="http://www.garmin.com/xmlschemas/TrackPointExtension/v1">
            <gpxtpx:hr>127</gpxtpx:hr>
          </gpxtpx:TrackPointExtension>
        </extensions>
      </trkpt>
      <trkpt lat="43.09589" lon="1.28525">
        <ele>458.8</ele>
        <time>2023-03-05T12:29:15Z</time>
        <extensions>
          <gpxtpx:TrackPointExtension xmlns:gpxtpx="http://www.garmin.com/xmlschemas/TrackPointExtension/v1">
            <gpxtpx:hr>128</gpxtpx:hr>
          </gpxtpx:TrackPointExtension>
        </extensions>
      </trkpt>
      <trkpt lat="43.09587" lon="1.28525">
        <ele>459.2</ele>
        <time>2023-03-05T12:29:16Z</time>
        <extensions>
          <gpxtpx:TrackPointExtension xmlns:gpxtpx="http://www.garmin.com/xmlschemas/TrackPointExtension/v1">
            <gpxtpx:hr>129</gpxtpx:hr>
          </gpxtpx:TrackPointExtension>
        </extensions>
      </trkpt>
      <trkpt lat="43.09586" lon="1.28524">
        <ele>459.6</ele>
        <time>2023-03-05T12:29:17Z</time>
        <extensions>
          <gpxtpx:TrackPointExtension xmlns:gpxtpx="http://www.garmin.com/xmlschemas/TrackPointExtension/v1">
            <gpxtpx:hr>129</gpxtpx:hr>
          </gpxtpx:TrackPointExtension>
        </extensions>
      </trkpt>
      <trkpt lat="43.09584" lon="1.28524">
        <ele>460</ele>
        <time>2023-03-05T12:29:18Z</time>
        <extensions>
          <gpxtpx:TrackPointExtension xmlns:gpxtpx="http://www.garmin.com/xmlschemas/TrackPointExtension/v1">
            <gpxtpx:hr>130</gpxtpx:hr>
          </gpxtpx:TrackPointExtension>
        </extensions>
      </trkpt>
      <trkpt lat="43.09582" lon="1.28523">
        <ele>460.4</ele>
        <time>2023-03-05T12:29:19Z</time>
        <extensions>
          <gpxtpx:TrackPointExtension xmlns:gpxtpx="http://www.garmin.com/xmlschemas/TrackPointExtension/v1">
            <gpxtpx:hr>130</gpxtpx:hr>
          </gpxtpx:TrackPointExtension>
        </extensions>
      </trkpt>
      <trkpt lat="43.0958" lon="1.28523">
        <ele>461</ele>
        <time>2023-03-05T12:29:20Z</time>
        <extensions>
          <gpxtpx:TrackPointExtension xmlns:gpxtpx="http://www.garmin.com/xmlschemas/TrackPointExtension/v1">
            <gpxtpx:hr>131</gpxtpx:hr>
          </gpxtpx:TrackPointExtension>
        </extensions>
      </trkpt>
      <trkpt lat="43.09579" lon="1.28522">
        <ele>461.4</ele>
        <time>2023-03-05T12:29:21Z</time>
        <extensions>
          <gpxtpx:TrackPointExtension xmlns:gpxtpx="http://www.garmin.com/xmlschemas/TrackPointExtension/v1">
            <gpxtpx:hr>131</gpxtpx:hr>
          </gpxtpx:TrackPointExtension>
        </extensions>
      </trkpt>
      <trkpt lat="43.09577" lon="1.28523">
        <ele>462</ele>
        <time>2023-03-05T12:29:22Z</time>
        <extensions>
          <gpxtpx:TrackPointExtension xmlns:gpxtpx="http://www.garmin.com/xmlschemas/TrackPointExtension/v1">
            <gpxtpx:hr>132</gpxtpx:hr>
          </gpxtpx:TrackPointExtension>
        </extensions>
      </trkpt>
      <trkpt lat="43.09575" lon="1.28523">
        <ele>462.4</ele>
        <time>2023-03-05T12:29:23Z</time>
        <extensions>
          <gpxtpx:TrackPointExtension xmlns:gpxtpx="http://www.garmin.com/xmlschemas/TrackPointExtension/v1">
            <gpxtpx:hr>133</gpxtpx:hr>
          </gpxtpx:TrackPointExtension>
        </extensions>
      </trkpt>
      <trkpt lat="43.09573" lon="1.28523">
        <ele>462.8</ele>
        <time>2023-03-05T12:29:24Z</time>
        <extensions>
          <gpxtpx:TrackPointExtension xmlns:gpxtpx="http://www.garmin.com/xmlschemas/TrackPointExtension/v1">
            <gpxtpx:hr>133</gpxtpx:hr>
          </gpxtpx:TrackPointExtension>
        </extensions>
      </trkpt>
      <trkpt lat="43.09571" lon="1.28523">
        <ele>463.4</ele>
        <time>2023-03-05T12:29:25Z</time>
        <extensions>
          <gpxtpx:TrackPointExtension xmlns:gpxtpx="http://www.garmin.com/xmlschemas/TrackPointExtension/v1">
            <gpxtpx:hr>133</gpxtpx:hr>
          </gpxtpx:TrackPointExtension>
        </extensions>
      </trkpt>
      <trkpt lat="43.0957" lon="1.28523">
        <ele>463.8</ele>
        <time>2023-03-05T12:29:26Z</time>
        <extensions>
          <gpxtpx:TrackPointExtension xmlns:gpxtpx="http://www.garmin.com/xmlschemas/TrackPointExtension/v1">
            <gpxtpx:hr>134</gpxtpx:hr>
          </gpxtpx:TrackPointExtension>
        </extensions>
      </trkpt>
      <trkpt lat="43.09568" lon="1.28524">
        <ele>464.2</ele>
        <time>2023-03-05T12:29:27Z</time>
        <extensions>
          <gpxtpx:TrackPointExtension xmlns:gpxtpx="http://www.garmin.com/xmlschemas/TrackPointExtension/v1">
            <gpxtpx:hr>134</gpxtpx:hr>
          </gpxtpx:TrackPointExtension>
        </extensions>
      </trkpt>
      <trkpt lat="43.09567" lon="1.28524">
        <ele>464.6</ele>
        <time>2023-03-05T12:29:28Z</time>
        <extensions>
          <gpxtpx:TrackPointExtension xmlns:gpxtpx="http://www.garmin.com/xmlschemas/TrackPointExtension/v1">
            <gpxtpx:hr>134</gpxtpx:hr>
          </gpxtpx:TrackPointExtension>
        </extensions>
      </trkpt>
      <trkpt lat="43.09566" lon="1.28524">
        <ele>465</ele>
        <time>2023-03-05T12:29:29Z</time>
        <extensions>
          <gpxtpx:TrackPointExtension xmlns:gpxtpx="http://www.garmin.com/xmlschemas/TrackPointExtension/v1">
            <gpxtpx:hr>134</gpxtpx:hr>
          </gpxtpx:TrackPointExtension>
        </extensions>
      </trkpt>
      <trkpt lat="43.09562" lon="1.28525">
        <ele>465.4</ele>
        <time>2023-03-05T12:29:31Z</time>
        <extensions>
          <gpxtpx:TrackPointExtension xmlns:gpxtpx="http://www.garmin.com/xmlschemas/TrackPointExtension/v1">
            <gpxtpx:hr>134</gpxtpx:hr>
          </gpxtpx:TrackPointExtension>
        </extensions>
      </trkpt>
      <trkpt lat="43.0956" lon="1.28525">
        <ele>465.8</ele>
        <time>2023-03-05T12:29:32Z</time>
        <extensions>
          <gpxtpx:TrackPointExtension xmlns:gpxtpx="http://www.garmin.com/xmlschemas/TrackPointExtension/v1">
            <gpxtpx:hr>135</gpxtpx:hr>
          </gpxtpx:TrackPointExtension>
        </extensions>
      </trkpt>
      <trkpt lat="43.09558" lon="1.28525">
        <ele>466.2</ele>
        <time>2023-03-05T12:29:33Z</time>
        <extensions>
          <gpxtpx:TrackPointExtension xmlns:gpxtpx="http://www.garmin.com/xmlschemas/TrackPointExtension/v1">
            <gpxtpx:hr>134</gpxtpx:hr>
          </gpxtpx:TrackPointExtension>
        </extensions>
      </trkpt>
      <trkpt lat="43.09557" lon="1.28524">
        <ele>466.6</ele>
        <time>2023-03-05T12:29:34Z</time>
        <extensions>
          <gpxtpx:TrackPointExtension xmlns:gpxtpx="http://www.garmin.com/xmlschemas/TrackPointExtension/v1">
            <gpxtpx:hr>134</gpxtpx:hr>
          </gpxtpx:TrackPointExtension>
        </extensions>
      </trkpt>
      <trkpt lat="43.09555" lon="1.28524">
        <ele>467.2</ele>
        <time>2023-03-05T12:29:35Z</time>
        <extensions>
          <gpxtpx:TrackPointExtension xmlns:gpxtpx="http://www.garmin.com/xmlschemas/TrackPointExtension/v1">
            <gpxtpx:hr>134</gpxtpx:hr>
          </gpxtpx:TrackPointExtension>
        </extensions>
      </trkpt>
      <trkpt lat="43.09547" lon="1.28526">
        <ele>467.2</ele>
        <time>2023-03-05T12:29:39Z</time>
        <extensions>
          <gpxtpx:TrackPointExtension xmlns:gpxtpx="http://www.garmin.com/xmlschemas/TrackPointExtension/v1">
            <gpxtpx:hr>133</gpxtpx:hr>
          </gpxtpx:TrackPointExtension>
        </extensions>
      </trkpt>
      <trkpt lat="43.09545" lon="1.28526">
        <ele>468</ele>
        <time>2023-03-05T12:29:40Z</time>
        <extensions>
          <gpxtpx:TrackPointExtension xmlns:gpxtpx="http://www.garmin.com/xmlschemas/TrackPointExtension/v1">
            <gpxtpx:hr>132</gpxtpx:hr>
          </gpxtpx:TrackPointExtension>
        </extensions>
      </trkpt>
      <trkpt lat="43.09544" lon="1.28526">
        <ele>468.4</ele>
        <time>2023-03-05T12:29:41Z</time>
        <extensions>
          <gpxtpx:TrackPointExtension xmlns:gpxtpx="http://www.garmin.com/xmlschemas/TrackPointExtension/v1">
            <gpxtpx:hr>132</gpxtpx:hr>
          </gpxtpx:TrackPointExtension>
        </extensions>
      </trkpt>
      <trkpt lat="43.09542" lon="1.28526">
        <ele>468.8</ele>
        <time>2023-03-05T12:29:42Z</time>
        <extensions>
          <gpxtpx:TrackPointExtension xmlns:gpxtpx="http://www.garmin.com/xmlschemas/TrackPointExtension/v1">
            <gpxtpx:hr>132</gpxtpx:hr>
          </gpxtpx:TrackPointExtension>
        </extensions>
      </trkpt>
      <trkpt lat="43.0954" lon="1.28526">
        <ele>469.2</ele>
        <time>2023-03-05T12:29:43Z</time>
        <extensions>
          <gpxtpx:TrackPointExtension xmlns:gpxtpx="http://www.garmin.com/xmlschemas/TrackPointExtension/v1">
            <gpxtpx:hr>132</gpxtpx:hr>
          </gpxtpx:TrackPointExtension>
        </extensions>
      </trkpt>
      <trkpt lat="43.09536" lon="1.28526">
        <ele>469.2</ele>
        <time>2023-03-05T12:29:45Z</time>
        <extensions>
          <gpxtpx:TrackPointExtension xmlns:gpxtpx="http://www.garmin.com/xmlschemas/TrackPointExtension/v1">
            <gpxtpx:hr>132</gpxtpx:hr>
          </gpxtpx:TrackPointExtension>
        </extensions>
      </trkpt>
      <trkpt lat="43.09531" lon="1.28527">
        <ele>469.6</ele>
        <time>2023-03-05T12:29:48Z</time>
        <extensions>
          <gpxtpx:TrackPointExtension xmlns:gpxtpx="http://www.garmin.com/xmlschemas/TrackPointExtension/v1">
            <gpxtpx:hr>132</gpxtpx:hr>
          </gpxtpx:TrackPointExtension>
        </extensions>
      </trkpt>
      <trkpt lat="43.0953" lon="1.28527">
        <ele>470</ele>
        <time>2023-03-05T12:29:49Z</time>
        <extensions>
          <gpxtpx:TrackPointExtension xmlns:gpxtpx="http://www.garmin.com/xmlschemas/TrackPointExtension/v1">
            <gpxtpx:hr>132</gpxtpx:hr>
          </gpxtpx:TrackPointExtension>
        </extensions>
      </trkpt>
      <trkpt lat="43.09528" lon="1.28527">
        <ele>470.4</ele>
        <time>2023-03-05T12:29:50Z</time>
        <extensions>
          <gpxtpx:TrackPointExtension xmlns:gpxtpx="http://www.garmin.com/xmlschemas/TrackPointExtension/v1">
            <gpxtpx:hr>132</gpxtpx:hr>
          </gpxtpx:TrackPointExtension>
        </extensions>
      </trkpt>
      <trkpt lat="43.09526" lon="1.28527">
        <ele>471</ele>
        <time>2023-03-05T12:29:51Z</time>
        <extensions>
          <gpxtpx:TrackPointExtension xmlns:gpxtpx="http://www.garmin.com/xmlschemas/TrackPointExtension/v1">
            <gpxtpx:hr>132</gpxtpx:hr>
          </gpxtpx:TrackPointExtension>
        </extensions>
      </trkpt>
      <trkpt lat="43.09525" lon="1.28527">
        <ele>471.4</ele>
        <time>2023-03-05T12:29:52Z</time>
        <extensions>
          <gpxtpx:TrackPointExtension xmlns:gpxtpx="http://www.garmin.com/xmlschemas/TrackPointExtension/v1">
            <gpxtpx:hr>132</gpxtpx:hr>
          </gpxtpx:TrackPointExtension>
        </extensions>
      </trkpt>
      <trkpt lat="43.09521" lon="1.28528">
        <ele>471.4</ele>
        <time>2023-03-05T12:29:54Z</time>
        <extensions>
          <gpxtpx:TrackPointExtension xmlns:gpxtpx="http://www.garmin.com/xmlschemas/TrackPointExtension/v1">
            <gpxtpx:hr>132</gpxtpx:hr>
          </gpxtpx:TrackPointExtension>
        </extensions>
      </trkpt>
      <trkpt lat="43.09517" lon="1.28529">
        <ele>471.8</ele>
        <time>2023-03-05T12:29:57Z</time>
        <extensions>
          <gpxtpx:TrackPointExtension xmlns:gpxtpx="http://www.garmin.com/xmlschemas/TrackPointExtension/v1">
            <gpxtpx:hr>132</gpxtpx:hr>
          </gpxtpx:TrackPointExtension>
        </extensions>
      </trkpt>
      <trkpt lat="43.09515" lon="1.28529">
        <ele>472.2</ele>
        <time>2023-03-05T12:29:58Z</time>
        <extensions>
          <gpxtpx:TrackPointExtension xmlns:gpxtpx="http://www.garmin.com/xmlschemas/TrackPointExtension/v1">
            <gpxtpx:hr>132</gpxtpx:hr>
          </gpxtpx:TrackPointExtension>
        </extensions>
      </trkpt>
      <trkpt lat="43.09512" lon="1.28529">
        <ele>472.6</ele>
        <time>2023-03-05T12:29:59Z</time>
        <extensions>
          <gpxtpx:TrackPointExtension xmlns:gpxtpx="http://www.garmin.com/xmlschemas/TrackPointExtension/v1">
            <gpxtpx:hr>132</gpxtpx:hr>
          </gpxtpx:TrackPointExtension>
        </extensions>
      </trkpt>
      <trkpt lat="43.0951" lon="1.2853">
        <ele>473</ele>
        <time>2023-03-05T12:30:00Z</time>
        <extensions>
          <gpxtpx:TrackPointExtension xmlns:gpxtpx="http://www.garmin.com/xmlschemas/TrackPointExtension/v1">
            <gpxtpx:hr>132</gpxtpx:hr>
          </gpxtpx:TrackPointExtension>
        </extensions>
      </trkpt>
      <trkpt lat="43.09508" lon="1.2853">
        <ele>473.4</ele>
        <time>2023-03-05T12:30:01Z</time>
        <extensions>
          <gpxtpx:TrackPointExtension xmlns:gpxtpx="http://www.garmin.com/xmlschemas/TrackPointExtension/v1">
            <gpxtpx:hr>131</gpxtpx:hr>
          </gpxtpx:TrackPointExtension>
        </extensions>
      </trkpt>
      <trkpt lat="43.09502" lon="1.28533">
        <ele>474.4</ele>
        <time>2023-03-05T12:30:05Z</time>
        <extensions>
          <gpxtpx:TrackPointExtension xmlns:gpxtpx="http://www.garmin.com/xmlschemas/TrackPointExtension/v1">
            <gpxtpx:hr>130</gpxtpx:hr>
          </gpxtpx:TrackPointExtension>
        </extensions>
      </trkpt>
      <trkpt lat="43.09501" lon="1.28534">
        <ele>474.8</ele>
        <time>2023-03-05T12:30:06Z</time>
        <extensions>
          <gpxtpx:TrackPointExtension xmlns:gpxtpx="http://www.garmin.com/xmlschemas/TrackPointExtension/v1">
            <gpxtpx:hr>130</gpxtpx:hr>
          </gpxtpx:TrackPointExtension>
        </extensions>
      </trkpt>
      <trkpt lat="43.09499" lon="1.28534">
        <ele>475.2</ele>
        <time>2023-03-05T12:30:07Z</time>
        <extensions>
          <gpxtpx:TrackPointExtension xmlns:gpxtpx="http://www.garmin.com/xmlschemas/TrackPointExtension/v1">
            <gpxtpx:hr>130</gpxtpx:hr>
          </gpxtpx:TrackPointExtension>
        </extensions>
      </trkpt>
      <trkpt lat="43.09497" lon="1.28535">
        <ele>475.6</ele>
        <time>2023-03-05T12:30:08Z</time>
        <extensions>
          <gpxtpx:TrackPointExtension xmlns:gpxtpx="http://www.garmin.com/xmlschemas/TrackPointExtension/v1">
            <gpxtpx:hr>130</gpxtpx:hr>
          </gpxtpx:TrackPointExtension>
        </extensions>
      </trkpt>
      <trkpt lat="43.09493" lon="1.28537">
        <ele>475.6</ele>
        <time>2023-03-05T12:30:11Z</time>
        <extensions>
          <gpxtpx:TrackPointExtension xmlns:gpxtpx="http://www.garmin.com/xmlschemas/TrackPointExtension/v1">
            <gpxtpx:hr>130</gpxtpx:hr>
          </gpxtpx:TrackPointExtension>
        </extensions>
      </trkpt>
      <trkpt lat="43.0949" lon="1.28538">
        <ele>476</ele>
        <time>2023-03-05T12:30:13Z</time>
        <extensions>
          <gpxtpx:TrackPointExtension xmlns:gpxtpx="http://www.garmin.com/xmlschemas/TrackPointExtension/v1">
            <gpxtpx:hr>130</gpxtpx:hr>
          </gpxtpx:TrackPointExtension>
        </extensions>
      </trkpt>
      <trkpt lat="43.09488" lon="1.28538">
        <ele>476.4</ele>
        <time>2023-03-05T12:30:14Z</time>
        <extensions>
          <gpxtpx:TrackPointExtension xmlns:gpxtpx="http://www.garmin.com/xmlschemas/TrackPointExtension/v1">
            <gpxtpx:hr>130</gpxtpx:hr>
          </gpxtpx:TrackPointExtension>
        </extensions>
      </trkpt>
      <trkpt lat="43.09486" lon="1.28539">
        <ele>476.8</ele>
        <time>2023-03-05T12:30:15Z</time>
        <extensions>
          <gpxtpx:TrackPointExtension xmlns:gpxtpx="http://www.garmin.com/xmlschemas/TrackPointExtension/v1">
            <gpxtpx:hr>130</gpxtpx:hr>
          </gpxtpx:TrackPointExtension>
        </extensions>
      </trkpt>
      <trkpt lat="43.09485" lon="1.2854">
        <ele>477.2</ele>
        <time>2023-03-05T12:30:16Z</time>
        <extensions>
          <gpxtpx:TrackPointExtension xmlns:gpxtpx="http://www.garmin.com/xmlschemas/TrackPointExtension/v1">
            <gpxtpx:hr>130</gpxtpx:hr>
          </gpxtpx:TrackPointExtension>
        </extensions>
      </trkpt>
      <trkpt lat="43.09483" lon="1.28541">
        <ele>477.6</ele>
        <time>2023-03-05T12:30:17Z</time>
        <extensions>
          <gpxtpx:TrackPointExtension xmlns:gpxtpx="http://www.garmin.com/xmlschemas/TrackPointExtension/v1">
            <gpxtpx:hr>129</gpxtpx:hr>
          </gpxtpx:TrackPointExtension>
        </extensions>
      </trkpt>
      <trkpt lat="43.09477" lon="1.28542">
        <ele>477.6</ele>
        <time>2023-03-05T12:30:20Z</time>
        <extensions>
          <gpxtpx:TrackPointExtension xmlns:gpxtpx="http://www.garmin.com/xmlschemas/TrackPointExtension/v1">
            <gpxtpx:hr>129</gpxtpx:hr>
          </gpxtpx:TrackPointExtension>
        </extensions>
      </trkpt>
      <trkpt lat="43.09465" lon="1.28544">
        <ele>477.6</ele>
        <time>2023-03-05T12:30:26Z</time>
        <extensions>
          <gpxtpx:TrackPointExtension xmlns:gpxtpx="http://www.garmin.com/xmlschemas/TrackPointExtension/v1">
            <gpxtpx:hr>129</gpxtpx:hr>
          </gpxtpx:TrackPointExtension>
        </extensions>
      </trkpt>
      <trkpt lat="43.09459" lon="1.28545">
        <ele>478.4</ele>
        <time>2023-03-05T12:30:29Z</time>
        <extensions>
          <gpxtpx:TrackPointExtension xmlns:gpxtpx="http://www.garmin.com/xmlschemas/TrackPointExtension/v1">
            <gpxtpx:hr>130</gpxtpx:hr>
          </gpxtpx:TrackPointExtension>
        </extensions>
      </trkpt>
      <trkpt lat="43.09457" lon="1.28546">
        <ele>478.8</ele>
        <time>2023-03-05T12:30:30Z</time>
        <extensions>
          <gpxtpx:TrackPointExtension xmlns:gpxtpx="http://www.garmin.com/xmlschemas/TrackPointExtension/v1">
            <gpxtpx:hr>130</gpxtpx:hr>
          </gpxtpx:TrackPointExtension>
        </extensions>
      </trkpt>
      <trkpt lat="43.09455" lon="1.28546">
        <ele>479.2</ele>
        <time>2023-03-05T12:30:31Z</time>
        <extensions>
          <gpxtpx:TrackPointExtension xmlns:gpxtpx="http://www.garmin.com/xmlschemas/TrackPointExtension/v1">
            <gpxtpx:hr>130</gpxtpx:hr>
          </gpxtpx:TrackPointExtension>
        </extensions>
      </trkpt>
      <trkpt lat="43.09453" lon="1.28546">
        <ele>479.6</ele>
        <time>2023-03-05T12:30:32Z</time>
        <extensions>
          <gpxtpx:TrackPointExtension xmlns:gpxtpx="http://www.garmin.com/xmlschemas/TrackPointExtension/v1">
            <gpxtpx:hr>131</gpxtpx:hr>
          </gpxtpx:TrackPointExtension>
        </extensions>
      </trkpt>
      <trkpt lat="43.09443" lon="1.28546">
        <ele>479.6</ele>
        <time>2023-03-05T12:30:37Z</time>
        <extensions>
          <gpxtpx:TrackPointExtension xmlns:gpxtpx="http://www.garmin.com/xmlschemas/TrackPointExtension/v1">
            <gpxtpx:hr>129</gpxtpx:hr>
          </gpxtpx:TrackPointExtension>
        </extensions>
      </trkpt>
      <trkpt lat="43.09441" lon="1.28546">
        <ele>479.6</ele>
        <time>2023-03-05T12:30:38Z</time>
        <extensions>
          <gpxtpx:TrackPointExtension xmlns:gpxtpx="http://www.garmin.com/xmlschemas/TrackPointExtension/v1">
            <gpxtpx:hr>129</gpxtpx:hr>
          </gpxtpx:TrackPointExtension>
        </extensions>
      </trkpt>
      <trkpt lat="43.0944" lon="1.28546">
        <ele>480</ele>
        <time>2023-03-05T12:30:39Z</time>
        <extensions>
          <gpxtpx:TrackPointExtension xmlns:gpxtpx="http://www.garmin.com/xmlschemas/TrackPointExtension/v1">
            <gpxtpx:hr>129</gpxtpx:hr>
          </gpxtpx:TrackPointExtension>
        </extensions>
      </trkpt>
      <trkpt lat="43.09438" lon="1.28546">
        <ele>480.4</ele>
        <time>2023-03-05T12:30:40Z</time>
        <extensions>
          <gpxtpx:TrackPointExtension xmlns:gpxtpx="http://www.garmin.com/xmlschemas/TrackPointExtension/v1">
            <gpxtpx:hr>129</gpxtpx:hr>
          </gpxtpx:TrackPointExtension>
        </extensions>
      </trkpt>
      <trkpt lat="43.09436" lon="1.28547">
        <ele>480.8</ele>
        <time>2023-03-05T12:30:41Z</time>
        <extensions>
          <gpxtpx:TrackPointExtension xmlns:gpxtpx="http://www.garmin.com/xmlschemas/TrackPointExtension/v1">
            <gpxtpx:hr>129</gpxtpx:hr>
          </gpxtpx:TrackPointExtension>
        </extensions>
      </trkpt>
      <trkpt lat="43.09435" lon="1.28548">
        <ele>481.2</ele>
        <time>2023-03-05T12:30:42Z</time>
        <extensions>
          <gpxtpx:TrackPointExtension xmlns:gpxtpx="http://www.garmin.com/xmlschemas/TrackPointExtension/v1">
            <gpxtpx:hr>129</gpxtpx:hr>
          </gpxtpx:TrackPointExtension>
        </extensions>
      </trkpt>
      <trkpt lat="43.09433" lon="1.28548">
        <ele>481.6</ele>
        <time>2023-03-05T12:30:43Z</time>
        <extensions>
          <gpxtpx:TrackPointExtension xmlns:gpxtpx="http://www.garmin.com/xmlschemas/TrackPointExtension/v1">
            <gpxtpx:hr>129</gpxtpx:hr>
          </gpxtpx:TrackPointExtension>
        </extensions>
      </trkpt>
      <trkpt lat="43.09431" lon="1.28549">
        <ele>481.6</ele>
        <time>2023-03-05T12:30:44Z</time>
        <extensions>
          <gpxtpx:TrackPointExtension xmlns:gpxtpx="http://www.garmin.com/xmlschemas/TrackPointExtension/v1">
            <gpxtpx:hr>129</gpxtpx:hr>
          </gpxtpx:TrackPointExtension>
        </extensions>
      </trkpt>
      <trkpt lat="43.09427" lon="1.2855">
        <ele>482.2</ele>
        <time>2023-03-05T12:30:46Z</time>
        <extensions>
          <gpxtpx:TrackPointExtension xmlns:gpxtpx="http://www.garmin.com/xmlschemas/TrackPointExtension/v1">
            <gpxtpx:hr>129</gpxtpx:hr>
          </gpxtpx:TrackPointExtension>
        </extensions>
      </trkpt>
      <trkpt lat="43.09425" lon="1.2855">
        <ele>482.6</ele>
        <time>2023-03-05T12:30:47Z</time>
        <extensions>
          <gpxtpx:TrackPointExtension xmlns:gpxtpx="http://www.garmin.com/xmlschemas/TrackPointExtension/v1">
            <gpxtpx:hr>129</gpxtpx:hr>
          </gpxtpx:TrackPointExtension>
        </extensions>
      </trkpt>
      <trkpt lat="43.09423" lon="1.2855">
        <ele>483.2</ele>
        <time>2023-03-05T12:30:48Z</time>
        <extensions>
          <gpxtpx:TrackPointExtension xmlns:gpxtpx="http://www.garmin.com/xmlschemas/TrackPointExtension/v1">
            <gpxtpx:hr>129</gpxtpx:hr>
          </gpxtpx:TrackPointExtension>
        </extensions>
      </trkpt>
      <trkpt lat="43.09421" lon="1.28551">
        <ele>483.6</ele>
        <time>2023-03-05T12:30:49Z</time>
        <extensions>
          <gpxtpx:TrackPointExtension xmlns:gpxtpx="http://www.garmin.com/xmlschemas/TrackPointExtension/v1">
            <gpxtpx:hr>129</gpxtpx:hr>
          </gpxtpx:TrackPointExtension>
        </extensions>
      </trkpt>
      <trkpt lat="43.0942" lon="1.28552">
        <ele>484</ele>
        <time>2023-03-05T12:30:50Z</time>
        <extensions>
          <gpxtpx:TrackPointExtension xmlns:gpxtpx="http://www.garmin.com/xmlschemas/TrackPointExtension/v1">
            <gpxtpx:hr>129</gpxtpx:hr>
          </gpxtpx:TrackPointExtension>
        </extensions>
      </trkpt>
      <trkpt lat="43.09419" lon="1.28553">
        <ele>484.6</ele>
        <time>2023-03-05T12:30:51Z</time>
        <extensions>
          <gpxtpx:TrackPointExtension xmlns:gpxtpx="http://www.garmin.com/xmlschemas/TrackPointExtension/v1">
            <gpxtpx:hr>128</gpxtpx:hr>
          </gpxtpx:TrackPointExtension>
        </extensions>
      </trkpt>
      <trkpt lat="43.09418" lon="1.28554">
        <ele>485</ele>
        <time>2023-03-05T12:30:52Z</time>
        <extensions>
          <gpxtpx:TrackPointExtension xmlns:gpxtpx="http://www.garmin.com/xmlschemas/TrackPointExtension/v1">
            <gpxtpx:hr>128</gpxtpx:hr>
          </gpxtpx:TrackPointExtension>
        </extensions>
      </trkpt>
      <trkpt lat="43.09416" lon="1.28554">
        <ele>485.4</ele>
        <time>2023-03-05T12:30:53Z</time>
        <extensions>
          <gpxtpx:TrackPointExtension xmlns:gpxtpx="http://www.garmin.com/xmlschemas/TrackPointExtension/v1">
            <gpxtpx:hr>128</gpxtpx:hr>
          </gpxtpx:TrackPointExtension>
        </extensions>
      </trkpt>
      <trkpt lat="43.09415" lon="1.28555">
        <ele>486.4</ele>
        <time>2023-03-05T12:30:54Z</time>
        <extensions>
          <gpxtpx:TrackPointExtension xmlns:gpxtpx="http://www.garmin.com/xmlschemas/TrackPointExtension/v1">
            <gpxtpx:hr>128</gpxtpx:hr>
          </gpxtpx:TrackPointExtension>
        </extensions>
      </trkpt>
      <trkpt lat="43.09414" lon="1.28556">
        <ele>486.8</ele>
        <time>2023-03-05T12:30:55Z</time>
        <extensions>
          <gpxtpx:TrackPointExtension xmlns:gpxtpx="http://www.garmin.com/xmlschemas/TrackPointExtension/v1">
            <gpxtpx:hr>128</gpxtpx:hr>
          </gpxtpx:TrackPointExtension>
        </extensions>
      </trkpt>
      <trkpt lat="43.09413" lon="1.28557">
        <ele>487.2</ele>
        <time>2023-03-05T12:30:56Z</time>
        <extensions>
          <gpxtpx:TrackPointExtension xmlns:gpxtpx="http://www.garmin.com/xmlschemas/TrackPointExtension/v1">
            <gpxtpx:hr>129</gpxtpx:hr>
          </gpxtpx:TrackPointExtension>
        </extensions>
      </trkpt>
      <trkpt lat="43.09412" lon="1.28558">
        <ele>487.6</ele>
        <time>2023-03-05T12:30:57Z</time>
        <extensions>
          <gpxtpx:TrackPointExtension xmlns:gpxtpx="http://www.garmin.com/xmlschemas/TrackPointExtension/v1">
            <gpxtpx:hr>129</gpxtpx:hr>
          </gpxtpx:TrackPointExtension>
        </extensions>
      </trkpt>
      <trkpt lat="43.09412" lon="1.2856">
        <ele>488</ele>
        <time>2023-03-05T12:30:58Z</time>
        <extensions>
          <gpxtpx:TrackPointExtension xmlns:gpxtpx="http://www.garmin.com/xmlschemas/TrackPointExtension/v1">
            <gpxtpx:hr>129</gpxtpx:hr>
          </gpxtpx:TrackPointExtension>
        </extensions>
      </trkpt>
      <trkpt lat="43.09411" lon="1.28561">
        <ele>488.4</ele>
        <time>2023-03-05T12:30:59Z</time>
        <extensions>
          <gpxtpx:TrackPointExtension xmlns:gpxtpx="http://www.garmin.com/xmlschemas/TrackPointExtension/v1">
            <gpxtpx:hr>128</gpxtpx:hr>
          </gpxtpx:TrackPointExtension>
        </extensions>
      </trkpt>
      <trkpt lat="43.0941" lon="1.28562">
        <ele>488.8</ele>
        <time>2023-03-05T12:31:00Z</time>
        <extensions>
          <gpxtpx:TrackPointExtension xmlns:gpxtpx="http://www.garmin.com/xmlschemas/TrackPointExtension/v1">
            <gpxtpx:hr>129</gpxtpx:hr>
          </gpxtpx:TrackPointExtension>
        </extensions>
      </trkpt>
      <trkpt lat="43.0941" lon="1.28563">
        <ele>489.2</ele>
        <time>2023-03-05T12:31:01Z</time>
        <extensions>
          <gpxtpx:TrackPointExtension xmlns:gpxtpx="http://www.garmin.com/xmlschemas/TrackPointExtension/v1">
            <gpxtpx:hr>129</gpxtpx:hr>
          </gpxtpx:TrackPointExtension>
        </extensions>
      </trkpt>
      <trkpt lat="43.09409" lon="1.28565">
        <ele>489.6</ele>
        <time>2023-03-05T12:31:02Z</time>
        <extensions>
          <gpxtpx:TrackPointExtension xmlns:gpxtpx="http://www.garmin.com/xmlschemas/TrackPointExtension/v1">
            <gpxtpx:hr>129</gpxtpx:hr>
          </gpxtpx:TrackPointExtension>
        </extensions>
      </trkpt>
      <trkpt lat="43.09408" lon="1.28566">
        <ele>490</ele>
        <time>2023-03-05T12:31:03Z</time>
        <extensions>
          <gpxtpx:TrackPointExtension xmlns:gpxtpx="http://www.garmin.com/xmlschemas/TrackPointExtension/v1">
            <gpxtpx:hr>129</gpxtpx:hr>
          </gpxtpx:TrackPointExtension>
        </extensions>
      </trkpt>
      <trkpt lat="43.09408" lon="1.28567">
        <ele>490.4</ele>
        <time>2023-03-05T12:31:04Z</time>
        <extensions>
          <gpxtpx:TrackPointExtension xmlns:gpxtpx="http://www.garmin.com/xmlschemas/TrackPointExtension/v1">
            <gpxtpx:hr>129</gpxtpx:hr>
          </gpxtpx:TrackPointExtension>
        </extensions>
      </trkpt>
      <trkpt lat="43.09406" lon="1.28569">
        <ele>491</ele>
        <time>2023-03-05T12:31:06Z</time>
        <extensions>
          <gpxtpx:TrackPointExtension xmlns:gpxtpx="http://www.garmin.com/xmlschemas/TrackPointExtension/v1">
            <gpxtpx:hr>130</gpxtpx:hr>
          </gpxtpx:TrackPointExtension>
        </extensions>
      </trkpt>
      <trkpt lat="43.09406" lon="1.2857">
        <ele>491.4</ele>
        <time>2023-03-05T12:31:07Z</time>
        <extensions>
          <gpxtpx:TrackPointExtension xmlns:gpxtpx="http://www.garmin.com/xmlschemas/TrackPointExtension/v1">
            <gpxtpx:hr>131</gpxtpx:hr>
          </gpxtpx:TrackPointExtension>
        </extensions>
      </trkpt>
      <trkpt lat="43.09405" lon="1.28571">
        <ele>491.8</ele>
        <time>2023-03-05T12:31:08Z</time>
        <extensions>
          <gpxtpx:TrackPointExtension xmlns:gpxtpx="http://www.garmin.com/xmlschemas/TrackPointExtension/v1">
            <gpxtpx:hr>131</gpxtpx:hr>
          </gpxtpx:TrackPointExtension>
        </extensions>
      </trkpt>
      <trkpt lat="43.09404" lon="1.28573">
        <ele>492.4</ele>
        <time>2023-03-05T12:31:09Z</time>
        <extensions>
          <gpxtpx:TrackPointExtension xmlns:gpxtpx="http://www.garmin.com/xmlschemas/TrackPointExtension/v1">
            <gpxtpx:hr>132</gpxtpx:hr>
          </gpxtpx:TrackPointExtension>
        </extensions>
      </trkpt>
      <trkpt lat="43.09404" lon="1.28574">
        <ele>492.8</ele>
        <time>2023-03-05T12:31:10Z</time>
        <extensions>
          <gpxtpx:TrackPointExtension xmlns:gpxtpx="http://www.garmin.com/xmlschemas/TrackPointExtension/v1">
            <gpxtpx:hr>132</gpxtpx:hr>
          </gpxtpx:TrackPointExtension>
        </extensions>
      </trkpt>
      <trkpt lat="43.09403" lon="1.28576">
        <ele>492.8</ele>
        <time>2023-03-05T12:31:11Z</time>
        <extensions>
          <gpxtpx:TrackPointExtension xmlns:gpxtpx="http://www.garmin.com/xmlschemas/TrackPointExtension/v1">
            <gpxtpx:hr>132</gpxtpx:hr>
          </gpxtpx:TrackPointExtension>
        </extensions>
      </trkpt>
      <trkpt lat="43.09403" lon="1.28578">
        <ele>493.2</ele>
        <time>2023-03-05T12:31:12Z</time>
        <extensions>
          <gpxtpx:TrackPointExtension xmlns:gpxtpx="http://www.garmin.com/xmlschemas/TrackPointExtension/v1">
            <gpxtpx:hr>132</gpxtpx:hr>
          </gpxtpx:TrackPointExtension>
        </extensions>
      </trkpt>
      <trkpt lat="43.09402" lon="1.2858">
        <ele>493.6</ele>
        <time>2023-03-05T12:31:13Z</time>
        <extensions>
          <gpxtpx:TrackPointExtension xmlns:gpxtpx="http://www.garmin.com/xmlschemas/TrackPointExtension/v1">
            <gpxtpx:hr>132</gpxtpx:hr>
          </gpxtpx:TrackPointExtension>
        </extensions>
      </trkpt>
      <trkpt lat="43.09402" lon="1.28582">
        <ele>494</ele>
        <time>2023-03-05T12:31:14Z</time>
        <extensions>
          <gpxtpx:TrackPointExtension xmlns:gpxtpx="http://www.garmin.com/xmlschemas/TrackPointExtension/v1">
            <gpxtpx:hr>132</gpxtpx:hr>
          </gpxtpx:TrackPointExtension>
        </extensions>
      </trkpt>
      <trkpt lat="43.09401" lon="1.28583">
        <ele>494.6</ele>
        <time>2023-03-05T12:31:15Z</time>
        <extensions>
          <gpxtpx:TrackPointExtension xmlns:gpxtpx="http://www.garmin.com/xmlschemas/TrackPointExtension/v1">
            <gpxtpx:hr>132</gpxtpx:hr>
          </gpxtpx:TrackPointExtension>
        </extensions>
      </trkpt>
      <trkpt lat="43.094" lon="1.28584">
        <ele>495</ele>
        <time>2023-03-05T12:31:16Z</time>
        <extensions>
          <gpxtpx:TrackPointExtension xmlns:gpxtpx="http://www.garmin.com/xmlschemas/TrackPointExtension/v1">
            <gpxtpx:hr>132</gpxtpx:hr>
          </gpxtpx:TrackPointExtension>
        </extensions>
      </trkpt>
      <trkpt lat="43.09399" lon="1.28585">
        <ele>495</ele>
        <time>2023-03-05T12:31:17Z</time>
        <extensions>
          <gpxtpx:TrackPointExtension xmlns:gpxtpx="http://www.garmin.com/xmlschemas/TrackPointExtension/v1">
            <gpxtpx:hr>132</gpxtpx:hr>
          </gpxtpx:TrackPointExtension>
        </extensions>
      </trkpt>
      <trkpt lat="43.09399" lon="1.28586">
        <ele>495</ele>
        <time>2023-03-05T12:31:18Z</time>
        <extensions>
          <gpxtpx:TrackPointExtension xmlns:gpxtpx="http://www.garmin.com/xmlschemas/TrackPointExtension/v1">
            <gpxtpx:hr>132</gpxtpx:hr>
          </gpxtpx:TrackPointExtension>
        </extensions>
      </trkpt>
      <trkpt lat="43.09399" lon="1.28588">
        <ele>495.8</ele>
        <time>2023-03-05T12:31:19Z</time>
        <extensions>
          <gpxtpx:TrackPointExtension xmlns:gpxtpx="http://www.garmin.com/xmlschemas/TrackPointExtension/v1">
            <gpxtpx:hr>132</gpxtpx:hr>
          </gpxtpx:TrackPointExtension>
        </extensions>
      </trkpt>
      <trkpt lat="43.09398" lon="1.2859">
        <ele>496.4</ele>
        <time>2023-03-05T12:31:20Z</time>
        <extensions>
          <gpxtpx:TrackPointExtension xmlns:gpxtpx="http://www.garmin.com/xmlschemas/TrackPointExtension/v1">
            <gpxtpx:hr>133</gpxtpx:hr>
          </gpxtpx:TrackPointExtension>
        </extensions>
      </trkpt>
      <trkpt lat="43.09398" lon="1.28591">
        <ele>496.8</ele>
        <time>2023-03-05T12:31:21Z</time>
        <extensions>
          <gpxtpx:TrackPointExtension xmlns:gpxtpx="http://www.garmin.com/xmlschemas/TrackPointExtension/v1">
            <gpxtpx:hr>132</gpxtpx:hr>
          </gpxtpx:TrackPointExtension>
        </extensions>
      </trkpt>
      <trkpt lat="43.09397" lon="1.28593">
        <ele>497.4</ele>
        <time>2023-03-05T12:31:22Z</time>
        <extensions>
          <gpxtpx:TrackPointExtension xmlns:gpxtpx="http://www.garmin.com/xmlschemas/TrackPointExtension/v1">
            <gpxtpx:hr>133</gpxtpx:hr>
          </gpxtpx:TrackPointExtension>
        </extensions>
      </trkpt>
      <trkpt lat="43.09396" lon="1.28594">
        <ele>497.4</ele>
        <time>2023-03-05T12:31:23Z</time>
        <extensions>
          <gpxtpx:TrackPointExtension xmlns:gpxtpx="http://www.garmin.com/xmlschemas/TrackPointExtension/v1">
            <gpxtpx:hr>132</gpxtpx:hr>
          </gpxtpx:TrackPointExtension>
        </extensions>
      </trkpt>
      <trkpt lat="43.09395" lon="1.28596">
        <ele>497.8</ele>
        <time>2023-03-05T12:31:24Z</time>
        <extensions>
          <gpxtpx:TrackPointExtension xmlns:gpxtpx="http://www.garmin.com/xmlschemas/TrackPointExtension/v1">
            <gpxtpx:hr>132</gpxtpx:hr>
          </gpxtpx:TrackPointExtension>
        </extensions>
      </trkpt>
      <trkpt lat="43.09394" lon="1.28597">
        <ele>498.2</ele>
        <time>2023-03-05T12:31:25Z</time>
        <extensions>
          <gpxtpx:TrackPointExtension xmlns:gpxtpx="http://www.garmin.com/xmlschemas/TrackPointExtension/v1">
            <gpxtpx:hr>132</gpxtpx:hr>
          </gpxtpx:TrackPointExtension>
        </extensions>
      </trkpt>
      <trkpt lat="43.09394" lon="1.28599">
        <ele>498.8</ele>
        <time>2023-03-05T12:31:26Z</time>
        <extensions>
          <gpxtpx:TrackPointExtension xmlns:gpxtpx="http://www.garmin.com/xmlschemas/TrackPointExtension/v1">
            <gpxtpx:hr>132</gpxtpx:hr>
          </gpxtpx:TrackPointExtension>
        </extensions>
      </trkpt>
      <trkpt lat="43.09393" lon="1.28601">
        <ele>499.2</ele>
        <time>2023-03-05T12:31:27Z</time>
        <extensions>
          <gpxtpx:TrackPointExtension xmlns:gpxtpx="http://www.garmin.com/xmlschemas/TrackPointExtension/v1">
            <gpxtpx:hr>132</gpxtpx:hr>
          </gpxtpx:TrackPointExtension>
        </extensions>
      </trkpt>
      <trkpt lat="43.09392" lon="1.28602">
        <ele>499.6</ele>
        <time>2023-03-05T12:31:28Z</time>
        <extensions>
          <gpxtpx:TrackPointExtension xmlns:gpxtpx="http://www.garmin.com/xmlschemas/TrackPointExtension/v1">
            <gpxtpx:hr>132</gpxtpx:hr>
          </gpxtpx:TrackPointExtension>
        </extensions>
      </trkpt>
      <trkpt lat="43.09392" lon="1.28604">
        <ele>499.6</ele>
        <time>2023-03-05T12:31:29Z</time>
        <extensions>
          <gpxtpx:TrackPointExtension xmlns:gpxtpx="http://www.garmin.com/xmlschemas/TrackPointExtension/v1">
            <gpxtpx:hr>133</gpxtpx:hr>
          </gpxtpx:TrackPointExtension>
        </extensions>
      </trkpt>
      <trkpt lat="43.09391" lon="1.28606">
        <ele>500</ele>
        <time>2023-03-05T12:31:30Z</time>
        <extensions>
          <gpxtpx:TrackPointExtension xmlns:gpxtpx="http://www.garmin.com/xmlschemas/TrackPointExtension/v1">
            <gpxtpx:hr>133</gpxtpx:hr>
          </gpxtpx:TrackPointExtension>
        </extensions>
      </trkpt>
      <trkpt lat="43.0939" lon="1.28608">
        <ele>500.4</ele>
        <time>2023-03-05T12:31:31Z</time>
        <extensions>
          <gpxtpx:TrackPointExtension xmlns:gpxtpx="http://www.garmin.com/xmlschemas/TrackPointExtension/v1">
            <gpxtpx:hr>133</gpxtpx:hr>
          </gpxtpx:TrackPointExtension>
        </extensions>
      </trkpt>
      <trkpt lat="43.09389" lon="1.28609">
        <ele>500.8</ele>
        <time>2023-03-05T12:31:32Z</time>
        <extensions>
          <gpxtpx:TrackPointExtension xmlns:gpxtpx="http://www.garmin.com/xmlschemas/TrackPointExtension/v1">
            <gpxtpx:hr>133</gpxtpx:hr>
          </gpxtpx:TrackPointExtension>
        </extensions>
      </trkpt>
      <trkpt lat="43.09389" lon="1.2861">
        <ele>501.4</ele>
        <time>2023-03-05T12:31:33Z</time>
        <extensions>
          <gpxtpx:TrackPointExtension xmlns:gpxtpx="http://www.garmin.com/xmlschemas/TrackPointExtension/v1">
            <gpxtpx:hr>133</gpxtpx:hr>
          </gpxtpx:TrackPointExtension>
        </extensions>
      </trkpt>
      <trkpt lat="43.09389" lon="1.28612">
        <ele>501.8</ele>
        <time>2023-03-05T12:31:34Z</time>
        <extensions>
          <gpxtpx:TrackPointExtension xmlns:gpxtpx="http://www.garmin.com/xmlschemas/TrackPointExtension/v1">
            <gpxtpx:hr>133</gpxtpx:hr>
          </gpxtpx:TrackPointExtension>
        </extensions>
      </trkpt>
      <trkpt lat="43.09388" lon="1.28613">
        <ele>501.8</ele>
        <time>2023-03-05T12:31:35Z</time>
        <extensions>
          <gpxtpx:TrackPointExtension xmlns:gpxtpx="http://www.garmin.com/xmlschemas/TrackPointExtension/v1">
            <gpxtpx:hr>133</gpxtpx:hr>
          </gpxtpx:TrackPointExtension>
        </extensions>
      </trkpt>
      <trkpt lat="43.09387" lon="1.28618">
        <ele>502.2</ele>
        <time>2023-03-05T12:31:38Z</time>
        <extensions>
          <gpxtpx:TrackPointExtension xmlns:gpxtpx="http://www.garmin.com/xmlschemas/TrackPointExtension/v1">
            <gpxtpx:hr>133</gpxtpx:hr>
          </gpxtpx:TrackPointExtension>
        </extensions>
      </trkpt>
      <trkpt lat="43.09386" lon="1.2862">
        <ele>502.6</ele>
        <time>2023-03-05T12:31:39Z</time>
        <extensions>
          <gpxtpx:TrackPointExtension xmlns:gpxtpx="http://www.garmin.com/xmlschemas/TrackPointExtension/v1">
            <gpxtpx:hr>133</gpxtpx:hr>
          </gpxtpx:TrackPointExtension>
        </extensions>
      </trkpt>
      <trkpt lat="43.09386" lon="1.28622">
        <ele>503</ele>
        <time>2023-03-05T12:31:40Z</time>
        <extensions>
          <gpxtpx:TrackPointExtension xmlns:gpxtpx="http://www.garmin.com/xmlschemas/TrackPointExtension/v1">
            <gpxtpx:hr>133</gpxtpx:hr>
          </gpxtpx:TrackPointExtension>
        </extensions>
      </trkpt>
      <trkpt lat="43.09385" lon="1.28624">
        <ele>503.6</ele>
        <time>2023-03-05T12:31:41Z</time>
        <extensions>
          <gpxtpx:TrackPointExtension xmlns:gpxtpx="http://www.garmin.com/xmlschemas/TrackPointExtension/v1">
            <gpxtpx:hr>134</gpxtpx:hr>
          </gpxtpx:TrackPointExtension>
        </extensions>
      </trkpt>
      <trkpt lat="43.09386" lon="1.28626">
        <ele>504</ele>
        <time>2023-03-05T12:31:42Z</time>
        <extensions>
          <gpxtpx:TrackPointExtension xmlns:gpxtpx="http://www.garmin.com/xmlschemas/TrackPointExtension/v1">
            <gpxtpx:hr>134</gpxtpx:hr>
          </gpxtpx:TrackPointExtension>
        </extensions>
      </trkpt>
      <trkpt lat="43.09386" lon="1.2863">
        <ele>504.4</ele>
        <time>2023-03-05T12:31:44Z</time>
        <extensions>
          <gpxtpx:TrackPointExtension xmlns:gpxtpx="http://www.garmin.com/xmlschemas/TrackPointExtension/v1">
            <gpxtpx:hr>134</gpxtpx:hr>
          </gpxtpx:TrackPointExtension>
        </extensions>
      </trkpt>
      <trkpt lat="43.09385" lon="1.28632">
        <ele>505</ele>
        <time>2023-03-05T12:31:45Z</time>
        <extensions>
          <gpxtpx:TrackPointExtension xmlns:gpxtpx="http://www.garmin.com/xmlschemas/TrackPointExtension/v1">
            <gpxtpx:hr>134</gpxtpx:hr>
          </gpxtpx:TrackPointExtension>
        </extensions>
      </trkpt>
      <trkpt lat="43.09385" lon="1.28634">
        <ele>505.4</ele>
        <time>2023-03-05T12:31:46Z</time>
        <extensions>
          <gpxtpx:TrackPointExtension xmlns:gpxtpx="http://www.garmin.com/xmlschemas/TrackPointExtension/v1">
            <gpxtpx:hr>133</gpxtpx:hr>
          </gpxtpx:TrackPointExtension>
        </extensions>
      </trkpt>
      <trkpt lat="43.09385" lon="1.28635">
        <ele>505.8</ele>
        <time>2023-03-05T12:31:47Z</time>
        <extensions>
          <gpxtpx:TrackPointExtension xmlns:gpxtpx="http://www.garmin.com/xmlschemas/TrackPointExtension/v1">
            <gpxtpx:hr>134</gpxtpx:hr>
          </gpxtpx:TrackPointExtension>
        </extensions>
      </trkpt>
      <trkpt lat="43.09384" lon="1.28637">
        <ele>506.2</ele>
        <time>2023-03-05T12:31:48Z</time>
        <extensions>
          <gpxtpx:TrackPointExtension xmlns:gpxtpx="http://www.garmin.com/xmlschemas/TrackPointExtension/v1">
            <gpxtpx:hr>134</gpxtpx:hr>
          </gpxtpx:TrackPointExtension>
        </extensions>
      </trkpt>
      <trkpt lat="43.09384" lon="1.28638">
        <ele>506.2</ele>
        <time>2023-03-05T12:31:49Z</time>
        <extensions>
          <gpxtpx:TrackPointExtension xmlns:gpxtpx="http://www.garmin.com/xmlschemas/TrackPointExtension/v1">
            <gpxtpx:hr>134</gpxtpx:hr>
          </gpxtpx:TrackPointExtension>
        </extensions>
      </trkpt>
      <trkpt lat="43.09382" lon="1.28641">
        <ele>506.6</ele>
        <time>2023-03-05T12:31:51Z</time>
        <extensions>
          <gpxtpx:TrackPointExtension xmlns:gpxtpx="http://www.garmin.com/xmlschemas/TrackPointExtension/v1">
            <gpxtpx:hr>135</gpxtpx:hr>
          </gpxtpx:TrackPointExtension>
        </extensions>
      </trkpt>
      <trkpt lat="43.09381" lon="1.28643">
        <ele>507</ele>
        <time>2023-03-05T12:31:52Z</time>
        <extensions>
          <gpxtpx:TrackPointExtension xmlns:gpxtpx="http://www.garmin.com/xmlschemas/TrackPointExtension/v1">
            <gpxtpx:hr>135</gpxtpx:hr>
          </gpxtpx:TrackPointExtension>
        </extensions>
      </trkpt>
      <trkpt lat="43.09381" lon="1.28644">
        <ele>507.6</ele>
        <time>2023-03-05T12:31:53Z</time>
        <extensions>
          <gpxtpx:TrackPointExtension xmlns:gpxtpx="http://www.garmin.com/xmlschemas/TrackPointExtension/v1">
            <gpxtpx:hr>135</gpxtpx:hr>
          </gpxtpx:TrackPointExtension>
        </extensions>
      </trkpt>
      <trkpt lat="43.0938" lon="1.28646">
        <ele>508</ele>
        <time>2023-03-05T12:31:54Z</time>
        <extensions>
          <gpxtpx:TrackPointExtension xmlns:gpxtpx="http://www.garmin.com/xmlschemas/TrackPointExtension/v1">
            <gpxtpx:hr>135</gpxtpx:hr>
          </gpxtpx:TrackPointExtension>
        </extensions>
      </trkpt>
      <trkpt lat="43.0938" lon="1.28648">
        <ele>508.4</ele>
        <time>2023-03-05T12:31:55Z</time>
        <extensions>
          <gpxtpx:TrackPointExtension xmlns:gpxtpx="http://www.garmin.com/xmlschemas/TrackPointExtension/v1">
            <gpxtpx:hr>135</gpxtpx:hr>
          </gpxtpx:TrackPointExtension>
        </extensions>
      </trkpt>
      <trkpt lat="43.09379" lon="1.28653">
        <ele>508.8</ele>
        <time>2023-03-05T12:31:58Z</time>
        <extensions>
          <gpxtpx:TrackPointExtension xmlns:gpxtpx="http://www.garmin.com/xmlschemas/TrackPointExtension/v1">
            <gpxtpx:hr>135</gpxtpx:hr>
          </gpxtpx:TrackPointExtension>
        </extensions>
      </trkpt>
      <trkpt lat="43.09378" lon="1.28655">
        <ele>509.2</ele>
        <time>2023-03-05T12:31:59Z</time>
        <extensions>
          <gpxtpx:TrackPointExtension xmlns:gpxtpx="http://www.garmin.com/xmlschemas/TrackPointExtension/v1">
            <gpxtpx:hr>135</gpxtpx:hr>
          </gpxtpx:TrackPointExtension>
        </extensions>
      </trkpt>
      <trkpt lat="43.09377" lon="1.28657">
        <ele>509.6</ele>
        <time>2023-03-05T12:32:00Z</time>
        <extensions>
          <gpxtpx:TrackPointExtension xmlns:gpxtpx="http://www.garmin.com/xmlschemas/TrackPointExtension/v1">
            <gpxtpx:hr>135</gpxtpx:hr>
          </gpxtpx:TrackPointExtension>
        </extensions>
      </trkpt>
      <trkpt lat="43.09377" lon="1.28658">
        <ele>510.2</ele>
        <time>2023-03-05T12:32:01Z</time>
        <extensions>
          <gpxtpx:TrackPointExtension xmlns:gpxtpx="http://www.garmin.com/xmlschemas/TrackPointExtension/v1">
            <gpxtpx:hr>135</gpxtpx:hr>
          </gpxtpx:TrackPointExtension>
        </extensions>
      </trkpt>
      <trkpt lat="43.09376" lon="1.2866">
        <ele>510.6</ele>
        <time>2023-03-05T12:32:02Z</time>
        <extensions>
          <gpxtpx:TrackPointExtension xmlns:gpxtpx="http://www.garmin.com/xmlschemas/TrackPointExtension/v1">
            <gpxtpx:hr>135</gpxtpx:hr>
          </gpxtpx:TrackPointExtension>
        </extensions>
      </trkpt>
      <trkpt lat="43.09376" lon="1.28662">
        <ele>510.6</ele>
        <time>2023-03-05T12:32:03Z</time>
        <extensions>
          <gpxtpx:TrackPointExtension xmlns:gpxtpx="http://www.garmin.com/xmlschemas/TrackPointExtension/v1">
            <gpxtpx:hr>135</gpxtpx:hr>
          </gpxtpx:TrackPointExtension>
        </extensions>
      </trkpt>
      <trkpt lat="43.09375" lon="1.28664">
        <ele>511</ele>
        <time>2023-03-05T12:32:04Z</time>
        <extensions>
          <gpxtpx:TrackPointExtension xmlns:gpxtpx="http://www.garmin.com/xmlschemas/TrackPointExtension/v1">
            <gpxtpx:hr>135</gpxtpx:hr>
          </gpxtpx:TrackPointExtension>
        </extensions>
      </trkpt>
      <trkpt lat="43.09375" lon="1.28665">
        <ele>511.4</ele>
        <time>2023-03-05T12:32:05Z</time>
        <extensions>
          <gpxtpx:TrackPointExtension xmlns:gpxtpx="http://www.garmin.com/xmlschemas/TrackPointExtension/v1">
            <gpxtpx:hr>135</gpxtpx:hr>
          </gpxtpx:TrackPointExtension>
        </extensions>
      </trkpt>
      <trkpt lat="43.09375" lon="1.28667">
        <ele>511.8</ele>
        <time>2023-03-05T12:32:06Z</time>
        <extensions>
          <gpxtpx:TrackPointExtension xmlns:gpxtpx="http://www.garmin.com/xmlschemas/TrackPointExtension/v1">
            <gpxtpx:hr>135</gpxtpx:hr>
          </gpxtpx:TrackPointExtension>
        </extensions>
      </trkpt>
      <trkpt lat="43.09375" lon="1.28669">
        <ele>512.2</ele>
        <time>2023-03-05T12:32:07Z</time>
        <extensions>
          <gpxtpx:TrackPointExtension xmlns:gpxtpx="http://www.garmin.com/xmlschemas/TrackPointExtension/v1">
            <gpxtpx:hr>135</gpxtpx:hr>
          </gpxtpx:TrackPointExtension>
        </extensions>
      </trkpt>
      <trkpt lat="43.09375" lon="1.28671">
        <ele>512.6</ele>
        <time>2023-03-05T12:32:08Z</time>
        <extensions>
          <gpxtpx:TrackPointExtension xmlns:gpxtpx="http://www.garmin.com/xmlschemas/TrackPointExtension/v1">
            <gpxtpx:hr>135</gpxtpx:hr>
          </gpxtpx:TrackPointExtension>
        </extensions>
      </trkpt>
      <trkpt lat="43.09374" lon="1.28677">
        <ele>513</ele>
        <time>2023-03-05T12:32:11Z</time>
        <extensions>
          <gpxtpx:TrackPointExtension xmlns:gpxtpx="http://www.garmin.com/xmlschemas/TrackPointExtension/v1">
            <gpxtpx:hr>135</gpxtpx:hr>
          </gpxtpx:TrackPointExtension>
        </extensions>
      </trkpt>
      <trkpt lat="43.09373" lon="1.28679">
        <ele>513.4</ele>
        <time>2023-03-05T12:32:12Z</time>
        <extensions>
          <gpxtpx:TrackPointExtension xmlns:gpxtpx="http://www.garmin.com/xmlschemas/TrackPointExtension/v1">
            <gpxtpx:hr>135</gpxtpx:hr>
          </gpxtpx:TrackPointExtension>
        </extensions>
      </trkpt>
      <trkpt lat="43.09373" lon="1.28681">
        <ele>513.8</ele>
        <time>2023-03-05T12:32:13Z</time>
        <extensions>
          <gpxtpx:TrackPointExtension xmlns:gpxtpx="http://www.garmin.com/xmlschemas/TrackPointExtension/v1">
            <gpxtpx:hr>135</gpxtpx:hr>
          </gpxtpx:TrackPointExtension>
        </extensions>
      </trkpt>
      <trkpt lat="43.09372" lon="1.28684">
        <ele>514.2</ele>
        <time>2023-03-05T12:32:14Z</time>
        <extensions>
          <gpxtpx:TrackPointExtension xmlns:gpxtpx="http://www.garmin.com/xmlschemas/TrackPointExtension/v1">
            <gpxtpx:hr>135</gpxtpx:hr>
          </gpxtpx:TrackPointExtension>
        </extensions>
      </trkpt>
      <trkpt lat="43.09372" lon="1.28685">
        <ele>514.6</ele>
        <time>2023-03-05T12:32:15Z</time>
        <extensions>
          <gpxtpx:TrackPointExtension xmlns:gpxtpx="http://www.garmin.com/xmlschemas/TrackPointExtension/v1">
            <gpxtpx:hr>135</gpxtpx:hr>
          </gpxtpx:TrackPointExtension>
        </extensions>
      </trkpt>
      <trkpt lat="43.09371" lon="1.28697">
        <ele>515</ele>
        <time>2023-03-05T12:32:21Z</time>
        <extensions>
          <gpxtpx:TrackPointExtension xmlns:gpxtpx="http://www.garmin.com/xmlschemas/TrackPointExtension/v1">
            <gpxtpx:hr>135</gpxtpx:hr>
          </gpxtpx:TrackPointExtension>
        </extensions>
      </trkpt>
      <trkpt lat="43.0937" lon="1.28698">
        <ele>515.6</ele>
        <time>2023-03-05T12:32:22Z</time>
        <extensions>
          <gpxtpx:TrackPointExtension xmlns:gpxtpx="http://www.garmin.com/xmlschemas/TrackPointExtension/v1">
            <gpxtpx:hr>135</gpxtpx:hr>
          </gpxtpx:TrackPointExtension>
        </extensions>
      </trkpt>
      <trkpt lat="43.0937" lon="1.287">
        <ele>516</ele>
        <time>2023-03-05T12:32:23Z</time>
        <extensions>
          <gpxtpx:TrackPointExtension xmlns:gpxtpx="http://www.garmin.com/xmlschemas/TrackPointExtension/v1">
            <gpxtpx:hr>135</gpxtpx:hr>
          </gpxtpx:TrackPointExtension>
        </extensions>
      </trkpt>
      <trkpt lat="43.09369" lon="1.28703">
        <ele>516.4</ele>
        <time>2023-03-05T12:32:24Z</time>
        <extensions>
          <gpxtpx:TrackPointExtension xmlns:gpxtpx="http://www.garmin.com/xmlschemas/TrackPointExtension/v1">
            <gpxtpx:hr>135</gpxtpx:hr>
          </gpxtpx:TrackPointExtension>
        </extensions>
      </trkpt>
      <trkpt lat="43.09369" lon="1.28705">
        <ele>516.8</ele>
        <time>2023-03-05T12:32:25Z</time>
        <extensions>
          <gpxtpx:TrackPointExtension xmlns:gpxtpx="http://www.garmin.com/xmlschemas/TrackPointExtension/v1">
            <gpxtpx:hr>134</gpxtpx:hr>
          </gpxtpx:TrackPointExtension>
        </extensions>
      </trkpt>
      <trkpt lat="43.09366" lon="1.28714">
        <ele>517.2</ele>
        <time>2023-03-05T12:32:30Z</time>
        <extensions>
          <gpxtpx:TrackPointExtension xmlns:gpxtpx="http://www.garmin.com/xmlschemas/TrackPointExtension/v1">
            <gpxtpx:hr>132</gpxtpx:hr>
          </gpxtpx:TrackPointExtension>
        </extensions>
      </trkpt>
      <trkpt lat="43.09366" lon="1.28715">
        <ele>517.6</ele>
        <time>2023-03-05T12:32:31Z</time>
        <extensions>
          <gpxtpx:TrackPointExtension xmlns:gpxtpx="http://www.garmin.com/xmlschemas/TrackPointExtension/v1">
            <gpxtpx:hr>132</gpxtpx:hr>
          </gpxtpx:TrackPointExtension>
        </extensions>
      </trkpt>
      <trkpt lat="43.09365" lon="1.28717">
        <ele>518</ele>
        <time>2023-03-05T12:32:32Z</time>
        <extensions>
          <gpxtpx:TrackPointExtension xmlns:gpxtpx="http://www.garmin.com/xmlschemas/TrackPointExtension/v1">
            <gpxtpx:hr>132</gpxtpx:hr>
          </gpxtpx:TrackPointExtension>
        </extensions>
      </trkpt>
      <trkpt lat="43.09365" lon="1.28719">
        <ele>518.8</ele>
        <time>2023-03-05T12:32:33Z</time>
        <extensions>
          <gpxtpx:TrackPointExtension xmlns:gpxtpx="http://www.garmin.com/xmlschemas/TrackPointExtension/v1">
            <gpxtpx:hr>132</gpxtpx:hr>
          </gpxtpx:TrackPointExtension>
        </extensions>
      </trkpt>
      <trkpt lat="43.09362" lon="1.28725">
        <ele>519.2</ele>
        <time>2023-03-05T12:32:36Z</time>
        <extensions>
          <gpxtpx:TrackPointExtension xmlns:gpxtpx="http://www.garmin.com/xmlschemas/TrackPointExtension/v1">
            <gpxtpx:hr>131</gpxtpx:hr>
          </gpxtpx:TrackPointExtension>
        </extensions>
      </trkpt>
      <trkpt lat="43.09363" lon="1.28727">
        <ele>519.6</ele>
        <time>2023-03-05T12:32:37Z</time>
        <extensions>
          <gpxtpx:TrackPointExtension xmlns:gpxtpx="http://www.garmin.com/xmlschemas/TrackPointExtension/v1">
            <gpxtpx:hr>132</gpxtpx:hr>
          </gpxtpx:TrackPointExtension>
        </extensions>
      </trkpt>
      <trkpt lat="43.09362" lon="1.28729">
        <ele>520</ele>
        <time>2023-03-05T12:32:38Z</time>
        <extensions>
          <gpxtpx:TrackPointExtension xmlns:gpxtpx="http://www.garmin.com/xmlschemas/TrackPointExtension/v1">
            <gpxtpx:hr>132</gpxtpx:hr>
          </gpxtpx:TrackPointExtension>
        </extensions>
      </trkpt>
      <trkpt lat="43.09362" lon="1.28731">
        <ele>520.4</ele>
        <time>2023-03-05T12:32:39Z</time>
        <extensions>
          <gpxtpx:TrackPointExtension xmlns:gpxtpx="http://www.garmin.com/xmlschemas/TrackPointExtension/v1">
            <gpxtpx:hr>132</gpxtpx:hr>
          </gpxtpx:TrackPointExtension>
        </extensions>
      </trkpt>
      <trkpt lat="43.09361" lon="1.28733">
        <ele>520.8</ele>
        <time>2023-03-05T12:32:40Z</time>
        <extensions>
          <gpxtpx:TrackPointExtension xmlns:gpxtpx="http://www.garmin.com/xmlschemas/TrackPointExtension/v1">
            <gpxtpx:hr>132</gpxtpx:hr>
          </gpxtpx:TrackPointExtension>
        </extensions>
      </trkpt>
      <trkpt lat="43.0936" lon="1.28736">
        <ele>520.8</ele>
        <time>2023-03-05T12:32:42Z</time>
        <extensions>
          <gpxtpx:TrackPointExtension xmlns:gpxtpx="http://www.garmin.com/xmlschemas/TrackPointExtension/v1">
            <gpxtpx:hr>132</gpxtpx:hr>
          </gpxtpx:TrackPointExtension>
        </extensions>
      </trkpt>
      <trkpt lat="43.0936" lon="1.28739">
        <ele>521.2</ele>
        <time>2023-03-05T12:32:44Z</time>
        <extensions>
          <gpxtpx:TrackPointExtension xmlns:gpxtpx="http://www.garmin.com/xmlschemas/TrackPointExtension/v1">
            <gpxtpx:hr>132</gpxtpx:hr>
          </gpxtpx:TrackPointExtension>
        </extensions>
      </trkpt>
      <trkpt lat="43.0936" lon="1.28741">
        <ele>521.8</ele>
        <time>2023-03-05T12:32:45Z</time>
        <extensions>
          <gpxtpx:TrackPointExtension xmlns:gpxtpx="http://www.garmin.com/xmlschemas/TrackPointExtension/v1">
            <gpxtpx:hr>131</gpxtpx:hr>
          </gpxtpx:TrackPointExtension>
        </extensions>
      </trkpt>
      <trkpt lat="43.0936" lon="1.28743">
        <ele>522.2</ele>
        <time>2023-03-05T12:32:46Z</time>
        <extensions>
          <gpxtpx:TrackPointExtension xmlns:gpxtpx="http://www.garmin.com/xmlschemas/TrackPointExtension/v1">
            <gpxtpx:hr>132</gpxtpx:hr>
          </gpxtpx:TrackPointExtension>
        </extensions>
      </trkpt>
      <trkpt lat="43.09359" lon="1.28745">
        <ele>522.6</ele>
        <time>2023-03-05T12:32:47Z</time>
        <extensions>
          <gpxtpx:TrackPointExtension xmlns:gpxtpx="http://www.garmin.com/xmlschemas/TrackPointExtension/v1">
            <gpxtpx:hr>132</gpxtpx:hr>
          </gpxtpx:TrackPointExtension>
        </extensions>
      </trkpt>
      <trkpt lat="43.09359" lon="1.28747">
        <ele>523.2</ele>
        <time>2023-03-05T12:32:48Z</time>
        <extensions>
          <gpxtpx:TrackPointExtension xmlns:gpxtpx="http://www.garmin.com/xmlschemas/TrackPointExtension/v1">
            <gpxtpx:hr>132</gpxtpx:hr>
          </gpxtpx:TrackPointExtension>
        </extensions>
      </trkpt>
      <trkpt lat="43.0936" lon="1.28753">
        <ele>523.2</ele>
        <time>2023-03-05T12:32:51Z</time>
        <extensions>
          <gpxtpx:TrackPointExtension xmlns:gpxtpx="http://www.garmin.com/xmlschemas/TrackPointExtension/v1">
            <gpxtpx:hr>132</gpxtpx:hr>
          </gpxtpx:TrackPointExtension>
        </extensions>
      </trkpt>
      <trkpt lat="43.0936" lon="1.2876">
        <ele>523.2</ele>
        <time>2023-03-05T12:32:54Z</time>
        <extensions>
          <gpxtpx:TrackPointExtension xmlns:gpxtpx="http://www.garmin.com/xmlschemas/TrackPointExtension/v1">
            <gpxtpx:hr>132</gpxtpx:hr>
          </gpxtpx:TrackPointExtension>
        </extensions>
      </trkpt>
      <trkpt lat="43.09359" lon="1.28771">
        <ele>523.6</ele>
        <time>2023-03-05T12:32:58Z</time>
        <extensions>
          <gpxtpx:TrackPointExtension xmlns:gpxtpx="http://www.garmin.com/xmlschemas/TrackPointExtension/v1">
            <gpxtpx:hr>132</gpxtpx:hr>
          </gpxtpx:TrackPointExtension>
        </extensions>
      </trkpt>
      <trkpt lat="43.09359" lon="1.28774">
        <ele>524</ele>
        <time>2023-03-05T12:32:59Z</time>
        <extensions>
          <gpxtpx:TrackPointExtension xmlns:gpxtpx="http://www.garmin.com/xmlschemas/TrackPointExtension/v1">
            <gpxtpx:hr>131</gpxtpx:hr>
          </gpxtpx:TrackPointExtension>
        </extensions>
      </trkpt>
      <trkpt lat="43.09359" lon="1.28777">
        <ele>524.4</ele>
        <time>2023-03-05T12:33:00Z</time>
        <extensions>
          <gpxtpx:TrackPointExtension xmlns:gpxtpx="http://www.garmin.com/xmlschemas/TrackPointExtension/v1">
            <gpxtpx:hr>132</gpxtpx:hr>
          </gpxtpx:TrackPointExtension>
        </extensions>
      </trkpt>
      <trkpt lat="43.09359" lon="1.2878">
        <ele>524.8</ele>
        <time>2023-03-05T12:33:01Z</time>
        <extensions>
          <gpxtpx:TrackPointExtension xmlns:gpxtpx="http://www.garmin.com/xmlschemas/TrackPointExtension/v1">
            <gpxtpx:hr>131</gpxtpx:hr>
          </gpxtpx:TrackPointExtension>
        </extensions>
      </trkpt>
      <trkpt lat="43.09358" lon="1.28782">
        <ele>525.2</ele>
        <time>2023-03-05T12:33:02Z</time>
        <extensions>
          <gpxtpx:TrackPointExtension xmlns:gpxtpx="http://www.garmin.com/xmlschemas/TrackPointExtension/v1">
            <gpxtpx:hr>131</gpxtpx:hr>
          </gpxtpx:TrackPointExtension>
        </extensions>
      </trkpt>
      <trkpt lat="43.09355" lon="1.28788">
        <ele>525.2</ele>
        <time>2023-03-05T12:33:05Z</time>
        <extensions>
          <gpxtpx:TrackPointExtension xmlns:gpxtpx="http://www.garmin.com/xmlschemas/TrackPointExtension/v1">
            <gpxtpx:hr>132</gpxtpx:hr>
          </gpxtpx:TrackPointExtension>
        </extensions>
      </trkpt>
      <trkpt lat="43.09351" lon="1.288">
        <ele>525.2</ele>
        <time>2023-03-05T12:33:10Z</time>
        <extensions>
          <gpxtpx:TrackPointExtension xmlns:gpxtpx="http://www.garmin.com/xmlschemas/TrackPointExtension/v1">
            <gpxtpx:hr>131</gpxtpx:hr>
          </gpxtpx:TrackPointExtension>
        </extensions>
      </trkpt>
      <trkpt lat="43.0935" lon="1.28802">
        <ele>525.8</ele>
        <time>2023-03-05T12:33:11Z</time>
        <extensions>
          <gpxtpx:TrackPointExtension xmlns:gpxtpx="http://www.garmin.com/xmlschemas/TrackPointExtension/v1">
            <gpxtpx:hr>131</gpxtpx:hr>
          </gpxtpx:TrackPointExtension>
        </extensions>
      </trkpt>
      <trkpt lat="43.09349" lon="1.28804">
        <ele>526.2</ele>
        <time>2023-03-05T12:33:12Z</time>
        <extensions>
          <gpxtpx:TrackPointExtension xmlns:gpxtpx="http://www.garmin.com/xmlschemas/TrackPointExtension/v1">
            <gpxtpx:hr>131</gpxtpx:hr>
          </gpxtpx:TrackPointExtension>
        </extensions>
      </trkpt>
      <trkpt lat="43.09348" lon="1.28806">
        <ele>526.6</ele>
        <time>2023-03-05T12:33:13Z</time>
        <extensions>
          <gpxtpx:TrackPointExtension xmlns:gpxtpx="http://www.garmin.com/xmlschemas/TrackPointExtension/v1">
            <gpxtpx:hr>131</gpxtpx:hr>
          </gpxtpx:TrackPointExtension>
        </extensions>
      </trkpt>
      <trkpt lat="43.09348" lon="1.28808">
        <ele>527</ele>
        <time>2023-03-05T12:33:14Z</time>
        <extensions>
          <gpxtpx:TrackPointExtension xmlns:gpxtpx="http://www.garmin.com/xmlschemas/TrackPointExtension/v1">
            <gpxtpx:hr>131</gpxtpx:hr>
          </gpxtpx:TrackPointExtension>
        </extensions>
      </trkpt>
      <trkpt lat="43.09347" lon="1.28811">
        <ele>527.4</ele>
        <time>2023-03-05T12:33:15Z</time>
        <extensions>
          <gpxtpx:TrackPointExtension xmlns:gpxtpx="http://www.garmin.com/xmlschemas/TrackPointExtension/v1">
            <gpxtpx:hr>131</gpxtpx:hr>
          </gpxtpx:TrackPointExtension>
        </extensions>
      </trkpt>
      <trkpt lat="43.09347" lon="1.28813">
        <ele>527.8</ele>
        <time>2023-03-05T12:33:16Z</time>
        <extensions>
          <gpxtpx:TrackPointExtension xmlns:gpxtpx="http://www.garmin.com/xmlschemas/TrackPointExtension/v1">
            <gpxtpx:hr>131</gpxtpx:hr>
          </gpxtpx:TrackPointExtension>
        </extensions>
      </trkpt>
      <trkpt lat="43.09346" lon="1.28815">
        <ele>528.2</ele>
        <time>2023-03-05T12:33:17Z</time>
        <extensions>
          <gpxtpx:TrackPointExtension xmlns:gpxtpx="http://www.garmin.com/xmlschemas/TrackPointExtension/v1">
            <gpxtpx:hr>130</gpxtpx:hr>
          </gpxtpx:TrackPointExtension>
        </extensions>
      </trkpt>
      <trkpt lat="43.09345" lon="1.28816">
        <ele>528.6</ele>
        <time>2023-03-05T12:33:18Z</time>
        <extensions>
          <gpxtpx:TrackPointExtension xmlns:gpxtpx="http://www.garmin.com/xmlschemas/TrackPointExtension/v1">
            <gpxtpx:hr>130</gpxtpx:hr>
          </gpxtpx:TrackPointExtension>
        </extensions>
      </trkpt>
      <trkpt lat="43.09345" lon="1.28818">
        <ele>529</ele>
        <time>2023-03-05T12:33:19Z</time>
        <extensions>
          <gpxtpx:TrackPointExtension xmlns:gpxtpx="http://www.garmin.com/xmlschemas/TrackPointExtension/v1">
            <gpxtpx:hr>130</gpxtpx:hr>
          </gpxtpx:TrackPointExtension>
        </extensions>
      </trkpt>
      <trkpt lat="43.09343" lon="1.2882">
        <ele>529.4</ele>
        <time>2023-03-05T12:33:20Z</time>
        <extensions>
          <gpxtpx:TrackPointExtension xmlns:gpxtpx="http://www.garmin.com/xmlschemas/TrackPointExtension/v1">
            <gpxtpx:hr>130</gpxtpx:hr>
          </gpxtpx:TrackPointExtension>
        </extensions>
      </trkpt>
      <trkpt lat="43.09342" lon="1.28822">
        <ele>529.4</ele>
        <time>2023-03-05T12:33:21Z</time>
        <extensions>
          <gpxtpx:TrackPointExtension xmlns:gpxtpx="http://www.garmin.com/xmlschemas/TrackPointExtension/v1">
            <gpxtpx:hr>130</gpxtpx:hr>
          </gpxtpx:TrackPointExtension>
        </extensions>
      </trkpt>
      <trkpt lat="43.09341" lon="1.28824">
        <ele>530.4</ele>
        <time>2023-03-05T12:33:23Z</time>
        <extensions>
          <gpxtpx:TrackPointExtension xmlns:gpxtpx="http://www.garmin.com/xmlschemas/TrackPointExtension/v1">
            <gpxtpx:hr>131</gpxtpx:hr>
          </gpxtpx:TrackPointExtension>
        </extensions>
      </trkpt>
      <trkpt lat="43.0934" lon="1.28825">
        <ele>533.6</ele>
        <time>2023-03-05T12:35:57Z</time>
        <extensions>
          <gpxtpx:TrackPointExtension xmlns:gpxtpx="http://www.garmin.com/xmlschemas/TrackPointExtension/v1">
            <gpxtpx:hr>114</gpxtpx:hr>
          </gpxtpx:TrackPointExtension>
        </extensions>
      </trkpt>
      <trkpt lat="43.0934" lon="1.28824">
        <ele>533.6</ele>
        <time>2023-03-05T12:35:58Z</time>
        <extensions>
          <gpxtpx:TrackPointExtension xmlns:gpxtpx="http://www.garmin.com/xmlschemas/TrackPointExtension/v1">
            <gpxtpx:hr>114</gpxtpx:hr>
          </gpxtpx:TrackPointExtension>
        </extensions>
      </trkpt>
      <trkpt lat="43.09338" lon="1.28819">
        <ele>534</ele>
        <time>2023-03-05T12:36:01Z</time>
        <extensions>
          <gpxtpx:TrackPointExtension xmlns:gpxtpx="http://www.garmin.com/xmlschemas/TrackPointExtension/v1">
            <gpxtpx:hr>115</gpxtpx:hr>
          </gpxtpx:TrackPointExtension>
        </extensions>
      </trkpt>
      <trkpt lat="43.09337" lon="1.28817">
        <ele>534.4</ele>
        <time>2023-03-05T12:36:02Z</time>
        <extensions>
          <gpxtpx:TrackPointExtension xmlns:gpxtpx="http://www.garmin.com/xmlschemas/TrackPointExtension/v1">
            <gpxtpx:hr>115</gpxtpx:hr>
          </gpxtpx:TrackPointExtension>
        </extensions>
      </trkpt>
      <trkpt lat="43.09336" lon="1.28815">
        <ele>534.8</ele>
        <time>2023-03-05T12:36:03Z</time>
        <extensions>
          <gpxtpx:TrackPointExtension xmlns:gpxtpx="http://www.garmin.com/xmlschemas/TrackPointExtension/v1">
            <gpxtpx:hr>114</gpxtpx:hr>
          </gpxtpx:TrackPointExtension>
        </extensions>
      </trkpt>
      <trkpt lat="43.09335" lon="1.28813">
        <ele>535.2</ele>
        <time>2023-03-05T12:36:04Z</time>
        <extensions>
          <gpxtpx:TrackPointExtension xmlns:gpxtpx="http://www.garmin.com/xmlschemas/TrackPointExtension/v1">
            <gpxtpx:hr>114</gpxtpx:hr>
          </gpxtpx:TrackPointExtension>
        </extensions>
      </trkpt>
      <trkpt lat="43.09334" lon="1.28811">
        <ele>535.6</ele>
        <time>2023-03-05T12:36:05Z</time>
        <extensions>
          <gpxtpx:TrackPointExtension xmlns:gpxtpx="http://www.garmin.com/xmlschemas/TrackPointExtension/v1">
            <gpxtpx:hr>114</gpxtpx:hr>
          </gpxtpx:TrackPointExtension>
        </extensions>
      </trkpt>
      <trkpt lat="43.0933" lon="1.28806">
        <ele>536.2</ele>
        <time>2023-03-05T12:36:08Z</time>
        <extensions>
          <gpxtpx:TrackPointExtension xmlns:gpxtpx="http://www.garmin.com/xmlschemas/TrackPointExtension/v1">
            <gpxtpx:hr>115</gpxtpx:hr>
          </gpxtpx:TrackPointExtension>
        </extensions>
      </trkpt>
      <trkpt lat="43.09329" lon="1.28804">
        <ele>536.6</ele>
        <time>2023-03-05T12:36:09Z</time>
        <extensions>
          <gpxtpx:TrackPointExtension xmlns:gpxtpx="http://www.garmin.com/xmlschemas/TrackPointExtension/v1">
            <gpxtpx:hr>115</gpxtpx:hr>
          </gpxtpx:TrackPointExtension>
        </extensions>
      </trkpt>
      <trkpt lat="43.09329" lon="1.28803">
        <ele>537.2</ele>
        <time>2023-03-05T12:36:10Z</time>
        <extensions>
          <gpxtpx:TrackPointExtension xmlns:gpxtpx="http://www.garmin.com/xmlschemas/TrackPointExtension/v1">
            <gpxtpx:hr>116</gpxtpx:hr>
          </gpxtpx:TrackPointExtension>
        </extensions>
      </trkpt>
      <trkpt lat="43.09328" lon="1.28801">
        <ele>537.6</ele>
        <time>2023-03-05T12:36:11Z</time>
        <extensions>
          <gpxtpx:TrackPointExtension xmlns:gpxtpx="http://www.garmin.com/xmlschemas/TrackPointExtension/v1">
            <gpxtpx:hr>117</gpxtpx:hr>
          </gpxtpx:TrackPointExtension>
        </extensions>
      </trkpt>
      <trkpt lat="43.09327" lon="1.28799">
        <ele>538.2</ele>
        <time>2023-03-05T12:36:12Z</time>
        <extensions>
          <gpxtpx:TrackPointExtension xmlns:gpxtpx="http://www.garmin.com/xmlschemas/TrackPointExtension/v1">
            <gpxtpx:hr>117</gpxtpx:hr>
          </gpxtpx:TrackPointExtension>
        </extensions>
      </trkpt>
      <trkpt lat="43.09327" lon="1.28797">
        <ele>538.6</ele>
        <time>2023-03-05T12:36:13Z</time>
        <extensions>
          <gpxtpx:TrackPointExtension xmlns:gpxtpx="http://www.garmin.com/xmlschemas/TrackPointExtension/v1">
            <gpxtpx:hr>117</gpxtpx:hr>
          </gpxtpx:TrackPointExtension>
        </extensions>
      </trkpt>
      <trkpt lat="43.09326" lon="1.28794">
        <ele>539</ele>
        <time>2023-03-05T12:36:14Z</time>
        <extensions>
          <gpxtpx:TrackPointExtension xmlns:gpxtpx="http://www.garmin.com/xmlschemas/TrackPointExtension/v1">
            <gpxtpx:hr>117</gpxtpx:hr>
          </gpxtpx:TrackPointExtension>
        </extensions>
      </trkpt>
      <trkpt lat="43.09326" lon="1.28792">
        <ele>540</ele>
        <time>2023-03-05T12:36:15Z</time>
        <extensions>
          <gpxtpx:TrackPointExtension xmlns:gpxtpx="http://www.garmin.com/xmlschemas/TrackPointExtension/v1">
            <gpxtpx:hr>118</gpxtpx:hr>
          </gpxtpx:TrackPointExtension>
        </extensions>
      </trkpt>
      <trkpt lat="43.09326" lon="1.28791">
        <ele>540.4</ele>
        <time>2023-03-05T12:36:16Z</time>
        <extensions>
          <gpxtpx:TrackPointExtension xmlns:gpxtpx="http://www.garmin.com/xmlschemas/TrackPointExtension/v1">
            <gpxtpx:hr>118</gpxtpx:hr>
          </gpxtpx:TrackPointExtension>
        </extensions>
      </trkpt>
      <trkpt lat="43.09325" lon="1.28788">
        <ele>540.4</ele>
        <time>2023-03-05T12:36:18Z</time>
        <extensions>
          <gpxtpx:TrackPointExtension xmlns:gpxtpx="http://www.garmin.com/xmlschemas/TrackPointExtension/v1">
            <gpxtpx:hr>119</gpxtpx:hr>
          </gpxtpx:TrackPointExtension>
        </extensions>
      </trkpt>
      <trkpt lat="43.09324" lon="1.28787">
        <ele>540.8</ele>
        <time>2023-03-05T12:36:19Z</time>
        <extensions>
          <gpxtpx:TrackPointExtension xmlns:gpxtpx="http://www.garmin.com/xmlschemas/TrackPointExtension/v1">
            <gpxtpx:hr>120</gpxtpx:hr>
          </gpxtpx:TrackPointExtension>
        </extensions>
      </trkpt>
      <trkpt lat="43.09324" lon="1.28786">
        <ele>541.2</ele>
        <time>2023-03-05T12:36:20Z</time>
        <extensions>
          <gpxtpx:TrackPointExtension xmlns:gpxtpx="http://www.garmin.com/xmlschemas/TrackPointExtension/v1">
            <gpxtpx:hr>121</gpxtpx:hr>
          </gpxtpx:TrackPointExtension>
        </extensions>
      </trkpt>
      <trkpt lat="43.0932" lon="1.28754">
        <ele>551</ele>
        <time>2023-03-05T12:38:40Z</time>
        <extensions>
          <gpxtpx:TrackPointExtension xmlns:gpxtpx="http://www.garmin.com/xmlschemas/TrackPointExtension/v1">
            <gpxtpx:hr>129</gpxtpx:hr>
          </gpxtpx:TrackPointExtension>
        </extensions>
      </trkpt>
      <trkpt lat="43.09318" lon="1.28754">
        <ele>551</ele>
        <time>2023-03-05T12:38:41Z</time>
        <extensions>
          <gpxtpx:TrackPointExtension xmlns:gpxtpx="http://www.garmin.com/xmlschemas/TrackPointExtension/v1">
            <gpxtpx:hr>129</gpxtpx:hr>
          </gpxtpx:TrackPointExtension>
        </extensions>
      </trkpt>
      <trkpt lat="43.09317" lon="1.28755">
        <ele>551.4</ele>
        <time>2023-03-05T12:38:42Z</time>
        <extensions>
          <gpxtpx:TrackPointExtension xmlns:gpxtpx="http://www.garmin.com/xmlschemas/TrackPointExtension/v1">
            <gpxtpx:hr>129</gpxtpx:hr>
          </gpxtpx:TrackPointExtension>
        </extensions>
      </trkpt>
      <trkpt lat="43.09316" lon="1.28756">
        <ele>552.2</ele>
        <time>2023-03-05T12:38:43Z</time>
        <extensions>
          <gpxtpx:TrackPointExtension xmlns:gpxtpx="http://www.garmin.com/xmlschemas/TrackPointExtension/v1">
            <gpxtpx:hr>129</gpxtpx:hr>
          </gpxtpx:TrackPointExtension>
        </extensions>
      </trkpt>
      <trkpt lat="43.09316" lon="1.28756">
        <ele>552.6</ele>
        <time>2023-03-05T12:38:44Z</time>
        <extensions>
          <gpxtpx:TrackPointExtension xmlns:gpxtpx="http://www.garmin.com/xmlschemas/TrackPointExtension/v1">
            <gpxtpx:hr>129</gpxtpx:hr>
          </gpxtpx:TrackPointExtension>
        </extensions>
      </trkpt>
      <trkpt lat="43.09315" lon="1.28756">
        <ele>553</ele>
        <time>2023-03-05T12:38:45Z</time>
        <extensions>
          <gpxtpx:TrackPointExtension xmlns:gpxtpx="http://www.garmin.com/xmlschemas/TrackPointExtension/v1">
            <gpxtpx:hr>130</gpxtpx:hr>
          </gpxtpx:TrackPointExtension>
        </extensions>
      </trkpt>
      <trkpt lat="43.09314" lon="1.28759">
        <ele>553</ele>
        <time>2023-03-05T12:39:00Z</time>
        <extensions>
          <gpxtpx:TrackPointExtension xmlns:gpxtpx="http://www.garmin.com/xmlschemas/TrackPointExtension/v1">
            <gpxtpx:hr>134</gpxtpx:hr>
          </gpxtpx:TrackPointExtension>
        </extensions>
      </trkpt>
      <trkpt lat="43.09313" lon="1.2876">
        <ele>553</ele>
        <time>2023-03-05T12:39:01Z</time>
        <extensions>
          <gpxtpx:TrackPointExtension xmlns:gpxtpx="http://www.garmin.com/xmlschemas/TrackPointExtension/v1">
            <gpxtpx:hr>134</gpxtpx:hr>
          </gpxtpx:TrackPointExtension>
        </extensions>
      </trkpt>
      <trkpt lat="43.09312" lon="1.28765">
        <ele>553</ele>
        <time>2023-03-05T12:39:03Z</time>
        <extensions>
          <gpxtpx:TrackPointExtension xmlns:gpxtpx="http://www.garmin.com/xmlschemas/TrackPointExtension/v1">
            <gpxtpx:hr>133</gpxtpx:hr>
          </gpxtpx:TrackPointExtension>
        </extensions>
      </trkpt>
      <trkpt lat="43.0931" lon="1.28769">
        <ele>553</ele>
        <time>2023-03-05T12:39:05Z</time>
        <extensions>
          <gpxtpx:TrackPointExtension xmlns:gpxtpx="http://www.garmin.com/xmlschemas/TrackPointExtension/v1">
            <gpxtpx:hr>133</gpxtpx:hr>
          </gpxtpx:TrackPointExtension>
        </extensions>
      </trkpt>
      <trkpt lat="43.09308" lon="1.28771">
        <ele>553</ele>
        <time>2023-03-05T12:39:06Z</time>
        <extensions>
          <gpxtpx:TrackPointExtension xmlns:gpxtpx="http://www.garmin.com/xmlschemas/TrackPointExtension/v1">
            <gpxtpx:hr>133</gpxtpx:hr>
          </gpxtpx:TrackPointExtension>
        </extensions>
      </trkpt>
      <trkpt lat="43.09307" lon="1.28772">
        <ele>553.6</ele>
        <time>2023-03-05T12:39:07Z</time>
        <extensions>
          <gpxtpx:TrackPointExtension xmlns:gpxtpx="http://www.garmin.com/xmlschemas/TrackPointExtension/v1">
            <gpxtpx:hr>133</gpxtpx:hr>
          </gpxtpx:TrackPointExtension>
        </extensions>
      </trkpt>
      <trkpt lat="43.09305" lon="1.28773">
        <ele>554.4</ele>
        <time>2023-03-05T12:39:08Z</time>
        <extensions>
          <gpxtpx:TrackPointExtension xmlns:gpxtpx="http://www.garmin.com/xmlschemas/TrackPointExtension/v1">
            <gpxtpx:hr>133</gpxtpx:hr>
          </gpxtpx:TrackPointExtension>
        </extensions>
      </trkpt>
      <trkpt lat="43.09304" lon="1.28776">
        <ele>554.8</ele>
        <time>2023-03-05T12:39:09Z</time>
        <extensions>
          <gpxtpx:TrackPointExtension xmlns:gpxtpx="http://www.garmin.com/xmlschemas/TrackPointExtension/v1">
            <gpxtpx:hr>133</gpxtpx:hr>
          </gpxtpx:TrackPointExtension>
        </extensions>
      </trkpt>
      <trkpt lat="43.09303" lon="1.28777">
        <ele>555.2</ele>
        <time>2023-03-05T12:39:10Z</time>
        <extensions>
          <gpxtpx:TrackPointExtension xmlns:gpxtpx="http://www.garmin.com/xmlschemas/TrackPointExtension/v1">
            <gpxtpx:hr>133</gpxtpx:hr>
          </gpxtpx:TrackPointExtension>
        </extensions>
      </trkpt>
      <trkpt lat="43.093" lon="1.28781">
        <ele>555.2</ele>
        <time>2023-03-05T12:39:12Z</time>
        <extensions>
          <gpxtpx:TrackPointExtension xmlns:gpxtpx="http://www.garmin.com/xmlschemas/TrackPointExtension/v1">
            <gpxtpx:hr>133</gpxtpx:hr>
          </gpxtpx:TrackPointExtension>
        </extensions>
      </trkpt>
      <trkpt lat="43.09298" lon="1.28784">
        <ele>555.6</ele>
        <time>2023-03-05T12:39:14Z</time>
        <extensions>
          <gpxtpx:TrackPointExtension xmlns:gpxtpx="http://www.garmin.com/xmlschemas/TrackPointExtension/v1">
            <gpxtpx:hr>133</gpxtpx:hr>
          </gpxtpx:TrackPointExtension>
        </extensions>
      </trkpt>
      <trkpt lat="43.09296" lon="1.28784">
        <ele>556</ele>
        <time>2023-03-05T12:39:15Z</time>
        <extensions>
          <gpxtpx:TrackPointExtension xmlns:gpxtpx="http://www.garmin.com/xmlschemas/TrackPointExtension/v1">
            <gpxtpx:hr>133</gpxtpx:hr>
          </gpxtpx:TrackPointExtension>
        </extensions>
      </trkpt>
      <trkpt lat="43.09295" lon="1.28784">
        <ele>556.6</ele>
        <time>2023-03-05T12:39:16Z</time>
        <extensions>
          <gpxtpx:TrackPointExtension xmlns:gpxtpx="http://www.garmin.com/xmlschemas/TrackPointExtension/v1">
            <gpxtpx:hr>133</gpxtpx:hr>
          </gpxtpx:TrackPointExtension>
        </extensions>
      </trkpt>
      <trkpt lat="43.09294" lon="1.28783">
        <ele>557</ele>
        <time>2023-03-05T12:39:17Z</time>
        <extensions>
          <gpxtpx:TrackPointExtension xmlns:gpxtpx="http://www.garmin.com/xmlschemas/TrackPointExtension/v1">
            <gpxtpx:hr>133</gpxtpx:hr>
          </gpxtpx:TrackPointExtension>
        </extensions>
      </trkpt>
      <trkpt lat="43.09292" lon="1.28784">
        <ele>557.6</ele>
        <time>2023-03-05T12:39:18Z</time>
        <extensions>
          <gpxtpx:TrackPointExtension xmlns:gpxtpx="http://www.garmin.com/xmlschemas/TrackPointExtension/v1">
            <gpxtpx:hr>133</gpxtpx:hr>
          </gpxtpx:TrackPointExtension>
        </extensions>
      </trkpt>
      <trkpt lat="43.0929" lon="1.28785">
        <ele>557.6</ele>
        <time>2023-03-05T12:39:19Z</time>
        <extensions>
          <gpxtpx:TrackPointExtension xmlns:gpxtpx="http://www.garmin.com/xmlschemas/TrackPointExtension/v1">
            <gpxtpx:hr>133</gpxtpx:hr>
          </gpxtpx:TrackPointExtension>
        </extensions>
      </trkpt>
      <trkpt lat="43.09288" lon="1.28785">
        <ele>558</ele>
        <time>2023-03-05T12:39:20Z</time>
        <extensions>
          <gpxtpx:TrackPointExtension xmlns:gpxtpx="http://www.garmin.com/xmlschemas/TrackPointExtension/v1">
            <gpxtpx:hr>133</gpxtpx:hr>
          </gpxtpx:TrackPointExtension>
        </extensions>
      </trkpt>
      <trkpt lat="43.09286" lon="1.28787">
        <ele>558.4</ele>
        <time>2023-03-05T12:39:21Z</time>
        <extensions>
          <gpxtpx:TrackPointExtension xmlns:gpxtpx="http://www.garmin.com/xmlschemas/TrackPointExtension/v1">
            <gpxtpx:hr>133</gpxtpx:hr>
          </gpxtpx:TrackPointExtension>
        </extensions>
      </trkpt>
      <trkpt lat="43.09285" lon="1.28787">
        <ele>558.8</ele>
        <time>2023-03-05T12:39:22Z</time>
        <extensions>
          <gpxtpx:TrackPointExtension xmlns:gpxtpx="http://www.garmin.com/xmlschemas/TrackPointExtension/v1">
            <gpxtpx:hr>134</gpxtpx:hr>
          </gpxtpx:TrackPointExtension>
        </extensions>
      </trkpt>
      <trkpt lat="43.09284" lon="1.28787">
        <ele>559.4</ele>
        <time>2023-03-05T12:39:23Z</time>
        <extensions>
          <gpxtpx:TrackPointExtension xmlns:gpxtpx="http://www.garmin.com/xmlschemas/TrackPointExtension/v1">
            <gpxtpx:hr>134</gpxtpx:hr>
          </gpxtpx:TrackPointExtension>
        </extensions>
      </trkpt>
      <trkpt lat="43.09283" lon="1.28788">
        <ele>559.8</ele>
        <time>2023-03-05T12:39:24Z</time>
        <extensions>
          <gpxtpx:TrackPointExtension xmlns:gpxtpx="http://www.garmin.com/xmlschemas/TrackPointExtension/v1">
            <gpxtpx:hr>134</gpxtpx:hr>
          </gpxtpx:TrackPointExtension>
        </extensions>
      </trkpt>
      <trkpt lat="43.09281" lon="1.28788">
        <ele>560.4</ele>
        <time>2023-03-05T12:39:25Z</time>
        <extensions>
          <gpxtpx:TrackPointExtension xmlns:gpxtpx="http://www.garmin.com/xmlschemas/TrackPointExtension/v1">
            <gpxtpx:hr>134</gpxtpx:hr>
          </gpxtpx:TrackPointExtension>
        </extensions>
      </trkpt>
      <trkpt lat="43.0928" lon="1.28789">
        <ele>560.8</ele>
        <time>2023-03-05T12:39:26Z</time>
        <extensions>
          <gpxtpx:TrackPointExtension xmlns:gpxtpx="http://www.garmin.com/xmlschemas/TrackPointExtension/v1">
            <gpxtpx:hr>135</gpxtpx:hr>
          </gpxtpx:TrackPointExtension>
        </extensions>
      </trkpt>
      <trkpt lat="43.09278" lon="1.28789">
        <ele>561.4</ele>
        <time>2023-03-05T12:39:27Z</time>
        <extensions>
          <gpxtpx:TrackPointExtension xmlns:gpxtpx="http://www.garmin.com/xmlschemas/TrackPointExtension/v1">
            <gpxtpx:hr>135</gpxtpx:hr>
          </gpxtpx:TrackPointExtension>
        </extensions>
      </trkpt>
      <trkpt lat="43.09276" lon="1.28789">
        <ele>561.8</ele>
        <time>2023-03-05T12:39:28Z</time>
        <extensions>
          <gpxtpx:TrackPointExtension xmlns:gpxtpx="http://www.garmin.com/xmlschemas/TrackPointExtension/v1">
            <gpxtpx:hr>135</gpxtpx:hr>
          </gpxtpx:TrackPointExtension>
        </extensions>
      </trkpt>
      <trkpt lat="43.09273" lon="1.2879">
        <ele>562.2</ele>
        <time>2023-03-05T12:39:30Z</time>
        <extensions>
          <gpxtpx:TrackPointExtension xmlns:gpxtpx="http://www.garmin.com/xmlschemas/TrackPointExtension/v1">
            <gpxtpx:hr>136</gpxtpx:hr>
          </gpxtpx:TrackPointExtension>
        </extensions>
      </trkpt>
      <trkpt lat="43.09272" lon="1.2879">
        <ele>562.8</ele>
        <time>2023-03-05T12:39:31Z</time>
        <extensions>
          <gpxtpx:TrackPointExtension xmlns:gpxtpx="http://www.garmin.com/xmlschemas/TrackPointExtension/v1">
            <gpxtpx:hr>136</gpxtpx:hr>
          </gpxtpx:TrackPointExtension>
        </extensions>
      </trkpt>
      <trkpt lat="43.09271" lon="1.28791">
        <ele>563.6</ele>
        <time>2023-03-05T12:39:32Z</time>
        <extensions>
          <gpxtpx:TrackPointExtension xmlns:gpxtpx="http://www.garmin.com/xmlschemas/TrackPointExtension/v1">
            <gpxtpx:hr>136</gpxtpx:hr>
          </gpxtpx:TrackPointExtension>
        </extensions>
      </trkpt>
      <trkpt lat="43.0927" lon="1.28791">
        <ele>564</ele>
        <time>2023-03-05T12:39:33Z</time>
        <extensions>
          <gpxtpx:TrackPointExtension xmlns:gpxtpx="http://www.garmin.com/xmlschemas/TrackPointExtension/v1">
            <gpxtpx:hr>136</gpxtpx:hr>
          </gpxtpx:TrackPointExtension>
        </extensions>
      </trkpt>
      <trkpt lat="43.09269" lon="1.28791">
        <ele>564.6</ele>
        <time>2023-03-05T12:39:34Z</time>
        <extensions>
          <gpxtpx:TrackPointExtension xmlns:gpxtpx="http://www.garmin.com/xmlschemas/TrackPointExtension/v1">
            <gpxtpx:hr>137</gpxtpx:hr>
          </gpxtpx:TrackPointExtension>
        </extensions>
      </trkpt>
      <trkpt lat="43.09268" lon="1.28792">
        <ele>565</ele>
        <time>2023-03-05T12:39:35Z</time>
        <extensions>
          <gpxtpx:TrackPointExtension xmlns:gpxtpx="http://www.garmin.com/xmlschemas/TrackPointExtension/v1">
            <gpxtpx:hr>137</gpxtpx:hr>
          </gpxtpx:TrackPointExtension>
        </extensions>
      </trkpt>
      <trkpt lat="43.09266" lon="1.28793">
        <ele>565.4</ele>
        <time>2023-03-05T12:39:36Z</time>
        <extensions>
          <gpxtpx:TrackPointExtension xmlns:gpxtpx="http://www.garmin.com/xmlschemas/TrackPointExtension/v1">
            <gpxtpx:hr>138</gpxtpx:hr>
          </gpxtpx:TrackPointExtension>
        </extensions>
      </trkpt>
      <trkpt lat="43.09265" lon="1.28794">
        <ele>566</ele>
        <time>2023-03-05T12:39:37Z</time>
        <extensions>
          <gpxtpx:TrackPointExtension xmlns:gpxtpx="http://www.garmin.com/xmlschemas/TrackPointExtension/v1">
            <gpxtpx:hr>138</gpxtpx:hr>
          </gpxtpx:TrackPointExtension>
        </extensions>
      </trkpt>
      <trkpt lat="43.09263" lon="1.28795">
        <ele>566.4</ele>
        <time>2023-03-05T12:39:38Z</time>
        <extensions>
          <gpxtpx:TrackPointExtension xmlns:gpxtpx="http://www.garmin.com/xmlschemas/TrackPointExtension/v1">
            <gpxtpx:hr>139</gpxtpx:hr>
          </gpxtpx:TrackPointExtension>
        </extensions>
      </trkpt>
      <trkpt lat="43.09261" lon="1.28797">
        <ele>566.8</ele>
        <time>2023-03-05T12:39:40Z</time>
        <extensions>
          <gpxtpx:TrackPointExtension xmlns:gpxtpx="http://www.garmin.com/xmlschemas/TrackPointExtension/v1">
            <gpxtpx:hr>139</gpxtpx:hr>
          </gpxtpx:TrackPointExtension>
        </extensions>
      </trkpt>
      <trkpt lat="43.0926" lon="1.28799">
        <ele>567.4</ele>
        <time>2023-03-05T12:39:41Z</time>
        <extensions>
          <gpxtpx:TrackPointExtension xmlns:gpxtpx="http://www.garmin.com/xmlschemas/TrackPointExtension/v1">
            <gpxtpx:hr>139</gpxtpx:hr>
          </gpxtpx:TrackPointExtension>
        </extensions>
      </trkpt>
      <trkpt lat="43.09258" lon="1.288">
        <ele>567.8</ele>
        <time>2023-03-05T12:39:42Z</time>
        <extensions>
          <gpxtpx:TrackPointExtension xmlns:gpxtpx="http://www.garmin.com/xmlschemas/TrackPointExtension/v1">
            <gpxtpx:hr>139</gpxtpx:hr>
          </gpxtpx:TrackPointExtension>
        </extensions>
      </trkpt>
      <trkpt lat="43.09257" lon="1.28802">
        <ele>568.2</ele>
        <time>2023-03-05T12:39:43Z</time>
        <extensions>
          <gpxtpx:TrackPointExtension xmlns:gpxtpx="http://www.garmin.com/xmlschemas/TrackPointExtension/v1">
            <gpxtpx:hr>139</gpxtpx:hr>
          </gpxtpx:TrackPointExtension>
        </extensions>
      </trkpt>
      <trkpt lat="43.09256" lon="1.28803">
        <ele>568.6</ele>
        <time>2023-03-05T12:39:44Z</time>
        <extensions>
          <gpxtpx:TrackPointExtension xmlns:gpxtpx="http://www.garmin.com/xmlschemas/TrackPointExtension/v1">
            <gpxtpx:hr>140</gpxtpx:hr>
          </gpxtpx:TrackPointExtension>
        </extensions>
      </trkpt>
      <trkpt lat="43.09254" lon="1.28806">
        <ele>569.2</ele>
        <time>2023-03-05T12:39:46Z</time>
        <extensions>
          <gpxtpx:TrackPointExtension xmlns:gpxtpx="http://www.garmin.com/xmlschemas/TrackPointExtension/v1">
            <gpxtpx:hr>140</gpxtpx:hr>
          </gpxtpx:TrackPointExtension>
        </extensions>
      </trkpt>
      <trkpt lat="43.09253" lon="1.28806">
        <ele>569.6</ele>
        <time>2023-03-05T12:39:47Z</time>
        <extensions>
          <gpxtpx:TrackPointExtension xmlns:gpxtpx="http://www.garmin.com/xmlschemas/TrackPointExtension/v1">
            <gpxtpx:hr>140</gpxtpx:hr>
          </gpxtpx:TrackPointExtension>
        </extensions>
      </trkpt>
      <trkpt lat="43.09251" lon="1.28807">
        <ele>570</ele>
        <time>2023-03-05T12:39:48Z</time>
        <extensions>
          <gpxtpx:TrackPointExtension xmlns:gpxtpx="http://www.garmin.com/xmlschemas/TrackPointExtension/v1">
            <gpxtpx:hr>140</gpxtpx:hr>
          </gpxtpx:TrackPointExtension>
        </extensions>
      </trkpt>
      <trkpt lat="43.09251" lon="1.28809">
        <ele>570.6</ele>
        <time>2023-03-05T12:39:49Z</time>
        <extensions>
          <gpxtpx:TrackPointExtension xmlns:gpxtpx="http://www.garmin.com/xmlschemas/TrackPointExtension/v1">
            <gpxtpx:hr>139</gpxtpx:hr>
          </gpxtpx:TrackPointExtension>
        </extensions>
      </trkpt>
      <trkpt lat="43.09249" lon="1.2881">
        <ele>571</ele>
        <time>2023-03-05T12:39:50Z</time>
        <extensions>
          <gpxtpx:TrackPointExtension xmlns:gpxtpx="http://www.garmin.com/xmlschemas/TrackPointExtension/v1">
            <gpxtpx:hr>139</gpxtpx:hr>
          </gpxtpx:TrackPointExtension>
        </extensions>
      </trkpt>
      <trkpt lat="43.09245" lon="1.28812">
        <ele>571</ele>
        <time>2023-03-05T12:39:53Z</time>
        <extensions>
          <gpxtpx:TrackPointExtension xmlns:gpxtpx="http://www.garmin.com/xmlschemas/TrackPointExtension/v1">
            <gpxtpx:hr>139</gpxtpx:hr>
          </gpxtpx:TrackPointExtension>
        </extensions>
      </trkpt>
      <trkpt lat="43.09244" lon="1.28814">
        <ele>571.4</ele>
        <time>2023-03-05T12:39:54Z</time>
        <extensions>
          <gpxtpx:TrackPointExtension xmlns:gpxtpx="http://www.garmin.com/xmlschemas/TrackPointExtension/v1">
            <gpxtpx:hr>139</gpxtpx:hr>
          </gpxtpx:TrackPointExtension>
        </extensions>
      </trkpt>
      <trkpt lat="43.09242" lon="1.28815">
        <ele>571.8</ele>
        <time>2023-03-05T12:39:55Z</time>
        <extensions>
          <gpxtpx:TrackPointExtension xmlns:gpxtpx="http://www.garmin.com/xmlschemas/TrackPointExtension/v1">
            <gpxtpx:hr>139</gpxtpx:hr>
          </gpxtpx:TrackPointExtension>
        </extensions>
      </trkpt>
      <trkpt lat="43.09241" lon="1.28816">
        <ele>572.2</ele>
        <time>2023-03-05T12:39:56Z</time>
        <extensions>
          <gpxtpx:TrackPointExtension xmlns:gpxtpx="http://www.garmin.com/xmlschemas/TrackPointExtension/v1">
            <gpxtpx:hr>139</gpxtpx:hr>
          </gpxtpx:TrackPointExtension>
        </extensions>
      </trkpt>
      <trkpt lat="43.0924" lon="1.28817">
        <ele>573</ele>
        <time>2023-03-05T12:39:57Z</time>
        <extensions>
          <gpxtpx:TrackPointExtension xmlns:gpxtpx="http://www.garmin.com/xmlschemas/TrackPointExtension/v1">
            <gpxtpx:hr>138</gpxtpx:hr>
          </gpxtpx:TrackPointExtension>
        </extensions>
      </trkpt>
      <trkpt lat="43.09234" lon="1.2882">
        <ele>573</ele>
        <time>2023-03-05T12:40:01Z</time>
        <extensions>
          <gpxtpx:TrackPointExtension xmlns:gpxtpx="http://www.garmin.com/xmlschemas/TrackPointExtension/v1">
            <gpxtpx:hr>138</gpxtpx:hr>
          </gpxtpx:TrackPointExtension>
        </extensions>
      </trkpt>
      <trkpt lat="43.09229" lon="1.28822">
        <ele>573.4</ele>
        <time>2023-03-05T12:40:04Z</time>
        <extensions>
          <gpxtpx:TrackPointExtension xmlns:gpxtpx="http://www.garmin.com/xmlschemas/TrackPointExtension/v1">
            <gpxtpx:hr>138</gpxtpx:hr>
          </gpxtpx:TrackPointExtension>
        </extensions>
      </trkpt>
      <trkpt lat="43.09226" lon="1.28822">
        <ele>573.8</ele>
        <time>2023-03-05T12:40:05Z</time>
        <extensions>
          <gpxtpx:TrackPointExtension xmlns:gpxtpx="http://www.garmin.com/xmlschemas/TrackPointExtension/v1">
            <gpxtpx:hr>138</gpxtpx:hr>
          </gpxtpx:TrackPointExtension>
        </extensions>
      </trkpt>
      <trkpt lat="43.09224" lon="1.28822">
        <ele>574.2</ele>
        <time>2023-03-05T12:40:06Z</time>
        <extensions>
          <gpxtpx:TrackPointExtension xmlns:gpxtpx="http://www.garmin.com/xmlschemas/TrackPointExtension/v1">
            <gpxtpx:hr>138</gpxtpx:hr>
          </gpxtpx:TrackPointExtension>
        </extensions>
      </trkpt>
      <trkpt lat="43.09222" lon="1.28823">
        <ele>574.6</ele>
        <time>2023-03-05T12:40:07Z</time>
        <extensions>
          <gpxtpx:TrackPointExtension xmlns:gpxtpx="http://www.garmin.com/xmlschemas/TrackPointExtension/v1">
            <gpxtpx:hr>138</gpxtpx:hr>
          </gpxtpx:TrackPointExtension>
        </extensions>
      </trkpt>
      <trkpt lat="43.09219" lon="1.28823">
        <ele>575.2</ele>
        <time>2023-03-05T12:40:08Z</time>
        <extensions>
          <gpxtpx:TrackPointExtension xmlns:gpxtpx="http://www.garmin.com/xmlschemas/TrackPointExtension/v1">
            <gpxtpx:hr>138</gpxtpx:hr>
          </gpxtpx:TrackPointExtension>
        </extensions>
      </trkpt>
      <trkpt lat="43.09207" lon="1.28824">
        <ele>575.2</ele>
        <time>2023-03-05T12:40:14Z</time>
        <extensions>
          <gpxtpx:TrackPointExtension xmlns:gpxtpx="http://www.garmin.com/xmlschemas/TrackPointExtension/v1">
            <gpxtpx:hr>138</gpxtpx:hr>
          </gpxtpx:TrackPointExtension>
        </extensions>
      </trkpt>
      <trkpt lat="43.09206" lon="1.28824">
        <ele>575.6</ele>
        <time>2023-03-05T12:40:15Z</time>
        <extensions>
          <gpxtpx:TrackPointExtension xmlns:gpxtpx="http://www.garmin.com/xmlschemas/TrackPointExtension/v1">
            <gpxtpx:hr>138</gpxtpx:hr>
          </gpxtpx:TrackPointExtension>
        </extensions>
      </trkpt>
      <trkpt lat="43.09204" lon="1.28825">
        <ele>576</ele>
        <time>2023-03-05T12:40:16Z</time>
        <extensions>
          <gpxtpx:TrackPointExtension xmlns:gpxtpx="http://www.garmin.com/xmlschemas/TrackPointExtension/v1">
            <gpxtpx:hr>138</gpxtpx:hr>
          </gpxtpx:TrackPointExtension>
        </extensions>
      </trkpt>
      <trkpt lat="43.09202" lon="1.28826">
        <ele>576.4</ele>
        <time>2023-03-05T12:40:17Z</time>
        <extensions>
          <gpxtpx:TrackPointExtension xmlns:gpxtpx="http://www.garmin.com/xmlschemas/TrackPointExtension/v1">
            <gpxtpx:hr>138</gpxtpx:hr>
          </gpxtpx:TrackPointExtension>
        </extensions>
      </trkpt>
      <trkpt lat="43.092" lon="1.28826">
        <ele>576.8</ele>
        <time>2023-03-05T12:40:18Z</time>
        <extensions>
          <gpxtpx:TrackPointExtension xmlns:gpxtpx="http://www.garmin.com/xmlschemas/TrackPointExtension/v1">
            <gpxtpx:hr>138</gpxtpx:hr>
          </gpxtpx:TrackPointExtension>
        </extensions>
      </trkpt>
      <trkpt lat="43.09198" lon="1.28828">
        <ele>577.2</ele>
        <time>2023-03-05T12:40:19Z</time>
        <extensions>
          <gpxtpx:TrackPointExtension xmlns:gpxtpx="http://www.garmin.com/xmlschemas/TrackPointExtension/v1">
            <gpxtpx:hr>138</gpxtpx:hr>
          </gpxtpx:TrackPointExtension>
        </extensions>
      </trkpt>
      <trkpt lat="43.09195" lon="1.28828">
        <ele>577.2</ele>
        <time>2023-03-05T12:40:20Z</time>
        <extensions>
          <gpxtpx:TrackPointExtension xmlns:gpxtpx="http://www.garmin.com/xmlschemas/TrackPointExtension/v1">
            <gpxtpx:hr>138</gpxtpx:hr>
          </gpxtpx:TrackPointExtension>
        </extensions>
      </trkpt>
      <trkpt lat="43.09194" lon="1.28829">
        <ele>577.6</ele>
        <time>2023-03-05T12:40:21Z</time>
        <extensions>
          <gpxtpx:TrackPointExtension xmlns:gpxtpx="http://www.garmin.com/xmlschemas/TrackPointExtension/v1">
            <gpxtpx:hr>138</gpxtpx:hr>
          </gpxtpx:TrackPointExtension>
        </extensions>
      </trkpt>
      <trkpt lat="43.09192" lon="1.28831">
        <ele>578.4</ele>
        <time>2023-03-05T12:40:22Z</time>
        <extensions>
          <gpxtpx:TrackPointExtension xmlns:gpxtpx="http://www.garmin.com/xmlschemas/TrackPointExtension/v1">
            <gpxtpx:hr>138</gpxtpx:hr>
          </gpxtpx:TrackPointExtension>
        </extensions>
      </trkpt>
      <trkpt lat="43.09189" lon="1.28832">
        <ele>578.8</ele>
        <time>2023-03-05T12:40:23Z</time>
        <extensions>
          <gpxtpx:TrackPointExtension xmlns:gpxtpx="http://www.garmin.com/xmlschemas/TrackPointExtension/v1">
            <gpxtpx:hr>138</gpxtpx:hr>
          </gpxtpx:TrackPointExtension>
        </extensions>
      </trkpt>
      <trkpt lat="43.09187" lon="1.28832">
        <ele>579.2</ele>
        <time>2023-03-05T12:40:24Z</time>
        <extensions>
          <gpxtpx:TrackPointExtension xmlns:gpxtpx="http://www.garmin.com/xmlschemas/TrackPointExtension/v1">
            <gpxtpx:hr>139</gpxtpx:hr>
          </gpxtpx:TrackPointExtension>
        </extensions>
      </trkpt>
      <trkpt lat="43.09185" lon="1.28833">
        <ele>579.8</ele>
        <time>2023-03-05T12:40:25Z</time>
        <extensions>
          <gpxtpx:TrackPointExtension xmlns:gpxtpx="http://www.garmin.com/xmlschemas/TrackPointExtension/v1">
            <gpxtpx:hr>139</gpxtpx:hr>
          </gpxtpx:TrackPointExtension>
        </extensions>
      </trkpt>
      <trkpt lat="43.09182" lon="1.28834">
        <ele>580.2</ele>
        <time>2023-03-05T12:40:26Z</time>
        <extensions>
          <gpxtpx:TrackPointExtension xmlns:gpxtpx="http://www.garmin.com/xmlschemas/TrackPointExtension/v1">
            <gpxtpx:hr>139</gpxtpx:hr>
          </gpxtpx:TrackPointExtension>
        </extensions>
      </trkpt>
      <trkpt lat="43.0918" lon="1.28836">
        <ele>580.6</ele>
        <time>2023-03-05T12:40:27Z</time>
        <extensions>
          <gpxtpx:TrackPointExtension xmlns:gpxtpx="http://www.garmin.com/xmlschemas/TrackPointExtension/v1">
            <gpxtpx:hr>139</gpxtpx:hr>
          </gpxtpx:TrackPointExtension>
        </extensions>
      </trkpt>
      <trkpt lat="43.09177" lon="1.28838">
        <ele>581</ele>
        <time>2023-03-05T12:40:28Z</time>
        <extensions>
          <gpxtpx:TrackPointExtension xmlns:gpxtpx="http://www.garmin.com/xmlschemas/TrackPointExtension/v1">
            <gpxtpx:hr>139</gpxtpx:hr>
          </gpxtpx:TrackPointExtension>
        </extensions>
      </trkpt>
      <trkpt lat="43.09175" lon="1.28839">
        <ele>581.4</ele>
        <time>2023-03-05T12:40:29Z</time>
        <extensions>
          <gpxtpx:TrackPointExtension xmlns:gpxtpx="http://www.garmin.com/xmlschemas/TrackPointExtension/v1">
            <gpxtpx:hr>139</gpxtpx:hr>
          </gpxtpx:TrackPointExtension>
        </extensions>
      </trkpt>
      <trkpt lat="43.0917" lon="1.28842">
        <ele>581.4</ele>
        <time>2023-03-05T12:40:31Z</time>
        <extensions>
          <gpxtpx:TrackPointExtension xmlns:gpxtpx="http://www.garmin.com/xmlschemas/TrackPointExtension/v1">
            <gpxtpx:hr>139</gpxtpx:hr>
          </gpxtpx:TrackPointExtension>
        </extensions>
      </trkpt>
      <trkpt lat="43.09159" lon="1.28857">
        <ele>581.4</ele>
        <time>2023-03-05T12:40:36Z</time>
        <extensions>
          <gpxtpx:TrackPointExtension xmlns:gpxtpx="http://www.garmin.com/xmlschemas/TrackPointExtension/v1">
            <gpxtpx:hr>139</gpxtpx:hr>
          </gpxtpx:TrackPointExtension>
        </extensions>
      </trkpt>
      <trkpt lat="43.09155" lon="1.28862">
        <ele>581.4</ele>
        <time>2023-03-05T12:40:37Z</time>
        <extensions>
          <gpxtpx:TrackPointExtension xmlns:gpxtpx="http://www.garmin.com/xmlschemas/TrackPointExtension/v1">
            <gpxtpx:hr>139</gpxtpx:hr>
          </gpxtpx:TrackPointExtension>
        </extensions>
      </trkpt>
      <trkpt lat="43.09147" lon="1.28864">
        <ele>581.4</ele>
        <time>2023-03-05T12:40:39Z</time>
        <extensions>
          <gpxtpx:TrackPointExtension xmlns:gpxtpx="http://www.garmin.com/xmlschemas/TrackPointExtension/v1">
            <gpxtpx:hr>139</gpxtpx:hr>
          </gpxtpx:TrackPointExtension>
        </extensions>
      </trkpt>
      <trkpt lat="43.0914" lon="1.28863">
        <ele>581.4</ele>
        <time>2023-03-05T12:40:42Z</time>
        <extensions>
          <gpxtpx:TrackPointExtension xmlns:gpxtpx="http://www.garmin.com/xmlschemas/TrackPointExtension/v1">
            <gpxtpx:hr>139</gpxtpx:hr>
          </gpxtpx:TrackPointExtension>
        </extensions>
      </trkpt>
      <trkpt lat="43.09138" lon="1.28864">
        <ele>581.4</ele>
        <time>2023-03-05T12:40:44Z</time>
        <extensions>
          <gpxtpx:TrackPointExtension xmlns:gpxtpx="http://www.garmin.com/xmlschemas/TrackPointExtension/v1">
            <gpxtpx:hr>138</gpxtpx:hr>
          </gpxtpx:TrackPointExtension>
        </extensions>
      </trkpt>
      <trkpt lat="43.09137" lon="1.28863">
        <ele>581.4</ele>
        <time>2023-03-05T12:40:46Z</time>
        <extensions>
          <gpxtpx:TrackPointExtension xmlns:gpxtpx="http://www.garmin.com/xmlschemas/TrackPointExtension/v1">
            <gpxtpx:hr>136</gpxtpx:hr>
          </gpxtpx:TrackPointExtension>
        </extensions>
      </trkpt>
      <trkpt lat="43.09136" lon="1.28863">
        <ele>581.4</ele>
        <time>2023-03-05T12:41:24Z</time>
        <extensions>
          <gpxtpx:TrackPointExtension xmlns:gpxtpx="http://www.garmin.com/xmlschemas/TrackPointExtension/v1">
            <gpxtpx:hr>124</gpxtpx:hr>
          </gpxtpx:TrackPointExtension>
        </extensions>
      </trkpt>
      <trkpt lat="43.09133" lon="1.28864">
        <ele>581.4</ele>
        <time>2023-03-05T12:41:25Z</time>
        <extensions>
          <gpxtpx:TrackPointExtension xmlns:gpxtpx="http://www.garmin.com/xmlschemas/TrackPointExtension/v1">
            <gpxtpx:hr>124</gpxtpx:hr>
          </gpxtpx:TrackPointExtension>
        </extensions>
      </trkpt>
      <trkpt lat="43.09121" lon="1.2886">
        <ele>581.4</ele>
        <time>2023-03-05T12:41:30Z</time>
        <extensions>
          <gpxtpx:TrackPointExtension xmlns:gpxtpx="http://www.garmin.com/xmlschemas/TrackPointExtension/v1">
            <gpxtpx:hr>120</gpxtpx:hr>
          </gpxtpx:TrackPointExtension>
        </extensions>
      </trkpt>
      <trkpt lat="43.09118" lon="1.28859">
        <ele>581.4</ele>
        <time>2023-03-05T12:41:32Z</time>
        <extensions>
          <gpxtpx:TrackPointExtension xmlns:gpxtpx="http://www.garmin.com/xmlschemas/TrackPointExtension/v1">
            <gpxtpx:hr>117</gpxtpx:hr>
          </gpxtpx:TrackPointExtension>
        </extensions>
      </trkpt>
      <trkpt lat="43.09116" lon="1.2886">
        <ele>580.8</ele>
        <time>2023-03-05T12:41:33Z</time>
        <extensions>
          <gpxtpx:TrackPointExtension xmlns:gpxtpx="http://www.garmin.com/xmlschemas/TrackPointExtension/v1">
            <gpxtpx:hr>115</gpxtpx:hr>
          </gpxtpx:TrackPointExtension>
        </extensions>
      </trkpt>
      <trkpt lat="43.09115" lon="1.28862">
        <ele>579.8</ele>
        <time>2023-03-05T12:41:34Z</time>
        <extensions>
          <gpxtpx:TrackPointExtension xmlns:gpxtpx="http://www.garmin.com/xmlschemas/TrackPointExtension/v1">
            <gpxtpx:hr>114</gpxtpx:hr>
          </gpxtpx:TrackPointExtension>
        </extensions>
      </trkpt>
      <trkpt lat="43.09114" lon="1.28863">
        <ele>579.4</ele>
        <time>2023-03-05T12:41:35Z</time>
        <extensions>
          <gpxtpx:TrackPointExtension xmlns:gpxtpx="http://www.garmin.com/xmlschemas/TrackPointExtension/v1">
            <gpxtpx:hr>113</gpxtpx:hr>
          </gpxtpx:TrackPointExtension>
        </extensions>
      </trkpt>
      <trkpt lat="43.09113" lon="1.28865">
        <ele>578.8</ele>
        <time>2023-03-05T12:41:36Z</time>
        <extensions>
          <gpxtpx:TrackPointExtension xmlns:gpxtpx="http://www.garmin.com/xmlschemas/TrackPointExtension/v1">
            <gpxtpx:hr>112</gpxtpx:hr>
          </gpxtpx:TrackPointExtension>
        </extensions>
      </trkpt>
      <trkpt lat="43.09107" lon="1.28868">
        <ele>578.8</ele>
        <time>2023-03-05T12:41:39Z</time>
        <extensions>
          <gpxtpx:TrackPointExtension xmlns:gpxtpx="http://www.garmin.com/xmlschemas/TrackPointExtension/v1">
            <gpxtpx:hr>111</gpxtpx:hr>
          </gpxtpx:TrackPointExtension>
        </extensions>
      </trkpt>
      <trkpt lat="43.09106" lon="1.28869">
        <ele>578.4</ele>
        <time>2023-03-05T12:41:40Z</time>
        <extensions>
          <gpxtpx:TrackPointExtension xmlns:gpxtpx="http://www.garmin.com/xmlschemas/TrackPointExtension/v1">
            <gpxtpx:hr>111</gpxtpx:hr>
          </gpxtpx:TrackPointExtension>
        </extensions>
      </trkpt>
      <trkpt lat="43.09104" lon="1.2887">
        <ele>578</ele>
        <time>2023-03-05T12:41:41Z</time>
        <extensions>
          <gpxtpx:TrackPointExtension xmlns:gpxtpx="http://www.garmin.com/xmlschemas/TrackPointExtension/v1">
            <gpxtpx:hr>110</gpxtpx:hr>
          </gpxtpx:TrackPointExtension>
        </extensions>
      </trkpt>
      <trkpt lat="43.09103" lon="1.28873">
        <ele>577.6</ele>
        <time>2023-03-05T12:41:42Z</time>
        <extensions>
          <gpxtpx:TrackPointExtension xmlns:gpxtpx="http://www.garmin.com/xmlschemas/TrackPointExtension/v1">
            <gpxtpx:hr>111</gpxtpx:hr>
          </gpxtpx:TrackPointExtension>
        </extensions>
      </trkpt>
      <trkpt lat="43.09101" lon="1.28875">
        <ele>577.2</ele>
        <time>2023-03-05T12:41:43Z</time>
        <extensions>
          <gpxtpx:TrackPointExtension xmlns:gpxtpx="http://www.garmin.com/xmlschemas/TrackPointExtension/v1">
            <gpxtpx:hr>110</gpxtpx:hr>
          </gpxtpx:TrackPointExtension>
        </extensions>
      </trkpt>
      <trkpt lat="43.09099" lon="1.28877">
        <ele>576.8</ele>
        <time>2023-03-05T12:41:44Z</time>
        <extensions>
          <gpxtpx:TrackPointExtension xmlns:gpxtpx="http://www.garmin.com/xmlschemas/TrackPointExtension/v1">
            <gpxtpx:hr>110</gpxtpx:hr>
          </gpxtpx:TrackPointExtension>
        </extensions>
      </trkpt>
      <trkpt lat="43.09099" lon="1.28877">
        <ele>576.4</ele>
        <time>2023-03-05T12:41:45Z</time>
        <extensions>
          <gpxtpx:TrackPointExtension xmlns:gpxtpx="http://www.garmin.com/xmlschemas/TrackPointExtension/v1">
            <gpxtpx:hr>111</gpxtpx:hr>
          </gpxtpx:TrackPointExtension>
        </extensions>
      </trkpt>
      <trkpt lat="43.09099" lon="1.28877">
        <ele>576</ele>
        <time>2023-03-05T12:41:46Z</time>
        <extensions>
          <gpxtpx:TrackPointExtension xmlns:gpxtpx="http://www.garmin.com/xmlschemas/TrackPointExtension/v1">
            <gpxtpx:hr>110</gpxtpx:hr>
          </gpxtpx:TrackPointExtension>
        </extensions>
      </trkpt>
      <trkpt lat="43.09098" lon="1.28878">
        <ele>574.6</ele>
        <time>2023-03-05T12:41:50Z</time>
        <extensions>
          <gpxtpx:TrackPointExtension xmlns:gpxtpx="http://www.garmin.com/xmlschemas/TrackPointExtension/v1">
            <gpxtpx:hr>111</gpxtpx:hr>
          </gpxtpx:TrackPointExtension>
        </extensions>
      </trkpt>
      <trkpt lat="43.09085" lon="1.28891">
        <ele>574.2</ele>
        <time>2023-03-05T12:41:54Z</time>
        <extensions>
          <gpxtpx:TrackPointExtension xmlns:gpxtpx="http://www.garmin.com/xmlschemas/TrackPointExtension/v1">
            <gpxtpx:hr>112</gpxtpx:hr>
          </gpxtpx:TrackPointExtension>
        </extensions>
      </trkpt>
      <trkpt lat="43.09082" lon="1.28894">
        <ele>573.6</ele>
        <time>2023-03-05T12:41:55Z</time>
        <extensions>
          <gpxtpx:TrackPointExtension xmlns:gpxtpx="http://www.garmin.com/xmlschemas/TrackPointExtension/v1">
            <gpxtpx:hr>113</gpxtpx:hr>
          </gpxtpx:TrackPointExtension>
        </extensions>
      </trkpt>
      <trkpt lat="43.0908" lon="1.28896">
        <ele>573.2</ele>
        <time>2023-03-05T12:41:56Z</time>
        <extensions>
          <gpxtpx:TrackPointExtension xmlns:gpxtpx="http://www.garmin.com/xmlschemas/TrackPointExtension/v1">
            <gpxtpx:hr>113</gpxtpx:hr>
          </gpxtpx:TrackPointExtension>
        </extensions>
      </trkpt>
      <trkpt lat="43.09078" lon="1.28898">
        <ele>572.6</ele>
        <time>2023-03-05T12:41:57Z</time>
        <extensions>
          <gpxtpx:TrackPointExtension xmlns:gpxtpx="http://www.garmin.com/xmlschemas/TrackPointExtension/v1">
            <gpxtpx:hr>114</gpxtpx:hr>
          </gpxtpx:TrackPointExtension>
        </extensions>
      </trkpt>
      <trkpt lat="43.09076" lon="1.28899">
        <ele>572.2</ele>
        <time>2023-03-05T12:41:58Z</time>
        <extensions>
          <gpxtpx:TrackPointExtension xmlns:gpxtpx="http://www.garmin.com/xmlschemas/TrackPointExtension/v1">
            <gpxtpx:hr>114</gpxtpx:hr>
          </gpxtpx:TrackPointExtension>
        </extensions>
      </trkpt>
      <trkpt lat="43.09073" lon="1.289">
        <ele>572.2</ele>
        <time>2023-03-05T12:41:59Z</time>
        <extensions>
          <gpxtpx:TrackPointExtension xmlns:gpxtpx="http://www.garmin.com/xmlschemas/TrackPointExtension/v1">
            <gpxtpx:hr>114</gpxtpx:hr>
          </gpxtpx:TrackPointExtension>
        </extensions>
      </trkpt>
      <trkpt lat="43.0907" lon="1.28902">
        <ele>571.2</ele>
        <time>2023-03-05T12:42:00Z</time>
        <extensions>
          <gpxtpx:TrackPointExtension xmlns:gpxtpx="http://www.garmin.com/xmlschemas/TrackPointExtension/v1">
            <gpxtpx:hr>115</gpxtpx:hr>
          </gpxtpx:TrackPointExtension>
        </extensions>
      </trkpt>
      <trkpt lat="43.09067" lon="1.28903">
        <ele>570.8</ele>
        <time>2023-03-05T12:42:01Z</time>
        <extensions>
          <gpxtpx:TrackPointExtension xmlns:gpxtpx="http://www.garmin.com/xmlschemas/TrackPointExtension/v1">
            <gpxtpx:hr>115</gpxtpx:hr>
          </gpxtpx:TrackPointExtension>
        </extensions>
      </trkpt>
      <trkpt lat="43.09065" lon="1.28903">
        <ele>570.4</ele>
        <time>2023-03-05T12:42:02Z</time>
        <extensions>
          <gpxtpx:TrackPointExtension xmlns:gpxtpx="http://www.garmin.com/xmlschemas/TrackPointExtension/v1">
            <gpxtpx:hr>115</gpxtpx:hr>
          </gpxtpx:TrackPointExtension>
        </extensions>
      </trkpt>
      <trkpt lat="43.09064" lon="1.28902">
        <ele>570</ele>
        <time>2023-03-05T12:42:03Z</time>
        <extensions>
          <gpxtpx:TrackPointExtension xmlns:gpxtpx="http://www.garmin.com/xmlschemas/TrackPointExtension/v1">
            <gpxtpx:hr>115</gpxtpx:hr>
          </gpxtpx:TrackPointExtension>
        </extensions>
      </trkpt>
      <trkpt lat="43.09064" lon="1.28902">
        <ele>570</ele>
        <time>2023-03-05T12:42:04Z</time>
        <extensions>
          <gpxtpx:TrackPointExtension xmlns:gpxtpx="http://www.garmin.com/xmlschemas/TrackPointExtension/v1">
            <gpxtpx:hr>114</gpxtpx:hr>
          </gpxtpx:TrackPointExtension>
        </extensions>
      </trkpt>
      <trkpt lat="43.09063" lon="1.28902">
        <ele>570</ele>
        <time>2023-03-05T12:42:05Z</time>
        <extensions>
          <gpxtpx:TrackPointExtension xmlns:gpxtpx="http://www.garmin.com/xmlschemas/TrackPointExtension/v1">
            <gpxtpx:hr>114</gpxtpx:hr>
          </gpxtpx:TrackPointExtension>
        </extensions>
      </trkpt>
      <trkpt lat="43.09061" lon="1.289">
        <ele>570</ele>
        <time>2023-03-05T12:42:09Z</time>
        <extensions>
          <gpxtpx:TrackPointExtension xmlns:gpxtpx="http://www.garmin.com/xmlschemas/TrackPointExtension/v1">
            <gpxtpx:hr>114</gpxtpx:hr>
          </gpxtpx:TrackPointExtension>
        </extensions>
      </trkpt>
      <trkpt lat="43.09056" lon="1.28898">
        <ele>570</ele>
        <time>2023-03-05T12:42:11Z</time>
        <extensions>
          <gpxtpx:TrackPointExtension xmlns:gpxtpx="http://www.garmin.com/xmlschemas/TrackPointExtension/v1">
            <gpxtpx:hr>113</gpxtpx:hr>
          </gpxtpx:TrackPointExtension>
        </extensions>
      </trkpt>
      <trkpt lat="43.09055" lon="1.28898">
        <ele>569.4</ele>
        <time>2023-03-05T12:42:12Z</time>
        <extensions>
          <gpxtpx:TrackPointExtension xmlns:gpxtpx="http://www.garmin.com/xmlschemas/TrackPointExtension/v1">
            <gpxtpx:hr>112</gpxtpx:hr>
          </gpxtpx:TrackPointExtension>
        </extensions>
      </trkpt>
      <trkpt lat="43.09054" lon="1.28897">
        <ele>569</ele>
        <time>2023-03-05T12:42:13Z</time>
        <extensions>
          <gpxtpx:TrackPointExtension xmlns:gpxtpx="http://www.garmin.com/xmlschemas/TrackPointExtension/v1">
            <gpxtpx:hr>111</gpxtpx:hr>
          </gpxtpx:TrackPointExtension>
        </extensions>
      </trkpt>
      <trkpt lat="43.09053" lon="1.28896">
        <ele>568.6</ele>
        <time>2023-03-05T12:42:14Z</time>
        <extensions>
          <gpxtpx:TrackPointExtension xmlns:gpxtpx="http://www.garmin.com/xmlschemas/TrackPointExtension/v1">
            <gpxtpx:hr>109</gpxtpx:hr>
          </gpxtpx:TrackPointExtension>
        </extensions>
      </trkpt>
      <trkpt lat="43.09052" lon="1.28896">
        <ele>568</ele>
        <time>2023-03-05T12:42:15Z</time>
        <extensions>
          <gpxtpx:TrackPointExtension xmlns:gpxtpx="http://www.garmin.com/xmlschemas/TrackPointExtension/v1">
            <gpxtpx:hr>108</gpxtpx:hr>
          </gpxtpx:TrackPointExtension>
        </extensions>
      </trkpt>
      <trkpt lat="43.0905" lon="1.28895">
        <ele>567.6</ele>
        <time>2023-03-05T12:42:16Z</time>
        <extensions>
          <gpxtpx:TrackPointExtension xmlns:gpxtpx="http://www.garmin.com/xmlschemas/TrackPointExtension/v1">
            <gpxtpx:hr>107</gpxtpx:hr>
          </gpxtpx:TrackPointExtension>
        </extensions>
      </trkpt>
      <trkpt lat="43.09044" lon="1.28896">
        <ele>567.2</ele>
        <time>2023-03-05T12:42:19Z</time>
        <extensions>
          <gpxtpx:TrackPointExtension xmlns:gpxtpx="http://www.garmin.com/xmlschemas/TrackPointExtension/v1">
            <gpxtpx:hr>107</gpxtpx:hr>
          </gpxtpx:TrackPointExtension>
        </extensions>
      </trkpt>
      <trkpt lat="43.09042" lon="1.28896">
        <ele>566.6</ele>
        <time>2023-03-05T12:42:20Z</time>
        <extensions>
          <gpxtpx:TrackPointExtension xmlns:gpxtpx="http://www.garmin.com/xmlschemas/TrackPointExtension/v1">
            <gpxtpx:hr>108</gpxtpx:hr>
          </gpxtpx:TrackPointExtension>
        </extensions>
      </trkpt>
      <trkpt lat="43.0904" lon="1.28897">
        <ele>566.2</ele>
        <time>2023-03-05T12:42:21Z</time>
        <extensions>
          <gpxtpx:TrackPointExtension xmlns:gpxtpx="http://www.garmin.com/xmlschemas/TrackPointExtension/v1">
            <gpxtpx:hr>108</gpxtpx:hr>
          </gpxtpx:TrackPointExtension>
        </extensions>
      </trkpt>
      <trkpt lat="43.09038" lon="1.28898">
        <ele>565.8</ele>
        <time>2023-03-05T12:42:22Z</time>
        <extensions>
          <gpxtpx:TrackPointExtension xmlns:gpxtpx="http://www.garmin.com/xmlschemas/TrackPointExtension/v1">
            <gpxtpx:hr>108</gpxtpx:hr>
          </gpxtpx:TrackPointExtension>
        </extensions>
      </trkpt>
      <trkpt lat="43.09036" lon="1.28898">
        <ele>565.2</ele>
        <time>2023-03-05T12:42:23Z</time>
        <extensions>
          <gpxtpx:TrackPointExtension xmlns:gpxtpx="http://www.garmin.com/xmlschemas/TrackPointExtension/v1">
            <gpxtpx:hr>108</gpxtpx:hr>
          </gpxtpx:TrackPointExtension>
        </extensions>
      </trkpt>
      <trkpt lat="43.09034" lon="1.28897">
        <ele>564</ele>
        <time>2023-03-05T12:42:24Z</time>
        <extensions>
          <gpxtpx:TrackPointExtension xmlns:gpxtpx="http://www.garmin.com/xmlschemas/TrackPointExtension/v1">
            <gpxtpx:hr>107</gpxtpx:hr>
          </gpxtpx:TrackPointExtension>
        </extensions>
      </trkpt>
      <trkpt lat="43.09031" lon="1.28897">
        <ele>563.4</ele>
        <time>2023-03-05T12:42:25Z</time>
        <extensions>
          <gpxtpx:TrackPointExtension xmlns:gpxtpx="http://www.garmin.com/xmlschemas/TrackPointExtension/v1">
            <gpxtpx:hr>107</gpxtpx:hr>
          </gpxtpx:TrackPointExtension>
        </extensions>
      </trkpt>
      <trkpt lat="43.09029" lon="1.28897">
        <ele>562.8</ele>
        <time>2023-03-05T12:42:26Z</time>
        <extensions>
          <gpxtpx:TrackPointExtension xmlns:gpxtpx="http://www.garmin.com/xmlschemas/TrackPointExtension/v1">
            <gpxtpx:hr>107</gpxtpx:hr>
          </gpxtpx:TrackPointExtension>
        </extensions>
      </trkpt>
      <trkpt lat="43.09026" lon="1.28898">
        <ele>562</ele>
        <time>2023-03-05T12:42:27Z</time>
        <extensions>
          <gpxtpx:TrackPointExtension xmlns:gpxtpx="http://www.garmin.com/xmlschemas/TrackPointExtension/v1">
            <gpxtpx:hr>107</gpxtpx:hr>
          </gpxtpx:TrackPointExtension>
        </extensions>
      </trkpt>
      <trkpt lat="43.09023" lon="1.28899">
        <ele>561.4</ele>
        <time>2023-03-05T12:42:28Z</time>
        <extensions>
          <gpxtpx:TrackPointExtension xmlns:gpxtpx="http://www.garmin.com/xmlschemas/TrackPointExtension/v1">
            <gpxtpx:hr>106</gpxtpx:hr>
          </gpxtpx:TrackPointExtension>
        </extensions>
      </trkpt>
      <trkpt lat="43.09022" lon="1.28897">
        <ele>560.6</ele>
        <time>2023-03-05T12:42:29Z</time>
        <extensions>
          <gpxtpx:TrackPointExtension xmlns:gpxtpx="http://www.garmin.com/xmlschemas/TrackPointExtension/v1">
            <gpxtpx:hr>105</gpxtpx:hr>
          </gpxtpx:TrackPointExtension>
        </extensions>
      </trkpt>
      <trkpt lat="43.09021" lon="1.28895">
        <ele>559.8</ele>
        <time>2023-03-05T12:42:30Z</time>
        <extensions>
          <gpxtpx:TrackPointExtension xmlns:gpxtpx="http://www.garmin.com/xmlschemas/TrackPointExtension/v1">
            <gpxtpx:hr>105</gpxtpx:hr>
          </gpxtpx:TrackPointExtension>
        </extensions>
      </trkpt>
      <trkpt lat="43.0902" lon="1.28892">
        <ele>559</ele>
        <time>2023-03-05T12:42:31Z</time>
        <extensions>
          <gpxtpx:TrackPointExtension xmlns:gpxtpx="http://www.garmin.com/xmlschemas/TrackPointExtension/v1">
            <gpxtpx:hr>105</gpxtpx:hr>
          </gpxtpx:TrackPointExtension>
        </extensions>
      </trkpt>
      <trkpt lat="43.09019" lon="1.28888">
        <ele>558.2</ele>
        <time>2023-03-05T12:42:32Z</time>
        <extensions>
          <gpxtpx:TrackPointExtension xmlns:gpxtpx="http://www.garmin.com/xmlschemas/TrackPointExtension/v1">
            <gpxtpx:hr>104</gpxtpx:hr>
          </gpxtpx:TrackPointExtension>
        </extensions>
      </trkpt>
      <trkpt lat="43.09017" lon="1.28884">
        <ele>557.4</ele>
        <time>2023-03-05T12:42:33Z</time>
        <extensions>
          <gpxtpx:TrackPointExtension xmlns:gpxtpx="http://www.garmin.com/xmlschemas/TrackPointExtension/v1">
            <gpxtpx:hr>104</gpxtpx:hr>
          </gpxtpx:TrackPointExtension>
        </extensions>
      </trkpt>
      <trkpt lat="43.09015" lon="1.2888">
        <ele>556.8</ele>
        <time>2023-03-05T12:42:34Z</time>
        <extensions>
          <gpxtpx:TrackPointExtension xmlns:gpxtpx="http://www.garmin.com/xmlschemas/TrackPointExtension/v1">
            <gpxtpx:hr>104</gpxtpx:hr>
          </gpxtpx:TrackPointExtension>
        </extensions>
      </trkpt>
      <trkpt lat="43.09014" lon="1.28876">
        <ele>556.2</ele>
        <time>2023-03-05T12:42:35Z</time>
        <extensions>
          <gpxtpx:TrackPointExtension xmlns:gpxtpx="http://www.garmin.com/xmlschemas/TrackPointExtension/v1">
            <gpxtpx:hr>104</gpxtpx:hr>
          </gpxtpx:TrackPointExtension>
        </extensions>
      </trkpt>
      <trkpt lat="43.09012" lon="1.28871">
        <ele>555.6</ele>
        <time>2023-03-05T12:42:36Z</time>
        <extensions>
          <gpxtpx:TrackPointExtension xmlns:gpxtpx="http://www.garmin.com/xmlschemas/TrackPointExtension/v1">
            <gpxtpx:hr>104</gpxtpx:hr>
          </gpxtpx:TrackPointExtension>
        </extensions>
      </trkpt>
      <trkpt lat="43.0901" lon="1.28865">
        <ele>554.8</ele>
        <time>2023-03-05T12:42:37Z</time>
        <extensions>
          <gpxtpx:TrackPointExtension xmlns:gpxtpx="http://www.garmin.com/xmlschemas/TrackPointExtension/v1">
            <gpxtpx:hr>104</gpxtpx:hr>
          </gpxtpx:TrackPointExtension>
        </extensions>
      </trkpt>
      <trkpt lat="43.0901" lon="1.2886">
        <ele>554</ele>
        <time>2023-03-05T12:42:38Z</time>
        <extensions>
          <gpxtpx:TrackPointExtension xmlns:gpxtpx="http://www.garmin.com/xmlschemas/TrackPointExtension/v1">
            <gpxtpx:hr>104</gpxtpx:hr>
          </gpxtpx:TrackPointExtension>
        </extensions>
      </trkpt>
      <trkpt lat="43.09008" lon="1.28855">
        <ele>553.2</ele>
        <time>2023-03-05T12:42:39Z</time>
        <extensions>
          <gpxtpx:TrackPointExtension xmlns:gpxtpx="http://www.garmin.com/xmlschemas/TrackPointExtension/v1">
            <gpxtpx:hr>105</gpxtpx:hr>
          </gpxtpx:TrackPointExtension>
        </extensions>
      </trkpt>
      <trkpt lat="43.09007" lon="1.2885">
        <ele>552.4</ele>
        <time>2023-03-05T12:42:40Z</time>
        <extensions>
          <gpxtpx:TrackPointExtension xmlns:gpxtpx="http://www.garmin.com/xmlschemas/TrackPointExtension/v1">
            <gpxtpx:hr>106</gpxtpx:hr>
          </gpxtpx:TrackPointExtension>
        </extensions>
      </trkpt>
      <trkpt lat="43.09005" lon="1.28846">
        <ele>551.6</ele>
        <time>2023-03-05T12:42:41Z</time>
        <extensions>
          <gpxtpx:TrackPointExtension xmlns:gpxtpx="http://www.garmin.com/xmlschemas/TrackPointExtension/v1">
            <gpxtpx:hr>106</gpxtpx:hr>
          </gpxtpx:TrackPointExtension>
        </extensions>
      </trkpt>
      <trkpt lat="43.09003" lon="1.28841">
        <ele>550.8</ele>
        <time>2023-03-05T12:42:42Z</time>
        <extensions>
          <gpxtpx:TrackPointExtension xmlns:gpxtpx="http://www.garmin.com/xmlschemas/TrackPointExtension/v1">
            <gpxtpx:hr>106</gpxtpx:hr>
          </gpxtpx:TrackPointExtension>
        </extensions>
      </trkpt>
      <trkpt lat="43.09002" lon="1.28837">
        <ele>550</ele>
        <time>2023-03-05T12:42:43Z</time>
        <extensions>
          <gpxtpx:TrackPointExtension xmlns:gpxtpx="http://www.garmin.com/xmlschemas/TrackPointExtension/v1">
            <gpxtpx:hr>107</gpxtpx:hr>
          </gpxtpx:TrackPointExtension>
        </extensions>
      </trkpt>
      <trkpt lat="43.09001" lon="1.28832">
        <ele>549.2</ele>
        <time>2023-03-05T12:42:44Z</time>
        <extensions>
          <gpxtpx:TrackPointExtension xmlns:gpxtpx="http://www.garmin.com/xmlschemas/TrackPointExtension/v1">
            <gpxtpx:hr>108</gpxtpx:hr>
          </gpxtpx:TrackPointExtension>
        </extensions>
      </trkpt>
      <trkpt lat="43.09" lon="1.28827">
        <ele>548.4</ele>
        <time>2023-03-05T12:42:45Z</time>
        <extensions>
          <gpxtpx:TrackPointExtension xmlns:gpxtpx="http://www.garmin.com/xmlschemas/TrackPointExtension/v1">
            <gpxtpx:hr>108</gpxtpx:hr>
          </gpxtpx:TrackPointExtension>
        </extensions>
      </trkpt>
      <trkpt lat="43.09" lon="1.28822">
        <ele>547.6</ele>
        <time>2023-03-05T12:42:46Z</time>
        <extensions>
          <gpxtpx:TrackPointExtension xmlns:gpxtpx="http://www.garmin.com/xmlschemas/TrackPointExtension/v1">
            <gpxtpx:hr>109</gpxtpx:hr>
          </gpxtpx:TrackPointExtension>
        </extensions>
      </trkpt>
      <trkpt lat="43.09" lon="1.28818">
        <ele>546.8</ele>
        <time>2023-03-05T12:42:47Z</time>
        <extensions>
          <gpxtpx:TrackPointExtension xmlns:gpxtpx="http://www.garmin.com/xmlschemas/TrackPointExtension/v1">
            <gpxtpx:hr>109</gpxtpx:hr>
          </gpxtpx:TrackPointExtension>
        </extensions>
      </trkpt>
      <trkpt lat="43.08998" lon="1.28811">
        <ele>546</ele>
        <time>2023-03-05T12:42:48Z</time>
        <extensions>
          <gpxtpx:TrackPointExtension xmlns:gpxtpx="http://www.garmin.com/xmlschemas/TrackPointExtension/v1">
            <gpxtpx:hr>109</gpxtpx:hr>
          </gpxtpx:TrackPointExtension>
        </extensions>
      </trkpt>
      <trkpt lat="43.08996" lon="1.28805">
        <ele>544.2</ele>
        <time>2023-03-05T12:42:49Z</time>
        <extensions>
          <gpxtpx:TrackPointExtension xmlns:gpxtpx="http://www.garmin.com/xmlschemas/TrackPointExtension/v1">
            <gpxtpx:hr>109</gpxtpx:hr>
          </gpxtpx:TrackPointExtension>
        </extensions>
      </trkpt>
      <trkpt lat="43.08995" lon="1.28799">
        <ele>543.2</ele>
        <time>2023-03-05T12:42:50Z</time>
        <extensions>
          <gpxtpx:TrackPointExtension xmlns:gpxtpx="http://www.garmin.com/xmlschemas/TrackPointExtension/v1">
            <gpxtpx:hr>109</gpxtpx:hr>
          </gpxtpx:TrackPointExtension>
        </extensions>
      </trkpt>
      <trkpt lat="43.08994" lon="1.28792">
        <ele>542.4</ele>
        <time>2023-03-05T12:42:51Z</time>
        <extensions>
          <gpxtpx:TrackPointExtension xmlns:gpxtpx="http://www.garmin.com/xmlschemas/TrackPointExtension/v1">
            <gpxtpx:hr>109</gpxtpx:hr>
          </gpxtpx:TrackPointExtension>
        </extensions>
      </trkpt>
      <trkpt lat="43.08993" lon="1.28786">
        <ele>541.2</ele>
        <time>2023-03-05T12:42:52Z</time>
        <extensions>
          <gpxtpx:TrackPointExtension xmlns:gpxtpx="http://www.garmin.com/xmlschemas/TrackPointExtension/v1">
            <gpxtpx:hr>108</gpxtpx:hr>
          </gpxtpx:TrackPointExtension>
        </extensions>
      </trkpt>
      <trkpt lat="43.08991" lon="1.28779">
        <ele>540.2</ele>
        <time>2023-03-05T12:42:53Z</time>
        <extensions>
          <gpxtpx:TrackPointExtension xmlns:gpxtpx="http://www.garmin.com/xmlschemas/TrackPointExtension/v1">
            <gpxtpx:hr>108</gpxtpx:hr>
          </gpxtpx:TrackPointExtension>
        </extensions>
      </trkpt>
      <trkpt lat="43.0899" lon="1.28772">
        <ele>539</ele>
        <time>2023-03-05T12:42:54Z</time>
        <extensions>
          <gpxtpx:TrackPointExtension xmlns:gpxtpx="http://www.garmin.com/xmlschemas/TrackPointExtension/v1">
            <gpxtpx:hr>108</gpxtpx:hr>
          </gpxtpx:TrackPointExtension>
        </extensions>
      </trkpt>
      <trkpt lat="43.08987" lon="1.28766">
        <ele>538</ele>
        <time>2023-03-05T12:42:55Z</time>
        <extensions>
          <gpxtpx:TrackPointExtension xmlns:gpxtpx="http://www.garmin.com/xmlschemas/TrackPointExtension/v1">
            <gpxtpx:hr>107</gpxtpx:hr>
          </gpxtpx:TrackPointExtension>
        </extensions>
      </trkpt>
      <trkpt lat="43.08986" lon="1.2876">
        <ele>536.6</ele>
        <time>2023-03-05T12:42:56Z</time>
        <extensions>
          <gpxtpx:TrackPointExtension xmlns:gpxtpx="http://www.garmin.com/xmlschemas/TrackPointExtension/v1">
            <gpxtpx:hr>105</gpxtpx:hr>
          </gpxtpx:TrackPointExtension>
        </extensions>
      </trkpt>
      <trkpt lat="43.08982" lon="1.28755">
        <ele>535.4</ele>
        <time>2023-03-05T12:42:57Z</time>
        <extensions>
          <gpxtpx:TrackPointExtension xmlns:gpxtpx="http://www.garmin.com/xmlschemas/TrackPointExtension/v1">
            <gpxtpx:hr>104</gpxtpx:hr>
          </gpxtpx:TrackPointExtension>
        </extensions>
      </trkpt>
      <trkpt lat="43.08978" lon="1.28752">
        <ele>534</ele>
        <time>2023-03-05T12:42:58Z</time>
        <extensions>
          <gpxtpx:TrackPointExtension xmlns:gpxtpx="http://www.garmin.com/xmlschemas/TrackPointExtension/v1">
            <gpxtpx:hr>103</gpxtpx:hr>
          </gpxtpx:TrackPointExtension>
        </extensions>
      </trkpt>
      <trkpt lat="43.08974" lon="1.28748">
        <ele>532.8</ele>
        <time>2023-03-05T12:42:59Z</time>
        <extensions>
          <gpxtpx:TrackPointExtension xmlns:gpxtpx="http://www.garmin.com/xmlschemas/TrackPointExtension/v1">
            <gpxtpx:hr>103</gpxtpx:hr>
          </gpxtpx:TrackPointExtension>
        </extensions>
      </trkpt>
      <trkpt lat="43.08971" lon="1.28743">
        <ele>531.4</ele>
        <time>2023-03-05T12:43:00Z</time>
        <extensions>
          <gpxtpx:TrackPointExtension xmlns:gpxtpx="http://www.garmin.com/xmlschemas/TrackPointExtension/v1">
            <gpxtpx:hr>103</gpxtpx:hr>
          </gpxtpx:TrackPointExtension>
        </extensions>
      </trkpt>
      <trkpt lat="43.08968" lon="1.2874">
        <ele>530.2</ele>
        <time>2023-03-05T12:43:01Z</time>
        <extensions>
          <gpxtpx:TrackPointExtension xmlns:gpxtpx="http://www.garmin.com/xmlschemas/TrackPointExtension/v1">
            <gpxtpx:hr>103</gpxtpx:hr>
          </gpxtpx:TrackPointExtension>
        </extensions>
      </trkpt>
      <trkpt lat="43.08966" lon="1.28736">
        <ele>528.8</ele>
        <time>2023-03-05T12:43:02Z</time>
        <extensions>
          <gpxtpx:TrackPointExtension xmlns:gpxtpx="http://www.garmin.com/xmlschemas/TrackPointExtension/v1">
            <gpxtpx:hr>104</gpxtpx:hr>
          </gpxtpx:TrackPointExtension>
        </extensions>
      </trkpt>
      <trkpt lat="43.08965" lon="1.28733">
        <ele>527.6</ele>
        <time>2023-03-05T12:43:03Z</time>
        <extensions>
          <gpxtpx:TrackPointExtension xmlns:gpxtpx="http://www.garmin.com/xmlschemas/TrackPointExtension/v1">
            <gpxtpx:hr>104</gpxtpx:hr>
          </gpxtpx:TrackPointExtension>
        </extensions>
      </trkpt>
      <trkpt lat="43.08963" lon="1.2873">
        <ele>526.2</ele>
        <time>2023-03-05T12:43:04Z</time>
        <extensions>
          <gpxtpx:TrackPointExtension xmlns:gpxtpx="http://www.garmin.com/xmlschemas/TrackPointExtension/v1">
            <gpxtpx:hr>103</gpxtpx:hr>
          </gpxtpx:TrackPointExtension>
        </extensions>
      </trkpt>
      <trkpt lat="43.08962" lon="1.28729">
        <ele>525.2</ele>
        <time>2023-03-05T12:43:05Z</time>
        <extensions>
          <gpxtpx:TrackPointExtension xmlns:gpxtpx="http://www.garmin.com/xmlschemas/TrackPointExtension/v1">
            <gpxtpx:hr>103</gpxtpx:hr>
          </gpxtpx:TrackPointExtension>
        </extensions>
      </trkpt>
      <trkpt lat="43.08961" lon="1.28727">
        <ele>524.2</ele>
        <time>2023-03-05T12:43:06Z</time>
        <extensions>
          <gpxtpx:TrackPointExtension xmlns:gpxtpx="http://www.garmin.com/xmlschemas/TrackPointExtension/v1">
            <gpxtpx:hr>103</gpxtpx:hr>
          </gpxtpx:TrackPointExtension>
        </extensions>
      </trkpt>
      <trkpt lat="43.08959" lon="1.28725">
        <ele>523.4</ele>
        <time>2023-03-05T12:43:07Z</time>
        <extensions>
          <gpxtpx:TrackPointExtension xmlns:gpxtpx="http://www.garmin.com/xmlschemas/TrackPointExtension/v1">
            <gpxtpx:hr>104</gpxtpx:hr>
          </gpxtpx:TrackPointExtension>
        </extensions>
      </trkpt>
      <trkpt lat="43.08958" lon="1.28723">
        <ele>522.4</ele>
        <time>2023-03-05T12:43:08Z</time>
        <extensions>
          <gpxtpx:TrackPointExtension xmlns:gpxtpx="http://www.garmin.com/xmlschemas/TrackPointExtension/v1">
            <gpxtpx:hr>104</gpxtpx:hr>
          </gpxtpx:TrackPointExtension>
        </extensions>
      </trkpt>
      <trkpt lat="43.08958" lon="1.28721">
        <ele>521.4</ele>
        <time>2023-03-05T12:43:09Z</time>
        <extensions>
          <gpxtpx:TrackPointExtension xmlns:gpxtpx="http://www.garmin.com/xmlschemas/TrackPointExtension/v1">
            <gpxtpx:hr>104</gpxtpx:hr>
          </gpxtpx:TrackPointExtension>
        </extensions>
      </trkpt>
      <trkpt lat="43.08957" lon="1.2872">
        <ele>521.4</ele>
        <time>2023-03-05T12:43:10Z</time>
        <extensions>
          <gpxtpx:TrackPointExtension xmlns:gpxtpx="http://www.garmin.com/xmlschemas/TrackPointExtension/v1">
            <gpxtpx:hr>105</gpxtpx:hr>
          </gpxtpx:TrackPointExtension>
        </extensions>
      </trkpt>
      <trkpt lat="43.08955" lon="1.2872">
        <ele>521.4</ele>
        <time>2023-03-05T12:43:11Z</time>
        <extensions>
          <gpxtpx:TrackPointExtension xmlns:gpxtpx="http://www.garmin.com/xmlschemas/TrackPointExtension/v1">
            <gpxtpx:hr>105</gpxtpx:hr>
          </gpxtpx:TrackPointExtension>
        </extensions>
      </trkpt>
      <trkpt lat="43.08955" lon="1.28722">
        <ele>521.4</ele>
        <time>2023-03-05T12:43:13Z</time>
        <extensions>
          <gpxtpx:TrackPointExtension xmlns:gpxtpx="http://www.garmin.com/xmlschemas/TrackPointExtension/v1">
            <gpxtpx:hr>105</gpxtpx:hr>
          </gpxtpx:TrackPointExtension>
        </extensions>
      </trkpt>
      <trkpt lat="43.08954" lon="1.28729">
        <ele>521.4</ele>
        <time>2023-03-05T12:43:46Z</time>
        <extensions>
          <gpxtpx:TrackPointExtension xmlns:gpxtpx="http://www.garmin.com/xmlschemas/TrackPointExtension/v1">
            <gpxtpx:hr>104</gpxtpx:hr>
          </gpxtpx:TrackPointExtension>
        </extensions>
      </trkpt>
      <trkpt lat="43.08954" lon="1.28732">
        <ele>521.4</ele>
        <time>2023-03-05T12:43:47Z</time>
        <extensions>
          <gpxtpx:TrackPointExtension xmlns:gpxtpx="http://www.garmin.com/xmlschemas/TrackPointExtension/v1">
            <gpxtpx:hr>105</gpxtpx:hr>
          </gpxtpx:TrackPointExtension>
        </extensions>
      </trkpt>
      <trkpt lat="43.08953" lon="1.28734">
        <ele>521</ele>
        <time>2023-03-05T12:43:48Z</time>
        <extensions>
          <gpxtpx:TrackPointExtension xmlns:gpxtpx="http://www.garmin.com/xmlschemas/TrackPointExtension/v1">
            <gpxtpx:hr>105</gpxtpx:hr>
          </gpxtpx:TrackPointExtension>
        </extensions>
      </trkpt>
      <trkpt lat="43.08953" lon="1.28734">
        <ele>520.6</ele>
        <time>2023-03-05T12:43:49Z</time>
        <extensions>
          <gpxtpx:TrackPointExtension xmlns:gpxtpx="http://www.garmin.com/xmlschemas/TrackPointExtension/v1">
            <gpxtpx:hr>104</gpxtpx:hr>
          </gpxtpx:TrackPointExtension>
        </extensions>
      </trkpt>
      <trkpt lat="43.08953" lon="1.28735">
        <ele>520.2</ele>
        <time>2023-03-05T12:43:50Z</time>
        <extensions>
          <gpxtpx:TrackPointExtension xmlns:gpxtpx="http://www.garmin.com/xmlschemas/TrackPointExtension/v1">
            <gpxtpx:hr>104</gpxtpx:hr>
          </gpxtpx:TrackPointExtension>
        </extensions>
      </trkpt>
      <trkpt lat="43.08955" lon="1.28733">
        <ele>519.4</ele>
        <time>2023-03-05T12:43:55Z</time>
        <extensions>
          <gpxtpx:TrackPointExtension xmlns:gpxtpx="http://www.garmin.com/xmlschemas/TrackPointExtension/v1">
            <gpxtpx:hr>105</gpxtpx:hr>
          </gpxtpx:TrackPointExtension>
        </extensions>
      </trkpt>
      <trkpt lat="43.08955" lon="1.28722">
        <ele>519.4</ele>
        <time>2023-03-05T12:43:59Z</time>
        <extensions>
          <gpxtpx:TrackPointExtension xmlns:gpxtpx="http://www.garmin.com/xmlschemas/TrackPointExtension/v1">
            <gpxtpx:hr>105</gpxtpx:hr>
          </gpxtpx:TrackPointExtension>
        </extensions>
      </trkpt>
      <trkpt lat="43.08954" lon="1.28719">
        <ele>519.4</ele>
        <time>2023-03-05T12:44:00Z</time>
        <extensions>
          <gpxtpx:TrackPointExtension xmlns:gpxtpx="http://www.garmin.com/xmlschemas/TrackPointExtension/v1">
            <gpxtpx:hr>105</gpxtpx:hr>
          </gpxtpx:TrackPointExtension>
        </extensions>
      </trkpt>
      <trkpt lat="43.08955" lon="1.28701">
        <ele>519.4</ele>
        <time>2023-03-05T12:44:05Z</time>
        <extensions>
          <gpxtpx:TrackPointExtension xmlns:gpxtpx="http://www.garmin.com/xmlschemas/TrackPointExtension/v1">
            <gpxtpx:hr>105</gpxtpx:hr>
          </gpxtpx:TrackPointExtension>
        </extensions>
      </trkpt>
      <trkpt lat="43.08952" lon="1.28688">
        <ele>519.8</ele>
        <time>2023-03-05T12:44:09Z</time>
        <extensions>
          <gpxtpx:TrackPointExtension xmlns:gpxtpx="http://www.garmin.com/xmlschemas/TrackPointExtension/v1">
            <gpxtpx:hr>105</gpxtpx:hr>
          </gpxtpx:TrackPointExtension>
        </extensions>
      </trkpt>
      <trkpt lat="43.08952" lon="1.28685">
        <ele>520.2</ele>
        <time>2023-03-05T12:44:10Z</time>
        <extensions>
          <gpxtpx:TrackPointExtension xmlns:gpxtpx="http://www.garmin.com/xmlschemas/TrackPointExtension/v1">
            <gpxtpx:hr>106</gpxtpx:hr>
          </gpxtpx:TrackPointExtension>
        </extensions>
      </trkpt>
      <trkpt lat="43.08952" lon="1.28681">
        <ele>520.6</ele>
        <time>2023-03-05T12:44:11Z</time>
        <extensions>
          <gpxtpx:TrackPointExtension xmlns:gpxtpx="http://www.garmin.com/xmlschemas/TrackPointExtension/v1">
            <gpxtpx:hr>107</gpxtpx:hr>
          </gpxtpx:TrackPointExtension>
        </extensions>
      </trkpt>
      <trkpt lat="43.08953" lon="1.28677">
        <ele>521</ele>
        <time>2023-03-05T12:44:12Z</time>
        <extensions>
          <gpxtpx:TrackPointExtension xmlns:gpxtpx="http://www.garmin.com/xmlschemas/TrackPointExtension/v1">
            <gpxtpx:hr>107</gpxtpx:hr>
          </gpxtpx:TrackPointExtension>
        </extensions>
      </trkpt>
      <trkpt lat="43.08953" lon="1.28674">
        <ele>521.4</ele>
        <time>2023-03-05T12:44:13Z</time>
        <extensions>
          <gpxtpx:TrackPointExtension xmlns:gpxtpx="http://www.garmin.com/xmlschemas/TrackPointExtension/v1">
            <gpxtpx:hr>108</gpxtpx:hr>
          </gpxtpx:TrackPointExtension>
        </extensions>
      </trkpt>
      <trkpt lat="43.08953" lon="1.28668">
        <ele>521.4</ele>
        <time>2023-03-05T12:44:15Z</time>
        <extensions>
          <gpxtpx:TrackPointExtension xmlns:gpxtpx="http://www.garmin.com/xmlschemas/TrackPointExtension/v1">
            <gpxtpx:hr>108</gpxtpx:hr>
          </gpxtpx:TrackPointExtension>
        </extensions>
      </trkpt>
      <trkpt lat="43.08951" lon="1.28662">
        <ele>521.4</ele>
        <time>2023-03-05T12:44:17Z</time>
        <extensions>
          <gpxtpx:TrackPointExtension xmlns:gpxtpx="http://www.garmin.com/xmlschemas/TrackPointExtension/v1">
            <gpxtpx:hr>108</gpxtpx:hr>
          </gpxtpx:TrackPointExtension>
        </extensions>
      </trkpt>
      <trkpt lat="43.08952" lon="1.28652">
        <ele>521.4</ele>
        <time>2023-03-05T12:44:20Z</time>
        <extensions>
          <gpxtpx:TrackPointExtension xmlns:gpxtpx="http://www.garmin.com/xmlschemas/TrackPointExtension/v1">
            <gpxtpx:hr>108</gpxtpx:hr>
          </gpxtpx:TrackPointExtension>
        </extensions>
      </trkpt>
      <trkpt lat="43.08951" lon="1.28649">
        <ele>521.4</ele>
        <time>2023-03-05T12:44:21Z</time>
        <extensions>
          <gpxtpx:TrackPointExtension xmlns:gpxtpx="http://www.garmin.com/xmlschemas/TrackPointExtension/v1">
            <gpxtpx:hr>108</gpxtpx:hr>
          </gpxtpx:TrackPointExtension>
        </extensions>
      </trkpt>
      <trkpt lat="43.0895" lon="1.28645">
        <ele>521.8</ele>
        <time>2023-03-05T12:44:22Z</time>
        <extensions>
          <gpxtpx:TrackPointExtension xmlns:gpxtpx="http://www.garmin.com/xmlschemas/TrackPointExtension/v1">
            <gpxtpx:hr>108</gpxtpx:hr>
          </gpxtpx:TrackPointExtension>
        </extensions>
      </trkpt>
      <trkpt lat="43.08949" lon="1.28642">
        <ele>522.2</ele>
        <time>2023-03-05T12:44:23Z</time>
        <extensions>
          <gpxtpx:TrackPointExtension xmlns:gpxtpx="http://www.garmin.com/xmlschemas/TrackPointExtension/v1">
            <gpxtpx:hr>109</gpxtpx:hr>
          </gpxtpx:TrackPointExtension>
        </extensions>
      </trkpt>
      <trkpt lat="43.08949" lon="1.28639">
        <ele>522.8</ele>
        <time>2023-03-05T12:44:24Z</time>
        <extensions>
          <gpxtpx:TrackPointExtension xmlns:gpxtpx="http://www.garmin.com/xmlschemas/TrackPointExtension/v1">
            <gpxtpx:hr>110</gpxtpx:hr>
          </gpxtpx:TrackPointExtension>
        </extensions>
      </trkpt>
      <trkpt lat="43.08947" lon="1.28636">
        <ele>523.2</ele>
        <time>2023-03-05T12:44:25Z</time>
        <extensions>
          <gpxtpx:TrackPointExtension xmlns:gpxtpx="http://www.garmin.com/xmlschemas/TrackPointExtension/v1">
            <gpxtpx:hr>110</gpxtpx:hr>
          </gpxtpx:TrackPointExtension>
        </extensions>
      </trkpt>
      <trkpt lat="43.08946" lon="1.28633">
        <ele>523.6</ele>
        <time>2023-03-05T12:44:26Z</time>
        <extensions>
          <gpxtpx:TrackPointExtension xmlns:gpxtpx="http://www.garmin.com/xmlschemas/TrackPointExtension/v1">
            <gpxtpx:hr>110</gpxtpx:hr>
          </gpxtpx:TrackPointExtension>
        </extensions>
      </trkpt>
      <trkpt lat="43.08945" lon="1.28631">
        <ele>523.6</ele>
        <time>2023-03-05T12:44:27Z</time>
        <extensions>
          <gpxtpx:TrackPointExtension xmlns:gpxtpx="http://www.garmin.com/xmlschemas/TrackPointExtension/v1">
            <gpxtpx:hr>111</gpxtpx:hr>
          </gpxtpx:TrackPointExtension>
        </extensions>
      </trkpt>
      <trkpt lat="43.08945" lon="1.2863">
        <ele>523.6</ele>
        <time>2023-03-05T12:44:29Z</time>
        <extensions>
          <gpxtpx:TrackPointExtension xmlns:gpxtpx="http://www.garmin.com/xmlschemas/TrackPointExtension/v1">
            <gpxtpx:hr>112</gpxtpx:hr>
          </gpxtpx:TrackPointExtension>
        </extensions>
      </trkpt>
      <trkpt lat="43.08942" lon="1.28617">
        <ele>524.2</ele>
        <time>2023-03-05T12:46:46Z</time>
        <extensions>
          <gpxtpx:TrackPointExtension xmlns:gpxtpx="http://www.garmin.com/xmlschemas/TrackPointExtension/v1">
            <gpxtpx:hr>111</gpxtpx:hr>
          </gpxtpx:TrackPointExtension>
        </extensions>
      </trkpt>
      <trkpt lat="43.08941" lon="1.28614">
        <ele>524.2</ele>
        <time>2023-03-05T12:46:47Z</time>
        <extensions>
          <gpxtpx:TrackPointExtension xmlns:gpxtpx="http://www.garmin.com/xmlschemas/TrackPointExtension/v1">
            <gpxtpx:hr>111</gpxtpx:hr>
          </gpxtpx:TrackPointExtension>
        </extensions>
      </trkpt>
      <trkpt lat="43.08941" lon="1.28612">
        <ele>523.6</ele>
        <time>2023-03-05T12:46:48Z</time>
        <extensions>
          <gpxtpx:TrackPointExtension xmlns:gpxtpx="http://www.garmin.com/xmlschemas/TrackPointExtension/v1">
            <gpxtpx:hr>111</gpxtpx:hr>
          </gpxtpx:TrackPointExtension>
        </extensions>
      </trkpt>
      <trkpt lat="43.08939" lon="1.2861">
        <ele>523.2</ele>
        <time>2023-03-05T12:46:49Z</time>
        <extensions>
          <gpxtpx:TrackPointExtension xmlns:gpxtpx="http://www.garmin.com/xmlschemas/TrackPointExtension/v1">
            <gpxtpx:hr>110</gpxtpx:hr>
          </gpxtpx:TrackPointExtension>
        </extensions>
      </trkpt>
      <trkpt lat="43.08938" lon="1.28608">
        <ele>522.8</ele>
        <time>2023-03-05T12:46:50Z</time>
        <extensions>
          <gpxtpx:TrackPointExtension xmlns:gpxtpx="http://www.garmin.com/xmlschemas/TrackPointExtension/v1">
            <gpxtpx:hr>110</gpxtpx:hr>
          </gpxtpx:TrackPointExtension>
        </extensions>
      </trkpt>
      <trkpt lat="43.08938" lon="1.28607">
        <ele>522.4</ele>
        <time>2023-03-05T12:46:51Z</time>
        <extensions>
          <gpxtpx:TrackPointExtension xmlns:gpxtpx="http://www.garmin.com/xmlschemas/TrackPointExtension/v1">
            <gpxtpx:hr>109</gpxtpx:hr>
          </gpxtpx:TrackPointExtension>
        </extensions>
      </trkpt>
      <trkpt lat="43.08937" lon="1.28605">
        <ele>522</ele>
        <time>2023-03-05T12:46:52Z</time>
        <extensions>
          <gpxtpx:TrackPointExtension xmlns:gpxtpx="http://www.garmin.com/xmlschemas/TrackPointExtension/v1">
            <gpxtpx:hr>108</gpxtpx:hr>
          </gpxtpx:TrackPointExtension>
        </extensions>
      </trkpt>
      <trkpt lat="43.08934" lon="1.28596">
        <ele>522</ele>
        <time>2023-03-05T12:46:55Z</time>
        <extensions>
          <gpxtpx:TrackPointExtension xmlns:gpxtpx="http://www.garmin.com/xmlschemas/TrackPointExtension/v1">
            <gpxtpx:hr>109</gpxtpx:hr>
          </gpxtpx:TrackPointExtension>
        </extensions>
      </trkpt>
      <trkpt lat="43.08932" lon="1.28593">
        <ele>521.6</ele>
        <time>2023-03-05T12:46:56Z</time>
        <extensions>
          <gpxtpx:TrackPointExtension xmlns:gpxtpx="http://www.garmin.com/xmlschemas/TrackPointExtension/v1">
            <gpxtpx:hr>109</gpxtpx:hr>
          </gpxtpx:TrackPointExtension>
        </extensions>
      </trkpt>
      <trkpt lat="43.0893" lon="1.28591">
        <ele>521.2</ele>
        <time>2023-03-05T12:46:57Z</time>
        <extensions>
          <gpxtpx:TrackPointExtension xmlns:gpxtpx="http://www.garmin.com/xmlschemas/TrackPointExtension/v1">
            <gpxtpx:hr>110</gpxtpx:hr>
          </gpxtpx:TrackPointExtension>
        </extensions>
      </trkpt>
      <trkpt lat="43.08929" lon="1.2859">
        <ele>520.6</ele>
        <time>2023-03-05T12:46:58Z</time>
        <extensions>
          <gpxtpx:TrackPointExtension xmlns:gpxtpx="http://www.garmin.com/xmlschemas/TrackPointExtension/v1">
            <gpxtpx:hr>111</gpxtpx:hr>
          </gpxtpx:TrackPointExtension>
        </extensions>
      </trkpt>
      <trkpt lat="43.08926" lon="1.28588">
        <ele>520.2</ele>
        <time>2023-03-05T12:46:59Z</time>
        <extensions>
          <gpxtpx:TrackPointExtension xmlns:gpxtpx="http://www.garmin.com/xmlschemas/TrackPointExtension/v1">
            <gpxtpx:hr>111</gpxtpx:hr>
          </gpxtpx:TrackPointExtension>
        </extensions>
      </trkpt>
      <trkpt lat="43.08924" lon="1.28587">
        <ele>519.8</ele>
        <time>2023-03-05T12:47:00Z</time>
        <extensions>
          <gpxtpx:TrackPointExtension xmlns:gpxtpx="http://www.garmin.com/xmlschemas/TrackPointExtension/v1">
            <gpxtpx:hr>111</gpxtpx:hr>
          </gpxtpx:TrackPointExtension>
        </extensions>
      </trkpt>
      <trkpt lat="43.08921" lon="1.28587">
        <ele>518.6</ele>
        <time>2023-03-05T12:47:01Z</time>
        <extensions>
          <gpxtpx:TrackPointExtension xmlns:gpxtpx="http://www.garmin.com/xmlschemas/TrackPointExtension/v1">
            <gpxtpx:hr>109</gpxtpx:hr>
          </gpxtpx:TrackPointExtension>
        </extensions>
      </trkpt>
      <trkpt lat="43.08919" lon="1.28587">
        <ele>518.2</ele>
        <time>2023-03-05T12:47:02Z</time>
        <extensions>
          <gpxtpx:TrackPointExtension xmlns:gpxtpx="http://www.garmin.com/xmlschemas/TrackPointExtension/v1">
            <gpxtpx:hr>108</gpxtpx:hr>
          </gpxtpx:TrackPointExtension>
        </extensions>
      </trkpt>
      <trkpt lat="43.08916" lon="1.28588">
        <ele>517.6</ele>
        <time>2023-03-05T12:47:03Z</time>
        <extensions>
          <gpxtpx:TrackPointExtension xmlns:gpxtpx="http://www.garmin.com/xmlschemas/TrackPointExtension/v1">
            <gpxtpx:hr>108</gpxtpx:hr>
          </gpxtpx:TrackPointExtension>
        </extensions>
      </trkpt>
      <trkpt lat="43.08913" lon="1.28588">
        <ele>517</ele>
        <time>2023-03-05T12:47:04Z</time>
        <extensions>
          <gpxtpx:TrackPointExtension xmlns:gpxtpx="http://www.garmin.com/xmlschemas/TrackPointExtension/v1">
            <gpxtpx:hr>108</gpxtpx:hr>
          </gpxtpx:TrackPointExtension>
        </extensions>
      </trkpt>
      <trkpt lat="43.0891" lon="1.28588">
        <ele>516.4</ele>
        <time>2023-03-05T12:47:05Z</time>
        <extensions>
          <gpxtpx:TrackPointExtension xmlns:gpxtpx="http://www.garmin.com/xmlschemas/TrackPointExtension/v1">
            <gpxtpx:hr>108</gpxtpx:hr>
          </gpxtpx:TrackPointExtension>
        </extensions>
      </trkpt>
      <trkpt lat="43.08906" lon="1.28588">
        <ele>515.8</ele>
        <time>2023-03-05T12:47:06Z</time>
        <extensions>
          <gpxtpx:TrackPointExtension xmlns:gpxtpx="http://www.garmin.com/xmlschemas/TrackPointExtension/v1">
            <gpxtpx:hr>106</gpxtpx:hr>
          </gpxtpx:TrackPointExtension>
        </extensions>
      </trkpt>
      <trkpt lat="43.08902" lon="1.28589">
        <ele>515</ele>
        <time>2023-03-05T12:47:07Z</time>
        <extensions>
          <gpxtpx:TrackPointExtension xmlns:gpxtpx="http://www.garmin.com/xmlschemas/TrackPointExtension/v1">
            <gpxtpx:hr>106</gpxtpx:hr>
          </gpxtpx:TrackPointExtension>
        </extensions>
      </trkpt>
      <trkpt lat="43.08896" lon="1.28589">
        <ele>514.4</ele>
        <time>2023-03-05T12:47:08Z</time>
        <extensions>
          <gpxtpx:TrackPointExtension xmlns:gpxtpx="http://www.garmin.com/xmlschemas/TrackPointExtension/v1">
            <gpxtpx:hr>106</gpxtpx:hr>
          </gpxtpx:TrackPointExtension>
        </extensions>
      </trkpt>
      <trkpt lat="43.0889" lon="1.2859">
        <ele>513.6</ele>
        <time>2023-03-05T12:47:09Z</time>
        <extensions>
          <gpxtpx:TrackPointExtension xmlns:gpxtpx="http://www.garmin.com/xmlschemas/TrackPointExtension/v1">
            <gpxtpx:hr>106</gpxtpx:hr>
          </gpxtpx:TrackPointExtension>
        </extensions>
      </trkpt>
      <trkpt lat="43.08883" lon="1.2859">
        <ele>512.8</ele>
        <time>2023-03-05T12:47:10Z</time>
        <extensions>
          <gpxtpx:TrackPointExtension xmlns:gpxtpx="http://www.garmin.com/xmlschemas/TrackPointExtension/v1">
            <gpxtpx:hr>106</gpxtpx:hr>
          </gpxtpx:TrackPointExtension>
        </extensions>
      </trkpt>
      <trkpt lat="43.08876" lon="1.28591">
        <ele>512</ele>
        <time>2023-03-05T12:47:11Z</time>
        <extensions>
          <gpxtpx:TrackPointExtension xmlns:gpxtpx="http://www.garmin.com/xmlschemas/TrackPointExtension/v1">
            <gpxtpx:hr>104</gpxtpx:hr>
          </gpxtpx:TrackPointExtension>
        </extensions>
      </trkpt>
      <trkpt lat="43.0887" lon="1.28592">
        <ele>511.2</ele>
        <time>2023-03-05T12:47:12Z</time>
        <extensions>
          <gpxtpx:TrackPointExtension xmlns:gpxtpx="http://www.garmin.com/xmlschemas/TrackPointExtension/v1">
            <gpxtpx:hr>102</gpxtpx:hr>
          </gpxtpx:TrackPointExtension>
        </extensions>
      </trkpt>
      <trkpt lat="43.08863" lon="1.28592">
        <ele>510.4</ele>
        <time>2023-03-05T12:47:13Z</time>
        <extensions>
          <gpxtpx:TrackPointExtension xmlns:gpxtpx="http://www.garmin.com/xmlschemas/TrackPointExtension/v1">
            <gpxtpx:hr>101</gpxtpx:hr>
          </gpxtpx:TrackPointExtension>
        </extensions>
      </trkpt>
      <trkpt lat="43.08856" lon="1.28592">
        <ele>509.8</ele>
        <time>2023-03-05T12:47:14Z</time>
        <extensions>
          <gpxtpx:TrackPointExtension xmlns:gpxtpx="http://www.garmin.com/xmlschemas/TrackPointExtension/v1">
            <gpxtpx:hr>101</gpxtpx:hr>
          </gpxtpx:TrackPointExtension>
        </extensions>
      </trkpt>
      <trkpt lat="43.0885" lon="1.28592">
        <ele>509</ele>
        <time>2023-03-05T12:47:15Z</time>
        <extensions>
          <gpxtpx:TrackPointExtension xmlns:gpxtpx="http://www.garmin.com/xmlschemas/TrackPointExtension/v1">
            <gpxtpx:hr>100</gpxtpx:hr>
          </gpxtpx:TrackPointExtension>
        </extensions>
      </trkpt>
      <trkpt lat="43.08844" lon="1.28592">
        <ele>508.2</ele>
        <time>2023-03-05T12:47:16Z</time>
        <extensions>
          <gpxtpx:TrackPointExtension xmlns:gpxtpx="http://www.garmin.com/xmlschemas/TrackPointExtension/v1">
            <gpxtpx:hr>100</gpxtpx:hr>
          </gpxtpx:TrackPointExtension>
        </extensions>
      </trkpt>
      <trkpt lat="43.0883" lon="1.28591">
        <ele>508.2</ele>
        <time>2023-03-05T12:47:20Z</time>
        <extensions>
          <gpxtpx:TrackPointExtension xmlns:gpxtpx="http://www.garmin.com/xmlschemas/TrackPointExtension/v1">
            <gpxtpx:hr>98</gpxtpx:hr>
          </gpxtpx:TrackPointExtension>
        </extensions>
      </trkpt>
      <trkpt lat="43.08828" lon="1.28592">
        <ele>508.2</ele>
        <time>2023-03-05T12:47:22Z</time>
        <extensions>
          <gpxtpx:TrackPointExtension xmlns:gpxtpx="http://www.garmin.com/xmlschemas/TrackPointExtension/v1">
            <gpxtpx:hr>98</gpxtpx:hr>
          </gpxtpx:TrackPointExtension>
        </extensions>
      </trkpt>
      <trkpt lat="43.08814" lon="1.28592">
        <ele>508.2</ele>
        <time>2023-03-05T12:49:11Z</time>
        <extensions>
          <gpxtpx:TrackPointExtension xmlns:gpxtpx="http://www.garmin.com/xmlschemas/TrackPointExtension/v1">
            <gpxtpx:hr>102</gpxtpx:hr>
          </gpxtpx:TrackPointExtension>
        </extensions>
      </trkpt>
      <trkpt lat="43.08811" lon="1.28592">
        <ele>508.2</ele>
        <time>2023-03-05T12:49:12Z</time>
        <extensions>
          <gpxtpx:TrackPointExtension xmlns:gpxtpx="http://www.garmin.com/xmlschemas/TrackPointExtension/v1">
            <gpxtpx:hr>102</gpxtpx:hr>
          </gpxtpx:TrackPointExtension>
        </extensions>
      </trkpt>
      <trkpt lat="43.08795" lon="1.28589">
        <ele>508.2</ele>
        <time>2023-03-05T12:49:18Z</time>
        <extensions>
          <gpxtpx:TrackPointExtension xmlns:gpxtpx="http://www.garmin.com/xmlschemas/TrackPointExtension/v1">
            <gpxtpx:hr>102</gpxtpx:hr>
          </gpxtpx:TrackPointExtension>
        </extensions>
      </trkpt>
      <trkpt lat="43.08779" lon="1.28589">
        <ele>507.8</ele>
        <time>2023-03-05T12:49:23Z</time>
        <extensions>
          <gpxtpx:TrackPointExtension xmlns:gpxtpx="http://www.garmin.com/xmlschemas/TrackPointExtension/v1">
            <gpxtpx:hr>103</gpxtpx:hr>
          </gpxtpx:TrackPointExtension>
        </extensions>
      </trkpt>
      <trkpt lat="43.08776" lon="1.28589">
        <ele>507.2</ele>
        <time>2023-03-05T12:49:24Z</time>
        <extensions>
          <gpxtpx:TrackPointExtension xmlns:gpxtpx="http://www.garmin.com/xmlschemas/TrackPointExtension/v1">
            <gpxtpx:hr>103</gpxtpx:hr>
          </gpxtpx:TrackPointExtension>
        </extensions>
      </trkpt>
      <trkpt lat="43.08772" lon="1.28588">
        <ele>506.8</ele>
        <time>2023-03-05T12:49:25Z</time>
        <extensions>
          <gpxtpx:TrackPointExtension xmlns:gpxtpx="http://www.garmin.com/xmlschemas/TrackPointExtension/v1">
            <gpxtpx:hr>102</gpxtpx:hr>
          </gpxtpx:TrackPointExtension>
        </extensions>
      </trkpt>
      <trkpt lat="43.08769" lon="1.28588">
        <ele>506.2</ele>
        <time>2023-03-05T12:49:26Z</time>
        <extensions>
          <gpxtpx:TrackPointExtension xmlns:gpxtpx="http://www.garmin.com/xmlschemas/TrackPointExtension/v1">
            <gpxtpx:hr>102</gpxtpx:hr>
          </gpxtpx:TrackPointExtension>
        </extensions>
      </trkpt>
      <trkpt lat="43.08766" lon="1.28587">
        <ele>505.8</ele>
        <time>2023-03-05T12:49:27Z</time>
        <extensions>
          <gpxtpx:TrackPointExtension xmlns:gpxtpx="http://www.garmin.com/xmlschemas/TrackPointExtension/v1">
            <gpxtpx:hr>102</gpxtpx:hr>
          </gpxtpx:TrackPointExtension>
        </extensions>
      </trkpt>
      <trkpt lat="43.0876" lon="1.28587">
        <ele>505</ele>
        <time>2023-03-05T12:49:29Z</time>
        <extensions>
          <gpxtpx:TrackPointExtension xmlns:gpxtpx="http://www.garmin.com/xmlschemas/TrackPointExtension/v1">
            <gpxtpx:hr>102</gpxtpx:hr>
          </gpxtpx:TrackPointExtension>
        </extensions>
      </trkpt>
      <trkpt lat="43.08756" lon="1.28588">
        <ele>504.6</ele>
        <time>2023-03-05T12:49:30Z</time>
        <extensions>
          <gpxtpx:TrackPointExtension xmlns:gpxtpx="http://www.garmin.com/xmlschemas/TrackPointExtension/v1">
            <gpxtpx:hr>102</gpxtpx:hr>
          </gpxtpx:TrackPointExtension>
        </extensions>
      </trkpt>
      <trkpt lat="43.08752" lon="1.28589">
        <ele>504.2</ele>
        <time>2023-03-05T12:49:31Z</time>
        <extensions>
          <gpxtpx:TrackPointExtension xmlns:gpxtpx="http://www.garmin.com/xmlschemas/TrackPointExtension/v1">
            <gpxtpx:hr>102</gpxtpx:hr>
          </gpxtpx:TrackPointExtension>
        </extensions>
      </trkpt>
      <trkpt lat="43.08749" lon="1.28591">
        <ele>503.6</ele>
        <time>2023-03-05T12:49:32Z</time>
        <extensions>
          <gpxtpx:TrackPointExtension xmlns:gpxtpx="http://www.garmin.com/xmlschemas/TrackPointExtension/v1">
            <gpxtpx:hr>102</gpxtpx:hr>
          </gpxtpx:TrackPointExtension>
        </extensions>
      </trkpt>
      <trkpt lat="43.08747" lon="1.28593">
        <ele>503.2</ele>
        <time>2023-03-05T12:49:33Z</time>
        <extensions>
          <gpxtpx:TrackPointExtension xmlns:gpxtpx="http://www.garmin.com/xmlschemas/TrackPointExtension/v1">
            <gpxtpx:hr>102</gpxtpx:hr>
          </gpxtpx:TrackPointExtension>
        </extensions>
      </trkpt>
      <trkpt lat="43.08745" lon="1.28595">
        <ele>502.8</ele>
        <time>2023-03-05T12:49:34Z</time>
        <extensions>
          <gpxtpx:TrackPointExtension xmlns:gpxtpx="http://www.garmin.com/xmlschemas/TrackPointExtension/v1">
            <gpxtpx:hr>102</gpxtpx:hr>
          </gpxtpx:TrackPointExtension>
        </extensions>
      </trkpt>
      <trkpt lat="43.08743" lon="1.28596">
        <ele>502.4</ele>
        <time>2023-03-05T12:49:35Z</time>
        <extensions>
          <gpxtpx:TrackPointExtension xmlns:gpxtpx="http://www.garmin.com/xmlschemas/TrackPointExtension/v1">
            <gpxtpx:hr>102</gpxtpx:hr>
          </gpxtpx:TrackPointExtension>
        </extensions>
      </trkpt>
      <trkpt lat="43.08743" lon="1.28595">
        <ele>501.8</ele>
        <time>2023-03-05T12:49:36Z</time>
        <extensions>
          <gpxtpx:TrackPointExtension xmlns:gpxtpx="http://www.garmin.com/xmlschemas/TrackPointExtension/v1">
            <gpxtpx:hr>102</gpxtpx:hr>
          </gpxtpx:TrackPointExtension>
        </extensions>
      </trkpt>
      <trkpt lat="43.0874" lon="1.28596">
        <ele>501.4</ele>
        <time>2023-03-05T12:49:37Z</time>
        <extensions>
          <gpxtpx:TrackPointExtension xmlns:gpxtpx="http://www.garmin.com/xmlschemas/TrackPointExtension/v1">
            <gpxtpx:hr>102</gpxtpx:hr>
          </gpxtpx:TrackPointExtension>
        </extensions>
      </trkpt>
      <trkpt lat="43.08738" lon="1.28598">
        <ele>501</ele>
        <time>2023-03-05T12:49:38Z</time>
        <extensions>
          <gpxtpx:TrackPointExtension xmlns:gpxtpx="http://www.garmin.com/xmlschemas/TrackPointExtension/v1">
            <gpxtpx:hr>102</gpxtpx:hr>
          </gpxtpx:TrackPointExtension>
        </extensions>
      </trkpt>
      <trkpt lat="43.08735" lon="1.286">
        <ele>500.6</ele>
        <time>2023-03-05T12:49:39Z</time>
        <extensions>
          <gpxtpx:TrackPointExtension xmlns:gpxtpx="http://www.garmin.com/xmlschemas/TrackPointExtension/v1">
            <gpxtpx:hr>102</gpxtpx:hr>
          </gpxtpx:TrackPointExtension>
        </extensions>
      </trkpt>
      <trkpt lat="43.08731" lon="1.28601">
        <ele>500.2</ele>
        <time>2023-03-05T12:49:40Z</time>
        <extensions>
          <gpxtpx:TrackPointExtension xmlns:gpxtpx="http://www.garmin.com/xmlschemas/TrackPointExtension/v1">
            <gpxtpx:hr>102</gpxtpx:hr>
          </gpxtpx:TrackPointExtension>
        </extensions>
      </trkpt>
      <trkpt lat="43.08726" lon="1.28605">
        <ele>499.8</ele>
        <time>2023-03-05T12:49:41Z</time>
        <extensions>
          <gpxtpx:TrackPointExtension xmlns:gpxtpx="http://www.garmin.com/xmlschemas/TrackPointExtension/v1">
            <gpxtpx:hr>102</gpxtpx:hr>
          </gpxtpx:TrackPointExtension>
        </extensions>
      </trkpt>
      <trkpt lat="43.08722" lon="1.28607">
        <ele>499.2</ele>
        <time>2023-03-05T12:49:42Z</time>
        <extensions>
          <gpxtpx:TrackPointExtension xmlns:gpxtpx="http://www.garmin.com/xmlschemas/TrackPointExtension/v1">
            <gpxtpx:hr>102</gpxtpx:hr>
          </gpxtpx:TrackPointExtension>
        </extensions>
      </trkpt>
      <trkpt lat="43.08719" lon="1.28608">
        <ele>498.6</ele>
        <time>2023-03-05T12:49:43Z</time>
        <extensions>
          <gpxtpx:TrackPointExtension xmlns:gpxtpx="http://www.garmin.com/xmlschemas/TrackPointExtension/v1">
            <gpxtpx:hr>102</gpxtpx:hr>
          </gpxtpx:TrackPointExtension>
        </extensions>
      </trkpt>
      <trkpt lat="43.08715" lon="1.2861">
        <ele>497.8</ele>
        <time>2023-03-05T12:49:44Z</time>
        <extensions>
          <gpxtpx:TrackPointExtension xmlns:gpxtpx="http://www.garmin.com/xmlschemas/TrackPointExtension/v1">
            <gpxtpx:hr>102</gpxtpx:hr>
          </gpxtpx:TrackPointExtension>
        </extensions>
      </trkpt>
      <trkpt lat="43.08711" lon="1.28612">
        <ele>496.8</ele>
        <time>2023-03-05T12:49:45Z</time>
        <extensions>
          <gpxtpx:TrackPointExtension xmlns:gpxtpx="http://www.garmin.com/xmlschemas/TrackPointExtension/v1">
            <gpxtpx:hr>102</gpxtpx:hr>
          </gpxtpx:TrackPointExtension>
        </extensions>
      </trkpt>
      <trkpt lat="43.08706" lon="1.28612">
        <ele>496</ele>
        <time>2023-03-05T12:49:46Z</time>
        <extensions>
          <gpxtpx:TrackPointExtension xmlns:gpxtpx="http://www.garmin.com/xmlschemas/TrackPointExtension/v1">
            <gpxtpx:hr>103</gpxtpx:hr>
          </gpxtpx:TrackPointExtension>
        </extensions>
      </trkpt>
      <trkpt lat="43.087" lon="1.28611">
        <ele>495.2</ele>
        <time>2023-03-05T12:49:47Z</time>
        <extensions>
          <gpxtpx:TrackPointExtension xmlns:gpxtpx="http://www.garmin.com/xmlschemas/TrackPointExtension/v1">
            <gpxtpx:hr>104</gpxtpx:hr>
          </gpxtpx:TrackPointExtension>
        </extensions>
      </trkpt>
      <trkpt lat="43.08694" lon="1.28609">
        <ele>494.4</ele>
        <time>2023-03-05T12:49:48Z</time>
        <extensions>
          <gpxtpx:TrackPointExtension xmlns:gpxtpx="http://www.garmin.com/xmlschemas/TrackPointExtension/v1">
            <gpxtpx:hr>104</gpxtpx:hr>
          </gpxtpx:TrackPointExtension>
        </extensions>
      </trkpt>
      <trkpt lat="43.0869" lon="1.28608">
        <ele>493.4</ele>
        <time>2023-03-05T12:49:49Z</time>
        <extensions>
          <gpxtpx:TrackPointExtension xmlns:gpxtpx="http://www.garmin.com/xmlschemas/TrackPointExtension/v1">
            <gpxtpx:hr>104</gpxtpx:hr>
          </gpxtpx:TrackPointExtension>
        </extensions>
      </trkpt>
      <trkpt lat="43.08688" lon="1.2861">
        <ele>492.6</ele>
        <time>2023-03-05T12:49:50Z</time>
        <extensions>
          <gpxtpx:TrackPointExtension xmlns:gpxtpx="http://www.garmin.com/xmlschemas/TrackPointExtension/v1">
            <gpxtpx:hr>104</gpxtpx:hr>
          </gpxtpx:TrackPointExtension>
        </extensions>
      </trkpt>
      <trkpt lat="43.08688" lon="1.28612">
        <ele>491.8</ele>
        <time>2023-03-05T12:49:51Z</time>
        <extensions>
          <gpxtpx:TrackPointExtension xmlns:gpxtpx="http://www.garmin.com/xmlschemas/TrackPointExtension/v1">
            <gpxtpx:hr>104</gpxtpx:hr>
          </gpxtpx:TrackPointExtension>
        </extensions>
      </trkpt>
      <trkpt lat="43.08687" lon="1.28614">
        <ele>491</ele>
        <time>2023-03-05T12:49:52Z</time>
        <extensions>
          <gpxtpx:TrackPointExtension xmlns:gpxtpx="http://www.garmin.com/xmlschemas/TrackPointExtension/v1">
            <gpxtpx:hr>105</gpxtpx:hr>
          </gpxtpx:TrackPointExtension>
        </extensions>
      </trkpt>
      <trkpt lat="43.08687" lon="1.28613">
        <ele>489.2</ele>
        <time>2023-03-05T12:49:53Z</time>
        <extensions>
          <gpxtpx:TrackPointExtension xmlns:gpxtpx="http://www.garmin.com/xmlschemas/TrackPointExtension/v1">
            <gpxtpx:hr>105</gpxtpx:hr>
          </gpxtpx:TrackPointExtension>
        </extensions>
      </trkpt>
      <trkpt lat="43.08686" lon="1.28618">
        <ele>489.2</ele>
        <time>2023-03-05T12:50:33Z</time>
        <extensions>
          <gpxtpx:TrackPointExtension xmlns:gpxtpx="http://www.garmin.com/xmlschemas/TrackPointExtension/v1">
            <gpxtpx:hr>109</gpxtpx:hr>
          </gpxtpx:TrackPointExtension>
        </extensions>
      </trkpt>
      <trkpt lat="43.08685" lon="1.2862">
        <ele>489.2</ele>
        <time>2023-03-05T12:50:34Z</time>
        <extensions>
          <gpxtpx:TrackPointExtension xmlns:gpxtpx="http://www.garmin.com/xmlschemas/TrackPointExtension/v1">
            <gpxtpx:hr>109</gpxtpx:hr>
          </gpxtpx:TrackPointExtension>
        </extensions>
      </trkpt>
      <trkpt lat="43.08686" lon="1.28633">
        <ele>488.8</ele>
        <time>2023-03-05T12:50:37Z</time>
        <extensions>
          <gpxtpx:TrackPointExtension xmlns:gpxtpx="http://www.garmin.com/xmlschemas/TrackPointExtension/v1">
            <gpxtpx:hr>107</gpxtpx:hr>
          </gpxtpx:TrackPointExtension>
        </extensions>
      </trkpt>
      <trkpt lat="43.08687" lon="1.28638">
        <ele>488.4</ele>
        <time>2023-03-05T12:50:38Z</time>
        <extensions>
          <gpxtpx:TrackPointExtension xmlns:gpxtpx="http://www.garmin.com/xmlschemas/TrackPointExtension/v1">
            <gpxtpx:hr>106</gpxtpx:hr>
          </gpxtpx:TrackPointExtension>
        </extensions>
      </trkpt>
      <trkpt lat="43.08688" lon="1.28645">
        <ele>488</ele>
        <time>2023-03-05T12:50:39Z</time>
        <extensions>
          <gpxtpx:TrackPointExtension xmlns:gpxtpx="http://www.garmin.com/xmlschemas/TrackPointExtension/v1">
            <gpxtpx:hr>106</gpxtpx:hr>
          </gpxtpx:TrackPointExtension>
        </extensions>
      </trkpt>
      <trkpt lat="43.08689" lon="1.28651">
        <ele>487.6</ele>
        <time>2023-03-05T12:50:40Z</time>
        <extensions>
          <gpxtpx:TrackPointExtension xmlns:gpxtpx="http://www.garmin.com/xmlschemas/TrackPointExtension/v1">
            <gpxtpx:hr>106</gpxtpx:hr>
          </gpxtpx:TrackPointExtension>
        </extensions>
      </trkpt>
      <trkpt lat="43.0869" lon="1.28659">
        <ele>487.2</ele>
        <time>2023-03-05T12:50:41Z</time>
        <extensions>
          <gpxtpx:TrackPointExtension xmlns:gpxtpx="http://www.garmin.com/xmlschemas/TrackPointExtension/v1">
            <gpxtpx:hr>105</gpxtpx:hr>
          </gpxtpx:TrackPointExtension>
        </extensions>
      </trkpt>
      <trkpt lat="43.08693" lon="1.28677">
        <ele>486.2</ele>
        <time>2023-03-05T12:50:43Z</time>
        <extensions>
          <gpxtpx:TrackPointExtension xmlns:gpxtpx="http://www.garmin.com/xmlschemas/TrackPointExtension/v1">
            <gpxtpx:hr>105</gpxtpx:hr>
          </gpxtpx:TrackPointExtension>
        </extensions>
      </trkpt>
      <trkpt lat="43.08695" lon="1.28686">
        <ele>485.8</ele>
        <time>2023-03-05T12:50:44Z</time>
        <extensions>
          <gpxtpx:TrackPointExtension xmlns:gpxtpx="http://www.garmin.com/xmlschemas/TrackPointExtension/v1">
            <gpxtpx:hr>105</gpxtpx:hr>
          </gpxtpx:TrackPointExtension>
        </extensions>
      </trkpt>
      <trkpt lat="43.08697" lon="1.28695">
        <ele>485.4</ele>
        <time>2023-03-05T12:50:45Z</time>
        <extensions>
          <gpxtpx:TrackPointExtension xmlns:gpxtpx="http://www.garmin.com/xmlschemas/TrackPointExtension/v1">
            <gpxtpx:hr>105</gpxtpx:hr>
          </gpxtpx:TrackPointExtension>
        </extensions>
      </trkpt>
      <trkpt lat="43.087" lon="1.28704">
        <ele>484.8</ele>
        <time>2023-03-05T12:50:46Z</time>
        <extensions>
          <gpxtpx:TrackPointExtension xmlns:gpxtpx="http://www.garmin.com/xmlschemas/TrackPointExtension/v1">
            <gpxtpx:hr>105</gpxtpx:hr>
          </gpxtpx:TrackPointExtension>
        </extensions>
      </trkpt>
      <trkpt lat="43.08707" lon="1.28721">
        <ele>484.8</ele>
        <time>2023-03-05T12:50:48Z</time>
        <extensions>
          <gpxtpx:TrackPointExtension xmlns:gpxtpx="http://www.garmin.com/xmlschemas/TrackPointExtension/v1">
            <gpxtpx:hr>104</gpxtpx:hr>
          </gpxtpx:TrackPointExtension>
        </extensions>
      </trkpt>
      <trkpt lat="43.08709" lon="1.2873">
        <ele>484.8</ele>
        <time>2023-03-05T12:50:49Z</time>
        <extensions>
          <gpxtpx:TrackPointExtension xmlns:gpxtpx="http://www.garmin.com/xmlschemas/TrackPointExtension/v1">
            <gpxtpx:hr>104</gpxtpx:hr>
          </gpxtpx:TrackPointExtension>
        </extensions>
      </trkpt>
      <trkpt lat="43.08713" lon="1.28748">
        <ele>484.4</ele>
        <time>2023-03-05T12:50:51Z</time>
        <extensions>
          <gpxtpx:TrackPointExtension xmlns:gpxtpx="http://www.garmin.com/xmlschemas/TrackPointExtension/v1">
            <gpxtpx:hr>103</gpxtpx:hr>
          </gpxtpx:TrackPointExtension>
        </extensions>
      </trkpt>
      <trkpt lat="43.08714" lon="1.28757">
        <ele>484</ele>
        <time>2023-03-05T12:50:52Z</time>
        <extensions>
          <gpxtpx:TrackPointExtension xmlns:gpxtpx="http://www.garmin.com/xmlschemas/TrackPointExtension/v1">
            <gpxtpx:hr>103</gpxtpx:hr>
          </gpxtpx:TrackPointExtension>
        </extensions>
      </trkpt>
      <trkpt lat="43.08716" lon="1.28765">
        <ele>483.6</ele>
        <time>2023-03-05T12:50:53Z</time>
        <extensions>
          <gpxtpx:TrackPointExtension xmlns:gpxtpx="http://www.garmin.com/xmlschemas/TrackPointExtension/v1">
            <gpxtpx:hr>103</gpxtpx:hr>
          </gpxtpx:TrackPointExtension>
        </extensions>
      </trkpt>
      <trkpt lat="43.08718" lon="1.28772">
        <ele>483.2</ele>
        <time>2023-03-05T12:50:54Z</time>
        <extensions>
          <gpxtpx:TrackPointExtension xmlns:gpxtpx="http://www.garmin.com/xmlschemas/TrackPointExtension/v1">
            <gpxtpx:hr>103</gpxtpx:hr>
          </gpxtpx:TrackPointExtension>
        </extensions>
      </trkpt>
      <trkpt lat="43.0872" lon="1.28778">
        <ele>482.8</ele>
        <time>2023-03-05T12:50:55Z</time>
        <extensions>
          <gpxtpx:TrackPointExtension xmlns:gpxtpx="http://www.garmin.com/xmlschemas/TrackPointExtension/v1">
            <gpxtpx:hr>103</gpxtpx:hr>
          </gpxtpx:TrackPointExtension>
        </extensions>
      </trkpt>
      <trkpt lat="43.08725" lon="1.28797">
        <ele>482.8</ele>
        <time>2023-03-05T12:50:58Z</time>
        <extensions>
          <gpxtpx:TrackPointExtension xmlns:gpxtpx="http://www.garmin.com/xmlschemas/TrackPointExtension/v1">
            <gpxtpx:hr>103</gpxtpx:hr>
          </gpxtpx:TrackPointExtension>
        </extensions>
      </trkpt>
      <trkpt lat="43.0873" lon="1.28821">
        <ele>482.8</ele>
        <time>2023-03-05T12:51:03Z</time>
        <extensions>
          <gpxtpx:TrackPointExtension xmlns:gpxtpx="http://www.garmin.com/xmlschemas/TrackPointExtension/v1">
            <gpxtpx:hr>104</gpxtpx:hr>
          </gpxtpx:TrackPointExtension>
        </extensions>
      </trkpt>
      <trkpt lat="43.08739" lon="1.28853">
        <ele>482.8</ele>
        <time>2023-03-05T12:51:10Z</time>
        <extensions>
          <gpxtpx:TrackPointExtension xmlns:gpxtpx="http://www.garmin.com/xmlschemas/TrackPointExtension/v1">
            <gpxtpx:hr>102</gpxtpx:hr>
          </gpxtpx:TrackPointExtension>
        </extensions>
      </trkpt>
      <trkpt lat="43.08739" lon="1.2886">
        <ele>482.8</ele>
        <time>2023-03-05T12:51:12Z</time>
        <extensions>
          <gpxtpx:TrackPointExtension xmlns:gpxtpx="http://www.garmin.com/xmlschemas/TrackPointExtension/v1">
            <gpxtpx:hr>101</gpxtpx:hr>
          </gpxtpx:TrackPointExtension>
        </extensions>
      </trkpt>
      <trkpt lat="43.08736" lon="1.28873">
        <ele>482.8</ele>
        <time>2023-03-05T12:51:14Z</time>
        <extensions>
          <gpxtpx:TrackPointExtension xmlns:gpxtpx="http://www.garmin.com/xmlschemas/TrackPointExtension/v1">
            <gpxtpx:hr>101</gpxtpx:hr>
          </gpxtpx:TrackPointExtension>
        </extensions>
      </trkpt>
      <trkpt lat="43.08735" lon="1.28881">
        <ele>482.8</ele>
        <time>2023-03-05T12:51:15Z</time>
        <extensions>
          <gpxtpx:TrackPointExtension xmlns:gpxtpx="http://www.garmin.com/xmlschemas/TrackPointExtension/v1">
            <gpxtpx:hr>100</gpxtpx:hr>
          </gpxtpx:TrackPointExtension>
        </extensions>
      </trkpt>
      <trkpt lat="43.08731" lon="1.28902">
        <ele>482.4</ele>
        <time>2023-03-05T12:51:17Z</time>
        <extensions>
          <gpxtpx:TrackPointExtension xmlns:gpxtpx="http://www.garmin.com/xmlschemas/TrackPointExtension/v1">
            <gpxtpx:hr>100</gpxtpx:hr>
          </gpxtpx:TrackPointExtension>
        </extensions>
      </trkpt>
      <trkpt lat="43.08728" lon="1.28913">
        <ele>481.8</ele>
        <time>2023-03-05T12:51:18Z</time>
        <extensions>
          <gpxtpx:TrackPointExtension xmlns:gpxtpx="http://www.garmin.com/xmlschemas/TrackPointExtension/v1">
            <gpxtpx:hr>101</gpxtpx:hr>
          </gpxtpx:TrackPointExtension>
        </extensions>
      </trkpt>
      <trkpt lat="43.08725" lon="1.28925">
        <ele>481.4</ele>
        <time>2023-03-05T12:51:19Z</time>
        <extensions>
          <gpxtpx:TrackPointExtension xmlns:gpxtpx="http://www.garmin.com/xmlschemas/TrackPointExtension/v1">
            <gpxtpx:hr>101</gpxtpx:hr>
          </gpxtpx:TrackPointExtension>
        </extensions>
      </trkpt>
      <trkpt lat="43.08721" lon="1.28936">
        <ele>480.6</ele>
        <time>2023-03-05T12:51:20Z</time>
        <extensions>
          <gpxtpx:TrackPointExtension xmlns:gpxtpx="http://www.garmin.com/xmlschemas/TrackPointExtension/v1">
            <gpxtpx:hr>102</gpxtpx:hr>
          </gpxtpx:TrackPointExtension>
        </extensions>
      </trkpt>
      <trkpt lat="43.08718" lon="1.28948">
        <ele>480</ele>
        <time>2023-03-05T12:51:21Z</time>
        <extensions>
          <gpxtpx:TrackPointExtension xmlns:gpxtpx="http://www.garmin.com/xmlschemas/TrackPointExtension/v1">
            <gpxtpx:hr>103</gpxtpx:hr>
          </gpxtpx:TrackPointExtension>
        </extensions>
      </trkpt>
      <trkpt lat="43.08714" lon="1.28958">
        <ele>479.2</ele>
        <time>2023-03-05T12:51:22Z</time>
        <extensions>
          <gpxtpx:TrackPointExtension xmlns:gpxtpx="http://www.garmin.com/xmlschemas/TrackPointExtension/v1">
            <gpxtpx:hr>103</gpxtpx:hr>
          </gpxtpx:TrackPointExtension>
        </extensions>
      </trkpt>
      <trkpt lat="43.08711" lon="1.28968">
        <ele>478.4</ele>
        <time>2023-03-05T12:51:23Z</time>
        <extensions>
          <gpxtpx:TrackPointExtension xmlns:gpxtpx="http://www.garmin.com/xmlschemas/TrackPointExtension/v1">
            <gpxtpx:hr>104</gpxtpx:hr>
          </gpxtpx:TrackPointExtension>
        </extensions>
      </trkpt>
      <trkpt lat="43.08708" lon="1.28977">
        <ele>477.6</ele>
        <time>2023-03-05T12:51:24Z</time>
        <extensions>
          <gpxtpx:TrackPointExtension xmlns:gpxtpx="http://www.garmin.com/xmlschemas/TrackPointExtension/v1">
            <gpxtpx:hr>104</gpxtpx:hr>
          </gpxtpx:TrackPointExtension>
        </extensions>
      </trkpt>
      <trkpt lat="43.08705" lon="1.28986">
        <ele>477</ele>
        <time>2023-03-05T12:51:25Z</time>
        <extensions>
          <gpxtpx:TrackPointExtension xmlns:gpxtpx="http://www.garmin.com/xmlschemas/TrackPointExtension/v1">
            <gpxtpx:hr>104</gpxtpx:hr>
          </gpxtpx:TrackPointExtension>
        </extensions>
      </trkpt>
      <trkpt lat="43.08702" lon="1.28993">
        <ele>476.2</ele>
        <time>2023-03-05T12:51:26Z</time>
        <extensions>
          <gpxtpx:TrackPointExtension xmlns:gpxtpx="http://www.garmin.com/xmlschemas/TrackPointExtension/v1">
            <gpxtpx:hr>104</gpxtpx:hr>
          </gpxtpx:TrackPointExtension>
        </extensions>
      </trkpt>
      <trkpt lat="43.087" lon="1.28999">
        <ele>475.4</ele>
        <time>2023-03-05T12:51:27Z</time>
        <extensions>
          <gpxtpx:TrackPointExtension xmlns:gpxtpx="http://www.garmin.com/xmlschemas/TrackPointExtension/v1">
            <gpxtpx:hr>104</gpxtpx:hr>
          </gpxtpx:TrackPointExtension>
        </extensions>
      </trkpt>
      <trkpt lat="43.08694" lon="1.29024">
        <ele>475.4</ele>
        <time>2023-03-05T12:51:32Z</time>
        <extensions>
          <gpxtpx:TrackPointExtension xmlns:gpxtpx="http://www.garmin.com/xmlschemas/TrackPointExtension/v1">
            <gpxtpx:hr>104</gpxtpx:hr>
          </gpxtpx:TrackPointExtension>
        </extensions>
      </trkpt>
      <trkpt lat="43.08694" lon="1.29032">
        <ele>475</ele>
        <time>2023-03-05T12:51:36Z</time>
        <extensions>
          <gpxtpx:TrackPointExtension xmlns:gpxtpx="http://www.garmin.com/xmlschemas/TrackPointExtension/v1">
            <gpxtpx:hr>105</gpxtpx:hr>
          </gpxtpx:TrackPointExtension>
        </extensions>
      </trkpt>
      <trkpt lat="43.08694" lon="1.29032">
        <ele>475.4</ele>
        <time>2023-03-05T12:51:37Z</time>
        <extensions>
          <gpxtpx:TrackPointExtension xmlns:gpxtpx="http://www.garmin.com/xmlschemas/TrackPointExtension/v1">
            <gpxtpx:hr>105</gpxtpx:hr>
          </gpxtpx:TrackPointExtension>
        </extensions>
      </trkpt>
      <trkpt lat="43.08694" lon="1.29031">
        <ele>475.6</ele>
        <time>2023-03-05T12:51:38Z</time>
        <extensions>
          <gpxtpx:TrackPointExtension xmlns:gpxtpx="http://www.garmin.com/xmlschemas/TrackPointExtension/v1">
            <gpxtpx:hr>105</gpxtpx:hr>
          </gpxtpx:TrackPointExtension>
        </extensions>
      </trkpt>
      <trkpt lat="43.08692" lon="1.2904">
        <ele>477.6</ele>
        <time>2023-03-05T12:51:59Z</time>
        <extensions>
          <gpxtpx:TrackPointExtension xmlns:gpxtpx="http://www.garmin.com/xmlschemas/TrackPointExtension/v1">
            <gpxtpx:hr>103</gpxtpx:hr>
          </gpxtpx:TrackPointExtension>
        </extensions>
      </trkpt>
      <trkpt lat="43.08692" lon="1.29044">
        <ele>477.6</ele>
        <time>2023-03-05T12:52:00Z</time>
        <extensions>
          <gpxtpx:TrackPointExtension xmlns:gpxtpx="http://www.garmin.com/xmlschemas/TrackPointExtension/v1">
            <gpxtpx:hr>103</gpxtpx:hr>
          </gpxtpx:TrackPointExtension>
        </extensions>
      </trkpt>
      <trkpt lat="43.08689" lon="1.29053">
        <ele>477.6</ele>
        <time>2023-03-05T12:52:03Z</time>
        <extensions>
          <gpxtpx:TrackPointExtension xmlns:gpxtpx="http://www.garmin.com/xmlschemas/TrackPointExtension/v1">
            <gpxtpx:hr>106</gpxtpx:hr>
          </gpxtpx:TrackPointExtension>
        </extensions>
      </trkpt>
      <trkpt lat="43.08688" lon="1.2906">
        <ele>477.6</ele>
        <time>2023-03-05T12:52:05Z</time>
        <extensions>
          <gpxtpx:TrackPointExtension xmlns:gpxtpx="http://www.garmin.com/xmlschemas/TrackPointExtension/v1">
            <gpxtpx:hr>107</gpxtpx:hr>
          </gpxtpx:TrackPointExtension>
        </extensions>
      </trkpt>
      <trkpt lat="43.08684" lon="1.29084">
        <ele>477.6</ele>
        <time>2023-03-05T12:52:10Z</time>
        <extensions>
          <gpxtpx:TrackPointExtension xmlns:gpxtpx="http://www.garmin.com/xmlschemas/TrackPointExtension/v1">
            <gpxtpx:hr>107</gpxtpx:hr>
          </gpxtpx:TrackPointExtension>
        </extensions>
      </trkpt>
      <trkpt lat="43.08683" lon="1.29088">
        <ele>477.2</ele>
        <time>2023-03-05T12:52:11Z</time>
        <extensions>
          <gpxtpx:TrackPointExtension xmlns:gpxtpx="http://www.garmin.com/xmlschemas/TrackPointExtension/v1">
            <gpxtpx:hr>109</gpxtpx:hr>
          </gpxtpx:TrackPointExtension>
        </extensions>
      </trkpt>
      <trkpt lat="43.08683" lon="1.29091">
        <ele>476.8</ele>
        <time>2023-03-05T12:52:12Z</time>
        <extensions>
          <gpxtpx:TrackPointExtension xmlns:gpxtpx="http://www.garmin.com/xmlschemas/TrackPointExtension/v1">
            <gpxtpx:hr>110</gpxtpx:hr>
          </gpxtpx:TrackPointExtension>
        </extensions>
      </trkpt>
      <trkpt lat="43.08682" lon="1.29096">
        <ele>476.4</ele>
        <time>2023-03-05T12:52:13Z</time>
        <extensions>
          <gpxtpx:TrackPointExtension xmlns:gpxtpx="http://www.garmin.com/xmlschemas/TrackPointExtension/v1">
            <gpxtpx:hr>110</gpxtpx:hr>
          </gpxtpx:TrackPointExtension>
        </extensions>
      </trkpt>
      <trkpt lat="43.08681" lon="1.291">
        <ele>476</ele>
        <time>2023-03-05T12:52:14Z</time>
        <extensions>
          <gpxtpx:TrackPointExtension xmlns:gpxtpx="http://www.garmin.com/xmlschemas/TrackPointExtension/v1">
            <gpxtpx:hr>111</gpxtpx:hr>
          </gpxtpx:TrackPointExtension>
        </extensions>
      </trkpt>
      <trkpt lat="43.08679" lon="1.29104">
        <ele>475.4</ele>
        <time>2023-03-05T12:52:15Z</time>
        <extensions>
          <gpxtpx:TrackPointExtension xmlns:gpxtpx="http://www.garmin.com/xmlschemas/TrackPointExtension/v1">
            <gpxtpx:hr>112</gpxtpx:hr>
          </gpxtpx:TrackPointExtension>
        </extensions>
      </trkpt>
      <trkpt lat="43.08678" lon="1.29109">
        <ele>475.4</ele>
        <time>2023-03-05T12:52:16Z</time>
        <extensions>
          <gpxtpx:TrackPointExtension xmlns:gpxtpx="http://www.garmin.com/xmlschemas/TrackPointExtension/v1">
            <gpxtpx:hr>113</gpxtpx:hr>
          </gpxtpx:TrackPointExtension>
        </extensions>
      </trkpt>
      <trkpt lat="43.08671" lon="1.29141">
        <ele>475</ele>
        <time>2023-03-05T12:52:21Z</time>
        <extensions>
          <gpxtpx:TrackPointExtension xmlns:gpxtpx="http://www.garmin.com/xmlschemas/TrackPointExtension/v1">
            <gpxtpx:hr>112</gpxtpx:hr>
          </gpxtpx:TrackPointExtension>
        </extensions>
      </trkpt>
      <trkpt lat="43.0867" lon="1.29148">
        <ele>474</ele>
        <time>2023-03-05T12:52:22Z</time>
        <extensions>
          <gpxtpx:TrackPointExtension xmlns:gpxtpx="http://www.garmin.com/xmlschemas/TrackPointExtension/v1">
            <gpxtpx:hr>112</gpxtpx:hr>
          </gpxtpx:TrackPointExtension>
        </extensions>
      </trkpt>
      <trkpt lat="43.08668" lon="1.29154">
        <ele>473.6</ele>
        <time>2023-03-05T12:52:23Z</time>
        <extensions>
          <gpxtpx:TrackPointExtension xmlns:gpxtpx="http://www.garmin.com/xmlschemas/TrackPointExtension/v1">
            <gpxtpx:hr>112</gpxtpx:hr>
          </gpxtpx:TrackPointExtension>
        </extensions>
      </trkpt>
      <trkpt lat="43.08667" lon="1.29159">
        <ele>473.2</ele>
        <time>2023-03-05T12:52:24Z</time>
        <extensions>
          <gpxtpx:TrackPointExtension xmlns:gpxtpx="http://www.garmin.com/xmlschemas/TrackPointExtension/v1">
            <gpxtpx:hr>112</gpxtpx:hr>
          </gpxtpx:TrackPointExtension>
        </extensions>
      </trkpt>
      <trkpt lat="43.08666" lon="1.29163">
        <ele>472.8</ele>
        <time>2023-03-05T12:52:25Z</time>
        <extensions>
          <gpxtpx:TrackPointExtension xmlns:gpxtpx="http://www.garmin.com/xmlschemas/TrackPointExtension/v1">
            <gpxtpx:hr>112</gpxtpx:hr>
          </gpxtpx:TrackPointExtension>
        </extensions>
      </trkpt>
      <trkpt lat="43.08665" lon="1.29168">
        <ele>472.4</ele>
        <time>2023-03-05T12:52:26Z</time>
        <extensions>
          <gpxtpx:TrackPointExtension xmlns:gpxtpx="http://www.garmin.com/xmlschemas/TrackPointExtension/v1">
            <gpxtpx:hr>112</gpxtpx:hr>
          </gpxtpx:TrackPointExtension>
        </extensions>
      </trkpt>
      <trkpt lat="43.08663" lon="1.29173">
        <ele>472</ele>
        <time>2023-03-05T12:52:27Z</time>
        <extensions>
          <gpxtpx:TrackPointExtension xmlns:gpxtpx="http://www.garmin.com/xmlschemas/TrackPointExtension/v1">
            <gpxtpx:hr>112</gpxtpx:hr>
          </gpxtpx:TrackPointExtension>
        </extensions>
      </trkpt>
      <trkpt lat="43.08662" lon="1.29177">
        <ele>471.6</ele>
        <time>2023-03-05T12:52:28Z</time>
        <extensions>
          <gpxtpx:TrackPointExtension xmlns:gpxtpx="http://www.garmin.com/xmlschemas/TrackPointExtension/v1">
            <gpxtpx:hr>112</gpxtpx:hr>
          </gpxtpx:TrackPointExtension>
        </extensions>
      </trkpt>
      <trkpt lat="43.0866" lon="1.29182">
        <ele>471.2</ele>
        <time>2023-03-05T12:52:29Z</time>
        <extensions>
          <gpxtpx:TrackPointExtension xmlns:gpxtpx="http://www.garmin.com/xmlschemas/TrackPointExtension/v1">
            <gpxtpx:hr>112</gpxtpx:hr>
          </gpxtpx:TrackPointExtension>
        </extensions>
      </trkpt>
      <trkpt lat="43.08656" lon="1.29192">
        <ele>470.6</ele>
        <time>2023-03-05T12:52:31Z</time>
        <extensions>
          <gpxtpx:TrackPointExtension xmlns:gpxtpx="http://www.garmin.com/xmlschemas/TrackPointExtension/v1">
            <gpxtpx:hr>112</gpxtpx:hr>
          </gpxtpx:TrackPointExtension>
        </extensions>
      </trkpt>
      <trkpt lat="43.08655" lon="1.29198">
        <ele>470.2</ele>
        <time>2023-03-05T12:52:32Z</time>
        <extensions>
          <gpxtpx:TrackPointExtension xmlns:gpxtpx="http://www.garmin.com/xmlschemas/TrackPointExtension/v1">
            <gpxtpx:hr>112</gpxtpx:hr>
          </gpxtpx:TrackPointExtension>
        </extensions>
      </trkpt>
      <trkpt lat="43.08653" lon="1.29203">
        <ele>469.8</ele>
        <time>2023-03-05T12:52:33Z</time>
        <extensions>
          <gpxtpx:TrackPointExtension xmlns:gpxtpx="http://www.garmin.com/xmlschemas/TrackPointExtension/v1">
            <gpxtpx:hr>112</gpxtpx:hr>
          </gpxtpx:TrackPointExtension>
        </extensions>
      </trkpt>
      <trkpt lat="43.08651" lon="1.29209">
        <ele>469.2</ele>
        <time>2023-03-05T12:52:34Z</time>
        <extensions>
          <gpxtpx:TrackPointExtension xmlns:gpxtpx="http://www.garmin.com/xmlschemas/TrackPointExtension/v1">
            <gpxtpx:hr>112</gpxtpx:hr>
          </gpxtpx:TrackPointExtension>
        </extensions>
      </trkpt>
      <trkpt lat="43.08649" lon="1.29214">
        <ele>468.6</ele>
        <time>2023-03-05T12:52:35Z</time>
        <extensions>
          <gpxtpx:TrackPointExtension xmlns:gpxtpx="http://www.garmin.com/xmlschemas/TrackPointExtension/v1">
            <gpxtpx:hr>112</gpxtpx:hr>
          </gpxtpx:TrackPointExtension>
        </extensions>
      </trkpt>
      <trkpt lat="43.08647" lon="1.2922">
        <ele>468</ele>
        <time>2023-03-05T12:52:36Z</time>
        <extensions>
          <gpxtpx:TrackPointExtension xmlns:gpxtpx="http://www.garmin.com/xmlschemas/TrackPointExtension/v1">
            <gpxtpx:hr>111</gpxtpx:hr>
          </gpxtpx:TrackPointExtension>
        </extensions>
      </trkpt>
      <trkpt lat="43.08644" lon="1.29223">
        <ele>467.4</ele>
        <time>2023-03-05T12:52:37Z</time>
        <extensions>
          <gpxtpx:TrackPointExtension xmlns:gpxtpx="http://www.garmin.com/xmlschemas/TrackPointExtension/v1">
            <gpxtpx:hr>110</gpxtpx:hr>
          </gpxtpx:TrackPointExtension>
        </extensions>
      </trkpt>
      <trkpt lat="43.08642" lon="1.29227">
        <ele>466.8</ele>
        <time>2023-03-05T12:52:38Z</time>
        <extensions>
          <gpxtpx:TrackPointExtension xmlns:gpxtpx="http://www.garmin.com/xmlschemas/TrackPointExtension/v1">
            <gpxtpx:hr>110</gpxtpx:hr>
          </gpxtpx:TrackPointExtension>
        </extensions>
      </trkpt>
      <trkpt lat="43.0864" lon="1.29232">
        <ele>466.2</ele>
        <time>2023-03-05T12:52:39Z</time>
        <extensions>
          <gpxtpx:TrackPointExtension xmlns:gpxtpx="http://www.garmin.com/xmlschemas/TrackPointExtension/v1">
            <gpxtpx:hr>110</gpxtpx:hr>
          </gpxtpx:TrackPointExtension>
        </extensions>
      </trkpt>
      <trkpt lat="43.08637" lon="1.29237">
        <ele>465.6</ele>
        <time>2023-03-05T12:52:40Z</time>
        <extensions>
          <gpxtpx:TrackPointExtension xmlns:gpxtpx="http://www.garmin.com/xmlschemas/TrackPointExtension/v1">
            <gpxtpx:hr>110</gpxtpx:hr>
          </gpxtpx:TrackPointExtension>
        </extensions>
      </trkpt>
      <trkpt lat="43.08634" lon="1.29244">
        <ele>465</ele>
        <time>2023-03-05T12:52:41Z</time>
        <extensions>
          <gpxtpx:TrackPointExtension xmlns:gpxtpx="http://www.garmin.com/xmlschemas/TrackPointExtension/v1">
            <gpxtpx:hr>110</gpxtpx:hr>
          </gpxtpx:TrackPointExtension>
        </extensions>
      </trkpt>
      <trkpt lat="43.0863" lon="1.29251">
        <ele>464.4</ele>
        <time>2023-03-05T12:52:42Z</time>
        <extensions>
          <gpxtpx:TrackPointExtension xmlns:gpxtpx="http://www.garmin.com/xmlschemas/TrackPointExtension/v1">
            <gpxtpx:hr>110</gpxtpx:hr>
          </gpxtpx:TrackPointExtension>
        </extensions>
      </trkpt>
      <trkpt lat="43.08627" lon="1.29258">
        <ele>463.8</ele>
        <time>2023-03-05T12:52:43Z</time>
        <extensions>
          <gpxtpx:TrackPointExtension xmlns:gpxtpx="http://www.garmin.com/xmlschemas/TrackPointExtension/v1">
            <gpxtpx:hr>110</gpxtpx:hr>
          </gpxtpx:TrackPointExtension>
        </extensions>
      </trkpt>
      <trkpt lat="43.08625" lon="1.29263">
        <ele>463.2</ele>
        <time>2023-03-05T12:52:44Z</time>
        <extensions>
          <gpxtpx:TrackPointExtension xmlns:gpxtpx="http://www.garmin.com/xmlschemas/TrackPointExtension/v1">
            <gpxtpx:hr>110</gpxtpx:hr>
          </gpxtpx:TrackPointExtension>
        </extensions>
      </trkpt>
      <trkpt lat="43.08623" lon="1.29267">
        <ele>462.6</ele>
        <time>2023-03-05T12:52:45Z</time>
        <extensions>
          <gpxtpx:TrackPointExtension xmlns:gpxtpx="http://www.garmin.com/xmlschemas/TrackPointExtension/v1">
            <gpxtpx:hr>110</gpxtpx:hr>
          </gpxtpx:TrackPointExtension>
        </extensions>
      </trkpt>
      <trkpt lat="43.0862" lon="1.2927">
        <ele>461.4</ele>
        <time>2023-03-05T12:52:46Z</time>
        <extensions>
          <gpxtpx:TrackPointExtension xmlns:gpxtpx="http://www.garmin.com/xmlschemas/TrackPointExtension/v1">
            <gpxtpx:hr>110</gpxtpx:hr>
          </gpxtpx:TrackPointExtension>
        </extensions>
      </trkpt>
      <trkpt lat="43.08617" lon="1.29274">
        <ele>460.8</ele>
        <time>2023-03-05T12:52:47Z</time>
        <extensions>
          <gpxtpx:TrackPointExtension xmlns:gpxtpx="http://www.garmin.com/xmlschemas/TrackPointExtension/v1">
            <gpxtpx:hr>110</gpxtpx:hr>
          </gpxtpx:TrackPointExtension>
        </extensions>
      </trkpt>
      <trkpt lat="43.08614" lon="1.29278">
        <ele>460.2</ele>
        <time>2023-03-05T12:52:48Z</time>
        <extensions>
          <gpxtpx:TrackPointExtension xmlns:gpxtpx="http://www.garmin.com/xmlschemas/TrackPointExtension/v1">
            <gpxtpx:hr>110</gpxtpx:hr>
          </gpxtpx:TrackPointExtension>
        </extensions>
      </trkpt>
      <trkpt lat="43.08611" lon="1.29281">
        <ele>459.6</ele>
        <time>2023-03-05T12:52:49Z</time>
        <extensions>
          <gpxtpx:TrackPointExtension xmlns:gpxtpx="http://www.garmin.com/xmlschemas/TrackPointExtension/v1">
            <gpxtpx:hr>110</gpxtpx:hr>
          </gpxtpx:TrackPointExtension>
        </extensions>
      </trkpt>
      <trkpt lat="43.08609" lon="1.29284">
        <ele>459</ele>
        <time>2023-03-05T12:52:50Z</time>
        <extensions>
          <gpxtpx:TrackPointExtension xmlns:gpxtpx="http://www.garmin.com/xmlschemas/TrackPointExtension/v1">
            <gpxtpx:hr>110</gpxtpx:hr>
          </gpxtpx:TrackPointExtension>
        </extensions>
      </trkpt>
      <trkpt lat="43.08606" lon="1.29288">
        <ele>458.4</ele>
        <time>2023-03-05T12:52:51Z</time>
        <extensions>
          <gpxtpx:TrackPointExtension xmlns:gpxtpx="http://www.garmin.com/xmlschemas/TrackPointExtension/v1">
            <gpxtpx:hr>110</gpxtpx:hr>
          </gpxtpx:TrackPointExtension>
        </extensions>
      </trkpt>
      <trkpt lat="43.08602" lon="1.29291">
        <ele>457.8</ele>
        <time>2023-03-05T12:52:52Z</time>
        <extensions>
          <gpxtpx:TrackPointExtension xmlns:gpxtpx="http://www.garmin.com/xmlschemas/TrackPointExtension/v1">
            <gpxtpx:hr>110</gpxtpx:hr>
          </gpxtpx:TrackPointExtension>
        </extensions>
      </trkpt>
      <trkpt lat="43.086" lon="1.29295">
        <ele>457.2</ele>
        <time>2023-03-05T12:52:53Z</time>
        <extensions>
          <gpxtpx:TrackPointExtension xmlns:gpxtpx="http://www.garmin.com/xmlschemas/TrackPointExtension/v1">
            <gpxtpx:hr>110</gpxtpx:hr>
          </gpxtpx:TrackPointExtension>
        </extensions>
      </trkpt>
      <trkpt lat="43.08598" lon="1.29297">
        <ele>456.6</ele>
        <time>2023-03-05T12:52:54Z</time>
        <extensions>
          <gpxtpx:TrackPointExtension xmlns:gpxtpx="http://www.garmin.com/xmlschemas/TrackPointExtension/v1">
            <gpxtpx:hr>110</gpxtpx:hr>
          </gpxtpx:TrackPointExtension>
        </extensions>
      </trkpt>
      <trkpt lat="43.08597" lon="1.29298">
        <ele>456</ele>
        <time>2023-03-05T12:52:55Z</time>
        <extensions>
          <gpxtpx:TrackPointExtension xmlns:gpxtpx="http://www.garmin.com/xmlschemas/TrackPointExtension/v1">
            <gpxtpx:hr>110</gpxtpx:hr>
          </gpxtpx:TrackPointExtension>
        </extensions>
      </trkpt>
      <trkpt lat="43.08596" lon="1.293">
        <ele>455.6</ele>
        <time>2023-03-05T12:52:56Z</time>
        <extensions>
          <gpxtpx:TrackPointExtension xmlns:gpxtpx="http://www.garmin.com/xmlschemas/TrackPointExtension/v1">
            <gpxtpx:hr>110</gpxtpx:hr>
          </gpxtpx:TrackPointExtension>
        </extensions>
      </trkpt>
      <trkpt lat="43.08593" lon="1.29306">
        <ele>455.6</ele>
        <time>2023-03-05T12:52:58Z</time>
        <extensions>
          <gpxtpx:TrackPointExtension xmlns:gpxtpx="http://www.garmin.com/xmlschemas/TrackPointExtension/v1">
            <gpxtpx:hr>110</gpxtpx:hr>
          </gpxtpx:TrackPointExtension>
        </extensions>
      </trkpt>
      <trkpt lat="43.08591" lon="1.2931">
        <ele>455.2</ele>
        <time>2023-03-05T12:52:59Z</time>
        <extensions>
          <gpxtpx:TrackPointExtension xmlns:gpxtpx="http://www.garmin.com/xmlschemas/TrackPointExtension/v1">
            <gpxtpx:hr>110</gpxtpx:hr>
          </gpxtpx:TrackPointExtension>
        </extensions>
      </trkpt>
      <trkpt lat="43.08589" lon="1.29314">
        <ele>454.8</ele>
        <time>2023-03-05T12:53:00Z</time>
        <extensions>
          <gpxtpx:TrackPointExtension xmlns:gpxtpx="http://www.garmin.com/xmlschemas/TrackPointExtension/v1">
            <gpxtpx:hr>110</gpxtpx:hr>
          </gpxtpx:TrackPointExtension>
        </extensions>
      </trkpt>
      <trkpt lat="43.08586" lon="1.29317">
        <ele>454.2</ele>
        <time>2023-03-05T12:53:01Z</time>
        <extensions>
          <gpxtpx:TrackPointExtension xmlns:gpxtpx="http://www.garmin.com/xmlschemas/TrackPointExtension/v1">
            <gpxtpx:hr>110</gpxtpx:hr>
          </gpxtpx:TrackPointExtension>
        </extensions>
      </trkpt>
      <trkpt lat="43.08583" lon="1.2932">
        <ele>453.8</ele>
        <time>2023-03-05T12:53:02Z</time>
        <extensions>
          <gpxtpx:TrackPointExtension xmlns:gpxtpx="http://www.garmin.com/xmlschemas/TrackPointExtension/v1">
            <gpxtpx:hr>110</gpxtpx:hr>
          </gpxtpx:TrackPointExtension>
        </extensions>
      </trkpt>
      <trkpt lat="43.08581" lon="1.29322">
        <ele>453.4</ele>
        <time>2023-03-05T12:53:03Z</time>
        <extensions>
          <gpxtpx:TrackPointExtension xmlns:gpxtpx="http://www.garmin.com/xmlschemas/TrackPointExtension/v1">
            <gpxtpx:hr>110</gpxtpx:hr>
          </gpxtpx:TrackPointExtension>
        </extensions>
      </trkpt>
      <trkpt lat="43.0858" lon="1.29323">
        <ele>452.8</ele>
        <time>2023-03-05T12:53:04Z</time>
        <extensions>
          <gpxtpx:TrackPointExtension xmlns:gpxtpx="http://www.garmin.com/xmlschemas/TrackPointExtension/v1">
            <gpxtpx:hr>110</gpxtpx:hr>
          </gpxtpx:TrackPointExtension>
        </extensions>
      </trkpt>
      <trkpt lat="43.08579" lon="1.29325">
        <ele>452.4</ele>
        <time>2023-03-05T12:53:05Z</time>
        <extensions>
          <gpxtpx:TrackPointExtension xmlns:gpxtpx="http://www.garmin.com/xmlschemas/TrackPointExtension/v1">
            <gpxtpx:hr>110</gpxtpx:hr>
          </gpxtpx:TrackPointExtension>
        </extensions>
      </trkpt>
      <trkpt lat="43.08578" lon="1.29325">
        <ele>451.8</ele>
        <time>2023-03-05T12:53:06Z</time>
        <extensions>
          <gpxtpx:TrackPointExtension xmlns:gpxtpx="http://www.garmin.com/xmlschemas/TrackPointExtension/v1">
            <gpxtpx:hr>110</gpxtpx:hr>
          </gpxtpx:TrackPointExtension>
        </extensions>
      </trkpt>
      <trkpt lat="43.08577" lon="1.29327">
        <ele>451.4</ele>
        <time>2023-03-05T12:53:07Z</time>
        <extensions>
          <gpxtpx:TrackPointExtension xmlns:gpxtpx="http://www.garmin.com/xmlschemas/TrackPointExtension/v1">
            <gpxtpx:hr>110</gpxtpx:hr>
          </gpxtpx:TrackPointExtension>
        </extensions>
      </trkpt>
      <trkpt lat="43.08574" lon="1.29331">
        <ele>451.4</ele>
        <time>2023-03-05T12:53:10Z</time>
        <extensions>
          <gpxtpx:TrackPointExtension xmlns:gpxtpx="http://www.garmin.com/xmlschemas/TrackPointExtension/v1">
            <gpxtpx:hr>110</gpxtpx:hr>
          </gpxtpx:TrackPointExtension>
        </extensions>
      </trkpt>
      <trkpt lat="43.08573" lon="1.29333">
        <ele>450.4</ele>
        <time>2023-03-05T12:53:11Z</time>
        <extensions>
          <gpxtpx:TrackPointExtension xmlns:gpxtpx="http://www.garmin.com/xmlschemas/TrackPointExtension/v1">
            <gpxtpx:hr>109</gpxtpx:hr>
          </gpxtpx:TrackPointExtension>
        </extensions>
      </trkpt>
      <trkpt lat="43.08572" lon="1.29335">
        <ele>450</ele>
        <time>2023-03-05T12:53:12Z</time>
        <extensions>
          <gpxtpx:TrackPointExtension xmlns:gpxtpx="http://www.garmin.com/xmlschemas/TrackPointExtension/v1">
            <gpxtpx:hr>108</gpxtpx:hr>
          </gpxtpx:TrackPointExtension>
        </extensions>
      </trkpt>
      <trkpt lat="43.08571" lon="1.29336">
        <ele>449.6</ele>
        <time>2023-03-05T12:53:13Z</time>
        <extensions>
          <gpxtpx:TrackPointExtension xmlns:gpxtpx="http://www.garmin.com/xmlschemas/TrackPointExtension/v1">
            <gpxtpx:hr>108</gpxtpx:hr>
          </gpxtpx:TrackPointExtension>
        </extensions>
      </trkpt>
      <trkpt lat="43.08571" lon="1.29338">
        <ele>449.2</ele>
        <time>2023-03-05T12:53:14Z</time>
        <extensions>
          <gpxtpx:TrackPointExtension xmlns:gpxtpx="http://www.garmin.com/xmlschemas/TrackPointExtension/v1">
            <gpxtpx:hr>108</gpxtpx:hr>
          </gpxtpx:TrackPointExtension>
        </extensions>
      </trkpt>
      <trkpt lat="43.08571" lon="1.29341">
        <ele>449.2</ele>
        <time>2023-03-05T12:53:16Z</time>
        <extensions>
          <gpxtpx:TrackPointExtension xmlns:gpxtpx="http://www.garmin.com/xmlschemas/TrackPointExtension/v1">
            <gpxtpx:hr>108</gpxtpx:hr>
          </gpxtpx:TrackPointExtension>
        </extensions>
      </trkpt>
      <trkpt lat="43.08571" lon="1.29342">
        <ele>449.2</ele>
        <time>2023-03-05T12:53:17Z</time>
        <extensions>
          <gpxtpx:TrackPointExtension xmlns:gpxtpx="http://www.garmin.com/xmlschemas/TrackPointExtension/v1">
            <gpxtpx:hr>110</gpxtpx:hr>
          </gpxtpx:TrackPointExtension>
        </extensions>
      </trkpt>
      <trkpt lat="43.08571" lon="1.29347">
        <ele>449.2</ele>
        <time>2023-03-05T12:54:31Z</time>
        <extensions>
          <gpxtpx:TrackPointExtension xmlns:gpxtpx="http://www.garmin.com/xmlschemas/TrackPointExtension/v1">
            <gpxtpx:hr>109</gpxtpx:hr>
          </gpxtpx:TrackPointExtension>
        </extensions>
      </trkpt>
      <trkpt lat="43.0857" lon="1.29349">
        <ele>449.2</ele>
        <time>2023-03-05T12:54:32Z</time>
        <extensions>
          <gpxtpx:TrackPointExtension xmlns:gpxtpx="http://www.garmin.com/xmlschemas/TrackPointExtension/v1">
            <gpxtpx:hr>109</gpxtpx:hr>
          </gpxtpx:TrackPointExtension>
        </extensions>
      </trkpt>
      <trkpt lat="43.08567" lon="1.29357">
        <ele>449.2</ele>
        <time>2023-03-05T12:54:35Z</time>
        <extensions>
          <gpxtpx:TrackPointExtension xmlns:gpxtpx="http://www.garmin.com/xmlschemas/TrackPointExtension/v1">
            <gpxtpx:hr>109</gpxtpx:hr>
          </gpxtpx:TrackPointExtension>
        </extensions>
      </trkpt>
      <trkpt lat="43.08564" lon="1.29363">
        <ele>449.2</ele>
        <time>2023-03-05T12:54:37Z</time>
        <extensions>
          <gpxtpx:TrackPointExtension xmlns:gpxtpx="http://www.garmin.com/xmlschemas/TrackPointExtension/v1">
            <gpxtpx:hr>109</gpxtpx:hr>
          </gpxtpx:TrackPointExtension>
        </extensions>
      </trkpt>
      <trkpt lat="43.08564" lon="1.29366">
        <ele>449.6</ele>
        <time>2023-03-05T12:54:38Z</time>
        <extensions>
          <gpxtpx:TrackPointExtension xmlns:gpxtpx="http://www.garmin.com/xmlschemas/TrackPointExtension/v1">
            <gpxtpx:hr>109</gpxtpx:hr>
          </gpxtpx:TrackPointExtension>
        </extensions>
      </trkpt>
      <trkpt lat="43.08563" lon="1.29369">
        <ele>450</ele>
        <time>2023-03-05T12:54:39Z</time>
        <extensions>
          <gpxtpx:TrackPointExtension xmlns:gpxtpx="http://www.garmin.com/xmlschemas/TrackPointExtension/v1">
            <gpxtpx:hr>109</gpxtpx:hr>
          </gpxtpx:TrackPointExtension>
        </extensions>
      </trkpt>
      <trkpt lat="43.08562" lon="1.29372">
        <ele>450.4</ele>
        <time>2023-03-05T12:54:40Z</time>
        <extensions>
          <gpxtpx:TrackPointExtension xmlns:gpxtpx="http://www.garmin.com/xmlschemas/TrackPointExtension/v1">
            <gpxtpx:hr>109</gpxtpx:hr>
          </gpxtpx:TrackPointExtension>
        </extensions>
      </trkpt>
      <trkpt lat="43.08561" lon="1.29375">
        <ele>450.8</ele>
        <time>2023-03-05T12:54:41Z</time>
        <extensions>
          <gpxtpx:TrackPointExtension xmlns:gpxtpx="http://www.garmin.com/xmlschemas/TrackPointExtension/v1">
            <gpxtpx:hr>109</gpxtpx:hr>
          </gpxtpx:TrackPointExtension>
        </extensions>
      </trkpt>
      <trkpt lat="43.08559" lon="1.29378">
        <ele>451.4</ele>
        <time>2023-03-05T12:54:42Z</time>
        <extensions>
          <gpxtpx:TrackPointExtension xmlns:gpxtpx="http://www.garmin.com/xmlschemas/TrackPointExtension/v1">
            <gpxtpx:hr>109</gpxtpx:hr>
          </gpxtpx:TrackPointExtension>
        </extensions>
      </trkpt>
      <trkpt lat="43.08557" lon="1.29383">
        <ele>451.4</ele>
        <time>2023-03-05T12:54:44Z</time>
        <extensions>
          <gpxtpx:TrackPointExtension xmlns:gpxtpx="http://www.garmin.com/xmlschemas/TrackPointExtension/v1">
            <gpxtpx:hr>109</gpxtpx:hr>
          </gpxtpx:TrackPointExtension>
        </extensions>
      </trkpt>
      <trkpt lat="43.08553" lon="1.29394">
        <ele>451.8</ele>
        <time>2023-03-05T12:54:48Z</time>
        <extensions>
          <gpxtpx:TrackPointExtension xmlns:gpxtpx="http://www.garmin.com/xmlschemas/TrackPointExtension/v1">
            <gpxtpx:hr>109</gpxtpx:hr>
          </gpxtpx:TrackPointExtension>
        </extensions>
      </trkpt>
      <trkpt lat="43.08551" lon="1.29397">
        <ele>452.2</ele>
        <time>2023-03-05T12:54:49Z</time>
        <extensions>
          <gpxtpx:TrackPointExtension xmlns:gpxtpx="http://www.garmin.com/xmlschemas/TrackPointExtension/v1">
            <gpxtpx:hr>109</gpxtpx:hr>
          </gpxtpx:TrackPointExtension>
        </extensions>
      </trkpt>
      <trkpt lat="43.0855" lon="1.294">
        <ele>452.6</ele>
        <time>2023-03-05T12:54:50Z</time>
        <extensions>
          <gpxtpx:TrackPointExtension xmlns:gpxtpx="http://www.garmin.com/xmlschemas/TrackPointExtension/v1">
            <gpxtpx:hr>109</gpxtpx:hr>
          </gpxtpx:TrackPointExtension>
        </extensions>
      </trkpt>
      <trkpt lat="43.08549" lon="1.29404">
        <ele>453</ele>
        <time>2023-03-05T12:54:51Z</time>
        <extensions>
          <gpxtpx:TrackPointExtension xmlns:gpxtpx="http://www.garmin.com/xmlschemas/TrackPointExtension/v1">
            <gpxtpx:hr>109</gpxtpx:hr>
          </gpxtpx:TrackPointExtension>
        </extensions>
      </trkpt>
      <trkpt lat="43.08547" lon="1.29407">
        <ele>453.4</ele>
        <time>2023-03-05T12:54:52Z</time>
        <extensions>
          <gpxtpx:TrackPointExtension xmlns:gpxtpx="http://www.garmin.com/xmlschemas/TrackPointExtension/v1">
            <gpxtpx:hr>112</gpxtpx:hr>
          </gpxtpx:TrackPointExtension>
        </extensions>
      </trkpt>
      <trkpt lat="43.08543" lon="1.29418">
        <ele>453.4</ele>
        <time>2023-03-05T12:54:55Z</time>
        <extensions>
          <gpxtpx:TrackPointExtension xmlns:gpxtpx="http://www.garmin.com/xmlschemas/TrackPointExtension/v1">
            <gpxtpx:hr>114</gpxtpx:hr>
          </gpxtpx:TrackPointExtension>
        </extensions>
      </trkpt>
      <trkpt lat="43.08537" lon="1.2944">
        <ele>453.4</ele>
        <time>2023-03-05T12:55:00Z</time>
        <extensions>
          <gpxtpx:TrackPointExtension xmlns:gpxtpx="http://www.garmin.com/xmlschemas/TrackPointExtension/v1">
            <gpxtpx:hr>117</gpxtpx:hr>
          </gpxtpx:TrackPointExtension>
        </extensions>
      </trkpt>
      <trkpt lat="43.08536" lon="1.29444">
        <ele>453.4</ele>
        <time>2023-03-05T12:55:01Z</time>
        <extensions>
          <gpxtpx:TrackPointExtension xmlns:gpxtpx="http://www.garmin.com/xmlschemas/TrackPointExtension/v1">
            <gpxtpx:hr>117</gpxtpx:hr>
          </gpxtpx:TrackPointExtension>
        </extensions>
      </trkpt>
      <trkpt lat="43.08526" lon="1.29465">
        <ele>453.4</ele>
        <time>2023-03-05T12:55:06Z</time>
        <extensions>
          <gpxtpx:TrackPointExtension xmlns:gpxtpx="http://www.garmin.com/xmlschemas/TrackPointExtension/v1">
            <gpxtpx:hr>117</gpxtpx:hr>
          </gpxtpx:TrackPointExtension>
        </extensions>
      </trkpt>
      <trkpt lat="43.08517" lon="1.2949">
        <ele>453.4</ele>
        <time>2023-03-05T12:55:11Z</time>
        <extensions>
          <gpxtpx:TrackPointExtension xmlns:gpxtpx="http://www.garmin.com/xmlschemas/TrackPointExtension/v1">
            <gpxtpx:hr>116</gpxtpx:hr>
          </gpxtpx:TrackPointExtension>
        </extensions>
      </trkpt>
      <trkpt lat="43.08511" lon="1.29509">
        <ele>453.4</ele>
        <time>2023-03-05T12:55:14Z</time>
        <extensions>
          <gpxtpx:TrackPointExtension xmlns:gpxtpx="http://www.garmin.com/xmlschemas/TrackPointExtension/v1">
            <gpxtpx:hr>116</gpxtpx:hr>
          </gpxtpx:TrackPointExtension>
        </extensions>
      </trkpt>
      <trkpt lat="43.08507" lon="1.29522">
        <ele>453.4</ele>
        <time>2023-03-05T12:55:16Z</time>
        <extensions>
          <gpxtpx:TrackPointExtension xmlns:gpxtpx="http://www.garmin.com/xmlschemas/TrackPointExtension/v1">
            <gpxtpx:hr>116</gpxtpx:hr>
          </gpxtpx:TrackPointExtension>
        </extensions>
      </trkpt>
      <trkpt lat="43.08504" lon="1.29528">
        <ele>453</ele>
        <time>2023-03-05T12:55:17Z</time>
        <extensions>
          <gpxtpx:TrackPointExtension xmlns:gpxtpx="http://www.garmin.com/xmlschemas/TrackPointExtension/v1">
            <gpxtpx:hr>116</gpxtpx:hr>
          </gpxtpx:TrackPointExtension>
        </extensions>
      </trkpt>
      <trkpt lat="43.08503" lon="1.29534">
        <ele>452.6</ele>
        <time>2023-03-05T12:55:18Z</time>
        <extensions>
          <gpxtpx:TrackPointExtension xmlns:gpxtpx="http://www.garmin.com/xmlschemas/TrackPointExtension/v1">
            <gpxtpx:hr>115</gpxtpx:hr>
          </gpxtpx:TrackPointExtension>
        </extensions>
      </trkpt>
      <trkpt lat="43.08501" lon="1.29541">
        <ele>452.2</ele>
        <time>2023-03-05T12:55:19Z</time>
        <extensions>
          <gpxtpx:TrackPointExtension xmlns:gpxtpx="http://www.garmin.com/xmlschemas/TrackPointExtension/v1">
            <gpxtpx:hr>115</gpxtpx:hr>
          </gpxtpx:TrackPointExtension>
        </extensions>
      </trkpt>
      <trkpt lat="43.08499" lon="1.29547">
        <ele>451.6</ele>
        <time>2023-03-05T12:55:20Z</time>
        <extensions>
          <gpxtpx:TrackPointExtension xmlns:gpxtpx="http://www.garmin.com/xmlschemas/TrackPointExtension/v1">
            <gpxtpx:hr>115</gpxtpx:hr>
          </gpxtpx:TrackPointExtension>
        </extensions>
      </trkpt>
      <trkpt lat="43.08497" lon="1.29553">
        <ele>451.2</ele>
        <time>2023-03-05T12:55:21Z</time>
        <extensions>
          <gpxtpx:TrackPointExtension xmlns:gpxtpx="http://www.garmin.com/xmlschemas/TrackPointExtension/v1">
            <gpxtpx:hr>115</gpxtpx:hr>
          </gpxtpx:TrackPointExtension>
        </extensions>
      </trkpt>
      <trkpt lat="43.08494" lon="1.29559">
        <ele>451.2</ele>
        <time>2023-03-05T12:55:22Z</time>
        <extensions>
          <gpxtpx:TrackPointExtension xmlns:gpxtpx="http://www.garmin.com/xmlschemas/TrackPointExtension/v1">
            <gpxtpx:hr>115</gpxtpx:hr>
          </gpxtpx:TrackPointExtension>
        </extensions>
      </trkpt>
      <trkpt lat="43.08486" lon="1.29575">
        <ele>450.8</ele>
        <time>2023-03-05T12:55:25Z</time>
        <extensions>
          <gpxtpx:TrackPointExtension xmlns:gpxtpx="http://www.garmin.com/xmlschemas/TrackPointExtension/v1">
            <gpxtpx:hr>115</gpxtpx:hr>
          </gpxtpx:TrackPointExtension>
        </extensions>
      </trkpt>
      <trkpt lat="43.08484" lon="1.29581">
        <ele>449.8</ele>
        <time>2023-03-05T12:55:26Z</time>
        <extensions>
          <gpxtpx:TrackPointExtension xmlns:gpxtpx="http://www.garmin.com/xmlschemas/TrackPointExtension/v1">
            <gpxtpx:hr>115</gpxtpx:hr>
          </gpxtpx:TrackPointExtension>
        </extensions>
      </trkpt>
      <trkpt lat="43.0848" lon="1.29588">
        <ele>449.4</ele>
        <time>2023-03-05T12:55:27Z</time>
        <extensions>
          <gpxtpx:TrackPointExtension xmlns:gpxtpx="http://www.garmin.com/xmlschemas/TrackPointExtension/v1">
            <gpxtpx:hr>115</gpxtpx:hr>
          </gpxtpx:TrackPointExtension>
        </extensions>
      </trkpt>
      <trkpt lat="43.08477" lon="1.29595">
        <ele>448.8</ele>
        <time>2023-03-05T12:55:28Z</time>
        <extensions>
          <gpxtpx:TrackPointExtension xmlns:gpxtpx="http://www.garmin.com/xmlschemas/TrackPointExtension/v1">
            <gpxtpx:hr>115</gpxtpx:hr>
          </gpxtpx:TrackPointExtension>
        </extensions>
      </trkpt>
      <trkpt lat="43.08473" lon="1.29602">
        <ele>448.2</ele>
        <time>2023-03-05T12:55:29Z</time>
        <extensions>
          <gpxtpx:TrackPointExtension xmlns:gpxtpx="http://www.garmin.com/xmlschemas/TrackPointExtension/v1">
            <gpxtpx:hr>115</gpxtpx:hr>
          </gpxtpx:TrackPointExtension>
        </extensions>
      </trkpt>
      <trkpt lat="43.0847" lon="1.29609">
        <ele>447.6</ele>
        <time>2023-03-05T12:55:30Z</time>
        <extensions>
          <gpxtpx:TrackPointExtension xmlns:gpxtpx="http://www.garmin.com/xmlschemas/TrackPointExtension/v1">
            <gpxtpx:hr>115</gpxtpx:hr>
          </gpxtpx:TrackPointExtension>
        </extensions>
      </trkpt>
      <trkpt lat="43.08466" lon="1.29616">
        <ele>447.2</ele>
        <time>2023-03-05T12:55:31Z</time>
        <extensions>
          <gpxtpx:TrackPointExtension xmlns:gpxtpx="http://www.garmin.com/xmlschemas/TrackPointExtension/v1">
            <gpxtpx:hr>115</gpxtpx:hr>
          </gpxtpx:TrackPointExtension>
        </extensions>
      </trkpt>
      <trkpt lat="43.08463" lon="1.29624">
        <ele>446.6</ele>
        <time>2023-03-05T12:55:32Z</time>
        <extensions>
          <gpxtpx:TrackPointExtension xmlns:gpxtpx="http://www.garmin.com/xmlschemas/TrackPointExtension/v1">
            <gpxtpx:hr>115</gpxtpx:hr>
          </gpxtpx:TrackPointExtension>
        </extensions>
      </trkpt>
      <trkpt lat="43.08459" lon="1.29632">
        <ele>446</ele>
        <time>2023-03-05T12:55:33Z</time>
        <extensions>
          <gpxtpx:TrackPointExtension xmlns:gpxtpx="http://www.garmin.com/xmlschemas/TrackPointExtension/v1">
            <gpxtpx:hr>114</gpxtpx:hr>
          </gpxtpx:TrackPointExtension>
        </extensions>
      </trkpt>
      <trkpt lat="43.08456" lon="1.2964">
        <ele>445.6</ele>
        <time>2023-03-05T12:55:34Z</time>
        <extensions>
          <gpxtpx:TrackPointExtension xmlns:gpxtpx="http://www.garmin.com/xmlschemas/TrackPointExtension/v1">
            <gpxtpx:hr>114</gpxtpx:hr>
          </gpxtpx:TrackPointExtension>
        </extensions>
      </trkpt>
      <trkpt lat="43.08453" lon="1.29648">
        <ele>445</ele>
        <time>2023-03-05T12:55:35Z</time>
        <extensions>
          <gpxtpx:TrackPointExtension xmlns:gpxtpx="http://www.garmin.com/xmlschemas/TrackPointExtension/v1">
            <gpxtpx:hr>114</gpxtpx:hr>
          </gpxtpx:TrackPointExtension>
        </extensions>
      </trkpt>
      <trkpt lat="43.0845" lon="1.29655">
        <ele>444.6</ele>
        <time>2023-03-05T12:55:36Z</time>
        <extensions>
          <gpxtpx:TrackPointExtension xmlns:gpxtpx="http://www.garmin.com/xmlschemas/TrackPointExtension/v1">
            <gpxtpx:hr>113</gpxtpx:hr>
          </gpxtpx:TrackPointExtension>
        </extensions>
      </trkpt>
      <trkpt lat="43.08447" lon="1.29663">
        <ele>444</ele>
        <time>2023-03-05T12:55:37Z</time>
        <extensions>
          <gpxtpx:TrackPointExtension xmlns:gpxtpx="http://www.garmin.com/xmlschemas/TrackPointExtension/v1">
            <gpxtpx:hr>112</gpxtpx:hr>
          </gpxtpx:TrackPointExtension>
        </extensions>
      </trkpt>
      <trkpt lat="43.0844" lon="1.29676">
        <ele>443.6</ele>
        <time>2023-03-05T12:55:39Z</time>
        <extensions>
          <gpxtpx:TrackPointExtension xmlns:gpxtpx="http://www.garmin.com/xmlschemas/TrackPointExtension/v1">
            <gpxtpx:hr>110</gpxtpx:hr>
          </gpxtpx:TrackPointExtension>
        </extensions>
      </trkpt>
      <trkpt lat="43.08437" lon="1.29684">
        <ele>443.2</ele>
        <time>2023-03-05T12:55:40Z</time>
        <extensions>
          <gpxtpx:TrackPointExtension xmlns:gpxtpx="http://www.garmin.com/xmlschemas/TrackPointExtension/v1">
            <gpxtpx:hr>109</gpxtpx:hr>
          </gpxtpx:TrackPointExtension>
        </extensions>
      </trkpt>
      <trkpt lat="43.08434" lon="1.29691">
        <ele>442.8</ele>
        <time>2023-03-05T12:55:41Z</time>
        <extensions>
          <gpxtpx:TrackPointExtension xmlns:gpxtpx="http://www.garmin.com/xmlschemas/TrackPointExtension/v1">
            <gpxtpx:hr>109</gpxtpx:hr>
          </gpxtpx:TrackPointExtension>
        </extensions>
      </trkpt>
      <trkpt lat="43.08431" lon="1.29697">
        <ele>442.4</ele>
        <time>2023-03-05T12:55:42Z</time>
        <extensions>
          <gpxtpx:TrackPointExtension xmlns:gpxtpx="http://www.garmin.com/xmlschemas/TrackPointExtension/v1">
            <gpxtpx:hr>109</gpxtpx:hr>
          </gpxtpx:TrackPointExtension>
        </extensions>
      </trkpt>
      <trkpt lat="43.08429" lon="1.29703">
        <ele>442</ele>
        <time>2023-03-05T12:55:43Z</time>
        <extensions>
          <gpxtpx:TrackPointExtension xmlns:gpxtpx="http://www.garmin.com/xmlschemas/TrackPointExtension/v1">
            <gpxtpx:hr>108</gpxtpx:hr>
          </gpxtpx:TrackPointExtension>
        </extensions>
      </trkpt>
      <trkpt lat="43.08427" lon="1.29708">
        <ele>442</ele>
        <time>2023-03-05T12:55:44Z</time>
        <extensions>
          <gpxtpx:TrackPointExtension xmlns:gpxtpx="http://www.garmin.com/xmlschemas/TrackPointExtension/v1">
            <gpxtpx:hr>108</gpxtpx:hr>
          </gpxtpx:TrackPointExtension>
        </extensions>
      </trkpt>
      <trkpt lat="43.08415" lon="1.29734">
        <ele>442</ele>
        <time>2023-03-05T12:55:50Z</time>
        <extensions>
          <gpxtpx:TrackPointExtension xmlns:gpxtpx="http://www.garmin.com/xmlschemas/TrackPointExtension/v1">
            <gpxtpx:hr>108</gpxtpx:hr>
          </gpxtpx:TrackPointExtension>
        </extensions>
      </trkpt>
      <trkpt lat="43.08407" lon="1.29751">
        <ele>442</ele>
        <time>2023-03-05T12:55:55Z</time>
        <extensions>
          <gpxtpx:TrackPointExtension xmlns:gpxtpx="http://www.garmin.com/xmlschemas/TrackPointExtension/v1">
            <gpxtpx:hr>108</gpxtpx:hr>
          </gpxtpx:TrackPointExtension>
        </extensions>
      </trkpt>
      <trkpt lat="43.08398" lon="1.29771">
        <ele>442</ele>
        <time>2023-03-05T12:56:00Z</time>
        <extensions>
          <gpxtpx:TrackPointExtension xmlns:gpxtpx="http://www.garmin.com/xmlschemas/TrackPointExtension/v1">
            <gpxtpx:hr>108</gpxtpx:hr>
          </gpxtpx:TrackPointExtension>
        </extensions>
      </trkpt>
      <trkpt lat="43.0839" lon="1.29792">
        <ele>442</ele>
        <time>2023-03-05T12:56:05Z</time>
        <extensions>
          <gpxtpx:TrackPointExtension xmlns:gpxtpx="http://www.garmin.com/xmlschemas/TrackPointExtension/v1">
            <gpxtpx:hr>102</gpxtpx:hr>
          </gpxtpx:TrackPointExtension>
        </extensions>
      </trkpt>
      <trkpt lat="43.08387" lon="1.29796">
        <ele>442</ele>
        <time>2023-03-05T12:56:06Z</time>
        <extensions>
          <gpxtpx:TrackPointExtension xmlns:gpxtpx="http://www.garmin.com/xmlschemas/TrackPointExtension/v1">
            <gpxtpx:hr>102</gpxtpx:hr>
          </gpxtpx:TrackPointExtension>
        </extensions>
      </trkpt>
      <trkpt lat="43.08385" lon="1.29799">
        <ele>442</ele>
        <time>2023-03-05T12:56:07Z</time>
        <extensions>
          <gpxtpx:TrackPointExtension xmlns:gpxtpx="http://www.garmin.com/xmlschemas/TrackPointExtension/v1">
            <gpxtpx:hr>102</gpxtpx:hr>
          </gpxtpx:TrackPointExtension>
        </extensions>
      </trkpt>
      <trkpt lat="43.08373" lon="1.29827">
        <ele>442</ele>
        <time>2023-03-05T12:56:14Z</time>
        <extensions>
          <gpxtpx:TrackPointExtension xmlns:gpxtpx="http://www.garmin.com/xmlschemas/TrackPointExtension/v1">
            <gpxtpx:hr>103</gpxtpx:hr>
          </gpxtpx:TrackPointExtension>
        </extensions>
      </trkpt>
      <trkpt lat="43.0837" lon="1.29835">
        <ele>442</ele>
        <time>2023-03-05T12:56:16Z</time>
        <extensions>
          <gpxtpx:TrackPointExtension xmlns:gpxtpx="http://www.garmin.com/xmlschemas/TrackPointExtension/v1">
            <gpxtpx:hr>106</gpxtpx:hr>
          </gpxtpx:TrackPointExtension>
        </extensions>
      </trkpt>
      <trkpt lat="43.08362" lon="1.29849">
        <ele>442</ele>
        <time>2023-03-05T12:56:20Z</time>
        <extensions>
          <gpxtpx:TrackPointExtension xmlns:gpxtpx="http://www.garmin.com/xmlschemas/TrackPointExtension/v1">
            <gpxtpx:hr>109</gpxtpx:hr>
          </gpxtpx:TrackPointExtension>
        </extensions>
      </trkpt>
      <trkpt lat="43.08359" lon="1.29856">
        <ele>442</ele>
        <time>2023-03-05T12:56:22Z</time>
        <extensions>
          <gpxtpx:TrackPointExtension xmlns:gpxtpx="http://www.garmin.com/xmlschemas/TrackPointExtension/v1">
            <gpxtpx:hr>111</gpxtpx:hr>
          </gpxtpx:TrackPointExtension>
        </extensions>
      </trkpt>
      <trkpt lat="43.08351" lon="1.29879">
        <ele>442.4</ele>
        <time>2023-03-05T12:56:28Z</time>
        <extensions>
          <gpxtpx:TrackPointExtension xmlns:gpxtpx="http://www.garmin.com/xmlschemas/TrackPointExtension/v1">
            <gpxtpx:hr>113</gpxtpx:hr>
          </gpxtpx:TrackPointExtension>
        </extensions>
      </trkpt>
      <trkpt lat="43.08349" lon="1.29882">
        <ele>442.8</ele>
        <time>2023-03-05T12:56:29Z</time>
        <extensions>
          <gpxtpx:TrackPointExtension xmlns:gpxtpx="http://www.garmin.com/xmlschemas/TrackPointExtension/v1">
            <gpxtpx:hr>114</gpxtpx:hr>
          </gpxtpx:TrackPointExtension>
        </extensions>
      </trkpt>
      <trkpt lat="43.08348" lon="1.29885">
        <ele>443.2</ele>
        <time>2023-03-05T12:56:30Z</time>
        <extensions>
          <gpxtpx:TrackPointExtension xmlns:gpxtpx="http://www.garmin.com/xmlschemas/TrackPointExtension/v1">
            <gpxtpx:hr>115</gpxtpx:hr>
          </gpxtpx:TrackPointExtension>
        </extensions>
      </trkpt>
      <trkpt lat="43.08346" lon="1.2989">
        <ele>443.6</ele>
        <time>2023-03-05T12:56:31Z</time>
        <extensions>
          <gpxtpx:TrackPointExtension xmlns:gpxtpx="http://www.garmin.com/xmlschemas/TrackPointExtension/v1">
            <gpxtpx:hr>115</gpxtpx:hr>
          </gpxtpx:TrackPointExtension>
        </extensions>
      </trkpt>
      <trkpt lat="43.08344" lon="1.29895">
        <ele>444.2</ele>
        <time>2023-03-05T12:56:32Z</time>
        <extensions>
          <gpxtpx:TrackPointExtension xmlns:gpxtpx="http://www.garmin.com/xmlschemas/TrackPointExtension/v1">
            <gpxtpx:hr>116</gpxtpx:hr>
          </gpxtpx:TrackPointExtension>
        </extensions>
      </trkpt>
      <trkpt lat="43.08342" lon="1.29901">
        <ele>444.2</ele>
        <time>2023-03-05T12:56:33Z</time>
        <extensions>
          <gpxtpx:TrackPointExtension xmlns:gpxtpx="http://www.garmin.com/xmlschemas/TrackPointExtension/v1">
            <gpxtpx:hr>116</gpxtpx:hr>
          </gpxtpx:TrackPointExtension>
        </extensions>
      </trkpt>
      <trkpt lat="43.08322" lon="1.29942">
        <ele>444.2</ele>
        <time>2023-03-05T12:56:40Z</time>
        <extensions>
          <gpxtpx:TrackPointExtension xmlns:gpxtpx="http://www.garmin.com/xmlschemas/TrackPointExtension/v1">
            <gpxtpx:hr>116</gpxtpx:hr>
          </gpxtpx:TrackPointExtension>
        </extensions>
      </trkpt>
      <trkpt lat="43.08307" lon="1.29977">
        <ele>444.2</ele>
        <time>2023-03-05T12:56:46Z</time>
        <extensions>
          <gpxtpx:TrackPointExtension xmlns:gpxtpx="http://www.garmin.com/xmlschemas/TrackPointExtension/v1">
            <gpxtpx:hr>117</gpxtpx:hr>
          </gpxtpx:TrackPointExtension>
        </extensions>
      </trkpt>
      <trkpt lat="43.08295" lon="1.29999">
        <ele>444.2</ele>
        <time>2023-03-05T12:56:50Z</time>
        <extensions>
          <gpxtpx:TrackPointExtension xmlns:gpxtpx="http://www.garmin.com/xmlschemas/TrackPointExtension/v1">
            <gpxtpx:hr>117</gpxtpx:hr>
          </gpxtpx:TrackPointExtension>
        </extensions>
      </trkpt>
      <trkpt lat="43.08293" lon="1.30005">
        <ele>444.2</ele>
        <time>2023-03-05T12:56:51Z</time>
        <extensions>
          <gpxtpx:TrackPointExtension xmlns:gpxtpx="http://www.garmin.com/xmlschemas/TrackPointExtension/v1">
            <gpxtpx:hr>118</gpxtpx:hr>
          </gpxtpx:TrackPointExtension>
        </extensions>
      </trkpt>
      <trkpt lat="43.08284" lon="1.30029">
        <ele>444.2</ele>
        <time>2023-03-05T12:56:55Z</time>
        <extensions>
          <gpxtpx:TrackPointExtension xmlns:gpxtpx="http://www.garmin.com/xmlschemas/TrackPointExtension/v1">
            <gpxtpx:hr>121</gpxtpx:hr>
          </gpxtpx:TrackPointExtension>
        </extensions>
      </trkpt>
      <trkpt lat="43.08279" lon="1.30042">
        <ele>443.6</ele>
        <time>2023-03-05T12:56:57Z</time>
        <extensions>
          <gpxtpx:TrackPointExtension xmlns:gpxtpx="http://www.garmin.com/xmlschemas/TrackPointExtension/v1">
            <gpxtpx:hr>121</gpxtpx:hr>
          </gpxtpx:TrackPointExtension>
        </extensions>
      </trkpt>
      <trkpt lat="43.08277" lon="1.30048">
        <ele>443.2</ele>
        <time>2023-03-05T12:56:58Z</time>
        <extensions>
          <gpxtpx:TrackPointExtension xmlns:gpxtpx="http://www.garmin.com/xmlschemas/TrackPointExtension/v1">
            <gpxtpx:hr>121</gpxtpx:hr>
          </gpxtpx:TrackPointExtension>
        </extensions>
      </trkpt>
      <trkpt lat="43.08274" lon="1.30054">
        <ele>442.8</ele>
        <time>2023-03-05T12:56:59Z</time>
        <extensions>
          <gpxtpx:TrackPointExtension xmlns:gpxtpx="http://www.garmin.com/xmlschemas/TrackPointExtension/v1">
            <gpxtpx:hr>121</gpxtpx:hr>
          </gpxtpx:TrackPointExtension>
        </extensions>
      </trkpt>
      <trkpt lat="43.08271" lon="1.30061">
        <ele>442.4</ele>
        <time>2023-03-05T12:57:00Z</time>
        <extensions>
          <gpxtpx:TrackPointExtension xmlns:gpxtpx="http://www.garmin.com/xmlschemas/TrackPointExtension/v1">
            <gpxtpx:hr>121</gpxtpx:hr>
          </gpxtpx:TrackPointExtension>
        </extensions>
      </trkpt>
      <trkpt lat="43.08268" lon="1.30067">
        <ele>442</ele>
        <time>2023-03-05T12:57:01Z</time>
        <extensions>
          <gpxtpx:TrackPointExtension xmlns:gpxtpx="http://www.garmin.com/xmlschemas/TrackPointExtension/v1">
            <gpxtpx:hr>120</gpxtpx:hr>
          </gpxtpx:TrackPointExtension>
        </extensions>
      </trkpt>
      <trkpt lat="43.08266" lon="1.30073">
        <ele>442</ele>
        <time>2023-03-05T12:57:02Z</time>
        <extensions>
          <gpxtpx:TrackPointExtension xmlns:gpxtpx="http://www.garmin.com/xmlschemas/TrackPointExtension/v1">
            <gpxtpx:hr>120</gpxtpx:hr>
          </gpxtpx:TrackPointExtension>
        </extensions>
      </trkpt>
      <trkpt lat="43.08264" lon="1.3008">
        <ele>442</ele>
        <time>2023-03-05T12:57:03Z</time>
        <extensions>
          <gpxtpx:TrackPointExtension xmlns:gpxtpx="http://www.garmin.com/xmlschemas/TrackPointExtension/v1">
            <gpxtpx:hr>119</gpxtpx:hr>
          </gpxtpx:TrackPointExtension>
        </extensions>
      </trkpt>
      <trkpt lat="43.08258" lon="1.30099">
        <ele>442</ele>
        <time>2023-03-05T12:57:06Z</time>
        <extensions>
          <gpxtpx:TrackPointExtension xmlns:gpxtpx="http://www.garmin.com/xmlschemas/TrackPointExtension/v1">
            <gpxtpx:hr>119</gpxtpx:hr>
          </gpxtpx:TrackPointExtension>
        </extensions>
      </trkpt>
      <trkpt lat="43.08256" lon="1.30112">
        <ele>442</ele>
        <time>2023-03-05T12:57:08Z</time>
        <extensions>
          <gpxtpx:TrackPointExtension xmlns:gpxtpx="http://www.garmin.com/xmlschemas/TrackPointExtension/v1">
            <gpxtpx:hr>119</gpxtpx:hr>
          </gpxtpx:TrackPointExtension>
        </extensions>
      </trkpt>
      <trkpt lat="43.08254" lon="1.30119">
        <ele>441.6</ele>
        <time>2023-03-05T12:57:09Z</time>
        <extensions>
          <gpxtpx:TrackPointExtension xmlns:gpxtpx="http://www.garmin.com/xmlschemas/TrackPointExtension/v1">
            <gpxtpx:hr>119</gpxtpx:hr>
          </gpxtpx:TrackPointExtension>
        </extensions>
      </trkpt>
      <trkpt lat="43.08253" lon="1.30126">
        <ele>441.2</ele>
        <time>2023-03-05T12:57:10Z</time>
        <extensions>
          <gpxtpx:TrackPointExtension xmlns:gpxtpx="http://www.garmin.com/xmlschemas/TrackPointExtension/v1">
            <gpxtpx:hr>119</gpxtpx:hr>
          </gpxtpx:TrackPointExtension>
        </extensions>
      </trkpt>
      <trkpt lat="43.0825" lon="1.30132">
        <ele>440.8</ele>
        <time>2023-03-05T12:57:11Z</time>
        <extensions>
          <gpxtpx:TrackPointExtension xmlns:gpxtpx="http://www.garmin.com/xmlschemas/TrackPointExtension/v1">
            <gpxtpx:hr>119</gpxtpx:hr>
          </gpxtpx:TrackPointExtension>
        </extensions>
      </trkpt>
      <trkpt lat="43.08249" lon="1.30139">
        <ele>440.4</ele>
        <time>2023-03-05T12:57:12Z</time>
        <extensions>
          <gpxtpx:TrackPointExtension xmlns:gpxtpx="http://www.garmin.com/xmlschemas/TrackPointExtension/v1">
            <gpxtpx:hr>119</gpxtpx:hr>
          </gpxtpx:TrackPointExtension>
        </extensions>
      </trkpt>
      <trkpt lat="43.08247" lon="1.30147">
        <ele>440</ele>
        <time>2023-03-05T12:57:13Z</time>
        <extensions>
          <gpxtpx:TrackPointExtension xmlns:gpxtpx="http://www.garmin.com/xmlschemas/TrackPointExtension/v1">
            <gpxtpx:hr>116</gpxtpx:hr>
          </gpxtpx:TrackPointExtension>
        </extensions>
      </trkpt>
      <trkpt lat="43.08246" lon="1.30154">
        <ele>440</ele>
        <time>2023-03-05T12:57:14Z</time>
        <extensions>
          <gpxtpx:TrackPointExtension xmlns:gpxtpx="http://www.garmin.com/xmlschemas/TrackPointExtension/v1">
            <gpxtpx:hr>115</gpxtpx:hr>
          </gpxtpx:TrackPointExtension>
        </extensions>
      </trkpt>
      <trkpt lat="43.08245" lon="1.30177">
        <ele>439.4</ele>
        <time>2023-03-05T12:57:17Z</time>
        <extensions>
          <gpxtpx:TrackPointExtension xmlns:gpxtpx="http://www.garmin.com/xmlschemas/TrackPointExtension/v1">
            <gpxtpx:hr>113</gpxtpx:hr>
          </gpxtpx:TrackPointExtension>
        </extensions>
      </trkpt>
      <trkpt lat="43.08244" lon="1.3018">
        <ele>439</ele>
        <time>2023-03-05T12:57:18Z</time>
        <extensions>
          <gpxtpx:TrackPointExtension xmlns:gpxtpx="http://www.garmin.com/xmlschemas/TrackPointExtension/v1">
            <gpxtpx:hr>113</gpxtpx:hr>
          </gpxtpx:TrackPointExtension>
        </extensions>
      </trkpt>
      <trkpt lat="43.08244" lon="1.30182">
        <ele>438.6</ele>
        <time>2023-03-05T12:57:19Z</time>
        <extensions>
          <gpxtpx:TrackPointExtension xmlns:gpxtpx="http://www.garmin.com/xmlschemas/TrackPointExtension/v1">
            <gpxtpx:hr>110</gpxtpx:hr>
          </gpxtpx:TrackPointExtension>
        </extensions>
      </trkpt>
      <trkpt lat="43.08244" lon="1.30181">
        <ele>438.2</ele>
        <time>2023-03-05T12:57:20Z</time>
        <extensions>
          <gpxtpx:TrackPointExtension xmlns:gpxtpx="http://www.garmin.com/xmlschemas/TrackPointExtension/v1">
            <gpxtpx:hr>110</gpxtpx:hr>
          </gpxtpx:TrackPointExtension>
        </extensions>
      </trkpt>
      <trkpt lat="43.08243" lon="1.30187">
        <ele>437.6</ele>
        <time>2023-03-05T12:57:50Z</time>
        <extensions>
          <gpxtpx:TrackPointExtension xmlns:gpxtpx="http://www.garmin.com/xmlschemas/TrackPointExtension/v1">
            <gpxtpx:hr>109</gpxtpx:hr>
          </gpxtpx:TrackPointExtension>
        </extensions>
      </trkpt>
      <trkpt lat="43.08244" lon="1.3019">
        <ele>437.6</ele>
        <time>2023-03-05T12:57:51Z</time>
        <extensions>
          <gpxtpx:TrackPointExtension xmlns:gpxtpx="http://www.garmin.com/xmlschemas/TrackPointExtension/v1">
            <gpxtpx:hr>111</gpxtpx:hr>
          </gpxtpx:TrackPointExtension>
        </extensions>
      </trkpt>
      <trkpt lat="43.08242" lon="1.30203">
        <ele>437.2</ele>
        <time>2023-03-05T12:57:54Z</time>
        <extensions>
          <gpxtpx:TrackPointExtension xmlns:gpxtpx="http://www.garmin.com/xmlschemas/TrackPointExtension/v1">
            <gpxtpx:hr>112</gpxtpx:hr>
          </gpxtpx:TrackPointExtension>
        </extensions>
      </trkpt>
      <trkpt lat="43.0824" lon="1.30208">
        <ele>436.4</ele>
        <time>2023-03-05T12:57:55Z</time>
        <extensions>
          <gpxtpx:TrackPointExtension xmlns:gpxtpx="http://www.garmin.com/xmlschemas/TrackPointExtension/v1">
            <gpxtpx:hr>112</gpxtpx:hr>
          </gpxtpx:TrackPointExtension>
        </extensions>
      </trkpt>
      <trkpt lat="43.08238" lon="1.30214">
        <ele>436</ele>
        <time>2023-03-05T12:57:56Z</time>
        <extensions>
          <gpxtpx:TrackPointExtension xmlns:gpxtpx="http://www.garmin.com/xmlschemas/TrackPointExtension/v1">
            <gpxtpx:hr>111</gpxtpx:hr>
          </gpxtpx:TrackPointExtension>
        </extensions>
      </trkpt>
      <trkpt lat="43.08236" lon="1.30221">
        <ele>435.6</ele>
        <time>2023-03-05T12:57:57Z</time>
        <extensions>
          <gpxtpx:TrackPointExtension xmlns:gpxtpx="http://www.garmin.com/xmlschemas/TrackPointExtension/v1">
            <gpxtpx:hr>111</gpxtpx:hr>
          </gpxtpx:TrackPointExtension>
        </extensions>
      </trkpt>
      <trkpt lat="43.08234" lon="1.30228">
        <ele>435</ele>
        <time>2023-03-05T12:57:58Z</time>
        <extensions>
          <gpxtpx:TrackPointExtension xmlns:gpxtpx="http://www.garmin.com/xmlschemas/TrackPointExtension/v1">
            <gpxtpx:hr>111</gpxtpx:hr>
          </gpxtpx:TrackPointExtension>
        </extensions>
      </trkpt>
      <trkpt lat="43.08231" lon="1.30235">
        <ele>434.6</ele>
        <time>2023-03-05T12:57:59Z</time>
        <extensions>
          <gpxtpx:TrackPointExtension xmlns:gpxtpx="http://www.garmin.com/xmlschemas/TrackPointExtension/v1">
            <gpxtpx:hr>110</gpxtpx:hr>
          </gpxtpx:TrackPointExtension>
        </extensions>
      </trkpt>
      <trkpt lat="43.08227" lon="1.30242">
        <ele>434.2</ele>
        <time>2023-03-05T12:58:00Z</time>
        <extensions>
          <gpxtpx:TrackPointExtension xmlns:gpxtpx="http://www.garmin.com/xmlschemas/TrackPointExtension/v1">
            <gpxtpx:hr>110</gpxtpx:hr>
          </gpxtpx:TrackPointExtension>
        </extensions>
      </trkpt>
      <trkpt lat="43.08225" lon="1.3025">
        <ele>433.8</ele>
        <time>2023-03-05T12:58:01Z</time>
        <extensions>
          <gpxtpx:TrackPointExtension xmlns:gpxtpx="http://www.garmin.com/xmlschemas/TrackPointExtension/v1">
            <gpxtpx:hr>110</gpxtpx:hr>
          </gpxtpx:TrackPointExtension>
        </extensions>
      </trkpt>
      <trkpt lat="43.08223" lon="1.30258">
        <ele>433.2</ele>
        <time>2023-03-05T12:58:02Z</time>
        <extensions>
          <gpxtpx:TrackPointExtension xmlns:gpxtpx="http://www.garmin.com/xmlschemas/TrackPointExtension/v1">
            <gpxtpx:hr>109</gpxtpx:hr>
          </gpxtpx:TrackPointExtension>
        </extensions>
      </trkpt>
      <trkpt lat="43.0822" lon="1.30266">
        <ele>432.8</ele>
        <time>2023-03-05T12:58:03Z</time>
        <extensions>
          <gpxtpx:TrackPointExtension xmlns:gpxtpx="http://www.garmin.com/xmlschemas/TrackPointExtension/v1">
            <gpxtpx:hr>108</gpxtpx:hr>
          </gpxtpx:TrackPointExtension>
        </extensions>
      </trkpt>
      <trkpt lat="43.08218" lon="1.30274">
        <ele>432.2</ele>
        <time>2023-03-05T12:58:04Z</time>
        <extensions>
          <gpxtpx:TrackPointExtension xmlns:gpxtpx="http://www.garmin.com/xmlschemas/TrackPointExtension/v1">
            <gpxtpx:hr>108</gpxtpx:hr>
          </gpxtpx:TrackPointExtension>
        </extensions>
      </trkpt>
      <trkpt lat="43.08216" lon="1.30281">
        <ele>431.6</ele>
        <time>2023-03-05T12:58:05Z</time>
        <extensions>
          <gpxtpx:TrackPointExtension xmlns:gpxtpx="http://www.garmin.com/xmlschemas/TrackPointExtension/v1">
            <gpxtpx:hr>108</gpxtpx:hr>
          </gpxtpx:TrackPointExtension>
        </extensions>
      </trkpt>
      <trkpt lat="43.08214" lon="1.30287">
        <ele>431</ele>
        <time>2023-03-05T12:58:06Z</time>
        <extensions>
          <gpxtpx:TrackPointExtension xmlns:gpxtpx="http://www.garmin.com/xmlschemas/TrackPointExtension/v1">
            <gpxtpx:hr>108</gpxtpx:hr>
          </gpxtpx:TrackPointExtension>
        </extensions>
      </trkpt>
      <trkpt lat="43.08212" lon="1.30294">
        <ele>430.4</ele>
        <time>2023-03-05T12:58:07Z</time>
        <extensions>
          <gpxtpx:TrackPointExtension xmlns:gpxtpx="http://www.garmin.com/xmlschemas/TrackPointExtension/v1">
            <gpxtpx:hr>108</gpxtpx:hr>
          </gpxtpx:TrackPointExtension>
        </extensions>
      </trkpt>
      <trkpt lat="43.0821" lon="1.30301">
        <ele>429.6</ele>
        <time>2023-03-05T12:58:08Z</time>
        <extensions>
          <gpxtpx:TrackPointExtension xmlns:gpxtpx="http://www.garmin.com/xmlschemas/TrackPointExtension/v1">
            <gpxtpx:hr>108</gpxtpx:hr>
          </gpxtpx:TrackPointExtension>
        </extensions>
      </trkpt>
      <trkpt lat="43.08208" lon="1.30308">
        <ele>429</ele>
        <time>2023-03-05T12:58:09Z</time>
        <extensions>
          <gpxtpx:TrackPointExtension xmlns:gpxtpx="http://www.garmin.com/xmlschemas/TrackPointExtension/v1">
            <gpxtpx:hr>108</gpxtpx:hr>
          </gpxtpx:TrackPointExtension>
        </extensions>
      </trkpt>
      <trkpt lat="43.08207" lon="1.30315">
        <ele>428.6</ele>
        <time>2023-03-05T12:58:10Z</time>
        <extensions>
          <gpxtpx:TrackPointExtension xmlns:gpxtpx="http://www.garmin.com/xmlschemas/TrackPointExtension/v1">
            <gpxtpx:hr>108</gpxtpx:hr>
          </gpxtpx:TrackPointExtension>
        </extensions>
      </trkpt>
      <trkpt lat="43.08205" lon="1.30322">
        <ele>428.2</ele>
        <time>2023-03-05T12:58:11Z</time>
        <extensions>
          <gpxtpx:TrackPointExtension xmlns:gpxtpx="http://www.garmin.com/xmlschemas/TrackPointExtension/v1">
            <gpxtpx:hr>108</gpxtpx:hr>
          </gpxtpx:TrackPointExtension>
        </extensions>
      </trkpt>
      <trkpt lat="43.08204" lon="1.30329">
        <ele>427.8</ele>
        <time>2023-03-05T12:58:12Z</time>
        <extensions>
          <gpxtpx:TrackPointExtension xmlns:gpxtpx="http://www.garmin.com/xmlschemas/TrackPointExtension/v1">
            <gpxtpx:hr>108</gpxtpx:hr>
          </gpxtpx:TrackPointExtension>
        </extensions>
      </trkpt>
      <trkpt lat="43.08202" lon="1.30335">
        <ele>427.4</ele>
        <time>2023-03-05T12:58:13Z</time>
        <extensions>
          <gpxtpx:TrackPointExtension xmlns:gpxtpx="http://www.garmin.com/xmlschemas/TrackPointExtension/v1">
            <gpxtpx:hr>108</gpxtpx:hr>
          </gpxtpx:TrackPointExtension>
        </extensions>
      </trkpt>
      <trkpt lat="43.08201" lon="1.30339">
        <ele>427</ele>
        <time>2023-03-05T12:58:14Z</time>
        <extensions>
          <gpxtpx:TrackPointExtension xmlns:gpxtpx="http://www.garmin.com/xmlschemas/TrackPointExtension/v1">
            <gpxtpx:hr>108</gpxtpx:hr>
          </gpxtpx:TrackPointExtension>
        </extensions>
      </trkpt>
      <trkpt lat="43.08199" lon="1.30351">
        <ele>426.6</ele>
        <time>2023-03-05T12:58:16Z</time>
        <extensions>
          <gpxtpx:TrackPointExtension xmlns:gpxtpx="http://www.garmin.com/xmlschemas/TrackPointExtension/v1">
            <gpxtpx:hr>108</gpxtpx:hr>
          </gpxtpx:TrackPointExtension>
        </extensions>
      </trkpt>
      <trkpt lat="43.08198" lon="1.30357">
        <ele>426</ele>
        <time>2023-03-05T12:58:17Z</time>
        <extensions>
          <gpxtpx:TrackPointExtension xmlns:gpxtpx="http://www.garmin.com/xmlschemas/TrackPointExtension/v1">
            <gpxtpx:hr>108</gpxtpx:hr>
          </gpxtpx:TrackPointExtension>
        </extensions>
      </trkpt>
      <trkpt lat="43.08198" lon="1.30363">
        <ele>425.6</ele>
        <time>2023-03-05T12:58:18Z</time>
        <extensions>
          <gpxtpx:TrackPointExtension xmlns:gpxtpx="http://www.garmin.com/xmlschemas/TrackPointExtension/v1">
            <gpxtpx:hr>108</gpxtpx:hr>
          </gpxtpx:TrackPointExtension>
        </extensions>
      </trkpt>
      <trkpt lat="43.08198" lon="1.3037">
        <ele>424.8</ele>
        <time>2023-03-05T12:58:19Z</time>
        <extensions>
          <gpxtpx:TrackPointExtension xmlns:gpxtpx="http://www.garmin.com/xmlschemas/TrackPointExtension/v1">
            <gpxtpx:hr>108</gpxtpx:hr>
          </gpxtpx:TrackPointExtension>
        </extensions>
      </trkpt>
      <trkpt lat="43.08196" lon="1.30379">
        <ele>424.2</ele>
        <time>2023-03-05T12:58:21Z</time>
        <extensions>
          <gpxtpx:TrackPointExtension xmlns:gpxtpx="http://www.garmin.com/xmlschemas/TrackPointExtension/v1">
            <gpxtpx:hr>109</gpxtpx:hr>
          </gpxtpx:TrackPointExtension>
        </extensions>
      </trkpt>
      <trkpt lat="43.08196" lon="1.30384">
        <ele>423.8</ele>
        <time>2023-03-05T12:58:22Z</time>
        <extensions>
          <gpxtpx:TrackPointExtension xmlns:gpxtpx="http://www.garmin.com/xmlschemas/TrackPointExtension/v1">
            <gpxtpx:hr>108</gpxtpx:hr>
          </gpxtpx:TrackPointExtension>
        </extensions>
      </trkpt>
      <trkpt lat="43.08194" lon="1.30389">
        <ele>423.4</ele>
        <time>2023-03-05T12:58:23Z</time>
        <extensions>
          <gpxtpx:TrackPointExtension xmlns:gpxtpx="http://www.garmin.com/xmlschemas/TrackPointExtension/v1">
            <gpxtpx:hr>108</gpxtpx:hr>
          </gpxtpx:TrackPointExtension>
        </extensions>
      </trkpt>
      <trkpt lat="43.08194" lon="1.30394">
        <ele>423</ele>
        <time>2023-03-05T12:58:24Z</time>
        <extensions>
          <gpxtpx:TrackPointExtension xmlns:gpxtpx="http://www.garmin.com/xmlschemas/TrackPointExtension/v1">
            <gpxtpx:hr>108</gpxtpx:hr>
          </gpxtpx:TrackPointExtension>
        </extensions>
      </trkpt>
      <trkpt lat="43.08193" lon="1.30399">
        <ele>422.6</ele>
        <time>2023-03-05T12:58:25Z</time>
        <extensions>
          <gpxtpx:TrackPointExtension xmlns:gpxtpx="http://www.garmin.com/xmlschemas/TrackPointExtension/v1">
            <gpxtpx:hr>107</gpxtpx:hr>
          </gpxtpx:TrackPointExtension>
        </extensions>
      </trkpt>
      <trkpt lat="43.08191" lon="1.30409">
        <ele>422</ele>
        <time>2023-03-05T12:58:28Z</time>
        <extensions>
          <gpxtpx:TrackPointExtension xmlns:gpxtpx="http://www.garmin.com/xmlschemas/TrackPointExtension/v1">
            <gpxtpx:hr>107</gpxtpx:hr>
          </gpxtpx:TrackPointExtension>
        </extensions>
      </trkpt>
      <trkpt lat="43.08191" lon="1.3041">
        <ele>421.6</ele>
        <time>2023-03-05T12:58:29Z</time>
        <extensions>
          <gpxtpx:TrackPointExtension xmlns:gpxtpx="http://www.garmin.com/xmlschemas/TrackPointExtension/v1">
            <gpxtpx:hr>107</gpxtpx:hr>
          </gpxtpx:TrackPointExtension>
        </extensions>
      </trkpt>
      <trkpt lat="43.08191" lon="1.30411">
        <ele>421</ele>
        <time>2023-03-05T12:58:30Z</time>
        <extensions>
          <gpxtpx:TrackPointExtension xmlns:gpxtpx="http://www.garmin.com/xmlschemas/TrackPointExtension/v1">
            <gpxtpx:hr>106</gpxtpx:hr>
          </gpxtpx:TrackPointExtension>
        </extensions>
      </trkpt>
      <trkpt lat="43.08191" lon="1.30411">
        <ele>420.6</ele>
        <time>2023-03-05T12:58:31Z</time>
        <extensions>
          <gpxtpx:TrackPointExtension xmlns:gpxtpx="http://www.garmin.com/xmlschemas/TrackPointExtension/v1">
            <gpxtpx:hr>106</gpxtpx:hr>
          </gpxtpx:TrackPointExtension>
        </extensions>
      </trkpt>
      <trkpt lat="43.0819" lon="1.30416">
        <ele>420.2</ele>
        <time>2023-03-05T12:58:43Z</time>
        <extensions>
          <gpxtpx:TrackPointExtension xmlns:gpxtpx="http://www.garmin.com/xmlschemas/TrackPointExtension/v1">
            <gpxtpx:hr>107</gpxtpx:hr>
          </gpxtpx:TrackPointExtension>
        </extensions>
      </trkpt>
      <trkpt lat="43.08191" lon="1.3042">
        <ele>420.2</ele>
        <time>2023-03-05T12:58:44Z</time>
        <extensions>
          <gpxtpx:TrackPointExtension xmlns:gpxtpx="http://www.garmin.com/xmlschemas/TrackPointExtension/v1">
            <gpxtpx:hr>107</gpxtpx:hr>
          </gpxtpx:TrackPointExtension>
        </extensions>
      </trkpt>
      <trkpt lat="43.08191" lon="1.30442">
        <ele>420.2</ele>
        <time>2023-03-05T12:58:49Z</time>
        <extensions>
          <gpxtpx:TrackPointExtension xmlns:gpxtpx="http://www.garmin.com/xmlschemas/TrackPointExtension/v1">
            <gpxtpx:hr>108</gpxtpx:hr>
          </gpxtpx:TrackPointExtension>
        </extensions>
      </trkpt>
      <trkpt lat="43.08191" lon="1.3047">
        <ele>419.6</ele>
        <time>2023-03-05T12:58:55Z</time>
        <extensions>
          <gpxtpx:TrackPointExtension xmlns:gpxtpx="http://www.garmin.com/xmlschemas/TrackPointExtension/v1">
            <gpxtpx:hr>107</gpxtpx:hr>
          </gpxtpx:TrackPointExtension>
        </extensions>
      </trkpt>
      <trkpt lat="43.08191" lon="1.30475">
        <ele>419.2</ele>
        <time>2023-03-05T12:58:56Z</time>
        <extensions>
          <gpxtpx:TrackPointExtension xmlns:gpxtpx="http://www.garmin.com/xmlschemas/TrackPointExtension/v1">
            <gpxtpx:hr>107</gpxtpx:hr>
          </gpxtpx:TrackPointExtension>
        </extensions>
      </trkpt>
      <trkpt lat="43.08191" lon="1.30479">
        <ele>418.8</ele>
        <time>2023-03-05T12:58:57Z</time>
        <extensions>
          <gpxtpx:TrackPointExtension xmlns:gpxtpx="http://www.garmin.com/xmlschemas/TrackPointExtension/v1">
            <gpxtpx:hr>107</gpxtpx:hr>
          </gpxtpx:TrackPointExtension>
        </extensions>
      </trkpt>
      <trkpt lat="43.08191" lon="1.30484">
        <ele>418.2</ele>
        <time>2023-03-05T12:58:58Z</time>
        <extensions>
          <gpxtpx:TrackPointExtension xmlns:gpxtpx="http://www.garmin.com/xmlschemas/TrackPointExtension/v1">
            <gpxtpx:hr>106</gpxtpx:hr>
          </gpxtpx:TrackPointExtension>
        </extensions>
      </trkpt>
      <trkpt lat="43.08191" lon="1.30487">
        <ele>417.8</ele>
        <time>2023-03-05T12:58:59Z</time>
        <extensions>
          <gpxtpx:TrackPointExtension xmlns:gpxtpx="http://www.garmin.com/xmlschemas/TrackPointExtension/v1">
            <gpxtpx:hr>106</gpxtpx:hr>
          </gpxtpx:TrackPointExtension>
        </extensions>
      </trkpt>
      <trkpt lat="43.08192" lon="1.305">
        <ele>417.8</ele>
        <time>2023-03-05T12:59:02Z</time>
        <extensions>
          <gpxtpx:TrackPointExtension xmlns:gpxtpx="http://www.garmin.com/xmlschemas/TrackPointExtension/v1">
            <gpxtpx:hr>107</gpxtpx:hr>
          </gpxtpx:TrackPointExtension>
        </extensions>
      </trkpt>
      <trkpt lat="43.08195" lon="1.3053">
        <ele>417.8</ele>
        <time>2023-03-05T12:59:09Z</time>
        <extensions>
          <gpxtpx:TrackPointExtension xmlns:gpxtpx="http://www.garmin.com/xmlschemas/TrackPointExtension/v1">
            <gpxtpx:hr>107</gpxtpx:hr>
          </gpxtpx:TrackPointExtension>
        </extensions>
      </trkpt>
      <trkpt lat="43.08198" lon="1.30555">
        <ele>417.8</ele>
        <time>2023-03-05T12:59:15Z</time>
        <extensions>
          <gpxtpx:TrackPointExtension xmlns:gpxtpx="http://www.garmin.com/xmlschemas/TrackPointExtension/v1">
            <gpxtpx:hr>106</gpxtpx:hr>
          </gpxtpx:TrackPointExtension>
        </extensions>
      </trkpt>
      <trkpt lat="43.082" lon="1.30575">
        <ele>417.8</ele>
        <time>2023-03-05T12:59:20Z</time>
        <extensions>
          <gpxtpx:TrackPointExtension xmlns:gpxtpx="http://www.garmin.com/xmlschemas/TrackPointExtension/v1">
            <gpxtpx:hr>106</gpxtpx:hr>
          </gpxtpx:TrackPointExtension>
        </extensions>
      </trkpt>
      <trkpt lat="43.08201" lon="1.30599">
        <ele>417.8</ele>
        <time>2023-03-05T12:59:26Z</time>
        <extensions>
          <gpxtpx:TrackPointExtension xmlns:gpxtpx="http://www.garmin.com/xmlschemas/TrackPointExtension/v1">
            <gpxtpx:hr>107</gpxtpx:hr>
          </gpxtpx:TrackPointExtension>
        </extensions>
      </trkpt>
      <trkpt lat="43.08197" lon="1.30629">
        <ele>417.8</ele>
        <time>2023-03-05T12:59:33Z</time>
        <extensions>
          <gpxtpx:TrackPointExtension xmlns:gpxtpx="http://www.garmin.com/xmlschemas/TrackPointExtension/v1">
            <gpxtpx:hr>109</gpxtpx:hr>
          </gpxtpx:TrackPointExtension>
        </extensions>
      </trkpt>
      <trkpt lat="43.08196" lon="1.30637">
        <ele>418.2</ele>
        <time>2023-03-05T12:59:35Z</time>
        <extensions>
          <gpxtpx:TrackPointExtension xmlns:gpxtpx="http://www.garmin.com/xmlschemas/TrackPointExtension/v1">
            <gpxtpx:hr>109</gpxtpx:hr>
          </gpxtpx:TrackPointExtension>
        </extensions>
      </trkpt>
      <trkpt lat="43.08195" lon="1.30641">
        <ele>418.6</ele>
        <time>2023-03-05T12:59:36Z</time>
        <extensions>
          <gpxtpx:TrackPointExtension xmlns:gpxtpx="http://www.garmin.com/xmlschemas/TrackPointExtension/v1">
            <gpxtpx:hr>109</gpxtpx:hr>
          </gpxtpx:TrackPointExtension>
        </extensions>
      </trkpt>
      <trkpt lat="43.08194" lon="1.30645">
        <ele>419</ele>
        <time>2023-03-05T12:59:37Z</time>
        <extensions>
          <gpxtpx:TrackPointExtension xmlns:gpxtpx="http://www.garmin.com/xmlschemas/TrackPointExtension/v1">
            <gpxtpx:hr>109</gpxtpx:hr>
          </gpxtpx:TrackPointExtension>
        </extensions>
      </trkpt>
      <trkpt lat="43.08194" lon="1.30649">
        <ele>419.4</ele>
        <time>2023-03-05T12:59:38Z</time>
        <extensions>
          <gpxtpx:TrackPointExtension xmlns:gpxtpx="http://www.garmin.com/xmlschemas/TrackPointExtension/v1">
            <gpxtpx:hr>109</gpxtpx:hr>
          </gpxtpx:TrackPointExtension>
        </extensions>
      </trkpt>
      <trkpt lat="43.08193" lon="1.30653">
        <ele>419.8</ele>
        <time>2023-03-05T12:59:39Z</time>
        <extensions>
          <gpxtpx:TrackPointExtension xmlns:gpxtpx="http://www.garmin.com/xmlschemas/TrackPointExtension/v1">
            <gpxtpx:hr>109</gpxtpx:hr>
          </gpxtpx:TrackPointExtension>
        </extensions>
      </trkpt>
      <trkpt lat="43.08192" lon="1.30657">
        <ele>419.8</ele>
        <time>2023-03-05T12:59:40Z</time>
        <extensions>
          <gpxtpx:TrackPointExtension xmlns:gpxtpx="http://www.garmin.com/xmlschemas/TrackPointExtension/v1">
            <gpxtpx:hr>109</gpxtpx:hr>
          </gpxtpx:TrackPointExtension>
        </extensions>
      </trkpt>
      <trkpt lat="43.08185" lon="1.30684">
        <ele>419.8</ele>
        <time>2023-03-05T12:59:47Z</time>
        <extensions>
          <gpxtpx:TrackPointExtension xmlns:gpxtpx="http://www.garmin.com/xmlschemas/TrackPointExtension/v1">
            <gpxtpx:hr>110</gpxtpx:hr>
          </gpxtpx:TrackPointExtension>
        </extensions>
      </trkpt>
      <trkpt lat="43.08179" lon="1.30718">
        <ele>419.8</ele>
        <time>2023-03-05T12:59:55Z</time>
        <extensions>
          <gpxtpx:TrackPointExtension xmlns:gpxtpx="http://www.garmin.com/xmlschemas/TrackPointExtension/v1">
            <gpxtpx:hr>108</gpxtpx:hr>
          </gpxtpx:TrackPointExtension>
        </extensions>
      </trkpt>
      <trkpt lat="43.08185" lon="1.30727">
        <ele>419.8</ele>
        <time>2023-03-05T12:59:59Z</time>
        <extensions>
          <gpxtpx:TrackPointExtension xmlns:gpxtpx="http://www.garmin.com/xmlschemas/TrackPointExtension/v1">
            <gpxtpx:hr>108</gpxtpx:hr>
          </gpxtpx:TrackPointExtension>
        </extensions>
      </trkpt>
      <trkpt lat="43.08186" lon="1.30727">
        <ele>419.8</ele>
        <time>2023-03-05T13:00:03Z</time>
        <extensions>
          <gpxtpx:TrackPointExtension xmlns:gpxtpx="http://www.garmin.com/xmlschemas/TrackPointExtension/v1">
            <gpxtpx:hr>108</gpxtpx:hr>
          </gpxtpx:TrackPointExtension>
        </extensions>
      </trkpt>
      <trkpt lat="43.08189" lon="1.30729">
        <ele>419.8</ele>
        <time>2023-03-05T13:00:12Z</time>
        <extensions>
          <gpxtpx:TrackPointExtension xmlns:gpxtpx="http://www.garmin.com/xmlschemas/TrackPointExtension/v1">
            <gpxtpx:hr>108</gpxtpx:hr>
          </gpxtpx:TrackPointExtension>
        </extensions>
      </trkpt>
      <trkpt lat="43.08193" lon="1.30733">
        <ele>419.8</ele>
        <time>2023-03-05T13:00:14Z</time>
        <extensions>
          <gpxtpx:TrackPointExtension xmlns:gpxtpx="http://www.garmin.com/xmlschemas/TrackPointExtension/v1">
            <gpxtpx:hr>108</gpxtpx:hr>
          </gpxtpx:TrackPointExtension>
        </extensions>
      </trkpt>
      <trkpt lat="43.08201" lon="1.30743">
        <ele>419.8</ele>
        <time>2023-03-05T13:00:17Z</time>
        <extensions>
          <gpxtpx:TrackPointExtension xmlns:gpxtpx="http://www.garmin.com/xmlschemas/TrackPointExtension/v1">
            <gpxtpx:hr>106</gpxtpx:hr>
          </gpxtpx:TrackPointExtension>
        </extensions>
      </trkpt>
      <trkpt lat="43.08203" lon="1.30749">
        <ele>419.4</ele>
        <time>2023-03-05T13:00:18Z</time>
        <extensions>
          <gpxtpx:TrackPointExtension xmlns:gpxtpx="http://www.garmin.com/xmlschemas/TrackPointExtension/v1">
            <gpxtpx:hr>106</gpxtpx:hr>
          </gpxtpx:TrackPointExtension>
        </extensions>
      </trkpt>
      <trkpt lat="43.08204" lon="1.30755">
        <ele>419</ele>
        <time>2023-03-05T13:00:19Z</time>
        <extensions>
          <gpxtpx:TrackPointExtension xmlns:gpxtpx="http://www.garmin.com/xmlschemas/TrackPointExtension/v1">
            <gpxtpx:hr>105</gpxtpx:hr>
          </gpxtpx:TrackPointExtension>
        </extensions>
      </trkpt>
      <trkpt lat="43.08206" lon="1.30762">
        <ele>418.4</ele>
        <time>2023-03-05T13:00:20Z</time>
        <extensions>
          <gpxtpx:TrackPointExtension xmlns:gpxtpx="http://www.garmin.com/xmlschemas/TrackPointExtension/v1">
            <gpxtpx:hr>106</gpxtpx:hr>
          </gpxtpx:TrackPointExtension>
        </extensions>
      </trkpt>
      <trkpt lat="43.08207" lon="1.3077">
        <ele>418</ele>
        <time>2023-03-05T13:00:21Z</time>
        <extensions>
          <gpxtpx:TrackPointExtension xmlns:gpxtpx="http://www.garmin.com/xmlschemas/TrackPointExtension/v1">
            <gpxtpx:hr>106</gpxtpx:hr>
          </gpxtpx:TrackPointExtension>
        </extensions>
      </trkpt>
      <trkpt lat="43.08208" lon="1.30779">
        <ele>417.4</ele>
        <time>2023-03-05T13:00:22Z</time>
        <extensions>
          <gpxtpx:TrackPointExtension xmlns:gpxtpx="http://www.garmin.com/xmlschemas/TrackPointExtension/v1">
            <gpxtpx:hr>106</gpxtpx:hr>
          </gpxtpx:TrackPointExtension>
        </extensions>
      </trkpt>
      <trkpt lat="43.08208" lon="1.30789">
        <ele>416.4</ele>
        <time>2023-03-05T13:00:23Z</time>
        <extensions>
          <gpxtpx:TrackPointExtension xmlns:gpxtpx="http://www.garmin.com/xmlschemas/TrackPointExtension/v1">
            <gpxtpx:hr>106</gpxtpx:hr>
          </gpxtpx:TrackPointExtension>
        </extensions>
      </trkpt>
      <trkpt lat="43.08209" lon="1.30799">
        <ele>416</ele>
        <time>2023-03-05T13:00:24Z</time>
        <extensions>
          <gpxtpx:TrackPointExtension xmlns:gpxtpx="http://www.garmin.com/xmlschemas/TrackPointExtension/v1">
            <gpxtpx:hr>105</gpxtpx:hr>
          </gpxtpx:TrackPointExtension>
        </extensions>
      </trkpt>
      <trkpt lat="43.08209" lon="1.30809">
        <ele>415.4</ele>
        <time>2023-03-05T13:00:25Z</time>
        <extensions>
          <gpxtpx:TrackPointExtension xmlns:gpxtpx="http://www.garmin.com/xmlschemas/TrackPointExtension/v1">
            <gpxtpx:hr>104</gpxtpx:hr>
          </gpxtpx:TrackPointExtension>
        </extensions>
      </trkpt>
      <trkpt lat="43.08209" lon="1.3082">
        <ele>414.8</ele>
        <time>2023-03-05T13:00:26Z</time>
        <extensions>
          <gpxtpx:TrackPointExtension xmlns:gpxtpx="http://www.garmin.com/xmlschemas/TrackPointExtension/v1">
            <gpxtpx:hr>103</gpxtpx:hr>
          </gpxtpx:TrackPointExtension>
        </extensions>
      </trkpt>
      <trkpt lat="43.08208" lon="1.3083">
        <ele>414.2</ele>
        <time>2023-03-05T13:00:27Z</time>
        <extensions>
          <gpxtpx:TrackPointExtension xmlns:gpxtpx="http://www.garmin.com/xmlschemas/TrackPointExtension/v1">
            <gpxtpx:hr>103</gpxtpx:hr>
          </gpxtpx:TrackPointExtension>
        </extensions>
      </trkpt>
      <trkpt lat="43.08207" lon="1.3084">
        <ele>413.4</ele>
        <time>2023-03-05T13:00:28Z</time>
        <extensions>
          <gpxtpx:TrackPointExtension xmlns:gpxtpx="http://www.garmin.com/xmlschemas/TrackPointExtension/v1">
            <gpxtpx:hr>103</gpxtpx:hr>
          </gpxtpx:TrackPointExtension>
        </extensions>
      </trkpt>
      <trkpt lat="43.08207" lon="1.3085">
        <ele>412.8</ele>
        <time>2023-03-05T13:00:29Z</time>
        <extensions>
          <gpxtpx:TrackPointExtension xmlns:gpxtpx="http://www.garmin.com/xmlschemas/TrackPointExtension/v1">
            <gpxtpx:hr>103</gpxtpx:hr>
          </gpxtpx:TrackPointExtension>
        </extensions>
      </trkpt>
      <trkpt lat="43.08206" lon="1.30861">
        <ele>412.4</ele>
        <time>2023-03-05T13:00:30Z</time>
        <extensions>
          <gpxtpx:TrackPointExtension xmlns:gpxtpx="http://www.garmin.com/xmlschemas/TrackPointExtension/v1">
            <gpxtpx:hr>102</gpxtpx:hr>
          </gpxtpx:TrackPointExtension>
        </extensions>
      </trkpt>
      <trkpt lat="43.08205" lon="1.30872">
        <ele>411.8</ele>
        <time>2023-03-05T13:00:31Z</time>
        <extensions>
          <gpxtpx:TrackPointExtension xmlns:gpxtpx="http://www.garmin.com/xmlschemas/TrackPointExtension/v1">
            <gpxtpx:hr>101</gpxtpx:hr>
          </gpxtpx:TrackPointExtension>
        </extensions>
      </trkpt>
      <trkpt lat="43.08204" lon="1.30882">
        <ele>411.4</ele>
        <time>2023-03-05T13:00:32Z</time>
        <extensions>
          <gpxtpx:TrackPointExtension xmlns:gpxtpx="http://www.garmin.com/xmlschemas/TrackPointExtension/v1">
            <gpxtpx:hr>102</gpxtpx:hr>
          </gpxtpx:TrackPointExtension>
        </extensions>
      </trkpt>
      <trkpt lat="43.08203" lon="1.30894">
        <ele>410.8</ele>
        <time>2023-03-05T13:00:33Z</time>
        <extensions>
          <gpxtpx:TrackPointExtension xmlns:gpxtpx="http://www.garmin.com/xmlschemas/TrackPointExtension/v1">
            <gpxtpx:hr>102</gpxtpx:hr>
          </gpxtpx:TrackPointExtension>
        </extensions>
      </trkpt>
      <trkpt lat="43.08202" lon="1.30906">
        <ele>410</ele>
        <time>2023-03-05T13:00:34Z</time>
        <extensions>
          <gpxtpx:TrackPointExtension xmlns:gpxtpx="http://www.garmin.com/xmlschemas/TrackPointExtension/v1">
            <gpxtpx:hr>101</gpxtpx:hr>
          </gpxtpx:TrackPointExtension>
        </extensions>
      </trkpt>
      <trkpt lat="43.08201" lon="1.30917">
        <ele>409.4</ele>
        <time>2023-03-05T13:00:35Z</time>
        <extensions>
          <gpxtpx:TrackPointExtension xmlns:gpxtpx="http://www.garmin.com/xmlschemas/TrackPointExtension/v1">
            <gpxtpx:hr>101</gpxtpx:hr>
          </gpxtpx:TrackPointExtension>
        </extensions>
      </trkpt>
      <trkpt lat="43.08201" lon="1.30928">
        <ele>408.8</ele>
        <time>2023-03-05T13:00:36Z</time>
        <extensions>
          <gpxtpx:TrackPointExtension xmlns:gpxtpx="http://www.garmin.com/xmlschemas/TrackPointExtension/v1">
            <gpxtpx:hr>101</gpxtpx:hr>
          </gpxtpx:TrackPointExtension>
        </extensions>
      </trkpt>
      <trkpt lat="43.08201" lon="1.30939">
        <ele>408.2</ele>
        <time>2023-03-05T13:00:37Z</time>
        <extensions>
          <gpxtpx:TrackPointExtension xmlns:gpxtpx="http://www.garmin.com/xmlschemas/TrackPointExtension/v1">
            <gpxtpx:hr>102</gpxtpx:hr>
          </gpxtpx:TrackPointExtension>
        </extensions>
      </trkpt>
      <trkpt lat="43.082" lon="1.30949">
        <ele>407.6</ele>
        <time>2023-03-05T13:00:38Z</time>
        <extensions>
          <gpxtpx:TrackPointExtension xmlns:gpxtpx="http://www.garmin.com/xmlschemas/TrackPointExtension/v1">
            <gpxtpx:hr>102</gpxtpx:hr>
          </gpxtpx:TrackPointExtension>
        </extensions>
      </trkpt>
      <trkpt lat="43.082" lon="1.30957">
        <ele>407.2</ele>
        <time>2023-03-05T13:00:39Z</time>
        <extensions>
          <gpxtpx:TrackPointExtension xmlns:gpxtpx="http://www.garmin.com/xmlschemas/TrackPointExtension/v1">
            <gpxtpx:hr>102</gpxtpx:hr>
          </gpxtpx:TrackPointExtension>
        </extensions>
      </trkpt>
      <trkpt lat="43.082" lon="1.30965">
        <ele>406.8</ele>
        <time>2023-03-05T13:00:40Z</time>
        <extensions>
          <gpxtpx:TrackPointExtension xmlns:gpxtpx="http://www.garmin.com/xmlschemas/TrackPointExtension/v1">
            <gpxtpx:hr>102</gpxtpx:hr>
          </gpxtpx:TrackPointExtension>
        </extensions>
      </trkpt>
      <trkpt lat="43.08199" lon="1.30973">
        <ele>406.2</ele>
        <time>2023-03-05T13:00:41Z</time>
        <extensions>
          <gpxtpx:TrackPointExtension xmlns:gpxtpx="http://www.garmin.com/xmlschemas/TrackPointExtension/v1">
            <gpxtpx:hr>102</gpxtpx:hr>
          </gpxtpx:TrackPointExtension>
        </extensions>
      </trkpt>
      <trkpt lat="43.08198" lon="1.3098">
        <ele>405.8</ele>
        <time>2023-03-05T13:00:42Z</time>
        <extensions>
          <gpxtpx:TrackPointExtension xmlns:gpxtpx="http://www.garmin.com/xmlschemas/TrackPointExtension/v1">
            <gpxtpx:hr>102</gpxtpx:hr>
          </gpxtpx:TrackPointExtension>
        </extensions>
      </trkpt>
      <trkpt lat="43.08197" lon="1.30986">
        <ele>405.2</ele>
        <time>2023-03-05T13:00:43Z</time>
        <extensions>
          <gpxtpx:TrackPointExtension xmlns:gpxtpx="http://www.garmin.com/xmlschemas/TrackPointExtension/v1">
            <gpxtpx:hr>102</gpxtpx:hr>
          </gpxtpx:TrackPointExtension>
        </extensions>
      </trkpt>
      <trkpt lat="43.08196" lon="1.30993">
        <ele>404.6</ele>
        <time>2023-03-05T13:00:44Z</time>
        <extensions>
          <gpxtpx:TrackPointExtension xmlns:gpxtpx="http://www.garmin.com/xmlschemas/TrackPointExtension/v1">
            <gpxtpx:hr>102</gpxtpx:hr>
          </gpxtpx:TrackPointExtension>
        </extensions>
      </trkpt>
      <trkpt lat="43.08196" lon="1.31">
        <ele>404</ele>
        <time>2023-03-05T13:00:45Z</time>
        <extensions>
          <gpxtpx:TrackPointExtension xmlns:gpxtpx="http://www.garmin.com/xmlschemas/TrackPointExtension/v1">
            <gpxtpx:hr>101</gpxtpx:hr>
          </gpxtpx:TrackPointExtension>
        </extensions>
      </trkpt>
      <trkpt lat="43.08196" lon="1.31007">
        <ele>403.6</ele>
        <time>2023-03-05T13:00:46Z</time>
        <extensions>
          <gpxtpx:TrackPointExtension xmlns:gpxtpx="http://www.garmin.com/xmlschemas/TrackPointExtension/v1">
            <gpxtpx:hr>100</gpxtpx:hr>
          </gpxtpx:TrackPointExtension>
        </extensions>
      </trkpt>
      <trkpt lat="43.08195" lon="1.31033">
        <ele>403.6</ele>
        <time>2023-03-05T13:00:50Z</time>
        <extensions>
          <gpxtpx:TrackPointExtension xmlns:gpxtpx="http://www.garmin.com/xmlschemas/TrackPointExtension/v1">
            <gpxtpx:hr>100</gpxtpx:hr>
          </gpxtpx:TrackPointExtension>
        </extensions>
      </trkpt>
      <trkpt lat="43.08191" lon="1.31058">
        <ele>403.6</ele>
        <time>2023-03-05T13:00:54Z</time>
        <extensions>
          <gpxtpx:TrackPointExtension xmlns:gpxtpx="http://www.garmin.com/xmlschemas/TrackPointExtension/v1">
            <gpxtpx:hr>97</gpxtpx:hr>
          </gpxtpx:TrackPointExtension>
        </extensions>
      </trkpt>
      <trkpt lat="43.08188" lon="1.31071">
        <ele>403</ele>
        <time>2023-03-05T13:00:56Z</time>
        <extensions>
          <gpxtpx:TrackPointExtension xmlns:gpxtpx="http://www.garmin.com/xmlschemas/TrackPointExtension/v1">
            <gpxtpx:hr>96</gpxtpx:hr>
          </gpxtpx:TrackPointExtension>
        </extensions>
      </trkpt>
      <trkpt lat="43.08187" lon="1.31078">
        <ele>402.6</ele>
        <time>2023-03-05T13:00:57Z</time>
        <extensions>
          <gpxtpx:TrackPointExtension xmlns:gpxtpx="http://www.garmin.com/xmlschemas/TrackPointExtension/v1">
            <gpxtpx:hr>96</gpxtpx:hr>
          </gpxtpx:TrackPointExtension>
        </extensions>
      </trkpt>
      <trkpt lat="43.08185" lon="1.31085">
        <ele>402.2</ele>
        <time>2023-03-05T13:00:58Z</time>
        <extensions>
          <gpxtpx:TrackPointExtension xmlns:gpxtpx="http://www.garmin.com/xmlschemas/TrackPointExtension/v1">
            <gpxtpx:hr>96</gpxtpx:hr>
          </gpxtpx:TrackPointExtension>
        </extensions>
      </trkpt>
      <trkpt lat="43.08184" lon="1.31092">
        <ele>401.6</ele>
        <time>2023-03-05T13:00:59Z</time>
        <extensions>
          <gpxtpx:TrackPointExtension xmlns:gpxtpx="http://www.garmin.com/xmlschemas/TrackPointExtension/v1">
            <gpxtpx:hr>96</gpxtpx:hr>
          </gpxtpx:TrackPointExtension>
        </extensions>
      </trkpt>
      <trkpt lat="43.08183" lon="1.311">
        <ele>401.2</ele>
        <time>2023-03-05T13:01:00Z</time>
        <extensions>
          <gpxtpx:TrackPointExtension xmlns:gpxtpx="http://www.garmin.com/xmlschemas/TrackPointExtension/v1">
            <gpxtpx:hr>97</gpxtpx:hr>
          </gpxtpx:TrackPointExtension>
        </extensions>
      </trkpt>
      <trkpt lat="43.08178" lon="1.31124">
        <ele>401.2</ele>
        <time>2023-03-05T13:01:03Z</time>
        <extensions>
          <gpxtpx:TrackPointExtension xmlns:gpxtpx="http://www.garmin.com/xmlschemas/TrackPointExtension/v1">
            <gpxtpx:hr>98</gpxtpx:hr>
          </gpxtpx:TrackPointExtension>
        </extensions>
      </trkpt>
      <trkpt lat="43.08176" lon="1.31133">
        <ele>400.8</ele>
        <time>2023-03-05T13:01:04Z</time>
        <extensions>
          <gpxtpx:TrackPointExtension xmlns:gpxtpx="http://www.garmin.com/xmlschemas/TrackPointExtension/v1">
            <gpxtpx:hr>98</gpxtpx:hr>
          </gpxtpx:TrackPointExtension>
        </extensions>
      </trkpt>
      <trkpt lat="43.08173" lon="1.31142">
        <ele>400.4</ele>
        <time>2023-03-05T13:01:05Z</time>
        <extensions>
          <gpxtpx:TrackPointExtension xmlns:gpxtpx="http://www.garmin.com/xmlschemas/TrackPointExtension/v1">
            <gpxtpx:hr>98</gpxtpx:hr>
          </gpxtpx:TrackPointExtension>
        </extensions>
      </trkpt>
      <trkpt lat="43.08171" lon="1.31152">
        <ele>400</ele>
        <time>2023-03-05T13:01:06Z</time>
        <extensions>
          <gpxtpx:TrackPointExtension xmlns:gpxtpx="http://www.garmin.com/xmlschemas/TrackPointExtension/v1">
            <gpxtpx:hr>99</gpxtpx:hr>
          </gpxtpx:TrackPointExtension>
        </extensions>
      </trkpt>
      <trkpt lat="43.08169" lon="1.31161">
        <ele>399.6</ele>
        <time>2023-03-05T13:01:07Z</time>
        <extensions>
          <gpxtpx:TrackPointExtension xmlns:gpxtpx="http://www.garmin.com/xmlschemas/TrackPointExtension/v1">
            <gpxtpx:hr>100</gpxtpx:hr>
          </gpxtpx:TrackPointExtension>
        </extensions>
      </trkpt>
      <trkpt lat="43.08166" lon="1.3117">
        <ele>399.2</ele>
        <time>2023-03-05T13:01:08Z</time>
        <extensions>
          <gpxtpx:TrackPointExtension xmlns:gpxtpx="http://www.garmin.com/xmlschemas/TrackPointExtension/v1">
            <gpxtpx:hr>99</gpxtpx:hr>
          </gpxtpx:TrackPointExtension>
        </extensions>
      </trkpt>
      <trkpt lat="43.08163" lon="1.3118">
        <ele>398.8</ele>
        <time>2023-03-05T13:01:09Z</time>
        <extensions>
          <gpxtpx:TrackPointExtension xmlns:gpxtpx="http://www.garmin.com/xmlschemas/TrackPointExtension/v1">
            <gpxtpx:hr>98</gpxtpx:hr>
          </gpxtpx:TrackPointExtension>
        </extensions>
      </trkpt>
      <trkpt lat="43.0816" lon="1.31189">
        <ele>398.2</ele>
        <time>2023-03-05T13:01:10Z</time>
        <extensions>
          <gpxtpx:TrackPointExtension xmlns:gpxtpx="http://www.garmin.com/xmlschemas/TrackPointExtension/v1">
            <gpxtpx:hr>98</gpxtpx:hr>
          </gpxtpx:TrackPointExtension>
        </extensions>
      </trkpt>
      <trkpt lat="43.08158" lon="1.312">
        <ele>397.8</ele>
        <time>2023-03-05T13:01:11Z</time>
        <extensions>
          <gpxtpx:TrackPointExtension xmlns:gpxtpx="http://www.garmin.com/xmlschemas/TrackPointExtension/v1">
            <gpxtpx:hr>98</gpxtpx:hr>
          </gpxtpx:TrackPointExtension>
        </extensions>
      </trkpt>
      <trkpt lat="43.08155" lon="1.31211">
        <ele>396.8</ele>
        <time>2023-03-05T13:01:12Z</time>
        <extensions>
          <gpxtpx:TrackPointExtension xmlns:gpxtpx="http://www.garmin.com/xmlschemas/TrackPointExtension/v1">
            <gpxtpx:hr>98</gpxtpx:hr>
          </gpxtpx:TrackPointExtension>
        </extensions>
      </trkpt>
      <trkpt lat="43.08151" lon="1.31221">
        <ele>396.2</ele>
        <time>2023-03-05T13:01:13Z</time>
        <extensions>
          <gpxtpx:TrackPointExtension xmlns:gpxtpx="http://www.garmin.com/xmlschemas/TrackPointExtension/v1">
            <gpxtpx:hr>98</gpxtpx:hr>
          </gpxtpx:TrackPointExtension>
        </extensions>
      </trkpt>
      <trkpt lat="43.08148" lon="1.31232">
        <ele>395.8</ele>
        <time>2023-03-05T13:01:14Z</time>
        <extensions>
          <gpxtpx:TrackPointExtension xmlns:gpxtpx="http://www.garmin.com/xmlschemas/TrackPointExtension/v1">
            <gpxtpx:hr>98</gpxtpx:hr>
          </gpxtpx:TrackPointExtension>
        </extensions>
      </trkpt>
      <trkpt lat="43.08143" lon="1.31242">
        <ele>395.2</ele>
        <time>2023-03-05T13:01:15Z</time>
        <extensions>
          <gpxtpx:TrackPointExtension xmlns:gpxtpx="http://www.garmin.com/xmlschemas/TrackPointExtension/v1">
            <gpxtpx:hr>98</gpxtpx:hr>
          </gpxtpx:TrackPointExtension>
        </extensions>
      </trkpt>
      <trkpt lat="43.08138" lon="1.31251">
        <ele>394.6</ele>
        <time>2023-03-05T13:01:16Z</time>
        <extensions>
          <gpxtpx:TrackPointExtension xmlns:gpxtpx="http://www.garmin.com/xmlschemas/TrackPointExtension/v1">
            <gpxtpx:hr>98</gpxtpx:hr>
          </gpxtpx:TrackPointExtension>
        </extensions>
      </trkpt>
      <trkpt lat="43.08133" lon="1.31261">
        <ele>394.2</ele>
        <time>2023-03-05T13:01:17Z</time>
        <extensions>
          <gpxtpx:TrackPointExtension xmlns:gpxtpx="http://www.garmin.com/xmlschemas/TrackPointExtension/v1">
            <gpxtpx:hr>98</gpxtpx:hr>
          </gpxtpx:TrackPointExtension>
        </extensions>
      </trkpt>
      <trkpt lat="43.08127" lon="1.3127">
        <ele>393.6</ele>
        <time>2023-03-05T13:01:18Z</time>
        <extensions>
          <gpxtpx:TrackPointExtension xmlns:gpxtpx="http://www.garmin.com/xmlschemas/TrackPointExtension/v1">
            <gpxtpx:hr>97</gpxtpx:hr>
          </gpxtpx:TrackPointExtension>
        </extensions>
      </trkpt>
      <trkpt lat="43.08122" lon="1.3128">
        <ele>393</ele>
        <time>2023-03-05T13:01:19Z</time>
        <extensions>
          <gpxtpx:TrackPointExtension xmlns:gpxtpx="http://www.garmin.com/xmlschemas/TrackPointExtension/v1">
            <gpxtpx:hr>96</gpxtpx:hr>
          </gpxtpx:TrackPointExtension>
        </extensions>
      </trkpt>
      <trkpt lat="43.08117" lon="1.3129">
        <ele>392.6</ele>
        <time>2023-03-05T13:01:20Z</time>
        <extensions>
          <gpxtpx:TrackPointExtension xmlns:gpxtpx="http://www.garmin.com/xmlschemas/TrackPointExtension/v1">
            <gpxtpx:hr>96</gpxtpx:hr>
          </gpxtpx:TrackPointExtension>
        </extensions>
      </trkpt>
      <trkpt lat="43.08111" lon="1.31299">
        <ele>392</ele>
        <time>2023-03-05T13:01:21Z</time>
        <extensions>
          <gpxtpx:TrackPointExtension xmlns:gpxtpx="http://www.garmin.com/xmlschemas/TrackPointExtension/v1">
            <gpxtpx:hr>95</gpxtpx:hr>
          </gpxtpx:TrackPointExtension>
        </extensions>
      </trkpt>
      <trkpt lat="43.08106" lon="1.31308">
        <ele>391.4</ele>
        <time>2023-03-05T13:01:22Z</time>
        <extensions>
          <gpxtpx:TrackPointExtension xmlns:gpxtpx="http://www.garmin.com/xmlschemas/TrackPointExtension/v1">
            <gpxtpx:hr>95</gpxtpx:hr>
          </gpxtpx:TrackPointExtension>
        </extensions>
      </trkpt>
      <trkpt lat="43.08101" lon="1.31317">
        <ele>391</ele>
        <time>2023-03-05T13:01:23Z</time>
        <extensions>
          <gpxtpx:TrackPointExtension xmlns:gpxtpx="http://www.garmin.com/xmlschemas/TrackPointExtension/v1">
            <gpxtpx:hr>95</gpxtpx:hr>
          </gpxtpx:TrackPointExtension>
        </extensions>
      </trkpt>
      <trkpt lat="43.08096" lon="1.31326">
        <ele>390.4</ele>
        <time>2023-03-05T13:01:24Z</time>
        <extensions>
          <gpxtpx:TrackPointExtension xmlns:gpxtpx="http://www.garmin.com/xmlschemas/TrackPointExtension/v1">
            <gpxtpx:hr>95</gpxtpx:hr>
          </gpxtpx:TrackPointExtension>
        </extensions>
      </trkpt>
      <trkpt lat="43.08091" lon="1.31345">
        <ele>390.4</ele>
        <time>2023-03-05T13:01:26Z</time>
        <extensions>
          <gpxtpx:TrackPointExtension xmlns:gpxtpx="http://www.garmin.com/xmlschemas/TrackPointExtension/v1">
            <gpxtpx:hr>95</gpxtpx:hr>
          </gpxtpx:TrackPointExtension>
        </extensions>
      </trkpt>
      <trkpt lat="43.08088" lon="1.3137">
        <ele>390.4</ele>
        <time>2023-03-05T13:01:29Z</time>
        <extensions>
          <gpxtpx:TrackPointExtension xmlns:gpxtpx="http://www.garmin.com/xmlschemas/TrackPointExtension/v1">
            <gpxtpx:hr>95</gpxtpx:hr>
          </gpxtpx:TrackPointExtension>
        </extensions>
      </trkpt>
      <trkpt lat="43.08087" lon="1.31377">
        <ele>390.4</ele>
        <time>2023-03-05T13:01:30Z</time>
        <extensions>
          <gpxtpx:TrackPointExtension xmlns:gpxtpx="http://www.garmin.com/xmlschemas/TrackPointExtension/v1">
            <gpxtpx:hr>94</gpxtpx:hr>
          </gpxtpx:TrackPointExtension>
        </extensions>
      </trkpt>
      <trkpt lat="43.08085" lon="1.31384">
        <ele>390.4</ele>
        <time>2023-03-05T13:01:31Z</time>
        <extensions>
          <gpxtpx:TrackPointExtension xmlns:gpxtpx="http://www.garmin.com/xmlschemas/TrackPointExtension/v1">
            <gpxtpx:hr>94</gpxtpx:hr>
          </gpxtpx:TrackPointExtension>
        </extensions>
      </trkpt>
      <trkpt lat="43.08076" lon="1.31412">
        <ele>390</ele>
        <time>2023-03-05T13:01:35Z</time>
        <extensions>
          <gpxtpx:TrackPointExtension xmlns:gpxtpx="http://www.garmin.com/xmlschemas/TrackPointExtension/v1">
            <gpxtpx:hr>93</gpxtpx:hr>
          </gpxtpx:TrackPointExtension>
        </extensions>
      </trkpt>
      <trkpt lat="43.08075" lon="1.3142">
        <ele>389.6</ele>
        <time>2023-03-05T13:01:36Z</time>
        <extensions>
          <gpxtpx:TrackPointExtension xmlns:gpxtpx="http://www.garmin.com/xmlschemas/TrackPointExtension/v1">
            <gpxtpx:hr>93</gpxtpx:hr>
          </gpxtpx:TrackPointExtension>
        </extensions>
      </trkpt>
      <trkpt lat="43.08074" lon="1.31428">
        <ele>388.8</ele>
        <time>2023-03-05T13:01:37Z</time>
        <extensions>
          <gpxtpx:TrackPointExtension xmlns:gpxtpx="http://www.garmin.com/xmlschemas/TrackPointExtension/v1">
            <gpxtpx:hr>93</gpxtpx:hr>
          </gpxtpx:TrackPointExtension>
        </extensions>
      </trkpt>
      <trkpt lat="43.08074" lon="1.31435">
        <ele>388.4</ele>
        <time>2023-03-05T13:01:38Z</time>
        <extensions>
          <gpxtpx:TrackPointExtension xmlns:gpxtpx="http://www.garmin.com/xmlschemas/TrackPointExtension/v1">
            <gpxtpx:hr>94</gpxtpx:hr>
          </gpxtpx:TrackPointExtension>
        </extensions>
      </trkpt>
      <trkpt lat="43.08073" lon="1.31443">
        <ele>388.4</ele>
        <time>2023-03-05T13:01:39Z</time>
        <extensions>
          <gpxtpx:TrackPointExtension xmlns:gpxtpx="http://www.garmin.com/xmlschemas/TrackPointExtension/v1">
            <gpxtpx:hr>94</gpxtpx:hr>
          </gpxtpx:TrackPointExtension>
        </extensions>
      </trkpt>
      <trkpt lat="43.08072" lon="1.31459">
        <ele>388.4</ele>
        <time>2023-03-05T13:01:41Z</time>
        <extensions>
          <gpxtpx:TrackPointExtension xmlns:gpxtpx="http://www.garmin.com/xmlschemas/TrackPointExtension/v1">
            <gpxtpx:hr>94</gpxtpx:hr>
          </gpxtpx:TrackPointExtension>
        </extensions>
      </trkpt>
      <trkpt lat="43.08067" lon="1.31515">
        <ele>387.8</ele>
        <time>2023-03-05T13:01:48Z</time>
        <extensions>
          <gpxtpx:TrackPointExtension xmlns:gpxtpx="http://www.garmin.com/xmlschemas/TrackPointExtension/v1">
            <gpxtpx:hr>94</gpxtpx:hr>
          </gpxtpx:TrackPointExtension>
        </extensions>
      </trkpt>
      <trkpt lat="43.08066" lon="1.31523">
        <ele>387.4</ele>
        <time>2023-03-05T13:01:49Z</time>
        <extensions>
          <gpxtpx:TrackPointExtension xmlns:gpxtpx="http://www.garmin.com/xmlschemas/TrackPointExtension/v1">
            <gpxtpx:hr>94</gpxtpx:hr>
          </gpxtpx:TrackPointExtension>
        </extensions>
      </trkpt>
      <trkpt lat="43.08066" lon="1.31531">
        <ele>387</ele>
        <time>2023-03-05T13:01:50Z</time>
        <extensions>
          <gpxtpx:TrackPointExtension xmlns:gpxtpx="http://www.garmin.com/xmlschemas/TrackPointExtension/v1">
            <gpxtpx:hr>95</gpxtpx:hr>
          </gpxtpx:TrackPointExtension>
        </extensions>
      </trkpt>
      <trkpt lat="43.08065" lon="1.31539">
        <ele>386.6</ele>
        <time>2023-03-05T13:01:51Z</time>
        <extensions>
          <gpxtpx:TrackPointExtension xmlns:gpxtpx="http://www.garmin.com/xmlschemas/TrackPointExtension/v1">
            <gpxtpx:hr>96</gpxtpx:hr>
          </gpxtpx:TrackPointExtension>
        </extensions>
      </trkpt>
      <trkpt lat="43.08065" lon="1.31547">
        <ele>386.2</ele>
        <time>2023-03-05T13:01:52Z</time>
        <extensions>
          <gpxtpx:TrackPointExtension xmlns:gpxtpx="http://www.garmin.com/xmlschemas/TrackPointExtension/v1">
            <gpxtpx:hr>96</gpxtpx:hr>
          </gpxtpx:TrackPointExtension>
        </extensions>
      </trkpt>
      <trkpt lat="43.08067" lon="1.31608">
        <ele>386.2</ele>
        <time>2023-03-05T13:02:00Z</time>
        <extensions>
          <gpxtpx:TrackPointExtension xmlns:gpxtpx="http://www.garmin.com/xmlschemas/TrackPointExtension/v1">
            <gpxtpx:hr>97</gpxtpx:hr>
          </gpxtpx:TrackPointExtension>
        </extensions>
      </trkpt>
      <trkpt lat="43.08068" lon="1.31636">
        <ele>385.8</ele>
        <time>2023-03-05T13:02:04Z</time>
        <extensions>
          <gpxtpx:TrackPointExtension xmlns:gpxtpx="http://www.garmin.com/xmlschemas/TrackPointExtension/v1">
            <gpxtpx:hr>95</gpxtpx:hr>
          </gpxtpx:TrackPointExtension>
        </extensions>
      </trkpt>
      <trkpt lat="43.08068" lon="1.31643">
        <ele>385.4</ele>
        <time>2023-03-05T13:02:05Z</time>
        <extensions>
          <gpxtpx:TrackPointExtension xmlns:gpxtpx="http://www.garmin.com/xmlschemas/TrackPointExtension/v1">
            <gpxtpx:hr>95</gpxtpx:hr>
          </gpxtpx:TrackPointExtension>
        </extensions>
      </trkpt>
      <trkpt lat="43.08069" lon="1.3165">
        <ele>385</ele>
        <time>2023-03-05T13:02:06Z</time>
        <extensions>
          <gpxtpx:TrackPointExtension xmlns:gpxtpx="http://www.garmin.com/xmlschemas/TrackPointExtension/v1">
            <gpxtpx:hr>95</gpxtpx:hr>
          </gpxtpx:TrackPointExtension>
        </extensions>
      </trkpt>
      <trkpt lat="43.08069" lon="1.31656">
        <ele>384.6</ele>
        <time>2023-03-05T13:02:07Z</time>
        <extensions>
          <gpxtpx:TrackPointExtension xmlns:gpxtpx="http://www.garmin.com/xmlschemas/TrackPointExtension/v1">
            <gpxtpx:hr>95</gpxtpx:hr>
          </gpxtpx:TrackPointExtension>
        </extensions>
      </trkpt>
      <trkpt lat="43.0807" lon="1.31662">
        <ele>384.2</ele>
        <time>2023-03-05T13:02:08Z</time>
        <extensions>
          <gpxtpx:TrackPointExtension xmlns:gpxtpx="http://www.garmin.com/xmlschemas/TrackPointExtension/v1">
            <gpxtpx:hr>96</gpxtpx:hr>
          </gpxtpx:TrackPointExtension>
        </extensions>
      </trkpt>
      <trkpt lat="43.08071" lon="1.31701">
        <ele>384.2</ele>
        <time>2023-03-05T13:02:14Z</time>
        <extensions>
          <gpxtpx:TrackPointExtension xmlns:gpxtpx="http://www.garmin.com/xmlschemas/TrackPointExtension/v1">
            <gpxtpx:hr>97</gpxtpx:hr>
          </gpxtpx:TrackPointExtension>
        </extensions>
      </trkpt>
      <trkpt lat="43.08074" lon="1.3176">
        <ele>384.2</ele>
        <time>2023-03-05T13:02:23Z</time>
        <extensions>
          <gpxtpx:TrackPointExtension xmlns:gpxtpx="http://www.garmin.com/xmlschemas/TrackPointExtension/v1">
            <gpxtpx:hr>96</gpxtpx:hr>
          </gpxtpx:TrackPointExtension>
        </extensions>
      </trkpt>
      <trkpt lat="43.08074" lon="1.31791">
        <ele>384.2</ele>
        <time>2023-03-05T13:02:28Z</time>
        <extensions>
          <gpxtpx:TrackPointExtension xmlns:gpxtpx="http://www.garmin.com/xmlschemas/TrackPointExtension/v1">
            <gpxtpx:hr>98</gpxtpx:hr>
          </gpxtpx:TrackPointExtension>
        </extensions>
      </trkpt>
      <trkpt lat="43.08075" lon="1.31803">
        <ele>384.2</ele>
        <time>2023-03-05T13:02:30Z</time>
        <extensions>
          <gpxtpx:TrackPointExtension xmlns:gpxtpx="http://www.garmin.com/xmlschemas/TrackPointExtension/v1">
            <gpxtpx:hr>99</gpxtpx:hr>
          </gpxtpx:TrackPointExtension>
        </extensions>
      </trkpt>
      <trkpt lat="43.08078" lon="1.31841">
        <ele>384.2</ele>
        <time>2023-03-05T13:02:36Z</time>
        <extensions>
          <gpxtpx:TrackPointExtension xmlns:gpxtpx="http://www.garmin.com/xmlschemas/TrackPointExtension/v1">
            <gpxtpx:hr>99</gpxtpx:hr>
          </gpxtpx:TrackPointExtension>
        </extensions>
      </trkpt>
      <trkpt lat="43.08078" lon="1.31847">
        <ele>384.2</ele>
        <time>2023-03-05T13:02:37Z</time>
        <extensions>
          <gpxtpx:TrackPointExtension xmlns:gpxtpx="http://www.garmin.com/xmlschemas/TrackPointExtension/v1">
            <gpxtpx:hr>99</gpxtpx:hr>
          </gpxtpx:TrackPointExtension>
        </extensions>
      </trkpt>
      <trkpt lat="43.08075" lon="1.31869">
        <ele>384.2</ele>
        <time>2023-03-05T13:02:41Z</time>
        <extensions>
          <gpxtpx:TrackPointExtension xmlns:gpxtpx="http://www.garmin.com/xmlschemas/TrackPointExtension/v1">
            <gpxtpx:hr>99</gpxtpx:hr>
          </gpxtpx:TrackPointExtension>
        </extensions>
      </trkpt>
      <trkpt lat="43.08075" lon="1.31895">
        <ele>384.2</ele>
        <time>2023-03-05T13:02:46Z</time>
        <extensions>
          <gpxtpx:TrackPointExtension xmlns:gpxtpx="http://www.garmin.com/xmlschemas/TrackPointExtension/v1">
            <gpxtpx:hr>99</gpxtpx:hr>
          </gpxtpx:TrackPointExtension>
        </extensions>
      </trkpt>
      <trkpt lat="43.08086" lon="1.31931">
        <ele>384.2</ele>
        <time>2023-03-05T13:02:55Z</time>
        <extensions>
          <gpxtpx:TrackPointExtension xmlns:gpxtpx="http://www.garmin.com/xmlschemas/TrackPointExtension/v1">
            <gpxtpx:hr>101</gpxtpx:hr>
          </gpxtpx:TrackPointExtension>
        </extensions>
      </trkpt>
      <trkpt lat="43.08088" lon="1.31942">
        <ele>384.2</ele>
        <time>2023-03-05T13:02:58Z</time>
        <extensions>
          <gpxtpx:TrackPointExtension xmlns:gpxtpx="http://www.garmin.com/xmlschemas/TrackPointExtension/v1">
            <gpxtpx:hr>104</gpxtpx:hr>
          </gpxtpx:TrackPointExtension>
        </extensions>
      </trkpt>
      <trkpt lat="43.08089" lon="1.31952">
        <ele>384.2</ele>
        <time>2023-03-05T13:03:01Z</time>
        <extensions>
          <gpxtpx:TrackPointExtension xmlns:gpxtpx="http://www.garmin.com/xmlschemas/TrackPointExtension/v1">
            <gpxtpx:hr>105</gpxtpx:hr>
          </gpxtpx:TrackPointExtension>
        </extensions>
      </trkpt>
      <trkpt lat="43.08089" lon="1.31956">
        <ele>384.6</ele>
        <time>2023-03-05T13:03:02Z</time>
        <extensions>
          <gpxtpx:TrackPointExtension xmlns:gpxtpx="http://www.garmin.com/xmlschemas/TrackPointExtension/v1">
            <gpxtpx:hr>105</gpxtpx:hr>
          </gpxtpx:TrackPointExtension>
        </extensions>
      </trkpt>
      <trkpt lat="43.08089" lon="1.3196">
        <ele>385</ele>
        <time>2023-03-05T13:03:03Z</time>
        <extensions>
          <gpxtpx:TrackPointExtension xmlns:gpxtpx="http://www.garmin.com/xmlschemas/TrackPointExtension/v1">
            <gpxtpx:hr>106</gpxtpx:hr>
          </gpxtpx:TrackPointExtension>
        </extensions>
      </trkpt>
      <trkpt lat="43.08088" lon="1.31963">
        <ele>385.4</ele>
        <time>2023-03-05T13:03:04Z</time>
        <extensions>
          <gpxtpx:TrackPointExtension xmlns:gpxtpx="http://www.garmin.com/xmlschemas/TrackPointExtension/v1">
            <gpxtpx:hr>108</gpxtpx:hr>
          </gpxtpx:TrackPointExtension>
        </extensions>
      </trkpt>
      <trkpt lat="43.08088" lon="1.31966">
        <ele>386</ele>
        <time>2023-03-05T13:03:05Z</time>
        <extensions>
          <gpxtpx:TrackPointExtension xmlns:gpxtpx="http://www.garmin.com/xmlschemas/TrackPointExtension/v1">
            <gpxtpx:hr>108</gpxtpx:hr>
          </gpxtpx:TrackPointExtension>
        </extensions>
      </trkpt>
      <trkpt lat="43.08088" lon="1.31971">
        <ele>386.4</ele>
        <time>2023-03-05T13:03:06Z</time>
        <extensions>
          <gpxtpx:TrackPointExtension xmlns:gpxtpx="http://www.garmin.com/xmlschemas/TrackPointExtension/v1">
            <gpxtpx:hr>108</gpxtpx:hr>
          </gpxtpx:TrackPointExtension>
        </extensions>
      </trkpt>
      <trkpt lat="43.08087" lon="1.31977">
        <ele>386.8</ele>
        <time>2023-03-05T13:03:08Z</time>
        <extensions>
          <gpxtpx:TrackPointExtension xmlns:gpxtpx="http://www.garmin.com/xmlschemas/TrackPointExtension/v1">
            <gpxtpx:hr>108</gpxtpx:hr>
          </gpxtpx:TrackPointExtension>
        </extensions>
      </trkpt>
      <trkpt lat="43.08086" lon="1.31979">
        <ele>387.2</ele>
        <time>2023-03-05T13:03:09Z</time>
        <extensions>
          <gpxtpx:TrackPointExtension xmlns:gpxtpx="http://www.garmin.com/xmlschemas/TrackPointExtension/v1">
            <gpxtpx:hr>109</gpxtpx:hr>
          </gpxtpx:TrackPointExtension>
        </extensions>
      </trkpt>
      <trkpt lat="43.08086" lon="1.31981">
        <ele>387.8</ele>
        <time>2023-03-05T13:03:10Z</time>
        <extensions>
          <gpxtpx:TrackPointExtension xmlns:gpxtpx="http://www.garmin.com/xmlschemas/TrackPointExtension/v1">
            <gpxtpx:hr>109</gpxtpx:hr>
          </gpxtpx:TrackPointExtension>
        </extensions>
      </trkpt>
      <trkpt lat="43.08084" lon="1.31983">
        <ele>388.2</ele>
        <time>2023-03-05T13:03:11Z</time>
        <extensions>
          <gpxtpx:TrackPointExtension xmlns:gpxtpx="http://www.garmin.com/xmlschemas/TrackPointExtension/v1">
            <gpxtpx:hr>109</gpxtpx:hr>
          </gpxtpx:TrackPointExtension>
        </extensions>
      </trkpt>
      <trkpt lat="43.08084" lon="1.31986">
        <ele>388.6</ele>
        <time>2023-03-05T13:03:12Z</time>
        <extensions>
          <gpxtpx:TrackPointExtension xmlns:gpxtpx="http://www.garmin.com/xmlschemas/TrackPointExtension/v1">
            <gpxtpx:hr>109</gpxtpx:hr>
          </gpxtpx:TrackPointExtension>
        </extensions>
      </trkpt>
      <trkpt lat="43.08082" lon="1.31991">
        <ele>388.6</ele>
        <time>2023-03-05T13:03:14Z</time>
        <extensions>
          <gpxtpx:TrackPointExtension xmlns:gpxtpx="http://www.garmin.com/xmlschemas/TrackPointExtension/v1">
            <gpxtpx:hr>109</gpxtpx:hr>
          </gpxtpx:TrackPointExtension>
        </extensions>
      </trkpt>
      <trkpt lat="43.08081" lon="1.31997">
        <ele>389.4</ele>
        <time>2023-03-05T13:03:16Z</time>
        <extensions>
          <gpxtpx:TrackPointExtension xmlns:gpxtpx="http://www.garmin.com/xmlschemas/TrackPointExtension/v1">
            <gpxtpx:hr>109</gpxtpx:hr>
          </gpxtpx:TrackPointExtension>
        </extensions>
      </trkpt>
      <trkpt lat="43.0808" lon="1.32">
        <ele>389.8</ele>
        <time>2023-03-05T13:03:17Z</time>
        <extensions>
          <gpxtpx:TrackPointExtension xmlns:gpxtpx="http://www.garmin.com/xmlschemas/TrackPointExtension/v1">
            <gpxtpx:hr>109</gpxtpx:hr>
          </gpxtpx:TrackPointExtension>
        </extensions>
      </trkpt>
      <trkpt lat="43.08079" lon="1.32002">
        <ele>390.2</ele>
        <time>2023-03-05T13:03:18Z</time>
        <extensions>
          <gpxtpx:TrackPointExtension xmlns:gpxtpx="http://www.garmin.com/xmlschemas/TrackPointExtension/v1">
            <gpxtpx:hr>109</gpxtpx:hr>
          </gpxtpx:TrackPointExtension>
        </extensions>
      </trkpt>
      <trkpt lat="43.08078" lon="1.32005">
        <ele>390.6</ele>
        <time>2023-03-05T13:03:19Z</time>
        <extensions>
          <gpxtpx:TrackPointExtension xmlns:gpxtpx="http://www.garmin.com/xmlschemas/TrackPointExtension/v1">
            <gpxtpx:hr>109</gpxtpx:hr>
          </gpxtpx:TrackPointExtension>
        </extensions>
      </trkpt>
      <trkpt lat="43.08077" lon="1.3201">
        <ele>390.6</ele>
        <time>2023-03-05T13:03:21Z</time>
        <extensions>
          <gpxtpx:TrackPointExtension xmlns:gpxtpx="http://www.garmin.com/xmlschemas/TrackPointExtension/v1">
            <gpxtpx:hr>109</gpxtpx:hr>
          </gpxtpx:TrackPointExtension>
        </extensions>
      </trkpt>
      <trkpt lat="43.08076" lon="1.32021">
        <ele>391</ele>
        <time>2023-03-05T13:03:25Z</time>
        <extensions>
          <gpxtpx:TrackPointExtension xmlns:gpxtpx="http://www.garmin.com/xmlschemas/TrackPointExtension/v1">
            <gpxtpx:hr>109</gpxtpx:hr>
          </gpxtpx:TrackPointExtension>
        </extensions>
      </trkpt>
      <trkpt lat="43.08076" lon="1.32024">
        <ele>391.4</ele>
        <time>2023-03-05T13:03:26Z</time>
        <extensions>
          <gpxtpx:TrackPointExtension xmlns:gpxtpx="http://www.garmin.com/xmlschemas/TrackPointExtension/v1">
            <gpxtpx:hr>109</gpxtpx:hr>
          </gpxtpx:TrackPointExtension>
        </extensions>
      </trkpt>
      <trkpt lat="43.08076" lon="1.32027">
        <ele>391.8</ele>
        <time>2023-03-05T13:03:27Z</time>
        <extensions>
          <gpxtpx:TrackPointExtension xmlns:gpxtpx="http://www.garmin.com/xmlschemas/TrackPointExtension/v1">
            <gpxtpx:hr>111</gpxtpx:hr>
          </gpxtpx:TrackPointExtension>
        </extensions>
      </trkpt>
      <trkpt lat="43.08076" lon="1.3203">
        <ele>392.2</ele>
        <time>2023-03-05T13:03:28Z</time>
        <extensions>
          <gpxtpx:TrackPointExtension xmlns:gpxtpx="http://www.garmin.com/xmlschemas/TrackPointExtension/v1">
            <gpxtpx:hr>112</gpxtpx:hr>
          </gpxtpx:TrackPointExtension>
        </extensions>
      </trkpt>
      <trkpt lat="43.08076" lon="1.32033">
        <ele>392.6</ele>
        <time>2023-03-05T13:03:29Z</time>
        <extensions>
          <gpxtpx:TrackPointExtension xmlns:gpxtpx="http://www.garmin.com/xmlschemas/TrackPointExtension/v1">
            <gpxtpx:hr>112</gpxtpx:hr>
          </gpxtpx:TrackPointExtension>
        </extensions>
      </trkpt>
      <trkpt lat="43.08075" lon="1.32048">
        <ele>393.2</ele>
        <time>2023-03-05T13:03:35Z</time>
        <extensions>
          <gpxtpx:TrackPointExtension xmlns:gpxtpx="http://www.garmin.com/xmlschemas/TrackPointExtension/v1">
            <gpxtpx:hr>112</gpxtpx:hr>
          </gpxtpx:TrackPointExtension>
        </extensions>
      </trkpt>
      <trkpt lat="43.08075" lon="1.3205">
        <ele>393.6</ele>
        <time>2023-03-05T13:03:36Z</time>
        <extensions>
          <gpxtpx:TrackPointExtension xmlns:gpxtpx="http://www.garmin.com/xmlschemas/TrackPointExtension/v1">
            <gpxtpx:hr>112</gpxtpx:hr>
          </gpxtpx:TrackPointExtension>
        </extensions>
      </trkpt>
      <trkpt lat="43.08074" lon="1.32052">
        <ele>394</ele>
        <time>2023-03-05T13:03:37Z</time>
        <extensions>
          <gpxtpx:TrackPointExtension xmlns:gpxtpx="http://www.garmin.com/xmlschemas/TrackPointExtension/v1">
            <gpxtpx:hr>112</gpxtpx:hr>
          </gpxtpx:TrackPointExtension>
        </extensions>
      </trkpt>
      <trkpt lat="43.08074" lon="1.32055">
        <ele>394.4</ele>
        <time>2023-03-05T13:03:38Z</time>
        <extensions>
          <gpxtpx:TrackPointExtension xmlns:gpxtpx="http://www.garmin.com/xmlschemas/TrackPointExtension/v1">
            <gpxtpx:hr>112</gpxtpx:hr>
          </gpxtpx:TrackPointExtension>
        </extensions>
      </trkpt>
      <trkpt lat="43.08074" lon="1.32057">
        <ele>395</ele>
        <time>2023-03-05T13:03:39Z</time>
        <extensions>
          <gpxtpx:TrackPointExtension xmlns:gpxtpx="http://www.garmin.com/xmlschemas/TrackPointExtension/v1">
            <gpxtpx:hr>112</gpxtpx:hr>
          </gpxtpx:TrackPointExtension>
        </extensions>
      </trkpt>
      <trkpt lat="43.08072" lon="1.32065">
        <ele>395</ele>
        <time>2023-03-05T13:03:42Z</time>
        <extensions>
          <gpxtpx:TrackPointExtension xmlns:gpxtpx="http://www.garmin.com/xmlschemas/TrackPointExtension/v1">
            <gpxtpx:hr>112</gpxtpx:hr>
          </gpxtpx:TrackPointExtension>
        </extensions>
      </trkpt>
      <trkpt lat="43.08072" lon="1.32069">
        <ele>395.4</ele>
        <time>2023-03-05T13:03:44Z</time>
        <extensions>
          <gpxtpx:TrackPointExtension xmlns:gpxtpx="http://www.garmin.com/xmlschemas/TrackPointExtension/v1">
            <gpxtpx:hr>112</gpxtpx:hr>
          </gpxtpx:TrackPointExtension>
        </extensions>
      </trkpt>
      <trkpt lat="43.08071" lon="1.32072">
        <ele>395.8</ele>
        <time>2023-03-05T13:03:45Z</time>
        <extensions>
          <gpxtpx:TrackPointExtension xmlns:gpxtpx="http://www.garmin.com/xmlschemas/TrackPointExtension/v1">
            <gpxtpx:hr>112</gpxtpx:hr>
          </gpxtpx:TrackPointExtension>
        </extensions>
      </trkpt>
      <trkpt lat="43.08071" lon="1.32075">
        <ele>396.2</ele>
        <time>2023-03-05T13:03:46Z</time>
        <extensions>
          <gpxtpx:TrackPointExtension xmlns:gpxtpx="http://www.garmin.com/xmlschemas/TrackPointExtension/v1">
            <gpxtpx:hr>114</gpxtpx:hr>
          </gpxtpx:TrackPointExtension>
        </extensions>
      </trkpt>
      <trkpt lat="43.08071" lon="1.32077">
        <ele>396.6</ele>
        <time>2023-03-05T13:03:47Z</time>
        <extensions>
          <gpxtpx:TrackPointExtension xmlns:gpxtpx="http://www.garmin.com/xmlschemas/TrackPointExtension/v1">
            <gpxtpx:hr>115</gpxtpx:hr>
          </gpxtpx:TrackPointExtension>
        </extensions>
      </trkpt>
      <trkpt lat="43.0807" lon="1.32079">
        <ele>397</ele>
        <time>2023-03-05T13:03:48Z</time>
        <extensions>
          <gpxtpx:TrackPointExtension xmlns:gpxtpx="http://www.garmin.com/xmlschemas/TrackPointExtension/v1">
            <gpxtpx:hr>115</gpxtpx:hr>
          </gpxtpx:TrackPointExtension>
        </extensions>
      </trkpt>
      <trkpt lat="43.08068" lon="1.3209">
        <ele>397.4</ele>
        <time>2023-03-05T13:03:53Z</time>
        <extensions>
          <gpxtpx:TrackPointExtension xmlns:gpxtpx="http://www.garmin.com/xmlschemas/TrackPointExtension/v1">
            <gpxtpx:hr>115</gpxtpx:hr>
          </gpxtpx:TrackPointExtension>
        </extensions>
      </trkpt>
      <trkpt lat="43.08067" lon="1.32093">
        <ele>397.8</ele>
        <time>2023-03-05T13:03:54Z</time>
        <extensions>
          <gpxtpx:TrackPointExtension xmlns:gpxtpx="http://www.garmin.com/xmlschemas/TrackPointExtension/v1">
            <gpxtpx:hr>115</gpxtpx:hr>
          </gpxtpx:TrackPointExtension>
        </extensions>
      </trkpt>
      <trkpt lat="43.08068" lon="1.32095">
        <ele>398.2</ele>
        <time>2023-03-05T13:03:55Z</time>
        <extensions>
          <gpxtpx:TrackPointExtension xmlns:gpxtpx="http://www.garmin.com/xmlschemas/TrackPointExtension/v1">
            <gpxtpx:hr>115</gpxtpx:hr>
          </gpxtpx:TrackPointExtension>
        </extensions>
      </trkpt>
      <trkpt lat="43.08067" lon="1.32098">
        <ele>398.6</ele>
        <time>2023-03-05T13:03:56Z</time>
        <extensions>
          <gpxtpx:TrackPointExtension xmlns:gpxtpx="http://www.garmin.com/xmlschemas/TrackPointExtension/v1">
            <gpxtpx:hr>117</gpxtpx:hr>
          </gpxtpx:TrackPointExtension>
        </extensions>
      </trkpt>
      <trkpt lat="43.08067" lon="1.321">
        <ele>399.2</ele>
        <time>2023-03-05T13:03:57Z</time>
        <extensions>
          <gpxtpx:TrackPointExtension xmlns:gpxtpx="http://www.garmin.com/xmlschemas/TrackPointExtension/v1">
            <gpxtpx:hr>117</gpxtpx:hr>
          </gpxtpx:TrackPointExtension>
        </extensions>
      </trkpt>
      <trkpt lat="43.08066" lon="1.32116">
        <ele>399.6</ele>
        <time>2023-03-05T13:04:03Z</time>
        <extensions>
          <gpxtpx:TrackPointExtension xmlns:gpxtpx="http://www.garmin.com/xmlschemas/TrackPointExtension/v1">
            <gpxtpx:hr>120</gpxtpx:hr>
          </gpxtpx:TrackPointExtension>
        </extensions>
      </trkpt>
      <trkpt lat="43.08066" lon="1.32118">
        <ele>400</ele>
        <time>2023-03-05T13:04:04Z</time>
        <extensions>
          <gpxtpx:TrackPointExtension xmlns:gpxtpx="http://www.garmin.com/xmlschemas/TrackPointExtension/v1">
            <gpxtpx:hr>121</gpxtpx:hr>
          </gpxtpx:TrackPointExtension>
        </extensions>
      </trkpt>
      <trkpt lat="43.08065" lon="1.3212">
        <ele>400.4</ele>
        <time>2023-03-05T13:04:05Z</time>
        <extensions>
          <gpxtpx:TrackPointExtension xmlns:gpxtpx="http://www.garmin.com/xmlschemas/TrackPointExtension/v1">
            <gpxtpx:hr>121</gpxtpx:hr>
          </gpxtpx:TrackPointExtension>
        </extensions>
      </trkpt>
      <trkpt lat="43.08064" lon="1.32122">
        <ele>401.2</ele>
        <time>2023-03-05T13:04:06Z</time>
        <extensions>
          <gpxtpx:TrackPointExtension xmlns:gpxtpx="http://www.garmin.com/xmlschemas/TrackPointExtension/v1">
            <gpxtpx:hr>121</gpxtpx:hr>
          </gpxtpx:TrackPointExtension>
        </extensions>
      </trkpt>
      <trkpt lat="43.08064" lon="1.32122">
        <ele>401.2</ele>
        <time>2023-03-05T13:04:08Z</time>
        <extensions>
          <gpxtpx:TrackPointExtension xmlns:gpxtpx="http://www.garmin.com/xmlschemas/TrackPointExtension/v1">
            <gpxtpx:hr>122</gpxtpx:hr>
          </gpxtpx:TrackPointExtension>
        </extensions>
      </trkpt>
      <trkpt lat="43.0806" lon="1.32124">
        <ele>401.2</ele>
        <time>2023-03-05T13:13:32Z</time>
        <extensions>
          <gpxtpx:TrackPointExtension xmlns:gpxtpx="http://www.garmin.com/xmlschemas/TrackPointExtension/v1">
            <gpxtpx:hr>96</gpxtpx:hr>
          </gpxtpx:TrackPointExtension>
        </extensions>
      </trkpt>
      <trkpt lat="43.0806" lon="1.32126">
        <ele>401.2</ele>
        <time>2023-03-05T13:13:33Z</time>
        <extensions>
          <gpxtpx:TrackPointExtension xmlns:gpxtpx="http://www.garmin.com/xmlschemas/TrackPointExtension/v1">
            <gpxtpx:hr>96</gpxtpx:hr>
          </gpxtpx:TrackPointExtension>
        </extensions>
      </trkpt>
      <trkpt lat="43.08059" lon="1.3213">
        <ele>401.2</ele>
        <time>2023-03-05T13:13:35Z</time>
        <extensions>
          <gpxtpx:TrackPointExtension xmlns:gpxtpx="http://www.garmin.com/xmlschemas/TrackPointExtension/v1">
            <gpxtpx:hr>97</gpxtpx:hr>
          </gpxtpx:TrackPointExtension>
        </extensions>
      </trkpt>
      <trkpt lat="43.08058" lon="1.3214">
        <ele>401.2</ele>
        <time>2023-03-05T13:13:38Z</time>
        <extensions>
          <gpxtpx:TrackPointExtension xmlns:gpxtpx="http://www.garmin.com/xmlschemas/TrackPointExtension/v1">
            <gpxtpx:hr>97</gpxtpx:hr>
          </gpxtpx:TrackPointExtension>
        </extensions>
      </trkpt>
      <trkpt lat="43.08056" lon="1.32149">
        <ele>401.6</ele>
        <time>2023-03-05T13:13:41Z</time>
        <extensions>
          <gpxtpx:TrackPointExtension xmlns:gpxtpx="http://www.garmin.com/xmlschemas/TrackPointExtension/v1">
            <gpxtpx:hr>97</gpxtpx:hr>
          </gpxtpx:TrackPointExtension>
        </extensions>
      </trkpt>
      <trkpt lat="43.08055" lon="1.32152">
        <ele>402</ele>
        <time>2023-03-05T13:13:42Z</time>
        <extensions>
          <gpxtpx:TrackPointExtension xmlns:gpxtpx="http://www.garmin.com/xmlschemas/TrackPointExtension/v1">
            <gpxtpx:hr>97</gpxtpx:hr>
          </gpxtpx:TrackPointExtension>
        </extensions>
      </trkpt>
      <trkpt lat="43.08055" lon="1.32155">
        <ele>402.4</ele>
        <time>2023-03-05T13:13:43Z</time>
        <extensions>
          <gpxtpx:TrackPointExtension xmlns:gpxtpx="http://www.garmin.com/xmlschemas/TrackPointExtension/v1">
            <gpxtpx:hr>97</gpxtpx:hr>
          </gpxtpx:TrackPointExtension>
        </extensions>
      </trkpt>
      <trkpt lat="43.08055" lon="1.32158">
        <ele>402.8</ele>
        <time>2023-03-05T13:13:44Z</time>
        <extensions>
          <gpxtpx:TrackPointExtension xmlns:gpxtpx="http://www.garmin.com/xmlschemas/TrackPointExtension/v1">
            <gpxtpx:hr>97</gpxtpx:hr>
          </gpxtpx:TrackPointExtension>
        </extensions>
      </trkpt>
      <trkpt lat="43.08054" lon="1.32161">
        <ele>403.2</ele>
        <time>2023-03-05T13:13:45Z</time>
        <extensions>
          <gpxtpx:TrackPointExtension xmlns:gpxtpx="http://www.garmin.com/xmlschemas/TrackPointExtension/v1">
            <gpxtpx:hr>97</gpxtpx:hr>
          </gpxtpx:TrackPointExtension>
        </extensions>
      </trkpt>
      <trkpt lat="43.08054" lon="1.32165">
        <ele>403.2</ele>
        <time>2023-03-05T13:13:46Z</time>
        <extensions>
          <gpxtpx:TrackPointExtension xmlns:gpxtpx="http://www.garmin.com/xmlschemas/TrackPointExtension/v1">
            <gpxtpx:hr>91</gpxtpx:hr>
          </gpxtpx:TrackPointExtension>
        </extensions>
      </trkpt>
      <trkpt lat="43.08054" lon="1.32169">
        <ele>403.2</ele>
        <time>2023-03-05T13:13:47Z</time>
        <extensions>
          <gpxtpx:TrackPointExtension xmlns:gpxtpx="http://www.garmin.com/xmlschemas/TrackPointExtension/v1">
            <gpxtpx:hr>91</gpxtpx:hr>
          </gpxtpx:TrackPointExtension>
        </extensions>
      </trkpt>
      <trkpt lat="43.08051" lon="1.32186">
        <ele>403.2</ele>
        <time>2023-03-05T13:13:52Z</time>
        <extensions>
          <gpxtpx:TrackPointExtension xmlns:gpxtpx="http://www.garmin.com/xmlschemas/TrackPointExtension/v1">
            <gpxtpx:hr>91</gpxtpx:hr>
          </gpxtpx:TrackPointExtension>
        </extensions>
      </trkpt>
      <trkpt lat="43.08052" lon="1.32197">
        <ele>403.2</ele>
        <time>2023-03-05T13:13:55Z</time>
        <extensions>
          <gpxtpx:TrackPointExtension xmlns:gpxtpx="http://www.garmin.com/xmlschemas/TrackPointExtension/v1">
            <gpxtpx:hr>94</gpxtpx:hr>
          </gpxtpx:TrackPointExtension>
        </extensions>
      </trkpt>
      <trkpt lat="43.08052" lon="1.322">
        <ele>403.2</ele>
        <time>2023-03-05T13:13:56Z</time>
        <extensions>
          <gpxtpx:TrackPointExtension xmlns:gpxtpx="http://www.garmin.com/xmlschemas/TrackPointExtension/v1">
            <gpxtpx:hr>97</gpxtpx:hr>
          </gpxtpx:TrackPointExtension>
        </extensions>
      </trkpt>
      <trkpt lat="43.08052" lon="1.32203">
        <ele>403.2</ele>
        <time>2023-03-05T13:13:57Z</time>
        <extensions>
          <gpxtpx:TrackPointExtension xmlns:gpxtpx="http://www.garmin.com/xmlschemas/TrackPointExtension/v1">
            <gpxtpx:hr>100</gpxtpx:hr>
          </gpxtpx:TrackPointExtension>
        </extensions>
      </trkpt>
      <trkpt lat="43.08052" lon="1.32206">
        <ele>403.2</ele>
        <time>2023-03-05T13:13:58Z</time>
        <extensions>
          <gpxtpx:TrackPointExtension xmlns:gpxtpx="http://www.garmin.com/xmlschemas/TrackPointExtension/v1">
            <gpxtpx:hr>100</gpxtpx:hr>
          </gpxtpx:TrackPointExtension>
        </extensions>
      </trkpt>
      <trkpt lat="43.08051" lon="1.32219">
        <ele>403.2</ele>
        <time>2023-03-05T13:14:03Z</time>
        <extensions>
          <gpxtpx:TrackPointExtension xmlns:gpxtpx="http://www.garmin.com/xmlschemas/TrackPointExtension/v1">
            <gpxtpx:hr>100</gpxtpx:hr>
          </gpxtpx:TrackPointExtension>
        </extensions>
      </trkpt>
      <trkpt lat="43.0805" lon="1.32231">
        <ele>403.2</ele>
        <time>2023-03-05T13:14:06Z</time>
        <extensions>
          <gpxtpx:TrackPointExtension xmlns:gpxtpx="http://www.garmin.com/xmlschemas/TrackPointExtension/v1">
            <gpxtpx:hr>100</gpxtpx:hr>
          </gpxtpx:TrackPointExtension>
        </extensions>
      </trkpt>
      <trkpt lat="43.08049" lon="1.32235">
        <ele>403.2</ele>
        <time>2023-03-05T13:14:07Z</time>
        <extensions>
          <gpxtpx:TrackPointExtension xmlns:gpxtpx="http://www.garmin.com/xmlschemas/TrackPointExtension/v1">
            <gpxtpx:hr>100</gpxtpx:hr>
          </gpxtpx:TrackPointExtension>
        </extensions>
      </trkpt>
      <trkpt lat="43.08045" lon="1.3224">
        <ele>403.2</ele>
        <time>2023-03-05T13:14:09Z</time>
        <extensions>
          <gpxtpx:TrackPointExtension xmlns:gpxtpx="http://www.garmin.com/xmlschemas/TrackPointExtension/v1">
            <gpxtpx:hr>94</gpxtpx:hr>
          </gpxtpx:TrackPointExtension>
        </extensions>
      </trkpt>
      <trkpt lat="43.08043" lon="1.32242">
        <ele>403.2</ele>
        <time>2023-03-05T13:14:10Z</time>
        <extensions>
          <gpxtpx:TrackPointExtension xmlns:gpxtpx="http://www.garmin.com/xmlschemas/TrackPointExtension/v1">
            <gpxtpx:hr>89</gpxtpx:hr>
          </gpxtpx:TrackPointExtension>
        </extensions>
      </trkpt>
      <trkpt lat="43.08041" lon="1.32245">
        <ele>403.2</ele>
        <time>2023-03-05T13:14:11Z</time>
        <extensions>
          <gpxtpx:TrackPointExtension xmlns:gpxtpx="http://www.garmin.com/xmlschemas/TrackPointExtension/v1">
            <gpxtpx:hr>89</gpxtpx:hr>
          </gpxtpx:TrackPointExtension>
        </extensions>
      </trkpt>
      <trkpt lat="43.0804" lon="1.32248">
        <ele>403.2</ele>
        <time>2023-03-05T13:14:13Z</time>
        <extensions>
          <gpxtpx:TrackPointExtension xmlns:gpxtpx="http://www.garmin.com/xmlschemas/TrackPointExtension/v1">
            <gpxtpx:hr>89</gpxtpx:hr>
          </gpxtpx:TrackPointExtension>
        </extensions>
      </trkpt>
      <trkpt lat="43.0804" lon="1.32248">
        <ele>403.2</ele>
        <time>2023-03-05T13:14:32Z</time>
        <extensions>
          <gpxtpx:TrackPointExtension xmlns:gpxtpx="http://www.garmin.com/xmlschemas/TrackPointExtension/v1">
            <gpxtpx:hr>101</gpxtpx:hr>
          </gpxtpx:TrackPointExtension>
        </extensions>
      </trkpt>
      <trkpt lat="43.08039" lon="1.3225">
        <ele>403.2</ele>
        <time>2023-03-05T13:14:33Z</time>
        <extensions>
          <gpxtpx:TrackPointExtension xmlns:gpxtpx="http://www.garmin.com/xmlschemas/TrackPointExtension/v1">
            <gpxtpx:hr>101</gpxtpx:hr>
          </gpxtpx:TrackPointExtension>
        </extensions>
      </trkpt>
      <trkpt lat="43.08033" lon="1.32259">
        <ele>403.2</ele>
        <time>2023-03-05T13:14:36Z</time>
        <extensions>
          <gpxtpx:TrackPointExtension xmlns:gpxtpx="http://www.garmin.com/xmlschemas/TrackPointExtension/v1">
            <gpxtpx:hr>101</gpxtpx:hr>
          </gpxtpx:TrackPointExtension>
        </extensions>
      </trkpt>
      <trkpt lat="43.08027" lon="1.32279">
        <ele>403.2</ele>
        <time>2023-03-05T13:14:41Z</time>
        <extensions>
          <gpxtpx:TrackPointExtension xmlns:gpxtpx="http://www.garmin.com/xmlschemas/TrackPointExtension/v1">
            <gpxtpx:hr>101</gpxtpx:hr>
          </gpxtpx:TrackPointExtension>
        </extensions>
      </trkpt>
      <trkpt lat="43.08019" lon="1.32301">
        <ele>403.6</ele>
        <time>2023-03-05T13:14:47Z</time>
        <extensions>
          <gpxtpx:TrackPointExtension xmlns:gpxtpx="http://www.garmin.com/xmlschemas/TrackPointExtension/v1">
            <gpxtpx:hr>101</gpxtpx:hr>
          </gpxtpx:TrackPointExtension>
        </extensions>
      </trkpt>
      <trkpt lat="43.08018" lon="1.32305">
        <ele>404.4</ele>
        <time>2023-03-05T13:14:48Z</time>
        <extensions>
          <gpxtpx:TrackPointExtension xmlns:gpxtpx="http://www.garmin.com/xmlschemas/TrackPointExtension/v1">
            <gpxtpx:hr>101</gpxtpx:hr>
          </gpxtpx:TrackPointExtension>
        </extensions>
      </trkpt>
      <trkpt lat="43.08016" lon="1.32308">
        <ele>404.8</ele>
        <time>2023-03-05T13:14:49Z</time>
        <extensions>
          <gpxtpx:TrackPointExtension xmlns:gpxtpx="http://www.garmin.com/xmlschemas/TrackPointExtension/v1">
            <gpxtpx:hr>101</gpxtpx:hr>
          </gpxtpx:TrackPointExtension>
        </extensions>
      </trkpt>
      <trkpt lat="43.08013" lon="1.32312">
        <ele>405.2</ele>
        <time>2023-03-05T13:14:50Z</time>
        <extensions>
          <gpxtpx:TrackPointExtension xmlns:gpxtpx="http://www.garmin.com/xmlschemas/TrackPointExtension/v1">
            <gpxtpx:hr>101</gpxtpx:hr>
          </gpxtpx:TrackPointExtension>
        </extensions>
      </trkpt>
      <trkpt lat="43.08004" lon="1.32323">
        <ele>405.2</ele>
        <time>2023-03-05T13:14:53Z</time>
        <extensions>
          <gpxtpx:TrackPointExtension xmlns:gpxtpx="http://www.garmin.com/xmlschemas/TrackPointExtension/v1">
            <gpxtpx:hr>101</gpxtpx:hr>
          </gpxtpx:TrackPointExtension>
        </extensions>
      </trkpt>
      <trkpt lat="43.0799" lon="1.32346">
        <ele>405.2</ele>
        <time>2023-03-05T13:14:59Z</time>
        <extensions>
          <gpxtpx:TrackPointExtension xmlns:gpxtpx="http://www.garmin.com/xmlschemas/TrackPointExtension/v1">
            <gpxtpx:hr>101</gpxtpx:hr>
          </gpxtpx:TrackPointExtension>
        </extensions>
      </trkpt>
      <trkpt lat="43.07979" lon="1.32363">
        <ele>405.2</ele>
        <time>2023-03-05T13:15:04Z</time>
        <extensions>
          <gpxtpx:TrackPointExtension xmlns:gpxtpx="http://www.garmin.com/xmlschemas/TrackPointExtension/v1">
            <gpxtpx:hr>101</gpxtpx:hr>
          </gpxtpx:TrackPointExtension>
        </extensions>
      </trkpt>
      <trkpt lat="43.07964" lon="1.32387">
        <ele>405.2</ele>
        <time>2023-03-05T13:15:11Z</time>
        <extensions>
          <gpxtpx:TrackPointExtension xmlns:gpxtpx="http://www.garmin.com/xmlschemas/TrackPointExtension/v1">
            <gpxtpx:hr>101</gpxtpx:hr>
          </gpxtpx:TrackPointExtension>
        </extensions>
      </trkpt>
      <trkpt lat="43.07954" lon="1.32404">
        <ele>405.2</ele>
        <time>2023-03-05T13:15:17Z</time>
        <extensions>
          <gpxtpx:TrackPointExtension xmlns:gpxtpx="http://www.garmin.com/xmlschemas/TrackPointExtension/v1">
            <gpxtpx:hr>97</gpxtpx:hr>
          </gpxtpx:TrackPointExtension>
        </extensions>
      </trkpt>
      <trkpt lat="43.07953" lon="1.32406">
        <ele>405.2</ele>
        <time>2023-03-05T13:15:18Z</time>
        <extensions>
          <gpxtpx:TrackPointExtension xmlns:gpxtpx="http://www.garmin.com/xmlschemas/TrackPointExtension/v1">
            <gpxtpx:hr>92</gpxtpx:hr>
          </gpxtpx:TrackPointExtension>
        </extensions>
      </trkpt>
      <trkpt lat="43.07952" lon="1.32407">
        <ele>405.2</ele>
        <time>2023-03-05T13:15:19Z</time>
        <extensions>
          <gpxtpx:TrackPointExtension xmlns:gpxtpx="http://www.garmin.com/xmlschemas/TrackPointExtension/v1">
            <gpxtpx:hr>92</gpxtpx:hr>
          </gpxtpx:TrackPointExtension>
        </extensions>
      </trkpt>
      <trkpt lat="43.07951" lon="1.32408">
        <ele>405.2</ele>
        <time>2023-03-05T13:15:21Z</time>
        <extensions>
          <gpxtpx:TrackPointExtension xmlns:gpxtpx="http://www.garmin.com/xmlschemas/TrackPointExtension/v1">
            <gpxtpx:hr>92</gpxtpx:hr>
          </gpxtpx:TrackPointExtension>
        </extensions>
      </trkpt>
      <trkpt lat="43.08021" lon="1.34742">
        <ele>455.6</ele>
        <time>2023-03-05T13:30:53Z</time>
        <extensions>
          <gpxtpx:TrackPointExtension xmlns:gpxtpx="http://www.garmin.com/xmlschemas/TrackPointExtension/v1">
            <gpxtpx:hr>98</gpxtpx:hr>
          </gpxtpx:TrackPointExtension>
        </extensions>
      </trkpt>
      <trkpt lat="43.08022" lon="1.34745">
        <ele>455.6</ele>
        <time>2023-03-05T13:30:54Z</time>
        <extensions>
          <gpxtpx:TrackPointExtension xmlns:gpxtpx="http://www.garmin.com/xmlschemas/TrackPointExtension/v1">
            <gpxtpx:hr>98</gpxtpx:hr>
          </gpxtpx:TrackPointExtension>
        </extensions>
      </trkpt>
      <trkpt lat="43.08023" lon="1.34748">
        <ele>455.6</ele>
        <time>2023-03-05T13:30:55Z</time>
        <extensions>
          <gpxtpx:TrackPointExtension xmlns:gpxtpx="http://www.garmin.com/xmlschemas/TrackPointExtension/v1">
            <gpxtpx:hr>98</gpxtpx:hr>
          </gpxtpx:TrackPointExtension>
        </extensions>
      </trkpt>
      <trkpt lat="43.08025" lon="1.34755">
        <ele>455.6</ele>
        <time>2023-03-05T13:30:57Z</time>
        <extensions>
          <gpxtpx:TrackPointExtension xmlns:gpxtpx="http://www.garmin.com/xmlschemas/TrackPointExtension/v1">
            <gpxtpx:hr>99</gpxtpx:hr>
          </gpxtpx:TrackPointExtension>
        </extensions>
      </trkpt>
      <trkpt lat="43.08027" lon="1.34765">
        <ele>455.6</ele>
        <time>2023-03-05T13:31:00Z</time>
        <extensions>
          <gpxtpx:TrackPointExtension xmlns:gpxtpx="http://www.garmin.com/xmlschemas/TrackPointExtension/v1">
            <gpxtpx:hr>98</gpxtpx:hr>
          </gpxtpx:TrackPointExtension>
        </extensions>
      </trkpt>
      <trkpt lat="43.08023" lon="1.34765">
        <ele>455.6</ele>
        <time>2023-03-05T13:31:04Z</time>
        <extensions>
          <gpxtpx:TrackPointExtension xmlns:gpxtpx="http://www.garmin.com/xmlschemas/TrackPointExtension/v1">
            <gpxtpx:hr>99</gpxtpx:hr>
          </gpxtpx:TrackPointExtension>
        </extensions>
      </trkpt>
      <trkpt lat="43.08021" lon="1.34764">
        <ele>455.2</ele>
        <time>2023-03-05T13:31:05Z</time>
        <extensions>
          <gpxtpx:TrackPointExtension xmlns:gpxtpx="http://www.garmin.com/xmlschemas/TrackPointExtension/v1">
            <gpxtpx:hr>99</gpxtpx:hr>
          </gpxtpx:TrackPointExtension>
        </extensions>
      </trkpt>
      <trkpt lat="43.08019" lon="1.34763">
        <ele>454.8</ele>
        <time>2023-03-05T13:31:06Z</time>
        <extensions>
          <gpxtpx:TrackPointExtension xmlns:gpxtpx="http://www.garmin.com/xmlschemas/TrackPointExtension/v1">
            <gpxtpx:hr>99</gpxtpx:hr>
          </gpxtpx:TrackPointExtension>
        </extensions>
      </trkpt>
      <trkpt lat="43.08018" lon="1.34763">
        <ele>454.4</ele>
        <time>2023-03-05T13:31:07Z</time>
        <extensions>
          <gpxtpx:TrackPointExtension xmlns:gpxtpx="http://www.garmin.com/xmlschemas/TrackPointExtension/v1">
            <gpxtpx:hr>99</gpxtpx:hr>
          </gpxtpx:TrackPointExtension>
        </extensions>
      </trkpt>
      <trkpt lat="43.08016" lon="1.34762">
        <ele>454</ele>
        <time>2023-03-05T13:31:08Z</time>
        <extensions>
          <gpxtpx:TrackPointExtension xmlns:gpxtpx="http://www.garmin.com/xmlschemas/TrackPointExtension/v1">
            <gpxtpx:hr>100</gpxtpx:hr>
          </gpxtpx:TrackPointExtension>
        </extensions>
      </trkpt>
      <trkpt lat="43.08014" lon="1.34762">
        <ele>453.6</ele>
        <time>2023-03-05T13:31:09Z</time>
        <extensions>
          <gpxtpx:TrackPointExtension xmlns:gpxtpx="http://www.garmin.com/xmlschemas/TrackPointExtension/v1">
            <gpxtpx:hr>101</gpxtpx:hr>
          </gpxtpx:TrackPointExtension>
        </extensions>
      </trkpt>
      <trkpt lat="43.08012" lon="1.34762">
        <ele>453.6</ele>
        <time>2023-03-05T13:31:10Z</time>
        <extensions>
          <gpxtpx:TrackPointExtension xmlns:gpxtpx="http://www.garmin.com/xmlschemas/TrackPointExtension/v1">
            <gpxtpx:hr>102</gpxtpx:hr>
          </gpxtpx:TrackPointExtension>
        </extensions>
      </trkpt>
      <trkpt lat="43.08008" lon="1.34761">
        <ele>453.6</ele>
        <time>2023-03-05T13:31:14Z</time>
        <extensions>
          <gpxtpx:TrackPointExtension xmlns:gpxtpx="http://www.garmin.com/xmlschemas/TrackPointExtension/v1">
            <gpxtpx:hr>101</gpxtpx:hr>
          </gpxtpx:TrackPointExtension>
        </extensions>
      </trkpt>
      <trkpt lat="43.08012" lon="1.34763">
        <ele>451.6</ele>
        <time>2023-03-05T13:34:11Z</time>
        <extensions>
          <gpxtpx:TrackPointExtension xmlns:gpxtpx="http://www.garmin.com/xmlschemas/TrackPointExtension/v1">
            <gpxtpx:hr>99</gpxtpx:hr>
          </gpxtpx:TrackPointExtension>
        </extensions>
      </trkpt>
      <trkpt lat="43.08016" lon="1.34769">
        <ele>451.6</ele>
        <time>2023-03-05T13:34:14Z</time>
        <extensions>
          <gpxtpx:TrackPointExtension xmlns:gpxtpx="http://www.garmin.com/xmlschemas/TrackPointExtension/v1">
            <gpxtpx:hr>102</gpxtpx:hr>
          </gpxtpx:TrackPointExtension>
        </extensions>
      </trkpt>
      <trkpt lat="43.08016" lon="1.34772">
        <ele>451.6</ele>
        <time>2023-03-05T13:34:15Z</time>
        <extensions>
          <gpxtpx:TrackPointExtension xmlns:gpxtpx="http://www.garmin.com/xmlschemas/TrackPointExtension/v1">
            <gpxtpx:hr>102</gpxtpx:hr>
          </gpxtpx:TrackPointExtension>
        </extensions>
      </trkpt>
      <trkpt lat="43.08016" lon="1.34772">
        <ele>451.6</ele>
        <time>2023-03-05T13:34:17Z</time>
        <extensions>
          <gpxtpx:TrackPointExtension xmlns:gpxtpx="http://www.garmin.com/xmlschemas/TrackPointExtension/v1">
            <gpxtpx:hr>102</gpxtpx:hr>
          </gpxtpx:TrackPointExtension>
        </extensions>
      </trkpt>
      <trkpt lat="43.08022" lon="1.34772">
        <ele>451.6</ele>
        <time>2023-03-05T13:34:31Z</time>
        <extensions>
          <gpxtpx:TrackPointExtension xmlns:gpxtpx="http://www.garmin.com/xmlschemas/TrackPointExtension/v1">
            <gpxtpx:hr>104</gpxtpx:hr>
          </gpxtpx:TrackPointExtension>
        </extensions>
      </trkpt>
      <trkpt lat="43.0803" lon="1.34768">
        <ele>451.6</ele>
        <time>2023-03-05T13:34:36Z</time>
        <extensions>
          <gpxtpx:TrackPointExtension xmlns:gpxtpx="http://www.garmin.com/xmlschemas/TrackPointExtension/v1">
            <gpxtpx:hr>104</gpxtpx:hr>
          </gpxtpx:TrackPointExtension>
        </extensions>
      </trkpt>
      <trkpt lat="43.08041" lon="1.34768">
        <ele>452</ele>
        <time>2023-03-05T13:34:41Z</time>
        <extensions>
          <gpxtpx:TrackPointExtension xmlns:gpxtpx="http://www.garmin.com/xmlschemas/TrackPointExtension/v1">
            <gpxtpx:hr>105</gpxtpx:hr>
          </gpxtpx:TrackPointExtension>
        </extensions>
      </trkpt>
      <trkpt lat="43.08043" lon="1.34768">
        <ele>452.4</ele>
        <time>2023-03-05T13:34:42Z</time>
        <extensions>
          <gpxtpx:TrackPointExtension xmlns:gpxtpx="http://www.garmin.com/xmlschemas/TrackPointExtension/v1">
            <gpxtpx:hr>105</gpxtpx:hr>
          </gpxtpx:TrackPointExtension>
        </extensions>
      </trkpt>
      <trkpt lat="43.08045" lon="1.34768">
        <ele>452.8</ele>
        <time>2023-03-05T13:34:43Z</time>
        <extensions>
          <gpxtpx:TrackPointExtension xmlns:gpxtpx="http://www.garmin.com/xmlschemas/TrackPointExtension/v1">
            <gpxtpx:hr>105</gpxtpx:hr>
          </gpxtpx:TrackPointExtension>
        </extensions>
      </trkpt>
      <trkpt lat="43.08047" lon="1.34769">
        <ele>453.2</ele>
        <time>2023-03-05T13:34:44Z</time>
        <extensions>
          <gpxtpx:TrackPointExtension xmlns:gpxtpx="http://www.garmin.com/xmlschemas/TrackPointExtension/v1">
            <gpxtpx:hr>105</gpxtpx:hr>
          </gpxtpx:TrackPointExtension>
        </extensions>
      </trkpt>
      <trkpt lat="43.08047" lon="1.34769">
        <ele>453.8</ele>
        <time>2023-03-05T13:34:45Z</time>
        <extensions>
          <gpxtpx:TrackPointExtension xmlns:gpxtpx="http://www.garmin.com/xmlschemas/TrackPointExtension/v1">
            <gpxtpx:hr>105</gpxtpx:hr>
          </gpxtpx:TrackPointExtension>
        </extensions>
      </trkpt>
      <trkpt lat="43.08048" lon="1.3477">
        <ele>453.8</ele>
        <time>2023-03-05T13:34:46Z</time>
        <extensions>
          <gpxtpx:TrackPointExtension xmlns:gpxtpx="http://www.garmin.com/xmlschemas/TrackPointExtension/v1">
            <gpxtpx:hr>105</gpxtpx:hr>
          </gpxtpx:TrackPointExtension>
        </extensions>
      </trkpt>
      <trkpt lat="43.08043" lon="1.34768">
        <ele>453.8</ele>
        <time>2023-03-05T13:35:27Z</time>
        <extensions>
          <gpxtpx:TrackPointExtension xmlns:gpxtpx="http://www.garmin.com/xmlschemas/TrackPointExtension/v1">
            <gpxtpx:hr>105</gpxtpx:hr>
          </gpxtpx:TrackPointExtension>
        </extensions>
      </trkpt>
      <trkpt lat="43.08034" lon="1.34767">
        <ele>453.8</ele>
        <time>2023-03-05T13:35:32Z</time>
        <extensions>
          <gpxtpx:TrackPointExtension xmlns:gpxtpx="http://www.garmin.com/xmlschemas/TrackPointExtension/v1">
            <gpxtpx:hr>105</gpxtpx:hr>
          </gpxtpx:TrackPointExtension>
        </extensions>
      </trkpt>
      <trkpt lat="43.08022" lon="1.34772">
        <ele>453.8</ele>
        <time>2023-03-05T13:35:37Z</time>
        <extensions>
          <gpxtpx:TrackPointExtension xmlns:gpxtpx="http://www.garmin.com/xmlschemas/TrackPointExtension/v1">
            <gpxtpx:hr>105</gpxtpx:hr>
          </gpxtpx:TrackPointExtension>
        </extensions>
      </trkpt>
      <trkpt lat="43.08008" lon="1.34779">
        <ele>453.2</ele>
        <time>2023-03-05T13:35:41Z</time>
        <extensions>
          <gpxtpx:TrackPointExtension xmlns:gpxtpx="http://www.garmin.com/xmlschemas/TrackPointExtension/v1">
            <gpxtpx:hr>108</gpxtpx:hr>
          </gpxtpx:TrackPointExtension>
        </extensions>
      </trkpt>
      <trkpt lat="43.08004" lon="1.34781">
        <ele>452.8</ele>
        <time>2023-03-05T13:35:42Z</time>
        <extensions>
          <gpxtpx:TrackPointExtension xmlns:gpxtpx="http://www.garmin.com/xmlschemas/TrackPointExtension/v1">
            <gpxtpx:hr>108</gpxtpx:hr>
          </gpxtpx:TrackPointExtension>
        </extensions>
      </trkpt>
      <trkpt lat="43.08" lon="1.34784">
        <ele>452.4</ele>
        <time>2023-03-05T13:35:43Z</time>
        <extensions>
          <gpxtpx:TrackPointExtension xmlns:gpxtpx="http://www.garmin.com/xmlschemas/TrackPointExtension/v1">
            <gpxtpx:hr>108</gpxtpx:hr>
          </gpxtpx:TrackPointExtension>
        </extensions>
      </trkpt>
      <trkpt lat="43.07996" lon="1.34787">
        <ele>452</ele>
        <time>2023-03-05T13:35:44Z</time>
        <extensions>
          <gpxtpx:TrackPointExtension xmlns:gpxtpx="http://www.garmin.com/xmlschemas/TrackPointExtension/v1">
            <gpxtpx:hr>107</gpxtpx:hr>
          </gpxtpx:TrackPointExtension>
        </extensions>
      </trkpt>
      <trkpt lat="43.07994" lon="1.34793">
        <ele>451.4</ele>
        <time>2023-03-05T13:35:45Z</time>
        <extensions>
          <gpxtpx:TrackPointExtension xmlns:gpxtpx="http://www.garmin.com/xmlschemas/TrackPointExtension/v1">
            <gpxtpx:hr>105</gpxtpx:hr>
          </gpxtpx:TrackPointExtension>
        </extensions>
      </trkpt>
      <trkpt lat="43.07993" lon="1.348">
        <ele>450.8</ele>
        <time>2023-03-05T13:35:46Z</time>
        <extensions>
          <gpxtpx:TrackPointExtension xmlns:gpxtpx="http://www.garmin.com/xmlschemas/TrackPointExtension/v1">
            <gpxtpx:hr>105</gpxtpx:hr>
          </gpxtpx:TrackPointExtension>
        </extensions>
      </trkpt>
      <trkpt lat="43.07993" lon="1.34809">
        <ele>450.2</ele>
        <time>2023-03-05T13:35:47Z</time>
        <extensions>
          <gpxtpx:TrackPointExtension xmlns:gpxtpx="http://www.garmin.com/xmlschemas/TrackPointExtension/v1">
            <gpxtpx:hr>104</gpxtpx:hr>
          </gpxtpx:TrackPointExtension>
        </extensions>
      </trkpt>
      <trkpt lat="43.07993" lon="1.34819">
        <ele>448.8</ele>
        <time>2023-03-05T13:35:48Z</time>
        <extensions>
          <gpxtpx:TrackPointExtension xmlns:gpxtpx="http://www.garmin.com/xmlschemas/TrackPointExtension/v1">
            <gpxtpx:hr>103</gpxtpx:hr>
          </gpxtpx:TrackPointExtension>
        </extensions>
      </trkpt>
      <trkpt lat="43.07994" lon="1.34829">
        <ele>448.2</ele>
        <time>2023-03-05T13:35:49Z</time>
        <extensions>
          <gpxtpx:TrackPointExtension xmlns:gpxtpx="http://www.garmin.com/xmlschemas/TrackPointExtension/v1">
            <gpxtpx:hr>103</gpxtpx:hr>
          </gpxtpx:TrackPointExtension>
        </extensions>
      </trkpt>
      <trkpt lat="43.07993" lon="1.3484">
        <ele>447.6</ele>
        <time>2023-03-05T13:35:50Z</time>
        <extensions>
          <gpxtpx:TrackPointExtension xmlns:gpxtpx="http://www.garmin.com/xmlschemas/TrackPointExtension/v1">
            <gpxtpx:hr>102</gpxtpx:hr>
          </gpxtpx:TrackPointExtension>
        </extensions>
      </trkpt>
      <trkpt lat="43.07992" lon="1.3485">
        <ele>446.8</ele>
        <time>2023-03-05T13:35:51Z</time>
        <extensions>
          <gpxtpx:TrackPointExtension xmlns:gpxtpx="http://www.garmin.com/xmlschemas/TrackPointExtension/v1">
            <gpxtpx:hr>101</gpxtpx:hr>
          </gpxtpx:TrackPointExtension>
        </extensions>
      </trkpt>
      <trkpt lat="43.07992" lon="1.34861">
        <ele>446.4</ele>
        <time>2023-03-05T13:35:52Z</time>
        <extensions>
          <gpxtpx:TrackPointExtension xmlns:gpxtpx="http://www.garmin.com/xmlschemas/TrackPointExtension/v1">
            <gpxtpx:hr>101</gpxtpx:hr>
          </gpxtpx:TrackPointExtension>
        </extensions>
      </trkpt>
      <trkpt lat="43.07991" lon="1.34871">
        <ele>445.8</ele>
        <time>2023-03-05T13:35:53Z</time>
        <extensions>
          <gpxtpx:TrackPointExtension xmlns:gpxtpx="http://www.garmin.com/xmlschemas/TrackPointExtension/v1">
            <gpxtpx:hr>101</gpxtpx:hr>
          </gpxtpx:TrackPointExtension>
        </extensions>
      </trkpt>
      <trkpt lat="43.07991" lon="1.34881">
        <ele>445.2</ele>
        <time>2023-03-05T13:35:54Z</time>
        <extensions>
          <gpxtpx:TrackPointExtension xmlns:gpxtpx="http://www.garmin.com/xmlschemas/TrackPointExtension/v1">
            <gpxtpx:hr>101</gpxtpx:hr>
          </gpxtpx:TrackPointExtension>
        </extensions>
      </trkpt>
      <trkpt lat="43.07991" lon="1.34891">
        <ele>444.8</ele>
        <time>2023-03-05T13:35:55Z</time>
        <extensions>
          <gpxtpx:TrackPointExtension xmlns:gpxtpx="http://www.garmin.com/xmlschemas/TrackPointExtension/v1">
            <gpxtpx:hr>101</gpxtpx:hr>
          </gpxtpx:TrackPointExtension>
        </extensions>
      </trkpt>
      <trkpt lat="43.07992" lon="1.349">
        <ele>444.2</ele>
        <time>2023-03-05T13:35:56Z</time>
        <extensions>
          <gpxtpx:TrackPointExtension xmlns:gpxtpx="http://www.garmin.com/xmlschemas/TrackPointExtension/v1">
            <gpxtpx:hr>101</gpxtpx:hr>
          </gpxtpx:TrackPointExtension>
        </extensions>
      </trkpt>
      <trkpt lat="43.07992" lon="1.34929">
        <ele>444.2</ele>
        <time>2023-03-05T13:35:59Z</time>
        <extensions>
          <gpxtpx:TrackPointExtension xmlns:gpxtpx="http://www.garmin.com/xmlschemas/TrackPointExtension/v1">
            <gpxtpx:hr>99</gpxtpx:hr>
          </gpxtpx:TrackPointExtension>
        </extensions>
      </trkpt>
      <trkpt lat="43.07993" lon="1.34953">
        <ele>444.2</ele>
        <time>2023-03-05T13:36:02Z</time>
        <extensions>
          <gpxtpx:TrackPointExtension xmlns:gpxtpx="http://www.garmin.com/xmlschemas/TrackPointExtension/v1">
            <gpxtpx:hr>99</gpxtpx:hr>
          </gpxtpx:TrackPointExtension>
        </extensions>
      </trkpt>
      <trkpt lat="43.07994" lon="1.34965">
        <ele>444.2</ele>
        <time>2023-03-05T13:36:04Z</time>
        <extensions>
          <gpxtpx:TrackPointExtension xmlns:gpxtpx="http://www.garmin.com/xmlschemas/TrackPointExtension/v1">
            <gpxtpx:hr>98</gpxtpx:hr>
          </gpxtpx:TrackPointExtension>
        </extensions>
      </trkpt>
      <trkpt lat="43.07996" lon="1.34976">
        <ele>444.2</ele>
        <time>2023-03-05T13:36:06Z</time>
        <extensions>
          <gpxtpx:TrackPointExtension xmlns:gpxtpx="http://www.garmin.com/xmlschemas/TrackPointExtension/v1">
            <gpxtpx:hr>97</gpxtpx:hr>
          </gpxtpx:TrackPointExtension>
        </extensions>
      </trkpt>
      <trkpt lat="43.07998" lon="1.34982">
        <ele>444.2</ele>
        <time>2023-03-05T13:36:07Z</time>
        <extensions>
          <gpxtpx:TrackPointExtension xmlns:gpxtpx="http://www.garmin.com/xmlschemas/TrackPointExtension/v1">
            <gpxtpx:hr>97</gpxtpx:hr>
          </gpxtpx:TrackPointExtension>
        </extensions>
      </trkpt>
      <trkpt lat="43.07999" lon="1.34991">
        <ele>444.2</ele>
        <time>2023-03-05T13:36:09Z</time>
        <extensions>
          <gpxtpx:TrackPointExtension xmlns:gpxtpx="http://www.garmin.com/xmlschemas/TrackPointExtension/v1">
            <gpxtpx:hr>97</gpxtpx:hr>
          </gpxtpx:TrackPointExtension>
        </extensions>
      </trkpt>
      <trkpt lat="43.08002" lon="1.35005">
        <ele>443.4</ele>
        <time>2023-03-05T13:36:12Z</time>
        <extensions>
          <gpxtpx:TrackPointExtension xmlns:gpxtpx="http://www.garmin.com/xmlschemas/TrackPointExtension/v1">
            <gpxtpx:hr>99</gpxtpx:hr>
          </gpxtpx:TrackPointExtension>
        </extensions>
      </trkpt>
      <trkpt lat="43.08003" lon="1.35011">
        <ele>443</ele>
        <time>2023-03-05T13:36:13Z</time>
        <extensions>
          <gpxtpx:TrackPointExtension xmlns:gpxtpx="http://www.garmin.com/xmlschemas/TrackPointExtension/v1">
            <gpxtpx:hr>99</gpxtpx:hr>
          </gpxtpx:TrackPointExtension>
        </extensions>
      </trkpt>
      <trkpt lat="43.08003" lon="1.35018">
        <ele>442.6</ele>
        <time>2023-03-05T13:36:14Z</time>
        <extensions>
          <gpxtpx:TrackPointExtension xmlns:gpxtpx="http://www.garmin.com/xmlschemas/TrackPointExtension/v1">
            <gpxtpx:hr>99</gpxtpx:hr>
          </gpxtpx:TrackPointExtension>
        </extensions>
      </trkpt>
      <trkpt lat="43.08003" lon="1.35024">
        <ele>442.2</ele>
        <time>2023-03-05T13:36:15Z</time>
        <extensions>
          <gpxtpx:TrackPointExtension xmlns:gpxtpx="http://www.garmin.com/xmlschemas/TrackPointExtension/v1">
            <gpxtpx:hr>99</gpxtpx:hr>
          </gpxtpx:TrackPointExtension>
        </extensions>
      </trkpt>
      <trkpt lat="43.08007" lon="1.35059">
        <ele>442.2</ele>
        <time>2023-03-05T13:36:20Z</time>
        <extensions>
          <gpxtpx:TrackPointExtension xmlns:gpxtpx="http://www.garmin.com/xmlschemas/TrackPointExtension/v1">
            <gpxtpx:hr>97</gpxtpx:hr>
          </gpxtpx:TrackPointExtension>
        </extensions>
      </trkpt>
      <trkpt lat="43.08012" lon="1.35085">
        <ele>441.6</ele>
        <time>2023-03-05T13:36:24Z</time>
        <extensions>
          <gpxtpx:TrackPointExtension xmlns:gpxtpx="http://www.garmin.com/xmlschemas/TrackPointExtension/v1">
            <gpxtpx:hr>96</gpxtpx:hr>
          </gpxtpx:TrackPointExtension>
        </extensions>
      </trkpt>
      <trkpt lat="43.08013" lon="1.3509">
        <ele>441.2</ele>
        <time>2023-03-05T13:36:25Z</time>
        <extensions>
          <gpxtpx:TrackPointExtension xmlns:gpxtpx="http://www.garmin.com/xmlschemas/TrackPointExtension/v1">
            <gpxtpx:hr>96</gpxtpx:hr>
          </gpxtpx:TrackPointExtension>
        </extensions>
      </trkpt>
      <trkpt lat="43.08014" lon="1.35094">
        <ele>440.8</ele>
        <time>2023-03-05T13:36:26Z</time>
        <extensions>
          <gpxtpx:TrackPointExtension xmlns:gpxtpx="http://www.garmin.com/xmlschemas/TrackPointExtension/v1">
            <gpxtpx:hr>96</gpxtpx:hr>
          </gpxtpx:TrackPointExtension>
        </extensions>
      </trkpt>
      <trkpt lat="43.08017" lon="1.35096">
        <ele>440.4</ele>
        <time>2023-03-05T13:36:27Z</time>
        <extensions>
          <gpxtpx:TrackPointExtension xmlns:gpxtpx="http://www.garmin.com/xmlschemas/TrackPointExtension/v1">
            <gpxtpx:hr>96</gpxtpx:hr>
          </gpxtpx:TrackPointExtension>
        </extensions>
      </trkpt>
      <trkpt lat="43.0802" lon="1.35097">
        <ele>439.8</ele>
        <time>2023-03-05T13:36:28Z</time>
        <extensions>
          <gpxtpx:TrackPointExtension xmlns:gpxtpx="http://www.garmin.com/xmlschemas/TrackPointExtension/v1">
            <gpxtpx:hr>97</gpxtpx:hr>
          </gpxtpx:TrackPointExtension>
        </extensions>
      </trkpt>
      <trkpt lat="43.0802" lon="1.35097">
        <ele>439.8</ele>
        <time>2023-03-05T13:36:30Z</time>
        <extensions>
          <gpxtpx:TrackPointExtension xmlns:gpxtpx="http://www.garmin.com/xmlschemas/TrackPointExtension/v1">
            <gpxtpx:hr>97</gpxtpx:hr>
          </gpxtpx:TrackPointExtension>
        </extensions>
      </trkpt>
      <trkpt lat="43.08024" lon="1.35098">
        <ele>437.6</ele>
        <time>2023-03-05T13:36:50Z</time>
        <extensions>
          <gpxtpx:TrackPointExtension xmlns:gpxtpx="http://www.garmin.com/xmlschemas/TrackPointExtension/v1">
            <gpxtpx:hr>95</gpxtpx:hr>
          </gpxtpx:TrackPointExtension>
        </extensions>
      </trkpt>
      <trkpt lat="43.08036" lon="1.35091">
        <ele>437.6</ele>
        <time>2023-03-05T13:36:54Z</time>
        <extensions>
          <gpxtpx:TrackPointExtension xmlns:gpxtpx="http://www.garmin.com/xmlschemas/TrackPointExtension/v1">
            <gpxtpx:hr>97</gpxtpx:hr>
          </gpxtpx:TrackPointExtension>
        </extensions>
      </trkpt>
      <trkpt lat="43.08053" lon="1.35083">
        <ele>437.6</ele>
        <time>2023-03-05T13:36:59Z</time>
        <extensions>
          <gpxtpx:TrackPointExtension xmlns:gpxtpx="http://www.garmin.com/xmlschemas/TrackPointExtension/v1">
            <gpxtpx:hr>99</gpxtpx:hr>
          </gpxtpx:TrackPointExtension>
        </extensions>
      </trkpt>
      <trkpt lat="43.08078" lon="1.35076">
        <ele>437.6</ele>
        <time>2023-03-05T13:37:05Z</time>
        <extensions>
          <gpxtpx:TrackPointExtension xmlns:gpxtpx="http://www.garmin.com/xmlschemas/TrackPointExtension/v1">
            <gpxtpx:hr>99</gpxtpx:hr>
          </gpxtpx:TrackPointExtension>
        </extensions>
      </trkpt>
      <trkpt lat="43.08082" lon="1.35076">
        <ele>437.6</ele>
        <time>2023-03-05T13:37:06Z</time>
        <extensions>
          <gpxtpx:TrackPointExtension xmlns:gpxtpx="http://www.garmin.com/xmlschemas/TrackPointExtension/v1">
            <gpxtpx:hr>93</gpxtpx:hr>
          </gpxtpx:TrackPointExtension>
        </extensions>
      </trkpt>
      <trkpt lat="43.08086" lon="1.35076">
        <ele>437.6</ele>
        <time>2023-03-05T13:37:07Z</time>
        <extensions>
          <gpxtpx:TrackPointExtension xmlns:gpxtpx="http://www.garmin.com/xmlschemas/TrackPointExtension/v1">
            <gpxtpx:hr>93</gpxtpx:hr>
          </gpxtpx:TrackPointExtension>
        </extensions>
      </trkpt>
      <trkpt lat="43.08109" lon="1.35077">
        <ele>438</ele>
        <time>2023-03-05T13:37:12Z</time>
        <extensions>
          <gpxtpx:TrackPointExtension xmlns:gpxtpx="http://www.garmin.com/xmlschemas/TrackPointExtension/v1">
            <gpxtpx:hr>93</gpxtpx:hr>
          </gpxtpx:TrackPointExtension>
        </extensions>
      </trkpt>
      <trkpt lat="43.08114" lon="1.35078">
        <ele>438.4</ele>
        <time>2023-03-05T13:37:13Z</time>
        <extensions>
          <gpxtpx:TrackPointExtension xmlns:gpxtpx="http://www.garmin.com/xmlschemas/TrackPointExtension/v1">
            <gpxtpx:hr>93</gpxtpx:hr>
          </gpxtpx:TrackPointExtension>
        </extensions>
      </trkpt>
      <trkpt lat="43.08119" lon="1.35079">
        <ele>438.8</ele>
        <time>2023-03-05T13:37:14Z</time>
        <extensions>
          <gpxtpx:TrackPointExtension xmlns:gpxtpx="http://www.garmin.com/xmlschemas/TrackPointExtension/v1">
            <gpxtpx:hr>93</gpxtpx:hr>
          </gpxtpx:TrackPointExtension>
        </extensions>
      </trkpt>
      <trkpt lat="43.08123" lon="1.3508">
        <ele>439.2</ele>
        <time>2023-03-05T13:37:15Z</time>
        <extensions>
          <gpxtpx:TrackPointExtension xmlns:gpxtpx="http://www.garmin.com/xmlschemas/TrackPointExtension/v1">
            <gpxtpx:hr>93</gpxtpx:hr>
          </gpxtpx:TrackPointExtension>
        </extensions>
      </trkpt>
      <trkpt lat="43.08127" lon="1.3508">
        <ele>439.8</ele>
        <time>2023-03-05T13:37:16Z</time>
        <extensions>
          <gpxtpx:TrackPointExtension xmlns:gpxtpx="http://www.garmin.com/xmlschemas/TrackPointExtension/v1">
            <gpxtpx:hr>95</gpxtpx:hr>
          </gpxtpx:TrackPointExtension>
        </extensions>
      </trkpt>
      <trkpt lat="43.08144" lon="1.35084">
        <ele>439.8</ele>
        <time>2023-03-05T13:37:20Z</time>
        <extensions>
          <gpxtpx:TrackPointExtension xmlns:gpxtpx="http://www.garmin.com/xmlschemas/TrackPointExtension/v1">
            <gpxtpx:hr>95</gpxtpx:hr>
          </gpxtpx:TrackPointExtension>
        </extensions>
      </trkpt>
      <trkpt lat="43.08147" lon="1.35084">
        <ele>440.2</ele>
        <time>2023-03-05T13:37:21Z</time>
        <extensions>
          <gpxtpx:TrackPointExtension xmlns:gpxtpx="http://www.garmin.com/xmlschemas/TrackPointExtension/v1">
            <gpxtpx:hr>95</gpxtpx:hr>
          </gpxtpx:TrackPointExtension>
        </extensions>
      </trkpt>
      <trkpt lat="43.08151" lon="1.35085">
        <ele>440.6</ele>
        <time>2023-03-05T13:37:22Z</time>
        <extensions>
          <gpxtpx:TrackPointExtension xmlns:gpxtpx="http://www.garmin.com/xmlschemas/TrackPointExtension/v1">
            <gpxtpx:hr>95</gpxtpx:hr>
          </gpxtpx:TrackPointExtension>
        </extensions>
      </trkpt>
      <trkpt lat="43.08154" lon="1.35086">
        <ele>441</ele>
        <time>2023-03-05T13:37:23Z</time>
        <extensions>
          <gpxtpx:TrackPointExtension xmlns:gpxtpx="http://www.garmin.com/xmlschemas/TrackPointExtension/v1">
            <gpxtpx:hr>95</gpxtpx:hr>
          </gpxtpx:TrackPointExtension>
        </extensions>
      </trkpt>
      <trkpt lat="43.08158" lon="1.35086">
        <ele>441.6</ele>
        <time>2023-03-05T13:37:24Z</time>
        <extensions>
          <gpxtpx:TrackPointExtension xmlns:gpxtpx="http://www.garmin.com/xmlschemas/TrackPointExtension/v1">
            <gpxtpx:hr>95</gpxtpx:hr>
          </gpxtpx:TrackPointExtension>
        </extensions>
      </trkpt>
      <trkpt lat="43.08162" lon="1.35086">
        <ele>442</ele>
        <time>2023-03-05T13:37:25Z</time>
        <extensions>
          <gpxtpx:TrackPointExtension xmlns:gpxtpx="http://www.garmin.com/xmlschemas/TrackPointExtension/v1">
            <gpxtpx:hr>95</gpxtpx:hr>
          </gpxtpx:TrackPointExtension>
        </extensions>
      </trkpt>
      <trkpt lat="43.08166" lon="1.35086">
        <ele>442</ele>
        <time>2023-03-05T13:37:26Z</time>
        <extensions>
          <gpxtpx:TrackPointExtension xmlns:gpxtpx="http://www.garmin.com/xmlschemas/TrackPointExtension/v1">
            <gpxtpx:hr>95</gpxtpx:hr>
          </gpxtpx:TrackPointExtension>
        </extensions>
      </trkpt>
      <trkpt lat="43.08175" lon="1.35086">
        <ele>442</ele>
        <time>2023-03-05T13:37:28Z</time>
        <extensions>
          <gpxtpx:TrackPointExtension xmlns:gpxtpx="http://www.garmin.com/xmlschemas/TrackPointExtension/v1">
            <gpxtpx:hr>95</gpxtpx:hr>
          </gpxtpx:TrackPointExtension>
        </extensions>
      </trkpt>
      <trkpt lat="43.08185" lon="1.35086">
        <ele>442</ele>
        <time>2023-03-05T13:37:31Z</time>
        <extensions>
          <gpxtpx:TrackPointExtension xmlns:gpxtpx="http://www.garmin.com/xmlschemas/TrackPointExtension/v1">
            <gpxtpx:hr>95</gpxtpx:hr>
          </gpxtpx:TrackPointExtension>
        </extensions>
      </trkpt>
      <trkpt lat="43.08191" lon="1.35086">
        <ele>442</ele>
        <time>2023-03-05T13:37:32Z</time>
        <extensions>
          <gpxtpx:TrackPointExtension xmlns:gpxtpx="http://www.garmin.com/xmlschemas/TrackPointExtension/v1">
            <gpxtpx:hr>95</gpxtpx:hr>
          </gpxtpx:TrackPointExtension>
        </extensions>
      </trkpt>
      <trkpt lat="43.08209" lon="1.3509">
        <ele>442</ele>
        <time>2023-03-05T13:37:38Z</time>
        <extensions>
          <gpxtpx:TrackPointExtension xmlns:gpxtpx="http://www.garmin.com/xmlschemas/TrackPointExtension/v1">
            <gpxtpx:hr>95</gpxtpx:hr>
          </gpxtpx:TrackPointExtension>
        </extensions>
      </trkpt>
      <trkpt lat="43.08237" lon="1.35092">
        <ele>442</ele>
        <time>2023-03-05T13:37:45Z</time>
        <extensions>
          <gpxtpx:TrackPointExtension xmlns:gpxtpx="http://www.garmin.com/xmlschemas/TrackPointExtension/v1">
            <gpxtpx:hr>95</gpxtpx:hr>
          </gpxtpx:TrackPointExtension>
        </extensions>
      </trkpt>
      <trkpt lat="43.0824" lon="1.35092">
        <ele>442.4</ele>
        <time>2023-03-05T13:37:46Z</time>
        <extensions>
          <gpxtpx:TrackPointExtension xmlns:gpxtpx="http://www.garmin.com/xmlschemas/TrackPointExtension/v1">
            <gpxtpx:hr>95</gpxtpx:hr>
          </gpxtpx:TrackPointExtension>
        </extensions>
      </trkpt>
      <trkpt lat="43.08244" lon="1.35092">
        <ele>442.8</ele>
        <time>2023-03-05T13:37:47Z</time>
        <extensions>
          <gpxtpx:TrackPointExtension xmlns:gpxtpx="http://www.garmin.com/xmlschemas/TrackPointExtension/v1">
            <gpxtpx:hr>91</gpxtpx:hr>
          </gpxtpx:TrackPointExtension>
        </extensions>
      </trkpt>
      <trkpt lat="43.08248" lon="1.35092">
        <ele>443.2</ele>
        <time>2023-03-05T13:37:48Z</time>
        <extensions>
          <gpxtpx:TrackPointExtension xmlns:gpxtpx="http://www.garmin.com/xmlschemas/TrackPointExtension/v1">
            <gpxtpx:hr>91</gpxtpx:hr>
          </gpxtpx:TrackPointExtension>
        </extensions>
      </trkpt>
      <trkpt lat="43.08252" lon="1.35093">
        <ele>443.6</ele>
        <time>2023-03-05T13:37:49Z</time>
        <extensions>
          <gpxtpx:TrackPointExtension xmlns:gpxtpx="http://www.garmin.com/xmlschemas/TrackPointExtension/v1">
            <gpxtpx:hr>91</gpxtpx:hr>
          </gpxtpx:TrackPointExtension>
        </extensions>
      </trkpt>
      <trkpt lat="43.08256" lon="1.35093">
        <ele>444</ele>
        <time>2023-03-05T13:37:50Z</time>
        <extensions>
          <gpxtpx:TrackPointExtension xmlns:gpxtpx="http://www.garmin.com/xmlschemas/TrackPointExtension/v1">
            <gpxtpx:hr>91</gpxtpx:hr>
          </gpxtpx:TrackPointExtension>
        </extensions>
      </trkpt>
      <trkpt lat="43.08264" lon="1.35095">
        <ele>444</ele>
        <time>2023-03-05T13:37:52Z</time>
        <extensions>
          <gpxtpx:TrackPointExtension xmlns:gpxtpx="http://www.garmin.com/xmlschemas/TrackPointExtension/v1">
            <gpxtpx:hr>91</gpxtpx:hr>
          </gpxtpx:TrackPointExtension>
        </extensions>
      </trkpt>
      <trkpt lat="43.08296" lon="1.35103">
        <ele>444</ele>
        <time>2023-03-05T13:38:00Z</time>
        <extensions>
          <gpxtpx:TrackPointExtension xmlns:gpxtpx="http://www.garmin.com/xmlschemas/TrackPointExtension/v1">
            <gpxtpx:hr>91</gpxtpx:hr>
          </gpxtpx:TrackPointExtension>
        </extensions>
      </trkpt>
      <trkpt lat="43.08312" lon="1.35107">
        <ele>444</ele>
        <time>2023-03-05T13:38:04Z</time>
        <extensions>
          <gpxtpx:TrackPointExtension xmlns:gpxtpx="http://www.garmin.com/xmlschemas/TrackPointExtension/v1">
            <gpxtpx:hr>91</gpxtpx:hr>
          </gpxtpx:TrackPointExtension>
        </extensions>
      </trkpt>
      <trkpt lat="43.0832" lon="1.3511">
        <ele>444</ele>
        <time>2023-03-05T13:38:06Z</time>
        <extensions>
          <gpxtpx:TrackPointExtension xmlns:gpxtpx="http://www.garmin.com/xmlschemas/TrackPointExtension/v1">
            <gpxtpx:hr>91</gpxtpx:hr>
          </gpxtpx:TrackPointExtension>
        </extensions>
      </trkpt>
      <trkpt lat="43.08338" lon="1.35113">
        <ele>444.4</ele>
        <time>2023-03-05T13:38:11Z</time>
        <extensions>
          <gpxtpx:TrackPointExtension xmlns:gpxtpx="http://www.garmin.com/xmlschemas/TrackPointExtension/v1">
            <gpxtpx:hr>91</gpxtpx:hr>
          </gpxtpx:TrackPointExtension>
        </extensions>
      </trkpt>
      <trkpt lat="43.08342" lon="1.35114">
        <ele>444.8</ele>
        <time>2023-03-05T13:38:12Z</time>
        <extensions>
          <gpxtpx:TrackPointExtension xmlns:gpxtpx="http://www.garmin.com/xmlschemas/TrackPointExtension/v1">
            <gpxtpx:hr>91</gpxtpx:hr>
          </gpxtpx:TrackPointExtension>
        </extensions>
      </trkpt>
      <trkpt lat="43.08345" lon="1.35115">
        <ele>445.2</ele>
        <time>2023-03-05T13:38:13Z</time>
        <extensions>
          <gpxtpx:TrackPointExtension xmlns:gpxtpx="http://www.garmin.com/xmlschemas/TrackPointExtension/v1">
            <gpxtpx:hr>91</gpxtpx:hr>
          </gpxtpx:TrackPointExtension>
        </extensions>
      </trkpt>
      <trkpt lat="43.08349" lon="1.35116">
        <ele>445.6</ele>
        <time>2023-03-05T13:38:14Z</time>
        <extensions>
          <gpxtpx:TrackPointExtension xmlns:gpxtpx="http://www.garmin.com/xmlschemas/TrackPointExtension/v1">
            <gpxtpx:hr>91</gpxtpx:hr>
          </gpxtpx:TrackPointExtension>
        </extensions>
      </trkpt>
      <trkpt lat="43.08353" lon="1.35118">
        <ele>446</ele>
        <time>2023-03-05T13:38:15Z</time>
        <extensions>
          <gpxtpx:TrackPointExtension xmlns:gpxtpx="http://www.garmin.com/xmlschemas/TrackPointExtension/v1">
            <gpxtpx:hr>91</gpxtpx:hr>
          </gpxtpx:TrackPointExtension>
        </extensions>
      </trkpt>
      <trkpt lat="43.08366" lon="1.35122">
        <ele>446</ele>
        <time>2023-03-05T13:38:19Z</time>
        <extensions>
          <gpxtpx:TrackPointExtension xmlns:gpxtpx="http://www.garmin.com/xmlschemas/TrackPointExtension/v1">
            <gpxtpx:hr>86</gpxtpx:hr>
          </gpxtpx:TrackPointExtension>
        </extensions>
      </trkpt>
      <trkpt lat="43.0837" lon="1.35123">
        <ele>446</ele>
        <time>2023-03-05T13:38:20Z</time>
        <extensions>
          <gpxtpx:TrackPointExtension xmlns:gpxtpx="http://www.garmin.com/xmlschemas/TrackPointExtension/v1">
            <gpxtpx:hr>86</gpxtpx:hr>
          </gpxtpx:TrackPointExtension>
        </extensions>
      </trkpt>
      <trkpt lat="43.0839" lon="1.35126">
        <ele>446</ele>
        <time>2023-03-05T13:38:25Z</time>
        <extensions>
          <gpxtpx:TrackPointExtension xmlns:gpxtpx="http://www.garmin.com/xmlschemas/TrackPointExtension/v1">
            <gpxtpx:hr>86</gpxtpx:hr>
          </gpxtpx:TrackPointExtension>
        </extensions>
      </trkpt>
      <trkpt lat="43.0842" lon="1.35126">
        <ele>446</ele>
        <time>2023-03-05T13:38:32Z</time>
        <extensions>
          <gpxtpx:TrackPointExtension xmlns:gpxtpx="http://www.garmin.com/xmlschemas/TrackPointExtension/v1">
            <gpxtpx:hr>86</gpxtpx:hr>
          </gpxtpx:TrackPointExtension>
        </extensions>
      </trkpt>
      <trkpt lat="43.08444" lon="1.35122">
        <ele>446</ele>
        <time>2023-03-05T13:38:38Z</time>
      </trkpt>
      <trkpt lat="43.08462" lon="1.35119">
        <ele>446</ele>
        <time>2023-03-05T13:38:43Z</time>
        <extensions>
          <gpxtpx:TrackPointExtension xmlns:gpxtpx="http://www.garmin.com/xmlschemas/TrackPointExtension/v1">
            <gpxtpx:hr>94</gpxtpx:hr>
          </gpxtpx:TrackPointExtension>
        </extensions>
      </trkpt>
      <trkpt lat="43.08465" lon="1.35118">
        <ele>446</ele>
        <time>2023-03-05T13:38:44Z</time>
        <extensions>
          <gpxtpx:TrackPointExtension xmlns:gpxtpx="http://www.garmin.com/xmlschemas/TrackPointExtension/v1">
            <gpxtpx:hr>94</gpxtpx:hr>
          </gpxtpx:TrackPointExtension>
        </extensions>
      </trkpt>
      <trkpt lat="43.08478" lon="1.35119">
        <ele>446.4</ele>
        <time>2023-03-05T13:38:47Z</time>
        <extensions>
          <gpxtpx:TrackPointExtension xmlns:gpxtpx="http://www.garmin.com/xmlschemas/TrackPointExtension/v1">
            <gpxtpx:hr>94</gpxtpx:hr>
          </gpxtpx:TrackPointExtension>
        </extensions>
      </trkpt>
      <trkpt lat="43.08481" lon="1.35119">
        <ele>446.8</ele>
        <time>2023-03-05T13:38:48Z</time>
        <extensions>
          <gpxtpx:TrackPointExtension xmlns:gpxtpx="http://www.garmin.com/xmlschemas/TrackPointExtension/v1">
            <gpxtpx:hr>94</gpxtpx:hr>
          </gpxtpx:TrackPointExtension>
        </extensions>
      </trkpt>
      <trkpt lat="43.08485" lon="1.35119">
        <ele>447.2</ele>
        <time>2023-03-05T13:38:49Z</time>
        <extensions>
          <gpxtpx:TrackPointExtension xmlns:gpxtpx="http://www.garmin.com/xmlschemas/TrackPointExtension/v1">
            <gpxtpx:hr>94</gpxtpx:hr>
          </gpxtpx:TrackPointExtension>
        </extensions>
      </trkpt>
      <trkpt lat="43.08489" lon="1.35119">
        <ele>447.6</ele>
        <time>2023-03-05T13:38:50Z</time>
        <extensions>
          <gpxtpx:TrackPointExtension xmlns:gpxtpx="http://www.garmin.com/xmlschemas/TrackPointExtension/v1">
            <gpxtpx:hr>94</gpxtpx:hr>
          </gpxtpx:TrackPointExtension>
        </extensions>
      </trkpt>
      <trkpt lat="43.08493" lon="1.35119">
        <ele>448</ele>
        <time>2023-03-05T13:38:51Z</time>
        <extensions>
          <gpxtpx:TrackPointExtension xmlns:gpxtpx="http://www.garmin.com/xmlschemas/TrackPointExtension/v1">
            <gpxtpx:hr>94</gpxtpx:hr>
          </gpxtpx:TrackPointExtension>
        </extensions>
      </trkpt>
      <trkpt lat="43.08497" lon="1.35119">
        <ele>448</ele>
        <time>2023-03-05T13:38:52Z</time>
        <extensions>
          <gpxtpx:TrackPointExtension xmlns:gpxtpx="http://www.garmin.com/xmlschemas/TrackPointExtension/v1">
            <gpxtpx:hr>94</gpxtpx:hr>
          </gpxtpx:TrackPointExtension>
        </extensions>
      </trkpt>
      <trkpt lat="43.08506" lon="1.35121">
        <ele>448</ele>
        <time>2023-03-05T13:38:54Z</time>
        <extensions>
          <gpxtpx:TrackPointExtension xmlns:gpxtpx="http://www.garmin.com/xmlschemas/TrackPointExtension/v1">
            <gpxtpx:hr>94</gpxtpx:hr>
          </gpxtpx:TrackPointExtension>
        </extensions>
      </trkpt>
      <trkpt lat="43.08523" lon="1.35123">
        <ele>448</ele>
        <time>2023-03-05T13:38:58Z</time>
        <extensions>
          <gpxtpx:TrackPointExtension xmlns:gpxtpx="http://www.garmin.com/xmlschemas/TrackPointExtension/v1">
            <gpxtpx:hr>94</gpxtpx:hr>
          </gpxtpx:TrackPointExtension>
        </extensions>
      </trkpt>
      <trkpt lat="43.08527" lon="1.35123">
        <ele>448</ele>
        <time>2023-03-05T13:38:59Z</time>
        <extensions>
          <gpxtpx:TrackPointExtension xmlns:gpxtpx="http://www.garmin.com/xmlschemas/TrackPointExtension/v1">
            <gpxtpx:hr>94</gpxtpx:hr>
          </gpxtpx:TrackPointExtension>
        </extensions>
      </trkpt>
      <trkpt lat="43.08531" lon="1.35124">
        <ele>448</ele>
        <time>2023-03-05T13:39:00Z</time>
        <extensions>
          <gpxtpx:TrackPointExtension xmlns:gpxtpx="http://www.garmin.com/xmlschemas/TrackPointExtension/v1">
            <gpxtpx:hr>97</gpxtpx:hr>
          </gpxtpx:TrackPointExtension>
        </extensions>
      </trkpt>
      <trkpt lat="43.08536" lon="1.35124">
        <ele>448</ele>
        <time>2023-03-05T13:39:01Z</time>
        <extensions>
          <gpxtpx:TrackPointExtension xmlns:gpxtpx="http://www.garmin.com/xmlschemas/TrackPointExtension/v1">
            <gpxtpx:hr>101</gpxtpx:hr>
          </gpxtpx:TrackPointExtension>
        </extensions>
      </trkpt>
      <trkpt lat="43.0854" lon="1.35125">
        <ele>448</ele>
        <time>2023-03-05T13:39:02Z</time>
        <extensions>
          <gpxtpx:TrackPointExtension xmlns:gpxtpx="http://www.garmin.com/xmlschemas/TrackPointExtension/v1">
            <gpxtpx:hr>101</gpxtpx:hr>
          </gpxtpx:TrackPointExtension>
        </extensions>
      </trkpt>
      <trkpt lat="43.08545" lon="1.35125">
        <ele>448</ele>
        <time>2023-03-05T13:39:03Z</time>
        <extensions>
          <gpxtpx:TrackPointExtension xmlns:gpxtpx="http://www.garmin.com/xmlschemas/TrackPointExtension/v1">
            <gpxtpx:hr>101</gpxtpx:hr>
          </gpxtpx:TrackPointExtension>
        </extensions>
      </trkpt>
      <trkpt lat="43.08551" lon="1.35124">
        <ele>448</ele>
        <time>2023-03-05T13:39:04Z</time>
        <extensions>
          <gpxtpx:TrackPointExtension xmlns:gpxtpx="http://www.garmin.com/xmlschemas/TrackPointExtension/v1">
            <gpxtpx:hr>103</gpxtpx:hr>
          </gpxtpx:TrackPointExtension>
        </extensions>
      </trkpt>
      <trkpt lat="43.08556" lon="1.35122">
        <ele>448</ele>
        <time>2023-03-05T13:39:05Z</time>
        <extensions>
          <gpxtpx:TrackPointExtension xmlns:gpxtpx="http://www.garmin.com/xmlschemas/TrackPointExtension/v1">
            <gpxtpx:hr>106</gpxtpx:hr>
          </gpxtpx:TrackPointExtension>
        </extensions>
      </trkpt>
      <trkpt lat="43.08561" lon="1.3512">
        <ele>448</ele>
        <time>2023-03-05T13:39:06Z</time>
        <extensions>
          <gpxtpx:TrackPointExtension xmlns:gpxtpx="http://www.garmin.com/xmlschemas/TrackPointExtension/v1">
            <gpxtpx:hr>106</gpxtpx:hr>
          </gpxtpx:TrackPointExtension>
        </extensions>
      </trkpt>
      <trkpt lat="43.08576" lon="1.35113">
        <ele>447.6</ele>
        <time>2023-03-05T13:39:09Z</time>
        <extensions>
          <gpxtpx:TrackPointExtension xmlns:gpxtpx="http://www.garmin.com/xmlschemas/TrackPointExtension/v1">
            <gpxtpx:hr>106</gpxtpx:hr>
          </gpxtpx:TrackPointExtension>
        </extensions>
      </trkpt>
      <trkpt lat="43.0858" lon="1.3511">
        <ele>447.2</ele>
        <time>2023-03-05T13:39:10Z</time>
        <extensions>
          <gpxtpx:TrackPointExtension xmlns:gpxtpx="http://www.garmin.com/xmlschemas/TrackPointExtension/v1">
            <gpxtpx:hr>106</gpxtpx:hr>
          </gpxtpx:TrackPointExtension>
        </extensions>
      </trkpt>
      <trkpt lat="43.08584" lon="1.35107">
        <ele>446.8</ele>
        <time>2023-03-05T13:39:11Z</time>
        <extensions>
          <gpxtpx:TrackPointExtension xmlns:gpxtpx="http://www.garmin.com/xmlschemas/TrackPointExtension/v1">
            <gpxtpx:hr>106</gpxtpx:hr>
          </gpxtpx:TrackPointExtension>
        </extensions>
      </trkpt>
      <trkpt lat="43.08588" lon="1.35104">
        <ele>446.4</ele>
        <time>2023-03-05T13:39:12Z</time>
        <extensions>
          <gpxtpx:TrackPointExtension xmlns:gpxtpx="http://www.garmin.com/xmlschemas/TrackPointExtension/v1">
            <gpxtpx:hr>106</gpxtpx:hr>
          </gpxtpx:TrackPointExtension>
        </extensions>
      </trkpt>
      <trkpt lat="43.08592" lon="1.35102">
        <ele>446</ele>
        <time>2023-03-05T13:39:13Z</time>
        <extensions>
          <gpxtpx:TrackPointExtension xmlns:gpxtpx="http://www.garmin.com/xmlschemas/TrackPointExtension/v1">
            <gpxtpx:hr>105</gpxtpx:hr>
          </gpxtpx:TrackPointExtension>
        </extensions>
      </trkpt>
      <trkpt lat="43.08602" lon="1.35094">
        <ele>446</ele>
        <time>2023-03-05T13:39:16Z</time>
        <extensions>
          <gpxtpx:TrackPointExtension xmlns:gpxtpx="http://www.garmin.com/xmlschemas/TrackPointExtension/v1">
            <gpxtpx:hr>105</gpxtpx:hr>
          </gpxtpx:TrackPointExtension>
        </extensions>
      </trkpt>
      <trkpt lat="43.08621" lon="1.35079">
        <ele>446</ele>
        <time>2023-03-05T13:39:22Z</time>
        <extensions>
          <gpxtpx:TrackPointExtension xmlns:gpxtpx="http://www.garmin.com/xmlschemas/TrackPointExtension/v1">
            <gpxtpx:hr>105</gpxtpx:hr>
          </gpxtpx:TrackPointExtension>
        </extensions>
      </trkpt>
      <trkpt lat="43.08648" lon="1.35058">
        <ele>446</ele>
        <time>2023-03-05T13:39:30Z</time>
        <extensions>
          <gpxtpx:TrackPointExtension xmlns:gpxtpx="http://www.garmin.com/xmlschemas/TrackPointExtension/v1">
            <gpxtpx:hr>106</gpxtpx:hr>
          </gpxtpx:TrackPointExtension>
        </extensions>
      </trkpt>
      <trkpt lat="43.08672" lon="1.35049">
        <ele>446.4</ele>
        <time>2023-03-05T13:39:37Z</time>
        <extensions>
          <gpxtpx:TrackPointExtension xmlns:gpxtpx="http://www.garmin.com/xmlschemas/TrackPointExtension/v1">
            <gpxtpx:hr>106</gpxtpx:hr>
          </gpxtpx:TrackPointExtension>
        </extensions>
      </trkpt>
      <trkpt lat="43.08675" lon="1.35048">
        <ele>447</ele>
        <time>2023-03-05T13:39:38Z</time>
        <extensions>
          <gpxtpx:TrackPointExtension xmlns:gpxtpx="http://www.garmin.com/xmlschemas/TrackPointExtension/v1">
            <gpxtpx:hr>106</gpxtpx:hr>
          </gpxtpx:TrackPointExtension>
        </extensions>
      </trkpt>
      <trkpt lat="43.08679" lon="1.35047">
        <ele>447.4</ele>
        <time>2023-03-05T13:39:39Z</time>
        <extensions>
          <gpxtpx:TrackPointExtension xmlns:gpxtpx="http://www.garmin.com/xmlschemas/TrackPointExtension/v1">
            <gpxtpx:hr>106</gpxtpx:hr>
          </gpxtpx:TrackPointExtension>
        </extensions>
      </trkpt>
      <trkpt lat="43.08682" lon="1.35047">
        <ele>447.8</ele>
        <time>2023-03-05T13:39:40Z</time>
        <extensions>
          <gpxtpx:TrackPointExtension xmlns:gpxtpx="http://www.garmin.com/xmlschemas/TrackPointExtension/v1">
            <gpxtpx:hr>107</gpxtpx:hr>
          </gpxtpx:TrackPointExtension>
        </extensions>
      </trkpt>
      <trkpt lat="43.08684" lon="1.35048">
        <ele>448.4</ele>
        <time>2023-03-05T13:39:41Z</time>
        <extensions>
          <gpxtpx:TrackPointExtension xmlns:gpxtpx="http://www.garmin.com/xmlschemas/TrackPointExtension/v1">
            <gpxtpx:hr>108</gpxtpx:hr>
          </gpxtpx:TrackPointExtension>
        </extensions>
      </trkpt>
      <trkpt lat="43.08687" lon="1.3505">
        <ele>448.4</ele>
        <time>2023-03-05T13:39:42Z</time>
        <extensions>
          <gpxtpx:TrackPointExtension xmlns:gpxtpx="http://www.garmin.com/xmlschemas/TrackPointExtension/v1">
            <gpxtpx:hr>108</gpxtpx:hr>
          </gpxtpx:TrackPointExtension>
        </extensions>
      </trkpt>
      <trkpt lat="43.08692" lon="1.35054">
        <ele>448.8</ele>
        <time>2023-03-05T13:39:44Z</time>
        <extensions>
          <gpxtpx:TrackPointExtension xmlns:gpxtpx="http://www.garmin.com/xmlschemas/TrackPointExtension/v1">
            <gpxtpx:hr>108</gpxtpx:hr>
          </gpxtpx:TrackPointExtension>
        </extensions>
      </trkpt>
      <trkpt lat="43.08694" lon="1.35056">
        <ele>449.2</ele>
        <time>2023-03-05T13:39:45Z</time>
        <extensions>
          <gpxtpx:TrackPointExtension xmlns:gpxtpx="http://www.garmin.com/xmlschemas/TrackPointExtension/v1">
            <gpxtpx:hr>108</gpxtpx:hr>
          </gpxtpx:TrackPointExtension>
        </extensions>
      </trkpt>
      <trkpt lat="43.08697" lon="1.35058">
        <ele>449.6</ele>
        <time>2023-03-05T13:39:46Z</time>
        <extensions>
          <gpxtpx:TrackPointExtension xmlns:gpxtpx="http://www.garmin.com/xmlschemas/TrackPointExtension/v1">
            <gpxtpx:hr>108</gpxtpx:hr>
          </gpxtpx:TrackPointExtension>
        </extensions>
      </trkpt>
      <trkpt lat="43.08699" lon="1.3506">
        <ele>450</ele>
        <time>2023-03-05T13:39:47Z</time>
        <extensions>
          <gpxtpx:TrackPointExtension xmlns:gpxtpx="http://www.garmin.com/xmlschemas/TrackPointExtension/v1">
            <gpxtpx:hr>108</gpxtpx:hr>
          </gpxtpx:TrackPointExtension>
        </extensions>
      </trkpt>
      <trkpt lat="43.08702" lon="1.35062">
        <ele>450.6</ele>
        <time>2023-03-05T13:39:48Z</time>
        <extensions>
          <gpxtpx:TrackPointExtension xmlns:gpxtpx="http://www.garmin.com/xmlschemas/TrackPointExtension/v1">
            <gpxtpx:hr>108</gpxtpx:hr>
          </gpxtpx:TrackPointExtension>
        </extensions>
      </trkpt>
      <trkpt lat="43.08708" lon="1.35064">
        <ele>451</ele>
        <time>2023-03-05T13:39:50Z</time>
        <extensions>
          <gpxtpx:TrackPointExtension xmlns:gpxtpx="http://www.garmin.com/xmlschemas/TrackPointExtension/v1">
            <gpxtpx:hr>108</gpxtpx:hr>
          </gpxtpx:TrackPointExtension>
        </extensions>
      </trkpt>
      <trkpt lat="43.08711" lon="1.35065">
        <ele>451.4</ele>
        <time>2023-03-05T13:39:51Z</time>
        <extensions>
          <gpxtpx:TrackPointExtension xmlns:gpxtpx="http://www.garmin.com/xmlschemas/TrackPointExtension/v1">
            <gpxtpx:hr>108</gpxtpx:hr>
          </gpxtpx:TrackPointExtension>
        </extensions>
      </trkpt>
      <trkpt lat="43.08714" lon="1.35066">
        <ele>451.8</ele>
        <time>2023-03-05T13:39:52Z</time>
        <extensions>
          <gpxtpx:TrackPointExtension xmlns:gpxtpx="http://www.garmin.com/xmlschemas/TrackPointExtension/v1">
            <gpxtpx:hr>108</gpxtpx:hr>
          </gpxtpx:TrackPointExtension>
        </extensions>
      </trkpt>
      <trkpt lat="43.08716" lon="1.35065">
        <ele>452.2</ele>
        <time>2023-03-05T13:39:53Z</time>
        <extensions>
          <gpxtpx:TrackPointExtension xmlns:gpxtpx="http://www.garmin.com/xmlschemas/TrackPointExtension/v1">
            <gpxtpx:hr>108</gpxtpx:hr>
          </gpxtpx:TrackPointExtension>
        </extensions>
      </trkpt>
      <trkpt lat="43.08718" lon="1.35066">
        <ele>452.6</ele>
        <time>2023-03-05T13:39:54Z</time>
        <extensions>
          <gpxtpx:TrackPointExtension xmlns:gpxtpx="http://www.garmin.com/xmlschemas/TrackPointExtension/v1">
            <gpxtpx:hr>108</gpxtpx:hr>
          </gpxtpx:TrackPointExtension>
        </extensions>
      </trkpt>
      <trkpt lat="43.0872" lon="1.35066">
        <ele>452.6</ele>
        <time>2023-03-05T13:39:55Z</time>
        <extensions>
          <gpxtpx:TrackPointExtension xmlns:gpxtpx="http://www.garmin.com/xmlschemas/TrackPointExtension/v1">
            <gpxtpx:hr>108</gpxtpx:hr>
          </gpxtpx:TrackPointExtension>
        </extensions>
      </trkpt>
      <trkpt lat="43.08725" lon="1.35067">
        <ele>453</ele>
        <time>2023-03-05T13:39:57Z</time>
        <extensions>
          <gpxtpx:TrackPointExtension xmlns:gpxtpx="http://www.garmin.com/xmlschemas/TrackPointExtension/v1">
            <gpxtpx:hr>108</gpxtpx:hr>
          </gpxtpx:TrackPointExtension>
        </extensions>
      </trkpt>
      <trkpt lat="43.08727" lon="1.35067">
        <ele>453.6</ele>
        <time>2023-03-05T13:39:58Z</time>
        <extensions>
          <gpxtpx:TrackPointExtension xmlns:gpxtpx="http://www.garmin.com/xmlschemas/TrackPointExtension/v1">
            <gpxtpx:hr>108</gpxtpx:hr>
          </gpxtpx:TrackPointExtension>
        </extensions>
      </trkpt>
      <trkpt lat="43.08729" lon="1.35068">
        <ele>454</ele>
        <time>2023-03-05T13:39:59Z</time>
        <extensions>
          <gpxtpx:TrackPointExtension xmlns:gpxtpx="http://www.garmin.com/xmlschemas/TrackPointExtension/v1">
            <gpxtpx:hr>108</gpxtpx:hr>
          </gpxtpx:TrackPointExtension>
        </extensions>
      </trkpt>
      <trkpt lat="43.08731" lon="1.35068">
        <ele>454.4</ele>
        <time>2023-03-05T13:40:00Z</time>
        <extensions>
          <gpxtpx:TrackPointExtension xmlns:gpxtpx="http://www.garmin.com/xmlschemas/TrackPointExtension/v1">
            <gpxtpx:hr>108</gpxtpx:hr>
          </gpxtpx:TrackPointExtension>
        </extensions>
      </trkpt>
      <trkpt lat="43.08734" lon="1.35068">
        <ele>454.8</ele>
        <time>2023-03-05T13:40:01Z</time>
        <extensions>
          <gpxtpx:TrackPointExtension xmlns:gpxtpx="http://www.garmin.com/xmlschemas/TrackPointExtension/v1">
            <gpxtpx:hr>108</gpxtpx:hr>
          </gpxtpx:TrackPointExtension>
        </extensions>
      </trkpt>
      <trkpt lat="43.08738" lon="1.35069">
        <ele>454.8</ele>
        <time>2023-03-05T13:40:03Z</time>
        <extensions>
          <gpxtpx:TrackPointExtension xmlns:gpxtpx="http://www.garmin.com/xmlschemas/TrackPointExtension/v1">
            <gpxtpx:hr>108</gpxtpx:hr>
          </gpxtpx:TrackPointExtension>
        </extensions>
      </trkpt>
      <trkpt lat="43.0874" lon="1.35068">
        <ele>455.2</ele>
        <time>2023-03-05T13:40:04Z</time>
        <extensions>
          <gpxtpx:TrackPointExtension xmlns:gpxtpx="http://www.garmin.com/xmlschemas/TrackPointExtension/v1">
            <gpxtpx:hr>108</gpxtpx:hr>
          </gpxtpx:TrackPointExtension>
        </extensions>
      </trkpt>
      <trkpt lat="43.08742" lon="1.35068">
        <ele>455.6</ele>
        <time>2023-03-05T13:40:05Z</time>
        <extensions>
          <gpxtpx:TrackPointExtension xmlns:gpxtpx="http://www.garmin.com/xmlschemas/TrackPointExtension/v1">
            <gpxtpx:hr>108</gpxtpx:hr>
          </gpxtpx:TrackPointExtension>
        </extensions>
      </trkpt>
      <trkpt lat="43.08744" lon="1.35068">
        <ele>456.2</ele>
        <time>2023-03-05T13:40:06Z</time>
        <extensions>
          <gpxtpx:TrackPointExtension xmlns:gpxtpx="http://www.garmin.com/xmlschemas/TrackPointExtension/v1">
            <gpxtpx:hr>108</gpxtpx:hr>
          </gpxtpx:TrackPointExtension>
        </extensions>
      </trkpt>
      <trkpt lat="43.08745" lon="1.35066">
        <ele>456.6</ele>
        <time>2023-03-05T13:40:07Z</time>
        <extensions>
          <gpxtpx:TrackPointExtension xmlns:gpxtpx="http://www.garmin.com/xmlschemas/TrackPointExtension/v1">
            <gpxtpx:hr>108</gpxtpx:hr>
          </gpxtpx:TrackPointExtension>
        </extensions>
      </trkpt>
      <trkpt lat="43.08747" lon="1.35065">
        <ele>457</ele>
        <time>2023-03-05T13:40:08Z</time>
        <extensions>
          <gpxtpx:TrackPointExtension xmlns:gpxtpx="http://www.garmin.com/xmlschemas/TrackPointExtension/v1">
            <gpxtpx:hr>108</gpxtpx:hr>
          </gpxtpx:TrackPointExtension>
        </extensions>
      </trkpt>
      <trkpt lat="43.08747" lon="1.35062">
        <ele>457</ele>
        <time>2023-03-05T13:40:09Z</time>
        <extensions>
          <gpxtpx:TrackPointExtension xmlns:gpxtpx="http://www.garmin.com/xmlschemas/TrackPointExtension/v1">
            <gpxtpx:hr>108</gpxtpx:hr>
          </gpxtpx:TrackPointExtension>
        </extensions>
      </trkpt>
      <trkpt lat="43.08747" lon="1.35056">
        <ele>457</ele>
        <time>2023-03-05T13:40:11Z</time>
        <extensions>
          <gpxtpx:TrackPointExtension xmlns:gpxtpx="http://www.garmin.com/xmlschemas/TrackPointExtension/v1">
            <gpxtpx:hr>108</gpxtpx:hr>
          </gpxtpx:TrackPointExtension>
        </extensions>
      </trkpt>
      <trkpt lat="43.08748" lon="1.35044">
        <ele>457.4</ele>
        <time>2023-03-05T13:40:15Z</time>
        <extensions>
          <gpxtpx:TrackPointExtension xmlns:gpxtpx="http://www.garmin.com/xmlschemas/TrackPointExtension/v1">
            <gpxtpx:hr>108</gpxtpx:hr>
          </gpxtpx:TrackPointExtension>
        </extensions>
      </trkpt>
      <trkpt lat="43.08749" lon="1.35042">
        <ele>457.8</ele>
        <time>2023-03-05T13:40:16Z</time>
        <extensions>
          <gpxtpx:TrackPointExtension xmlns:gpxtpx="http://www.garmin.com/xmlschemas/TrackPointExtension/v1">
            <gpxtpx:hr>108</gpxtpx:hr>
          </gpxtpx:TrackPointExtension>
        </extensions>
      </trkpt>
      <trkpt lat="43.08749" lon="1.35039">
        <ele>458.2</ele>
        <time>2023-03-05T13:40:17Z</time>
        <extensions>
          <gpxtpx:TrackPointExtension xmlns:gpxtpx="http://www.garmin.com/xmlschemas/TrackPointExtension/v1">
            <gpxtpx:hr>110</gpxtpx:hr>
          </gpxtpx:TrackPointExtension>
        </extensions>
      </trkpt>
      <trkpt lat="43.08749" lon="1.35036">
        <ele>458.8</ele>
        <time>2023-03-05T13:40:18Z</time>
        <extensions>
          <gpxtpx:TrackPointExtension xmlns:gpxtpx="http://www.garmin.com/xmlschemas/TrackPointExtension/v1">
            <gpxtpx:hr>110</gpxtpx:hr>
          </gpxtpx:TrackPointExtension>
        </extensions>
      </trkpt>
      <trkpt lat="43.0875" lon="1.35033">
        <ele>459.2</ele>
        <time>2023-03-05T13:40:19Z</time>
        <extensions>
          <gpxtpx:TrackPointExtension xmlns:gpxtpx="http://www.garmin.com/xmlschemas/TrackPointExtension/v1">
            <gpxtpx:hr>110</gpxtpx:hr>
          </gpxtpx:TrackPointExtension>
        </extensions>
      </trkpt>
      <trkpt lat="43.08753" lon="1.3502">
        <ele>459.2</ele>
        <time>2023-03-05T13:40:24Z</time>
        <extensions>
          <gpxtpx:TrackPointExtension xmlns:gpxtpx="http://www.garmin.com/xmlschemas/TrackPointExtension/v1">
            <gpxtpx:hr>110</gpxtpx:hr>
          </gpxtpx:TrackPointExtension>
        </extensions>
      </trkpt>
      <trkpt lat="43.08756" lon="1.35014">
        <ele>459.6</ele>
        <time>2023-03-05T13:40:26Z</time>
        <extensions>
          <gpxtpx:TrackPointExtension xmlns:gpxtpx="http://www.garmin.com/xmlschemas/TrackPointExtension/v1">
            <gpxtpx:hr>110</gpxtpx:hr>
          </gpxtpx:TrackPointExtension>
        </extensions>
      </trkpt>
      <trkpt lat="43.08758" lon="1.35012">
        <ele>460</ele>
        <time>2023-03-05T13:40:27Z</time>
        <extensions>
          <gpxtpx:TrackPointExtension xmlns:gpxtpx="http://www.garmin.com/xmlschemas/TrackPointExtension/v1">
            <gpxtpx:hr>110</gpxtpx:hr>
          </gpxtpx:TrackPointExtension>
        </extensions>
      </trkpt>
      <trkpt lat="43.08759" lon="1.35009">
        <ele>460.6</ele>
        <time>2023-03-05T13:40:28Z</time>
        <extensions>
          <gpxtpx:TrackPointExtension xmlns:gpxtpx="http://www.garmin.com/xmlschemas/TrackPointExtension/v1">
            <gpxtpx:hr>110</gpxtpx:hr>
          </gpxtpx:TrackPointExtension>
        </extensions>
      </trkpt>
      <trkpt lat="43.0876" lon="1.35006">
        <ele>461</ele>
        <time>2023-03-05T13:40:29Z</time>
        <extensions>
          <gpxtpx:TrackPointExtension xmlns:gpxtpx="http://www.garmin.com/xmlschemas/TrackPointExtension/v1">
            <gpxtpx:hr>110</gpxtpx:hr>
          </gpxtpx:TrackPointExtension>
        </extensions>
      </trkpt>
      <trkpt lat="43.08761" lon="1.35004">
        <ele>461.4</ele>
        <time>2023-03-05T13:40:30Z</time>
        <extensions>
          <gpxtpx:TrackPointExtension xmlns:gpxtpx="http://www.garmin.com/xmlschemas/TrackPointExtension/v1">
            <gpxtpx:hr>110</gpxtpx:hr>
          </gpxtpx:TrackPointExtension>
        </extensions>
      </trkpt>
      <trkpt lat="43.08765" lon="1.34996">
        <ele>461.8</ele>
        <time>2023-03-05T13:40:33Z</time>
        <extensions>
          <gpxtpx:TrackPointExtension xmlns:gpxtpx="http://www.garmin.com/xmlschemas/TrackPointExtension/v1">
            <gpxtpx:hr>110</gpxtpx:hr>
          </gpxtpx:TrackPointExtension>
        </extensions>
      </trkpt>
      <trkpt lat="43.08767" lon="1.34993">
        <ele>462.4</ele>
        <time>2023-03-05T13:40:34Z</time>
        <extensions>
          <gpxtpx:TrackPointExtension xmlns:gpxtpx="http://www.garmin.com/xmlschemas/TrackPointExtension/v1">
            <gpxtpx:hr>110</gpxtpx:hr>
          </gpxtpx:TrackPointExtension>
        </extensions>
      </trkpt>
      <trkpt lat="43.08768" lon="1.3499">
        <ele>462.8</ele>
        <time>2023-03-05T13:40:35Z</time>
        <extensions>
          <gpxtpx:TrackPointExtension xmlns:gpxtpx="http://www.garmin.com/xmlschemas/TrackPointExtension/v1">
            <gpxtpx:hr>110</gpxtpx:hr>
          </gpxtpx:TrackPointExtension>
        </extensions>
      </trkpt>
      <trkpt lat="43.08769" lon="1.34986">
        <ele>463.2</ele>
        <time>2023-03-05T13:40:36Z</time>
        <extensions>
          <gpxtpx:TrackPointExtension xmlns:gpxtpx="http://www.garmin.com/xmlschemas/TrackPointExtension/v1">
            <gpxtpx:hr>110</gpxtpx:hr>
          </gpxtpx:TrackPointExtension>
        </extensions>
      </trkpt>
      <trkpt lat="43.08771" lon="1.34983">
        <ele>463.6</ele>
        <time>2023-03-05T13:40:37Z</time>
        <extensions>
          <gpxtpx:TrackPointExtension xmlns:gpxtpx="http://www.garmin.com/xmlschemas/TrackPointExtension/v1">
            <gpxtpx:hr>110</gpxtpx:hr>
          </gpxtpx:TrackPointExtension>
        </extensions>
      </trkpt>
      <trkpt lat="43.08772" lon="1.3498">
        <ele>463.6</ele>
        <time>2023-03-05T13:40:38Z</time>
        <extensions>
          <gpxtpx:TrackPointExtension xmlns:gpxtpx="http://www.garmin.com/xmlschemas/TrackPointExtension/v1">
            <gpxtpx:hr>110</gpxtpx:hr>
          </gpxtpx:TrackPointExtension>
        </extensions>
      </trkpt>
      <trkpt lat="43.08778" lon="1.34968">
        <ele>463.6</ele>
        <time>2023-03-05T13:40:42Z</time>
        <extensions>
          <gpxtpx:TrackPointExtension xmlns:gpxtpx="http://www.garmin.com/xmlschemas/TrackPointExtension/v1">
            <gpxtpx:hr>113</gpxtpx:hr>
          </gpxtpx:TrackPointExtension>
        </extensions>
      </trkpt>
      <trkpt lat="43.08783" lon="1.34955">
        <ele>464.4</ele>
        <time>2023-03-05T13:40:46Z</time>
        <extensions>
          <gpxtpx:TrackPointExtension xmlns:gpxtpx="http://www.garmin.com/xmlschemas/TrackPointExtension/v1">
            <gpxtpx:hr>115</gpxtpx:hr>
          </gpxtpx:TrackPointExtension>
        </extensions>
      </trkpt>
      <trkpt lat="43.08785" lon="1.34952">
        <ele>464.8</ele>
        <time>2023-03-05T13:40:47Z</time>
        <extensions>
          <gpxtpx:TrackPointExtension xmlns:gpxtpx="http://www.garmin.com/xmlschemas/TrackPointExtension/v1">
            <gpxtpx:hr>115</gpxtpx:hr>
          </gpxtpx:TrackPointExtension>
        </extensions>
      </trkpt>
      <trkpt lat="43.08786" lon="1.34949">
        <ele>465.4</ele>
        <time>2023-03-05T13:40:48Z</time>
        <extensions>
          <gpxtpx:TrackPointExtension xmlns:gpxtpx="http://www.garmin.com/xmlschemas/TrackPointExtension/v1">
            <gpxtpx:hr>115</gpxtpx:hr>
          </gpxtpx:TrackPointExtension>
        </extensions>
      </trkpt>
      <trkpt lat="43.08788" lon="1.34946">
        <ele>465.8</ele>
        <time>2023-03-05T13:40:49Z</time>
        <extensions>
          <gpxtpx:TrackPointExtension xmlns:gpxtpx="http://www.garmin.com/xmlschemas/TrackPointExtension/v1">
            <gpxtpx:hr>115</gpxtpx:hr>
          </gpxtpx:TrackPointExtension>
        </extensions>
      </trkpt>
      <trkpt lat="43.08791" lon="1.34936">
        <ele>466.2</ele>
        <time>2023-03-05T13:40:52Z</time>
        <extensions>
          <gpxtpx:TrackPointExtension xmlns:gpxtpx="http://www.garmin.com/xmlschemas/TrackPointExtension/v1">
            <gpxtpx:hr>115</gpxtpx:hr>
          </gpxtpx:TrackPointExtension>
        </extensions>
      </trkpt>
      <trkpt lat="43.08791" lon="1.34932">
        <ele>466.6</ele>
        <time>2023-03-05T13:40:53Z</time>
        <extensions>
          <gpxtpx:TrackPointExtension xmlns:gpxtpx="http://www.garmin.com/xmlschemas/TrackPointExtension/v1">
            <gpxtpx:hr>115</gpxtpx:hr>
          </gpxtpx:TrackPointExtension>
        </extensions>
      </trkpt>
      <trkpt lat="43.08792" lon="1.34928">
        <ele>467</ele>
        <time>2023-03-05T13:40:54Z</time>
        <extensions>
          <gpxtpx:TrackPointExtension xmlns:gpxtpx="http://www.garmin.com/xmlschemas/TrackPointExtension/v1">
            <gpxtpx:hr>115</gpxtpx:hr>
          </gpxtpx:TrackPointExtension>
        </extensions>
      </trkpt>
      <trkpt lat="43.08793" lon="1.34924">
        <ele>467.4</ele>
        <time>2023-03-05T13:40:55Z</time>
        <extensions>
          <gpxtpx:TrackPointExtension xmlns:gpxtpx="http://www.garmin.com/xmlschemas/TrackPointExtension/v1">
            <gpxtpx:hr>115</gpxtpx:hr>
          </gpxtpx:TrackPointExtension>
        </extensions>
      </trkpt>
      <trkpt lat="43.08794" lon="1.3492">
        <ele>467.8</ele>
        <time>2023-03-05T13:40:56Z</time>
        <extensions>
          <gpxtpx:TrackPointExtension xmlns:gpxtpx="http://www.garmin.com/xmlschemas/TrackPointExtension/v1">
            <gpxtpx:hr>115</gpxtpx:hr>
          </gpxtpx:TrackPointExtension>
        </extensions>
      </trkpt>
      <trkpt lat="43.08797" lon="1.34907">
        <ele>468.4</ele>
        <time>2023-03-05T13:41:00Z</time>
        <extensions>
          <gpxtpx:TrackPointExtension xmlns:gpxtpx="http://www.garmin.com/xmlschemas/TrackPointExtension/v1">
            <gpxtpx:hr>117</gpxtpx:hr>
          </gpxtpx:TrackPointExtension>
        </extensions>
      </trkpt>
      <trkpt lat="43.08798" lon="1.34903">
        <ele>468.8</ele>
        <time>2023-03-05T13:41:01Z</time>
        <extensions>
          <gpxtpx:TrackPointExtension xmlns:gpxtpx="http://www.garmin.com/xmlschemas/TrackPointExtension/v1">
            <gpxtpx:hr>117</gpxtpx:hr>
          </gpxtpx:TrackPointExtension>
        </extensions>
      </trkpt>
      <trkpt lat="43.088" lon="1.349">
        <ele>469.2</ele>
        <time>2023-03-05T13:41:02Z</time>
        <extensions>
          <gpxtpx:TrackPointExtension xmlns:gpxtpx="http://www.garmin.com/xmlschemas/TrackPointExtension/v1">
            <gpxtpx:hr>117</gpxtpx:hr>
          </gpxtpx:TrackPointExtension>
        </extensions>
      </trkpt>
      <trkpt lat="43.08801" lon="1.34897">
        <ele>469.6</ele>
        <time>2023-03-05T13:41:03Z</time>
        <extensions>
          <gpxtpx:TrackPointExtension xmlns:gpxtpx="http://www.garmin.com/xmlschemas/TrackPointExtension/v1">
            <gpxtpx:hr>117</gpxtpx:hr>
          </gpxtpx:TrackPointExtension>
        </extensions>
      </trkpt>
      <trkpt lat="43.08802" lon="1.34894">
        <ele>470.2</ele>
        <time>2023-03-05T13:41:04Z</time>
        <extensions>
          <gpxtpx:TrackPointExtension xmlns:gpxtpx="http://www.garmin.com/xmlschemas/TrackPointExtension/v1">
            <gpxtpx:hr>117</gpxtpx:hr>
          </gpxtpx:TrackPointExtension>
        </extensions>
      </trkpt>
      <trkpt lat="43.08808" lon="1.34881">
        <ele>470.2</ele>
        <time>2023-03-05T13:41:08Z</time>
        <extensions>
          <gpxtpx:TrackPointExtension xmlns:gpxtpx="http://www.garmin.com/xmlschemas/TrackPointExtension/v1">
            <gpxtpx:hr>117</gpxtpx:hr>
          </gpxtpx:TrackPointExtension>
        </extensions>
      </trkpt>
      <trkpt lat="43.08809" lon="1.34878">
        <ele>470.6</ele>
        <time>2023-03-05T13:41:09Z</time>
        <extensions>
          <gpxtpx:TrackPointExtension xmlns:gpxtpx="http://www.garmin.com/xmlschemas/TrackPointExtension/v1">
            <gpxtpx:hr>117</gpxtpx:hr>
          </gpxtpx:TrackPointExtension>
        </extensions>
      </trkpt>
      <trkpt lat="43.0881" lon="1.34875">
        <ele>471.4</ele>
        <time>2023-03-05T13:41:10Z</time>
        <extensions>
          <gpxtpx:TrackPointExtension xmlns:gpxtpx="http://www.garmin.com/xmlschemas/TrackPointExtension/v1">
            <gpxtpx:hr>117</gpxtpx:hr>
          </gpxtpx:TrackPointExtension>
        </extensions>
      </trkpt>
      <trkpt lat="43.08811" lon="1.34872">
        <ele>471.8</ele>
        <time>2023-03-05T13:41:11Z</time>
        <extensions>
          <gpxtpx:TrackPointExtension xmlns:gpxtpx="http://www.garmin.com/xmlschemas/TrackPointExtension/v1">
            <gpxtpx:hr>117</gpxtpx:hr>
          </gpxtpx:TrackPointExtension>
        </extensions>
      </trkpt>
      <trkpt lat="43.08813" lon="1.34868">
        <ele>472.4</ele>
        <time>2023-03-05T13:41:12Z</time>
        <extensions>
          <gpxtpx:TrackPointExtension xmlns:gpxtpx="http://www.garmin.com/xmlschemas/TrackPointExtension/v1">
            <gpxtpx:hr>117</gpxtpx:hr>
          </gpxtpx:TrackPointExtension>
        </extensions>
      </trkpt>
      <trkpt lat="43.08816" lon="1.34859">
        <ele>472.8</ele>
        <time>2023-03-05T13:41:15Z</time>
        <extensions>
          <gpxtpx:TrackPointExtension xmlns:gpxtpx="http://www.garmin.com/xmlschemas/TrackPointExtension/v1">
            <gpxtpx:hr>117</gpxtpx:hr>
          </gpxtpx:TrackPointExtension>
        </extensions>
      </trkpt>
      <trkpt lat="43.08817" lon="1.34856">
        <ele>473.2</ele>
        <time>2023-03-05T13:41:16Z</time>
        <extensions>
          <gpxtpx:TrackPointExtension xmlns:gpxtpx="http://www.garmin.com/xmlschemas/TrackPointExtension/v1">
            <gpxtpx:hr>119</gpxtpx:hr>
          </gpxtpx:TrackPointExtension>
        </extensions>
      </trkpt>
      <trkpt lat="43.08818" lon="1.34853">
        <ele>473.6</ele>
        <time>2023-03-05T13:41:17Z</time>
        <extensions>
          <gpxtpx:TrackPointExtension xmlns:gpxtpx="http://www.garmin.com/xmlschemas/TrackPointExtension/v1">
            <gpxtpx:hr>119</gpxtpx:hr>
          </gpxtpx:TrackPointExtension>
        </extensions>
      </trkpt>
      <trkpt lat="43.08818" lon="1.34849">
        <ele>474</ele>
        <time>2023-03-05T13:41:18Z</time>
        <extensions>
          <gpxtpx:TrackPointExtension xmlns:gpxtpx="http://www.garmin.com/xmlschemas/TrackPointExtension/v1">
            <gpxtpx:hr>119</gpxtpx:hr>
          </gpxtpx:TrackPointExtension>
        </extensions>
      </trkpt>
      <trkpt lat="43.08818" lon="1.34846">
        <ele>474.4</ele>
        <time>2023-03-05T13:41:19Z</time>
        <extensions>
          <gpxtpx:TrackPointExtension xmlns:gpxtpx="http://www.garmin.com/xmlschemas/TrackPointExtension/v1">
            <gpxtpx:hr>119</gpxtpx:hr>
          </gpxtpx:TrackPointExtension>
        </extensions>
      </trkpt>
      <trkpt lat="43.08818" lon="1.34835">
        <ele>474.4</ele>
        <time>2023-03-05T13:41:22Z</time>
        <extensions>
          <gpxtpx:TrackPointExtension xmlns:gpxtpx="http://www.garmin.com/xmlschemas/TrackPointExtension/v1">
            <gpxtpx:hr>119</gpxtpx:hr>
          </gpxtpx:TrackPointExtension>
        </extensions>
      </trkpt>
      <trkpt lat="43.08817" lon="1.34821">
        <ele>474.8</ele>
        <time>2023-03-05T13:41:26Z</time>
        <extensions>
          <gpxtpx:TrackPointExtension xmlns:gpxtpx="http://www.garmin.com/xmlschemas/TrackPointExtension/v1">
            <gpxtpx:hr>119</gpxtpx:hr>
          </gpxtpx:TrackPointExtension>
        </extensions>
      </trkpt>
      <trkpt lat="43.08818" lon="1.34817">
        <ele>475.2</ele>
        <time>2023-03-05T13:41:27Z</time>
        <extensions>
          <gpxtpx:TrackPointExtension xmlns:gpxtpx="http://www.garmin.com/xmlschemas/TrackPointExtension/v1">
            <gpxtpx:hr>119</gpxtpx:hr>
          </gpxtpx:TrackPointExtension>
        </extensions>
      </trkpt>
      <trkpt lat="43.08819" lon="1.34815">
        <ele>475.8</ele>
        <time>2023-03-05T13:41:28Z</time>
        <extensions>
          <gpxtpx:TrackPointExtension xmlns:gpxtpx="http://www.garmin.com/xmlschemas/TrackPointExtension/v1">
            <gpxtpx:hr>119</gpxtpx:hr>
          </gpxtpx:TrackPointExtension>
        </extensions>
      </trkpt>
      <trkpt lat="43.0882" lon="1.34812">
        <ele>476.2</ele>
        <time>2023-03-05T13:41:29Z</time>
        <extensions>
          <gpxtpx:TrackPointExtension xmlns:gpxtpx="http://www.garmin.com/xmlschemas/TrackPointExtension/v1">
            <gpxtpx:hr>119</gpxtpx:hr>
          </gpxtpx:TrackPointExtension>
        </extensions>
      </trkpt>
      <trkpt lat="43.08822" lon="1.34809">
        <ele>476.6</ele>
        <time>2023-03-05T13:41:30Z</time>
        <extensions>
          <gpxtpx:TrackPointExtension xmlns:gpxtpx="http://www.garmin.com/xmlschemas/TrackPointExtension/v1">
            <gpxtpx:hr>119</gpxtpx:hr>
          </gpxtpx:TrackPointExtension>
        </extensions>
      </trkpt>
      <trkpt lat="43.08827" lon="1.34803">
        <ele>477</ele>
        <time>2023-03-05T13:41:33Z</time>
        <extensions>
          <gpxtpx:TrackPointExtension xmlns:gpxtpx="http://www.garmin.com/xmlschemas/TrackPointExtension/v1">
            <gpxtpx:hr>119</gpxtpx:hr>
          </gpxtpx:TrackPointExtension>
        </extensions>
      </trkpt>
      <trkpt lat="43.08829" lon="1.34802">
        <ele>477.4</ele>
        <time>2023-03-05T13:41:34Z</time>
        <extensions>
          <gpxtpx:TrackPointExtension xmlns:gpxtpx="http://www.garmin.com/xmlschemas/TrackPointExtension/v1">
            <gpxtpx:hr>119</gpxtpx:hr>
          </gpxtpx:TrackPointExtension>
        </extensions>
      </trkpt>
      <trkpt lat="43.08831" lon="1.34801">
        <ele>478.4</ele>
        <time>2023-03-05T13:41:35Z</time>
        <extensions>
          <gpxtpx:TrackPointExtension xmlns:gpxtpx="http://www.garmin.com/xmlschemas/TrackPointExtension/v1">
            <gpxtpx:hr>119</gpxtpx:hr>
          </gpxtpx:TrackPointExtension>
        </extensions>
      </trkpt>
      <trkpt lat="43.08833" lon="1.34801">
        <ele>478.8</ele>
        <time>2023-03-05T13:41:36Z</time>
        <extensions>
          <gpxtpx:TrackPointExtension xmlns:gpxtpx="http://www.garmin.com/xmlschemas/TrackPointExtension/v1">
            <gpxtpx:hr>121</gpxtpx:hr>
          </gpxtpx:TrackPointExtension>
        </extensions>
      </trkpt>
      <trkpt lat="43.08836" lon="1.34802">
        <ele>478.8</ele>
        <time>2023-03-05T13:41:37Z</time>
        <extensions>
          <gpxtpx:TrackPointExtension xmlns:gpxtpx="http://www.garmin.com/xmlschemas/TrackPointExtension/v1">
            <gpxtpx:hr>121</gpxtpx:hr>
          </gpxtpx:TrackPointExtension>
        </extensions>
      </trkpt>
      <trkpt lat="43.0884" lon="1.34804">
        <ele>479.2</ele>
        <time>2023-03-05T13:41:39Z</time>
        <extensions>
          <gpxtpx:TrackPointExtension xmlns:gpxtpx="http://www.garmin.com/xmlschemas/TrackPointExtension/v1">
            <gpxtpx:hr>121</gpxtpx:hr>
          </gpxtpx:TrackPointExtension>
        </extensions>
      </trkpt>
      <trkpt lat="43.08842" lon="1.34805">
        <ele>479.6</ele>
        <time>2023-03-05T13:41:40Z</time>
        <extensions>
          <gpxtpx:TrackPointExtension xmlns:gpxtpx="http://www.garmin.com/xmlschemas/TrackPointExtension/v1">
            <gpxtpx:hr>121</gpxtpx:hr>
          </gpxtpx:TrackPointExtension>
        </extensions>
      </trkpt>
      <trkpt lat="43.08844" lon="1.34808">
        <ele>480</ele>
        <time>2023-03-05T13:41:41Z</time>
        <extensions>
          <gpxtpx:TrackPointExtension xmlns:gpxtpx="http://www.garmin.com/xmlschemas/TrackPointExtension/v1">
            <gpxtpx:hr>121</gpxtpx:hr>
          </gpxtpx:TrackPointExtension>
        </extensions>
      </trkpt>
      <trkpt lat="43.08845" lon="1.3481">
        <ele>480.6</ele>
        <time>2023-03-05T13:41:42Z</time>
        <extensions>
          <gpxtpx:TrackPointExtension xmlns:gpxtpx="http://www.garmin.com/xmlschemas/TrackPointExtension/v1">
            <gpxtpx:hr>121</gpxtpx:hr>
          </gpxtpx:TrackPointExtension>
        </extensions>
      </trkpt>
      <trkpt lat="43.08846" lon="1.34813">
        <ele>481</ele>
        <time>2023-03-05T13:41:43Z</time>
        <extensions>
          <gpxtpx:TrackPointExtension xmlns:gpxtpx="http://www.garmin.com/xmlschemas/TrackPointExtension/v1">
            <gpxtpx:hr>121</gpxtpx:hr>
          </gpxtpx:TrackPointExtension>
        </extensions>
      </trkpt>
      <trkpt lat="43.08848" lon="1.34816">
        <ele>481</ele>
        <time>2023-03-05T13:41:44Z</time>
        <extensions>
          <gpxtpx:TrackPointExtension xmlns:gpxtpx="http://www.garmin.com/xmlschemas/TrackPointExtension/v1">
            <gpxtpx:hr>121</gpxtpx:hr>
          </gpxtpx:TrackPointExtension>
        </extensions>
      </trkpt>
      <trkpt lat="43.08848" lon="1.34819">
        <ele>481</ele>
        <time>2023-03-05T13:41:45Z</time>
        <extensions>
          <gpxtpx:TrackPointExtension xmlns:gpxtpx="http://www.garmin.com/xmlschemas/TrackPointExtension/v1">
            <gpxtpx:hr>121</gpxtpx:hr>
          </gpxtpx:TrackPointExtension>
        </extensions>
      </trkpt>
      <trkpt lat="43.08848" lon="1.34829">
        <ele>481.4</ele>
        <time>2023-03-05T13:41:48Z</time>
        <extensions>
          <gpxtpx:TrackPointExtension xmlns:gpxtpx="http://www.garmin.com/xmlschemas/TrackPointExtension/v1">
            <gpxtpx:hr>121</gpxtpx:hr>
          </gpxtpx:TrackPointExtension>
        </extensions>
      </trkpt>
      <trkpt lat="43.08848" lon="1.34833">
        <ele>481.8</ele>
        <time>2023-03-05T13:41:49Z</time>
        <extensions>
          <gpxtpx:TrackPointExtension xmlns:gpxtpx="http://www.garmin.com/xmlschemas/TrackPointExtension/v1">
            <gpxtpx:hr>121</gpxtpx:hr>
          </gpxtpx:TrackPointExtension>
        </extensions>
      </trkpt>
      <trkpt lat="43.08848" lon="1.34836">
        <ele>482.2</ele>
        <time>2023-03-05T13:41:50Z</time>
        <extensions>
          <gpxtpx:TrackPointExtension xmlns:gpxtpx="http://www.garmin.com/xmlschemas/TrackPointExtension/v1">
            <gpxtpx:hr>123</gpxtpx:hr>
          </gpxtpx:TrackPointExtension>
        </extensions>
      </trkpt>
      <trkpt lat="43.08848" lon="1.34839">
        <ele>482.8</ele>
        <time>2023-03-05T13:41:51Z</time>
        <extensions>
          <gpxtpx:TrackPointExtension xmlns:gpxtpx="http://www.garmin.com/xmlschemas/TrackPointExtension/v1">
            <gpxtpx:hr>123</gpxtpx:hr>
          </gpxtpx:TrackPointExtension>
        </extensions>
      </trkpt>
      <trkpt lat="43.08847" lon="1.34842">
        <ele>483.2</ele>
        <time>2023-03-05T13:41:52Z</time>
        <extensions>
          <gpxtpx:TrackPointExtension xmlns:gpxtpx="http://www.garmin.com/xmlschemas/TrackPointExtension/v1">
            <gpxtpx:hr>123</gpxtpx:hr>
          </gpxtpx:TrackPointExtension>
        </extensions>
      </trkpt>
      <trkpt lat="43.08846" lon="1.34859">
        <ele>483.6</ele>
        <time>2023-03-05T13:41:57Z</time>
        <extensions>
          <gpxtpx:TrackPointExtension xmlns:gpxtpx="http://www.garmin.com/xmlschemas/TrackPointExtension/v1">
            <gpxtpx:hr>123</gpxtpx:hr>
          </gpxtpx:TrackPointExtension>
        </extensions>
      </trkpt>
      <trkpt lat="43.08847" lon="1.34862">
        <ele>484</ele>
        <time>2023-03-05T13:41:58Z</time>
        <extensions>
          <gpxtpx:TrackPointExtension xmlns:gpxtpx="http://www.garmin.com/xmlschemas/TrackPointExtension/v1">
            <gpxtpx:hr>128</gpxtpx:hr>
          </gpxtpx:TrackPointExtension>
        </extensions>
      </trkpt>
      <trkpt lat="43.08847" lon="1.34866">
        <ele>484.4</ele>
        <time>2023-03-05T13:41:59Z</time>
        <extensions>
          <gpxtpx:TrackPointExtension xmlns:gpxtpx="http://www.garmin.com/xmlschemas/TrackPointExtension/v1">
            <gpxtpx:hr>128</gpxtpx:hr>
          </gpxtpx:TrackPointExtension>
        </extensions>
      </trkpt>
      <trkpt lat="43.08848" lon="1.34869">
        <ele>485.2</ele>
        <time>2023-03-05T13:42:00Z</time>
        <extensions>
          <gpxtpx:TrackPointExtension xmlns:gpxtpx="http://www.garmin.com/xmlschemas/TrackPointExtension/v1">
            <gpxtpx:hr>128</gpxtpx:hr>
          </gpxtpx:TrackPointExtension>
        </extensions>
      </trkpt>
      <trkpt lat="43.08853" lon="1.34884">
        <ele>485.2</ele>
        <time>2023-03-05T13:42:05Z</time>
        <extensions>
          <gpxtpx:TrackPointExtension xmlns:gpxtpx="http://www.garmin.com/xmlschemas/TrackPointExtension/v1">
            <gpxtpx:hr>129</gpxtpx:hr>
          </gpxtpx:TrackPointExtension>
        </extensions>
      </trkpt>
      <trkpt lat="43.08855" lon="1.3489">
        <ele>485.6</ele>
        <time>2023-03-05T13:42:07Z</time>
        <extensions>
          <gpxtpx:TrackPointExtension xmlns:gpxtpx="http://www.garmin.com/xmlschemas/TrackPointExtension/v1">
            <gpxtpx:hr>129</gpxtpx:hr>
          </gpxtpx:TrackPointExtension>
        </extensions>
      </trkpt>
      <trkpt lat="43.08856" lon="1.34893">
        <ele>486.2</ele>
        <time>2023-03-05T13:42:08Z</time>
        <extensions>
          <gpxtpx:TrackPointExtension xmlns:gpxtpx="http://www.garmin.com/xmlschemas/TrackPointExtension/v1">
            <gpxtpx:hr>129</gpxtpx:hr>
          </gpxtpx:TrackPointExtension>
        </extensions>
      </trkpt>
      <trkpt lat="43.08857" lon="1.34896">
        <ele>486.6</ele>
        <time>2023-03-05T13:42:09Z</time>
        <extensions>
          <gpxtpx:TrackPointExtension xmlns:gpxtpx="http://www.garmin.com/xmlschemas/TrackPointExtension/v1">
            <gpxtpx:hr>129</gpxtpx:hr>
          </gpxtpx:TrackPointExtension>
        </extensions>
      </trkpt>
      <trkpt lat="43.08858" lon="1.34899">
        <ele>487</ele>
        <time>2023-03-05T13:42:10Z</time>
        <extensions>
          <gpxtpx:TrackPointExtension xmlns:gpxtpx="http://www.garmin.com/xmlschemas/TrackPointExtension/v1">
            <gpxtpx:hr>129</gpxtpx:hr>
          </gpxtpx:TrackPointExtension>
        </extensions>
      </trkpt>
      <trkpt lat="43.08859" lon="1.34902">
        <ele>487.4</ele>
        <time>2023-03-05T13:42:11Z</time>
        <extensions>
          <gpxtpx:TrackPointExtension xmlns:gpxtpx="http://www.garmin.com/xmlschemas/TrackPointExtension/v1">
            <gpxtpx:hr>129</gpxtpx:hr>
          </gpxtpx:TrackPointExtension>
        </extensions>
      </trkpt>
      <trkpt lat="43.08864" lon="1.34913">
        <ele>487.4</ele>
        <time>2023-03-05T13:42:15Z</time>
        <extensions>
          <gpxtpx:TrackPointExtension xmlns:gpxtpx="http://www.garmin.com/xmlschemas/TrackPointExtension/v1">
            <gpxtpx:hr>130</gpxtpx:hr>
          </gpxtpx:TrackPointExtension>
        </extensions>
      </trkpt>
      <trkpt lat="43.08866" lon="1.34915">
        <ele>487.8</ele>
        <time>2023-03-05T13:42:16Z</time>
        <extensions>
          <gpxtpx:TrackPointExtension xmlns:gpxtpx="http://www.garmin.com/xmlschemas/TrackPointExtension/v1">
            <gpxtpx:hr>130</gpxtpx:hr>
          </gpxtpx:TrackPointExtension>
        </extensions>
      </trkpt>
      <trkpt lat="43.08867" lon="1.34918">
        <ele>488.2</ele>
        <time>2023-03-05T13:42:17Z</time>
        <extensions>
          <gpxtpx:TrackPointExtension xmlns:gpxtpx="http://www.garmin.com/xmlschemas/TrackPointExtension/v1">
            <gpxtpx:hr>130</gpxtpx:hr>
          </gpxtpx:TrackPointExtension>
        </extensions>
      </trkpt>
      <trkpt lat="43.08869" lon="1.3492">
        <ele>488.6</ele>
        <time>2023-03-05T13:42:18Z</time>
        <extensions>
          <gpxtpx:TrackPointExtension xmlns:gpxtpx="http://www.garmin.com/xmlschemas/TrackPointExtension/v1">
            <gpxtpx:hr>131</gpxtpx:hr>
          </gpxtpx:TrackPointExtension>
        </extensions>
      </trkpt>
      <trkpt lat="43.08871" lon="1.34923">
        <ele>489</ele>
        <time>2023-03-05T13:42:19Z</time>
        <extensions>
          <gpxtpx:TrackPointExtension xmlns:gpxtpx="http://www.garmin.com/xmlschemas/TrackPointExtension/v1">
            <gpxtpx:hr>131</gpxtpx:hr>
          </gpxtpx:TrackPointExtension>
        </extensions>
      </trkpt>
      <trkpt lat="43.08873" lon="1.34924">
        <ele>489.4</ele>
        <time>2023-03-05T13:42:20Z</time>
        <extensions>
          <gpxtpx:TrackPointExtension xmlns:gpxtpx="http://www.garmin.com/xmlschemas/TrackPointExtension/v1">
            <gpxtpx:hr>131</gpxtpx:hr>
          </gpxtpx:TrackPointExtension>
        </extensions>
      </trkpt>
      <trkpt lat="43.08877" lon="1.34926">
        <ele>489.4</ele>
        <time>2023-03-05T13:42:22Z</time>
        <extensions>
          <gpxtpx:TrackPointExtension xmlns:gpxtpx="http://www.garmin.com/xmlschemas/TrackPointExtension/v1">
            <gpxtpx:hr>131</gpxtpx:hr>
          </gpxtpx:TrackPointExtension>
        </extensions>
      </trkpt>
      <trkpt lat="43.08881" lon="1.34928">
        <ele>489.8</ele>
        <time>2023-03-05T13:42:24Z</time>
        <extensions>
          <gpxtpx:TrackPointExtension xmlns:gpxtpx="http://www.garmin.com/xmlschemas/TrackPointExtension/v1">
            <gpxtpx:hr>131</gpxtpx:hr>
          </gpxtpx:TrackPointExtension>
        </extensions>
      </trkpt>
      <trkpt lat="43.08883" lon="1.34928">
        <ele>490.4</ele>
        <time>2023-03-05T13:42:25Z</time>
        <extensions>
          <gpxtpx:TrackPointExtension xmlns:gpxtpx="http://www.garmin.com/xmlschemas/TrackPointExtension/v1">
            <gpxtpx:hr>131</gpxtpx:hr>
          </gpxtpx:TrackPointExtension>
        </extensions>
      </trkpt>
      <trkpt lat="43.08885" lon="1.34929">
        <ele>490.8</ele>
        <time>2023-03-05T13:42:26Z</time>
        <extensions>
          <gpxtpx:TrackPointExtension xmlns:gpxtpx="http://www.garmin.com/xmlschemas/TrackPointExtension/v1">
            <gpxtpx:hr>123</gpxtpx:hr>
          </gpxtpx:TrackPointExtension>
        </extensions>
      </trkpt>
      <trkpt lat="43.08887" lon="1.34929">
        <ele>491.2</ele>
        <time>2023-03-05T13:42:27Z</time>
        <extensions>
          <gpxtpx:TrackPointExtension xmlns:gpxtpx="http://www.garmin.com/xmlschemas/TrackPointExtension/v1">
            <gpxtpx:hr>123</gpxtpx:hr>
          </gpxtpx:TrackPointExtension>
        </extensions>
      </trkpt>
      <trkpt lat="43.0889" lon="1.34928">
        <ele>491.6</ele>
        <time>2023-03-05T13:42:28Z</time>
        <extensions>
          <gpxtpx:TrackPointExtension xmlns:gpxtpx="http://www.garmin.com/xmlschemas/TrackPointExtension/v1">
            <gpxtpx:hr>123</gpxtpx:hr>
          </gpxtpx:TrackPointExtension>
        </extensions>
      </trkpt>
      <trkpt lat="43.08895" lon="1.34928">
        <ele>491.6</ele>
        <time>2023-03-05T13:42:31Z</time>
        <extensions>
          <gpxtpx:TrackPointExtension xmlns:gpxtpx="http://www.garmin.com/xmlschemas/TrackPointExtension/v1">
            <gpxtpx:hr>123</gpxtpx:hr>
          </gpxtpx:TrackPointExtension>
        </extensions>
      </trkpt>
      <trkpt lat="43.08899" lon="1.34928">
        <ele>491.6</ele>
        <time>2023-03-05T13:42:34Z</time>
        <extensions>
          <gpxtpx:TrackPointExtension xmlns:gpxtpx="http://www.garmin.com/xmlschemas/TrackPointExtension/v1">
            <gpxtpx:hr>126</gpxtpx:hr>
          </gpxtpx:TrackPointExtension>
        </extensions>
      </trkpt>
      <trkpt lat="43.08899" lon="1.34928">
        <ele>492</ele>
        <time>2023-03-05T13:42:35Z</time>
        <extensions>
          <gpxtpx:TrackPointExtension xmlns:gpxtpx="http://www.garmin.com/xmlschemas/TrackPointExtension/v1">
            <gpxtpx:hr>127</gpxtpx:hr>
          </gpxtpx:TrackPointExtension>
        </extensions>
      </trkpt>
      <trkpt lat="43.08903" lon="1.34928">
        <ele>493.6</ele>
        <time>2023-03-05T13:43:46Z</time>
        <extensions>
          <gpxtpx:TrackPointExtension xmlns:gpxtpx="http://www.garmin.com/xmlschemas/TrackPointExtension/v1">
            <gpxtpx:hr>117</gpxtpx:hr>
          </gpxtpx:TrackPointExtension>
        </extensions>
      </trkpt>
      <trkpt lat="43.08905" lon="1.34928">
        <ele>493.6</ele>
        <time>2023-03-05T13:43:47Z</time>
        <extensions>
          <gpxtpx:TrackPointExtension xmlns:gpxtpx="http://www.garmin.com/xmlschemas/TrackPointExtension/v1">
            <gpxtpx:hr>117</gpxtpx:hr>
          </gpxtpx:TrackPointExtension>
        </extensions>
      </trkpt>
      <trkpt lat="43.08911" lon="1.34923">
        <ele>493.6</ele>
        <time>2023-03-05T13:43:51Z</time>
        <extensions>
          <gpxtpx:TrackPointExtension xmlns:gpxtpx="http://www.garmin.com/xmlschemas/TrackPointExtension/v1">
            <gpxtpx:hr>118</gpxtpx:hr>
          </gpxtpx:TrackPointExtension>
        </extensions>
      </trkpt>
      <trkpt lat="43.08923" lon="1.34915">
        <ele>494</ele>
        <time>2023-03-05T13:43:57Z</time>
        <extensions>
          <gpxtpx:TrackPointExtension xmlns:gpxtpx="http://www.garmin.com/xmlschemas/TrackPointExtension/v1">
            <gpxtpx:hr>117</gpxtpx:hr>
          </gpxtpx:TrackPointExtension>
        </extensions>
      </trkpt>
      <trkpt lat="43.08925" lon="1.34912">
        <ele>494.4</ele>
        <time>2023-03-05T13:43:58Z</time>
        <extensions>
          <gpxtpx:TrackPointExtension xmlns:gpxtpx="http://www.garmin.com/xmlschemas/TrackPointExtension/v1">
            <gpxtpx:hr>117</gpxtpx:hr>
          </gpxtpx:TrackPointExtension>
        </extensions>
      </trkpt>
      <trkpt lat="43.08927" lon="1.34911">
        <ele>495</ele>
        <time>2023-03-05T13:43:59Z</time>
        <extensions>
          <gpxtpx:TrackPointExtension xmlns:gpxtpx="http://www.garmin.com/xmlschemas/TrackPointExtension/v1">
            <gpxtpx:hr>117</gpxtpx:hr>
          </gpxtpx:TrackPointExtension>
        </extensions>
      </trkpt>
      <trkpt lat="43.0893" lon="1.34909">
        <ele>495.4</ele>
        <time>2023-03-05T13:44:00Z</time>
        <extensions>
          <gpxtpx:TrackPointExtension xmlns:gpxtpx="http://www.garmin.com/xmlschemas/TrackPointExtension/v1">
            <gpxtpx:hr>117</gpxtpx:hr>
          </gpxtpx:TrackPointExtension>
        </extensions>
      </trkpt>
      <trkpt lat="43.08932" lon="1.34907">
        <ele>495.8</ele>
        <time>2023-03-05T13:44:01Z</time>
        <extensions>
          <gpxtpx:TrackPointExtension xmlns:gpxtpx="http://www.garmin.com/xmlschemas/TrackPointExtension/v1">
            <gpxtpx:hr>117</gpxtpx:hr>
          </gpxtpx:TrackPointExtension>
        </extensions>
      </trkpt>
      <trkpt lat="43.08938" lon="1.34901">
        <ele>495.8</ele>
        <time>2023-03-05T13:44:04Z</time>
        <extensions>
          <gpxtpx:TrackPointExtension xmlns:gpxtpx="http://www.garmin.com/xmlschemas/TrackPointExtension/v1">
            <gpxtpx:hr>117</gpxtpx:hr>
          </gpxtpx:TrackPointExtension>
        </extensions>
      </trkpt>
      <trkpt lat="43.0895" lon="1.34893">
        <ele>496.2</ele>
        <time>2023-03-05T13:44:09Z</time>
        <extensions>
          <gpxtpx:TrackPointExtension xmlns:gpxtpx="http://www.garmin.com/xmlschemas/TrackPointExtension/v1">
            <gpxtpx:hr>117</gpxtpx:hr>
          </gpxtpx:TrackPointExtension>
        </extensions>
      </trkpt>
      <trkpt lat="43.08952" lon="1.34892">
        <ele>496.6</ele>
        <time>2023-03-05T13:44:10Z</time>
        <extensions>
          <gpxtpx:TrackPointExtension xmlns:gpxtpx="http://www.garmin.com/xmlschemas/TrackPointExtension/v1">
            <gpxtpx:hr>118</gpxtpx:hr>
          </gpxtpx:TrackPointExtension>
        </extensions>
      </trkpt>
      <trkpt lat="43.08955" lon="1.34892">
        <ele>497</ele>
        <time>2023-03-05T13:44:11Z</time>
        <extensions>
          <gpxtpx:TrackPointExtension xmlns:gpxtpx="http://www.garmin.com/xmlschemas/TrackPointExtension/v1">
            <gpxtpx:hr>119</gpxtpx:hr>
          </gpxtpx:TrackPointExtension>
        </extensions>
      </trkpt>
      <trkpt lat="43.08957" lon="1.34891">
        <ele>497.4</ele>
        <time>2023-03-05T13:44:12Z</time>
        <extensions>
          <gpxtpx:TrackPointExtension xmlns:gpxtpx="http://www.garmin.com/xmlschemas/TrackPointExtension/v1">
            <gpxtpx:hr>119</gpxtpx:hr>
          </gpxtpx:TrackPointExtension>
        </extensions>
      </trkpt>
      <trkpt lat="43.0896" lon="1.3489">
        <ele>497.8</ele>
        <time>2023-03-05T13:44:13Z</time>
        <extensions>
          <gpxtpx:TrackPointExtension xmlns:gpxtpx="http://www.garmin.com/xmlschemas/TrackPointExtension/v1">
            <gpxtpx:hr>120</gpxtpx:hr>
          </gpxtpx:TrackPointExtension>
        </extensions>
      </trkpt>
      <trkpt lat="43.08967" lon="1.34888">
        <ele>497.8</ele>
        <time>2023-03-05T13:44:16Z</time>
        <extensions>
          <gpxtpx:TrackPointExtension xmlns:gpxtpx="http://www.garmin.com/xmlschemas/TrackPointExtension/v1">
            <gpxtpx:hr>120</gpxtpx:hr>
          </gpxtpx:TrackPointExtension>
        </extensions>
      </trkpt>
      <trkpt lat="43.0897" lon="1.34887">
        <ele>498.2</ele>
        <time>2023-03-05T13:44:17Z</time>
        <extensions>
          <gpxtpx:TrackPointExtension xmlns:gpxtpx="http://www.garmin.com/xmlschemas/TrackPointExtension/v1">
            <gpxtpx:hr>120</gpxtpx:hr>
          </gpxtpx:TrackPointExtension>
        </extensions>
      </trkpt>
      <trkpt lat="43.08972" lon="1.34887">
        <ele>498.6</ele>
        <time>2023-03-05T13:44:18Z</time>
        <extensions>
          <gpxtpx:TrackPointExtension xmlns:gpxtpx="http://www.garmin.com/xmlschemas/TrackPointExtension/v1">
            <gpxtpx:hr>120</gpxtpx:hr>
          </gpxtpx:TrackPointExtension>
        </extensions>
      </trkpt>
      <trkpt lat="43.08975" lon="1.34886">
        <ele>499</ele>
        <time>2023-03-05T13:44:19Z</time>
        <extensions>
          <gpxtpx:TrackPointExtension xmlns:gpxtpx="http://www.garmin.com/xmlschemas/TrackPointExtension/v1">
            <gpxtpx:hr>120</gpxtpx:hr>
          </gpxtpx:TrackPointExtension>
        </extensions>
      </trkpt>
      <trkpt lat="43.08977" lon="1.34884">
        <ele>499.6</ele>
        <time>2023-03-05T13:44:20Z</time>
        <extensions>
          <gpxtpx:TrackPointExtension xmlns:gpxtpx="http://www.garmin.com/xmlschemas/TrackPointExtension/v1">
            <gpxtpx:hr>121</gpxtpx:hr>
          </gpxtpx:TrackPointExtension>
        </extensions>
      </trkpt>
      <trkpt lat="43.0898" lon="1.34883">
        <ele>500</ele>
        <time>2023-03-05T13:44:21Z</time>
        <extensions>
          <gpxtpx:TrackPointExtension xmlns:gpxtpx="http://www.garmin.com/xmlschemas/TrackPointExtension/v1">
            <gpxtpx:hr>122</gpxtpx:hr>
          </gpxtpx:TrackPointExtension>
        </extensions>
      </trkpt>
      <trkpt lat="43.08991" lon="1.34876">
        <ele>500</ele>
        <time>2023-03-05T13:44:25Z</time>
        <extensions>
          <gpxtpx:TrackPointExtension xmlns:gpxtpx="http://www.garmin.com/xmlschemas/TrackPointExtension/v1">
            <gpxtpx:hr>122</gpxtpx:hr>
          </gpxtpx:TrackPointExtension>
        </extensions>
      </trkpt>
      <trkpt lat="43.08996" lon="1.34871">
        <ele>500.4</ele>
        <time>2023-03-05T13:44:27Z</time>
        <extensions>
          <gpxtpx:TrackPointExtension xmlns:gpxtpx="http://www.garmin.com/xmlschemas/TrackPointExtension/v1">
            <gpxtpx:hr>122</gpxtpx:hr>
          </gpxtpx:TrackPointExtension>
        </extensions>
      </trkpt>
      <trkpt lat="43.08998" lon="1.34869">
        <ele>501.2</ele>
        <time>2023-03-05T13:44:28Z</time>
        <extensions>
          <gpxtpx:TrackPointExtension xmlns:gpxtpx="http://www.garmin.com/xmlschemas/TrackPointExtension/v1">
            <gpxtpx:hr>122</gpxtpx:hr>
          </gpxtpx:TrackPointExtension>
        </extensions>
      </trkpt>
      <trkpt lat="43.09" lon="1.34867">
        <ele>501.6</ele>
        <time>2023-03-05T13:44:29Z</time>
        <extensions>
          <gpxtpx:TrackPointExtension xmlns:gpxtpx="http://www.garmin.com/xmlschemas/TrackPointExtension/v1">
            <gpxtpx:hr>123</gpxtpx:hr>
          </gpxtpx:TrackPointExtension>
        </extensions>
      </trkpt>
      <trkpt lat="43.09002" lon="1.34865">
        <ele>502</ele>
        <time>2023-03-05T13:44:30Z</time>
        <extensions>
          <gpxtpx:TrackPointExtension xmlns:gpxtpx="http://www.garmin.com/xmlschemas/TrackPointExtension/v1">
            <gpxtpx:hr>123</gpxtpx:hr>
          </gpxtpx:TrackPointExtension>
        </extensions>
      </trkpt>
      <trkpt lat="43.09009" lon="1.34858">
        <ele>502.4</ele>
        <time>2023-03-05T13:44:33Z</time>
        <extensions>
          <gpxtpx:TrackPointExtension xmlns:gpxtpx="http://www.garmin.com/xmlschemas/TrackPointExtension/v1">
            <gpxtpx:hr>123</gpxtpx:hr>
          </gpxtpx:TrackPointExtension>
        </extensions>
      </trkpt>
      <trkpt lat="43.09011" lon="1.34857">
        <ele>502.8</ele>
        <time>2023-03-05T13:44:34Z</time>
        <extensions>
          <gpxtpx:TrackPointExtension xmlns:gpxtpx="http://www.garmin.com/xmlschemas/TrackPointExtension/v1">
            <gpxtpx:hr>123</gpxtpx:hr>
          </gpxtpx:TrackPointExtension>
        </extensions>
      </trkpt>
      <trkpt lat="43.09014" lon="1.34855">
        <ele>503.2</ele>
        <time>2023-03-05T13:44:35Z</time>
        <extensions>
          <gpxtpx:TrackPointExtension xmlns:gpxtpx="http://www.garmin.com/xmlschemas/TrackPointExtension/v1">
            <gpxtpx:hr>123</gpxtpx:hr>
          </gpxtpx:TrackPointExtension>
        </extensions>
      </trkpt>
      <trkpt lat="43.09016" lon="1.34853">
        <ele>503.6</ele>
        <time>2023-03-05T13:44:36Z</time>
        <extensions>
          <gpxtpx:TrackPointExtension xmlns:gpxtpx="http://www.garmin.com/xmlschemas/TrackPointExtension/v1">
            <gpxtpx:hr>123</gpxtpx:hr>
          </gpxtpx:TrackPointExtension>
        </extensions>
      </trkpt>
      <trkpt lat="43.09018" lon="1.34851">
        <ele>504</ele>
        <time>2023-03-05T13:44:37Z</time>
        <extensions>
          <gpxtpx:TrackPointExtension xmlns:gpxtpx="http://www.garmin.com/xmlschemas/TrackPointExtension/v1">
            <gpxtpx:hr>123</gpxtpx:hr>
          </gpxtpx:TrackPointExtension>
        </extensions>
      </trkpt>
      <trkpt lat="43.09029" lon="1.34845">
        <ele>504.6</ele>
        <time>2023-03-05T13:44:41Z</time>
        <extensions>
          <gpxtpx:TrackPointExtension xmlns:gpxtpx="http://www.garmin.com/xmlschemas/TrackPointExtension/v1">
            <gpxtpx:hr>123</gpxtpx:hr>
          </gpxtpx:TrackPointExtension>
        </extensions>
      </trkpt>
      <trkpt lat="43.09031" lon="1.34843">
        <ele>505</ele>
        <time>2023-03-05T13:44:42Z</time>
        <extensions>
          <gpxtpx:TrackPointExtension xmlns:gpxtpx="http://www.garmin.com/xmlschemas/TrackPointExtension/v1">
            <gpxtpx:hr>123</gpxtpx:hr>
          </gpxtpx:TrackPointExtension>
        </extensions>
      </trkpt>
      <trkpt lat="43.09034" lon="1.34841">
        <ele>505.4</ele>
        <time>2023-03-05T13:44:43Z</time>
        <extensions>
          <gpxtpx:TrackPointExtension xmlns:gpxtpx="http://www.garmin.com/xmlschemas/TrackPointExtension/v1">
            <gpxtpx:hr>123</gpxtpx:hr>
          </gpxtpx:TrackPointExtension>
        </extensions>
      </trkpt>
      <trkpt lat="43.09036" lon="1.34839">
        <ele>505.8</ele>
        <time>2023-03-05T13:44:44Z</time>
        <extensions>
          <gpxtpx:TrackPointExtension xmlns:gpxtpx="http://www.garmin.com/xmlschemas/TrackPointExtension/v1">
            <gpxtpx:hr>123</gpxtpx:hr>
          </gpxtpx:TrackPointExtension>
        </extensions>
      </trkpt>
      <trkpt lat="43.09039" lon="1.34837">
        <ele>506.2</ele>
        <time>2023-03-05T13:44:45Z</time>
        <extensions>
          <gpxtpx:TrackPointExtension xmlns:gpxtpx="http://www.garmin.com/xmlschemas/TrackPointExtension/v1">
            <gpxtpx:hr>123</gpxtpx:hr>
          </gpxtpx:TrackPointExtension>
        </extensions>
      </trkpt>
      <trkpt lat="43.09048" lon="1.34833">
        <ele>506.2</ele>
        <time>2023-03-05T13:44:48Z</time>
        <extensions>
          <gpxtpx:TrackPointExtension xmlns:gpxtpx="http://www.garmin.com/xmlschemas/TrackPointExtension/v1">
            <gpxtpx:hr>123</gpxtpx:hr>
          </gpxtpx:TrackPointExtension>
        </extensions>
      </trkpt>
      <trkpt lat="43.09059" lon="1.34827">
        <ele>506.8</ele>
        <time>2023-03-05T13:44:52Z</time>
        <extensions>
          <gpxtpx:TrackPointExtension xmlns:gpxtpx="http://www.garmin.com/xmlschemas/TrackPointExtension/v1">
            <gpxtpx:hr>125</gpxtpx:hr>
          </gpxtpx:TrackPointExtension>
        </extensions>
      </trkpt>
      <trkpt lat="43.09062" lon="1.34826">
        <ele>507.6</ele>
        <time>2023-03-05T13:44:53Z</time>
        <extensions>
          <gpxtpx:TrackPointExtension xmlns:gpxtpx="http://www.garmin.com/xmlschemas/TrackPointExtension/v1">
            <gpxtpx:hr>127</gpxtpx:hr>
          </gpxtpx:TrackPointExtension>
        </extensions>
      </trkpt>
      <trkpt lat="43.09064" lon="1.34825">
        <ele>508</ele>
        <time>2023-03-05T13:44:54Z</time>
        <extensions>
          <gpxtpx:TrackPointExtension xmlns:gpxtpx="http://www.garmin.com/xmlschemas/TrackPointExtension/v1">
            <gpxtpx:hr>128</gpxtpx:hr>
          </gpxtpx:TrackPointExtension>
        </extensions>
      </trkpt>
      <trkpt lat="43.09067" lon="1.34824">
        <ele>508.6</ele>
        <time>2023-03-05T13:44:55Z</time>
        <extensions>
          <gpxtpx:TrackPointExtension xmlns:gpxtpx="http://www.garmin.com/xmlschemas/TrackPointExtension/v1">
            <gpxtpx:hr>128</gpxtpx:hr>
          </gpxtpx:TrackPointExtension>
        </extensions>
      </trkpt>
      <trkpt lat="43.09073" lon="1.34822">
        <ele>508.6</ele>
        <time>2023-03-05T13:44:57Z</time>
        <extensions>
          <gpxtpx:TrackPointExtension xmlns:gpxtpx="http://www.garmin.com/xmlschemas/TrackPointExtension/v1">
            <gpxtpx:hr>128</gpxtpx:hr>
          </gpxtpx:TrackPointExtension>
        </extensions>
      </trkpt>
      <trkpt lat="43.09086" lon="1.3482">
        <ele>509</ele>
        <time>2023-03-05T13:45:01Z</time>
        <extensions>
          <gpxtpx:TrackPointExtension xmlns:gpxtpx="http://www.garmin.com/xmlschemas/TrackPointExtension/v1">
            <gpxtpx:hr>128</gpxtpx:hr>
          </gpxtpx:TrackPointExtension>
        </extensions>
      </trkpt>
      <trkpt lat="43.09089" lon="1.34819">
        <ele>509.4</ele>
        <time>2023-03-05T13:45:02Z</time>
        <extensions>
          <gpxtpx:TrackPointExtension xmlns:gpxtpx="http://www.garmin.com/xmlschemas/TrackPointExtension/v1">
            <gpxtpx:hr>128</gpxtpx:hr>
          </gpxtpx:TrackPointExtension>
        </extensions>
      </trkpt>
      <trkpt lat="43.09092" lon="1.34819">
        <ele>509.8</ele>
        <time>2023-03-05T13:45:03Z</time>
        <extensions>
          <gpxtpx:TrackPointExtension xmlns:gpxtpx="http://www.garmin.com/xmlschemas/TrackPointExtension/v1">
            <gpxtpx:hr>120</gpxtpx:hr>
          </gpxtpx:TrackPointExtension>
        </extensions>
      </trkpt>
      <trkpt lat="43.09095" lon="1.34818">
        <ele>510.2</ele>
        <time>2023-03-05T13:45:04Z</time>
        <extensions>
          <gpxtpx:TrackPointExtension xmlns:gpxtpx="http://www.garmin.com/xmlschemas/TrackPointExtension/v1">
            <gpxtpx:hr>120</gpxtpx:hr>
          </gpxtpx:TrackPointExtension>
        </extensions>
      </trkpt>
      <trkpt lat="43.09098" lon="1.34816">
        <ele>510.6</ele>
        <time>2023-03-05T13:45:05Z</time>
        <extensions>
          <gpxtpx:TrackPointExtension xmlns:gpxtpx="http://www.garmin.com/xmlschemas/TrackPointExtension/v1">
            <gpxtpx:hr>120</gpxtpx:hr>
          </gpxtpx:TrackPointExtension>
        </extensions>
      </trkpt>
      <trkpt lat="43.09114" lon="1.34807">
        <ele>511</ele>
        <time>2023-03-05T13:45:11Z</time>
        <extensions>
          <gpxtpx:TrackPointExtension xmlns:gpxtpx="http://www.garmin.com/xmlschemas/TrackPointExtension/v1">
            <gpxtpx:hr>122</gpxtpx:hr>
          </gpxtpx:TrackPointExtension>
        </extensions>
      </trkpt>
      <trkpt lat="43.09117" lon="1.34805">
        <ele>511.4</ele>
        <time>2023-03-05T13:45:12Z</time>
        <extensions>
          <gpxtpx:TrackPointExtension xmlns:gpxtpx="http://www.garmin.com/xmlschemas/TrackPointExtension/v1">
            <gpxtpx:hr>122</gpxtpx:hr>
          </gpxtpx:TrackPointExtension>
        </extensions>
      </trkpt>
      <trkpt lat="43.09119" lon="1.34802">
        <ele>511.8</ele>
        <time>2023-03-05T13:45:13Z</time>
        <extensions>
          <gpxtpx:TrackPointExtension xmlns:gpxtpx="http://www.garmin.com/xmlschemas/TrackPointExtension/v1">
            <gpxtpx:hr>122</gpxtpx:hr>
          </gpxtpx:TrackPointExtension>
        </extensions>
      </trkpt>
      <trkpt lat="43.09122" lon="1.348">
        <ele>512.2</ele>
        <time>2023-03-05T13:45:14Z</time>
        <extensions>
          <gpxtpx:TrackPointExtension xmlns:gpxtpx="http://www.garmin.com/xmlschemas/TrackPointExtension/v1">
            <gpxtpx:hr>123</gpxtpx:hr>
          </gpxtpx:TrackPointExtension>
        </extensions>
      </trkpt>
      <trkpt lat="43.09124" lon="1.34797">
        <ele>512.6</ele>
        <time>2023-03-05T13:45:15Z</time>
        <extensions>
          <gpxtpx:TrackPointExtension xmlns:gpxtpx="http://www.garmin.com/xmlschemas/TrackPointExtension/v1">
            <gpxtpx:hr>123</gpxtpx:hr>
          </gpxtpx:TrackPointExtension>
        </extensions>
      </trkpt>
      <trkpt lat="43.09137" lon="1.34791">
        <ele>512.6</ele>
        <time>2023-03-05T13:45:19Z</time>
        <extensions>
          <gpxtpx:TrackPointExtension xmlns:gpxtpx="http://www.garmin.com/xmlschemas/TrackPointExtension/v1">
            <gpxtpx:hr>123</gpxtpx:hr>
          </gpxtpx:TrackPointExtension>
        </extensions>
      </trkpt>
      <trkpt lat="43.0915" lon="1.34795">
        <ele>512.6</ele>
        <time>2023-03-05T13:45:22Z</time>
        <extensions>
          <gpxtpx:TrackPointExtension xmlns:gpxtpx="http://www.garmin.com/xmlschemas/TrackPointExtension/v1">
            <gpxtpx:hr>123</gpxtpx:hr>
          </gpxtpx:TrackPointExtension>
        </extensions>
      </trkpt>
      <trkpt lat="43.09157" lon="1.34801">
        <ele>512.6</ele>
        <time>2023-03-05T13:45:24Z</time>
        <extensions>
          <gpxtpx:TrackPointExtension xmlns:gpxtpx="http://www.garmin.com/xmlschemas/TrackPointExtension/v1">
            <gpxtpx:hr>123</gpxtpx:hr>
          </gpxtpx:TrackPointExtension>
        </extensions>
      </trkpt>
      <trkpt lat="43.09165" lon="1.34812">
        <ele>512.6</ele>
        <time>2023-03-05T13:45:27Z</time>
        <extensions>
          <gpxtpx:TrackPointExtension xmlns:gpxtpx="http://www.garmin.com/xmlschemas/TrackPointExtension/v1">
            <gpxtpx:hr>123</gpxtpx:hr>
          </gpxtpx:TrackPointExtension>
        </extensions>
      </trkpt>
      <trkpt lat="43.09169" lon="1.34821">
        <ele>512.6</ele>
        <time>2023-03-05T13:45:29Z</time>
        <extensions>
          <gpxtpx:TrackPointExtension xmlns:gpxtpx="http://www.garmin.com/xmlschemas/TrackPointExtension/v1">
            <gpxtpx:hr>125</gpxtpx:hr>
          </gpxtpx:TrackPointExtension>
        </extensions>
      </trkpt>
      <trkpt lat="43.09175" lon="1.34838">
        <ele>513</ele>
        <time>2023-03-05T13:45:33Z</time>
        <extensions>
          <gpxtpx:TrackPointExtension xmlns:gpxtpx="http://www.garmin.com/xmlschemas/TrackPointExtension/v1">
            <gpxtpx:hr>127</gpxtpx:hr>
          </gpxtpx:TrackPointExtension>
        </extensions>
      </trkpt>
      <trkpt lat="43.09177" lon="1.34842">
        <ele>513.6</ele>
        <time>2023-03-05T13:45:34Z</time>
        <extensions>
          <gpxtpx:TrackPointExtension xmlns:gpxtpx="http://www.garmin.com/xmlschemas/TrackPointExtension/v1">
            <gpxtpx:hr>127</gpxtpx:hr>
          </gpxtpx:TrackPointExtension>
        </extensions>
      </trkpt>
      <trkpt lat="43.09178" lon="1.34847">
        <ele>514</ele>
        <time>2023-03-05T13:45:35Z</time>
        <extensions>
          <gpxtpx:TrackPointExtension xmlns:gpxtpx="http://www.garmin.com/xmlschemas/TrackPointExtension/v1">
            <gpxtpx:hr>127</gpxtpx:hr>
          </gpxtpx:TrackPointExtension>
        </extensions>
      </trkpt>
      <trkpt lat="43.0918" lon="1.34851">
        <ele>514.4</ele>
        <time>2023-03-05T13:45:36Z</time>
        <extensions>
          <gpxtpx:TrackPointExtension xmlns:gpxtpx="http://www.garmin.com/xmlschemas/TrackPointExtension/v1">
            <gpxtpx:hr>127</gpxtpx:hr>
          </gpxtpx:TrackPointExtension>
        </extensions>
      </trkpt>
      <trkpt lat="43.09181" lon="1.34855">
        <ele>514.8</ele>
        <time>2023-03-05T13:45:37Z</time>
        <extensions>
          <gpxtpx:TrackPointExtension xmlns:gpxtpx="http://www.garmin.com/xmlschemas/TrackPointExtension/v1">
            <gpxtpx:hr>127</gpxtpx:hr>
          </gpxtpx:TrackPointExtension>
        </extensions>
      </trkpt>
      <trkpt lat="43.0919" lon="1.34869">
        <ele>515.6</ele>
        <time>2023-03-05T13:45:42Z</time>
        <extensions>
          <gpxtpx:TrackPointExtension xmlns:gpxtpx="http://www.garmin.com/xmlschemas/TrackPointExtension/v1">
            <gpxtpx:hr>127</gpxtpx:hr>
          </gpxtpx:TrackPointExtension>
        </extensions>
      </trkpt>
      <trkpt lat="43.09193" lon="1.34872">
        <ele>516</ele>
        <time>2023-03-05T13:45:43Z</time>
        <extensions>
          <gpxtpx:TrackPointExtension xmlns:gpxtpx="http://www.garmin.com/xmlschemas/TrackPointExtension/v1">
            <gpxtpx:hr>127</gpxtpx:hr>
          </gpxtpx:TrackPointExtension>
        </extensions>
      </trkpt>
      <trkpt lat="43.09196" lon="1.34873">
        <ele>516.4</ele>
        <time>2023-03-05T13:45:44Z</time>
        <extensions>
          <gpxtpx:TrackPointExtension xmlns:gpxtpx="http://www.garmin.com/xmlschemas/TrackPointExtension/v1">
            <gpxtpx:hr>127</gpxtpx:hr>
          </gpxtpx:TrackPointExtension>
        </extensions>
      </trkpt>
      <trkpt lat="43.09199" lon="1.34875">
        <ele>516.8</ele>
        <time>2023-03-05T13:45:45Z</time>
        <extensions>
          <gpxtpx:TrackPointExtension xmlns:gpxtpx="http://www.garmin.com/xmlschemas/TrackPointExtension/v1">
            <gpxtpx:hr>126</gpxtpx:hr>
          </gpxtpx:TrackPointExtension>
        </extensions>
      </trkpt>
      <trkpt lat="43.09207" lon="1.34874">
        <ele>516.8</ele>
        <time>2023-03-05T13:45:47Z</time>
        <extensions>
          <gpxtpx:TrackPointExtension xmlns:gpxtpx="http://www.garmin.com/xmlschemas/TrackPointExtension/v1">
            <gpxtpx:hr>126</gpxtpx:hr>
          </gpxtpx:TrackPointExtension>
        </extensions>
      </trkpt>
      <trkpt lat="43.09211" lon="1.34871">
        <ele>516.8</ele>
        <time>2023-03-05T13:45:48Z</time>
        <extensions>
          <gpxtpx:TrackPointExtension xmlns:gpxtpx="http://www.garmin.com/xmlschemas/TrackPointExtension/v1">
            <gpxtpx:hr>126</gpxtpx:hr>
          </gpxtpx:TrackPointExtension>
        </extensions>
      </trkpt>
      <trkpt lat="43.09218" lon="1.34862">
        <ele>516.4</ele>
        <time>2023-03-05T13:45:50Z</time>
        <extensions>
          <gpxtpx:TrackPointExtension xmlns:gpxtpx="http://www.garmin.com/xmlschemas/TrackPointExtension/v1">
            <gpxtpx:hr>126</gpxtpx:hr>
          </gpxtpx:TrackPointExtension>
        </extensions>
      </trkpt>
      <trkpt lat="43.09221" lon="1.34856">
        <ele>516</ele>
        <time>2023-03-05T13:45:51Z</time>
        <extensions>
          <gpxtpx:TrackPointExtension xmlns:gpxtpx="http://www.garmin.com/xmlschemas/TrackPointExtension/v1">
            <gpxtpx:hr>126</gpxtpx:hr>
          </gpxtpx:TrackPointExtension>
        </extensions>
      </trkpt>
      <trkpt lat="43.09224" lon="1.34851">
        <ele>515.4</ele>
        <time>2023-03-05T13:45:52Z</time>
        <extensions>
          <gpxtpx:TrackPointExtension xmlns:gpxtpx="http://www.garmin.com/xmlschemas/TrackPointExtension/v1">
            <gpxtpx:hr>126</gpxtpx:hr>
          </gpxtpx:TrackPointExtension>
        </extensions>
      </trkpt>
      <trkpt lat="43.09226" lon="1.34845">
        <ele>515</ele>
        <time>2023-03-05T13:45:53Z</time>
        <extensions>
          <gpxtpx:TrackPointExtension xmlns:gpxtpx="http://www.garmin.com/xmlschemas/TrackPointExtension/v1">
            <gpxtpx:hr>126</gpxtpx:hr>
          </gpxtpx:TrackPointExtension>
        </extensions>
      </trkpt>
      <trkpt lat="43.09229" lon="1.3484">
        <ele>514.4</ele>
        <time>2023-03-05T13:45:54Z</time>
        <extensions>
          <gpxtpx:TrackPointExtension xmlns:gpxtpx="http://www.garmin.com/xmlschemas/TrackPointExtension/v1">
            <gpxtpx:hr>126</gpxtpx:hr>
          </gpxtpx:TrackPointExtension>
        </extensions>
      </trkpt>
      <trkpt lat="43.09232" lon="1.34834">
        <ele>514</ele>
        <time>2023-03-05T13:45:55Z</time>
        <extensions>
          <gpxtpx:TrackPointExtension xmlns:gpxtpx="http://www.garmin.com/xmlschemas/TrackPointExtension/v1">
            <gpxtpx:hr>126</gpxtpx:hr>
          </gpxtpx:TrackPointExtension>
        </extensions>
      </trkpt>
      <trkpt lat="43.09235" lon="1.3483">
        <ele>513.4</ele>
        <time>2023-03-05T13:45:56Z</time>
        <extensions>
          <gpxtpx:TrackPointExtension xmlns:gpxtpx="http://www.garmin.com/xmlschemas/TrackPointExtension/v1">
            <gpxtpx:hr>126</gpxtpx:hr>
          </gpxtpx:TrackPointExtension>
        </extensions>
      </trkpt>
      <trkpt lat="43.09237" lon="1.34825">
        <ele>513</ele>
        <time>2023-03-05T13:45:57Z</time>
        <extensions>
          <gpxtpx:TrackPointExtension xmlns:gpxtpx="http://www.garmin.com/xmlschemas/TrackPointExtension/v1">
            <gpxtpx:hr>126</gpxtpx:hr>
          </gpxtpx:TrackPointExtension>
        </extensions>
      </trkpt>
      <trkpt lat="43.0924" lon="1.34821">
        <ele>512.4</ele>
        <time>2023-03-05T13:45:58Z</time>
        <extensions>
          <gpxtpx:TrackPointExtension xmlns:gpxtpx="http://www.garmin.com/xmlschemas/TrackPointExtension/v1">
            <gpxtpx:hr>125</gpxtpx:hr>
          </gpxtpx:TrackPointExtension>
        </extensions>
      </trkpt>
      <trkpt lat="43.09242" lon="1.34817">
        <ele>512.4</ele>
        <time>2023-03-05T13:45:59Z</time>
        <extensions>
          <gpxtpx:TrackPointExtension xmlns:gpxtpx="http://www.garmin.com/xmlschemas/TrackPointExtension/v1">
            <gpxtpx:hr>125</gpxtpx:hr>
          </gpxtpx:TrackPointExtension>
        </extensions>
      </trkpt>
      <trkpt lat="43.09249" lon="1.34802">
        <ele>512.4</ele>
        <time>2023-03-05T13:46:02Z</time>
        <extensions>
          <gpxtpx:TrackPointExtension xmlns:gpxtpx="http://www.garmin.com/xmlschemas/TrackPointExtension/v1">
            <gpxtpx:hr>125</gpxtpx:hr>
          </gpxtpx:TrackPointExtension>
        </extensions>
      </trkpt>
      <trkpt lat="43.09252" lon="1.34796">
        <ele>512</ele>
        <time>2023-03-05T13:46:03Z</time>
        <extensions>
          <gpxtpx:TrackPointExtension xmlns:gpxtpx="http://www.garmin.com/xmlschemas/TrackPointExtension/v1">
            <gpxtpx:hr>125</gpxtpx:hr>
          </gpxtpx:TrackPointExtension>
        </extensions>
      </trkpt>
      <trkpt lat="43.09255" lon="1.3479">
        <ele>511.6</ele>
        <time>2023-03-05T13:46:04Z</time>
        <extensions>
          <gpxtpx:TrackPointExtension xmlns:gpxtpx="http://www.garmin.com/xmlschemas/TrackPointExtension/v1">
            <gpxtpx:hr>125</gpxtpx:hr>
          </gpxtpx:TrackPointExtension>
        </extensions>
      </trkpt>
      <trkpt lat="43.09258" lon="1.34785">
        <ele>511</ele>
        <time>2023-03-05T13:46:05Z</time>
        <extensions>
          <gpxtpx:TrackPointExtension xmlns:gpxtpx="http://www.garmin.com/xmlschemas/TrackPointExtension/v1">
            <gpxtpx:hr>125</gpxtpx:hr>
          </gpxtpx:TrackPointExtension>
        </extensions>
      </trkpt>
      <trkpt lat="43.09261" lon="1.34779">
        <ele>510.6</ele>
        <time>2023-03-05T13:46:06Z</time>
        <extensions>
          <gpxtpx:TrackPointExtension xmlns:gpxtpx="http://www.garmin.com/xmlschemas/TrackPointExtension/v1">
            <gpxtpx:hr>125</gpxtpx:hr>
          </gpxtpx:TrackPointExtension>
        </extensions>
      </trkpt>
      <trkpt lat="43.09265" lon="1.34774">
        <ele>510.2</ele>
        <time>2023-03-05T13:46:07Z</time>
        <extensions>
          <gpxtpx:TrackPointExtension xmlns:gpxtpx="http://www.garmin.com/xmlschemas/TrackPointExtension/v1">
            <gpxtpx:hr>125</gpxtpx:hr>
          </gpxtpx:TrackPointExtension>
        </extensions>
      </trkpt>
      <trkpt lat="43.09276" lon="1.34753">
        <ele>510.2</ele>
        <time>2023-03-05T13:46:11Z</time>
        <extensions>
          <gpxtpx:TrackPointExtension xmlns:gpxtpx="http://www.garmin.com/xmlschemas/TrackPointExtension/v1">
            <gpxtpx:hr>124</gpxtpx:hr>
          </gpxtpx:TrackPointExtension>
        </extensions>
      </trkpt>
      <trkpt lat="43.093" lon="1.34707">
        <ele>510.2</ele>
        <time>2023-03-05T13:46:19Z</time>
        <extensions>
          <gpxtpx:TrackPointExtension xmlns:gpxtpx="http://www.garmin.com/xmlschemas/TrackPointExtension/v1">
            <gpxtpx:hr>122</gpxtpx:hr>
          </gpxtpx:TrackPointExtension>
        </extensions>
      </trkpt>
      <trkpt lat="43.09324" lon="1.34658">
        <ele>510.2</ele>
        <time>2023-03-05T13:46:28Z</time>
        <extensions>
          <gpxtpx:TrackPointExtension xmlns:gpxtpx="http://www.garmin.com/xmlschemas/TrackPointExtension/v1">
            <gpxtpx:hr>122</gpxtpx:hr>
          </gpxtpx:TrackPointExtension>
        </extensions>
      </trkpt>
      <trkpt lat="43.09331" lon="1.34643">
        <ele>510.2</ele>
        <time>2023-03-05T13:46:31Z</time>
        <extensions>
          <gpxtpx:TrackPointExtension xmlns:gpxtpx="http://www.garmin.com/xmlschemas/TrackPointExtension/v1">
            <gpxtpx:hr>114</gpxtpx:hr>
          </gpxtpx:TrackPointExtension>
        </extensions>
      </trkpt>
      <trkpt lat="43.09333" lon="1.34638">
        <ele>510.2</ele>
        <time>2023-03-05T13:46:32Z</time>
        <extensions>
          <gpxtpx:TrackPointExtension xmlns:gpxtpx="http://www.garmin.com/xmlschemas/TrackPointExtension/v1">
            <gpxtpx:hr>114</gpxtpx:hr>
          </gpxtpx:TrackPointExtension>
        </extensions>
      </trkpt>
      <trkpt lat="43.09341" lon="1.34622">
        <ele>509.8</ele>
        <time>2023-03-05T13:46:35Z</time>
        <extensions>
          <gpxtpx:TrackPointExtension xmlns:gpxtpx="http://www.garmin.com/xmlschemas/TrackPointExtension/v1">
            <gpxtpx:hr>115</gpxtpx:hr>
          </gpxtpx:TrackPointExtension>
        </extensions>
      </trkpt>
      <trkpt lat="43.09343" lon="1.34616">
        <ele>509.4</ele>
        <time>2023-03-05T13:46:36Z</time>
        <extensions>
          <gpxtpx:TrackPointExtension xmlns:gpxtpx="http://www.garmin.com/xmlschemas/TrackPointExtension/v1">
            <gpxtpx:hr>114</gpxtpx:hr>
          </gpxtpx:TrackPointExtension>
        </extensions>
      </trkpt>
      <trkpt lat="43.09347" lon="1.34611">
        <ele>509</ele>
        <time>2023-03-05T13:46:37Z</time>
        <extensions>
          <gpxtpx:TrackPointExtension xmlns:gpxtpx="http://www.garmin.com/xmlschemas/TrackPointExtension/v1">
            <gpxtpx:hr>114</gpxtpx:hr>
          </gpxtpx:TrackPointExtension>
        </extensions>
      </trkpt>
      <trkpt lat="43.09353" lon="1.34609">
        <ele>508.6</ele>
        <time>2023-03-05T13:46:38Z</time>
        <extensions>
          <gpxtpx:TrackPointExtension xmlns:gpxtpx="http://www.garmin.com/xmlschemas/TrackPointExtension/v1">
            <gpxtpx:hr>114</gpxtpx:hr>
          </gpxtpx:TrackPointExtension>
        </extensions>
      </trkpt>
      <trkpt lat="43.09359" lon="1.34612">
        <ele>508.2</ele>
        <time>2023-03-05T13:46:39Z</time>
        <extensions>
          <gpxtpx:TrackPointExtension xmlns:gpxtpx="http://www.garmin.com/xmlschemas/TrackPointExtension/v1">
            <gpxtpx:hr>114</gpxtpx:hr>
          </gpxtpx:TrackPointExtension>
        </extensions>
      </trkpt>
      <trkpt lat="43.09371" lon="1.34626">
        <ele>508.2</ele>
        <time>2023-03-05T13:46:42Z</time>
        <extensions>
          <gpxtpx:TrackPointExtension xmlns:gpxtpx="http://www.garmin.com/xmlschemas/TrackPointExtension/v1">
            <gpxtpx:hr>114</gpxtpx:hr>
          </gpxtpx:TrackPointExtension>
        </extensions>
      </trkpt>
      <trkpt lat="43.09376" lon="1.3463">
        <ele>508.2</ele>
        <time>2023-03-05T13:46:43Z</time>
        <extensions>
          <gpxtpx:TrackPointExtension xmlns:gpxtpx="http://www.garmin.com/xmlschemas/TrackPointExtension/v1">
            <gpxtpx:hr>114</gpxtpx:hr>
          </gpxtpx:TrackPointExtension>
        </extensions>
      </trkpt>
      <trkpt lat="43.09386" lon="1.34644">
        <ele>508.2</ele>
        <time>2023-03-05T13:46:46Z</time>
        <extensions>
          <gpxtpx:TrackPointExtension xmlns:gpxtpx="http://www.garmin.com/xmlschemas/TrackPointExtension/v1">
            <gpxtpx:hr>115</gpxtpx:hr>
          </gpxtpx:TrackPointExtension>
        </extensions>
      </trkpt>
      <trkpt lat="43.09406" lon="1.34674">
        <ele>508.2</ele>
        <time>2023-03-05T13:46:52Z</time>
        <extensions>
          <gpxtpx:TrackPointExtension xmlns:gpxtpx="http://www.garmin.com/xmlschemas/TrackPointExtension/v1">
            <gpxtpx:hr>115</gpxtpx:hr>
          </gpxtpx:TrackPointExtension>
        </extensions>
      </trkpt>
      <trkpt lat="43.09428" lon="1.34709">
        <ele>508.2</ele>
        <time>2023-03-05T13:46:59Z</time>
        <extensions>
          <gpxtpx:TrackPointExtension xmlns:gpxtpx="http://www.garmin.com/xmlschemas/TrackPointExtension/v1">
            <gpxtpx:hr>115</gpxtpx:hr>
          </gpxtpx:TrackPointExtension>
        </extensions>
      </trkpt>
      <trkpt lat="43.09453" lon="1.34742">
        <ele>508.2</ele>
        <time>2023-03-05T13:47:07Z</time>
        <extensions>
          <gpxtpx:TrackPointExtension xmlns:gpxtpx="http://www.garmin.com/xmlschemas/TrackPointExtension/v1">
            <gpxtpx:hr>116</gpxtpx:hr>
          </gpxtpx:TrackPointExtension>
        </extensions>
      </trkpt>
      <trkpt lat="43.09479" lon="1.34775">
        <ele>508.2</ele>
        <time>2023-03-05T13:47:16Z</time>
        <extensions>
          <gpxtpx:TrackPointExtension xmlns:gpxtpx="http://www.garmin.com/xmlschemas/TrackPointExtension/v1">
            <gpxtpx:hr>116</gpxtpx:hr>
          </gpxtpx:TrackPointExtension>
        </extensions>
      </trkpt>
      <trkpt lat="43.09489" lon="1.34793">
        <ele>508.2</ele>
        <time>2023-03-05T13:47:20Z</time>
        <extensions>
          <gpxtpx:TrackPointExtension xmlns:gpxtpx="http://www.garmin.com/xmlschemas/TrackPointExtension/v1">
            <gpxtpx:hr>116</gpxtpx:hr>
          </gpxtpx:TrackPointExtension>
        </extensions>
      </trkpt>
      <trkpt lat="43.09492" lon="1.34804">
        <ele>508.2</ele>
        <time>2023-03-05T13:47:22Z</time>
        <extensions>
          <gpxtpx:TrackPointExtension xmlns:gpxtpx="http://www.garmin.com/xmlschemas/TrackPointExtension/v1">
            <gpxtpx:hr>116</gpxtpx:hr>
          </gpxtpx:TrackPointExtension>
        </extensions>
      </trkpt>
      <trkpt lat="43.09501" lon="1.34835">
        <ele>508.2</ele>
        <time>2023-03-05T13:47:27Z</time>
        <extensions>
          <gpxtpx:TrackPointExtension xmlns:gpxtpx="http://www.garmin.com/xmlschemas/TrackPointExtension/v1">
            <gpxtpx:hr>116</gpxtpx:hr>
          </gpxtpx:TrackPointExtension>
        </extensions>
      </trkpt>
      <trkpt lat="43.09509" lon="1.34855">
        <ele>507.8</ele>
        <time>2023-03-05T13:47:30Z</time>
        <extensions>
          <gpxtpx:TrackPointExtension xmlns:gpxtpx="http://www.garmin.com/xmlschemas/TrackPointExtension/v1">
            <gpxtpx:hr>116</gpxtpx:hr>
          </gpxtpx:TrackPointExtension>
        </extensions>
      </trkpt>
      <trkpt lat="43.0951" lon="1.34864">
        <ele>507.4</ele>
        <time>2023-03-05T13:47:31Z</time>
        <extensions>
          <gpxtpx:TrackPointExtension xmlns:gpxtpx="http://www.garmin.com/xmlschemas/TrackPointExtension/v1">
            <gpxtpx:hr>116</gpxtpx:hr>
          </gpxtpx:TrackPointExtension>
        </extensions>
      </trkpt>
      <trkpt lat="43.09509" lon="1.34872">
        <ele>506.8</ele>
        <time>2023-03-05T13:47:32Z</time>
        <extensions>
          <gpxtpx:TrackPointExtension xmlns:gpxtpx="http://www.garmin.com/xmlschemas/TrackPointExtension/v1">
            <gpxtpx:hr>116</gpxtpx:hr>
          </gpxtpx:TrackPointExtension>
        </extensions>
      </trkpt>
      <trkpt lat="43.09508" lon="1.34882">
        <ele>506.4</ele>
        <time>2023-03-05T13:47:33Z</time>
        <extensions>
          <gpxtpx:TrackPointExtension xmlns:gpxtpx="http://www.garmin.com/xmlschemas/TrackPointExtension/v1">
            <gpxtpx:hr>116</gpxtpx:hr>
          </gpxtpx:TrackPointExtension>
        </extensions>
      </trkpt>
      <trkpt lat="43.09506" lon="1.34892">
        <ele>505.8</ele>
        <time>2023-03-05T13:47:34Z</time>
        <extensions>
          <gpxtpx:TrackPointExtension xmlns:gpxtpx="http://www.garmin.com/xmlschemas/TrackPointExtension/v1">
            <gpxtpx:hr>116</gpxtpx:hr>
          </gpxtpx:TrackPointExtension>
        </extensions>
      </trkpt>
      <trkpt lat="43.09504" lon="1.349">
        <ele>505.4</ele>
        <time>2023-03-05T13:47:35Z</time>
        <extensions>
          <gpxtpx:TrackPointExtension xmlns:gpxtpx="http://www.garmin.com/xmlschemas/TrackPointExtension/v1">
            <gpxtpx:hr>116</gpxtpx:hr>
          </gpxtpx:TrackPointExtension>
        </extensions>
      </trkpt>
      <trkpt lat="43.09502" lon="1.34906">
        <ele>504.8</ele>
        <time>2023-03-05T13:47:36Z</time>
        <extensions>
          <gpxtpx:TrackPointExtension xmlns:gpxtpx="http://www.garmin.com/xmlschemas/TrackPointExtension/v1">
            <gpxtpx:hr>116</gpxtpx:hr>
          </gpxtpx:TrackPointExtension>
        </extensions>
      </trkpt>
      <trkpt lat="43.09501" lon="1.34913">
        <ele>504.2</ele>
        <time>2023-03-05T13:47:37Z</time>
        <extensions>
          <gpxtpx:TrackPointExtension xmlns:gpxtpx="http://www.garmin.com/xmlschemas/TrackPointExtension/v1">
            <gpxtpx:hr>115</gpxtpx:hr>
          </gpxtpx:TrackPointExtension>
        </extensions>
      </trkpt>
      <trkpt lat="43.09499" lon="1.34918">
        <ele>503.6</ele>
        <time>2023-03-05T13:47:38Z</time>
        <extensions>
          <gpxtpx:TrackPointExtension xmlns:gpxtpx="http://www.garmin.com/xmlschemas/TrackPointExtension/v1">
            <gpxtpx:hr>115</gpxtpx:hr>
          </gpxtpx:TrackPointExtension>
        </extensions>
      </trkpt>
      <trkpt lat="43.09498" lon="1.34923">
        <ele>503.2</ele>
        <time>2023-03-05T13:47:39Z</time>
        <extensions>
          <gpxtpx:TrackPointExtension xmlns:gpxtpx="http://www.garmin.com/xmlschemas/TrackPointExtension/v1">
            <gpxtpx:hr>114</gpxtpx:hr>
          </gpxtpx:TrackPointExtension>
        </extensions>
      </trkpt>
      <trkpt lat="43.09497" lon="1.34928">
        <ele>502.8</ele>
        <time>2023-03-05T13:47:40Z</time>
        <extensions>
          <gpxtpx:TrackPointExtension xmlns:gpxtpx="http://www.garmin.com/xmlschemas/TrackPointExtension/v1">
            <gpxtpx:hr>114</gpxtpx:hr>
          </gpxtpx:TrackPointExtension>
        </extensions>
      </trkpt>
      <trkpt lat="43.09498" lon="1.34932">
        <ele>502.4</ele>
        <time>2023-03-05T13:47:41Z</time>
        <extensions>
          <gpxtpx:TrackPointExtension xmlns:gpxtpx="http://www.garmin.com/xmlschemas/TrackPointExtension/v1">
            <gpxtpx:hr>114</gpxtpx:hr>
          </gpxtpx:TrackPointExtension>
        </extensions>
      </trkpt>
      <trkpt lat="43.09503" lon="1.34935">
        <ele>501.8</ele>
        <time>2023-03-05T13:47:42Z</time>
        <extensions>
          <gpxtpx:TrackPointExtension xmlns:gpxtpx="http://www.garmin.com/xmlschemas/TrackPointExtension/v1">
            <gpxtpx:hr>114</gpxtpx:hr>
          </gpxtpx:TrackPointExtension>
        </extensions>
      </trkpt>
      <trkpt lat="43.09507" lon="1.34934">
        <ele>501.4</ele>
        <time>2023-03-05T13:47:43Z</time>
        <extensions>
          <gpxtpx:TrackPointExtension xmlns:gpxtpx="http://www.garmin.com/xmlschemas/TrackPointExtension/v1">
            <gpxtpx:hr>114</gpxtpx:hr>
          </gpxtpx:TrackPointExtension>
        </extensions>
      </trkpt>
      <trkpt lat="43.09512" lon="1.34931">
        <ele>501.4</ele>
        <time>2023-03-05T13:47:44Z</time>
        <extensions>
          <gpxtpx:TrackPointExtension xmlns:gpxtpx="http://www.garmin.com/xmlschemas/TrackPointExtension/v1">
            <gpxtpx:hr>114</gpxtpx:hr>
          </gpxtpx:TrackPointExtension>
        </extensions>
      </trkpt>
      <trkpt lat="43.09517" lon="1.34927">
        <ele>500.4</ele>
        <time>2023-03-05T13:47:45Z</time>
        <extensions>
          <gpxtpx:TrackPointExtension xmlns:gpxtpx="http://www.garmin.com/xmlschemas/TrackPointExtension/v1">
            <gpxtpx:hr>114</gpxtpx:hr>
          </gpxtpx:TrackPointExtension>
        </extensions>
      </trkpt>
      <trkpt lat="43.09523" lon="1.34924">
        <ele>499.8</ele>
        <time>2023-03-05T13:47:46Z</time>
        <extensions>
          <gpxtpx:TrackPointExtension xmlns:gpxtpx="http://www.garmin.com/xmlschemas/TrackPointExtension/v1">
            <gpxtpx:hr>114</gpxtpx:hr>
          </gpxtpx:TrackPointExtension>
        </extensions>
      </trkpt>
      <trkpt lat="43.0953" lon="1.34921">
        <ele>499.2</ele>
        <time>2023-03-05T13:47:47Z</time>
        <extensions>
          <gpxtpx:TrackPointExtension xmlns:gpxtpx="http://www.garmin.com/xmlschemas/TrackPointExtension/v1">
            <gpxtpx:hr>114</gpxtpx:hr>
          </gpxtpx:TrackPointExtension>
        </extensions>
      </trkpt>
      <trkpt lat="43.09537" lon="1.34918">
        <ele>498.4</ele>
        <time>2023-03-05T13:47:48Z</time>
        <extensions>
          <gpxtpx:TrackPointExtension xmlns:gpxtpx="http://www.garmin.com/xmlschemas/TrackPointExtension/v1">
            <gpxtpx:hr>114</gpxtpx:hr>
          </gpxtpx:TrackPointExtension>
        </extensions>
      </trkpt>
      <trkpt lat="43.09544" lon="1.34914">
        <ele>497.8</ele>
        <time>2023-03-05T13:47:49Z</time>
        <extensions>
          <gpxtpx:TrackPointExtension xmlns:gpxtpx="http://www.garmin.com/xmlschemas/TrackPointExtension/v1">
            <gpxtpx:hr>114</gpxtpx:hr>
          </gpxtpx:TrackPointExtension>
        </extensions>
      </trkpt>
      <trkpt lat="43.0955" lon="1.34908">
        <ele>497.2</ele>
        <time>2023-03-05T13:47:50Z</time>
        <extensions>
          <gpxtpx:TrackPointExtension xmlns:gpxtpx="http://www.garmin.com/xmlschemas/TrackPointExtension/v1">
            <gpxtpx:hr>114</gpxtpx:hr>
          </gpxtpx:TrackPointExtension>
        </extensions>
      </trkpt>
      <trkpt lat="43.09555" lon="1.34902">
        <ele>496.4</ele>
        <time>2023-03-05T13:47:51Z</time>
        <extensions>
          <gpxtpx:TrackPointExtension xmlns:gpxtpx="http://www.garmin.com/xmlschemas/TrackPointExtension/v1">
            <gpxtpx:hr>113</gpxtpx:hr>
          </gpxtpx:TrackPointExtension>
        </extensions>
      </trkpt>
      <trkpt lat="43.0956" lon="1.34897">
        <ele>495.8</ele>
        <time>2023-03-05T13:47:52Z</time>
        <extensions>
          <gpxtpx:TrackPointExtension xmlns:gpxtpx="http://www.garmin.com/xmlschemas/TrackPointExtension/v1">
            <gpxtpx:hr>113</gpxtpx:hr>
          </gpxtpx:TrackPointExtension>
        </extensions>
      </trkpt>
      <trkpt lat="43.09567" lon="1.34897">
        <ele>495</ele>
        <time>2023-03-05T13:47:53Z</time>
        <extensions>
          <gpxtpx:TrackPointExtension xmlns:gpxtpx="http://www.garmin.com/xmlschemas/TrackPointExtension/v1">
            <gpxtpx:hr>113</gpxtpx:hr>
          </gpxtpx:TrackPointExtension>
        </extensions>
      </trkpt>
      <trkpt lat="43.09573" lon="1.349">
        <ele>494.2</ele>
        <time>2023-03-05T13:47:54Z</time>
        <extensions>
          <gpxtpx:TrackPointExtension xmlns:gpxtpx="http://www.garmin.com/xmlschemas/TrackPointExtension/v1">
            <gpxtpx:hr>113</gpxtpx:hr>
          </gpxtpx:TrackPointExtension>
        </extensions>
      </trkpt>
      <trkpt lat="43.09578" lon="1.34907">
        <ele>493.6</ele>
        <time>2023-03-05T13:47:55Z</time>
        <extensions>
          <gpxtpx:TrackPointExtension xmlns:gpxtpx="http://www.garmin.com/xmlschemas/TrackPointExtension/v1">
            <gpxtpx:hr>113</gpxtpx:hr>
          </gpxtpx:TrackPointExtension>
        </extensions>
      </trkpt>
      <trkpt lat="43.0958" lon="1.34914">
        <ele>493.2</ele>
        <time>2023-03-05T13:47:56Z</time>
        <extensions>
          <gpxtpx:TrackPointExtension xmlns:gpxtpx="http://www.garmin.com/xmlschemas/TrackPointExtension/v1">
            <gpxtpx:hr>113</gpxtpx:hr>
          </gpxtpx:TrackPointExtension>
        </extensions>
      </trkpt>
      <trkpt lat="43.0958" lon="1.34923">
        <ele>492.6</ele>
        <time>2023-03-05T13:47:57Z</time>
        <extensions>
          <gpxtpx:TrackPointExtension xmlns:gpxtpx="http://www.garmin.com/xmlschemas/TrackPointExtension/v1">
            <gpxtpx:hr>113</gpxtpx:hr>
          </gpxtpx:TrackPointExtension>
        </extensions>
      </trkpt>
      <trkpt lat="43.0958" lon="1.34932">
        <ele>492</ele>
        <time>2023-03-05T13:47:58Z</time>
        <extensions>
          <gpxtpx:TrackPointExtension xmlns:gpxtpx="http://www.garmin.com/xmlschemas/TrackPointExtension/v1">
            <gpxtpx:hr>113</gpxtpx:hr>
          </gpxtpx:TrackPointExtension>
        </extensions>
      </trkpt>
      <trkpt lat="43.09579" lon="1.34941">
        <ele>491.4</ele>
        <time>2023-03-05T13:47:59Z</time>
        <extensions>
          <gpxtpx:TrackPointExtension xmlns:gpxtpx="http://www.garmin.com/xmlschemas/TrackPointExtension/v1">
            <gpxtpx:hr>113</gpxtpx:hr>
          </gpxtpx:TrackPointExtension>
        </extensions>
      </trkpt>
      <trkpt lat="43.09581" lon="1.3495">
        <ele>491.4</ele>
        <time>2023-03-05T13:48:00Z</time>
        <extensions>
          <gpxtpx:TrackPointExtension xmlns:gpxtpx="http://www.garmin.com/xmlschemas/TrackPointExtension/v1">
            <gpxtpx:hr>113</gpxtpx:hr>
          </gpxtpx:TrackPointExtension>
        </extensions>
      </trkpt>
      <trkpt lat="43.09584" lon="1.3496">
        <ele>490.8</ele>
        <time>2023-03-05T13:48:01Z</time>
        <extensions>
          <gpxtpx:TrackPointExtension xmlns:gpxtpx="http://www.garmin.com/xmlschemas/TrackPointExtension/v1">
            <gpxtpx:hr>113</gpxtpx:hr>
          </gpxtpx:TrackPointExtension>
        </extensions>
      </trkpt>
      <trkpt lat="43.09586" lon="1.34969">
        <ele>490.4</ele>
        <time>2023-03-05T13:48:02Z</time>
        <extensions>
          <gpxtpx:TrackPointExtension xmlns:gpxtpx="http://www.garmin.com/xmlschemas/TrackPointExtension/v1">
            <gpxtpx:hr>113</gpxtpx:hr>
          </gpxtpx:TrackPointExtension>
        </extensions>
      </trkpt>
      <trkpt lat="43.09589" lon="1.34979">
        <ele>489.8</ele>
        <time>2023-03-05T13:48:03Z</time>
        <extensions>
          <gpxtpx:TrackPointExtension xmlns:gpxtpx="http://www.garmin.com/xmlschemas/TrackPointExtension/v1">
            <gpxtpx:hr>114</gpxtpx:hr>
          </gpxtpx:TrackPointExtension>
        </extensions>
      </trkpt>
      <trkpt lat="43.09592" lon="1.3499">
        <ele>489.4</ele>
        <time>2023-03-05T13:48:04Z</time>
        <extensions>
          <gpxtpx:TrackPointExtension xmlns:gpxtpx="http://www.garmin.com/xmlschemas/TrackPointExtension/v1">
            <gpxtpx:hr>114</gpxtpx:hr>
          </gpxtpx:TrackPointExtension>
        </extensions>
      </trkpt>
      <trkpt lat="43.09597" lon="1.34998">
        <ele>488.8</ele>
        <time>2023-03-05T13:48:05Z</time>
        <extensions>
          <gpxtpx:TrackPointExtension xmlns:gpxtpx="http://www.garmin.com/xmlschemas/TrackPointExtension/v1">
            <gpxtpx:hr>114</gpxtpx:hr>
          </gpxtpx:TrackPointExtension>
        </extensions>
      </trkpt>
      <trkpt lat="43.096" lon="1.35006">
        <ele>488.2</ele>
        <time>2023-03-05T13:48:06Z</time>
        <extensions>
          <gpxtpx:TrackPointExtension xmlns:gpxtpx="http://www.garmin.com/xmlschemas/TrackPointExtension/v1">
            <gpxtpx:hr>114</gpxtpx:hr>
          </gpxtpx:TrackPointExtension>
        </extensions>
      </trkpt>
      <trkpt lat="43.09599" lon="1.35016">
        <ele>487.6</ele>
        <time>2023-03-05T13:48:07Z</time>
        <extensions>
          <gpxtpx:TrackPointExtension xmlns:gpxtpx="http://www.garmin.com/xmlschemas/TrackPointExtension/v1">
            <gpxtpx:hr>114</gpxtpx:hr>
          </gpxtpx:TrackPointExtension>
        </extensions>
      </trkpt>
      <trkpt lat="43.09598" lon="1.35025">
        <ele>486.8</ele>
        <time>2023-03-05T13:48:08Z</time>
        <extensions>
          <gpxtpx:TrackPointExtension xmlns:gpxtpx="http://www.garmin.com/xmlschemas/TrackPointExtension/v1">
            <gpxtpx:hr>114</gpxtpx:hr>
          </gpxtpx:TrackPointExtension>
        </extensions>
      </trkpt>
      <trkpt lat="43.09594" lon="1.35033">
        <ele>486</ele>
        <time>2023-03-05T13:48:09Z</time>
        <extensions>
          <gpxtpx:TrackPointExtension xmlns:gpxtpx="http://www.garmin.com/xmlschemas/TrackPointExtension/v1">
            <gpxtpx:hr>114</gpxtpx:hr>
          </gpxtpx:TrackPointExtension>
        </extensions>
      </trkpt>
      <trkpt lat="43.09589" lon="1.35041">
        <ele>484.4</ele>
        <time>2023-03-05T13:48:10Z</time>
        <extensions>
          <gpxtpx:TrackPointExtension xmlns:gpxtpx="http://www.garmin.com/xmlschemas/TrackPointExtension/v1">
            <gpxtpx:hr>114</gpxtpx:hr>
          </gpxtpx:TrackPointExtension>
        </extensions>
      </trkpt>
      <trkpt lat="43.09588" lon="1.3505">
        <ele>483.8</ele>
        <time>2023-03-05T13:48:11Z</time>
        <extensions>
          <gpxtpx:TrackPointExtension xmlns:gpxtpx="http://www.garmin.com/xmlschemas/TrackPointExtension/v1">
            <gpxtpx:hr>114</gpxtpx:hr>
          </gpxtpx:TrackPointExtension>
        </extensions>
      </trkpt>
      <trkpt lat="43.0959" lon="1.35057">
        <ele>483</ele>
        <time>2023-03-05T13:48:12Z</time>
        <extensions>
          <gpxtpx:TrackPointExtension xmlns:gpxtpx="http://www.garmin.com/xmlschemas/TrackPointExtension/v1">
            <gpxtpx:hr>114</gpxtpx:hr>
          </gpxtpx:TrackPointExtension>
        </extensions>
      </trkpt>
      <trkpt lat="43.09594" lon="1.35063">
        <ele>482.2</ele>
        <time>2023-03-05T13:48:13Z</time>
        <extensions>
          <gpxtpx:TrackPointExtension xmlns:gpxtpx="http://www.garmin.com/xmlschemas/TrackPointExtension/v1">
            <gpxtpx:hr>114</gpxtpx:hr>
          </gpxtpx:TrackPointExtension>
        </extensions>
      </trkpt>
      <trkpt lat="43.09598" lon="1.35068">
        <ele>481.6</ele>
        <time>2023-03-05T13:48:14Z</time>
        <extensions>
          <gpxtpx:TrackPointExtension xmlns:gpxtpx="http://www.garmin.com/xmlschemas/TrackPointExtension/v1">
            <gpxtpx:hr>113</gpxtpx:hr>
          </gpxtpx:TrackPointExtension>
        </extensions>
      </trkpt>
      <trkpt lat="43.09607" lon="1.35077">
        <ele>481.6</ele>
        <time>2023-03-05T13:48:16Z</time>
        <extensions>
          <gpxtpx:TrackPointExtension xmlns:gpxtpx="http://www.garmin.com/xmlschemas/TrackPointExtension/v1">
            <gpxtpx:hr>112</gpxtpx:hr>
          </gpxtpx:TrackPointExtension>
        </extensions>
      </trkpt>
      <trkpt lat="43.09627" lon="1.35103">
        <ele>481.6</ele>
        <time>2023-03-05T13:48:22Z</time>
        <extensions>
          <gpxtpx:TrackPointExtension xmlns:gpxtpx="http://www.garmin.com/xmlschemas/TrackPointExtension/v1">
            <gpxtpx:hr>111</gpxtpx:hr>
          </gpxtpx:TrackPointExtension>
        </extensions>
      </trkpt>
      <trkpt lat="43.09632" lon="1.35113">
        <ele>481.6</ele>
        <time>2023-03-05T13:48:24Z</time>
        <extensions>
          <gpxtpx:TrackPointExtension xmlns:gpxtpx="http://www.garmin.com/xmlschemas/TrackPointExtension/v1">
            <gpxtpx:hr>111</gpxtpx:hr>
          </gpxtpx:TrackPointExtension>
        </extensions>
      </trkpt>
      <trkpt lat="43.09636" lon="1.35127">
        <ele>481.6</ele>
        <time>2023-03-05T13:48:27Z</time>
        <extensions>
          <gpxtpx:TrackPointExtension xmlns:gpxtpx="http://www.garmin.com/xmlschemas/TrackPointExtension/v1">
            <gpxtpx:hr>111</gpxtpx:hr>
          </gpxtpx:TrackPointExtension>
        </extensions>
      </trkpt>
      <trkpt lat="43.09645" lon="1.35148">
        <ele>481.6</ele>
        <time>2023-03-05T13:48:32Z</time>
        <extensions>
          <gpxtpx:TrackPointExtension xmlns:gpxtpx="http://www.garmin.com/xmlschemas/TrackPointExtension/v1">
            <gpxtpx:hr>114</gpxtpx:hr>
          </gpxtpx:TrackPointExtension>
        </extensions>
      </trkpt>
      <trkpt lat="43.09652" lon="1.35165">
        <ele>481.6</ele>
        <time>2023-03-05T13:48:36Z</time>
        <extensions>
          <gpxtpx:TrackPointExtension xmlns:gpxtpx="http://www.garmin.com/xmlschemas/TrackPointExtension/v1">
            <gpxtpx:hr>114</gpxtpx:hr>
          </gpxtpx:TrackPointExtension>
        </extensions>
      </trkpt>
      <trkpt lat="43.09665" lon="1.35198">
        <ele>481.6</ele>
        <time>2023-03-05T13:48:45Z</time>
        <extensions>
          <gpxtpx:TrackPointExtension xmlns:gpxtpx="http://www.garmin.com/xmlschemas/TrackPointExtension/v1">
            <gpxtpx:hr>114</gpxtpx:hr>
          </gpxtpx:TrackPointExtension>
        </extensions>
      </trkpt>
      <trkpt lat="43.09668" lon="1.35206">
        <ele>482</ele>
        <time>2023-03-05T13:48:47Z</time>
        <extensions>
          <gpxtpx:TrackPointExtension xmlns:gpxtpx="http://www.garmin.com/xmlschemas/TrackPointExtension/v1">
            <gpxtpx:hr>114</gpxtpx:hr>
          </gpxtpx:TrackPointExtension>
        </extensions>
      </trkpt>
      <trkpt lat="43.09669" lon="1.35209">
        <ele>482.4</ele>
        <time>2023-03-05T13:48:48Z</time>
        <extensions>
          <gpxtpx:TrackPointExtension xmlns:gpxtpx="http://www.garmin.com/xmlschemas/TrackPointExtension/v1">
            <gpxtpx:hr>114</gpxtpx:hr>
          </gpxtpx:TrackPointExtension>
        </extensions>
      </trkpt>
      <trkpt lat="43.09671" lon="1.35213">
        <ele>482.8</ele>
        <time>2023-03-05T13:48:49Z</time>
        <extensions>
          <gpxtpx:TrackPointExtension xmlns:gpxtpx="http://www.garmin.com/xmlschemas/TrackPointExtension/v1">
            <gpxtpx:hr>114</gpxtpx:hr>
          </gpxtpx:TrackPointExtension>
        </extensions>
      </trkpt>
      <trkpt lat="43.09672" lon="1.35217">
        <ele>483.4</ele>
        <time>2023-03-05T13:48:50Z</time>
        <extensions>
          <gpxtpx:TrackPointExtension xmlns:gpxtpx="http://www.garmin.com/xmlschemas/TrackPointExtension/v1">
            <gpxtpx:hr>114</gpxtpx:hr>
          </gpxtpx:TrackPointExtension>
        </extensions>
      </trkpt>
      <trkpt lat="43.09673" lon="1.3522">
        <ele>483.8</ele>
        <time>2023-03-05T13:48:51Z</time>
        <extensions>
          <gpxtpx:TrackPointExtension xmlns:gpxtpx="http://www.garmin.com/xmlschemas/TrackPointExtension/v1">
            <gpxtpx:hr>114</gpxtpx:hr>
          </gpxtpx:TrackPointExtension>
        </extensions>
      </trkpt>
      <trkpt lat="43.0968" lon="1.35234">
        <ele>483.8</ele>
        <time>2023-03-05T13:48:55Z</time>
        <extensions>
          <gpxtpx:TrackPointExtension xmlns:gpxtpx="http://www.garmin.com/xmlschemas/TrackPointExtension/v1">
            <gpxtpx:hr>114</gpxtpx:hr>
          </gpxtpx:TrackPointExtension>
        </extensions>
      </trkpt>
      <trkpt lat="43.0969" lon="1.35257">
        <ele>484.2</ele>
        <time>2023-03-05T13:49:01Z</time>
        <extensions>
          <gpxtpx:TrackPointExtension xmlns:gpxtpx="http://www.garmin.com/xmlschemas/TrackPointExtension/v1">
            <gpxtpx:hr>114</gpxtpx:hr>
          </gpxtpx:TrackPointExtension>
        </extensions>
      </trkpt>
      <trkpt lat="43.09692" lon="1.35261">
        <ele>484.6</ele>
        <time>2023-03-05T13:49:02Z</time>
        <extensions>
          <gpxtpx:TrackPointExtension xmlns:gpxtpx="http://www.garmin.com/xmlschemas/TrackPointExtension/v1">
            <gpxtpx:hr>114</gpxtpx:hr>
          </gpxtpx:TrackPointExtension>
        </extensions>
      </trkpt>
      <trkpt lat="43.09695" lon="1.35264">
        <ele>485</ele>
        <time>2023-03-05T13:49:03Z</time>
        <extensions>
          <gpxtpx:TrackPointExtension xmlns:gpxtpx="http://www.garmin.com/xmlschemas/TrackPointExtension/v1">
            <gpxtpx:hr>114</gpxtpx:hr>
          </gpxtpx:TrackPointExtension>
        </extensions>
      </trkpt>
      <trkpt lat="43.09697" lon="1.35268">
        <ele>485.4</ele>
        <time>2023-03-05T13:49:04Z</time>
        <extensions>
          <gpxtpx:TrackPointExtension xmlns:gpxtpx="http://www.garmin.com/xmlschemas/TrackPointExtension/v1">
            <gpxtpx:hr>114</gpxtpx:hr>
          </gpxtpx:TrackPointExtension>
        </extensions>
      </trkpt>
      <trkpt lat="43.09699" lon="1.35272">
        <ele>485.8</ele>
        <time>2023-03-05T13:49:05Z</time>
        <extensions>
          <gpxtpx:TrackPointExtension xmlns:gpxtpx="http://www.garmin.com/xmlschemas/TrackPointExtension/v1">
            <gpxtpx:hr>114</gpxtpx:hr>
          </gpxtpx:TrackPointExtension>
        </extensions>
      </trkpt>
      <trkpt lat="43.09708" lon="1.35281">
        <ele>485.8</ele>
        <time>2023-03-05T13:49:08Z</time>
        <extensions>
          <gpxtpx:TrackPointExtension xmlns:gpxtpx="http://www.garmin.com/xmlschemas/TrackPointExtension/v1">
            <gpxtpx:hr>114</gpxtpx:hr>
          </gpxtpx:TrackPointExtension>
        </extensions>
      </trkpt>
      <trkpt lat="43.09729" lon="1.35302">
        <ele>485.8</ele>
        <time>2023-03-05T13:49:15Z</time>
        <extensions>
          <gpxtpx:TrackPointExtension xmlns:gpxtpx="http://www.garmin.com/xmlschemas/TrackPointExtension/v1">
            <gpxtpx:hr>114</gpxtpx:hr>
          </gpxtpx:TrackPointExtension>
        </extensions>
      </trkpt>
      <trkpt lat="43.0974" lon="1.35312">
        <ele>486.2</ele>
        <time>2023-03-05T13:49:19Z</time>
        <extensions>
          <gpxtpx:TrackPointExtension xmlns:gpxtpx="http://www.garmin.com/xmlschemas/TrackPointExtension/v1">
            <gpxtpx:hr>114</gpxtpx:hr>
          </gpxtpx:TrackPointExtension>
        </extensions>
      </trkpt>
      <trkpt lat="43.09743" lon="1.35313">
        <ele>486.6</ele>
        <time>2023-03-05T13:49:20Z</time>
        <extensions>
          <gpxtpx:TrackPointExtension xmlns:gpxtpx="http://www.garmin.com/xmlschemas/TrackPointExtension/v1">
            <gpxtpx:hr>114</gpxtpx:hr>
          </gpxtpx:TrackPointExtension>
        </extensions>
      </trkpt>
      <trkpt lat="43.09746" lon="1.35314">
        <ele>487.2</ele>
        <time>2023-03-05T13:49:21Z</time>
        <extensions>
          <gpxtpx:TrackPointExtension xmlns:gpxtpx="http://www.garmin.com/xmlschemas/TrackPointExtension/v1">
            <gpxtpx:hr>116</gpxtpx:hr>
          </gpxtpx:TrackPointExtension>
        </extensions>
      </trkpt>
      <trkpt lat="43.09749" lon="1.35316">
        <ele>487.6</ele>
        <time>2023-03-05T13:49:22Z</time>
        <extensions>
          <gpxtpx:TrackPointExtension xmlns:gpxtpx="http://www.garmin.com/xmlschemas/TrackPointExtension/v1">
            <gpxtpx:hr>118</gpxtpx:hr>
          </gpxtpx:TrackPointExtension>
        </extensions>
      </trkpt>
      <trkpt lat="43.09753" lon="1.35317">
        <ele>488</ele>
        <time>2023-03-05T13:49:23Z</time>
        <extensions>
          <gpxtpx:TrackPointExtension xmlns:gpxtpx="http://www.garmin.com/xmlschemas/TrackPointExtension/v1">
            <gpxtpx:hr>118</gpxtpx:hr>
          </gpxtpx:TrackPointExtension>
        </extensions>
      </trkpt>
      <trkpt lat="43.09775" lon="1.3532">
        <ele>488</ele>
        <time>2023-03-05T13:49:30Z</time>
        <extensions>
          <gpxtpx:TrackPointExtension xmlns:gpxtpx="http://www.garmin.com/xmlschemas/TrackPointExtension/v1">
            <gpxtpx:hr>118</gpxtpx:hr>
          </gpxtpx:TrackPointExtension>
        </extensions>
      </trkpt>
      <trkpt lat="43.09778" lon="1.3532">
        <ele>488.4</ele>
        <time>2023-03-05T13:49:31Z</time>
        <extensions>
          <gpxtpx:TrackPointExtension xmlns:gpxtpx="http://www.garmin.com/xmlschemas/TrackPointExtension/v1">
            <gpxtpx:hr>118</gpxtpx:hr>
          </gpxtpx:TrackPointExtension>
        </extensions>
      </trkpt>
      <trkpt lat="43.09781" lon="1.35321">
        <ele>488.8</ele>
        <time>2023-03-05T13:49:32Z</time>
        <extensions>
          <gpxtpx:TrackPointExtension xmlns:gpxtpx="http://www.garmin.com/xmlschemas/TrackPointExtension/v1">
            <gpxtpx:hr>118</gpxtpx:hr>
          </gpxtpx:TrackPointExtension>
        </extensions>
      </trkpt>
      <trkpt lat="43.09784" lon="1.35321">
        <ele>489.2</ele>
        <time>2023-03-05T13:49:33Z</time>
        <extensions>
          <gpxtpx:TrackPointExtension xmlns:gpxtpx="http://www.garmin.com/xmlschemas/TrackPointExtension/v1">
            <gpxtpx:hr>119</gpxtpx:hr>
          </gpxtpx:TrackPointExtension>
        </extensions>
      </trkpt>
      <trkpt lat="43.09787" lon="1.35322">
        <ele>489.6</ele>
        <time>2023-03-05T13:49:34Z</time>
        <extensions>
          <gpxtpx:TrackPointExtension xmlns:gpxtpx="http://www.garmin.com/xmlschemas/TrackPointExtension/v1">
            <gpxtpx:hr>121</gpxtpx:hr>
          </gpxtpx:TrackPointExtension>
        </extensions>
      </trkpt>
      <trkpt lat="43.0979" lon="1.35322">
        <ele>490</ele>
        <time>2023-03-05T13:49:35Z</time>
        <extensions>
          <gpxtpx:TrackPointExtension xmlns:gpxtpx="http://www.garmin.com/xmlschemas/TrackPointExtension/v1">
            <gpxtpx:hr>122</gpxtpx:hr>
          </gpxtpx:TrackPointExtension>
        </extensions>
      </trkpt>
      <trkpt lat="43.09796" lon="1.35324">
        <ele>490</ele>
        <time>2023-03-05T13:49:37Z</time>
        <extensions>
          <gpxtpx:TrackPointExtension xmlns:gpxtpx="http://www.garmin.com/xmlschemas/TrackPointExtension/v1">
            <gpxtpx:hr>124</gpxtpx:hr>
          </gpxtpx:TrackPointExtension>
        </extensions>
      </trkpt>
      <trkpt lat="43.09817" lon="1.35329">
        <ele>490.4</ele>
        <time>2023-03-05T13:49:44Z</time>
        <extensions>
          <gpxtpx:TrackPointExtension xmlns:gpxtpx="http://www.garmin.com/xmlschemas/TrackPointExtension/v1">
            <gpxtpx:hr>125</gpxtpx:hr>
          </gpxtpx:TrackPointExtension>
        </extensions>
      </trkpt>
      <trkpt lat="43.0982" lon="1.35332">
        <ele>490.8</ele>
        <time>2023-03-05T13:49:45Z</time>
        <extensions>
          <gpxtpx:TrackPointExtension xmlns:gpxtpx="http://www.garmin.com/xmlschemas/TrackPointExtension/v1">
            <gpxtpx:hr>125</gpxtpx:hr>
          </gpxtpx:TrackPointExtension>
        </extensions>
      </trkpt>
      <trkpt lat="43.09822" lon="1.35334">
        <ele>491.4</ele>
        <time>2023-03-05T13:49:46Z</time>
        <extensions>
          <gpxtpx:TrackPointExtension xmlns:gpxtpx="http://www.garmin.com/xmlschemas/TrackPointExtension/v1">
            <gpxtpx:hr>125</gpxtpx:hr>
          </gpxtpx:TrackPointExtension>
        </extensions>
      </trkpt>
      <trkpt lat="43.09824" lon="1.35336">
        <ele>491.8</ele>
        <time>2023-03-05T13:49:47Z</time>
        <extensions>
          <gpxtpx:TrackPointExtension xmlns:gpxtpx="http://www.garmin.com/xmlschemas/TrackPointExtension/v1">
            <gpxtpx:hr>125</gpxtpx:hr>
          </gpxtpx:TrackPointExtension>
        </extensions>
      </trkpt>
      <trkpt lat="43.09827" lon="1.35338">
        <ele>492.2</ele>
        <time>2023-03-05T13:49:48Z</time>
        <extensions>
          <gpxtpx:TrackPointExtension xmlns:gpxtpx="http://www.garmin.com/xmlschemas/TrackPointExtension/v1">
            <gpxtpx:hr>125</gpxtpx:hr>
          </gpxtpx:TrackPointExtension>
        </extensions>
      </trkpt>
      <trkpt lat="43.09838" lon="1.35346">
        <ele>492.6</ele>
        <time>2023-03-05T13:49:52Z</time>
        <extensions>
          <gpxtpx:TrackPointExtension xmlns:gpxtpx="http://www.garmin.com/xmlschemas/TrackPointExtension/v1">
            <gpxtpx:hr>126</gpxtpx:hr>
          </gpxtpx:TrackPointExtension>
        </extensions>
      </trkpt>
      <trkpt lat="43.09841" lon="1.35348">
        <ele>493</ele>
        <time>2023-03-05T13:49:53Z</time>
        <extensions>
          <gpxtpx:TrackPointExtension xmlns:gpxtpx="http://www.garmin.com/xmlschemas/TrackPointExtension/v1">
            <gpxtpx:hr>126</gpxtpx:hr>
          </gpxtpx:TrackPointExtension>
        </extensions>
      </trkpt>
      <trkpt lat="43.09844" lon="1.3535">
        <ele>493.4</ele>
        <time>2023-03-05T13:49:54Z</time>
        <extensions>
          <gpxtpx:TrackPointExtension xmlns:gpxtpx="http://www.garmin.com/xmlschemas/TrackPointExtension/v1">
            <gpxtpx:hr>126</gpxtpx:hr>
          </gpxtpx:TrackPointExtension>
        </extensions>
      </trkpt>
      <trkpt lat="43.09847" lon="1.35352">
        <ele>493.8</ele>
        <time>2023-03-05T13:49:55Z</time>
        <extensions>
          <gpxtpx:TrackPointExtension xmlns:gpxtpx="http://www.garmin.com/xmlschemas/TrackPointExtension/v1">
            <gpxtpx:hr>126</gpxtpx:hr>
          </gpxtpx:TrackPointExtension>
        </extensions>
      </trkpt>
      <trkpt lat="43.09849" lon="1.35354">
        <ele>494.2</ele>
        <time>2023-03-05T13:49:56Z</time>
        <extensions>
          <gpxtpx:TrackPointExtension xmlns:gpxtpx="http://www.garmin.com/xmlschemas/TrackPointExtension/v1">
            <gpxtpx:hr>126</gpxtpx:hr>
          </gpxtpx:TrackPointExtension>
        </extensions>
      </trkpt>
      <trkpt lat="43.09852" lon="1.35356">
        <ele>494.2</ele>
        <time>2023-03-05T13:49:57Z</time>
        <extensions>
          <gpxtpx:TrackPointExtension xmlns:gpxtpx="http://www.garmin.com/xmlschemas/TrackPointExtension/v1">
            <gpxtpx:hr>119</gpxtpx:hr>
          </gpxtpx:TrackPointExtension>
        </extensions>
      </trkpt>
      <trkpt lat="43.09854" lon="1.35358">
        <ele>494.2</ele>
        <time>2023-03-05T13:49:58Z</time>
        <extensions>
          <gpxtpx:TrackPointExtension xmlns:gpxtpx="http://www.garmin.com/xmlschemas/TrackPointExtension/v1">
            <gpxtpx:hr>119</gpxtpx:hr>
          </gpxtpx:TrackPointExtension>
        </extensions>
      </trkpt>
      <trkpt lat="43.0986" lon="1.35362">
        <ele>494.2</ele>
        <time>2023-03-05T13:50:00Z</time>
        <extensions>
          <gpxtpx:TrackPointExtension xmlns:gpxtpx="http://www.garmin.com/xmlschemas/TrackPointExtension/v1">
            <gpxtpx:hr>119</gpxtpx:hr>
          </gpxtpx:TrackPointExtension>
        </extensions>
      </trkpt>
      <trkpt lat="43.09879" lon="1.35377">
        <ele>494.6</ele>
        <time>2023-03-05T13:50:07Z</time>
        <extensions>
          <gpxtpx:TrackPointExtension xmlns:gpxtpx="http://www.garmin.com/xmlschemas/TrackPointExtension/v1">
            <gpxtpx:hr>119</gpxtpx:hr>
          </gpxtpx:TrackPointExtension>
        </extensions>
      </trkpt>
      <trkpt lat="43.09882" lon="1.35379">
        <ele>495</ele>
        <time>2023-03-05T13:50:08Z</time>
        <extensions>
          <gpxtpx:TrackPointExtension xmlns:gpxtpx="http://www.garmin.com/xmlschemas/TrackPointExtension/v1">
            <gpxtpx:hr>119</gpxtpx:hr>
          </gpxtpx:TrackPointExtension>
        </extensions>
      </trkpt>
      <trkpt lat="43.09885" lon="1.35381">
        <ele>495.6</ele>
        <time>2023-03-05T13:50:09Z</time>
        <extensions>
          <gpxtpx:TrackPointExtension xmlns:gpxtpx="http://www.garmin.com/xmlschemas/TrackPointExtension/v1">
            <gpxtpx:hr>119</gpxtpx:hr>
          </gpxtpx:TrackPointExtension>
        </extensions>
      </trkpt>
      <trkpt lat="43.09888" lon="1.35381">
        <ele>496</ele>
        <time>2023-03-05T13:50:10Z</time>
        <extensions>
          <gpxtpx:TrackPointExtension xmlns:gpxtpx="http://www.garmin.com/xmlschemas/TrackPointExtension/v1">
            <gpxtpx:hr>119</gpxtpx:hr>
          </gpxtpx:TrackPointExtension>
        </extensions>
      </trkpt>
      <trkpt lat="43.09892" lon="1.35381">
        <ele>496.4</ele>
        <time>2023-03-05T13:50:11Z</time>
        <extensions>
          <gpxtpx:TrackPointExtension xmlns:gpxtpx="http://www.garmin.com/xmlschemas/TrackPointExtension/v1">
            <gpxtpx:hr>124</gpxtpx:hr>
          </gpxtpx:TrackPointExtension>
        </extensions>
      </trkpt>
      <trkpt lat="43.09897" lon="1.35382">
        <ele>496.4</ele>
        <time>2023-03-05T13:50:13Z</time>
        <extensions>
          <gpxtpx:TrackPointExtension xmlns:gpxtpx="http://www.garmin.com/xmlschemas/TrackPointExtension/v1">
            <gpxtpx:hr>126</gpxtpx:hr>
          </gpxtpx:TrackPointExtension>
        </extensions>
      </trkpt>
      <trkpt lat="43.09909" lon="1.35388">
        <ele>496.4</ele>
        <time>2023-03-05T13:50:17Z</time>
        <extensions>
          <gpxtpx:TrackPointExtension xmlns:gpxtpx="http://www.garmin.com/xmlschemas/TrackPointExtension/v1">
            <gpxtpx:hr>126</gpxtpx:hr>
          </gpxtpx:TrackPointExtension>
        </extensions>
      </trkpt>
      <trkpt lat="43.09914" lon="1.3539">
        <ele>496.4</ele>
        <time>2023-03-05T13:50:19Z</time>
        <extensions>
          <gpxtpx:TrackPointExtension xmlns:gpxtpx="http://www.garmin.com/xmlschemas/TrackPointExtension/v1">
            <gpxtpx:hr>126</gpxtpx:hr>
          </gpxtpx:TrackPointExtension>
        </extensions>
      </trkpt>
      <trkpt lat="43.09921" lon="1.35397">
        <ele>496.4</ele>
        <time>2023-03-05T13:50:23Z</time>
        <extensions>
          <gpxtpx:TrackPointExtension xmlns:gpxtpx="http://www.garmin.com/xmlschemas/TrackPointExtension/v1">
            <gpxtpx:hr>127</gpxtpx:hr>
          </gpxtpx:TrackPointExtension>
        </extensions>
      </trkpt>
      <trkpt lat="43.09928" lon="1.3541">
        <ele>496.4</ele>
        <time>2023-03-05T13:50:27Z</time>
        <extensions>
          <gpxtpx:TrackPointExtension xmlns:gpxtpx="http://www.garmin.com/xmlschemas/TrackPointExtension/v1">
            <gpxtpx:hr>127</gpxtpx:hr>
          </gpxtpx:TrackPointExtension>
        </extensions>
      </trkpt>
      <trkpt lat="43.09933" lon="1.35435">
        <ele>496.4</ele>
        <time>2023-03-05T13:50:32Z</time>
        <extensions>
          <gpxtpx:TrackPointExtension xmlns:gpxtpx="http://www.garmin.com/xmlschemas/TrackPointExtension/v1">
            <gpxtpx:hr>127</gpxtpx:hr>
          </gpxtpx:TrackPointExtension>
        </extensions>
      </trkpt>
      <trkpt lat="43.09936" lon="1.35455">
        <ele>495.8</ele>
        <time>2023-03-05T13:50:35Z</time>
        <extensions>
          <gpxtpx:TrackPointExtension xmlns:gpxtpx="http://www.garmin.com/xmlschemas/TrackPointExtension/v1">
            <gpxtpx:hr>127</gpxtpx:hr>
          </gpxtpx:TrackPointExtension>
        </extensions>
      </trkpt>
      <trkpt lat="43.09936" lon="1.35464">
        <ele>495.2</ele>
        <time>2023-03-05T13:50:36Z</time>
        <extensions>
          <gpxtpx:TrackPointExtension xmlns:gpxtpx="http://www.garmin.com/xmlschemas/TrackPointExtension/v1">
            <gpxtpx:hr>127</gpxtpx:hr>
          </gpxtpx:TrackPointExtension>
        </extensions>
      </trkpt>
      <trkpt lat="43.09936" lon="1.35474">
        <ele>494.8</ele>
        <time>2023-03-05T13:50:37Z</time>
        <extensions>
          <gpxtpx:TrackPointExtension xmlns:gpxtpx="http://www.garmin.com/xmlschemas/TrackPointExtension/v1">
            <gpxtpx:hr>127</gpxtpx:hr>
          </gpxtpx:TrackPointExtension>
        </extensions>
      </trkpt>
      <trkpt lat="43.09936" lon="1.35484">
        <ele>493.4</ele>
        <time>2023-03-05T13:50:38Z</time>
        <extensions>
          <gpxtpx:TrackPointExtension xmlns:gpxtpx="http://www.garmin.com/xmlschemas/TrackPointExtension/v1">
            <gpxtpx:hr>126</gpxtpx:hr>
          </gpxtpx:TrackPointExtension>
        </extensions>
      </trkpt>
      <trkpt lat="43.09936" lon="1.35494">
        <ele>492.8</ele>
        <time>2023-03-05T13:50:39Z</time>
        <extensions>
          <gpxtpx:TrackPointExtension xmlns:gpxtpx="http://www.garmin.com/xmlschemas/TrackPointExtension/v1">
            <gpxtpx:hr>126</gpxtpx:hr>
          </gpxtpx:TrackPointExtension>
        </extensions>
      </trkpt>
      <trkpt lat="43.09936" lon="1.35504">
        <ele>492.2</ele>
        <time>2023-03-05T13:50:40Z</time>
        <extensions>
          <gpxtpx:TrackPointExtension xmlns:gpxtpx="http://www.garmin.com/xmlschemas/TrackPointExtension/v1">
            <gpxtpx:hr>126</gpxtpx:hr>
          </gpxtpx:TrackPointExtension>
        </extensions>
      </trkpt>
      <trkpt lat="43.09936" lon="1.35515">
        <ele>491.6</ele>
        <time>2023-03-05T13:50:41Z</time>
        <extensions>
          <gpxtpx:TrackPointExtension xmlns:gpxtpx="http://www.garmin.com/xmlschemas/TrackPointExtension/v1">
            <gpxtpx:hr>126</gpxtpx:hr>
          </gpxtpx:TrackPointExtension>
        </extensions>
      </trkpt>
      <trkpt lat="43.09935" lon="1.35524">
        <ele>490.8</ele>
        <time>2023-03-05T13:50:42Z</time>
        <extensions>
          <gpxtpx:TrackPointExtension xmlns:gpxtpx="http://www.garmin.com/xmlschemas/TrackPointExtension/v1">
            <gpxtpx:hr>126</gpxtpx:hr>
          </gpxtpx:TrackPointExtension>
        </extensions>
      </trkpt>
      <trkpt lat="43.09935" lon="1.35532">
        <ele>490.2</ele>
        <time>2023-03-05T13:50:43Z</time>
        <extensions>
          <gpxtpx:TrackPointExtension xmlns:gpxtpx="http://www.garmin.com/xmlschemas/TrackPointExtension/v1">
            <gpxtpx:hr>125</gpxtpx:hr>
          </gpxtpx:TrackPointExtension>
        </extensions>
      </trkpt>
      <trkpt lat="43.09935" lon="1.35539">
        <ele>489.4</ele>
        <time>2023-03-05T13:50:44Z</time>
        <extensions>
          <gpxtpx:TrackPointExtension xmlns:gpxtpx="http://www.garmin.com/xmlschemas/TrackPointExtension/v1">
            <gpxtpx:hr>125</gpxtpx:hr>
          </gpxtpx:TrackPointExtension>
        </extensions>
      </trkpt>
      <trkpt lat="43.09935" lon="1.35545">
        <ele>488.6</ele>
        <time>2023-03-05T13:50:45Z</time>
        <extensions>
          <gpxtpx:TrackPointExtension xmlns:gpxtpx="http://www.garmin.com/xmlschemas/TrackPointExtension/v1">
            <gpxtpx:hr>125</gpxtpx:hr>
          </gpxtpx:TrackPointExtension>
        </extensions>
      </trkpt>
      <trkpt lat="43.09935" lon="1.35551">
        <ele>487.8</ele>
        <time>2023-03-05T13:50:46Z</time>
        <extensions>
          <gpxtpx:TrackPointExtension xmlns:gpxtpx="http://www.garmin.com/xmlschemas/TrackPointExtension/v1">
            <gpxtpx:hr>125</gpxtpx:hr>
          </gpxtpx:TrackPointExtension>
        </extensions>
      </trkpt>
      <trkpt lat="43.09935" lon="1.35558">
        <ele>487</ele>
        <time>2023-03-05T13:50:47Z</time>
        <extensions>
          <gpxtpx:TrackPointExtension xmlns:gpxtpx="http://www.garmin.com/xmlschemas/TrackPointExtension/v1">
            <gpxtpx:hr>125</gpxtpx:hr>
          </gpxtpx:TrackPointExtension>
        </extensions>
      </trkpt>
      <trkpt lat="43.09936" lon="1.35566">
        <ele>486.2</ele>
        <time>2023-03-05T13:50:48Z</time>
        <extensions>
          <gpxtpx:TrackPointExtension xmlns:gpxtpx="http://www.garmin.com/xmlschemas/TrackPointExtension/v1">
            <gpxtpx:hr>125</gpxtpx:hr>
          </gpxtpx:TrackPointExtension>
        </extensions>
      </trkpt>
      <trkpt lat="43.09937" lon="1.35573">
        <ele>485.2</ele>
        <time>2023-03-05T13:50:49Z</time>
        <extensions>
          <gpxtpx:TrackPointExtension xmlns:gpxtpx="http://www.garmin.com/xmlschemas/TrackPointExtension/v1">
            <gpxtpx:hr>125</gpxtpx:hr>
          </gpxtpx:TrackPointExtension>
        </extensions>
      </trkpt>
      <trkpt lat="43.09938" lon="1.35581">
        <ele>484.2</ele>
        <time>2023-03-05T13:50:50Z</time>
        <extensions>
          <gpxtpx:TrackPointExtension xmlns:gpxtpx="http://www.garmin.com/xmlschemas/TrackPointExtension/v1">
            <gpxtpx:hr>122</gpxtpx:hr>
          </gpxtpx:TrackPointExtension>
        </extensions>
      </trkpt>
      <trkpt lat="43.09939" lon="1.3559">
        <ele>483</ele>
        <time>2023-03-05T13:50:51Z</time>
        <extensions>
          <gpxtpx:TrackPointExtension xmlns:gpxtpx="http://www.garmin.com/xmlschemas/TrackPointExtension/v1">
            <gpxtpx:hr>120</gpxtpx:hr>
          </gpxtpx:TrackPointExtension>
        </extensions>
      </trkpt>
      <trkpt lat="43.0994" lon="1.35598">
        <ele>482</ele>
        <time>2023-03-05T13:50:52Z</time>
        <extensions>
          <gpxtpx:TrackPointExtension xmlns:gpxtpx="http://www.garmin.com/xmlschemas/TrackPointExtension/v1">
            <gpxtpx:hr>118</gpxtpx:hr>
          </gpxtpx:TrackPointExtension>
        </extensions>
      </trkpt>
      <trkpt lat="43.09942" lon="1.35607">
        <ele>480.8</ele>
        <time>2023-03-05T13:50:53Z</time>
        <extensions>
          <gpxtpx:TrackPointExtension xmlns:gpxtpx="http://www.garmin.com/xmlschemas/TrackPointExtension/v1">
            <gpxtpx:hr>118</gpxtpx:hr>
          </gpxtpx:TrackPointExtension>
        </extensions>
      </trkpt>
      <trkpt lat="43.09944" lon="1.35616">
        <ele>479.6</ele>
        <time>2023-03-05T13:50:54Z</time>
        <extensions>
          <gpxtpx:TrackPointExtension xmlns:gpxtpx="http://www.garmin.com/xmlschemas/TrackPointExtension/v1">
            <gpxtpx:hr>116</gpxtpx:hr>
          </gpxtpx:TrackPointExtension>
        </extensions>
      </trkpt>
      <trkpt lat="43.09945" lon="1.35626">
        <ele>478.4</ele>
        <time>2023-03-05T13:50:55Z</time>
        <extensions>
          <gpxtpx:TrackPointExtension xmlns:gpxtpx="http://www.garmin.com/xmlschemas/TrackPointExtension/v1">
            <gpxtpx:hr>116</gpxtpx:hr>
          </gpxtpx:TrackPointExtension>
        </extensions>
      </trkpt>
      <trkpt lat="43.09946" lon="1.35635">
        <ele>477</ele>
        <time>2023-03-05T13:50:56Z</time>
        <extensions>
          <gpxtpx:TrackPointExtension xmlns:gpxtpx="http://www.garmin.com/xmlschemas/TrackPointExtension/v1">
            <gpxtpx:hr>115</gpxtpx:hr>
          </gpxtpx:TrackPointExtension>
        </extensions>
      </trkpt>
      <trkpt lat="43.09947" lon="1.35645">
        <ele>475.6</ele>
        <time>2023-03-05T13:50:57Z</time>
        <extensions>
          <gpxtpx:TrackPointExtension xmlns:gpxtpx="http://www.garmin.com/xmlschemas/TrackPointExtension/v1">
            <gpxtpx:hr>115</gpxtpx:hr>
          </gpxtpx:TrackPointExtension>
        </extensions>
      </trkpt>
      <trkpt lat="43.09948" lon="1.35653">
        <ele>474.4</ele>
        <time>2023-03-05T13:50:58Z</time>
        <extensions>
          <gpxtpx:TrackPointExtension xmlns:gpxtpx="http://www.garmin.com/xmlschemas/TrackPointExtension/v1">
            <gpxtpx:hr>115</gpxtpx:hr>
          </gpxtpx:TrackPointExtension>
        </extensions>
      </trkpt>
      <trkpt lat="43.09948" lon="1.35661">
        <ele>472.8</ele>
        <time>2023-03-05T13:50:59Z</time>
        <extensions>
          <gpxtpx:TrackPointExtension xmlns:gpxtpx="http://www.garmin.com/xmlschemas/TrackPointExtension/v1">
            <gpxtpx:hr>115</gpxtpx:hr>
          </gpxtpx:TrackPointExtension>
        </extensions>
      </trkpt>
      <trkpt lat="43.09948" lon="1.35669">
        <ele>471.4</ele>
        <time>2023-03-05T13:51:00Z</time>
        <extensions>
          <gpxtpx:TrackPointExtension xmlns:gpxtpx="http://www.garmin.com/xmlschemas/TrackPointExtension/v1">
            <gpxtpx:hr>115</gpxtpx:hr>
          </gpxtpx:TrackPointExtension>
        </extensions>
      </trkpt>
      <trkpt lat="43.09947" lon="1.35676">
        <ele>470</ele>
        <time>2023-03-05T13:51:01Z</time>
        <extensions>
          <gpxtpx:TrackPointExtension xmlns:gpxtpx="http://www.garmin.com/xmlschemas/TrackPointExtension/v1">
            <gpxtpx:hr>115</gpxtpx:hr>
          </gpxtpx:TrackPointExtension>
        </extensions>
      </trkpt>
      <trkpt lat="43.09945" lon="1.35685">
        <ele>468.6</ele>
        <time>2023-03-05T13:51:02Z</time>
        <extensions>
          <gpxtpx:TrackPointExtension xmlns:gpxtpx="http://www.garmin.com/xmlschemas/TrackPointExtension/v1">
            <gpxtpx:hr>114</gpxtpx:hr>
          </gpxtpx:TrackPointExtension>
        </extensions>
      </trkpt>
      <trkpt lat="43.09943" lon="1.35694">
        <ele>466</ele>
        <time>2023-03-05T13:51:03Z</time>
        <extensions>
          <gpxtpx:TrackPointExtension xmlns:gpxtpx="http://www.garmin.com/xmlschemas/TrackPointExtension/v1">
            <gpxtpx:hr>114</gpxtpx:hr>
          </gpxtpx:TrackPointExtension>
        </extensions>
      </trkpt>
      <trkpt lat="43.09942" lon="1.35703">
        <ele>464.8</ele>
        <time>2023-03-05T13:51:04Z</time>
        <extensions>
          <gpxtpx:TrackPointExtension xmlns:gpxtpx="http://www.garmin.com/xmlschemas/TrackPointExtension/v1">
            <gpxtpx:hr>114</gpxtpx:hr>
          </gpxtpx:TrackPointExtension>
        </extensions>
      </trkpt>
      <trkpt lat="43.0994" lon="1.35712">
        <ele>463.6</ele>
        <time>2023-03-05T13:51:05Z</time>
        <extensions>
          <gpxtpx:TrackPointExtension xmlns:gpxtpx="http://www.garmin.com/xmlschemas/TrackPointExtension/v1">
            <gpxtpx:hr>114</gpxtpx:hr>
          </gpxtpx:TrackPointExtension>
        </extensions>
      </trkpt>
      <trkpt lat="43.09939" lon="1.35721">
        <ele>462.4</ele>
        <time>2023-03-05T13:51:06Z</time>
        <extensions>
          <gpxtpx:TrackPointExtension xmlns:gpxtpx="http://www.garmin.com/xmlschemas/TrackPointExtension/v1">
            <gpxtpx:hr>114</gpxtpx:hr>
          </gpxtpx:TrackPointExtension>
        </extensions>
      </trkpt>
      <trkpt lat="43.09938" lon="1.35731">
        <ele>461.2</ele>
        <time>2023-03-05T13:51:07Z</time>
        <extensions>
          <gpxtpx:TrackPointExtension xmlns:gpxtpx="http://www.garmin.com/xmlschemas/TrackPointExtension/v1">
            <gpxtpx:hr>114</gpxtpx:hr>
          </gpxtpx:TrackPointExtension>
        </extensions>
      </trkpt>
      <trkpt lat="43.09937" lon="1.3574">
        <ele>460.2</ele>
        <time>2023-03-05T13:51:08Z</time>
        <extensions>
          <gpxtpx:TrackPointExtension xmlns:gpxtpx="http://www.garmin.com/xmlschemas/TrackPointExtension/v1">
            <gpxtpx:hr>114</gpxtpx:hr>
          </gpxtpx:TrackPointExtension>
        </extensions>
      </trkpt>
      <trkpt lat="43.09936" lon="1.3575">
        <ele>459.2</ele>
        <time>2023-03-05T13:51:09Z</time>
        <extensions>
          <gpxtpx:TrackPointExtension xmlns:gpxtpx="http://www.garmin.com/xmlschemas/TrackPointExtension/v1">
            <gpxtpx:hr>114</gpxtpx:hr>
          </gpxtpx:TrackPointExtension>
        </extensions>
      </trkpt>
      <trkpt lat="43.09934" lon="1.35759">
        <ele>458</ele>
        <time>2023-03-05T13:51:10Z</time>
        <extensions>
          <gpxtpx:TrackPointExtension xmlns:gpxtpx="http://www.garmin.com/xmlschemas/TrackPointExtension/v1">
            <gpxtpx:hr>114</gpxtpx:hr>
          </gpxtpx:TrackPointExtension>
        </extensions>
      </trkpt>
      <trkpt lat="43.09933" lon="1.35769">
        <ele>457</ele>
        <time>2023-03-05T13:51:11Z</time>
        <extensions>
          <gpxtpx:TrackPointExtension xmlns:gpxtpx="http://www.garmin.com/xmlschemas/TrackPointExtension/v1">
            <gpxtpx:hr>114</gpxtpx:hr>
          </gpxtpx:TrackPointExtension>
        </extensions>
      </trkpt>
      <trkpt lat="43.09931" lon="1.35779">
        <ele>456</ele>
        <time>2023-03-05T13:51:12Z</time>
        <extensions>
          <gpxtpx:TrackPointExtension xmlns:gpxtpx="http://www.garmin.com/xmlschemas/TrackPointExtension/v1">
            <gpxtpx:hr>114</gpxtpx:hr>
          </gpxtpx:TrackPointExtension>
        </extensions>
      </trkpt>
      <trkpt lat="43.09929" lon="1.35789">
        <ele>454.8</ele>
        <time>2023-03-05T13:51:13Z</time>
        <extensions>
          <gpxtpx:TrackPointExtension xmlns:gpxtpx="http://www.garmin.com/xmlschemas/TrackPointExtension/v1">
            <gpxtpx:hr>114</gpxtpx:hr>
          </gpxtpx:TrackPointExtension>
        </extensions>
      </trkpt>
      <trkpt lat="43.09928" lon="1.35797">
        <ele>453.8</ele>
        <time>2023-03-05T13:51:14Z</time>
        <extensions>
          <gpxtpx:TrackPointExtension xmlns:gpxtpx="http://www.garmin.com/xmlschemas/TrackPointExtension/v1">
            <gpxtpx:hr>114</gpxtpx:hr>
          </gpxtpx:TrackPointExtension>
        </extensions>
      </trkpt>
      <trkpt lat="43.09926" lon="1.35806">
        <ele>452.8</ele>
        <time>2023-03-05T13:51:15Z</time>
        <extensions>
          <gpxtpx:TrackPointExtension xmlns:gpxtpx="http://www.garmin.com/xmlschemas/TrackPointExtension/v1">
            <gpxtpx:hr>114</gpxtpx:hr>
          </gpxtpx:TrackPointExtension>
        </extensions>
      </trkpt>
      <trkpt lat="43.09925" lon="1.35814">
        <ele>451.6</ele>
        <time>2023-03-05T13:51:16Z</time>
        <extensions>
          <gpxtpx:TrackPointExtension xmlns:gpxtpx="http://www.garmin.com/xmlschemas/TrackPointExtension/v1">
            <gpxtpx:hr>114</gpxtpx:hr>
          </gpxtpx:TrackPointExtension>
        </extensions>
      </trkpt>
      <trkpt lat="43.09924" lon="1.35823">
        <ele>450.8</ele>
        <time>2023-03-05T13:51:17Z</time>
        <extensions>
          <gpxtpx:TrackPointExtension xmlns:gpxtpx="http://www.garmin.com/xmlschemas/TrackPointExtension/v1">
            <gpxtpx:hr>114</gpxtpx:hr>
          </gpxtpx:TrackPointExtension>
        </extensions>
      </trkpt>
      <trkpt lat="43.09923" lon="1.35831">
        <ele>449.8</ele>
        <time>2023-03-05T13:51:18Z</time>
        <extensions>
          <gpxtpx:TrackPointExtension xmlns:gpxtpx="http://www.garmin.com/xmlschemas/TrackPointExtension/v1">
            <gpxtpx:hr>114</gpxtpx:hr>
          </gpxtpx:TrackPointExtension>
        </extensions>
      </trkpt>
      <trkpt lat="43.09921" lon="1.35841">
        <ele>448.8</ele>
        <time>2023-03-05T13:51:19Z</time>
        <extensions>
          <gpxtpx:TrackPointExtension xmlns:gpxtpx="http://www.garmin.com/xmlschemas/TrackPointExtension/v1">
            <gpxtpx:hr>114</gpxtpx:hr>
          </gpxtpx:TrackPointExtension>
        </extensions>
      </trkpt>
      <trkpt lat="43.09919" lon="1.3585">
        <ele>447.8</ele>
        <time>2023-03-05T13:51:20Z</time>
        <extensions>
          <gpxtpx:TrackPointExtension xmlns:gpxtpx="http://www.garmin.com/xmlschemas/TrackPointExtension/v1">
            <gpxtpx:hr>114</gpxtpx:hr>
          </gpxtpx:TrackPointExtension>
        </extensions>
      </trkpt>
      <trkpt lat="43.09918" lon="1.35856">
        <ele>447</ele>
        <time>2023-03-05T13:51:21Z</time>
        <extensions>
          <gpxtpx:TrackPointExtension xmlns:gpxtpx="http://www.garmin.com/xmlschemas/TrackPointExtension/v1">
            <gpxtpx:hr>113</gpxtpx:hr>
          </gpxtpx:TrackPointExtension>
        </extensions>
      </trkpt>
      <trkpt lat="43.09918" lon="1.35862">
        <ele>446</ele>
        <time>2023-03-05T13:51:22Z</time>
        <extensions>
          <gpxtpx:TrackPointExtension xmlns:gpxtpx="http://www.garmin.com/xmlschemas/TrackPointExtension/v1">
            <gpxtpx:hr>113</gpxtpx:hr>
          </gpxtpx:TrackPointExtension>
        </extensions>
      </trkpt>
      <trkpt lat="43.09918" lon="1.35866">
        <ele>445.2</ele>
        <time>2023-03-05T13:51:23Z</time>
        <extensions>
          <gpxtpx:TrackPointExtension xmlns:gpxtpx="http://www.garmin.com/xmlschemas/TrackPointExtension/v1">
            <gpxtpx:hr>113</gpxtpx:hr>
          </gpxtpx:TrackPointExtension>
        </extensions>
      </trkpt>
      <trkpt lat="43.09919" lon="1.35869">
        <ele>444.2</ele>
        <time>2023-03-05T13:51:24Z</time>
        <extensions>
          <gpxtpx:TrackPointExtension xmlns:gpxtpx="http://www.garmin.com/xmlschemas/TrackPointExtension/v1">
            <gpxtpx:hr>113</gpxtpx:hr>
          </gpxtpx:TrackPointExtension>
        </extensions>
      </trkpt>
      <trkpt lat="43.0992" lon="1.35873">
        <ele>444.2</ele>
        <time>2023-03-05T13:51:25Z</time>
        <extensions>
          <gpxtpx:TrackPointExtension xmlns:gpxtpx="http://www.garmin.com/xmlschemas/TrackPointExtension/v1">
            <gpxtpx:hr>112</gpxtpx:hr>
          </gpxtpx:TrackPointExtension>
        </extensions>
      </trkpt>
      <trkpt lat="43.09931" lon="1.35887">
        <ele>444.2</ele>
        <time>2023-03-05T13:51:29Z</time>
        <extensions>
          <gpxtpx:TrackPointExtension xmlns:gpxtpx="http://www.garmin.com/xmlschemas/TrackPointExtension/v1">
            <gpxtpx:hr>112</gpxtpx:hr>
          </gpxtpx:TrackPointExtension>
        </extensions>
      </trkpt>
      <trkpt lat="43.09945" lon="1.35904">
        <ele>444.2</ele>
        <time>2023-03-05T13:51:34Z</time>
        <extensions>
          <gpxtpx:TrackPointExtension xmlns:gpxtpx="http://www.garmin.com/xmlschemas/TrackPointExtension/v1">
            <gpxtpx:hr>112</gpxtpx:hr>
          </gpxtpx:TrackPointExtension>
        </extensions>
      </trkpt>
      <trkpt lat="43.09949" lon="1.35918">
        <ele>444.6</ele>
        <time>2023-03-05T13:51:38Z</time>
        <extensions>
          <gpxtpx:TrackPointExtension xmlns:gpxtpx="http://www.garmin.com/xmlschemas/TrackPointExtension/v1">
            <gpxtpx:hr>113</gpxtpx:hr>
          </gpxtpx:TrackPointExtension>
        </extensions>
      </trkpt>
      <trkpt lat="43.09949" lon="1.35922">
        <ele>445</ele>
        <time>2023-03-05T13:51:39Z</time>
        <extensions>
          <gpxtpx:TrackPointExtension xmlns:gpxtpx="http://www.garmin.com/xmlschemas/TrackPointExtension/v1">
            <gpxtpx:hr>114</gpxtpx:hr>
          </gpxtpx:TrackPointExtension>
        </extensions>
      </trkpt>
      <trkpt lat="43.09949" lon="1.35927">
        <ele>445.6</ele>
        <time>2023-03-05T13:51:40Z</time>
        <extensions>
          <gpxtpx:TrackPointExtension xmlns:gpxtpx="http://www.garmin.com/xmlschemas/TrackPointExtension/v1">
            <gpxtpx:hr>114</gpxtpx:hr>
          </gpxtpx:TrackPointExtension>
        </extensions>
      </trkpt>
      <trkpt lat="43.09949" lon="1.35933">
        <ele>446</ele>
        <time>2023-03-05T13:51:41Z</time>
        <extensions>
          <gpxtpx:TrackPointExtension xmlns:gpxtpx="http://www.garmin.com/xmlschemas/TrackPointExtension/v1">
            <gpxtpx:hr>114</gpxtpx:hr>
          </gpxtpx:TrackPointExtension>
        </extensions>
      </trkpt>
      <trkpt lat="43.09948" lon="1.35939">
        <ele>446.4</ele>
        <time>2023-03-05T13:51:42Z</time>
        <extensions>
          <gpxtpx:TrackPointExtension xmlns:gpxtpx="http://www.garmin.com/xmlschemas/TrackPointExtension/v1">
            <gpxtpx:hr>114</gpxtpx:hr>
          </gpxtpx:TrackPointExtension>
        </extensions>
      </trkpt>
      <trkpt lat="43.09947" lon="1.35946">
        <ele>446.4</ele>
        <time>2023-03-05T13:51:43Z</time>
        <extensions>
          <gpxtpx:TrackPointExtension xmlns:gpxtpx="http://www.garmin.com/xmlschemas/TrackPointExtension/v1">
            <gpxtpx:hr>114</gpxtpx:hr>
          </gpxtpx:TrackPointExtension>
        </extensions>
      </trkpt>
      <trkpt lat="43.09946" lon="1.35952">
        <ele>445.8</ele>
        <time>2023-03-05T13:51:44Z</time>
        <extensions>
          <gpxtpx:TrackPointExtension xmlns:gpxtpx="http://www.garmin.com/xmlschemas/TrackPointExtension/v1">
            <gpxtpx:hr>114</gpxtpx:hr>
          </gpxtpx:TrackPointExtension>
        </extensions>
      </trkpt>
      <trkpt lat="43.09945" lon="1.35959">
        <ele>445.4</ele>
        <time>2023-03-05T13:51:45Z</time>
        <extensions>
          <gpxtpx:TrackPointExtension xmlns:gpxtpx="http://www.garmin.com/xmlschemas/TrackPointExtension/v1">
            <gpxtpx:hr>114</gpxtpx:hr>
          </gpxtpx:TrackPointExtension>
        </extensions>
      </trkpt>
      <trkpt lat="43.09944" lon="1.35964">
        <ele>445</ele>
        <time>2023-03-05T13:51:46Z</time>
        <extensions>
          <gpxtpx:TrackPointExtension xmlns:gpxtpx="http://www.garmin.com/xmlschemas/TrackPointExtension/v1">
            <gpxtpx:hr>114</gpxtpx:hr>
          </gpxtpx:TrackPointExtension>
        </extensions>
      </trkpt>
      <trkpt lat="43.09944" lon="1.35969">
        <ele>444.4</ele>
        <time>2023-03-05T13:51:47Z</time>
        <extensions>
          <gpxtpx:TrackPointExtension xmlns:gpxtpx="http://www.garmin.com/xmlschemas/TrackPointExtension/v1">
            <gpxtpx:hr>114</gpxtpx:hr>
          </gpxtpx:TrackPointExtension>
        </extensions>
      </trkpt>
      <trkpt lat="43.09945" lon="1.35975">
        <ele>443.6</ele>
        <time>2023-03-05T13:51:48Z</time>
        <extensions>
          <gpxtpx:TrackPointExtension xmlns:gpxtpx="http://www.garmin.com/xmlschemas/TrackPointExtension/v1">
            <gpxtpx:hr>106</gpxtpx:hr>
          </gpxtpx:TrackPointExtension>
        </extensions>
      </trkpt>
      <trkpt lat="43.09946" lon="1.3598">
        <ele>443</ele>
        <time>2023-03-05T13:51:49Z</time>
        <extensions>
          <gpxtpx:TrackPointExtension xmlns:gpxtpx="http://www.garmin.com/xmlschemas/TrackPointExtension/v1">
            <gpxtpx:hr>106</gpxtpx:hr>
          </gpxtpx:TrackPointExtension>
        </extensions>
      </trkpt>
      <trkpt lat="43.09947" lon="1.35984">
        <ele>442.2</ele>
        <time>2023-03-05T13:51:50Z</time>
        <extensions>
          <gpxtpx:TrackPointExtension xmlns:gpxtpx="http://www.garmin.com/xmlschemas/TrackPointExtension/v1">
            <gpxtpx:hr>106</gpxtpx:hr>
          </gpxtpx:TrackPointExtension>
        </extensions>
      </trkpt>
      <trkpt lat="43.09949" lon="1.35987">
        <ele>441.4</ele>
        <time>2023-03-05T13:51:51Z</time>
        <extensions>
          <gpxtpx:TrackPointExtension xmlns:gpxtpx="http://www.garmin.com/xmlschemas/TrackPointExtension/v1">
            <gpxtpx:hr>106</gpxtpx:hr>
          </gpxtpx:TrackPointExtension>
        </extensions>
      </trkpt>
      <trkpt lat="43.09951" lon="1.3599">
        <ele>440.8</ele>
        <time>2023-03-05T13:51:52Z</time>
        <extensions>
          <gpxtpx:TrackPointExtension xmlns:gpxtpx="http://www.garmin.com/xmlschemas/TrackPointExtension/v1">
            <gpxtpx:hr>100</gpxtpx:hr>
          </gpxtpx:TrackPointExtension>
        </extensions>
      </trkpt>
      <trkpt lat="43.09954" lon="1.35992">
        <ele>440</ele>
        <time>2023-03-05T13:51:53Z</time>
        <extensions>
          <gpxtpx:TrackPointExtension xmlns:gpxtpx="http://www.garmin.com/xmlschemas/TrackPointExtension/v1">
            <gpxtpx:hr>100</gpxtpx:hr>
          </gpxtpx:TrackPointExtension>
        </extensions>
      </trkpt>
      <trkpt lat="43.09957" lon="1.35995">
        <ele>438.6</ele>
        <time>2023-03-05T13:51:54Z</time>
        <extensions>
          <gpxtpx:TrackPointExtension xmlns:gpxtpx="http://www.garmin.com/xmlschemas/TrackPointExtension/v1">
            <gpxtpx:hr>100</gpxtpx:hr>
          </gpxtpx:TrackPointExtension>
        </extensions>
      </trkpt>
      <trkpt lat="43.09959" lon="1.35999">
        <ele>437.8</ele>
        <time>2023-03-05T13:51:55Z</time>
        <extensions>
          <gpxtpx:TrackPointExtension xmlns:gpxtpx="http://www.garmin.com/xmlschemas/TrackPointExtension/v1">
            <gpxtpx:hr>100</gpxtpx:hr>
          </gpxtpx:TrackPointExtension>
        </extensions>
      </trkpt>
      <trkpt lat="43.09962" lon="1.36003">
        <ele>437.2</ele>
        <time>2023-03-05T13:51:56Z</time>
        <extensions>
          <gpxtpx:TrackPointExtension xmlns:gpxtpx="http://www.garmin.com/xmlschemas/TrackPointExtension/v1">
            <gpxtpx:hr>102</gpxtpx:hr>
          </gpxtpx:TrackPointExtension>
        </extensions>
      </trkpt>
      <trkpt lat="43.09966" lon="1.36008">
        <ele>436.6</ele>
        <time>2023-03-05T13:51:57Z</time>
        <extensions>
          <gpxtpx:TrackPointExtension xmlns:gpxtpx="http://www.garmin.com/xmlschemas/TrackPointExtension/v1">
            <gpxtpx:hr>105</gpxtpx:hr>
          </gpxtpx:TrackPointExtension>
        </extensions>
      </trkpt>
      <trkpt lat="43.09971" lon="1.36012">
        <ele>436</ele>
        <time>2023-03-05T13:51:58Z</time>
        <extensions>
          <gpxtpx:TrackPointExtension xmlns:gpxtpx="http://www.garmin.com/xmlschemas/TrackPointExtension/v1">
            <gpxtpx:hr>105</gpxtpx:hr>
          </gpxtpx:TrackPointExtension>
        </extensions>
      </trkpt>
      <trkpt lat="43.09976" lon="1.36019">
        <ele>435.4</ele>
        <time>2023-03-05T13:51:59Z</time>
        <extensions>
          <gpxtpx:TrackPointExtension xmlns:gpxtpx="http://www.garmin.com/xmlschemas/TrackPointExtension/v1">
            <gpxtpx:hr>106</gpxtpx:hr>
          </gpxtpx:TrackPointExtension>
        </extensions>
      </trkpt>
      <trkpt lat="43.09981" lon="1.36025">
        <ele>434.8</ele>
        <time>2023-03-05T13:52:00Z</time>
        <extensions>
          <gpxtpx:TrackPointExtension xmlns:gpxtpx="http://www.garmin.com/xmlschemas/TrackPointExtension/v1">
            <gpxtpx:hr>108</gpxtpx:hr>
          </gpxtpx:TrackPointExtension>
        </extensions>
      </trkpt>
      <trkpt lat="43.09987" lon="1.36031">
        <ele>434.2</ele>
        <time>2023-03-05T13:52:01Z</time>
        <extensions>
          <gpxtpx:TrackPointExtension xmlns:gpxtpx="http://www.garmin.com/xmlschemas/TrackPointExtension/v1">
            <gpxtpx:hr>108</gpxtpx:hr>
          </gpxtpx:TrackPointExtension>
        </extensions>
      </trkpt>
      <trkpt lat="43.09992" lon="1.36036">
        <ele>433.6</ele>
        <time>2023-03-05T13:52:02Z</time>
        <extensions>
          <gpxtpx:TrackPointExtension xmlns:gpxtpx="http://www.garmin.com/xmlschemas/TrackPointExtension/v1">
            <gpxtpx:hr>108</gpxtpx:hr>
          </gpxtpx:TrackPointExtension>
        </extensions>
      </trkpt>
      <trkpt lat="43.09997" lon="1.36042">
        <ele>433</ele>
        <time>2023-03-05T13:52:03Z</time>
        <extensions>
          <gpxtpx:TrackPointExtension xmlns:gpxtpx="http://www.garmin.com/xmlschemas/TrackPointExtension/v1">
            <gpxtpx:hr>108</gpxtpx:hr>
          </gpxtpx:TrackPointExtension>
        </extensions>
      </trkpt>
      <trkpt lat="43.10002" lon="1.36047">
        <ele>432.4</ele>
        <time>2023-03-05T13:52:04Z</time>
        <extensions>
          <gpxtpx:TrackPointExtension xmlns:gpxtpx="http://www.garmin.com/xmlschemas/TrackPointExtension/v1">
            <gpxtpx:hr>108</gpxtpx:hr>
          </gpxtpx:TrackPointExtension>
        </extensions>
      </trkpt>
      <trkpt lat="43.10018" lon="1.36068">
        <ele>431.8</ele>
        <time>2023-03-05T13:52:08Z</time>
        <extensions>
          <gpxtpx:TrackPointExtension xmlns:gpxtpx="http://www.garmin.com/xmlschemas/TrackPointExtension/v1">
            <gpxtpx:hr>109</gpxtpx:hr>
          </gpxtpx:TrackPointExtension>
        </extensions>
      </trkpt>
      <trkpt lat="43.10021" lon="1.36072">
        <ele>431.4</ele>
        <time>2023-03-05T13:52:09Z</time>
        <extensions>
          <gpxtpx:TrackPointExtension xmlns:gpxtpx="http://www.garmin.com/xmlschemas/TrackPointExtension/v1">
            <gpxtpx:hr>109</gpxtpx:hr>
          </gpxtpx:TrackPointExtension>
        </extensions>
      </trkpt>
      <trkpt lat="43.10022" lon="1.36075">
        <ele>431</ele>
        <time>2023-03-05T13:52:10Z</time>
        <extensions>
          <gpxtpx:TrackPointExtension xmlns:gpxtpx="http://www.garmin.com/xmlschemas/TrackPointExtension/v1">
            <gpxtpx:hr>109</gpxtpx:hr>
          </gpxtpx:TrackPointExtension>
        </extensions>
      </trkpt>
      <trkpt lat="43.10023" lon="1.36078">
        <ele>430.6</ele>
        <time>2023-03-05T13:52:11Z</time>
        <extensions>
          <gpxtpx:TrackPointExtension xmlns:gpxtpx="http://www.garmin.com/xmlschemas/TrackPointExtension/v1">
            <gpxtpx:hr>109</gpxtpx:hr>
          </gpxtpx:TrackPointExtension>
        </extensions>
      </trkpt>
      <trkpt lat="43.10024" lon="1.36081">
        <ele>430.2</ele>
        <time>2023-03-05T13:52:12Z</time>
        <extensions>
          <gpxtpx:TrackPointExtension xmlns:gpxtpx="http://www.garmin.com/xmlschemas/TrackPointExtension/v1">
            <gpxtpx:hr>109</gpxtpx:hr>
          </gpxtpx:TrackPointExtension>
        </extensions>
      </trkpt>
      <trkpt lat="43.10024" lon="1.36083">
        <ele>429.8</ele>
        <time>2023-03-05T13:52:13Z</time>
        <extensions>
          <gpxtpx:TrackPointExtension xmlns:gpxtpx="http://www.garmin.com/xmlschemas/TrackPointExtension/v1">
            <gpxtpx:hr>109</gpxtpx:hr>
          </gpxtpx:TrackPointExtension>
        </extensions>
      </trkpt>
      <trkpt lat="43.10024" lon="1.36085">
        <ele>429.4</ele>
        <time>2023-03-05T13:52:14Z</time>
        <extensions>
          <gpxtpx:TrackPointExtension xmlns:gpxtpx="http://www.garmin.com/xmlschemas/TrackPointExtension/v1">
            <gpxtpx:hr>109</gpxtpx:hr>
          </gpxtpx:TrackPointExtension>
        </extensions>
      </trkpt>
      <trkpt lat="43.10025" lon="1.36087">
        <ele>429</ele>
        <time>2023-03-05T13:52:15Z</time>
        <extensions>
          <gpxtpx:TrackPointExtension xmlns:gpxtpx="http://www.garmin.com/xmlschemas/TrackPointExtension/v1">
            <gpxtpx:hr>109</gpxtpx:hr>
          </gpxtpx:TrackPointExtension>
        </extensions>
      </trkpt>
      <trkpt lat="43.10025" lon="1.36088">
        <ele>428.6</ele>
        <time>2023-03-05T13:52:16Z</time>
        <extensions>
          <gpxtpx:TrackPointExtension xmlns:gpxtpx="http://www.garmin.com/xmlschemas/TrackPointExtension/v1">
            <gpxtpx:hr>109</gpxtpx:hr>
          </gpxtpx:TrackPointExtension>
        </extensions>
      </trkpt>
      <trkpt lat="43.10026" lon="1.3609">
        <ele>428.2</ele>
        <time>2023-03-05T13:52:17Z</time>
        <extensions>
          <gpxtpx:TrackPointExtension xmlns:gpxtpx="http://www.garmin.com/xmlschemas/TrackPointExtension/v1">
            <gpxtpx:hr>109</gpxtpx:hr>
          </gpxtpx:TrackPointExtension>
        </extensions>
      </trkpt>
      <trkpt lat="43.10029" lon="1.36096">
        <ele>428.2</ele>
        <time>2023-03-05T13:52:20Z</time>
        <extensions>
          <gpxtpx:TrackPointExtension xmlns:gpxtpx="http://www.garmin.com/xmlschemas/TrackPointExtension/v1">
            <gpxtpx:hr>108</gpxtpx:hr>
          </gpxtpx:TrackPointExtension>
        </extensions>
      </trkpt>
      <trkpt lat="43.1003" lon="1.36098">
        <ele>427.8</ele>
        <time>2023-03-05T13:52:21Z</time>
        <extensions>
          <gpxtpx:TrackPointExtension xmlns:gpxtpx="http://www.garmin.com/xmlschemas/TrackPointExtension/v1">
            <gpxtpx:hr>108</gpxtpx:hr>
          </gpxtpx:TrackPointExtension>
        </extensions>
      </trkpt>
      <trkpt lat="43.10031" lon="1.36101">
        <ele>427.2</ele>
        <time>2023-03-05T13:52:22Z</time>
        <extensions>
          <gpxtpx:TrackPointExtension xmlns:gpxtpx="http://www.garmin.com/xmlschemas/TrackPointExtension/v1">
            <gpxtpx:hr>108</gpxtpx:hr>
          </gpxtpx:TrackPointExtension>
        </extensions>
      </trkpt>
      <trkpt lat="43.10033" lon="1.36106">
        <ele>426.8</ele>
        <time>2023-03-05T13:52:23Z</time>
        <extensions>
          <gpxtpx:TrackPointExtension xmlns:gpxtpx="http://www.garmin.com/xmlschemas/TrackPointExtension/v1">
            <gpxtpx:hr>108</gpxtpx:hr>
          </gpxtpx:TrackPointExtension>
        </extensions>
      </trkpt>
      <trkpt lat="43.10035" lon="1.36113">
        <ele>426.4</ele>
        <time>2023-03-05T13:52:24Z</time>
        <extensions>
          <gpxtpx:TrackPointExtension xmlns:gpxtpx="http://www.garmin.com/xmlschemas/TrackPointExtension/v1">
            <gpxtpx:hr>108</gpxtpx:hr>
          </gpxtpx:TrackPointExtension>
        </extensions>
      </trkpt>
      <trkpt lat="43.10038" lon="1.36121">
        <ele>425.8</ele>
        <time>2023-03-05T13:52:25Z</time>
        <extensions>
          <gpxtpx:TrackPointExtension xmlns:gpxtpx="http://www.garmin.com/xmlschemas/TrackPointExtension/v1">
            <gpxtpx:hr>109</gpxtpx:hr>
          </gpxtpx:TrackPointExtension>
        </extensions>
      </trkpt>
      <trkpt lat="43.1004" lon="1.36129">
        <ele>425.4</ele>
        <time>2023-03-05T13:52:26Z</time>
        <extensions>
          <gpxtpx:TrackPointExtension xmlns:gpxtpx="http://www.garmin.com/xmlschemas/TrackPointExtension/v1">
            <gpxtpx:hr>109</gpxtpx:hr>
          </gpxtpx:TrackPointExtension>
        </extensions>
      </trkpt>
      <trkpt lat="43.10043" lon="1.36137">
        <ele>424.8</ele>
        <time>2023-03-05T13:52:27Z</time>
        <extensions>
          <gpxtpx:TrackPointExtension xmlns:gpxtpx="http://www.garmin.com/xmlschemas/TrackPointExtension/v1">
            <gpxtpx:hr>110</gpxtpx:hr>
          </gpxtpx:TrackPointExtension>
        </extensions>
      </trkpt>
      <trkpt lat="43.10045" lon="1.36145">
        <ele>424</ele>
        <time>2023-03-05T13:52:28Z</time>
        <extensions>
          <gpxtpx:TrackPointExtension xmlns:gpxtpx="http://www.garmin.com/xmlschemas/TrackPointExtension/v1">
            <gpxtpx:hr>110</gpxtpx:hr>
          </gpxtpx:TrackPointExtension>
        </extensions>
      </trkpt>
      <trkpt lat="43.10048" lon="1.36152">
        <ele>423.2</ele>
        <time>2023-03-05T13:52:29Z</time>
        <extensions>
          <gpxtpx:TrackPointExtension xmlns:gpxtpx="http://www.garmin.com/xmlschemas/TrackPointExtension/v1">
            <gpxtpx:hr>110</gpxtpx:hr>
          </gpxtpx:TrackPointExtension>
        </extensions>
      </trkpt>
      <trkpt lat="43.1005" lon="1.3616">
        <ele>422.4</ele>
        <time>2023-03-05T13:52:30Z</time>
        <extensions>
          <gpxtpx:TrackPointExtension xmlns:gpxtpx="http://www.garmin.com/xmlschemas/TrackPointExtension/v1">
            <gpxtpx:hr>110</gpxtpx:hr>
          </gpxtpx:TrackPointExtension>
        </extensions>
      </trkpt>
      <trkpt lat="43.10051" lon="1.36169">
        <ele>421.4</ele>
        <time>2023-03-05T13:52:31Z</time>
        <extensions>
          <gpxtpx:TrackPointExtension xmlns:gpxtpx="http://www.garmin.com/xmlschemas/TrackPointExtension/v1">
            <gpxtpx:hr>109</gpxtpx:hr>
          </gpxtpx:TrackPointExtension>
        </extensions>
      </trkpt>
      <trkpt lat="43.10053" lon="1.36179">
        <ele>420.4</ele>
        <time>2023-03-05T13:52:32Z</time>
        <extensions>
          <gpxtpx:TrackPointExtension xmlns:gpxtpx="http://www.garmin.com/xmlschemas/TrackPointExtension/v1">
            <gpxtpx:hr>109</gpxtpx:hr>
          </gpxtpx:TrackPointExtension>
        </extensions>
      </trkpt>
      <trkpt lat="43.10055" lon="1.36188">
        <ele>419.4</ele>
        <time>2023-03-05T13:52:33Z</time>
        <extensions>
          <gpxtpx:TrackPointExtension xmlns:gpxtpx="http://www.garmin.com/xmlschemas/TrackPointExtension/v1">
            <gpxtpx:hr>108</gpxtpx:hr>
          </gpxtpx:TrackPointExtension>
        </extensions>
      </trkpt>
      <trkpt lat="43.10059" lon="1.36197">
        <ele>418.4</ele>
        <time>2023-03-05T13:52:34Z</time>
        <extensions>
          <gpxtpx:TrackPointExtension xmlns:gpxtpx="http://www.garmin.com/xmlschemas/TrackPointExtension/v1">
            <gpxtpx:hr>108</gpxtpx:hr>
          </gpxtpx:TrackPointExtension>
        </extensions>
      </trkpt>
      <trkpt lat="43.10062" lon="1.36208">
        <ele>417.2</ele>
        <time>2023-03-05T13:52:35Z</time>
        <extensions>
          <gpxtpx:TrackPointExtension xmlns:gpxtpx="http://www.garmin.com/xmlschemas/TrackPointExtension/v1">
            <gpxtpx:hr>108</gpxtpx:hr>
          </gpxtpx:TrackPointExtension>
        </extensions>
      </trkpt>
      <trkpt lat="43.10065" lon="1.36218">
        <ele>416.2</ele>
        <time>2023-03-05T13:52:36Z</time>
        <extensions>
          <gpxtpx:TrackPointExtension xmlns:gpxtpx="http://www.garmin.com/xmlschemas/TrackPointExtension/v1">
            <gpxtpx:hr>109</gpxtpx:hr>
          </gpxtpx:TrackPointExtension>
        </extensions>
      </trkpt>
      <trkpt lat="43.10068" lon="1.36227">
        <ele>415</ele>
        <time>2023-03-05T13:52:37Z</time>
        <extensions>
          <gpxtpx:TrackPointExtension xmlns:gpxtpx="http://www.garmin.com/xmlschemas/TrackPointExtension/v1">
            <gpxtpx:hr>109</gpxtpx:hr>
          </gpxtpx:TrackPointExtension>
        </extensions>
      </trkpt>
      <trkpt lat="43.1007" lon="1.36236">
        <ele>413.8</ele>
        <time>2023-03-05T13:52:38Z</time>
        <extensions>
          <gpxtpx:TrackPointExtension xmlns:gpxtpx="http://www.garmin.com/xmlschemas/TrackPointExtension/v1">
            <gpxtpx:hr>110</gpxtpx:hr>
          </gpxtpx:TrackPointExtension>
        </extensions>
      </trkpt>
      <trkpt lat="43.10073" lon="1.36244">
        <ele>412.6</ele>
        <time>2023-03-05T13:52:39Z</time>
        <extensions>
          <gpxtpx:TrackPointExtension xmlns:gpxtpx="http://www.garmin.com/xmlschemas/TrackPointExtension/v1">
            <gpxtpx:hr>110</gpxtpx:hr>
          </gpxtpx:TrackPointExtension>
        </extensions>
      </trkpt>
      <trkpt lat="43.10074" lon="1.3625">
        <ele>411.6</ele>
        <time>2023-03-05T13:52:40Z</time>
        <extensions>
          <gpxtpx:TrackPointExtension xmlns:gpxtpx="http://www.garmin.com/xmlschemas/TrackPointExtension/v1">
            <gpxtpx:hr>110</gpxtpx:hr>
          </gpxtpx:TrackPointExtension>
        </extensions>
      </trkpt>
      <trkpt lat="43.10076" lon="1.36254">
        <ele>410.4</ele>
        <time>2023-03-05T13:52:41Z</time>
        <extensions>
          <gpxtpx:TrackPointExtension xmlns:gpxtpx="http://www.garmin.com/xmlschemas/TrackPointExtension/v1">
            <gpxtpx:hr>110</gpxtpx:hr>
          </gpxtpx:TrackPointExtension>
        </extensions>
      </trkpt>
      <trkpt lat="43.10077" lon="1.36258">
        <ele>409.6</ele>
        <time>2023-03-05T13:52:42Z</time>
        <extensions>
          <gpxtpx:TrackPointExtension xmlns:gpxtpx="http://www.garmin.com/xmlschemas/TrackPointExtension/v1">
            <gpxtpx:hr>110</gpxtpx:hr>
          </gpxtpx:TrackPointExtension>
        </extensions>
      </trkpt>
      <trkpt lat="43.10079" lon="1.36261">
        <ele>408.2</ele>
        <time>2023-03-05T13:52:43Z</time>
        <extensions>
          <gpxtpx:TrackPointExtension xmlns:gpxtpx="http://www.garmin.com/xmlschemas/TrackPointExtension/v1">
            <gpxtpx:hr>110</gpxtpx:hr>
          </gpxtpx:TrackPointExtension>
        </extensions>
      </trkpt>
      <trkpt lat="43.1008" lon="1.36265">
        <ele>407.4</ele>
        <time>2023-03-05T13:52:44Z</time>
        <extensions>
          <gpxtpx:TrackPointExtension xmlns:gpxtpx="http://www.garmin.com/xmlschemas/TrackPointExtension/v1">
            <gpxtpx:hr>110</gpxtpx:hr>
          </gpxtpx:TrackPointExtension>
        </extensions>
      </trkpt>
      <trkpt lat="43.1008" lon="1.3627">
        <ele>406.8</ele>
        <time>2023-03-05T13:52:45Z</time>
        <extensions>
          <gpxtpx:TrackPointExtension xmlns:gpxtpx="http://www.garmin.com/xmlschemas/TrackPointExtension/v1">
            <gpxtpx:hr>110</gpxtpx:hr>
          </gpxtpx:TrackPointExtension>
        </extensions>
      </trkpt>
      <trkpt lat="43.10081" lon="1.36275">
        <ele>406.2</ele>
        <time>2023-03-05T13:52:46Z</time>
        <extensions>
          <gpxtpx:TrackPointExtension xmlns:gpxtpx="http://www.garmin.com/xmlschemas/TrackPointExtension/v1">
            <gpxtpx:hr>110</gpxtpx:hr>
          </gpxtpx:TrackPointExtension>
        </extensions>
      </trkpt>
      <trkpt lat="43.10081" lon="1.3628">
        <ele>405.6</ele>
        <time>2023-03-05T13:52:47Z</time>
        <extensions>
          <gpxtpx:TrackPointExtension xmlns:gpxtpx="http://www.garmin.com/xmlschemas/TrackPointExtension/v1">
            <gpxtpx:hr>110</gpxtpx:hr>
          </gpxtpx:TrackPointExtension>
        </extensions>
      </trkpt>
      <trkpt lat="43.10081" lon="1.36284">
        <ele>405</ele>
        <time>2023-03-05T13:52:48Z</time>
        <extensions>
          <gpxtpx:TrackPointExtension xmlns:gpxtpx="http://www.garmin.com/xmlschemas/TrackPointExtension/v1">
            <gpxtpx:hr>110</gpxtpx:hr>
          </gpxtpx:TrackPointExtension>
        </extensions>
      </trkpt>
      <trkpt lat="43.10081" lon="1.36289">
        <ele>404.2</ele>
        <time>2023-03-05T13:52:49Z</time>
        <extensions>
          <gpxtpx:TrackPointExtension xmlns:gpxtpx="http://www.garmin.com/xmlschemas/TrackPointExtension/v1">
            <gpxtpx:hr>110</gpxtpx:hr>
          </gpxtpx:TrackPointExtension>
        </extensions>
      </trkpt>
      <trkpt lat="43.1008" lon="1.36294">
        <ele>403.4</ele>
        <time>2023-03-05T13:52:50Z</time>
        <extensions>
          <gpxtpx:TrackPointExtension xmlns:gpxtpx="http://www.garmin.com/xmlschemas/TrackPointExtension/v1">
            <gpxtpx:hr>110</gpxtpx:hr>
          </gpxtpx:TrackPointExtension>
        </extensions>
      </trkpt>
      <trkpt lat="43.1008" lon="1.36299">
        <ele>402.6</ele>
        <time>2023-03-05T13:52:51Z</time>
        <extensions>
          <gpxtpx:TrackPointExtension xmlns:gpxtpx="http://www.garmin.com/xmlschemas/TrackPointExtension/v1">
            <gpxtpx:hr>110</gpxtpx:hr>
          </gpxtpx:TrackPointExtension>
        </extensions>
      </trkpt>
      <trkpt lat="43.1008" lon="1.36304">
        <ele>401.8</ele>
        <time>2023-03-05T13:52:52Z</time>
        <extensions>
          <gpxtpx:TrackPointExtension xmlns:gpxtpx="http://www.garmin.com/xmlschemas/TrackPointExtension/v1">
            <gpxtpx:hr>110</gpxtpx:hr>
          </gpxtpx:TrackPointExtension>
        </extensions>
      </trkpt>
      <trkpt lat="43.1008" lon="1.3631">
        <ele>401</ele>
        <time>2023-03-05T13:52:53Z</time>
        <extensions>
          <gpxtpx:TrackPointExtension xmlns:gpxtpx="http://www.garmin.com/xmlschemas/TrackPointExtension/v1">
            <gpxtpx:hr>110</gpxtpx:hr>
          </gpxtpx:TrackPointExtension>
        </extensions>
      </trkpt>
      <trkpt lat="43.10082" lon="1.36317">
        <ele>400.2</ele>
        <time>2023-03-05T13:52:54Z</time>
        <extensions>
          <gpxtpx:TrackPointExtension xmlns:gpxtpx="http://www.garmin.com/xmlschemas/TrackPointExtension/v1">
            <gpxtpx:hr>110</gpxtpx:hr>
          </gpxtpx:TrackPointExtension>
        </extensions>
      </trkpt>
      <trkpt lat="43.10083" lon="1.36322">
        <ele>399.2</ele>
        <time>2023-03-05T13:52:55Z</time>
        <extensions>
          <gpxtpx:TrackPointExtension xmlns:gpxtpx="http://www.garmin.com/xmlschemas/TrackPointExtension/v1">
            <gpxtpx:hr>110</gpxtpx:hr>
          </gpxtpx:TrackPointExtension>
        </extensions>
      </trkpt>
      <trkpt lat="43.10085" lon="1.36326">
        <ele>398.2</ele>
        <time>2023-03-05T13:52:56Z</time>
        <extensions>
          <gpxtpx:TrackPointExtension xmlns:gpxtpx="http://www.garmin.com/xmlschemas/TrackPointExtension/v1">
            <gpxtpx:hr>110</gpxtpx:hr>
          </gpxtpx:TrackPointExtension>
        </extensions>
      </trkpt>
      <trkpt lat="43.10087" lon="1.36328">
        <ele>397.2</ele>
        <time>2023-03-05T13:52:57Z</time>
        <extensions>
          <gpxtpx:TrackPointExtension xmlns:gpxtpx="http://www.garmin.com/xmlschemas/TrackPointExtension/v1">
            <gpxtpx:hr>110</gpxtpx:hr>
          </gpxtpx:TrackPointExtension>
        </extensions>
      </trkpt>
      <trkpt lat="43.10088" lon="1.36329">
        <ele>396.2</ele>
        <time>2023-03-05T13:52:58Z</time>
        <extensions>
          <gpxtpx:TrackPointExtension xmlns:gpxtpx="http://www.garmin.com/xmlschemas/TrackPointExtension/v1">
            <gpxtpx:hr>110</gpxtpx:hr>
          </gpxtpx:TrackPointExtension>
        </extensions>
      </trkpt>
      <trkpt lat="43.10088" lon="1.36329">
        <ele>395.2</ele>
        <time>2023-03-05T13:52:59Z</time>
        <extensions>
          <gpxtpx:TrackPointExtension xmlns:gpxtpx="http://www.garmin.com/xmlschemas/TrackPointExtension/v1">
            <gpxtpx:hr>110</gpxtpx:hr>
          </gpxtpx:TrackPointExtension>
        </extensions>
      </trkpt>
      <trkpt lat="43.1009" lon="1.3633">
        <ele>394.2</ele>
        <time>2023-03-05T13:53:00Z</time>
        <extensions>
          <gpxtpx:TrackPointExtension xmlns:gpxtpx="http://www.garmin.com/xmlschemas/TrackPointExtension/v1">
            <gpxtpx:hr>110</gpxtpx:hr>
          </gpxtpx:TrackPointExtension>
        </extensions>
      </trkpt>
      <trkpt lat="43.10093" lon="1.36332">
        <ele>393.2</ele>
        <time>2023-03-05T13:53:01Z</time>
        <extensions>
          <gpxtpx:TrackPointExtension xmlns:gpxtpx="http://www.garmin.com/xmlschemas/TrackPointExtension/v1">
            <gpxtpx:hr>110</gpxtpx:hr>
          </gpxtpx:TrackPointExtension>
        </extensions>
      </trkpt>
      <trkpt lat="43.10096" lon="1.36333">
        <ele>392.2</ele>
        <time>2023-03-05T13:53:02Z</time>
        <extensions>
          <gpxtpx:TrackPointExtension xmlns:gpxtpx="http://www.garmin.com/xmlschemas/TrackPointExtension/v1">
            <gpxtpx:hr>110</gpxtpx:hr>
          </gpxtpx:TrackPointExtension>
        </extensions>
      </trkpt>
      <trkpt lat="43.10099" lon="1.36335">
        <ele>391.6</ele>
        <time>2023-03-05T13:53:03Z</time>
        <extensions>
          <gpxtpx:TrackPointExtension xmlns:gpxtpx="http://www.garmin.com/xmlschemas/TrackPointExtension/v1">
            <gpxtpx:hr>111</gpxtpx:hr>
          </gpxtpx:TrackPointExtension>
        </extensions>
      </trkpt>
      <trkpt lat="43.101" lon="1.36338">
        <ele>391.2</ele>
        <time>2023-03-05T13:53:04Z</time>
        <extensions>
          <gpxtpx:TrackPointExtension xmlns:gpxtpx="http://www.garmin.com/xmlschemas/TrackPointExtension/v1">
            <gpxtpx:hr>111</gpxtpx:hr>
          </gpxtpx:TrackPointExtension>
        </extensions>
      </trkpt>
      <trkpt lat="43.10101" lon="1.36341">
        <ele>390.6</ele>
        <time>2023-03-05T13:53:05Z</time>
        <extensions>
          <gpxtpx:TrackPointExtension xmlns:gpxtpx="http://www.garmin.com/xmlschemas/TrackPointExtension/v1">
            <gpxtpx:hr>111</gpxtpx:hr>
          </gpxtpx:TrackPointExtension>
        </extensions>
      </trkpt>
      <trkpt lat="43.101" lon="1.36345">
        <ele>390</ele>
        <time>2023-03-05T13:53:06Z</time>
        <extensions>
          <gpxtpx:TrackPointExtension xmlns:gpxtpx="http://www.garmin.com/xmlschemas/TrackPointExtension/v1">
            <gpxtpx:hr>111</gpxtpx:hr>
          </gpxtpx:TrackPointExtension>
        </extensions>
      </trkpt>
      <trkpt lat="43.10099" lon="1.3635">
        <ele>389.2</ele>
        <time>2023-03-05T13:53:07Z</time>
        <extensions>
          <gpxtpx:TrackPointExtension xmlns:gpxtpx="http://www.garmin.com/xmlschemas/TrackPointExtension/v1">
            <gpxtpx:hr>111</gpxtpx:hr>
          </gpxtpx:TrackPointExtension>
        </extensions>
      </trkpt>
      <trkpt lat="43.10098" lon="1.36355">
        <ele>387.8</ele>
        <time>2023-03-05T13:53:08Z</time>
        <extensions>
          <gpxtpx:TrackPointExtension xmlns:gpxtpx="http://www.garmin.com/xmlschemas/TrackPointExtension/v1">
            <gpxtpx:hr>111</gpxtpx:hr>
          </gpxtpx:TrackPointExtension>
        </extensions>
      </trkpt>
      <trkpt lat="43.10096" lon="1.36361">
        <ele>387</ele>
        <time>2023-03-05T13:53:09Z</time>
        <extensions>
          <gpxtpx:TrackPointExtension xmlns:gpxtpx="http://www.garmin.com/xmlschemas/TrackPointExtension/v1">
            <gpxtpx:hr>111</gpxtpx:hr>
          </gpxtpx:TrackPointExtension>
        </extensions>
      </trkpt>
      <trkpt lat="43.10094" lon="1.36367">
        <ele>386</ele>
        <time>2023-03-05T13:53:10Z</time>
        <extensions>
          <gpxtpx:TrackPointExtension xmlns:gpxtpx="http://www.garmin.com/xmlschemas/TrackPointExtension/v1">
            <gpxtpx:hr>111</gpxtpx:hr>
          </gpxtpx:TrackPointExtension>
        </extensions>
      </trkpt>
      <trkpt lat="43.10092" lon="1.36373">
        <ele>385.2</ele>
        <time>2023-03-05T13:53:11Z</time>
        <extensions>
          <gpxtpx:TrackPointExtension xmlns:gpxtpx="http://www.garmin.com/xmlschemas/TrackPointExtension/v1">
            <gpxtpx:hr>111</gpxtpx:hr>
          </gpxtpx:TrackPointExtension>
        </extensions>
      </trkpt>
      <trkpt lat="43.1009" lon="1.36379">
        <ele>384.2</ele>
        <time>2023-03-05T13:53:12Z</time>
        <extensions>
          <gpxtpx:TrackPointExtension xmlns:gpxtpx="http://www.garmin.com/xmlschemas/TrackPointExtension/v1">
            <gpxtpx:hr>111</gpxtpx:hr>
          </gpxtpx:TrackPointExtension>
        </extensions>
      </trkpt>
      <trkpt lat="43.1009" lon="1.36383">
        <ele>383.2</ele>
        <time>2023-03-05T13:53:13Z</time>
        <extensions>
          <gpxtpx:TrackPointExtension xmlns:gpxtpx="http://www.garmin.com/xmlschemas/TrackPointExtension/v1">
            <gpxtpx:hr>111</gpxtpx:hr>
          </gpxtpx:TrackPointExtension>
        </extensions>
      </trkpt>
      <trkpt lat="43.1009" lon="1.36387">
        <ele>382.2</ele>
        <time>2023-03-05T13:53:14Z</time>
        <extensions>
          <gpxtpx:TrackPointExtension xmlns:gpxtpx="http://www.garmin.com/xmlschemas/TrackPointExtension/v1">
            <gpxtpx:hr>111</gpxtpx:hr>
          </gpxtpx:TrackPointExtension>
        </extensions>
      </trkpt>
      <trkpt lat="43.10091" lon="1.36389">
        <ele>381.4</ele>
        <time>2023-03-05T13:53:15Z</time>
        <extensions>
          <gpxtpx:TrackPointExtension xmlns:gpxtpx="http://www.garmin.com/xmlschemas/TrackPointExtension/v1">
            <gpxtpx:hr>111</gpxtpx:hr>
          </gpxtpx:TrackPointExtension>
        </extensions>
      </trkpt>
      <trkpt lat="43.10092" lon="1.3639">
        <ele>380.4</ele>
        <time>2023-03-05T13:53:16Z</time>
        <extensions>
          <gpxtpx:TrackPointExtension xmlns:gpxtpx="http://www.garmin.com/xmlschemas/TrackPointExtension/v1">
            <gpxtpx:hr>111</gpxtpx:hr>
          </gpxtpx:TrackPointExtension>
        </extensions>
      </trkpt>
      <trkpt lat="43.10093" lon="1.36393">
        <ele>376</ele>
        <time>2023-03-05T13:53:30Z</time>
        <extensions>
          <gpxtpx:TrackPointExtension xmlns:gpxtpx="http://www.garmin.com/xmlschemas/TrackPointExtension/v1">
            <gpxtpx:hr>109</gpxtpx:hr>
          </gpxtpx:TrackPointExtension>
        </extensions>
      </trkpt>
      <trkpt lat="43.10093" lon="1.36395">
        <ele>376</ele>
        <time>2023-03-05T13:53:31Z</time>
        <extensions>
          <gpxtpx:TrackPointExtension xmlns:gpxtpx="http://www.garmin.com/xmlschemas/TrackPointExtension/v1">
            <gpxtpx:hr>109</gpxtpx:hr>
          </gpxtpx:TrackPointExtension>
        </extensions>
      </trkpt>
      <trkpt lat="43.10094" lon="1.36401">
        <ele>375.6</ele>
        <time>2023-03-05T13:53:33Z</time>
        <extensions>
          <gpxtpx:TrackPointExtension xmlns:gpxtpx="http://www.garmin.com/xmlschemas/TrackPointExtension/v1">
            <gpxtpx:hr>109</gpxtpx:hr>
          </gpxtpx:TrackPointExtension>
        </extensions>
      </trkpt>
      <trkpt lat="43.10094" lon="1.36403">
        <ele>375.2</ele>
        <time>2023-03-05T13:53:34Z</time>
        <extensions>
          <gpxtpx:TrackPointExtension xmlns:gpxtpx="http://www.garmin.com/xmlschemas/TrackPointExtension/v1">
            <gpxtpx:hr>109</gpxtpx:hr>
          </gpxtpx:TrackPointExtension>
        </extensions>
      </trkpt>
      <trkpt lat="43.10094" lon="1.36404">
        <ele>374.8</ele>
        <time>2023-03-05T13:53:35Z</time>
        <extensions>
          <gpxtpx:TrackPointExtension xmlns:gpxtpx="http://www.garmin.com/xmlschemas/TrackPointExtension/v1">
            <gpxtpx:hr>109</gpxtpx:hr>
          </gpxtpx:TrackPointExtension>
        </extensions>
      </trkpt>
      <trkpt lat="43.10094" lon="1.36404">
        <ele>374.2</ele>
        <time>2023-03-05T13:53:36Z</time>
        <extensions>
          <gpxtpx:TrackPointExtension xmlns:gpxtpx="http://www.garmin.com/xmlschemas/TrackPointExtension/v1">
            <gpxtpx:hr>108</gpxtpx:hr>
          </gpxtpx:TrackPointExtension>
        </extensions>
      </trkpt>
      <trkpt lat="43.10094" lon="1.36407">
        <ele>373.6</ele>
        <time>2023-03-05T13:53:37Z</time>
        <extensions>
          <gpxtpx:TrackPointExtension xmlns:gpxtpx="http://www.garmin.com/xmlschemas/TrackPointExtension/v1">
            <gpxtpx:hr>108</gpxtpx:hr>
          </gpxtpx:TrackPointExtension>
        </extensions>
      </trkpt>
      <trkpt lat="43.10094" lon="1.36411">
        <ele>373</ele>
        <time>2023-03-05T13:53:38Z</time>
        <extensions>
          <gpxtpx:TrackPointExtension xmlns:gpxtpx="http://www.garmin.com/xmlschemas/TrackPointExtension/v1">
            <gpxtpx:hr>107</gpxtpx:hr>
          </gpxtpx:TrackPointExtension>
        </extensions>
      </trkpt>
      <trkpt lat="43.10095" lon="1.36414">
        <ele>372.4</ele>
        <time>2023-03-05T13:53:39Z</time>
        <extensions>
          <gpxtpx:TrackPointExtension xmlns:gpxtpx="http://www.garmin.com/xmlschemas/TrackPointExtension/v1">
            <gpxtpx:hr>107</gpxtpx:hr>
          </gpxtpx:TrackPointExtension>
        </extensions>
      </trkpt>
      <trkpt lat="43.10095" lon="1.36418">
        <ele>371.6</ele>
        <time>2023-03-05T13:53:40Z</time>
        <extensions>
          <gpxtpx:TrackPointExtension xmlns:gpxtpx="http://www.garmin.com/xmlschemas/TrackPointExtension/v1">
            <gpxtpx:hr>107</gpxtpx:hr>
          </gpxtpx:TrackPointExtension>
        </extensions>
      </trkpt>
      <trkpt lat="43.10096" lon="1.36421">
        <ele>370.8</ele>
        <time>2023-03-05T13:53:41Z</time>
        <extensions>
          <gpxtpx:TrackPointExtension xmlns:gpxtpx="http://www.garmin.com/xmlschemas/TrackPointExtension/v1">
            <gpxtpx:hr>107</gpxtpx:hr>
          </gpxtpx:TrackPointExtension>
        </extensions>
      </trkpt>
      <trkpt lat="43.10097" lon="1.36425">
        <ele>370</ele>
        <time>2023-03-05T13:53:42Z</time>
        <extensions>
          <gpxtpx:TrackPointExtension xmlns:gpxtpx="http://www.garmin.com/xmlschemas/TrackPointExtension/v1">
            <gpxtpx:hr>107</gpxtpx:hr>
          </gpxtpx:TrackPointExtension>
        </extensions>
      </trkpt>
      <trkpt lat="43.10098" lon="1.36429">
        <ele>369.2</ele>
        <time>2023-03-05T13:53:43Z</time>
        <extensions>
          <gpxtpx:TrackPointExtension xmlns:gpxtpx="http://www.garmin.com/xmlschemas/TrackPointExtension/v1">
            <gpxtpx:hr>107</gpxtpx:hr>
          </gpxtpx:TrackPointExtension>
        </extensions>
      </trkpt>
      <trkpt lat="43.10098" lon="1.36433">
        <ele>368.2</ele>
        <time>2023-03-05T13:53:44Z</time>
        <extensions>
          <gpxtpx:TrackPointExtension xmlns:gpxtpx="http://www.garmin.com/xmlschemas/TrackPointExtension/v1">
            <gpxtpx:hr>107</gpxtpx:hr>
          </gpxtpx:TrackPointExtension>
        </extensions>
      </trkpt>
      <trkpt lat="43.10099" lon="1.36437">
        <ele>367.4</ele>
        <time>2023-03-05T13:53:45Z</time>
        <extensions>
          <gpxtpx:TrackPointExtension xmlns:gpxtpx="http://www.garmin.com/xmlschemas/TrackPointExtension/v1">
            <gpxtpx:hr>107</gpxtpx:hr>
          </gpxtpx:TrackPointExtension>
        </extensions>
      </trkpt>
      <trkpt lat="43.10099" lon="1.36439">
        <ele>366.4</ele>
        <time>2023-03-05T13:53:46Z</time>
        <extensions>
          <gpxtpx:TrackPointExtension xmlns:gpxtpx="http://www.garmin.com/xmlschemas/TrackPointExtension/v1">
            <gpxtpx:hr>107</gpxtpx:hr>
          </gpxtpx:TrackPointExtension>
        </extensions>
      </trkpt>
      <trkpt lat="43.10099" lon="1.36439">
        <ele>362.8</ele>
        <time>2023-03-05T13:53:50Z</time>
        <extensions>
          <gpxtpx:TrackPointExtension xmlns:gpxtpx="http://www.garmin.com/xmlschemas/TrackPointExtension/v1">
            <gpxtpx:hr>107</gpxtpx:hr>
          </gpxtpx:TrackPointExtension>
        </extensions>
      </trkpt>
      <trkpt lat="43.10098" lon="1.36446">
        <ele>362.8</ele>
        <time>2023-03-05T13:53:52Z</time>
        <extensions>
          <gpxtpx:TrackPointExtension xmlns:gpxtpx="http://www.garmin.com/xmlschemas/TrackPointExtension/v1">
            <gpxtpx:hr>107</gpxtpx:hr>
          </gpxtpx:TrackPointExtension>
        </extensions>
      </trkpt>
      <trkpt lat="43.10097" lon="1.36458">
        <ele>362.2</ele>
        <time>2023-03-05T13:53:54Z</time>
        <extensions>
          <gpxtpx:TrackPointExtension xmlns:gpxtpx="http://www.garmin.com/xmlschemas/TrackPointExtension/v1">
            <gpxtpx:hr>108</gpxtpx:hr>
          </gpxtpx:TrackPointExtension>
        </extensions>
      </trkpt>
      <trkpt lat="43.10097" lon="1.36464">
        <ele>361.8</ele>
        <time>2023-03-05T13:53:55Z</time>
        <extensions>
          <gpxtpx:TrackPointExtension xmlns:gpxtpx="http://www.garmin.com/xmlschemas/TrackPointExtension/v1">
            <gpxtpx:hr>109</gpxtpx:hr>
          </gpxtpx:TrackPointExtension>
        </extensions>
      </trkpt>
      <trkpt lat="43.10099" lon="1.36471">
        <ele>360.4</ele>
        <time>2023-03-05T13:53:56Z</time>
        <extensions>
          <gpxtpx:TrackPointExtension xmlns:gpxtpx="http://www.garmin.com/xmlschemas/TrackPointExtension/v1">
            <gpxtpx:hr>109</gpxtpx:hr>
          </gpxtpx:TrackPointExtension>
        </extensions>
      </trkpt>
      <trkpt lat="43.101" lon="1.36479">
        <ele>359.4</ele>
        <time>2023-03-05T13:53:57Z</time>
        <extensions>
          <gpxtpx:TrackPointExtension xmlns:gpxtpx="http://www.garmin.com/xmlschemas/TrackPointExtension/v1">
            <gpxtpx:hr>109</gpxtpx:hr>
          </gpxtpx:TrackPointExtension>
        </extensions>
      </trkpt>
      <trkpt lat="43.10102" lon="1.36487">
        <ele>358.4</ele>
        <time>2023-03-05T13:53:58Z</time>
        <extensions>
          <gpxtpx:TrackPointExtension xmlns:gpxtpx="http://www.garmin.com/xmlschemas/TrackPointExtension/v1">
            <gpxtpx:hr>109</gpxtpx:hr>
          </gpxtpx:TrackPointExtension>
        </extensions>
      </trkpt>
      <trkpt lat="43.10105" lon="1.36495">
        <ele>357.2</ele>
        <time>2023-03-05T13:53:59Z</time>
        <extensions>
          <gpxtpx:TrackPointExtension xmlns:gpxtpx="http://www.garmin.com/xmlschemas/TrackPointExtension/v1">
            <gpxtpx:hr>109</gpxtpx:hr>
          </gpxtpx:TrackPointExtension>
        </extensions>
      </trkpt>
      <trkpt lat="43.10108" lon="1.36503">
        <ele>356.2</ele>
        <time>2023-03-05T13:54:00Z</time>
        <extensions>
          <gpxtpx:TrackPointExtension xmlns:gpxtpx="http://www.garmin.com/xmlschemas/TrackPointExtension/v1">
            <gpxtpx:hr>109</gpxtpx:hr>
          </gpxtpx:TrackPointExtension>
        </extensions>
      </trkpt>
      <trkpt lat="43.10111" lon="1.36511">
        <ele>355.2</ele>
        <time>2023-03-05T13:54:01Z</time>
        <extensions>
          <gpxtpx:TrackPointExtension xmlns:gpxtpx="http://www.garmin.com/xmlschemas/TrackPointExtension/v1">
            <gpxtpx:hr>108</gpxtpx:hr>
          </gpxtpx:TrackPointExtension>
        </extensions>
      </trkpt>
      <trkpt lat="43.10114" lon="1.36519">
        <ele>354.2</ele>
        <time>2023-03-05T13:54:02Z</time>
        <extensions>
          <gpxtpx:TrackPointExtension xmlns:gpxtpx="http://www.garmin.com/xmlschemas/TrackPointExtension/v1">
            <gpxtpx:hr>108</gpxtpx:hr>
          </gpxtpx:TrackPointExtension>
        </extensions>
      </trkpt>
      <trkpt lat="43.10116" lon="1.36526">
        <ele>353.2</ele>
        <time>2023-03-05T13:54:03Z</time>
        <extensions>
          <gpxtpx:TrackPointExtension xmlns:gpxtpx="http://www.garmin.com/xmlschemas/TrackPointExtension/v1">
            <gpxtpx:hr>107</gpxtpx:hr>
          </gpxtpx:TrackPointExtension>
        </extensions>
      </trkpt>
      <trkpt lat="43.10118" lon="1.36532">
        <ele>352.2</ele>
        <time>2023-03-05T13:54:04Z</time>
        <extensions>
          <gpxtpx:TrackPointExtension xmlns:gpxtpx="http://www.garmin.com/xmlschemas/TrackPointExtension/v1">
            <gpxtpx:hr>107</gpxtpx:hr>
          </gpxtpx:TrackPointExtension>
        </extensions>
      </trkpt>
      <trkpt lat="43.10119" lon="1.36536">
        <ele>351.2</ele>
        <time>2023-03-05T13:54:05Z</time>
        <extensions>
          <gpxtpx:TrackPointExtension xmlns:gpxtpx="http://www.garmin.com/xmlschemas/TrackPointExtension/v1">
            <gpxtpx:hr>107</gpxtpx:hr>
          </gpxtpx:TrackPointExtension>
        </extensions>
      </trkpt>
      <trkpt lat="43.1012" lon="1.36539">
        <ele>350.4</ele>
        <time>2023-03-05T13:54:06Z</time>
        <extensions>
          <gpxtpx:TrackPointExtension xmlns:gpxtpx="http://www.garmin.com/xmlschemas/TrackPointExtension/v1">
            <gpxtpx:hr>107</gpxtpx:hr>
          </gpxtpx:TrackPointExtension>
        </extensions>
      </trkpt>
      <trkpt lat="43.10121" lon="1.36541">
        <ele>349.4</ele>
        <time>2023-03-05T13:54:07Z</time>
        <extensions>
          <gpxtpx:TrackPointExtension xmlns:gpxtpx="http://www.garmin.com/xmlschemas/TrackPointExtension/v1">
            <gpxtpx:hr>106</gpxtpx:hr>
          </gpxtpx:TrackPointExtension>
        </extensions>
      </trkpt>
      <trkpt lat="43.10121" lon="1.36541">
        <ele>348.6</ele>
        <time>2023-03-05T13:54:08Z</time>
        <extensions>
          <gpxtpx:TrackPointExtension xmlns:gpxtpx="http://www.garmin.com/xmlschemas/TrackPointExtension/v1">
            <gpxtpx:hr>106</gpxtpx:hr>
          </gpxtpx:TrackPointExtension>
        </extensions>
      </trkpt>
      <trkpt lat="43.10123" lon="1.36544">
        <ele>345.6</ele>
        <time>2023-03-05T13:54:38Z</time>
        <extensions>
          <gpxtpx:TrackPointExtension xmlns:gpxtpx="http://www.garmin.com/xmlschemas/TrackPointExtension/v1">
            <gpxtpx:hr>102</gpxtpx:hr>
          </gpxtpx:TrackPointExtension>
        </extensions>
      </trkpt>
      <trkpt lat="43.10124" lon="1.36547">
        <ele>345.6</ele>
        <time>2023-03-05T13:54:39Z</time>
        <extensions>
          <gpxtpx:TrackPointExtension xmlns:gpxtpx="http://www.garmin.com/xmlschemas/TrackPointExtension/v1">
            <gpxtpx:hr>105</gpxtpx:hr>
          </gpxtpx:TrackPointExtension>
        </extensions>
      </trkpt>
      <trkpt lat="43.10125" lon="1.36552">
        <ele>345.6</ele>
        <time>2023-03-05T13:54:41Z</time>
        <extensions>
          <gpxtpx:TrackPointExtension xmlns:gpxtpx="http://www.garmin.com/xmlschemas/TrackPointExtension/v1">
            <gpxtpx:hr>105</gpxtpx:hr>
          </gpxtpx:TrackPointExtension>
        </extensions>
      </trkpt>
      <trkpt lat="43.10129" lon="1.36564">
        <ele>345.6</ele>
        <time>2023-03-05T13:54:45Z</time>
        <extensions>
          <gpxtpx:TrackPointExtension xmlns:gpxtpx="http://www.garmin.com/xmlschemas/TrackPointExtension/v1">
            <gpxtpx:hr>108</gpxtpx:hr>
          </gpxtpx:TrackPointExtension>
        </extensions>
      </trkpt>
      <trkpt lat="43.10131" lon="1.36568">
        <ele>345.6</ele>
        <time>2023-03-05T13:54:46Z</time>
        <extensions>
          <gpxtpx:TrackPointExtension xmlns:gpxtpx="http://www.garmin.com/xmlschemas/TrackPointExtension/v1">
            <gpxtpx:hr>109</gpxtpx:hr>
          </gpxtpx:TrackPointExtension>
        </extensions>
      </trkpt>
      <trkpt lat="43.1014" lon="1.36585">
        <ele>345.6</ele>
        <time>2023-03-05T13:54:51Z</time>
        <extensions>
          <gpxtpx:TrackPointExtension xmlns:gpxtpx="http://www.garmin.com/xmlschemas/TrackPointExtension/v1">
            <gpxtpx:hr>110</gpxtpx:hr>
          </gpxtpx:TrackPointExtension>
        </extensions>
      </trkpt>
      <trkpt lat="43.10148" lon="1.36596">
        <ele>345.6</ele>
        <time>2023-03-05T13:54:56Z</time>
        <extensions>
          <gpxtpx:TrackPointExtension xmlns:gpxtpx="http://www.garmin.com/xmlschemas/TrackPointExtension/v1">
            <gpxtpx:hr>110</gpxtpx:hr>
          </gpxtpx:TrackPointExtension>
        </extensions>
      </trkpt>
      <trkpt lat="43.1015" lon="1.36599">
        <ele>345.6</ele>
        <time>2023-03-05T13:54:57Z</time>
        <extensions>
          <gpxtpx:TrackPointExtension xmlns:gpxtpx="http://www.garmin.com/xmlschemas/TrackPointExtension/v1">
            <gpxtpx:hr>110</gpxtpx:hr>
          </gpxtpx:TrackPointExtension>
        </extensions>
      </trkpt>
      <trkpt lat="43.10161" lon="1.36617">
        <ele>345.6</ele>
        <time>2023-03-05T13:55:02Z</time>
        <extensions>
          <gpxtpx:TrackPointExtension xmlns:gpxtpx="http://www.garmin.com/xmlschemas/TrackPointExtension/v1">
            <gpxtpx:hr>109</gpxtpx:hr>
          </gpxtpx:TrackPointExtension>
        </extensions>
      </trkpt>
      <trkpt lat="43.10164" lon="1.36621">
        <ele>345.2</ele>
        <time>2023-03-05T13:55:03Z</time>
        <extensions>
          <gpxtpx:TrackPointExtension xmlns:gpxtpx="http://www.garmin.com/xmlschemas/TrackPointExtension/v1">
            <gpxtpx:hr>109</gpxtpx:hr>
          </gpxtpx:TrackPointExtension>
        </extensions>
      </trkpt>
      <trkpt lat="43.10167" lon="1.36626">
        <ele>344.8</ele>
        <time>2023-03-05T13:55:04Z</time>
        <extensions>
          <gpxtpx:TrackPointExtension xmlns:gpxtpx="http://www.garmin.com/xmlschemas/TrackPointExtension/v1">
            <gpxtpx:hr>109</gpxtpx:hr>
          </gpxtpx:TrackPointExtension>
        </extensions>
      </trkpt>
      <trkpt lat="43.1017" lon="1.36631">
        <ele>344.4</ele>
        <time>2023-03-05T13:55:05Z</time>
        <extensions>
          <gpxtpx:TrackPointExtension xmlns:gpxtpx="http://www.garmin.com/xmlschemas/TrackPointExtension/v1">
            <gpxtpx:hr>109</gpxtpx:hr>
          </gpxtpx:TrackPointExtension>
        </extensions>
      </trkpt>
      <trkpt lat="43.10174" lon="1.36635">
        <ele>344</ele>
        <time>2023-03-05T13:55:06Z</time>
        <extensions>
          <gpxtpx:TrackPointExtension xmlns:gpxtpx="http://www.garmin.com/xmlschemas/TrackPointExtension/v1">
            <gpxtpx:hr>109</gpxtpx:hr>
          </gpxtpx:TrackPointExtension>
        </extensions>
      </trkpt>
      <trkpt lat="43.10178" lon="1.36639">
        <ele>343.6</ele>
        <time>2023-03-05T13:55:07Z</time>
        <extensions>
          <gpxtpx:TrackPointExtension xmlns:gpxtpx="http://www.garmin.com/xmlschemas/TrackPointExtension/v1">
            <gpxtpx:hr>108</gpxtpx:hr>
          </gpxtpx:TrackPointExtension>
        </extensions>
      </trkpt>
      <trkpt lat="43.10182" lon="1.36644">
        <ele>343.6</ele>
        <time>2023-03-05T13:55:08Z</time>
        <extensions>
          <gpxtpx:TrackPointExtension xmlns:gpxtpx="http://www.garmin.com/xmlschemas/TrackPointExtension/v1">
            <gpxtpx:hr>107</gpxtpx:hr>
          </gpxtpx:TrackPointExtension>
        </extensions>
      </trkpt>
      <trkpt lat="43.10186" lon="1.3665">
        <ele>343.2</ele>
        <time>2023-03-05T13:55:09Z</time>
        <extensions>
          <gpxtpx:TrackPointExtension xmlns:gpxtpx="http://www.garmin.com/xmlschemas/TrackPointExtension/v1">
            <gpxtpx:hr>107</gpxtpx:hr>
          </gpxtpx:TrackPointExtension>
        </extensions>
      </trkpt>
      <trkpt lat="43.10189" lon="1.36657">
        <ele>342</ele>
        <time>2023-03-05T13:55:10Z</time>
        <extensions>
          <gpxtpx:TrackPointExtension xmlns:gpxtpx="http://www.garmin.com/xmlschemas/TrackPointExtension/v1">
            <gpxtpx:hr>107</gpxtpx:hr>
          </gpxtpx:TrackPointExtension>
        </extensions>
      </trkpt>
      <trkpt lat="43.10194" lon="1.36662">
        <ele>341.4</ele>
        <time>2023-03-05T13:55:11Z</time>
        <extensions>
          <gpxtpx:TrackPointExtension xmlns:gpxtpx="http://www.garmin.com/xmlschemas/TrackPointExtension/v1">
            <gpxtpx:hr>107</gpxtpx:hr>
          </gpxtpx:TrackPointExtension>
        </extensions>
      </trkpt>
      <trkpt lat="43.10199" lon="1.36667">
        <ele>340.6</ele>
        <time>2023-03-05T13:55:12Z</time>
        <extensions>
          <gpxtpx:TrackPointExtension xmlns:gpxtpx="http://www.garmin.com/xmlschemas/TrackPointExtension/v1">
            <gpxtpx:hr>105</gpxtpx:hr>
          </gpxtpx:TrackPointExtension>
        </extensions>
      </trkpt>
      <trkpt lat="43.10205" lon="1.3667">
        <ele>339.6</ele>
        <time>2023-03-05T13:55:13Z</time>
        <extensions>
          <gpxtpx:TrackPointExtension xmlns:gpxtpx="http://www.garmin.com/xmlschemas/TrackPointExtension/v1">
            <gpxtpx:hr>105</gpxtpx:hr>
          </gpxtpx:TrackPointExtension>
        </extensions>
      </trkpt>
      <trkpt lat="43.1021" lon="1.36673">
        <ele>338.6</ele>
        <time>2023-03-05T13:55:14Z</time>
        <extensions>
          <gpxtpx:TrackPointExtension xmlns:gpxtpx="http://www.garmin.com/xmlschemas/TrackPointExtension/v1">
            <gpxtpx:hr>105</gpxtpx:hr>
          </gpxtpx:TrackPointExtension>
        </extensions>
      </trkpt>
      <trkpt lat="43.10215" lon="1.36676">
        <ele>337.6</ele>
        <time>2023-03-05T13:55:15Z</time>
        <extensions>
          <gpxtpx:TrackPointExtension xmlns:gpxtpx="http://www.garmin.com/xmlschemas/TrackPointExtension/v1">
            <gpxtpx:hr>105</gpxtpx:hr>
          </gpxtpx:TrackPointExtension>
        </extensions>
      </trkpt>
      <trkpt lat="43.10219" lon="1.36679">
        <ele>336.6</ele>
        <time>2023-03-05T13:55:16Z</time>
        <extensions>
          <gpxtpx:TrackPointExtension xmlns:gpxtpx="http://www.garmin.com/xmlschemas/TrackPointExtension/v1">
            <gpxtpx:hr>104</gpxtpx:hr>
          </gpxtpx:TrackPointExtension>
        </extensions>
      </trkpt>
      <trkpt lat="43.10222" lon="1.36682">
        <ele>335.8</ele>
        <time>2023-03-05T13:55:17Z</time>
        <extensions>
          <gpxtpx:TrackPointExtension xmlns:gpxtpx="http://www.garmin.com/xmlschemas/TrackPointExtension/v1">
            <gpxtpx:hr>104</gpxtpx:hr>
          </gpxtpx:TrackPointExtension>
        </extensions>
      </trkpt>
      <trkpt lat="43.10226" lon="1.36686">
        <ele>335</ele>
        <time>2023-03-05T13:55:18Z</time>
        <extensions>
          <gpxtpx:TrackPointExtension xmlns:gpxtpx="http://www.garmin.com/xmlschemas/TrackPointExtension/v1">
            <gpxtpx:hr>104</gpxtpx:hr>
          </gpxtpx:TrackPointExtension>
        </extensions>
      </trkpt>
      <trkpt lat="43.10229" lon="1.36689">
        <ele>334.2</ele>
        <time>2023-03-05T13:55:19Z</time>
        <extensions>
          <gpxtpx:TrackPointExtension xmlns:gpxtpx="http://www.garmin.com/xmlschemas/TrackPointExtension/v1">
            <gpxtpx:hr>104</gpxtpx:hr>
          </gpxtpx:TrackPointExtension>
        </extensions>
      </trkpt>
      <trkpt lat="43.10232" lon="1.36691">
        <ele>333.4</ele>
        <time>2023-03-05T13:55:20Z</time>
        <extensions>
          <gpxtpx:TrackPointExtension xmlns:gpxtpx="http://www.garmin.com/xmlschemas/TrackPointExtension/v1">
            <gpxtpx:hr>104</gpxtpx:hr>
          </gpxtpx:TrackPointExtension>
        </extensions>
      </trkpt>
      <trkpt lat="43.10235" lon="1.36692">
        <ele>332.6</ele>
        <time>2023-03-05T13:55:21Z</time>
        <extensions>
          <gpxtpx:TrackPointExtension xmlns:gpxtpx="http://www.garmin.com/xmlschemas/TrackPointExtension/v1">
            <gpxtpx:hr>104</gpxtpx:hr>
          </gpxtpx:TrackPointExtension>
        </extensions>
      </trkpt>
      <trkpt lat="43.10237" lon="1.36694">
        <ele>332</ele>
        <time>2023-03-05T13:55:22Z</time>
        <extensions>
          <gpxtpx:TrackPointExtension xmlns:gpxtpx="http://www.garmin.com/xmlschemas/TrackPointExtension/v1">
            <gpxtpx:hr>104</gpxtpx:hr>
          </gpxtpx:TrackPointExtension>
        </extensions>
      </trkpt>
      <trkpt lat="43.1024" lon="1.36696">
        <ele>331.4</ele>
        <time>2023-03-05T13:55:23Z</time>
        <extensions>
          <gpxtpx:TrackPointExtension xmlns:gpxtpx="http://www.garmin.com/xmlschemas/TrackPointExtension/v1">
            <gpxtpx:hr>104</gpxtpx:hr>
          </gpxtpx:TrackPointExtension>
        </extensions>
      </trkpt>
      <trkpt lat="43.10242" lon="1.36698">
        <ele>330.8</ele>
        <time>2023-03-05T13:55:24Z</time>
        <extensions>
          <gpxtpx:TrackPointExtension xmlns:gpxtpx="http://www.garmin.com/xmlschemas/TrackPointExtension/v1">
            <gpxtpx:hr>104</gpxtpx:hr>
          </gpxtpx:TrackPointExtension>
        </extensions>
      </trkpt>
      <trkpt lat="43.10245" lon="1.367">
        <ele>330.2</ele>
        <time>2023-03-05T13:55:25Z</time>
        <extensions>
          <gpxtpx:TrackPointExtension xmlns:gpxtpx="http://www.garmin.com/xmlschemas/TrackPointExtension/v1">
            <gpxtpx:hr>104</gpxtpx:hr>
          </gpxtpx:TrackPointExtension>
        </extensions>
      </trkpt>
      <trkpt lat="43.10248" lon="1.36702">
        <ele>329.8</ele>
        <time>2023-03-05T13:55:27Z</time>
        <extensions>
          <gpxtpx:TrackPointExtension xmlns:gpxtpx="http://www.garmin.com/xmlschemas/TrackPointExtension/v1">
            <gpxtpx:hr>104</gpxtpx:hr>
          </gpxtpx:TrackPointExtension>
        </extensions>
      </trkpt>
      <trkpt lat="43.1025" lon="1.36703">
        <ele>329.4</ele>
        <time>2023-03-05T13:55:28Z</time>
        <extensions>
          <gpxtpx:TrackPointExtension xmlns:gpxtpx="http://www.garmin.com/xmlschemas/TrackPointExtension/v1">
            <gpxtpx:hr>104</gpxtpx:hr>
          </gpxtpx:TrackPointExtension>
        </extensions>
      </trkpt>
      <trkpt lat="43.10251" lon="1.36704">
        <ele>329</ele>
        <time>2023-03-05T13:55:29Z</time>
        <extensions>
          <gpxtpx:TrackPointExtension xmlns:gpxtpx="http://www.garmin.com/xmlschemas/TrackPointExtension/v1">
            <gpxtpx:hr>104</gpxtpx:hr>
          </gpxtpx:TrackPointExtension>
        </extensions>
      </trkpt>
      <trkpt lat="43.10252" lon="1.36705">
        <ele>328.6</ele>
        <time>2023-03-05T13:55:30Z</time>
        <extensions>
          <gpxtpx:TrackPointExtension xmlns:gpxtpx="http://www.garmin.com/xmlschemas/TrackPointExtension/v1">
            <gpxtpx:hr>104</gpxtpx:hr>
          </gpxtpx:TrackPointExtension>
        </extensions>
      </trkpt>
      <trkpt lat="43.10253" lon="1.36705">
        <ele>328.2</ele>
        <time>2023-03-05T13:55:31Z</time>
        <extensions>
          <gpxtpx:TrackPointExtension xmlns:gpxtpx="http://www.garmin.com/xmlschemas/TrackPointExtension/v1">
            <gpxtpx:hr>103</gpxtpx:hr>
          </gpxtpx:TrackPointExtension>
        </extensions>
      </trkpt>
      <trkpt lat="43.10256" lon="1.36707">
        <ele>328.2</ele>
        <time>2023-03-05T13:55:34Z</time>
        <extensions>
          <gpxtpx:TrackPointExtension xmlns:gpxtpx="http://www.garmin.com/xmlschemas/TrackPointExtension/v1">
            <gpxtpx:hr>101</gpxtpx:hr>
          </gpxtpx:TrackPointExtension>
        </extensions>
      </trkpt>
      <trkpt lat="43.10262" lon="1.3671">
        <ele>327.8</ele>
        <time>2023-03-05T13:55:38Z</time>
        <extensions>
          <gpxtpx:TrackPointExtension xmlns:gpxtpx="http://www.garmin.com/xmlschemas/TrackPointExtension/v1">
            <gpxtpx:hr>100</gpxtpx:hr>
          </gpxtpx:TrackPointExtension>
        </extensions>
      </trkpt>
      <trkpt lat="43.10264" lon="1.36711">
        <ele>327.4</ele>
        <time>2023-03-05T13:55:39Z</time>
        <extensions>
          <gpxtpx:TrackPointExtension xmlns:gpxtpx="http://www.garmin.com/xmlschemas/TrackPointExtension/v1">
            <gpxtpx:hr>100</gpxtpx:hr>
          </gpxtpx:TrackPointExtension>
        </extensions>
      </trkpt>
      <trkpt lat="43.10266" lon="1.36713">
        <ele>327</ele>
        <time>2023-03-05T13:55:40Z</time>
        <extensions>
          <gpxtpx:TrackPointExtension xmlns:gpxtpx="http://www.garmin.com/xmlschemas/TrackPointExtension/v1">
            <gpxtpx:hr>100</gpxtpx:hr>
          </gpxtpx:TrackPointExtension>
        </extensions>
      </trkpt>
      <trkpt lat="43.10268" lon="1.36715">
        <ele>326.6</ele>
        <time>2023-03-05T13:55:41Z</time>
        <extensions>
          <gpxtpx:TrackPointExtension xmlns:gpxtpx="http://www.garmin.com/xmlschemas/TrackPointExtension/v1">
            <gpxtpx:hr>100</gpxtpx:hr>
          </gpxtpx:TrackPointExtension>
        </extensions>
      </trkpt>
      <trkpt lat="43.10269" lon="1.36718">
        <ele>326.2</ele>
        <time>2023-03-05T13:55:42Z</time>
        <extensions>
          <gpxtpx:TrackPointExtension xmlns:gpxtpx="http://www.garmin.com/xmlschemas/TrackPointExtension/v1">
            <gpxtpx:hr>100</gpxtpx:hr>
          </gpxtpx:TrackPointExtension>
        </extensions>
      </trkpt>
      <trkpt lat="43.10272" lon="1.36723">
        <ele>326.2</ele>
        <time>2023-03-05T13:55:45Z</time>
        <extensions>
          <gpxtpx:TrackPointExtension xmlns:gpxtpx="http://www.garmin.com/xmlschemas/TrackPointExtension/v1">
            <gpxtpx:hr>101</gpxtpx:hr>
          </gpxtpx:TrackPointExtension>
        </extensions>
      </trkpt>
      <trkpt lat="43.10273" lon="1.36724">
        <ele>325.6</ele>
        <time>2023-03-05T13:55:46Z</time>
        <extensions>
          <gpxtpx:TrackPointExtension xmlns:gpxtpx="http://www.garmin.com/xmlschemas/TrackPointExtension/v1">
            <gpxtpx:hr>101</gpxtpx:hr>
          </gpxtpx:TrackPointExtension>
        </extensions>
      </trkpt>
      <trkpt lat="43.10274" lon="1.36725">
        <ele>325.2</ele>
        <time>2023-03-05T13:55:47Z</time>
        <extensions>
          <gpxtpx:TrackPointExtension xmlns:gpxtpx="http://www.garmin.com/xmlschemas/TrackPointExtension/v1">
            <gpxtpx:hr>101</gpxtpx:hr>
          </gpxtpx:TrackPointExtension>
        </extensions>
      </trkpt>
      <trkpt lat="43.10275" lon="1.36727">
        <ele>324.8</ele>
        <time>2023-03-05T13:55:48Z</time>
        <extensions>
          <gpxtpx:TrackPointExtension xmlns:gpxtpx="http://www.garmin.com/xmlschemas/TrackPointExtension/v1">
            <gpxtpx:hr>101</gpxtpx:hr>
          </gpxtpx:TrackPointExtension>
        </extensions>
      </trkpt>
      <trkpt lat="43.10276" lon="1.36728">
        <ele>324.2</ele>
        <time>2023-03-05T13:55:49Z</time>
        <extensions>
          <gpxtpx:TrackPointExtension xmlns:gpxtpx="http://www.garmin.com/xmlschemas/TrackPointExtension/v1">
            <gpxtpx:hr>102</gpxtpx:hr>
          </gpxtpx:TrackPointExtension>
        </extensions>
      </trkpt>
      <trkpt lat="43.10276" lon="1.36729">
        <ele>323.8</ele>
        <time>2023-03-05T13:55:50Z</time>
        <extensions>
          <gpxtpx:TrackPointExtension xmlns:gpxtpx="http://www.garmin.com/xmlschemas/TrackPointExtension/v1">
            <gpxtpx:hr>102</gpxtpx:hr>
          </gpxtpx:TrackPointExtension>
        </extensions>
      </trkpt>
      <trkpt lat="43.10276" lon="1.3673">
        <ele>323.4</ele>
        <time>2023-03-05T13:55:51Z</time>
        <extensions>
          <gpxtpx:TrackPointExtension xmlns:gpxtpx="http://www.garmin.com/xmlschemas/TrackPointExtension/v1">
            <gpxtpx:hr>102</gpxtpx:hr>
          </gpxtpx:TrackPointExtension>
        </extensions>
      </trkpt>
      <trkpt lat="43.10277" lon="1.36732">
        <ele>322</ele>
        <time>2023-03-05T13:55:54Z</time>
        <extensions>
          <gpxtpx:TrackPointExtension xmlns:gpxtpx="http://www.garmin.com/xmlschemas/TrackPointExtension/v1">
            <gpxtpx:hr>103</gpxtpx:hr>
          </gpxtpx:TrackPointExtension>
        </extensions>
      </trkpt>
      <trkpt lat="43.10278" lon="1.36734">
        <ele>321.6</ele>
        <time>2023-03-05T13:55:55Z</time>
        <extensions>
          <gpxtpx:TrackPointExtension xmlns:gpxtpx="http://www.garmin.com/xmlschemas/TrackPointExtension/v1">
            <gpxtpx:hr>103</gpxtpx:hr>
          </gpxtpx:TrackPointExtension>
        </extensions>
      </trkpt>
      <trkpt lat="43.10279" lon="1.36736">
        <ele>321.6</ele>
        <time>2023-03-05T13:55:56Z</time>
        <extensions>
          <gpxtpx:TrackPointExtension xmlns:gpxtpx="http://www.garmin.com/xmlschemas/TrackPointExtension/v1">
            <gpxtpx:hr>105</gpxtpx:hr>
          </gpxtpx:TrackPointExtension>
        </extensions>
      </trkpt>
      <trkpt lat="43.10282" lon="1.36745">
        <ele>321.2</ele>
        <time>2023-03-05T13:55:59Z</time>
        <extensions>
          <gpxtpx:TrackPointExtension xmlns:gpxtpx="http://www.garmin.com/xmlschemas/TrackPointExtension/v1">
            <gpxtpx:hr>105</gpxtpx:hr>
          </gpxtpx:TrackPointExtension>
        </extensions>
      </trkpt>
      <trkpt lat="43.10283" lon="1.36747">
        <ele>320.2</ele>
        <time>2023-03-05T13:56:00Z</time>
        <extensions>
          <gpxtpx:TrackPointExtension xmlns:gpxtpx="http://www.garmin.com/xmlschemas/TrackPointExtension/v1">
            <gpxtpx:hr>105</gpxtpx:hr>
          </gpxtpx:TrackPointExtension>
        </extensions>
      </trkpt>
      <trkpt lat="43.10284" lon="1.36749">
        <ele>319.8</ele>
        <time>2023-03-05T13:56:01Z</time>
        <extensions>
          <gpxtpx:TrackPointExtension xmlns:gpxtpx="http://www.garmin.com/xmlschemas/TrackPointExtension/v1">
            <gpxtpx:hr>105</gpxtpx:hr>
          </gpxtpx:TrackPointExtension>
        </extensions>
      </trkpt>
      <trkpt lat="43.10285" lon="1.3675">
        <ele>319.2</ele>
        <time>2023-03-05T13:56:02Z</time>
        <extensions>
          <gpxtpx:TrackPointExtension xmlns:gpxtpx="http://www.garmin.com/xmlschemas/TrackPointExtension/v1">
            <gpxtpx:hr>105</gpxtpx:hr>
          </gpxtpx:TrackPointExtension>
        </extensions>
      </trkpt>
      <trkpt lat="43.10286" lon="1.36752">
        <ele>318.8</ele>
        <time>2023-03-05T13:56:03Z</time>
        <extensions>
          <gpxtpx:TrackPointExtension xmlns:gpxtpx="http://www.garmin.com/xmlschemas/TrackPointExtension/v1">
            <gpxtpx:hr>105</gpxtpx:hr>
          </gpxtpx:TrackPointExtension>
        </extensions>
      </trkpt>
      <trkpt lat="43.10286" lon="1.36753">
        <ele>318.2</ele>
        <time>2023-03-05T13:56:04Z</time>
        <extensions>
          <gpxtpx:TrackPointExtension xmlns:gpxtpx="http://www.garmin.com/xmlschemas/TrackPointExtension/v1">
            <gpxtpx:hr>105</gpxtpx:hr>
          </gpxtpx:TrackPointExtension>
        </extensions>
      </trkpt>
      <trkpt lat="43.10287" lon="1.36756">
        <ele>317.8</ele>
        <time>2023-03-05T13:56:05Z</time>
        <extensions>
          <gpxtpx:TrackPointExtension xmlns:gpxtpx="http://www.garmin.com/xmlschemas/TrackPointExtension/v1">
            <gpxtpx:hr>105</gpxtpx:hr>
          </gpxtpx:TrackPointExtension>
        </extensions>
      </trkpt>
      <trkpt lat="43.10287" lon="1.36757">
        <ele>317.2</ele>
        <time>2023-03-05T13:56:06Z</time>
        <extensions>
          <gpxtpx:TrackPointExtension xmlns:gpxtpx="http://www.garmin.com/xmlschemas/TrackPointExtension/v1">
            <gpxtpx:hr>105</gpxtpx:hr>
          </gpxtpx:TrackPointExtension>
        </extensions>
      </trkpt>
      <trkpt lat="43.10287" lon="1.3676">
        <ele>316.8</ele>
        <time>2023-03-05T13:56:07Z</time>
        <extensions>
          <gpxtpx:TrackPointExtension xmlns:gpxtpx="http://www.garmin.com/xmlschemas/TrackPointExtension/v1">
            <gpxtpx:hr>105</gpxtpx:hr>
          </gpxtpx:TrackPointExtension>
        </extensions>
      </trkpt>
      <trkpt lat="43.10288" lon="1.36761">
        <ele>316.4</ele>
        <time>2023-03-05T13:56:08Z</time>
        <extensions>
          <gpxtpx:TrackPointExtension xmlns:gpxtpx="http://www.garmin.com/xmlschemas/TrackPointExtension/v1">
            <gpxtpx:hr>105</gpxtpx:hr>
          </gpxtpx:TrackPointExtension>
        </extensions>
      </trkpt>
      <trkpt lat="43.10289" lon="1.36763">
        <ele>316</ele>
        <time>2023-03-05T13:56:09Z</time>
        <extensions>
          <gpxtpx:TrackPointExtension xmlns:gpxtpx="http://www.garmin.com/xmlschemas/TrackPointExtension/v1">
            <gpxtpx:hr>105</gpxtpx:hr>
          </gpxtpx:TrackPointExtension>
        </extensions>
      </trkpt>
      <trkpt lat="43.1029" lon="1.36765">
        <ele>315.6</ele>
        <time>2023-03-05T13:56:10Z</time>
        <extensions>
          <gpxtpx:TrackPointExtension xmlns:gpxtpx="http://www.garmin.com/xmlschemas/TrackPointExtension/v1">
            <gpxtpx:hr>105</gpxtpx:hr>
          </gpxtpx:TrackPointExtension>
        </extensions>
      </trkpt>
      <trkpt lat="43.1029" lon="1.36768">
        <ele>315</ele>
        <time>2023-03-05T13:56:11Z</time>
        <extensions>
          <gpxtpx:TrackPointExtension xmlns:gpxtpx="http://www.garmin.com/xmlschemas/TrackPointExtension/v1">
            <gpxtpx:hr>105</gpxtpx:hr>
          </gpxtpx:TrackPointExtension>
        </extensions>
      </trkpt>
      <trkpt lat="43.10292" lon="1.36771">
        <ele>314.4</ele>
        <time>2023-03-05T13:56:12Z</time>
        <extensions>
          <gpxtpx:TrackPointExtension xmlns:gpxtpx="http://www.garmin.com/xmlschemas/TrackPointExtension/v1">
            <gpxtpx:hr>105</gpxtpx:hr>
          </gpxtpx:TrackPointExtension>
        </extensions>
      </trkpt>
      <trkpt lat="43.10293" lon="1.36774">
        <ele>314</ele>
        <time>2023-03-05T13:56:13Z</time>
        <extensions>
          <gpxtpx:TrackPointExtension xmlns:gpxtpx="http://www.garmin.com/xmlschemas/TrackPointExtension/v1">
            <gpxtpx:hr>105</gpxtpx:hr>
          </gpxtpx:TrackPointExtension>
        </extensions>
      </trkpt>
      <trkpt lat="43.10294" lon="1.36776">
        <ele>313.4</ele>
        <time>2023-03-05T13:56:14Z</time>
        <extensions>
          <gpxtpx:TrackPointExtension xmlns:gpxtpx="http://www.garmin.com/xmlschemas/TrackPointExtension/v1">
            <gpxtpx:hr>105</gpxtpx:hr>
          </gpxtpx:TrackPointExtension>
        </extensions>
      </trkpt>
      <trkpt lat="43.10296" lon="1.3678">
        <ele>311.2</ele>
        <time>2023-03-05T13:56:18Z</time>
        <extensions>
          <gpxtpx:TrackPointExtension xmlns:gpxtpx="http://www.garmin.com/xmlschemas/TrackPointExtension/v1">
            <gpxtpx:hr>105</gpxtpx:hr>
          </gpxtpx:TrackPointExtension>
        </extensions>
      </trkpt>
      <trkpt lat="43.10297" lon="1.36782">
        <ele>310.8</ele>
        <time>2023-03-05T13:56:19Z</time>
        <extensions>
          <gpxtpx:TrackPointExtension xmlns:gpxtpx="http://www.garmin.com/xmlschemas/TrackPointExtension/v1">
            <gpxtpx:hr>105</gpxtpx:hr>
          </gpxtpx:TrackPointExtension>
        </extensions>
      </trkpt>
      <trkpt lat="43.10304" lon="1.36799">
        <ele>310.2</ele>
        <time>2023-03-05T13:56:23Z</time>
        <extensions>
          <gpxtpx:TrackPointExtension xmlns:gpxtpx="http://www.garmin.com/xmlschemas/TrackPointExtension/v1">
            <gpxtpx:hr>104</gpxtpx:hr>
          </gpxtpx:TrackPointExtension>
        </extensions>
      </trkpt>
      <trkpt lat="43.10305" lon="1.36802">
        <ele>309.8</ele>
        <time>2023-03-05T13:56:24Z</time>
        <extensions>
          <gpxtpx:TrackPointExtension xmlns:gpxtpx="http://www.garmin.com/xmlschemas/TrackPointExtension/v1">
            <gpxtpx:hr>103</gpxtpx:hr>
          </gpxtpx:TrackPointExtension>
        </extensions>
      </trkpt>
      <trkpt lat="43.10306" lon="1.36804">
        <ele>308.8</ele>
        <time>2023-03-05T13:56:25Z</time>
        <extensions>
          <gpxtpx:TrackPointExtension xmlns:gpxtpx="http://www.garmin.com/xmlschemas/TrackPointExtension/v1">
            <gpxtpx:hr>103</gpxtpx:hr>
          </gpxtpx:TrackPointExtension>
        </extensions>
      </trkpt>
      <trkpt lat="43.10307" lon="1.36807">
        <ele>308.4</ele>
        <time>2023-03-05T13:56:26Z</time>
        <extensions>
          <gpxtpx:TrackPointExtension xmlns:gpxtpx="http://www.garmin.com/xmlschemas/TrackPointExtension/v1">
            <gpxtpx:hr>103</gpxtpx:hr>
          </gpxtpx:TrackPointExtension>
        </extensions>
      </trkpt>
      <trkpt lat="43.10314" lon="1.36817">
        <ele>307.8</ele>
        <time>2023-03-05T13:56:28Z</time>
        <extensions>
          <gpxtpx:TrackPointExtension xmlns:gpxtpx="http://www.garmin.com/xmlschemas/TrackPointExtension/v1">
            <gpxtpx:hr>103</gpxtpx:hr>
          </gpxtpx:TrackPointExtension>
        </extensions>
      </trkpt>
      <trkpt lat="43.10318" lon="1.36822">
        <ele>307.4</ele>
        <time>2023-03-05T13:56:29Z</time>
        <extensions>
          <gpxtpx:TrackPointExtension xmlns:gpxtpx="http://www.garmin.com/xmlschemas/TrackPointExtension/v1">
            <gpxtpx:hr>104</gpxtpx:hr>
          </gpxtpx:TrackPointExtension>
        </extensions>
      </trkpt>
      <trkpt lat="43.10322" lon="1.36827">
        <ele>306.8</ele>
        <time>2023-03-05T13:56:30Z</time>
        <extensions>
          <gpxtpx:TrackPointExtension xmlns:gpxtpx="http://www.garmin.com/xmlschemas/TrackPointExtension/v1">
            <gpxtpx:hr>105</gpxtpx:hr>
          </gpxtpx:TrackPointExtension>
        </extensions>
      </trkpt>
      <trkpt lat="43.10326" lon="1.36832">
        <ele>306.4</ele>
        <time>2023-03-05T13:56:31Z</time>
        <extensions>
          <gpxtpx:TrackPointExtension xmlns:gpxtpx="http://www.garmin.com/xmlschemas/TrackPointExtension/v1">
            <gpxtpx:hr>106</gpxtpx:hr>
          </gpxtpx:TrackPointExtension>
        </extensions>
      </trkpt>
      <trkpt lat="43.10329" lon="1.36836">
        <ele>305.8</ele>
        <time>2023-03-05T13:56:32Z</time>
        <extensions>
          <gpxtpx:TrackPointExtension xmlns:gpxtpx="http://www.garmin.com/xmlschemas/TrackPointExtension/v1">
            <gpxtpx:hr>106</gpxtpx:hr>
          </gpxtpx:TrackPointExtension>
        </extensions>
      </trkpt>
      <trkpt lat="43.10332" lon="1.36841">
        <ele>305.2</ele>
        <time>2023-03-05T13:56:33Z</time>
        <extensions>
          <gpxtpx:TrackPointExtension xmlns:gpxtpx="http://www.garmin.com/xmlschemas/TrackPointExtension/v1">
            <gpxtpx:hr>106</gpxtpx:hr>
          </gpxtpx:TrackPointExtension>
        </extensions>
      </trkpt>
      <trkpt lat="43.10336" lon="1.36845">
        <ele>304.6</ele>
        <time>2023-03-05T13:56:34Z</time>
        <extensions>
          <gpxtpx:TrackPointExtension xmlns:gpxtpx="http://www.garmin.com/xmlschemas/TrackPointExtension/v1">
            <gpxtpx:hr>106</gpxtpx:hr>
          </gpxtpx:TrackPointExtension>
        </extensions>
      </trkpt>
      <trkpt lat="43.10339" lon="1.36848">
        <ele>303.8</ele>
        <time>2023-03-05T13:56:35Z</time>
        <extensions>
          <gpxtpx:TrackPointExtension xmlns:gpxtpx="http://www.garmin.com/xmlschemas/TrackPointExtension/v1">
            <gpxtpx:hr>106</gpxtpx:hr>
          </gpxtpx:TrackPointExtension>
        </extensions>
      </trkpt>
      <trkpt lat="43.10342" lon="1.36851">
        <ele>303.2</ele>
        <time>2023-03-05T13:56:36Z</time>
        <extensions>
          <gpxtpx:TrackPointExtension xmlns:gpxtpx="http://www.garmin.com/xmlschemas/TrackPointExtension/v1">
            <gpxtpx:hr>106</gpxtpx:hr>
          </gpxtpx:TrackPointExtension>
        </extensions>
      </trkpt>
      <trkpt lat="43.10344" lon="1.36854">
        <ele>302.6</ele>
        <time>2023-03-05T13:56:37Z</time>
        <extensions>
          <gpxtpx:TrackPointExtension xmlns:gpxtpx="http://www.garmin.com/xmlschemas/TrackPointExtension/v1">
            <gpxtpx:hr>106</gpxtpx:hr>
          </gpxtpx:TrackPointExtension>
        </extensions>
      </trkpt>
      <trkpt lat="43.10346" lon="1.36856">
        <ele>301.8</ele>
        <time>2023-03-05T13:56:38Z</time>
        <extensions>
          <gpxtpx:TrackPointExtension xmlns:gpxtpx="http://www.garmin.com/xmlschemas/TrackPointExtension/v1">
            <gpxtpx:hr>106</gpxtpx:hr>
          </gpxtpx:TrackPointExtension>
        </extensions>
      </trkpt>
      <trkpt lat="43.10349" lon="1.36859">
        <ele>301.2</ele>
        <time>2023-03-05T13:56:39Z</time>
        <extensions>
          <gpxtpx:TrackPointExtension xmlns:gpxtpx="http://www.garmin.com/xmlschemas/TrackPointExtension/v1">
            <gpxtpx:hr>106</gpxtpx:hr>
          </gpxtpx:TrackPointExtension>
        </extensions>
      </trkpt>
      <trkpt lat="43.10355" lon="1.36866">
        <ele>300.8</ele>
        <time>2023-03-05T13:56:41Z</time>
        <extensions>
          <gpxtpx:TrackPointExtension xmlns:gpxtpx="http://www.garmin.com/xmlschemas/TrackPointExtension/v1">
            <gpxtpx:hr>106</gpxtpx:hr>
          </gpxtpx:TrackPointExtension>
        </extensions>
      </trkpt>
      <trkpt lat="43.10358" lon="1.3687">
        <ele>300.2</ele>
        <time>2023-03-05T13:56:42Z</time>
        <extensions>
          <gpxtpx:TrackPointExtension xmlns:gpxtpx="http://www.garmin.com/xmlschemas/TrackPointExtension/v1">
            <gpxtpx:hr>106</gpxtpx:hr>
          </gpxtpx:TrackPointExtension>
        </extensions>
      </trkpt>
      <trkpt lat="43.1036" lon="1.36873">
        <ele>299.8</ele>
        <time>2023-03-05T13:56:43Z</time>
        <extensions>
          <gpxtpx:TrackPointExtension xmlns:gpxtpx="http://www.garmin.com/xmlschemas/TrackPointExtension/v1">
            <gpxtpx:hr>106</gpxtpx:hr>
          </gpxtpx:TrackPointExtension>
        </extensions>
      </trkpt>
      <trkpt lat="43.10362" lon="1.36876">
        <ele>299.2</ele>
        <time>2023-03-05T13:56:44Z</time>
        <extensions>
          <gpxtpx:TrackPointExtension xmlns:gpxtpx="http://www.garmin.com/xmlschemas/TrackPointExtension/v1">
            <gpxtpx:hr>106</gpxtpx:hr>
          </gpxtpx:TrackPointExtension>
        </extensions>
      </trkpt>
      <trkpt lat="43.10364" lon="1.36879">
        <ele>298.8</ele>
        <time>2023-03-05T13:56:45Z</time>
        <extensions>
          <gpxtpx:TrackPointExtension xmlns:gpxtpx="http://www.garmin.com/xmlschemas/TrackPointExtension/v1">
            <gpxtpx:hr>106</gpxtpx:hr>
          </gpxtpx:TrackPointExtension>
        </extensions>
      </trkpt>
      <trkpt lat="43.10376" lon="1.36889">
        <ele>298.8</ele>
        <time>2023-03-05T13:56:50Z</time>
        <extensions>
          <gpxtpx:TrackPointExtension xmlns:gpxtpx="http://www.garmin.com/xmlschemas/TrackPointExtension/v1">
            <gpxtpx:hr>107</gpxtpx:hr>
          </gpxtpx:TrackPointExtension>
        </extensions>
      </trkpt>
      <trkpt lat="43.10379" lon="1.36891">
        <ele>298.4</ele>
        <time>2023-03-05T13:56:51Z</time>
        <extensions>
          <gpxtpx:TrackPointExtension xmlns:gpxtpx="http://www.garmin.com/xmlschemas/TrackPointExtension/v1">
            <gpxtpx:hr>107</gpxtpx:hr>
          </gpxtpx:TrackPointExtension>
        </extensions>
      </trkpt>
      <trkpt lat="43.10382" lon="1.36892">
        <ele>298</ele>
        <time>2023-03-05T13:56:52Z</time>
        <extensions>
          <gpxtpx:TrackPointExtension xmlns:gpxtpx="http://www.garmin.com/xmlschemas/TrackPointExtension/v1">
            <gpxtpx:hr>107</gpxtpx:hr>
          </gpxtpx:TrackPointExtension>
        </extensions>
      </trkpt>
      <trkpt lat="43.10386" lon="1.36894">
        <ele>297.6</ele>
        <time>2023-03-05T13:56:53Z</time>
        <extensions>
          <gpxtpx:TrackPointExtension xmlns:gpxtpx="http://www.garmin.com/xmlschemas/TrackPointExtension/v1">
            <gpxtpx:hr>107</gpxtpx:hr>
          </gpxtpx:TrackPointExtension>
        </extensions>
      </trkpt>
      <trkpt lat="43.1039" lon="1.36895">
        <ele>297.2</ele>
        <time>2023-03-05T13:56:54Z</time>
        <extensions>
          <gpxtpx:TrackPointExtension xmlns:gpxtpx="http://www.garmin.com/xmlschemas/TrackPointExtension/v1">
            <gpxtpx:hr>107</gpxtpx:hr>
          </gpxtpx:TrackPointExtension>
        </extensions>
      </trkpt>
      <trkpt lat="43.10394" lon="1.36897">
        <ele>296.8</ele>
        <time>2023-03-05T13:56:55Z</time>
        <extensions>
          <gpxtpx:TrackPointExtension xmlns:gpxtpx="http://www.garmin.com/xmlschemas/TrackPointExtension/v1">
            <gpxtpx:hr>107</gpxtpx:hr>
          </gpxtpx:TrackPointExtension>
        </extensions>
      </trkpt>
      <trkpt lat="43.10398" lon="1.36899">
        <ele>296.8</ele>
        <time>2023-03-05T13:56:56Z</time>
        <extensions>
          <gpxtpx:TrackPointExtension xmlns:gpxtpx="http://www.garmin.com/xmlschemas/TrackPointExtension/v1">
            <gpxtpx:hr>107</gpxtpx:hr>
          </gpxtpx:TrackPointExtension>
        </extensions>
      </trkpt>
      <trkpt lat="43.10406" lon="1.36904">
        <ele>296.8</ele>
        <time>2023-03-05T13:56:58Z</time>
        <extensions>
          <gpxtpx:TrackPointExtension xmlns:gpxtpx="http://www.garmin.com/xmlschemas/TrackPointExtension/v1">
            <gpxtpx:hr>107</gpxtpx:hr>
          </gpxtpx:TrackPointExtension>
        </extensions>
      </trkpt>
      <trkpt lat="43.10413" lon="1.36909">
        <ele>296.8</ele>
        <time>2023-03-05T13:57:00Z</time>
        <extensions>
          <gpxtpx:TrackPointExtension xmlns:gpxtpx="http://www.garmin.com/xmlschemas/TrackPointExtension/v1">
            <gpxtpx:hr>107</gpxtpx:hr>
          </gpxtpx:TrackPointExtension>
        </extensions>
      </trkpt>
      <trkpt lat="43.10423" lon="1.36912">
        <ele>296.4</ele>
        <time>2023-03-05T13:57:03Z</time>
        <extensions>
          <gpxtpx:TrackPointExtension xmlns:gpxtpx="http://www.garmin.com/xmlschemas/TrackPointExtension/v1">
            <gpxtpx:hr>107</gpxtpx:hr>
          </gpxtpx:TrackPointExtension>
        </extensions>
      </trkpt>
      <trkpt lat="43.10425" lon="1.36913">
        <ele>296</ele>
        <time>2023-03-05T13:57:04Z</time>
        <extensions>
          <gpxtpx:TrackPointExtension xmlns:gpxtpx="http://www.garmin.com/xmlschemas/TrackPointExtension/v1">
            <gpxtpx:hr>107</gpxtpx:hr>
          </gpxtpx:TrackPointExtension>
        </extensions>
      </trkpt>
      <trkpt lat="43.10427" lon="1.36913">
        <ele>295.6</ele>
        <time>2023-03-05T13:57:05Z</time>
        <extensions>
          <gpxtpx:TrackPointExtension xmlns:gpxtpx="http://www.garmin.com/xmlschemas/TrackPointExtension/v1">
            <gpxtpx:hr>107</gpxtpx:hr>
          </gpxtpx:TrackPointExtension>
        </extensions>
      </trkpt>
      <trkpt lat="43.10429" lon="1.36915">
        <ele>295</ele>
        <time>2023-03-05T13:57:06Z</time>
        <extensions>
          <gpxtpx:TrackPointExtension xmlns:gpxtpx="http://www.garmin.com/xmlschemas/TrackPointExtension/v1">
            <gpxtpx:hr>107</gpxtpx:hr>
          </gpxtpx:TrackPointExtension>
        </extensions>
      </trkpt>
      <trkpt lat="43.10431" lon="1.36917">
        <ele>294.6</ele>
        <time>2023-03-05T13:57:07Z</time>
        <extensions>
          <gpxtpx:TrackPointExtension xmlns:gpxtpx="http://www.garmin.com/xmlschemas/TrackPointExtension/v1">
            <gpxtpx:hr>106</gpxtpx:hr>
          </gpxtpx:TrackPointExtension>
        </extensions>
      </trkpt>
      <trkpt lat="43.10431" lon="1.36923">
        <ele>294.2</ele>
        <time>2023-03-05T13:57:09Z</time>
        <extensions>
          <gpxtpx:TrackPointExtension xmlns:gpxtpx="http://www.garmin.com/xmlschemas/TrackPointExtension/v1">
            <gpxtpx:hr>106</gpxtpx:hr>
          </gpxtpx:TrackPointExtension>
        </extensions>
      </trkpt>
      <trkpt lat="43.10431" lon="1.36925">
        <ele>293.8</ele>
        <time>2023-03-05T13:57:10Z</time>
        <extensions>
          <gpxtpx:TrackPointExtension xmlns:gpxtpx="http://www.garmin.com/xmlschemas/TrackPointExtension/v1">
            <gpxtpx:hr>106</gpxtpx:hr>
          </gpxtpx:TrackPointExtension>
        </extensions>
      </trkpt>
      <trkpt lat="43.1043" lon="1.36928">
        <ele>293.4</ele>
        <time>2023-03-05T13:57:11Z</time>
        <extensions>
          <gpxtpx:TrackPointExtension xmlns:gpxtpx="http://www.garmin.com/xmlschemas/TrackPointExtension/v1">
            <gpxtpx:hr>106</gpxtpx:hr>
          </gpxtpx:TrackPointExtension>
        </extensions>
      </trkpt>
      <trkpt lat="43.10428" lon="1.36931">
        <ele>293</ele>
        <time>2023-03-05T13:57:12Z</time>
        <extensions>
          <gpxtpx:TrackPointExtension xmlns:gpxtpx="http://www.garmin.com/xmlschemas/TrackPointExtension/v1">
            <gpxtpx:hr>106</gpxtpx:hr>
          </gpxtpx:TrackPointExtension>
        </extensions>
      </trkpt>
      <trkpt lat="43.10427" lon="1.36935">
        <ele>292.6</ele>
        <time>2023-03-05T13:57:13Z</time>
        <extensions>
          <gpxtpx:TrackPointExtension xmlns:gpxtpx="http://www.garmin.com/xmlschemas/TrackPointExtension/v1">
            <gpxtpx:hr>106</gpxtpx:hr>
          </gpxtpx:TrackPointExtension>
        </extensions>
      </trkpt>
      <trkpt lat="43.10419" lon="1.36949">
        <ele>292.6</ele>
        <time>2023-03-05T13:57:18Z</time>
        <extensions>
          <gpxtpx:TrackPointExtension xmlns:gpxtpx="http://www.garmin.com/xmlschemas/TrackPointExtension/v1">
            <gpxtpx:hr>107</gpxtpx:hr>
          </gpxtpx:TrackPointExtension>
        </extensions>
      </trkpt>
      <trkpt lat="43.10413" lon="1.36965">
        <ele>292.6</ele>
        <time>2023-03-05T13:57:23Z</time>
        <extensions>
          <gpxtpx:TrackPointExtension xmlns:gpxtpx="http://www.garmin.com/xmlschemas/TrackPointExtension/v1">
            <gpxtpx:hr>107</gpxtpx:hr>
          </gpxtpx:TrackPointExtension>
        </extensions>
      </trkpt>
      <trkpt lat="43.10414" lon="1.36968">
        <ele>292.6</ele>
        <time>2023-03-05T13:57:24Z</time>
        <extensions>
          <gpxtpx:TrackPointExtension xmlns:gpxtpx="http://www.garmin.com/xmlschemas/TrackPointExtension/v1">
            <gpxtpx:hr>107</gpxtpx:hr>
          </gpxtpx:TrackPointExtension>
        </extensions>
      </trkpt>
      <trkpt lat="43.10418" lon="1.36972">
        <ele>292.6</ele>
        <time>2023-03-05T13:57:26Z</time>
        <extensions>
          <gpxtpx:TrackPointExtension xmlns:gpxtpx="http://www.garmin.com/xmlschemas/TrackPointExtension/v1">
            <gpxtpx:hr>100</gpxtpx:hr>
          </gpxtpx:TrackPointExtension>
        </extensions>
      </trkpt>
      <trkpt lat="43.1042" lon="1.36975">
        <ele>292.6</ele>
        <time>2023-03-05T13:57:27Z</time>
        <extensions>
          <gpxtpx:TrackPointExtension xmlns:gpxtpx="http://www.garmin.com/xmlschemas/TrackPointExtension/v1">
            <gpxtpx:hr>100</gpxtpx:hr>
          </gpxtpx:TrackPointExtension>
        </extensions>
      </trkpt>
      <trkpt lat="43.10424" lon="1.3698">
        <ele>292.6</ele>
        <time>2023-03-05T13:57:29Z</time>
        <extensions>
          <gpxtpx:TrackPointExtension xmlns:gpxtpx="http://www.garmin.com/xmlschemas/TrackPointExtension/v1">
            <gpxtpx:hr>100</gpxtpx:hr>
          </gpxtpx:TrackPointExtension>
        </extensions>
      </trkpt>
      <trkpt lat="43.10425" lon="1.36987">
        <ele>292.6</ele>
        <time>2023-03-05T13:57:31Z</time>
        <extensions>
          <gpxtpx:TrackPointExtension xmlns:gpxtpx="http://www.garmin.com/xmlschemas/TrackPointExtension/v1">
            <gpxtpx:hr>100</gpxtpx:hr>
          </gpxtpx:TrackPointExtension>
        </extensions>
      </trkpt>
      <trkpt lat="43.10424" lon="1.36991">
        <ele>292.6</ele>
        <time>2023-03-05T13:57:32Z</time>
        <extensions>
          <gpxtpx:TrackPointExtension xmlns:gpxtpx="http://www.garmin.com/xmlschemas/TrackPointExtension/v1">
            <gpxtpx:hr>100</gpxtpx:hr>
          </gpxtpx:TrackPointExtension>
        </extensions>
      </trkpt>
      <trkpt lat="43.10422" lon="1.36998">
        <ele>293</ele>
        <time>2023-03-05T13:57:34Z</time>
        <extensions>
          <gpxtpx:TrackPointExtension xmlns:gpxtpx="http://www.garmin.com/xmlschemas/TrackPointExtension/v1">
            <gpxtpx:hr>100</gpxtpx:hr>
          </gpxtpx:TrackPointExtension>
        </extensions>
      </trkpt>
      <trkpt lat="43.10421" lon="1.37002">
        <ele>293.4</ele>
        <time>2023-03-05T13:57:35Z</time>
        <extensions>
          <gpxtpx:TrackPointExtension xmlns:gpxtpx="http://www.garmin.com/xmlschemas/TrackPointExtension/v1">
            <gpxtpx:hr>100</gpxtpx:hr>
          </gpxtpx:TrackPointExtension>
        </extensions>
      </trkpt>
      <trkpt lat="43.1042" lon="1.37006">
        <ele>294</ele>
        <time>2023-03-05T13:57:36Z</time>
        <extensions>
          <gpxtpx:TrackPointExtension xmlns:gpxtpx="http://www.garmin.com/xmlschemas/TrackPointExtension/v1">
            <gpxtpx:hr>103</gpxtpx:hr>
          </gpxtpx:TrackPointExtension>
        </extensions>
      </trkpt>
      <trkpt lat="43.10419" lon="1.3701">
        <ele>294.4</ele>
        <time>2023-03-05T13:57:37Z</time>
        <extensions>
          <gpxtpx:TrackPointExtension xmlns:gpxtpx="http://www.garmin.com/xmlschemas/TrackPointExtension/v1">
            <gpxtpx:hr>106</gpxtpx:hr>
          </gpxtpx:TrackPointExtension>
        </extensions>
      </trkpt>
      <trkpt lat="43.10419" lon="1.37014">
        <ele>294.8</ele>
        <time>2023-03-05T13:57:38Z</time>
        <extensions>
          <gpxtpx:TrackPointExtension xmlns:gpxtpx="http://www.garmin.com/xmlschemas/TrackPointExtension/v1">
            <gpxtpx:hr>106</gpxtpx:hr>
          </gpxtpx:TrackPointExtension>
        </extensions>
      </trkpt>
      <trkpt lat="43.10417" lon="1.37018">
        <ele>295.2</ele>
        <time>2023-03-05T13:57:39Z</time>
        <extensions>
          <gpxtpx:TrackPointExtension xmlns:gpxtpx="http://www.garmin.com/xmlschemas/TrackPointExtension/v1">
            <gpxtpx:hr>106</gpxtpx:hr>
          </gpxtpx:TrackPointExtension>
        </extensions>
      </trkpt>
      <trkpt lat="43.10416" lon="1.37021">
        <ele>295.6</ele>
        <time>2023-03-05T13:57:40Z</time>
        <extensions>
          <gpxtpx:TrackPointExtension xmlns:gpxtpx="http://www.garmin.com/xmlschemas/TrackPointExtension/v1">
            <gpxtpx:hr>106</gpxtpx:hr>
          </gpxtpx:TrackPointExtension>
        </extensions>
      </trkpt>
      <trkpt lat="43.10415" lon="1.37025">
        <ele>296.2</ele>
        <time>2023-03-05T13:57:41Z</time>
        <extensions>
          <gpxtpx:TrackPointExtension xmlns:gpxtpx="http://www.garmin.com/xmlschemas/TrackPointExtension/v1">
            <gpxtpx:hr>107</gpxtpx:hr>
          </gpxtpx:TrackPointExtension>
        </extensions>
      </trkpt>
      <trkpt lat="43.10414" lon="1.37028">
        <ele>296.6</ele>
        <time>2023-03-05T13:57:42Z</time>
        <extensions>
          <gpxtpx:TrackPointExtension xmlns:gpxtpx="http://www.garmin.com/xmlschemas/TrackPointExtension/v1">
            <gpxtpx:hr>107</gpxtpx:hr>
          </gpxtpx:TrackPointExtension>
        </extensions>
      </trkpt>
      <trkpt lat="43.10413" lon="1.37032">
        <ele>297</ele>
        <time>2023-03-05T13:57:43Z</time>
        <extensions>
          <gpxtpx:TrackPointExtension xmlns:gpxtpx="http://www.garmin.com/xmlschemas/TrackPointExtension/v1">
            <gpxtpx:hr>108</gpxtpx:hr>
          </gpxtpx:TrackPointExtension>
        </extensions>
      </trkpt>
      <trkpt lat="43.1041" lon="1.37041">
        <ele>297</ele>
        <time>2023-03-05T13:57:45Z</time>
        <extensions>
          <gpxtpx:TrackPointExtension xmlns:gpxtpx="http://www.garmin.com/xmlschemas/TrackPointExtension/v1">
            <gpxtpx:hr>108</gpxtpx:hr>
          </gpxtpx:TrackPointExtension>
        </extensions>
      </trkpt>
      <trkpt lat="43.10405" lon="1.37052">
        <ele>297</ele>
        <time>2023-03-05T13:57:47Z</time>
        <extensions>
          <gpxtpx:TrackPointExtension xmlns:gpxtpx="http://www.garmin.com/xmlschemas/TrackPointExtension/v1">
            <gpxtpx:hr>108</gpxtpx:hr>
          </gpxtpx:TrackPointExtension>
        </extensions>
      </trkpt>
      <trkpt lat="43.10402" lon="1.37057">
        <ele>296.6</ele>
        <time>2023-03-05T13:57:48Z</time>
        <extensions>
          <gpxtpx:TrackPointExtension xmlns:gpxtpx="http://www.garmin.com/xmlschemas/TrackPointExtension/v1">
            <gpxtpx:hr>108</gpxtpx:hr>
          </gpxtpx:TrackPointExtension>
        </extensions>
      </trkpt>
      <trkpt lat="43.10399" lon="1.37063">
        <ele>296.2</ele>
        <time>2023-03-05T13:57:49Z</time>
        <extensions>
          <gpxtpx:TrackPointExtension xmlns:gpxtpx="http://www.garmin.com/xmlschemas/TrackPointExtension/v1">
            <gpxtpx:hr>109</gpxtpx:hr>
          </gpxtpx:TrackPointExtension>
        </extensions>
      </trkpt>
      <trkpt lat="43.10397" lon="1.37068">
        <ele>295.6</ele>
        <time>2023-03-05T13:57:50Z</time>
        <extensions>
          <gpxtpx:TrackPointExtension xmlns:gpxtpx="http://www.garmin.com/xmlschemas/TrackPointExtension/v1">
            <gpxtpx:hr>110</gpxtpx:hr>
          </gpxtpx:TrackPointExtension>
        </extensions>
      </trkpt>
      <trkpt lat="43.10396" lon="1.37075">
        <ele>295</ele>
        <time>2023-03-05T13:57:51Z</time>
        <extensions>
          <gpxtpx:TrackPointExtension xmlns:gpxtpx="http://www.garmin.com/xmlschemas/TrackPointExtension/v1">
            <gpxtpx:hr>110</gpxtpx:hr>
          </gpxtpx:TrackPointExtension>
        </extensions>
      </trkpt>
      <trkpt lat="43.10396" lon="1.37081">
        <ele>294.4</ele>
        <time>2023-03-05T13:57:52Z</time>
        <extensions>
          <gpxtpx:TrackPointExtension xmlns:gpxtpx="http://www.garmin.com/xmlschemas/TrackPointExtension/v1">
            <gpxtpx:hr>110</gpxtpx:hr>
          </gpxtpx:TrackPointExtension>
        </extensions>
      </trkpt>
      <trkpt lat="43.10398" lon="1.37088">
        <ele>293.8</ele>
        <time>2023-03-05T13:57:53Z</time>
        <extensions>
          <gpxtpx:TrackPointExtension xmlns:gpxtpx="http://www.garmin.com/xmlschemas/TrackPointExtension/v1">
            <gpxtpx:hr>110</gpxtpx:hr>
          </gpxtpx:TrackPointExtension>
        </extensions>
      </trkpt>
      <trkpt lat="43.104" lon="1.37094">
        <ele>293</ele>
        <time>2023-03-05T13:57:54Z</time>
        <extensions>
          <gpxtpx:TrackPointExtension xmlns:gpxtpx="http://www.garmin.com/xmlschemas/TrackPointExtension/v1">
            <gpxtpx:hr>110</gpxtpx:hr>
          </gpxtpx:TrackPointExtension>
        </extensions>
      </trkpt>
      <trkpt lat="43.10402" lon="1.371">
        <ele>292.4</ele>
        <time>2023-03-05T13:57:55Z</time>
        <extensions>
          <gpxtpx:TrackPointExtension xmlns:gpxtpx="http://www.garmin.com/xmlschemas/TrackPointExtension/v1">
            <gpxtpx:hr>110</gpxtpx:hr>
          </gpxtpx:TrackPointExtension>
        </extensions>
      </trkpt>
      <trkpt lat="43.10405" lon="1.37104">
        <ele>291.6</ele>
        <time>2023-03-05T13:57:56Z</time>
        <extensions>
          <gpxtpx:TrackPointExtension xmlns:gpxtpx="http://www.garmin.com/xmlschemas/TrackPointExtension/v1">
            <gpxtpx:hr>110</gpxtpx:hr>
          </gpxtpx:TrackPointExtension>
        </extensions>
      </trkpt>
      <trkpt lat="43.10408" lon="1.37108">
        <ele>290.6</ele>
        <time>2023-03-05T13:57:57Z</time>
        <extensions>
          <gpxtpx:TrackPointExtension xmlns:gpxtpx="http://www.garmin.com/xmlschemas/TrackPointExtension/v1">
            <gpxtpx:hr>110</gpxtpx:hr>
          </gpxtpx:TrackPointExtension>
        </extensions>
      </trkpt>
      <trkpt lat="43.10412" lon="1.37111">
        <ele>289.8</ele>
        <time>2023-03-05T13:57:58Z</time>
        <extensions>
          <gpxtpx:TrackPointExtension xmlns:gpxtpx="http://www.garmin.com/xmlschemas/TrackPointExtension/v1">
            <gpxtpx:hr>110</gpxtpx:hr>
          </gpxtpx:TrackPointExtension>
        </extensions>
      </trkpt>
      <trkpt lat="43.10415" lon="1.37114">
        <ele>288.8</ele>
        <time>2023-03-05T13:57:59Z</time>
        <extensions>
          <gpxtpx:TrackPointExtension xmlns:gpxtpx="http://www.garmin.com/xmlschemas/TrackPointExtension/v1">
            <gpxtpx:hr>111</gpxtpx:hr>
          </gpxtpx:TrackPointExtension>
        </extensions>
      </trkpt>
      <trkpt lat="43.10417" lon="1.37116">
        <ele>288</ele>
        <time>2023-03-05T13:58:00Z</time>
        <extensions>
          <gpxtpx:TrackPointExtension xmlns:gpxtpx="http://www.garmin.com/xmlschemas/TrackPointExtension/v1">
            <gpxtpx:hr>111</gpxtpx:hr>
          </gpxtpx:TrackPointExtension>
        </extensions>
      </trkpt>
      <trkpt lat="43.10418" lon="1.37118">
        <ele>287.2</ele>
        <time>2023-03-05T13:58:01Z</time>
        <extensions>
          <gpxtpx:TrackPointExtension xmlns:gpxtpx="http://www.garmin.com/xmlschemas/TrackPointExtension/v1">
            <gpxtpx:hr>111</gpxtpx:hr>
          </gpxtpx:TrackPointExtension>
        </extensions>
      </trkpt>
      <trkpt lat="43.10419" lon="1.37119">
        <ele>286.4</ele>
        <time>2023-03-05T13:58:02Z</time>
        <extensions>
          <gpxtpx:TrackPointExtension xmlns:gpxtpx="http://www.garmin.com/xmlschemas/TrackPointExtension/v1">
            <gpxtpx:hr>111</gpxtpx:hr>
          </gpxtpx:TrackPointExtension>
        </extensions>
      </trkpt>
      <trkpt lat="43.10421" lon="1.37119">
        <ele>285.6</ele>
        <time>2023-03-05T13:58:03Z</time>
        <extensions>
          <gpxtpx:TrackPointExtension xmlns:gpxtpx="http://www.garmin.com/xmlschemas/TrackPointExtension/v1">
            <gpxtpx:hr>109</gpxtpx:hr>
          </gpxtpx:TrackPointExtension>
        </extensions>
      </trkpt>
      <trkpt lat="43.10422" lon="1.37119">
        <ele>284.8</ele>
        <time>2023-03-05T13:58:04Z</time>
        <extensions>
          <gpxtpx:TrackPointExtension xmlns:gpxtpx="http://www.garmin.com/xmlschemas/TrackPointExtension/v1">
            <gpxtpx:hr>108</gpxtpx:hr>
          </gpxtpx:TrackPointExtension>
        </extensions>
      </trkpt>
      <trkpt lat="43.10425" lon="1.37118">
        <ele>284.8</ele>
        <time>2023-03-05T13:58:05Z</time>
        <extensions>
          <gpxtpx:TrackPointExtension xmlns:gpxtpx="http://www.garmin.com/xmlschemas/TrackPointExtension/v1">
            <gpxtpx:hr>108</gpxtpx:hr>
          </gpxtpx:TrackPointExtension>
        </extensions>
      </trkpt>
      <trkpt lat="43.10427" lon="1.37117">
        <ele>284.8</ele>
        <time>2023-03-05T13:58:06Z</time>
        <extensions>
          <gpxtpx:TrackPointExtension xmlns:gpxtpx="http://www.garmin.com/xmlschemas/TrackPointExtension/v1">
            <gpxtpx:hr>108</gpxtpx:hr>
          </gpxtpx:TrackPointExtension>
        </extensions>
      </trkpt>
      <trkpt lat="43.10435" lon="1.37113">
        <ele>284.8</ele>
        <time>2023-03-05T13:58:09Z</time>
        <extensions>
          <gpxtpx:TrackPointExtension xmlns:gpxtpx="http://www.garmin.com/xmlschemas/TrackPointExtension/v1">
            <gpxtpx:hr>105</gpxtpx:hr>
          </gpxtpx:TrackPointExtension>
        </extensions>
      </trkpt>
      <trkpt lat="43.10437" lon="1.37113">
        <ele>284.4</ele>
        <time>2023-03-05T13:58:10Z</time>
        <extensions>
          <gpxtpx:TrackPointExtension xmlns:gpxtpx="http://www.garmin.com/xmlschemas/TrackPointExtension/v1">
            <gpxtpx:hr>105</gpxtpx:hr>
          </gpxtpx:TrackPointExtension>
        </extensions>
      </trkpt>
      <trkpt lat="43.10438" lon="1.37112">
        <ele>284</ele>
        <time>2023-03-05T13:58:11Z</time>
        <extensions>
          <gpxtpx:TrackPointExtension xmlns:gpxtpx="http://www.garmin.com/xmlschemas/TrackPointExtension/v1">
            <gpxtpx:hr>105</gpxtpx:hr>
          </gpxtpx:TrackPointExtension>
        </extensions>
      </trkpt>
      <trkpt lat="43.10438" lon="1.37112">
        <ele>283.6</ele>
        <time>2023-03-05T13:58:12Z</time>
        <extensions>
          <gpxtpx:TrackPointExtension xmlns:gpxtpx="http://www.garmin.com/xmlschemas/TrackPointExtension/v1">
            <gpxtpx:hr>105</gpxtpx:hr>
          </gpxtpx:TrackPointExtension>
        </extensions>
      </trkpt>
      <trkpt lat="43.10439" lon="1.37114">
        <ele>282.8</ele>
        <time>2023-03-05T13:58:22Z</time>
        <extensions>
          <gpxtpx:TrackPointExtension xmlns:gpxtpx="http://www.garmin.com/xmlschemas/TrackPointExtension/v1">
            <gpxtpx:hr>107</gpxtpx:hr>
          </gpxtpx:TrackPointExtension>
        </extensions>
      </trkpt>
      <trkpt lat="43.1044" lon="1.37118">
        <ele>282.8</ele>
        <time>2023-03-05T13:58:24Z</time>
        <extensions>
          <gpxtpx:TrackPointExtension xmlns:gpxtpx="http://www.garmin.com/xmlschemas/TrackPointExtension/v1">
            <gpxtpx:hr>99</gpxtpx:hr>
          </gpxtpx:TrackPointExtension>
        </extensions>
      </trkpt>
      <trkpt lat="43.10441" lon="1.37119">
        <ele>282.8</ele>
        <time>2023-03-05T13:58:25Z</time>
        <extensions>
          <gpxtpx:TrackPointExtension xmlns:gpxtpx="http://www.garmin.com/xmlschemas/TrackPointExtension/v1">
            <gpxtpx:hr>99</gpxtpx:hr>
          </gpxtpx:TrackPointExtension>
        </extensions>
      </trkpt>
      <trkpt lat="43.10443" lon="1.37122">
        <ele>282.4</ele>
        <time>2023-03-05T13:58:27Z</time>
        <extensions>
          <gpxtpx:TrackPointExtension xmlns:gpxtpx="http://www.garmin.com/xmlschemas/TrackPointExtension/v1">
            <gpxtpx:hr>99</gpxtpx:hr>
          </gpxtpx:TrackPointExtension>
        </extensions>
      </trkpt>
      <trkpt lat="43.10443" lon="1.37122">
        <ele>281.6</ele>
        <time>2023-03-05T13:58:28Z</time>
        <extensions>
          <gpxtpx:TrackPointExtension xmlns:gpxtpx="http://www.garmin.com/xmlschemas/TrackPointExtension/v1">
            <gpxtpx:hr>99</gpxtpx:hr>
          </gpxtpx:TrackPointExtension>
        </extensions>
      </trkpt>
      <trkpt lat="43.10445" lon="1.37123">
        <ele>280.8</ele>
        <time>2023-03-05T13:58:35Z</time>
        <extensions>
          <gpxtpx:TrackPointExtension xmlns:gpxtpx="http://www.garmin.com/xmlschemas/TrackPointExtension/v1">
            <gpxtpx:hr>104</gpxtpx:hr>
          </gpxtpx:TrackPointExtension>
        </extensions>
      </trkpt>
      <trkpt lat="43.10447" lon="1.37125">
        <ele>280.8</ele>
        <time>2023-03-05T13:58:36Z</time>
        <extensions>
          <gpxtpx:TrackPointExtension xmlns:gpxtpx="http://www.garmin.com/xmlschemas/TrackPointExtension/v1">
            <gpxtpx:hr>104</gpxtpx:hr>
          </gpxtpx:TrackPointExtension>
        </extensions>
      </trkpt>
      <trkpt lat="43.10451" lon="1.37128">
        <ele>280.2</ele>
        <time>2023-03-05T13:58:38Z</time>
        <extensions>
          <gpxtpx:TrackPointExtension xmlns:gpxtpx="http://www.garmin.com/xmlschemas/TrackPointExtension/v1">
            <gpxtpx:hr>104</gpxtpx:hr>
          </gpxtpx:TrackPointExtension>
        </extensions>
      </trkpt>
      <trkpt lat="43.10454" lon="1.37129">
        <ele>279.8</ele>
        <time>2023-03-05T13:58:39Z</time>
        <extensions>
          <gpxtpx:TrackPointExtension xmlns:gpxtpx="http://www.garmin.com/xmlschemas/TrackPointExtension/v1">
            <gpxtpx:hr>104</gpxtpx:hr>
          </gpxtpx:TrackPointExtension>
        </extensions>
      </trkpt>
      <trkpt lat="43.10456" lon="1.37131">
        <ele>279.4</ele>
        <time>2023-03-05T13:58:40Z</time>
        <extensions>
          <gpxtpx:TrackPointExtension xmlns:gpxtpx="http://www.garmin.com/xmlschemas/TrackPointExtension/v1">
            <gpxtpx:hr>104</gpxtpx:hr>
          </gpxtpx:TrackPointExtension>
        </extensions>
      </trkpt>
      <trkpt lat="43.10458" lon="1.37133">
        <ele>279</ele>
        <time>2023-03-05T13:58:41Z</time>
        <extensions>
          <gpxtpx:TrackPointExtension xmlns:gpxtpx="http://www.garmin.com/xmlschemas/TrackPointExtension/v1">
            <gpxtpx:hr>103</gpxtpx:hr>
          </gpxtpx:TrackPointExtension>
        </extensions>
      </trkpt>
      <trkpt lat="43.10461" lon="1.37135">
        <ele>278.4</ele>
        <time>2023-03-05T13:58:42Z</time>
        <extensions>
          <gpxtpx:TrackPointExtension xmlns:gpxtpx="http://www.garmin.com/xmlschemas/TrackPointExtension/v1">
            <gpxtpx:hr>103</gpxtpx:hr>
          </gpxtpx:TrackPointExtension>
        </extensions>
      </trkpt>
      <trkpt lat="43.10464" lon="1.37136">
        <ele>277.8</ele>
        <time>2023-03-05T13:58:43Z</time>
        <extensions>
          <gpxtpx:TrackPointExtension xmlns:gpxtpx="http://www.garmin.com/xmlschemas/TrackPointExtension/v1">
            <gpxtpx:hr>103</gpxtpx:hr>
          </gpxtpx:TrackPointExtension>
        </extensions>
      </trkpt>
      <trkpt lat="43.10467" lon="1.37138">
        <ele>277.4</ele>
        <time>2023-03-05T13:58:44Z</time>
        <extensions>
          <gpxtpx:TrackPointExtension xmlns:gpxtpx="http://www.garmin.com/xmlschemas/TrackPointExtension/v1">
            <gpxtpx:hr>103</gpxtpx:hr>
          </gpxtpx:TrackPointExtension>
        </extensions>
      </trkpt>
      <trkpt lat="43.1047" lon="1.3714">
        <ele>276.8</ele>
        <time>2023-03-05T13:58:45Z</time>
        <extensions>
          <gpxtpx:TrackPointExtension xmlns:gpxtpx="http://www.garmin.com/xmlschemas/TrackPointExtension/v1">
            <gpxtpx:hr>102</gpxtpx:hr>
          </gpxtpx:TrackPointExtension>
        </extensions>
      </trkpt>
      <trkpt lat="43.10474" lon="1.37141">
        <ele>276.2</ele>
        <time>2023-03-05T13:58:46Z</time>
        <extensions>
          <gpxtpx:TrackPointExtension xmlns:gpxtpx="http://www.garmin.com/xmlschemas/TrackPointExtension/v1">
            <gpxtpx:hr>102</gpxtpx:hr>
          </gpxtpx:TrackPointExtension>
        </extensions>
      </trkpt>
      <trkpt lat="43.10477" lon="1.37143">
        <ele>275.8</ele>
        <time>2023-03-05T13:58:47Z</time>
        <extensions>
          <gpxtpx:TrackPointExtension xmlns:gpxtpx="http://www.garmin.com/xmlschemas/TrackPointExtension/v1">
            <gpxtpx:hr>102</gpxtpx:hr>
          </gpxtpx:TrackPointExtension>
        </extensions>
      </trkpt>
      <trkpt lat="43.10481" lon="1.37144">
        <ele>275.4</ele>
        <time>2023-03-05T13:58:48Z</time>
        <extensions>
          <gpxtpx:TrackPointExtension xmlns:gpxtpx="http://www.garmin.com/xmlschemas/TrackPointExtension/v1">
            <gpxtpx:hr>102</gpxtpx:hr>
          </gpxtpx:TrackPointExtension>
        </extensions>
      </trkpt>
      <trkpt lat="43.10485" lon="1.37146">
        <ele>275</ele>
        <time>2023-03-05T13:58:49Z</time>
        <extensions>
          <gpxtpx:TrackPointExtension xmlns:gpxtpx="http://www.garmin.com/xmlschemas/TrackPointExtension/v1">
            <gpxtpx:hr>102</gpxtpx:hr>
          </gpxtpx:TrackPointExtension>
        </extensions>
      </trkpt>
      <trkpt lat="43.10488" lon="1.37148">
        <ele>274.6</ele>
        <time>2023-03-05T13:58:50Z</time>
        <extensions>
          <gpxtpx:TrackPointExtension xmlns:gpxtpx="http://www.garmin.com/xmlschemas/TrackPointExtension/v1">
            <gpxtpx:hr>102</gpxtpx:hr>
          </gpxtpx:TrackPointExtension>
        </extensions>
      </trkpt>
      <trkpt lat="43.10492" lon="1.37149">
        <ele>274</ele>
        <time>2023-03-05T13:58:51Z</time>
        <extensions>
          <gpxtpx:TrackPointExtension xmlns:gpxtpx="http://www.garmin.com/xmlschemas/TrackPointExtension/v1">
            <gpxtpx:hr>102</gpxtpx:hr>
          </gpxtpx:TrackPointExtension>
        </extensions>
      </trkpt>
      <trkpt lat="43.10496" lon="1.37151">
        <ele>274</ele>
        <time>2023-03-05T13:58:52Z</time>
        <extensions>
          <gpxtpx:TrackPointExtension xmlns:gpxtpx="http://www.garmin.com/xmlschemas/TrackPointExtension/v1">
            <gpxtpx:hr>102</gpxtpx:hr>
          </gpxtpx:TrackPointExtension>
        </extensions>
      </trkpt>
      <trkpt lat="43.10506" lon="1.37154">
        <ele>274</ele>
        <time>2023-03-05T13:58:55Z</time>
        <extensions>
          <gpxtpx:TrackPointExtension xmlns:gpxtpx="http://www.garmin.com/xmlschemas/TrackPointExtension/v1">
            <gpxtpx:hr>104</gpxtpx:hr>
          </gpxtpx:TrackPointExtension>
        </extensions>
      </trkpt>
      <trkpt lat="43.10512" lon="1.37157">
        <ele>274</ele>
        <time>2023-03-05T13:58:57Z</time>
        <extensions>
          <gpxtpx:TrackPointExtension xmlns:gpxtpx="http://www.garmin.com/xmlschemas/TrackPointExtension/v1">
            <gpxtpx:hr>107</gpxtpx:hr>
          </gpxtpx:TrackPointExtension>
        </extensions>
      </trkpt>
      <trkpt lat="43.10522" lon="1.37159">
        <ele>274</ele>
        <time>2023-03-05T13:59:01Z</time>
        <extensions>
          <gpxtpx:TrackPointExtension xmlns:gpxtpx="http://www.garmin.com/xmlschemas/TrackPointExtension/v1">
            <gpxtpx:hr>108</gpxtpx:hr>
          </gpxtpx:TrackPointExtension>
        </extensions>
      </trkpt>
      <trkpt lat="43.10539" lon="1.37163">
        <ele>274</ele>
        <time>2023-03-05T13:59:09Z</time>
        <extensions>
          <gpxtpx:TrackPointExtension xmlns:gpxtpx="http://www.garmin.com/xmlschemas/TrackPointExtension/v1">
            <gpxtpx:hr>108</gpxtpx:hr>
          </gpxtpx:TrackPointExtension>
        </extensions>
      </trkpt>
      <trkpt lat="43.10547" lon="1.37163">
        <ele>274</ele>
        <time>2023-03-05T13:59:13Z</time>
        <extensions>
          <gpxtpx:TrackPointExtension xmlns:gpxtpx="http://www.garmin.com/xmlschemas/TrackPointExtension/v1">
            <gpxtpx:hr>107</gpxtpx:hr>
          </gpxtpx:TrackPointExtension>
        </extensions>
      </trkpt>
      <trkpt lat="43.10548" lon="1.37159">
        <ele>274</ele>
        <time>2023-03-05T13:59:15Z</time>
        <extensions>
          <gpxtpx:TrackPointExtension xmlns:gpxtpx="http://www.garmin.com/xmlschemas/TrackPointExtension/v1">
            <gpxtpx:hr>106</gpxtpx:hr>
          </gpxtpx:TrackPointExtension>
        </extensions>
      </trkpt>
      <trkpt lat="43.10548" lon="1.37154">
        <ele>274</ele>
        <time>2023-03-05T13:59:17Z</time>
        <extensions>
          <gpxtpx:TrackPointExtension xmlns:gpxtpx="http://www.garmin.com/xmlschemas/TrackPointExtension/v1">
            <gpxtpx:hr>106</gpxtpx:hr>
          </gpxtpx:TrackPointExtension>
        </extensions>
      </trkpt>
      <trkpt lat="43.1055" lon="1.37142">
        <ele>274</ele>
        <time>2023-03-05T13:59:21Z</time>
        <extensions>
          <gpxtpx:TrackPointExtension xmlns:gpxtpx="http://www.garmin.com/xmlschemas/TrackPointExtension/v1">
            <gpxtpx:hr>106</gpxtpx:hr>
          </gpxtpx:TrackPointExtension>
        </extensions>
      </trkpt>
      <trkpt lat="43.10554" lon="1.37136">
        <ele>273.6</ele>
        <time>2023-03-05T13:59:24Z</time>
        <extensions>
          <gpxtpx:TrackPointExtension xmlns:gpxtpx="http://www.garmin.com/xmlschemas/TrackPointExtension/v1">
            <gpxtpx:hr>106</gpxtpx:hr>
          </gpxtpx:TrackPointExtension>
        </extensions>
      </trkpt>
      <trkpt lat="43.10554" lon="1.37133">
        <ele>273.2</ele>
        <time>2023-03-05T13:59:25Z</time>
        <extensions>
          <gpxtpx:TrackPointExtension xmlns:gpxtpx="http://www.garmin.com/xmlschemas/TrackPointExtension/v1">
            <gpxtpx:hr>106</gpxtpx:hr>
          </gpxtpx:TrackPointExtension>
        </extensions>
      </trkpt>
      <trkpt lat="43.10553" lon="1.3713">
        <ele>272.8</ele>
        <time>2023-03-05T13:59:26Z</time>
        <extensions>
          <gpxtpx:TrackPointExtension xmlns:gpxtpx="http://www.garmin.com/xmlschemas/TrackPointExtension/v1">
            <gpxtpx:hr>106</gpxtpx:hr>
          </gpxtpx:TrackPointExtension>
        </extensions>
      </trkpt>
      <trkpt lat="43.10553" lon="1.37127">
        <ele>272.4</ele>
        <time>2023-03-05T13:59:27Z</time>
        <extensions>
          <gpxtpx:TrackPointExtension xmlns:gpxtpx="http://www.garmin.com/xmlschemas/TrackPointExtension/v1">
            <gpxtpx:hr>106</gpxtpx:hr>
          </gpxtpx:TrackPointExtension>
        </extensions>
      </trkpt>
      <trkpt lat="43.10552" lon="1.37123">
        <ele>272</ele>
        <time>2023-03-05T13:59:28Z</time>
        <extensions>
          <gpxtpx:TrackPointExtension xmlns:gpxtpx="http://www.garmin.com/xmlschemas/TrackPointExtension/v1">
            <gpxtpx:hr>106</gpxtpx:hr>
          </gpxtpx:TrackPointExtension>
        </extensions>
      </trkpt>
      <trkpt lat="43.10551" lon="1.37105">
        <ele>272</ele>
        <time>2023-03-05T13:59:34Z</time>
        <extensions>
          <gpxtpx:TrackPointExtension xmlns:gpxtpx="http://www.garmin.com/xmlschemas/TrackPointExtension/v1">
            <gpxtpx:hr>106</gpxtpx:hr>
          </gpxtpx:TrackPointExtension>
        </extensions>
      </trkpt>
      <trkpt lat="43.10551" lon="1.37101">
        <ele>272</ele>
        <time>2023-03-05T13:59:35Z</time>
        <extensions>
          <gpxtpx:TrackPointExtension xmlns:gpxtpx="http://www.garmin.com/xmlschemas/TrackPointExtension/v1">
            <gpxtpx:hr>106</gpxtpx:hr>
          </gpxtpx:TrackPointExtension>
        </extensions>
      </trkpt>
      <trkpt lat="43.10551" lon="1.37078">
        <ele>272</ele>
        <time>2023-03-05T13:59:41Z</time>
        <extensions>
          <gpxtpx:TrackPointExtension xmlns:gpxtpx="http://www.garmin.com/xmlschemas/TrackPointExtension/v1">
            <gpxtpx:hr>106</gpxtpx:hr>
          </gpxtpx:TrackPointExtension>
        </extensions>
      </trkpt>
      <trkpt lat="43.10551" lon="1.37052">
        <ele>272</ele>
        <time>2023-03-05T13:59:48Z</time>
        <extensions>
          <gpxtpx:TrackPointExtension xmlns:gpxtpx="http://www.garmin.com/xmlschemas/TrackPointExtension/v1">
            <gpxtpx:hr>105</gpxtpx:hr>
          </gpxtpx:TrackPointExtension>
        </extensions>
      </trkpt>
      <trkpt lat="43.10554" lon="1.3704">
        <ele>272</ele>
        <time>2023-03-05T13:59:53Z</time>
        <extensions>
          <gpxtpx:TrackPointExtension xmlns:gpxtpx="http://www.garmin.com/xmlschemas/TrackPointExtension/v1">
            <gpxtpx:hr>103</gpxtpx:hr>
          </gpxtpx:TrackPointExtension>
        </extensions>
      </trkpt>
      <trkpt lat="43.10556" lon="1.37038">
        <ele>272</ele>
        <time>2023-03-05T13:59:56Z</time>
        <extensions>
          <gpxtpx:TrackPointExtension xmlns:gpxtpx="http://www.garmin.com/xmlschemas/TrackPointExtension/v1">
            <gpxtpx:hr>103</gpxtpx:hr>
          </gpxtpx:TrackPointExtension>
        </extensions>
      </trkpt>
      <trkpt lat="43.10557" lon="1.37035">
        <ele>272</ele>
        <time>2023-03-05T14:00:03Z</time>
        <extensions>
          <gpxtpx:TrackPointExtension xmlns:gpxtpx="http://www.garmin.com/xmlschemas/TrackPointExtension/v1">
            <gpxtpx:hr>104</gpxtpx:hr>
          </gpxtpx:TrackPointExtension>
        </extensions>
      </trkpt>
      <trkpt lat="43.10554" lon="1.37024">
        <ele>272</ele>
        <time>2023-03-05T14:00:07Z</time>
        <extensions>
          <gpxtpx:TrackPointExtension xmlns:gpxtpx="http://www.garmin.com/xmlschemas/TrackPointExtension/v1">
            <gpxtpx:hr>104</gpxtpx:hr>
          </gpxtpx:TrackPointExtension>
        </extensions>
      </trkpt>
      <trkpt lat="43.10555" lon="1.37011">
        <ele>272</ele>
        <time>2023-03-05T14:00:12Z</time>
        <extensions>
          <gpxtpx:TrackPointExtension xmlns:gpxtpx="http://www.garmin.com/xmlschemas/TrackPointExtension/v1">
            <gpxtpx:hr>104</gpxtpx:hr>
          </gpxtpx:TrackPointExtension>
        </extensions>
      </trkpt>
      <trkpt lat="43.10557" lon="1.37009">
        <ele>272.4</ele>
        <time>2023-03-05T14:00:13Z</time>
        <extensions>
          <gpxtpx:TrackPointExtension xmlns:gpxtpx="http://www.garmin.com/xmlschemas/TrackPointExtension/v1">
            <gpxtpx:hr>104</gpxtpx:hr>
          </gpxtpx:TrackPointExtension>
        </extensions>
      </trkpt>
      <trkpt lat="43.10559" lon="1.37007">
        <ele>272.8</ele>
        <time>2023-03-05T14:00:14Z</time>
        <extensions>
          <gpxtpx:TrackPointExtension xmlns:gpxtpx="http://www.garmin.com/xmlschemas/TrackPointExtension/v1">
            <gpxtpx:hr>104</gpxtpx:hr>
          </gpxtpx:TrackPointExtension>
        </extensions>
      </trkpt>
      <trkpt lat="43.10561" lon="1.37005">
        <ele>273.2</ele>
        <time>2023-03-05T14:00:15Z</time>
        <extensions>
          <gpxtpx:TrackPointExtension xmlns:gpxtpx="http://www.garmin.com/xmlschemas/TrackPointExtension/v1">
            <gpxtpx:hr>104</gpxtpx:hr>
          </gpxtpx:TrackPointExtension>
        </extensions>
      </trkpt>
      <trkpt lat="43.10563" lon="1.37002">
        <ele>273.6</ele>
        <time>2023-03-05T14:00:16Z</time>
        <extensions>
          <gpxtpx:TrackPointExtension xmlns:gpxtpx="http://www.garmin.com/xmlschemas/TrackPointExtension/v1">
            <gpxtpx:hr>104</gpxtpx:hr>
          </gpxtpx:TrackPointExtension>
        </extensions>
      </trkpt>
      <trkpt lat="43.10565" lon="1.36999">
        <ele>274</ele>
        <time>2023-03-05T14:00:17Z</time>
        <extensions>
          <gpxtpx:TrackPointExtension xmlns:gpxtpx="http://www.garmin.com/xmlschemas/TrackPointExtension/v1">
            <gpxtpx:hr>104</gpxtpx:hr>
          </gpxtpx:TrackPointExtension>
        </extensions>
      </trkpt>
      <trkpt lat="43.10567" lon="1.36995">
        <ele>274</ele>
        <time>2023-03-05T14:00:18Z</time>
        <extensions>
          <gpxtpx:TrackPointExtension xmlns:gpxtpx="http://www.garmin.com/xmlschemas/TrackPointExtension/v1">
            <gpxtpx:hr>104</gpxtpx:hr>
          </gpxtpx:TrackPointExtension>
        </extensions>
      </trkpt>
      <trkpt lat="43.10585" lon="1.3697">
        <ele>274</ele>
        <time>2023-03-05T14:00:24Z</time>
        <extensions>
          <gpxtpx:TrackPointExtension xmlns:gpxtpx="http://www.garmin.com/xmlschemas/TrackPointExtension/v1">
            <gpxtpx:hr>104</gpxtpx:hr>
          </gpxtpx:TrackPointExtension>
        </extensions>
      </trkpt>
      <trkpt lat="43.10608" lon="1.36947">
        <ele>274</ele>
        <time>2023-03-05T14:00:31Z</time>
        <extensions>
          <gpxtpx:TrackPointExtension xmlns:gpxtpx="http://www.garmin.com/xmlschemas/TrackPointExtension/v1">
            <gpxtpx:hr>104</gpxtpx:hr>
          </gpxtpx:TrackPointExtension>
        </extensions>
      </trkpt>
      <trkpt lat="43.1063" lon="1.3693">
        <ele>274</ele>
        <time>2023-03-05T14:00:37Z</time>
        <extensions>
          <gpxtpx:TrackPointExtension xmlns:gpxtpx="http://www.garmin.com/xmlschemas/TrackPointExtension/v1">
            <gpxtpx:hr>104</gpxtpx:hr>
          </gpxtpx:TrackPointExtension>
        </extensions>
      </trkpt>
      <trkpt lat="43.10638" lon="1.36925">
        <ele>274</ele>
        <time>2023-03-05T14:00:39Z</time>
        <extensions>
          <gpxtpx:TrackPointExtension xmlns:gpxtpx="http://www.garmin.com/xmlschemas/TrackPointExtension/v1">
            <gpxtpx:hr>98</gpxtpx:hr>
          </gpxtpx:TrackPointExtension>
        </extensions>
      </trkpt>
      <trkpt lat="43.10642" lon="1.36921">
        <ele>274</ele>
        <time>2023-03-05T14:00:40Z</time>
        <extensions>
          <gpxtpx:TrackPointExtension xmlns:gpxtpx="http://www.garmin.com/xmlschemas/TrackPointExtension/v1">
            <gpxtpx:hr>98</gpxtpx:hr>
          </gpxtpx:TrackPointExtension>
        </extensions>
      </trkpt>
      <trkpt lat="43.10661" lon="1.36904">
        <ele>274</ele>
        <time>2023-03-05T14:00:45Z</time>
        <extensions>
          <gpxtpx:TrackPointExtension xmlns:gpxtpx="http://www.garmin.com/xmlschemas/TrackPointExtension/v1">
            <gpxtpx:hr>98</gpxtpx:hr>
          </gpxtpx:TrackPointExtension>
        </extensions>
      </trkpt>
      <trkpt lat="43.1067" lon="1.36898">
        <ele>274</ele>
        <time>2023-03-05T14:00:47Z</time>
        <extensions>
          <gpxtpx:TrackPointExtension xmlns:gpxtpx="http://www.garmin.com/xmlschemas/TrackPointExtension/v1">
            <gpxtpx:hr>98</gpxtpx:hr>
          </gpxtpx:TrackPointExtension>
        </extensions>
      </trkpt>
      <trkpt lat="43.10684" lon="1.36885">
        <ele>274</ele>
        <time>2023-03-05T14:00:51Z</time>
        <extensions>
          <gpxtpx:TrackPointExtension xmlns:gpxtpx="http://www.garmin.com/xmlschemas/TrackPointExtension/v1">
            <gpxtpx:hr>98</gpxtpx:hr>
          </gpxtpx:TrackPointExtension>
        </extensions>
      </trkpt>
      <trkpt lat="43.10696" lon="1.36863">
        <ele>274</ele>
        <time>2023-03-05T14:00:56Z</time>
        <extensions>
          <gpxtpx:TrackPointExtension xmlns:gpxtpx="http://www.garmin.com/xmlschemas/TrackPointExtension/v1">
            <gpxtpx:hr>102</gpxtpx:hr>
          </gpxtpx:TrackPointExtension>
        </extensions>
      </trkpt>
      <trkpt lat="43.10702" lon="1.36845">
        <ele>274</ele>
        <time>2023-03-05T14:00:59Z</time>
        <extensions>
          <gpxtpx:TrackPointExtension xmlns:gpxtpx="http://www.garmin.com/xmlschemas/TrackPointExtension/v1">
            <gpxtpx:hr>105</gpxtpx:hr>
          </gpxtpx:TrackPointExtension>
        </extensions>
      </trkpt>
      <trkpt lat="43.10704" lon="1.36832">
        <ele>274</ele>
        <time>2023-03-05T14:01:01Z</time>
        <extensions>
          <gpxtpx:TrackPointExtension xmlns:gpxtpx="http://www.garmin.com/xmlschemas/TrackPointExtension/v1">
            <gpxtpx:hr>105</gpxtpx:hr>
          </gpxtpx:TrackPointExtension>
        </extensions>
      </trkpt>
      <trkpt lat="43.10706" lon="1.36798">
        <ele>274</ele>
        <time>2023-03-05T14:01:06Z</time>
        <extensions>
          <gpxtpx:TrackPointExtension xmlns:gpxtpx="http://www.garmin.com/xmlschemas/TrackPointExtension/v1">
            <gpxtpx:hr>105</gpxtpx:hr>
          </gpxtpx:TrackPointExtension>
        </extensions>
      </trkpt>
      <trkpt lat="43.10708" lon="1.36792">
        <ele>274</ele>
        <time>2023-03-05T14:01:07Z</time>
        <extensions>
          <gpxtpx:TrackPointExtension xmlns:gpxtpx="http://www.garmin.com/xmlschemas/TrackPointExtension/v1">
            <gpxtpx:hr>105</gpxtpx:hr>
          </gpxtpx:TrackPointExtension>
        </extensions>
      </trkpt>
      <trkpt lat="43.10724" lon="1.36749">
        <ele>274</ele>
        <time>2023-03-05T14:01:14Z</time>
        <extensions>
          <gpxtpx:TrackPointExtension xmlns:gpxtpx="http://www.garmin.com/xmlschemas/TrackPointExtension/v1">
            <gpxtpx:hr>106</gpxtpx:hr>
          </gpxtpx:TrackPointExtension>
        </extensions>
      </trkpt>
      <trkpt lat="43.10734" lon="1.36714">
        <ele>274</ele>
        <time>2023-03-05T14:01:20Z</time>
        <extensions>
          <gpxtpx:TrackPointExtension xmlns:gpxtpx="http://www.garmin.com/xmlschemas/TrackPointExtension/v1">
            <gpxtpx:hr>106</gpxtpx:hr>
          </gpxtpx:TrackPointExtension>
        </extensions>
      </trkpt>
      <trkpt lat="43.10737" lon="1.36709">
        <ele>274</ele>
        <time>2023-03-05T14:01:21Z</time>
        <extensions>
          <gpxtpx:TrackPointExtension xmlns:gpxtpx="http://www.garmin.com/xmlschemas/TrackPointExtension/v1">
            <gpxtpx:hr>106</gpxtpx:hr>
          </gpxtpx:TrackPointExtension>
        </extensions>
      </trkpt>
      <trkpt lat="43.10746" lon="1.36696">
        <ele>274</ele>
        <time>2023-03-05T14:01:24Z</time>
        <extensions>
          <gpxtpx:TrackPointExtension xmlns:gpxtpx="http://www.garmin.com/xmlschemas/TrackPointExtension/v1">
            <gpxtpx:hr>100</gpxtpx:hr>
          </gpxtpx:TrackPointExtension>
        </extensions>
      </trkpt>
      <trkpt lat="43.1075" lon="1.36693">
        <ele>274</ele>
        <time>2023-03-05T14:01:25Z</time>
        <extensions>
          <gpxtpx:TrackPointExtension xmlns:gpxtpx="http://www.garmin.com/xmlschemas/TrackPointExtension/v1">
            <gpxtpx:hr>100</gpxtpx:hr>
          </gpxtpx:TrackPointExtension>
        </extensions>
      </trkpt>
      <trkpt lat="43.10754" lon="1.36689">
        <ele>274</ele>
        <time>2023-03-05T14:01:26Z</time>
        <extensions>
          <gpxtpx:TrackPointExtension xmlns:gpxtpx="http://www.garmin.com/xmlschemas/TrackPointExtension/v1">
            <gpxtpx:hr>100</gpxtpx:hr>
          </gpxtpx:TrackPointExtension>
        </extensions>
      </trkpt>
      <trkpt lat="43.1079" lon="1.36663">
        <ele>274</ele>
        <time>2023-03-05T14:01:34Z</time>
        <extensions>
          <gpxtpx:TrackPointExtension xmlns:gpxtpx="http://www.garmin.com/xmlschemas/TrackPointExtension/v1">
            <gpxtpx:hr>100</gpxtpx:hr>
          </gpxtpx:TrackPointExtension>
        </extensions>
      </trkpt>
      <trkpt lat="43.10794" lon="1.36659">
        <ele>274</ele>
        <time>2023-03-05T14:01:35Z</time>
        <extensions>
          <gpxtpx:TrackPointExtension xmlns:gpxtpx="http://www.garmin.com/xmlschemas/TrackPointExtension/v1">
            <gpxtpx:hr>100</gpxtpx:hr>
          </gpxtpx:TrackPointExtension>
        </extensions>
      </trkpt>
      <trkpt lat="43.10802" lon="1.36649">
        <ele>273.6</ele>
        <time>2023-03-05T14:01:37Z</time>
        <extensions>
          <gpxtpx:TrackPointExtension xmlns:gpxtpx="http://www.garmin.com/xmlschemas/TrackPointExtension/v1">
            <gpxtpx:hr>100</gpxtpx:hr>
          </gpxtpx:TrackPointExtension>
        </extensions>
      </trkpt>
      <trkpt lat="43.10807" lon="1.36644">
        <ele>273.2</ele>
        <time>2023-03-05T14:01:38Z</time>
        <extensions>
          <gpxtpx:TrackPointExtension xmlns:gpxtpx="http://www.garmin.com/xmlschemas/TrackPointExtension/v1">
            <gpxtpx:hr>100</gpxtpx:hr>
          </gpxtpx:TrackPointExtension>
        </extensions>
      </trkpt>
      <trkpt lat="43.10811" lon="1.36639">
        <ele>272.8</ele>
        <time>2023-03-05T14:01:39Z</time>
        <extensions>
          <gpxtpx:TrackPointExtension xmlns:gpxtpx="http://www.garmin.com/xmlschemas/TrackPointExtension/v1">
            <gpxtpx:hr>100</gpxtpx:hr>
          </gpxtpx:TrackPointExtension>
        </extensions>
      </trkpt>
      <trkpt lat="43.10814" lon="1.36635">
        <ele>272.4</ele>
        <time>2023-03-05T14:01:40Z</time>
        <extensions>
          <gpxtpx:TrackPointExtension xmlns:gpxtpx="http://www.garmin.com/xmlschemas/TrackPointExtension/v1">
            <gpxtpx:hr>100</gpxtpx:hr>
          </gpxtpx:TrackPointExtension>
        </extensions>
      </trkpt>
      <trkpt lat="43.10818" lon="1.3663">
        <ele>272</ele>
        <time>2023-03-05T14:01:41Z</time>
        <extensions>
          <gpxtpx:TrackPointExtension xmlns:gpxtpx="http://www.garmin.com/xmlschemas/TrackPointExtension/v1">
            <gpxtpx:hr>100</gpxtpx:hr>
          </gpxtpx:TrackPointExtension>
        </extensions>
      </trkpt>
      <trkpt lat="43.10827" lon="1.36612">
        <ele>272</ele>
        <time>2023-03-05T14:01:44Z</time>
        <extensions>
          <gpxtpx:TrackPointExtension xmlns:gpxtpx="http://www.garmin.com/xmlschemas/TrackPointExtension/v1">
            <gpxtpx:hr>100</gpxtpx:hr>
          </gpxtpx:TrackPointExtension>
        </extensions>
      </trkpt>
      <trkpt lat="43.10839" lon="1.36583">
        <ele>272</ele>
        <time>2023-03-05T14:01:49Z</time>
        <extensions>
          <gpxtpx:TrackPointExtension xmlns:gpxtpx="http://www.garmin.com/xmlschemas/TrackPointExtension/v1">
            <gpxtpx:hr>104</gpxtpx:hr>
          </gpxtpx:TrackPointExtension>
        </extensions>
      </trkpt>
      <trkpt lat="43.10842" lon="1.36577">
        <ele>272</ele>
        <time>2023-03-05T14:01:50Z</time>
        <extensions>
          <gpxtpx:TrackPointExtension xmlns:gpxtpx="http://www.garmin.com/xmlschemas/TrackPointExtension/v1">
            <gpxtpx:hr>107</gpxtpx:hr>
          </gpxtpx:TrackPointExtension>
        </extensions>
      </trkpt>
      <trkpt lat="43.10844" lon="1.36572">
        <ele>272</ele>
        <time>2023-03-05T14:01:51Z</time>
        <extensions>
          <gpxtpx:TrackPointExtension xmlns:gpxtpx="http://www.garmin.com/xmlschemas/TrackPointExtension/v1">
            <gpxtpx:hr>107</gpxtpx:hr>
          </gpxtpx:TrackPointExtension>
        </extensions>
      </trkpt>
      <trkpt lat="43.10853" lon="1.36552">
        <ele>272</ele>
        <time>2023-03-05T14:01:55Z</time>
        <extensions>
          <gpxtpx:TrackPointExtension xmlns:gpxtpx="http://www.garmin.com/xmlschemas/TrackPointExtension/v1">
            <gpxtpx:hr>101</gpxtpx:hr>
          </gpxtpx:TrackPointExtension>
        </extensions>
      </trkpt>
      <trkpt lat="43.10855" lon="1.36547">
        <ele>272</ele>
        <time>2023-03-05T14:01:56Z</time>
        <extensions>
          <gpxtpx:TrackPointExtension xmlns:gpxtpx="http://www.garmin.com/xmlschemas/TrackPointExtension/v1">
            <gpxtpx:hr>96</gpxtpx:hr>
          </gpxtpx:TrackPointExtension>
        </extensions>
      </trkpt>
      <trkpt lat="43.10857" lon="1.36542">
        <ele>272</ele>
        <time>2023-03-05T14:01:57Z</time>
        <extensions>
          <gpxtpx:TrackPointExtension xmlns:gpxtpx="http://www.garmin.com/xmlschemas/TrackPointExtension/v1">
            <gpxtpx:hr>96</gpxtpx:hr>
          </gpxtpx:TrackPointExtension>
        </extensions>
      </trkpt>
      <trkpt lat="43.10859" lon="1.36537">
        <ele>272</ele>
        <time>2023-03-05T14:01:58Z</time>
        <extensions>
          <gpxtpx:TrackPointExtension xmlns:gpxtpx="http://www.garmin.com/xmlschemas/TrackPointExtension/v1">
            <gpxtpx:hr>96</gpxtpx:hr>
          </gpxtpx:TrackPointExtension>
        </extensions>
      </trkpt>
      <trkpt lat="43.10867" lon="1.36516">
        <ele>272</ele>
        <time>2023-03-05T14:02:02Z</time>
        <extensions>
          <gpxtpx:TrackPointExtension xmlns:gpxtpx="http://www.garmin.com/xmlschemas/TrackPointExtension/v1">
            <gpxtpx:hr>96</gpxtpx:hr>
          </gpxtpx:TrackPointExtension>
        </extensions>
      </trkpt>
      <trkpt lat="43.10872" lon="1.36507">
        <ele>272</ele>
        <time>2023-03-05T14:02:04Z</time>
        <extensions>
          <gpxtpx:TrackPointExtension xmlns:gpxtpx="http://www.garmin.com/xmlschemas/TrackPointExtension/v1">
            <gpxtpx:hr>96</gpxtpx:hr>
          </gpxtpx:TrackPointExtension>
        </extensions>
      </trkpt>
      <trkpt lat="43.10877" lon="1.36497">
        <ele>272</ele>
        <time>2023-03-05T14:02:06Z</time>
        <extensions>
          <gpxtpx:TrackPointExtension xmlns:gpxtpx="http://www.garmin.com/xmlschemas/TrackPointExtension/v1">
            <gpxtpx:hr>99</gpxtpx:hr>
          </gpxtpx:TrackPointExtension>
        </extensions>
      </trkpt>
      <trkpt lat="43.10882" lon="1.36487">
        <ele>272</ele>
        <time>2023-03-05T14:02:08Z</time>
        <extensions>
          <gpxtpx:TrackPointExtension xmlns:gpxtpx="http://www.garmin.com/xmlschemas/TrackPointExtension/v1">
            <gpxtpx:hr>99</gpxtpx:hr>
          </gpxtpx:TrackPointExtension>
        </extensions>
      </trkpt>
      <trkpt lat="43.10891" lon="1.36472">
        <ele>272</ele>
        <time>2023-03-05T14:02:11Z</time>
        <extensions>
          <gpxtpx:TrackPointExtension xmlns:gpxtpx="http://www.garmin.com/xmlschemas/TrackPointExtension/v1">
            <gpxtpx:hr>99</gpxtpx:hr>
          </gpxtpx:TrackPointExtension>
        </extensions>
      </trkpt>
      <trkpt lat="43.10894" lon="1.36467">
        <ele>272</ele>
        <time>2023-03-05T14:02:12Z</time>
        <extensions>
          <gpxtpx:TrackPointExtension xmlns:gpxtpx="http://www.garmin.com/xmlschemas/TrackPointExtension/v1">
            <gpxtpx:hr>99</gpxtpx:hr>
          </gpxtpx:TrackPointExtension>
        </extensions>
      </trkpt>
      <trkpt lat="43.109" lon="1.36457">
        <ele>272</ele>
        <time>2023-03-05T14:02:14Z</time>
        <extensions>
          <gpxtpx:TrackPointExtension xmlns:gpxtpx="http://www.garmin.com/xmlschemas/TrackPointExtension/v1">
            <gpxtpx:hr>103</gpxtpx:hr>
          </gpxtpx:TrackPointExtension>
        </extensions>
      </trkpt>
      <trkpt lat="43.1091" lon="1.36436">
        <ele>272</ele>
        <time>2023-03-05T14:02:18Z</time>
        <extensions>
          <gpxtpx:TrackPointExtension xmlns:gpxtpx="http://www.garmin.com/xmlschemas/TrackPointExtension/v1">
            <gpxtpx:hr>103</gpxtpx:hr>
          </gpxtpx:TrackPointExtension>
        </extensions>
      </trkpt>
      <trkpt lat="43.10918" lon="1.36419">
        <ele>272</ele>
        <time>2023-03-05T14:02:21Z</time>
        <extensions>
          <gpxtpx:TrackPointExtension xmlns:gpxtpx="http://www.garmin.com/xmlschemas/TrackPointExtension/v1">
            <gpxtpx:hr>106</gpxtpx:hr>
          </gpxtpx:TrackPointExtension>
        </extensions>
      </trkpt>
      <trkpt lat="43.10929" lon="1.3639">
        <ele>272</ele>
        <time>2023-03-05T14:02:26Z</time>
        <extensions>
          <gpxtpx:TrackPointExtension xmlns:gpxtpx="http://www.garmin.com/xmlschemas/TrackPointExtension/v1">
            <gpxtpx:hr>106</gpxtpx:hr>
          </gpxtpx:TrackPointExtension>
        </extensions>
      </trkpt>
      <trkpt lat="43.10936" lon="1.36373">
        <ele>272</ele>
        <time>2023-03-05T14:02:29Z</time>
        <extensions>
          <gpxtpx:TrackPointExtension xmlns:gpxtpx="http://www.garmin.com/xmlschemas/TrackPointExtension/v1">
            <gpxtpx:hr>100</gpxtpx:hr>
          </gpxtpx:TrackPointExtension>
        </extensions>
      </trkpt>
      <trkpt lat="43.10938" lon="1.36367">
        <ele>272</ele>
        <time>2023-03-05T14:02:30Z</time>
        <extensions>
          <gpxtpx:TrackPointExtension xmlns:gpxtpx="http://www.garmin.com/xmlschemas/TrackPointExtension/v1">
            <gpxtpx:hr>100</gpxtpx:hr>
          </gpxtpx:TrackPointExtension>
        </extensions>
      </trkpt>
      <trkpt lat="43.10941" lon="1.36361">
        <ele>272</ele>
        <time>2023-03-05T14:02:31Z</time>
        <extensions>
          <gpxtpx:TrackPointExtension xmlns:gpxtpx="http://www.garmin.com/xmlschemas/TrackPointExtension/v1">
            <gpxtpx:hr>105</gpxtpx:hr>
          </gpxtpx:TrackPointExtension>
        </extensions>
      </trkpt>
      <trkpt lat="43.10943" lon="1.36356">
        <ele>272</ele>
        <time>2023-03-05T14:02:32Z</time>
        <extensions>
          <gpxtpx:TrackPointExtension xmlns:gpxtpx="http://www.garmin.com/xmlschemas/TrackPointExtension/v1">
            <gpxtpx:hr>105</gpxtpx:hr>
          </gpxtpx:TrackPointExtension>
        </extensions>
      </trkpt>
      <trkpt lat="43.10948" lon="1.36344">
        <ele>272</ele>
        <time>2023-03-05T14:02:34Z</time>
        <extensions>
          <gpxtpx:TrackPointExtension xmlns:gpxtpx="http://www.garmin.com/xmlschemas/TrackPointExtension/v1">
            <gpxtpx:hr>108</gpxtpx:hr>
          </gpxtpx:TrackPointExtension>
        </extensions>
      </trkpt>
      <trkpt lat="43.10951" lon="1.36339">
        <ele>272</ele>
        <time>2023-03-05T14:02:35Z</time>
        <extensions>
          <gpxtpx:TrackPointExtension xmlns:gpxtpx="http://www.garmin.com/xmlschemas/TrackPointExtension/v1">
            <gpxtpx:hr>108</gpxtpx:hr>
          </gpxtpx:TrackPointExtension>
        </extensions>
      </trkpt>
      <trkpt lat="43.10968" lon="1.36311">
        <ele>272</ele>
        <time>2023-03-05T14:02:41Z</time>
        <extensions>
          <gpxtpx:TrackPointExtension xmlns:gpxtpx="http://www.garmin.com/xmlschemas/TrackPointExtension/v1">
            <gpxtpx:hr>108</gpxtpx:hr>
          </gpxtpx:TrackPointExtension>
        </extensions>
      </trkpt>
      <trkpt lat="43.10972" lon="1.36307">
        <ele>272</ele>
        <time>2023-03-05T14:02:42Z</time>
        <extensions>
          <gpxtpx:TrackPointExtension xmlns:gpxtpx="http://www.garmin.com/xmlschemas/TrackPointExtension/v1">
            <gpxtpx:hr>108</gpxtpx:hr>
          </gpxtpx:TrackPointExtension>
        </extensions>
      </trkpt>
      <trkpt lat="43.10988" lon="1.36295">
        <ele>272</ele>
        <time>2023-03-05T14:02:46Z</time>
        <extensions>
          <gpxtpx:TrackPointExtension xmlns:gpxtpx="http://www.garmin.com/xmlschemas/TrackPointExtension/v1">
            <gpxtpx:hr>108</gpxtpx:hr>
          </gpxtpx:TrackPointExtension>
        </extensions>
      </trkpt>
      <trkpt lat="43.10992" lon="1.36293">
        <ele>272</ele>
        <time>2023-03-05T14:02:47Z</time>
        <extensions>
          <gpxtpx:TrackPointExtension xmlns:gpxtpx="http://www.garmin.com/xmlschemas/TrackPointExtension/v1">
            <gpxtpx:hr>99</gpxtpx:hr>
          </gpxtpx:TrackPointExtension>
        </extensions>
      </trkpt>
      <trkpt lat="43.10996" lon="1.36292">
        <ele>272</ele>
        <time>2023-03-05T14:02:48Z</time>
        <extensions>
          <gpxtpx:TrackPointExtension xmlns:gpxtpx="http://www.garmin.com/xmlschemas/TrackPointExtension/v1">
            <gpxtpx:hr>99</gpxtpx:hr>
          </gpxtpx:TrackPointExtension>
        </extensions>
      </trkpt>
      <trkpt lat="43.11005" lon="1.36292">
        <ele>272</ele>
        <time>2023-03-05T14:02:50Z</time>
        <extensions>
          <gpxtpx:TrackPointExtension xmlns:gpxtpx="http://www.garmin.com/xmlschemas/TrackPointExtension/v1">
            <gpxtpx:hr>99</gpxtpx:hr>
          </gpxtpx:TrackPointExtension>
        </extensions>
      </trkpt>
      <trkpt lat="43.11018" lon="1.36292">
        <ele>272</ele>
        <time>2023-03-05T14:02:53Z</time>
        <extensions>
          <gpxtpx:TrackPointExtension xmlns:gpxtpx="http://www.garmin.com/xmlschemas/TrackPointExtension/v1">
            <gpxtpx:hr>99</gpxtpx:hr>
          </gpxtpx:TrackPointExtension>
        </extensions>
      </trkpt>
      <trkpt lat="43.11027" lon="1.36292">
        <ele>272</ele>
        <time>2023-03-05T14:02:55Z</time>
        <extensions>
          <gpxtpx:TrackPointExtension xmlns:gpxtpx="http://www.garmin.com/xmlschemas/TrackPointExtension/v1">
            <gpxtpx:hr>99</gpxtpx:hr>
          </gpxtpx:TrackPointExtension>
        </extensions>
      </trkpt>
      <trkpt lat="43.11031" lon="1.3629">
        <ele>272</ele>
        <time>2023-03-05T14:02:56Z</time>
        <extensions>
          <gpxtpx:TrackPointExtension xmlns:gpxtpx="http://www.garmin.com/xmlschemas/TrackPointExtension/v1">
            <gpxtpx:hr>94</gpxtpx:hr>
          </gpxtpx:TrackPointExtension>
        </extensions>
      </trkpt>
      <trkpt lat="43.11035" lon="1.36289">
        <ele>272</ele>
        <time>2023-03-05T14:02:57Z</time>
        <extensions>
          <gpxtpx:TrackPointExtension xmlns:gpxtpx="http://www.garmin.com/xmlschemas/TrackPointExtension/v1">
            <gpxtpx:hr>94</gpxtpx:hr>
          </gpxtpx:TrackPointExtension>
        </extensions>
      </trkpt>
      <trkpt lat="43.11038" lon="1.36286">
        <ele>272</ele>
        <time>2023-03-05T14:02:58Z</time>
        <extensions>
          <gpxtpx:TrackPointExtension xmlns:gpxtpx="http://www.garmin.com/xmlschemas/TrackPointExtension/v1">
            <gpxtpx:hr>94</gpxtpx:hr>
          </gpxtpx:TrackPointExtension>
        </extensions>
      </trkpt>
      <trkpt lat="43.11054" lon="1.36271">
        <ele>272</ele>
        <time>2023-03-05T14:03:02Z</time>
        <extensions>
          <gpxtpx:TrackPointExtension xmlns:gpxtpx="http://www.garmin.com/xmlschemas/TrackPointExtension/v1">
            <gpxtpx:hr>94</gpxtpx:hr>
          </gpxtpx:TrackPointExtension>
        </extensions>
      </trkpt>
      <trkpt lat="43.11058" lon="1.36268">
        <ele>272</ele>
        <time>2023-03-05T14:03:03Z</time>
        <extensions>
          <gpxtpx:TrackPointExtension xmlns:gpxtpx="http://www.garmin.com/xmlschemas/TrackPointExtension/v1">
            <gpxtpx:hr>94</gpxtpx:hr>
          </gpxtpx:TrackPointExtension>
        </extensions>
      </trkpt>
      <trkpt lat="43.1107" lon="1.3626">
        <ele>272</ele>
        <time>2023-03-05T14:03:06Z</time>
        <extensions>
          <gpxtpx:TrackPointExtension xmlns:gpxtpx="http://www.garmin.com/xmlschemas/TrackPointExtension/v1">
            <gpxtpx:hr>94</gpxtpx:hr>
          </gpxtpx:TrackPointExtension>
        </extensions>
      </trkpt>
      <trkpt lat="43.11083" lon="1.36258">
        <ele>272</ele>
        <time>2023-03-05T14:03:09Z</time>
        <extensions>
          <gpxtpx:TrackPointExtension xmlns:gpxtpx="http://www.garmin.com/xmlschemas/TrackPointExtension/v1">
            <gpxtpx:hr>94</gpxtpx:hr>
          </gpxtpx:TrackPointExtension>
        </extensions>
      </trkpt>
      <trkpt lat="43.11091" lon="1.36258">
        <ele>272</ele>
        <time>2023-03-05T14:03:11Z</time>
        <extensions>
          <gpxtpx:TrackPointExtension xmlns:gpxtpx="http://www.garmin.com/xmlschemas/TrackPointExtension/v1">
            <gpxtpx:hr>94</gpxtpx:hr>
          </gpxtpx:TrackPointExtension>
        </extensions>
      </trkpt>
      <trkpt lat="43.111" lon="1.36266">
        <ele>272</ele>
        <time>2023-03-05T14:03:13Z</time>
        <extensions>
          <gpxtpx:TrackPointExtension xmlns:gpxtpx="http://www.garmin.com/xmlschemas/TrackPointExtension/v1">
            <gpxtpx:hr>94</gpxtpx:hr>
          </gpxtpx:TrackPointExtension>
        </extensions>
      </trkpt>
      <trkpt lat="43.11104" lon="1.3627">
        <ele>272</ele>
        <time>2023-03-05T14:03:14Z</time>
        <extensions>
          <gpxtpx:TrackPointExtension xmlns:gpxtpx="http://www.garmin.com/xmlschemas/TrackPointExtension/v1">
            <gpxtpx:hr>87</gpxtpx:hr>
          </gpxtpx:TrackPointExtension>
        </extensions>
      </trkpt>
      <trkpt lat="43.11108" lon="1.36275">
        <ele>272</ele>
        <time>2023-03-05T14:03:15Z</time>
        <extensions>
          <gpxtpx:TrackPointExtension xmlns:gpxtpx="http://www.garmin.com/xmlschemas/TrackPointExtension/v1">
            <gpxtpx:hr>87</gpxtpx:hr>
          </gpxtpx:TrackPointExtension>
        </extensions>
      </trkpt>
      <trkpt lat="43.11112" lon="1.36279">
        <ele>272</ele>
        <time>2023-03-05T14:03:16Z</time>
        <extensions>
          <gpxtpx:TrackPointExtension xmlns:gpxtpx="http://www.garmin.com/xmlschemas/TrackPointExtension/v1">
            <gpxtpx:hr>87</gpxtpx:hr>
          </gpxtpx:TrackPointExtension>
        </extensions>
      </trkpt>
      <trkpt lat="43.11123" lon="1.36293">
        <ele>272</ele>
        <time>2023-03-05T14:03:19Z</time>
        <extensions>
          <gpxtpx:TrackPointExtension xmlns:gpxtpx="http://www.garmin.com/xmlschemas/TrackPointExtension/v1">
            <gpxtpx:hr>87</gpxtpx:hr>
          </gpxtpx:TrackPointExtension>
        </extensions>
      </trkpt>
      <trkpt lat="43.11151" lon="1.3633">
        <ele>272</ele>
        <time>2023-03-05T14:03:27Z</time>
        <extensions>
          <gpxtpx:TrackPointExtension xmlns:gpxtpx="http://www.garmin.com/xmlschemas/TrackPointExtension/v1">
            <gpxtpx:hr>87</gpxtpx:hr>
          </gpxtpx:TrackPointExtension>
        </extensions>
      </trkpt>
      <trkpt lat="43.11179" lon="1.36364">
        <ele>272</ele>
        <time>2023-03-05T14:03:35Z</time>
        <extensions>
          <gpxtpx:TrackPointExtension xmlns:gpxtpx="http://www.garmin.com/xmlschemas/TrackPointExtension/v1">
            <gpxtpx:hr>87</gpxtpx:hr>
          </gpxtpx:TrackPointExtension>
        </extensions>
      </trkpt>
      <trkpt lat="43.11204" lon="1.36393">
        <ele>272</ele>
        <time>2023-03-05T14:03:42Z</time>
        <extensions>
          <gpxtpx:TrackPointExtension xmlns:gpxtpx="http://www.garmin.com/xmlschemas/TrackPointExtension/v1">
            <gpxtpx:hr>87</gpxtpx:hr>
          </gpxtpx:TrackPointExtension>
        </extensions>
      </trkpt>
      <trkpt lat="43.11211" lon="1.36402">
        <ele>272</ele>
        <time>2023-03-05T14:03:44Z</time>
        <extensions>
          <gpxtpx:TrackPointExtension xmlns:gpxtpx="http://www.garmin.com/xmlschemas/TrackPointExtension/v1">
            <gpxtpx:hr>87</gpxtpx:hr>
          </gpxtpx:TrackPointExtension>
        </extensions>
      </trkpt>
      <trkpt lat="43.11247" lon="1.36444">
        <ele>272</ele>
        <time>2023-03-05T14:03:54Z</time>
        <extensions>
          <gpxtpx:TrackPointExtension xmlns:gpxtpx="http://www.garmin.com/xmlschemas/TrackPointExtension/v1">
            <gpxtpx:hr>87</gpxtpx:hr>
          </gpxtpx:TrackPointExtension>
        </extensions>
      </trkpt>
      <trkpt lat="43.11264" lon="1.36466">
        <ele>272</ele>
        <time>2023-03-05T14:03:59Z</time>
        <extensions>
          <gpxtpx:TrackPointExtension xmlns:gpxtpx="http://www.garmin.com/xmlschemas/TrackPointExtension/v1">
            <gpxtpx:hr>84</gpxtpx:hr>
          </gpxtpx:TrackPointExtension>
        </extensions>
      </trkpt>
      <trkpt lat="43.11275" lon="1.36479">
        <ele>272</ele>
        <time>2023-03-05T14:04:02Z</time>
        <extensions>
          <gpxtpx:TrackPointExtension xmlns:gpxtpx="http://www.garmin.com/xmlschemas/TrackPointExtension/v1">
            <gpxtpx:hr>78</gpxtpx:hr>
          </gpxtpx:TrackPointExtension>
        </extensions>
      </trkpt>
      <trkpt lat="43.11279" lon="1.36483">
        <ele>272</ele>
        <time>2023-03-05T14:04:03Z</time>
        <extensions>
          <gpxtpx:TrackPointExtension xmlns:gpxtpx="http://www.garmin.com/xmlschemas/TrackPointExtension/v1">
            <gpxtpx:hr>78</gpxtpx:hr>
          </gpxtpx:TrackPointExtension>
        </extensions>
      </trkpt>
      <trkpt lat="43.11282" lon="1.36488">
        <ele>272</ele>
        <time>2023-03-05T14:04:04Z</time>
        <extensions>
          <gpxtpx:TrackPointExtension xmlns:gpxtpx="http://www.garmin.com/xmlschemas/TrackPointExtension/v1">
            <gpxtpx:hr>78</gpxtpx:hr>
          </gpxtpx:TrackPointExtension>
        </extensions>
      </trkpt>
      <trkpt lat="43.11303" lon="1.36513">
        <ele>272</ele>
        <time>2023-03-05T14:04:10Z</time>
        <extensions>
          <gpxtpx:TrackPointExtension xmlns:gpxtpx="http://www.garmin.com/xmlschemas/TrackPointExtension/v1">
            <gpxtpx:hr>87</gpxtpx:hr>
          </gpxtpx:TrackPointExtension>
        </extensions>
      </trkpt>
      <trkpt lat="43.11306" lon="1.36516">
        <ele>272</ele>
        <time>2023-03-05T14:04:11Z</time>
        <extensions>
          <gpxtpx:TrackPointExtension xmlns:gpxtpx="http://www.garmin.com/xmlschemas/TrackPointExtension/v1">
            <gpxtpx:hr>87</gpxtpx:hr>
          </gpxtpx:TrackPointExtension>
        </extensions>
      </trkpt>
      <trkpt lat="43.11308" lon="1.36519">
        <ele>272</ele>
        <time>2023-03-05T14:04:12Z</time>
        <extensions>
          <gpxtpx:TrackPointExtension xmlns:gpxtpx="http://www.garmin.com/xmlschemas/TrackPointExtension/v1">
            <gpxtpx:hr>87</gpxtpx:hr>
          </gpxtpx:TrackPointExtension>
        </extensions>
      </trkpt>
      <trkpt lat="43.11321" lon="1.36536">
        <ele>272</ele>
        <time>2023-03-05T14:04:18Z</time>
        <extensions>
          <gpxtpx:TrackPointExtension xmlns:gpxtpx="http://www.garmin.com/xmlschemas/TrackPointExtension/v1">
            <gpxtpx:hr>87</gpxtpx:hr>
          </gpxtpx:TrackPointExtension>
        </extensions>
      </trkpt>
      <trkpt lat="43.11325" lon="1.3654">
        <ele>272.4</ele>
        <time>2023-03-05T14:04:21Z</time>
        <extensions>
          <gpxtpx:TrackPointExtension xmlns:gpxtpx="http://www.garmin.com/xmlschemas/TrackPointExtension/v1">
            <gpxtpx:hr>87</gpxtpx:hr>
          </gpxtpx:TrackPointExtension>
        </extensions>
      </trkpt>
      <trkpt lat="43.11326" lon="1.36541">
        <ele>272.8</ele>
        <time>2023-03-05T14:04:22Z</time>
        <extensions>
          <gpxtpx:TrackPointExtension xmlns:gpxtpx="http://www.garmin.com/xmlschemas/TrackPointExtension/v1">
            <gpxtpx:hr>87</gpxtpx:hr>
          </gpxtpx:TrackPointExtension>
        </extensions>
      </trkpt>
      <trkpt lat="43.11327" lon="1.36542">
        <ele>273.2</ele>
        <time>2023-03-05T14:04:23Z</time>
        <extensions>
          <gpxtpx:TrackPointExtension xmlns:gpxtpx="http://www.garmin.com/xmlschemas/TrackPointExtension/v1">
            <gpxtpx:hr>90</gpxtpx:hr>
          </gpxtpx:TrackPointExtension>
        </extensions>
      </trkpt>
      <trkpt lat="43.11329" lon="1.36544">
        <ele>273.6</ele>
        <time>2023-03-05T14:04:24Z</time>
        <extensions>
          <gpxtpx:TrackPointExtension xmlns:gpxtpx="http://www.garmin.com/xmlschemas/TrackPointExtension/v1">
            <gpxtpx:hr>90</gpxtpx:hr>
          </gpxtpx:TrackPointExtension>
        </extensions>
      </trkpt>
      <trkpt lat="43.11332" lon="1.36547">
        <ele>274</ele>
        <time>2023-03-05T14:04:25Z</time>
        <extensions>
          <gpxtpx:TrackPointExtension xmlns:gpxtpx="http://www.garmin.com/xmlschemas/TrackPointExtension/v1">
            <gpxtpx:hr>90</gpxtpx:hr>
          </gpxtpx:TrackPointExtension>
        </extensions>
      </trkpt>
      <trkpt lat="43.11337" lon="1.36554">
        <ele>274</ele>
        <time>2023-03-05T14:04:27Z</time>
        <extensions>
          <gpxtpx:TrackPointExtension xmlns:gpxtpx="http://www.garmin.com/xmlschemas/TrackPointExtension/v1">
            <gpxtpx:hr>90</gpxtpx:hr>
          </gpxtpx:TrackPointExtension>
        </extensions>
      </trkpt>
      <trkpt lat="43.1136" lon="1.36582">
        <ele>274</ele>
        <time>2023-03-05T14:04:34Z</time>
        <extensions>
          <gpxtpx:TrackPointExtension xmlns:gpxtpx="http://www.garmin.com/xmlschemas/TrackPointExtension/v1">
            <gpxtpx:hr>90</gpxtpx:hr>
          </gpxtpx:TrackPointExtension>
        </extensions>
      </trkpt>
      <trkpt lat="43.11373" lon="1.36588">
        <ele>274.8</ele>
        <time>2023-03-05T14:04:37Z</time>
        <extensions>
          <gpxtpx:TrackPointExtension xmlns:gpxtpx="http://www.garmin.com/xmlschemas/TrackPointExtension/v1">
            <gpxtpx:hr>90</gpxtpx:hr>
          </gpxtpx:TrackPointExtension>
        </extensions>
      </trkpt>
      <trkpt lat="43.11378" lon="1.3659">
        <ele>275.2</ele>
        <time>2023-03-05T14:04:38Z</time>
        <extensions>
          <gpxtpx:TrackPointExtension xmlns:gpxtpx="http://www.garmin.com/xmlschemas/TrackPointExtension/v1">
            <gpxtpx:hr>90</gpxtpx:hr>
          </gpxtpx:TrackPointExtension>
        </extensions>
      </trkpt>
      <trkpt lat="43.11382" lon="1.36591">
        <ele>275.8</ele>
        <time>2023-03-05T14:04:39Z</time>
        <extensions>
          <gpxtpx:TrackPointExtension xmlns:gpxtpx="http://www.garmin.com/xmlschemas/TrackPointExtension/v1">
            <gpxtpx:hr>90</gpxtpx:hr>
          </gpxtpx:TrackPointExtension>
        </extensions>
      </trkpt>
      <trkpt lat="43.11387" lon="1.36591">
        <ele>276.2</ele>
        <time>2023-03-05T14:04:40Z</time>
        <extensions>
          <gpxtpx:TrackPointExtension xmlns:gpxtpx="http://www.garmin.com/xmlschemas/TrackPointExtension/v1">
            <gpxtpx:hr>90</gpxtpx:hr>
          </gpxtpx:TrackPointExtension>
        </extensions>
      </trkpt>
      <trkpt lat="43.11409" lon="1.36596">
        <ele>276.2</ele>
        <time>2023-03-05T14:04:45Z</time>
        <extensions>
          <gpxtpx:TrackPointExtension xmlns:gpxtpx="http://www.garmin.com/xmlschemas/TrackPointExtension/v1">
            <gpxtpx:hr>93</gpxtpx:hr>
          </gpxtpx:TrackPointExtension>
        </extensions>
      </trkpt>
      <trkpt lat="43.11417" lon="1.36597">
        <ele>276.2</ele>
        <time>2023-03-05T14:04:47Z</time>
        <extensions>
          <gpxtpx:TrackPointExtension xmlns:gpxtpx="http://www.garmin.com/xmlschemas/TrackPointExtension/v1">
            <gpxtpx:hr>93</gpxtpx:hr>
          </gpxtpx:TrackPointExtension>
        </extensions>
      </trkpt>
      <trkpt lat="43.11421" lon="1.36596">
        <ele>276.2</ele>
        <time>2023-03-05T14:04:48Z</time>
        <extensions>
          <gpxtpx:TrackPointExtension xmlns:gpxtpx="http://www.garmin.com/xmlschemas/TrackPointExtension/v1">
            <gpxtpx:hr>93</gpxtpx:hr>
          </gpxtpx:TrackPointExtension>
        </extensions>
      </trkpt>
      <trkpt lat="43.11425" lon="1.36595">
        <ele>276.2</ele>
        <time>2023-03-05T14:04:49Z</time>
        <extensions>
          <gpxtpx:TrackPointExtension xmlns:gpxtpx="http://www.garmin.com/xmlschemas/TrackPointExtension/v1">
            <gpxtpx:hr>96</gpxtpx:hr>
          </gpxtpx:TrackPointExtension>
        </extensions>
      </trkpt>
      <trkpt lat="43.11446" lon="1.36587">
        <ele>276.2</ele>
        <time>2023-03-05T14:04:54Z</time>
        <extensions>
          <gpxtpx:TrackPointExtension xmlns:gpxtpx="http://www.garmin.com/xmlschemas/TrackPointExtension/v1">
            <gpxtpx:hr>99</gpxtpx:hr>
          </gpxtpx:TrackPointExtension>
        </extensions>
      </trkpt>
      <trkpt lat="43.1145" lon="1.36587">
        <ele>276.2</ele>
        <time>2023-03-05T14:04:55Z</time>
        <extensions>
          <gpxtpx:TrackPointExtension xmlns:gpxtpx="http://www.garmin.com/xmlschemas/TrackPointExtension/v1">
            <gpxtpx:hr>99</gpxtpx:hr>
          </gpxtpx:TrackPointExtension>
        </extensions>
      </trkpt>
      <trkpt lat="43.11454" lon="1.36587">
        <ele>276.6</ele>
        <time>2023-03-05T14:04:56Z</time>
        <extensions>
          <gpxtpx:TrackPointExtension xmlns:gpxtpx="http://www.garmin.com/xmlschemas/TrackPointExtension/v1">
            <gpxtpx:hr>99</gpxtpx:hr>
          </gpxtpx:TrackPointExtension>
        </extensions>
      </trkpt>
      <trkpt lat="43.11458" lon="1.36587">
        <ele>277</ele>
        <time>2023-03-05T14:04:57Z</time>
        <extensions>
          <gpxtpx:TrackPointExtension xmlns:gpxtpx="http://www.garmin.com/xmlschemas/TrackPointExtension/v1">
            <gpxtpx:hr>99</gpxtpx:hr>
          </gpxtpx:TrackPointExtension>
        </extensions>
      </trkpt>
      <trkpt lat="43.11461" lon="1.36589">
        <ele>277.4</ele>
        <time>2023-03-05T14:04:58Z</time>
        <extensions>
          <gpxtpx:TrackPointExtension xmlns:gpxtpx="http://www.garmin.com/xmlschemas/TrackPointExtension/v1">
            <gpxtpx:hr>99</gpxtpx:hr>
          </gpxtpx:TrackPointExtension>
        </extensions>
      </trkpt>
      <trkpt lat="43.11464" lon="1.36592">
        <ele>277.8</ele>
        <time>2023-03-05T14:04:59Z</time>
        <extensions>
          <gpxtpx:TrackPointExtension xmlns:gpxtpx="http://www.garmin.com/xmlschemas/TrackPointExtension/v1">
            <gpxtpx:hr>99</gpxtpx:hr>
          </gpxtpx:TrackPointExtension>
        </extensions>
      </trkpt>
      <trkpt lat="43.11467" lon="1.36595">
        <ele>278.2</ele>
        <time>2023-03-05T14:05:00Z</time>
        <extensions>
          <gpxtpx:TrackPointExtension xmlns:gpxtpx="http://www.garmin.com/xmlschemas/TrackPointExtension/v1">
            <gpxtpx:hr>99</gpxtpx:hr>
          </gpxtpx:TrackPointExtension>
        </extensions>
      </trkpt>
      <trkpt lat="43.11473" lon="1.36604">
        <ele>278.2</ele>
        <time>2023-03-05T14:05:04Z</time>
        <extensions>
          <gpxtpx:TrackPointExtension xmlns:gpxtpx="http://www.garmin.com/xmlschemas/TrackPointExtension/v1">
            <gpxtpx:hr>99</gpxtpx:hr>
          </gpxtpx:TrackPointExtension>
        </extensions>
      </trkpt>
      <trkpt lat="43.11473" lon="1.36605">
        <ele>278.2</ele>
        <time>2023-03-05T14:05:05Z</time>
        <extensions>
          <gpxtpx:TrackPointExtension xmlns:gpxtpx="http://www.garmin.com/xmlschemas/TrackPointExtension/v1">
            <gpxtpx:hr>103</gpxtpx:hr>
          </gpxtpx:TrackPointExtension>
        </extensions>
      </trkpt>
      <trkpt lat="43.11472" lon="1.36606">
        <ele>278.2</ele>
        <time>2023-03-05T14:05:07Z</time>
        <extensions>
          <gpxtpx:TrackPointExtension xmlns:gpxtpx="http://www.garmin.com/xmlschemas/TrackPointExtension/v1">
            <gpxtpx:hr>103</gpxtpx:hr>
          </gpxtpx:TrackPointExtension>
        </extensions>
      </trkpt>
      <trkpt lat="43.11471" lon="1.36606">
        <ele>278.2</ele>
        <time>2023-03-05T14:05:08Z</time>
        <extensions>
          <gpxtpx:TrackPointExtension xmlns:gpxtpx="http://www.garmin.com/xmlschemas/TrackPointExtension/v1">
            <gpxtpx:hr>103</gpxtpx:hr>
          </gpxtpx:TrackPointExtension>
        </extensions>
      </trkpt>
      <trkpt lat="43.11473" lon="1.36596">
        <ele>278.2</ele>
        <time>2023-03-05T14:05:12Z</time>
        <extensions>
          <gpxtpx:TrackPointExtension xmlns:gpxtpx="http://www.garmin.com/xmlschemas/TrackPointExtension/v1">
            <gpxtpx:hr>103</gpxtpx:hr>
          </gpxtpx:TrackPointExtension>
        </extensions>
      </trkpt>
      <trkpt lat="43.11485" lon="1.36582">
        <ele>278.2</ele>
        <time>2023-03-05T14:05:16Z</time>
        <extensions>
          <gpxtpx:TrackPointExtension xmlns:gpxtpx="http://www.garmin.com/xmlschemas/TrackPointExtension/v1">
            <gpxtpx:hr>103</gpxtpx:hr>
          </gpxtpx:TrackPointExtension>
        </extensions>
      </trkpt>
      <trkpt lat="43.11513" lon="1.36553">
        <ele>278.2</ele>
        <time>2023-03-05T14:05:24Z</time>
        <extensions>
          <gpxtpx:TrackPointExtension xmlns:gpxtpx="http://www.garmin.com/xmlschemas/TrackPointExtension/v1">
            <gpxtpx:hr>103</gpxtpx:hr>
          </gpxtpx:TrackPointExtension>
        </extensions>
      </trkpt>
      <trkpt lat="43.11528" lon="1.36539">
        <ele>278.2</ele>
        <time>2023-03-05T14:05:28Z</time>
        <extensions>
          <gpxtpx:TrackPointExtension xmlns:gpxtpx="http://www.garmin.com/xmlschemas/TrackPointExtension/v1">
            <gpxtpx:hr>103</gpxtpx:hr>
          </gpxtpx:TrackPointExtension>
        </extensions>
      </trkpt>
      <trkpt lat="43.1154" lon="1.36528">
        <ele>278.2</ele>
        <time>2023-03-05T14:05:31Z</time>
        <extensions>
          <gpxtpx:TrackPointExtension xmlns:gpxtpx="http://www.garmin.com/xmlschemas/TrackPointExtension/v1">
            <gpxtpx:hr>103</gpxtpx:hr>
          </gpxtpx:TrackPointExtension>
        </extensions>
      </trkpt>
      <trkpt lat="43.11543" lon="1.36524">
        <ele>278.2</ele>
        <time>2023-03-05T14:05:32Z</time>
        <extensions>
          <gpxtpx:TrackPointExtension xmlns:gpxtpx="http://www.garmin.com/xmlschemas/TrackPointExtension/v1">
            <gpxtpx:hr>103</gpxtpx:hr>
          </gpxtpx:TrackPointExtension>
        </extensions>
      </trkpt>
      <trkpt lat="43.11559" lon="1.36505">
        <ele>278.2</ele>
        <time>2023-03-05T14:05:37Z</time>
        <extensions>
          <gpxtpx:TrackPointExtension xmlns:gpxtpx="http://www.garmin.com/xmlschemas/TrackPointExtension/v1">
            <gpxtpx:hr>103</gpxtpx:hr>
          </gpxtpx:TrackPointExtension>
        </extensions>
      </trkpt>
      <trkpt lat="43.11562" lon="1.36501">
        <ele>278.2</ele>
        <time>2023-03-05T14:05:38Z</time>
        <extensions>
          <gpxtpx:TrackPointExtension xmlns:gpxtpx="http://www.garmin.com/xmlschemas/TrackPointExtension/v1">
            <gpxtpx:hr>106</gpxtpx:hr>
          </gpxtpx:TrackPointExtension>
        </extensions>
      </trkpt>
      <trkpt lat="43.11564" lon="1.36497">
        <ele>278.2</ele>
        <time>2023-03-05T14:05:39Z</time>
        <extensions>
          <gpxtpx:TrackPointExtension xmlns:gpxtpx="http://www.garmin.com/xmlschemas/TrackPointExtension/v1">
            <gpxtpx:hr>109</gpxtpx:hr>
          </gpxtpx:TrackPointExtension>
        </extensions>
      </trkpt>
      <trkpt lat="43.11567" lon="1.36493">
        <ele>278.2</ele>
        <time>2023-03-05T14:05:40Z</time>
        <extensions>
          <gpxtpx:TrackPointExtension xmlns:gpxtpx="http://www.garmin.com/xmlschemas/TrackPointExtension/v1">
            <gpxtpx:hr>109</gpxtpx:hr>
          </gpxtpx:TrackPointExtension>
        </extensions>
      </trkpt>
      <trkpt lat="43.11574" lon="1.36486">
        <ele>278.2</ele>
        <time>2023-03-05T14:05:42Z</time>
        <extensions>
          <gpxtpx:TrackPointExtension xmlns:gpxtpx="http://www.garmin.com/xmlschemas/TrackPointExtension/v1">
            <gpxtpx:hr>109</gpxtpx:hr>
          </gpxtpx:TrackPointExtension>
        </extensions>
      </trkpt>
      <trkpt lat="43.1158" lon="1.36478">
        <ele>278.2</ele>
        <time>2023-03-05T14:05:44Z</time>
        <extensions>
          <gpxtpx:TrackPointExtension xmlns:gpxtpx="http://www.garmin.com/xmlschemas/TrackPointExtension/v1">
            <gpxtpx:hr>109</gpxtpx:hr>
          </gpxtpx:TrackPointExtension>
        </extensions>
      </trkpt>
      <trkpt lat="43.11594" lon="1.3646">
        <ele>277.8</ele>
        <time>2023-03-05T14:05:49Z</time>
        <extensions>
          <gpxtpx:TrackPointExtension xmlns:gpxtpx="http://www.garmin.com/xmlschemas/TrackPointExtension/v1">
            <gpxtpx:hr>109</gpxtpx:hr>
          </gpxtpx:TrackPointExtension>
        </extensions>
      </trkpt>
      <trkpt lat="43.11596" lon="1.36457">
        <ele>277.4</ele>
        <time>2023-03-05T14:05:50Z</time>
        <extensions>
          <gpxtpx:TrackPointExtension xmlns:gpxtpx="http://www.garmin.com/xmlschemas/TrackPointExtension/v1">
            <gpxtpx:hr>109</gpxtpx:hr>
          </gpxtpx:TrackPointExtension>
        </extensions>
      </trkpt>
      <trkpt lat="43.11599" lon="1.36453">
        <ele>276.4</ele>
        <time>2023-03-05T14:05:51Z</time>
        <extensions>
          <gpxtpx:TrackPointExtension xmlns:gpxtpx="http://www.garmin.com/xmlschemas/TrackPointExtension/v1">
            <gpxtpx:hr>109</gpxtpx:hr>
          </gpxtpx:TrackPointExtension>
        </extensions>
      </trkpt>
      <trkpt lat="43.11602" lon="1.36449">
        <ele>276</ele>
        <time>2023-03-05T14:05:52Z</time>
        <extensions>
          <gpxtpx:TrackPointExtension xmlns:gpxtpx="http://www.garmin.com/xmlschemas/TrackPointExtension/v1">
            <gpxtpx:hr>109</gpxtpx:hr>
          </gpxtpx:TrackPointExtension>
        </extensions>
      </trkpt>
      <trkpt lat="43.11612" lon="1.36433">
        <ele>276</ele>
        <time>2023-03-05T14:05:56Z</time>
        <extensions>
          <gpxtpx:TrackPointExtension xmlns:gpxtpx="http://www.garmin.com/xmlschemas/TrackPointExtension/v1">
            <gpxtpx:hr>112</gpxtpx:hr>
          </gpxtpx:TrackPointExtension>
        </extensions>
      </trkpt>
      <trkpt lat="43.11621" lon="1.36416">
        <ele>276</ele>
        <time>2023-03-05T14:06:01Z</time>
        <extensions>
          <gpxtpx:TrackPointExtension xmlns:gpxtpx="http://www.garmin.com/xmlschemas/TrackPointExtension/v1">
            <gpxtpx:hr>112</gpxtpx:hr>
          </gpxtpx:TrackPointExtension>
        </extensions>
      </trkpt>
      <trkpt lat="43.11634" lon="1.36392">
        <ele>276</ele>
        <time>2023-03-05T14:06:07Z</time>
        <extensions>
          <gpxtpx:TrackPointExtension xmlns:gpxtpx="http://www.garmin.com/xmlschemas/TrackPointExtension/v1">
            <gpxtpx:hr>112</gpxtpx:hr>
          </gpxtpx:TrackPointExtension>
        </extensions>
      </trkpt>
      <trkpt lat="43.11649" lon="1.36369">
        <ele>276</ele>
        <time>2023-03-05T14:06:13Z</time>
        <extensions>
          <gpxtpx:TrackPointExtension xmlns:gpxtpx="http://www.garmin.com/xmlschemas/TrackPointExtension/v1">
            <gpxtpx:hr>112</gpxtpx:hr>
          </gpxtpx:TrackPointExtension>
        </extensions>
      </trkpt>
      <trkpt lat="43.11662" lon="1.3635">
        <ele>276</ele>
        <time>2023-03-05T14:06:18Z</time>
        <extensions>
          <gpxtpx:TrackPointExtension xmlns:gpxtpx="http://www.garmin.com/xmlschemas/TrackPointExtension/v1">
            <gpxtpx:hr>113</gpxtpx:hr>
          </gpxtpx:TrackPointExtension>
        </extensions>
      </trkpt>
      <trkpt lat="43.11665" lon="1.36345">
        <ele>276</ele>
        <time>2023-03-05T14:06:19Z</time>
        <extensions>
          <gpxtpx:TrackPointExtension xmlns:gpxtpx="http://www.garmin.com/xmlschemas/TrackPointExtension/v1">
            <gpxtpx:hr>113</gpxtpx:hr>
          </gpxtpx:TrackPointExtension>
        </extensions>
      </trkpt>
      <trkpt lat="43.11675" lon="1.36329">
        <ele>275.6</ele>
        <time>2023-03-05T14:06:23Z</time>
        <extensions>
          <gpxtpx:TrackPointExtension xmlns:gpxtpx="http://www.garmin.com/xmlschemas/TrackPointExtension/v1">
            <gpxtpx:hr>114</gpxtpx:hr>
          </gpxtpx:TrackPointExtension>
        </extensions>
      </trkpt>
      <trkpt lat="43.11678" lon="1.36324">
        <ele>275</ele>
        <time>2023-03-05T14:06:24Z</time>
        <extensions>
          <gpxtpx:TrackPointExtension xmlns:gpxtpx="http://www.garmin.com/xmlschemas/TrackPointExtension/v1">
            <gpxtpx:hr>114</gpxtpx:hr>
          </gpxtpx:TrackPointExtension>
        </extensions>
      </trkpt>
      <trkpt lat="43.11681" lon="1.3632">
        <ele>274.6</ele>
        <time>2023-03-05T14:06:25Z</time>
        <extensions>
          <gpxtpx:TrackPointExtension xmlns:gpxtpx="http://www.garmin.com/xmlschemas/TrackPointExtension/v1">
            <gpxtpx:hr>114</gpxtpx:hr>
          </gpxtpx:TrackPointExtension>
        </extensions>
      </trkpt>
      <trkpt lat="43.11683" lon="1.36315">
        <ele>274.2</ele>
        <time>2023-03-05T14:06:26Z</time>
        <extensions>
          <gpxtpx:TrackPointExtension xmlns:gpxtpx="http://www.garmin.com/xmlschemas/TrackPointExtension/v1">
            <gpxtpx:hr>114</gpxtpx:hr>
          </gpxtpx:TrackPointExtension>
        </extensions>
      </trkpt>
      <trkpt lat="43.11685" lon="1.36311">
        <ele>273.6</ele>
        <time>2023-03-05T14:06:27Z</time>
        <extensions>
          <gpxtpx:TrackPointExtension xmlns:gpxtpx="http://www.garmin.com/xmlschemas/TrackPointExtension/v1">
            <gpxtpx:hr>114</gpxtpx:hr>
          </gpxtpx:TrackPointExtension>
        </extensions>
      </trkpt>
      <trkpt lat="43.11687" lon="1.36308">
        <ele>273.6</ele>
        <time>2023-03-05T14:06:28Z</time>
        <extensions>
          <gpxtpx:TrackPointExtension xmlns:gpxtpx="http://www.garmin.com/xmlschemas/TrackPointExtension/v1">
            <gpxtpx:hr>114</gpxtpx:hr>
          </gpxtpx:TrackPointExtension>
        </extensions>
      </trkpt>
      <trkpt lat="43.11703" lon="1.36277">
        <ele>273.6</ele>
        <time>2023-03-05T14:06:35Z</time>
        <extensions>
          <gpxtpx:TrackPointExtension xmlns:gpxtpx="http://www.garmin.com/xmlschemas/TrackPointExtension/v1">
            <gpxtpx:hr>114</gpxtpx:hr>
          </gpxtpx:TrackPointExtension>
        </extensions>
      </trkpt>
      <trkpt lat="43.11723" lon="1.36229">
        <ele>273.6</ele>
        <time>2023-03-05T14:06:44Z</time>
        <extensions>
          <gpxtpx:TrackPointExtension xmlns:gpxtpx="http://www.garmin.com/xmlschemas/TrackPointExtension/v1">
            <gpxtpx:hr>115</gpxtpx:hr>
          </gpxtpx:TrackPointExtension>
        </extensions>
      </trkpt>
      <trkpt lat="43.11734" lon="1.3619">
        <ele>273.6</ele>
        <time>2023-03-05T14:06:51Z</time>
        <extensions>
          <gpxtpx:TrackPointExtension xmlns:gpxtpx="http://www.garmin.com/xmlschemas/TrackPointExtension/v1">
            <gpxtpx:hr>115</gpxtpx:hr>
          </gpxtpx:TrackPointExtension>
        </extensions>
      </trkpt>
      <trkpt lat="43.11736" lon="1.36167">
        <ele>273.6</ele>
        <time>2023-03-05T14:06:55Z</time>
        <extensions>
          <gpxtpx:TrackPointExtension xmlns:gpxtpx="http://www.garmin.com/xmlschemas/TrackPointExtension/v1">
            <gpxtpx:hr>115</gpxtpx:hr>
          </gpxtpx:TrackPointExtension>
        </extensions>
      </trkpt>
      <trkpt lat="43.1174" lon="1.36138">
        <ele>273.6</ele>
        <time>2023-03-05T14:07:00Z</time>
        <extensions>
          <gpxtpx:TrackPointExtension xmlns:gpxtpx="http://www.garmin.com/xmlschemas/TrackPointExtension/v1">
            <gpxtpx:hr>108</gpxtpx:hr>
          </gpxtpx:TrackPointExtension>
        </extensions>
      </trkpt>
      <trkpt lat="43.11741" lon="1.36133">
        <ele>273.6</ele>
        <time>2023-03-05T14:07:01Z</time>
        <extensions>
          <gpxtpx:TrackPointExtension xmlns:gpxtpx="http://www.garmin.com/xmlschemas/TrackPointExtension/v1">
            <gpxtpx:hr>108</gpxtpx:hr>
          </gpxtpx:TrackPointExtension>
        </extensions>
      </trkpt>
      <trkpt lat="43.11747" lon="1.3609">
        <ele>273.2</ele>
        <time>2023-03-05T14:07:09Z</time>
        <extensions>
          <gpxtpx:TrackPointExtension xmlns:gpxtpx="http://www.garmin.com/xmlschemas/TrackPointExtension/v1">
            <gpxtpx:hr>108</gpxtpx:hr>
          </gpxtpx:TrackPointExtension>
        </extensions>
      </trkpt>
      <trkpt lat="43.11748" lon="1.36084">
        <ele>272.8</ele>
        <time>2023-03-05T14:07:10Z</time>
        <extensions>
          <gpxtpx:TrackPointExtension xmlns:gpxtpx="http://www.garmin.com/xmlschemas/TrackPointExtension/v1">
            <gpxtpx:hr>102</gpxtpx:hr>
          </gpxtpx:TrackPointExtension>
        </extensions>
      </trkpt>
      <trkpt lat="43.11749" lon="1.36079">
        <ele>272.4</ele>
        <time>2023-03-05T14:07:11Z</time>
        <extensions>
          <gpxtpx:TrackPointExtension xmlns:gpxtpx="http://www.garmin.com/xmlschemas/TrackPointExtension/v1">
            <gpxtpx:hr>102</gpxtpx:hr>
          </gpxtpx:TrackPointExtension>
        </extensions>
      </trkpt>
      <trkpt lat="43.1175" lon="1.36074">
        <ele>272</ele>
        <time>2023-03-05T14:07:12Z</time>
        <extensions>
          <gpxtpx:TrackPointExtension xmlns:gpxtpx="http://www.garmin.com/xmlschemas/TrackPointExtension/v1">
            <gpxtpx:hr>102</gpxtpx:hr>
          </gpxtpx:TrackPointExtension>
        </extensions>
      </trkpt>
      <trkpt lat="43.1175" lon="1.36068">
        <ele>271.6</ele>
        <time>2023-03-05T14:07:13Z</time>
        <extensions>
          <gpxtpx:TrackPointExtension xmlns:gpxtpx="http://www.garmin.com/xmlschemas/TrackPointExtension/v1">
            <gpxtpx:hr>102</gpxtpx:hr>
          </gpxtpx:TrackPointExtension>
        </extensions>
      </trkpt>
      <trkpt lat="43.11754" lon="1.36049">
        <ele>271.6</ele>
        <time>2023-03-05T14:07:17Z</time>
        <extensions>
          <gpxtpx:TrackPointExtension xmlns:gpxtpx="http://www.garmin.com/xmlschemas/TrackPointExtension/v1">
            <gpxtpx:hr>102</gpxtpx:hr>
          </gpxtpx:TrackPointExtension>
        </extensions>
      </trkpt>
      <trkpt lat="43.11765" lon="1.36047">
        <ele>271.6</ele>
        <time>2023-03-05T14:07:20Z</time>
        <extensions>
          <gpxtpx:TrackPointExtension xmlns:gpxtpx="http://www.garmin.com/xmlschemas/TrackPointExtension/v1">
            <gpxtpx:hr>104</gpxtpx:hr>
          </gpxtpx:TrackPointExtension>
        </extensions>
      </trkpt>
      <trkpt lat="43.11772" lon="1.36048">
        <ele>271.6</ele>
        <time>2023-03-05T14:07:22Z</time>
        <extensions>
          <gpxtpx:TrackPointExtension xmlns:gpxtpx="http://www.garmin.com/xmlschemas/TrackPointExtension/v1">
            <gpxtpx:hr>105</gpxtpx:hr>
          </gpxtpx:TrackPointExtension>
        </extensions>
      </trkpt>
      <trkpt lat="43.1179" lon="1.36051">
        <ele>271.6</ele>
        <time>2023-03-05T14:07:27Z</time>
        <extensions>
          <gpxtpx:TrackPointExtension xmlns:gpxtpx="http://www.garmin.com/xmlschemas/TrackPointExtension/v1">
            <gpxtpx:hr>107</gpxtpx:hr>
          </gpxtpx:TrackPointExtension>
        </extensions>
      </trkpt>
      <trkpt lat="43.11803" lon="1.36051">
        <ele>271.6</ele>
        <time>2023-03-05T14:07:31Z</time>
        <extensions>
          <gpxtpx:TrackPointExtension xmlns:gpxtpx="http://www.garmin.com/xmlschemas/TrackPointExtension/v1">
            <gpxtpx:hr>111</gpxtpx:hr>
          </gpxtpx:TrackPointExtension>
        </extensions>
      </trkpt>
      <trkpt lat="43.1181" lon="1.36051">
        <ele>271.6</ele>
        <time>2023-03-05T14:07:33Z</time>
        <extensions>
          <gpxtpx:TrackPointExtension xmlns:gpxtpx="http://www.garmin.com/xmlschemas/TrackPointExtension/v1">
            <gpxtpx:hr>111</gpxtpx:hr>
          </gpxtpx:TrackPointExtension>
        </extensions>
      </trkpt>
      <trkpt lat="43.1182" lon="1.3605">
        <ele>272</ele>
        <time>2023-03-05T14:07:36Z</time>
        <extensions>
          <gpxtpx:TrackPointExtension xmlns:gpxtpx="http://www.garmin.com/xmlschemas/TrackPointExtension/v1">
            <gpxtpx:hr>111</gpxtpx:hr>
          </gpxtpx:TrackPointExtension>
        </extensions>
      </trkpt>
      <trkpt lat="43.11823" lon="1.3605">
        <ele>272.4</ele>
        <time>2023-03-05T14:07:37Z</time>
        <extensions>
          <gpxtpx:TrackPointExtension xmlns:gpxtpx="http://www.garmin.com/xmlschemas/TrackPointExtension/v1">
            <gpxtpx:hr>111</gpxtpx:hr>
          </gpxtpx:TrackPointExtension>
        </extensions>
      </trkpt>
      <trkpt lat="43.11827" lon="1.36049">
        <ele>272.8</ele>
        <time>2023-03-05T14:07:38Z</time>
        <extensions>
          <gpxtpx:TrackPointExtension xmlns:gpxtpx="http://www.garmin.com/xmlschemas/TrackPointExtension/v1">
            <gpxtpx:hr>111</gpxtpx:hr>
          </gpxtpx:TrackPointExtension>
        </extensions>
      </trkpt>
      <trkpt lat="43.1183" lon="1.36047">
        <ele>273.4</ele>
        <time>2023-03-05T14:07:39Z</time>
        <extensions>
          <gpxtpx:TrackPointExtension xmlns:gpxtpx="http://www.garmin.com/xmlschemas/TrackPointExtension/v1">
            <gpxtpx:hr>112</gpxtpx:hr>
          </gpxtpx:TrackPointExtension>
        </extensions>
      </trkpt>
      <trkpt lat="43.11832" lon="1.36046">
        <ele>273.8</ele>
        <time>2023-03-05T14:07:40Z</time>
        <extensions>
          <gpxtpx:TrackPointExtension xmlns:gpxtpx="http://www.garmin.com/xmlschemas/TrackPointExtension/v1">
            <gpxtpx:hr>112</gpxtpx:hr>
          </gpxtpx:TrackPointExtension>
        </extensions>
      </trkpt>
      <trkpt lat="43.11842" lon="1.3604">
        <ele>273.8</ele>
        <time>2023-03-05T14:07:44Z</time>
        <extensions>
          <gpxtpx:TrackPointExtension xmlns:gpxtpx="http://www.garmin.com/xmlschemas/TrackPointExtension/v1">
            <gpxtpx:hr>112</gpxtpx:hr>
          </gpxtpx:TrackPointExtension>
        </extensions>
      </trkpt>
      <trkpt lat="43.11847" lon="1.36038">
        <ele>274.2</ele>
        <time>2023-03-05T14:07:46Z</time>
        <extensions>
          <gpxtpx:TrackPointExtension xmlns:gpxtpx="http://www.garmin.com/xmlschemas/TrackPointExtension/v1">
            <gpxtpx:hr>114</gpxtpx:hr>
          </gpxtpx:TrackPointExtension>
        </extensions>
      </trkpt>
      <trkpt lat="43.11849" lon="1.36037">
        <ele>274.6</ele>
        <time>2023-03-05T14:07:47Z</time>
        <extensions>
          <gpxtpx:TrackPointExtension xmlns:gpxtpx="http://www.garmin.com/xmlschemas/TrackPointExtension/v1">
            <gpxtpx:hr>114</gpxtpx:hr>
          </gpxtpx:TrackPointExtension>
        </extensions>
      </trkpt>
      <trkpt lat="43.11851" lon="1.36036">
        <ele>275</ele>
        <time>2023-03-05T14:07:48Z</time>
        <extensions>
          <gpxtpx:TrackPointExtension xmlns:gpxtpx="http://www.garmin.com/xmlschemas/TrackPointExtension/v1">
            <gpxtpx:hr>114</gpxtpx:hr>
          </gpxtpx:TrackPointExtension>
        </extensions>
      </trkpt>
      <trkpt lat="43.11854" lon="1.36034">
        <ele>275.4</ele>
        <time>2023-03-05T14:07:49Z</time>
        <extensions>
          <gpxtpx:TrackPointExtension xmlns:gpxtpx="http://www.garmin.com/xmlschemas/TrackPointExtension/v1">
            <gpxtpx:hr>114</gpxtpx:hr>
          </gpxtpx:TrackPointExtension>
        </extensions>
      </trkpt>
      <trkpt lat="43.11857" lon="1.36032">
        <ele>275.8</ele>
        <time>2023-03-05T14:07:50Z</time>
        <extensions>
          <gpxtpx:TrackPointExtension xmlns:gpxtpx="http://www.garmin.com/xmlschemas/TrackPointExtension/v1">
            <gpxtpx:hr>114</gpxtpx:hr>
          </gpxtpx:TrackPointExtension>
        </extensions>
      </trkpt>
      <trkpt lat="43.11864" lon="1.36028">
        <ele>276.4</ele>
        <time>2023-03-05T14:07:53Z</time>
        <extensions>
          <gpxtpx:TrackPointExtension xmlns:gpxtpx="http://www.garmin.com/xmlschemas/TrackPointExtension/v1">
            <gpxtpx:hr>114</gpxtpx:hr>
          </gpxtpx:TrackPointExtension>
        </extensions>
      </trkpt>
      <trkpt lat="43.11866" lon="1.36026">
        <ele>277.2</ele>
        <time>2023-03-05T14:07:54Z</time>
        <extensions>
          <gpxtpx:TrackPointExtension xmlns:gpxtpx="http://www.garmin.com/xmlschemas/TrackPointExtension/v1">
            <gpxtpx:hr>117</gpxtpx:hr>
          </gpxtpx:TrackPointExtension>
        </extensions>
      </trkpt>
      <trkpt lat="43.11868" lon="1.36024">
        <ele>277.6</ele>
        <time>2023-03-05T14:07:55Z</time>
        <extensions>
          <gpxtpx:TrackPointExtension xmlns:gpxtpx="http://www.garmin.com/xmlschemas/TrackPointExtension/v1">
            <gpxtpx:hr>119</gpxtpx:hr>
          </gpxtpx:TrackPointExtension>
        </extensions>
      </trkpt>
      <trkpt lat="43.1187" lon="1.36021">
        <ele>278</ele>
        <time>2023-03-05T14:07:56Z</time>
        <extensions>
          <gpxtpx:TrackPointExtension xmlns:gpxtpx="http://www.garmin.com/xmlschemas/TrackPointExtension/v1">
            <gpxtpx:hr>121</gpxtpx:hr>
          </gpxtpx:TrackPointExtension>
        </extensions>
      </trkpt>
      <trkpt lat="43.11872" lon="1.36019">
        <ele>278.6</ele>
        <time>2023-03-05T14:07:57Z</time>
        <extensions>
          <gpxtpx:TrackPointExtension xmlns:gpxtpx="http://www.garmin.com/xmlschemas/TrackPointExtension/v1">
            <gpxtpx:hr>121</gpxtpx:hr>
          </gpxtpx:TrackPointExtension>
        </extensions>
      </trkpt>
      <trkpt lat="43.11874" lon="1.36017">
        <ele>279</ele>
        <time>2023-03-05T14:07:58Z</time>
        <extensions>
          <gpxtpx:TrackPointExtension xmlns:gpxtpx="http://www.garmin.com/xmlschemas/TrackPointExtension/v1">
            <gpxtpx:hr>121</gpxtpx:hr>
          </gpxtpx:TrackPointExtension>
        </extensions>
      </trkpt>
      <trkpt lat="43.11876" lon="1.36015">
        <ele>279.6</ele>
        <time>2023-03-05T14:07:59Z</time>
        <extensions>
          <gpxtpx:TrackPointExtension xmlns:gpxtpx="http://www.garmin.com/xmlschemas/TrackPointExtension/v1">
            <gpxtpx:hr>121</gpxtpx:hr>
          </gpxtpx:TrackPointExtension>
        </extensions>
      </trkpt>
      <trkpt lat="43.11878" lon="1.36013">
        <ele>280</ele>
        <time>2023-03-05T14:08:00Z</time>
        <extensions>
          <gpxtpx:TrackPointExtension xmlns:gpxtpx="http://www.garmin.com/xmlschemas/TrackPointExtension/v1">
            <gpxtpx:hr>121</gpxtpx:hr>
          </gpxtpx:TrackPointExtension>
        </extensions>
      </trkpt>
      <trkpt lat="43.1188" lon="1.36012">
        <ele>280.6</ele>
        <time>2023-03-05T14:08:01Z</time>
        <extensions>
          <gpxtpx:TrackPointExtension xmlns:gpxtpx="http://www.garmin.com/xmlschemas/TrackPointExtension/v1">
            <gpxtpx:hr>121</gpxtpx:hr>
          </gpxtpx:TrackPointExtension>
        </extensions>
      </trkpt>
      <trkpt lat="43.11882" lon="1.3601">
        <ele>281.2</ele>
        <time>2023-03-05T14:08:02Z</time>
        <extensions>
          <gpxtpx:TrackPointExtension xmlns:gpxtpx="http://www.garmin.com/xmlschemas/TrackPointExtension/v1">
            <gpxtpx:hr>121</gpxtpx:hr>
          </gpxtpx:TrackPointExtension>
        </extensions>
      </trkpt>
      <trkpt lat="43.11884" lon="1.36009">
        <ele>281.6</ele>
        <time>2023-03-05T14:08:03Z</time>
        <extensions>
          <gpxtpx:TrackPointExtension xmlns:gpxtpx="http://www.garmin.com/xmlschemas/TrackPointExtension/v1">
            <gpxtpx:hr>121</gpxtpx:hr>
          </gpxtpx:TrackPointExtension>
        </extensions>
      </trkpt>
      <trkpt lat="43.11886" lon="1.36008">
        <ele>282.2</ele>
        <time>2023-03-05T14:08:04Z</time>
        <extensions>
          <gpxtpx:TrackPointExtension xmlns:gpxtpx="http://www.garmin.com/xmlschemas/TrackPointExtension/v1">
            <gpxtpx:hr>121</gpxtpx:hr>
          </gpxtpx:TrackPointExtension>
        </extensions>
      </trkpt>
      <trkpt lat="43.11888" lon="1.36007">
        <ele>282.8</ele>
        <time>2023-03-05T14:08:05Z</time>
        <extensions>
          <gpxtpx:TrackPointExtension xmlns:gpxtpx="http://www.garmin.com/xmlschemas/TrackPointExtension/v1">
            <gpxtpx:hr>121</gpxtpx:hr>
          </gpxtpx:TrackPointExtension>
        </extensions>
      </trkpt>
      <trkpt lat="43.1189" lon="1.36004">
        <ele>283.2</ele>
        <time>2023-03-05T14:08:06Z</time>
        <extensions>
          <gpxtpx:TrackPointExtension xmlns:gpxtpx="http://www.garmin.com/xmlschemas/TrackPointExtension/v1">
            <gpxtpx:hr>121</gpxtpx:hr>
          </gpxtpx:TrackPointExtension>
        </extensions>
      </trkpt>
      <trkpt lat="43.11892" lon="1.36003">
        <ele>283.8</ele>
        <time>2023-03-05T14:08:07Z</time>
        <extensions>
          <gpxtpx:TrackPointExtension xmlns:gpxtpx="http://www.garmin.com/xmlschemas/TrackPointExtension/v1">
            <gpxtpx:hr>121</gpxtpx:hr>
          </gpxtpx:TrackPointExtension>
        </extensions>
      </trkpt>
      <trkpt lat="43.11893" lon="1.36002">
        <ele>284.4</ele>
        <time>2023-03-05T14:08:08Z</time>
        <extensions>
          <gpxtpx:TrackPointExtension xmlns:gpxtpx="http://www.garmin.com/xmlschemas/TrackPointExtension/v1">
            <gpxtpx:hr>121</gpxtpx:hr>
          </gpxtpx:TrackPointExtension>
        </extensions>
      </trkpt>
      <trkpt lat="43.11896" lon="1.36">
        <ele>284.8</ele>
        <time>2023-03-05T14:08:09Z</time>
        <extensions>
          <gpxtpx:TrackPointExtension xmlns:gpxtpx="http://www.garmin.com/xmlschemas/TrackPointExtension/v1">
            <gpxtpx:hr>121</gpxtpx:hr>
          </gpxtpx:TrackPointExtension>
        </extensions>
      </trkpt>
      <trkpt lat="43.11898" lon="1.35998">
        <ele>285.4</ele>
        <time>2023-03-05T14:08:10Z</time>
        <extensions>
          <gpxtpx:TrackPointExtension xmlns:gpxtpx="http://www.garmin.com/xmlschemas/TrackPointExtension/v1">
            <gpxtpx:hr>121</gpxtpx:hr>
          </gpxtpx:TrackPointExtension>
        </extensions>
      </trkpt>
      <trkpt lat="43.11901" lon="1.35997">
        <ele>285.8</ele>
        <time>2023-03-05T14:08:11Z</time>
        <extensions>
          <gpxtpx:TrackPointExtension xmlns:gpxtpx="http://www.garmin.com/xmlschemas/TrackPointExtension/v1">
            <gpxtpx:hr>121</gpxtpx:hr>
          </gpxtpx:TrackPointExtension>
        </extensions>
      </trkpt>
      <trkpt lat="43.11903" lon="1.35995">
        <ele>286.2</ele>
        <time>2023-03-05T14:08:12Z</time>
        <extensions>
          <gpxtpx:TrackPointExtension xmlns:gpxtpx="http://www.garmin.com/xmlschemas/TrackPointExtension/v1">
            <gpxtpx:hr>121</gpxtpx:hr>
          </gpxtpx:TrackPointExtension>
        </extensions>
      </trkpt>
      <trkpt lat="43.11905" lon="1.35993">
        <ele>286.6</ele>
        <time>2023-03-05T14:08:13Z</time>
        <extensions>
          <gpxtpx:TrackPointExtension xmlns:gpxtpx="http://www.garmin.com/xmlschemas/TrackPointExtension/v1">
            <gpxtpx:hr>121</gpxtpx:hr>
          </gpxtpx:TrackPointExtension>
        </extensions>
      </trkpt>
      <trkpt lat="43.11908" lon="1.35992">
        <ele>287.2</ele>
        <time>2023-03-05T14:08:14Z</time>
        <extensions>
          <gpxtpx:TrackPointExtension xmlns:gpxtpx="http://www.garmin.com/xmlschemas/TrackPointExtension/v1">
            <gpxtpx:hr>121</gpxtpx:hr>
          </gpxtpx:TrackPointExtension>
        </extensions>
      </trkpt>
      <trkpt lat="43.11912" lon="1.35988">
        <ele>287.6</ele>
        <time>2023-03-05T14:08:16Z</time>
        <extensions>
          <gpxtpx:TrackPointExtension xmlns:gpxtpx="http://www.garmin.com/xmlschemas/TrackPointExtension/v1">
            <gpxtpx:hr>126</gpxtpx:hr>
          </gpxtpx:TrackPointExtension>
        </extensions>
      </trkpt>
      <trkpt lat="43.11914" lon="1.35986">
        <ele>288</ele>
        <time>2023-03-05T14:08:17Z</time>
        <extensions>
          <gpxtpx:TrackPointExtension xmlns:gpxtpx="http://www.garmin.com/xmlschemas/TrackPointExtension/v1">
            <gpxtpx:hr>126</gpxtpx:hr>
          </gpxtpx:TrackPointExtension>
        </extensions>
      </trkpt>
      <trkpt lat="43.11917" lon="1.35984">
        <ele>288.8</ele>
        <time>2023-03-05T14:08:18Z</time>
        <extensions>
          <gpxtpx:TrackPointExtension xmlns:gpxtpx="http://www.garmin.com/xmlschemas/TrackPointExtension/v1">
            <gpxtpx:hr>126</gpxtpx:hr>
          </gpxtpx:TrackPointExtension>
        </extensions>
      </trkpt>
      <trkpt lat="43.1192" lon="1.35982">
        <ele>289.4</ele>
        <time>2023-03-05T14:08:19Z</time>
        <extensions>
          <gpxtpx:TrackPointExtension xmlns:gpxtpx="http://www.garmin.com/xmlschemas/TrackPointExtension/v1">
            <gpxtpx:hr>128</gpxtpx:hr>
          </gpxtpx:TrackPointExtension>
        </extensions>
      </trkpt>
      <trkpt lat="43.11925" lon="1.35979">
        <ele>289.8</ele>
        <time>2023-03-05T14:08:21Z</time>
        <extensions>
          <gpxtpx:TrackPointExtension xmlns:gpxtpx="http://www.garmin.com/xmlschemas/TrackPointExtension/v1">
            <gpxtpx:hr>129</gpxtpx:hr>
          </gpxtpx:TrackPointExtension>
        </extensions>
      </trkpt>
      <trkpt lat="43.11927" lon="1.35977">
        <ele>290.2</ele>
        <time>2023-03-05T14:08:22Z</time>
        <extensions>
          <gpxtpx:TrackPointExtension xmlns:gpxtpx="http://www.garmin.com/xmlschemas/TrackPointExtension/v1">
            <gpxtpx:hr>129</gpxtpx:hr>
          </gpxtpx:TrackPointExtension>
        </extensions>
      </trkpt>
      <trkpt lat="43.11929" lon="1.35975">
        <ele>290.8</ele>
        <time>2023-03-05T14:08:23Z</time>
        <extensions>
          <gpxtpx:TrackPointExtension xmlns:gpxtpx="http://www.garmin.com/xmlschemas/TrackPointExtension/v1">
            <gpxtpx:hr>129</gpxtpx:hr>
          </gpxtpx:TrackPointExtension>
        </extensions>
      </trkpt>
      <trkpt lat="43.11932" lon="1.35974">
        <ele>291.2</ele>
        <time>2023-03-05T14:08:24Z</time>
        <extensions>
          <gpxtpx:TrackPointExtension xmlns:gpxtpx="http://www.garmin.com/xmlschemas/TrackPointExtension/v1">
            <gpxtpx:hr>129</gpxtpx:hr>
          </gpxtpx:TrackPointExtension>
        </extensions>
      </trkpt>
      <trkpt lat="43.11935" lon="1.35972">
        <ele>291.8</ele>
        <time>2023-03-05T14:08:25Z</time>
        <extensions>
          <gpxtpx:TrackPointExtension xmlns:gpxtpx="http://www.garmin.com/xmlschemas/TrackPointExtension/v1">
            <gpxtpx:hr>129</gpxtpx:hr>
          </gpxtpx:TrackPointExtension>
        </extensions>
      </trkpt>
      <trkpt lat="43.11939" lon="1.35968">
        <ele>292.2</ele>
        <time>2023-03-05T14:08:27Z</time>
        <extensions>
          <gpxtpx:TrackPointExtension xmlns:gpxtpx="http://www.garmin.com/xmlschemas/TrackPointExtension/v1">
            <gpxtpx:hr>129</gpxtpx:hr>
          </gpxtpx:TrackPointExtension>
        </extensions>
      </trkpt>
      <trkpt lat="43.11941" lon="1.35966">
        <ele>292.6</ele>
        <time>2023-03-05T14:08:28Z</time>
        <extensions>
          <gpxtpx:TrackPointExtension xmlns:gpxtpx="http://www.garmin.com/xmlschemas/TrackPointExtension/v1">
            <gpxtpx:hr>129</gpxtpx:hr>
          </gpxtpx:TrackPointExtension>
        </extensions>
      </trkpt>
      <trkpt lat="43.11943" lon="1.35965">
        <ele>293</ele>
        <time>2023-03-05T14:08:29Z</time>
        <extensions>
          <gpxtpx:TrackPointExtension xmlns:gpxtpx="http://www.garmin.com/xmlschemas/TrackPointExtension/v1">
            <gpxtpx:hr>129</gpxtpx:hr>
          </gpxtpx:TrackPointExtension>
        </extensions>
      </trkpt>
      <trkpt lat="43.11945" lon="1.35965">
        <ele>293.4</ele>
        <time>2023-03-05T14:08:30Z</time>
        <extensions>
          <gpxtpx:TrackPointExtension xmlns:gpxtpx="http://www.garmin.com/xmlschemas/TrackPointExtension/v1">
            <gpxtpx:hr>121</gpxtpx:hr>
          </gpxtpx:TrackPointExtension>
        </extensions>
      </trkpt>
      <trkpt lat="43.11948" lon="1.35964">
        <ele>293.8</ele>
        <time>2023-03-05T14:08:31Z</time>
        <extensions>
          <gpxtpx:TrackPointExtension xmlns:gpxtpx="http://www.garmin.com/xmlschemas/TrackPointExtension/v1">
            <gpxtpx:hr>121</gpxtpx:hr>
          </gpxtpx:TrackPointExtension>
        </extensions>
      </trkpt>
      <trkpt lat="43.11953" lon="1.35961">
        <ele>294.2</ele>
        <time>2023-03-05T14:08:33Z</time>
        <extensions>
          <gpxtpx:TrackPointExtension xmlns:gpxtpx="http://www.garmin.com/xmlschemas/TrackPointExtension/v1">
            <gpxtpx:hr>121</gpxtpx:hr>
          </gpxtpx:TrackPointExtension>
        </extensions>
      </trkpt>
      <trkpt lat="43.11955" lon="1.3596">
        <ele>294.6</ele>
        <time>2023-03-05T14:08:34Z</time>
        <extensions>
          <gpxtpx:TrackPointExtension xmlns:gpxtpx="http://www.garmin.com/xmlschemas/TrackPointExtension/v1">
            <gpxtpx:hr>121</gpxtpx:hr>
          </gpxtpx:TrackPointExtension>
        </extensions>
      </trkpt>
      <trkpt lat="43.11957" lon="1.35961">
        <ele>295.2</ele>
        <time>2023-03-05T14:08:35Z</time>
        <extensions>
          <gpxtpx:TrackPointExtension xmlns:gpxtpx="http://www.garmin.com/xmlschemas/TrackPointExtension/v1">
            <gpxtpx:hr>121</gpxtpx:hr>
          </gpxtpx:TrackPointExtension>
        </extensions>
      </trkpt>
      <trkpt lat="43.11959" lon="1.35962">
        <ele>295.6</ele>
        <time>2023-03-05T14:08:36Z</time>
        <extensions>
          <gpxtpx:TrackPointExtension xmlns:gpxtpx="http://www.garmin.com/xmlschemas/TrackPointExtension/v1">
            <gpxtpx:hr>121</gpxtpx:hr>
          </gpxtpx:TrackPointExtension>
        </extensions>
      </trkpt>
      <trkpt lat="43.11962" lon="1.35963">
        <ele>296</ele>
        <time>2023-03-05T14:08:37Z</time>
        <extensions>
          <gpxtpx:TrackPointExtension xmlns:gpxtpx="http://www.garmin.com/xmlschemas/TrackPointExtension/v1">
            <gpxtpx:hr>121</gpxtpx:hr>
          </gpxtpx:TrackPointExtension>
        </extensions>
      </trkpt>
      <trkpt lat="43.11971" lon="1.35976">
        <ele>296</ele>
        <time>2023-03-05T14:08:42Z</time>
        <extensions>
          <gpxtpx:TrackPointExtension xmlns:gpxtpx="http://www.garmin.com/xmlschemas/TrackPointExtension/v1">
            <gpxtpx:hr>123</gpxtpx:hr>
          </gpxtpx:TrackPointExtension>
        </extensions>
      </trkpt>
      <trkpt lat="43.11972" lon="1.35979">
        <ele>296.4</ele>
        <time>2023-03-05T14:08:43Z</time>
        <extensions>
          <gpxtpx:TrackPointExtension xmlns:gpxtpx="http://www.garmin.com/xmlschemas/TrackPointExtension/v1">
            <gpxtpx:hr>123</gpxtpx:hr>
          </gpxtpx:TrackPointExtension>
        </extensions>
      </trkpt>
      <trkpt lat="43.11973" lon="1.35981">
        <ele>296.8</ele>
        <time>2023-03-05T14:08:44Z</time>
        <extensions>
          <gpxtpx:TrackPointExtension xmlns:gpxtpx="http://www.garmin.com/xmlschemas/TrackPointExtension/v1">
            <gpxtpx:hr>123</gpxtpx:hr>
          </gpxtpx:TrackPointExtension>
        </extensions>
      </trkpt>
      <trkpt lat="43.11975" lon="1.35984">
        <ele>297.2</ele>
        <time>2023-03-05T14:08:45Z</time>
        <extensions>
          <gpxtpx:TrackPointExtension xmlns:gpxtpx="http://www.garmin.com/xmlschemas/TrackPointExtension/v1">
            <gpxtpx:hr>123</gpxtpx:hr>
          </gpxtpx:TrackPointExtension>
        </extensions>
      </trkpt>
      <trkpt lat="43.11976" lon="1.35987">
        <ele>297.6</ele>
        <time>2023-03-05T14:08:46Z</time>
        <extensions>
          <gpxtpx:TrackPointExtension xmlns:gpxtpx="http://www.garmin.com/xmlschemas/TrackPointExtension/v1">
            <gpxtpx:hr>123</gpxtpx:hr>
          </gpxtpx:TrackPointExtension>
        </extensions>
      </trkpt>
      <trkpt lat="43.11977" lon="1.3599">
        <ele>298</ele>
        <time>2023-03-05T14:08:47Z</time>
        <extensions>
          <gpxtpx:TrackPointExtension xmlns:gpxtpx="http://www.garmin.com/xmlschemas/TrackPointExtension/v1">
            <gpxtpx:hr>123</gpxtpx:hr>
          </gpxtpx:TrackPointExtension>
        </extensions>
      </trkpt>
      <trkpt lat="43.11981" lon="1.36005">
        <ele>298.4</ele>
        <time>2023-03-05T14:08:52Z</time>
        <extensions>
          <gpxtpx:TrackPointExtension xmlns:gpxtpx="http://www.garmin.com/xmlschemas/TrackPointExtension/v1">
            <gpxtpx:hr>123</gpxtpx:hr>
          </gpxtpx:TrackPointExtension>
        </extensions>
      </trkpt>
      <trkpt lat="43.11982" lon="1.36008">
        <ele>299</ele>
        <time>2023-03-05T14:08:53Z</time>
        <extensions>
          <gpxtpx:TrackPointExtension xmlns:gpxtpx="http://www.garmin.com/xmlschemas/TrackPointExtension/v1">
            <gpxtpx:hr>123</gpxtpx:hr>
          </gpxtpx:TrackPointExtension>
        </extensions>
      </trkpt>
      <trkpt lat="43.11982" lon="1.36011">
        <ele>299.4</ele>
        <time>2023-03-05T14:08:54Z</time>
        <extensions>
          <gpxtpx:TrackPointExtension xmlns:gpxtpx="http://www.garmin.com/xmlschemas/TrackPointExtension/v1">
            <gpxtpx:hr>123</gpxtpx:hr>
          </gpxtpx:TrackPointExtension>
        </extensions>
      </trkpt>
      <trkpt lat="43.11983" lon="1.36014">
        <ele>299.8</ele>
        <time>2023-03-05T14:08:55Z</time>
        <extensions>
          <gpxtpx:TrackPointExtension xmlns:gpxtpx="http://www.garmin.com/xmlschemas/TrackPointExtension/v1">
            <gpxtpx:hr>123</gpxtpx:hr>
          </gpxtpx:TrackPointExtension>
        </extensions>
      </trkpt>
      <trkpt lat="43.11983" lon="1.36018">
        <ele>300.2</ele>
        <time>2023-03-05T14:08:56Z</time>
        <extensions>
          <gpxtpx:TrackPointExtension xmlns:gpxtpx="http://www.garmin.com/xmlschemas/TrackPointExtension/v1">
            <gpxtpx:hr>127</gpxtpx:hr>
          </gpxtpx:TrackPointExtension>
        </extensions>
      </trkpt>
      <trkpt lat="43.11984" lon="1.36023">
        <ele>300.6</ele>
        <time>2023-03-05T14:08:58Z</time>
        <extensions>
          <gpxtpx:TrackPointExtension xmlns:gpxtpx="http://www.garmin.com/xmlschemas/TrackPointExtension/v1">
            <gpxtpx:hr>127</gpxtpx:hr>
          </gpxtpx:TrackPointExtension>
        </extensions>
      </trkpt>
      <trkpt lat="43.11984" lon="1.36027">
        <ele>301</ele>
        <time>2023-03-05T14:08:59Z</time>
        <extensions>
          <gpxtpx:TrackPointExtension xmlns:gpxtpx="http://www.garmin.com/xmlschemas/TrackPointExtension/v1">
            <gpxtpx:hr>127</gpxtpx:hr>
          </gpxtpx:TrackPointExtension>
        </extensions>
      </trkpt>
      <trkpt lat="43.11985" lon="1.3603">
        <ele>301.6</ele>
        <time>2023-03-05T14:09:00Z</time>
        <extensions>
          <gpxtpx:TrackPointExtension xmlns:gpxtpx="http://www.garmin.com/xmlschemas/TrackPointExtension/v1">
            <gpxtpx:hr>127</gpxtpx:hr>
          </gpxtpx:TrackPointExtension>
        </extensions>
      </trkpt>
      <trkpt lat="43.11985" lon="1.36033">
        <ele>302</ele>
        <time>2023-03-05T14:09:01Z</time>
        <extensions>
          <gpxtpx:TrackPointExtension xmlns:gpxtpx="http://www.garmin.com/xmlschemas/TrackPointExtension/v1">
            <gpxtpx:hr>127</gpxtpx:hr>
          </gpxtpx:TrackPointExtension>
        </extensions>
      </trkpt>
      <trkpt lat="43.11985" lon="1.36035">
        <ele>302.4</ele>
        <time>2023-03-05T14:09:02Z</time>
        <extensions>
          <gpxtpx:TrackPointExtension xmlns:gpxtpx="http://www.garmin.com/xmlschemas/TrackPointExtension/v1">
            <gpxtpx:hr>127</gpxtpx:hr>
          </gpxtpx:TrackPointExtension>
        </extensions>
      </trkpt>
      <trkpt lat="43.11986" lon="1.36037">
        <ele>302.8</ele>
        <time>2023-03-05T14:09:03Z</time>
        <extensions>
          <gpxtpx:TrackPointExtension xmlns:gpxtpx="http://www.garmin.com/xmlschemas/TrackPointExtension/v1">
            <gpxtpx:hr>127</gpxtpx:hr>
          </gpxtpx:TrackPointExtension>
        </extensions>
      </trkpt>
      <trkpt lat="43.11987" lon="1.3604">
        <ele>303.2</ele>
        <time>2023-03-05T14:09:04Z</time>
        <extensions>
          <gpxtpx:TrackPointExtension xmlns:gpxtpx="http://www.garmin.com/xmlschemas/TrackPointExtension/v1">
            <gpxtpx:hr>127</gpxtpx:hr>
          </gpxtpx:TrackPointExtension>
        </extensions>
      </trkpt>
      <trkpt lat="43.11988" lon="1.36043">
        <ele>303.6</ele>
        <time>2023-03-05T14:09:05Z</time>
        <extensions>
          <gpxtpx:TrackPointExtension xmlns:gpxtpx="http://www.garmin.com/xmlschemas/TrackPointExtension/v1">
            <gpxtpx:hr>127</gpxtpx:hr>
          </gpxtpx:TrackPointExtension>
        </extensions>
      </trkpt>
      <trkpt lat="43.11988" lon="1.36046">
        <ele>304</ele>
        <time>2023-03-05T14:09:06Z</time>
        <extensions>
          <gpxtpx:TrackPointExtension xmlns:gpxtpx="http://www.garmin.com/xmlschemas/TrackPointExtension/v1">
            <gpxtpx:hr>127</gpxtpx:hr>
          </gpxtpx:TrackPointExtension>
        </extensions>
      </trkpt>
      <trkpt lat="43.11989" lon="1.36048">
        <ele>304.4</ele>
        <time>2023-03-05T14:09:07Z</time>
        <extensions>
          <gpxtpx:TrackPointExtension xmlns:gpxtpx="http://www.garmin.com/xmlschemas/TrackPointExtension/v1">
            <gpxtpx:hr>127</gpxtpx:hr>
          </gpxtpx:TrackPointExtension>
        </extensions>
      </trkpt>
      <trkpt lat="43.11989" lon="1.36051">
        <ele>305.2</ele>
        <time>2023-03-05T14:09:08Z</time>
        <extensions>
          <gpxtpx:TrackPointExtension xmlns:gpxtpx="http://www.garmin.com/xmlschemas/TrackPointExtension/v1">
            <gpxtpx:hr>127</gpxtpx:hr>
          </gpxtpx:TrackPointExtension>
        </extensions>
      </trkpt>
      <trkpt lat="43.11989" lon="1.36054">
        <ele>305.6</ele>
        <time>2023-03-05T14:09:09Z</time>
        <extensions>
          <gpxtpx:TrackPointExtension xmlns:gpxtpx="http://www.garmin.com/xmlschemas/TrackPointExtension/v1">
            <gpxtpx:hr>127</gpxtpx:hr>
          </gpxtpx:TrackPointExtension>
        </extensions>
      </trkpt>
      <trkpt lat="43.1199" lon="1.36057">
        <ele>306</ele>
        <time>2023-03-05T14:09:10Z</time>
        <extensions>
          <gpxtpx:TrackPointExtension xmlns:gpxtpx="http://www.garmin.com/xmlschemas/TrackPointExtension/v1">
            <gpxtpx:hr>127</gpxtpx:hr>
          </gpxtpx:TrackPointExtension>
        </extensions>
      </trkpt>
      <trkpt lat="43.1199" lon="1.3606">
        <ele>306.4</ele>
        <time>2023-03-05T14:09:11Z</time>
        <extensions>
          <gpxtpx:TrackPointExtension xmlns:gpxtpx="http://www.garmin.com/xmlschemas/TrackPointExtension/v1">
            <gpxtpx:hr>127</gpxtpx:hr>
          </gpxtpx:TrackPointExtension>
        </extensions>
      </trkpt>
      <trkpt lat="43.11991" lon="1.36063">
        <ele>306.4</ele>
        <time>2023-03-05T14:09:12Z</time>
        <extensions>
          <gpxtpx:TrackPointExtension xmlns:gpxtpx="http://www.garmin.com/xmlschemas/TrackPointExtension/v1">
            <gpxtpx:hr>127</gpxtpx:hr>
          </gpxtpx:TrackPointExtension>
        </extensions>
      </trkpt>
      <trkpt lat="43.11991" lon="1.36065">
        <ele>307</ele>
        <time>2023-03-05T14:09:13Z</time>
        <extensions>
          <gpxtpx:TrackPointExtension xmlns:gpxtpx="http://www.garmin.com/xmlschemas/TrackPointExtension/v1">
            <gpxtpx:hr>127</gpxtpx:hr>
          </gpxtpx:TrackPointExtension>
        </extensions>
      </trkpt>
      <trkpt lat="43.11992" lon="1.36067">
        <ele>307.4</ele>
        <time>2023-03-05T14:09:14Z</time>
        <extensions>
          <gpxtpx:TrackPointExtension xmlns:gpxtpx="http://www.garmin.com/xmlschemas/TrackPointExtension/v1">
            <gpxtpx:hr>127</gpxtpx:hr>
          </gpxtpx:TrackPointExtension>
        </extensions>
      </trkpt>
      <trkpt lat="43.11993" lon="1.3607">
        <ele>307.8</ele>
        <time>2023-03-05T14:09:15Z</time>
        <extensions>
          <gpxtpx:TrackPointExtension xmlns:gpxtpx="http://www.garmin.com/xmlschemas/TrackPointExtension/v1">
            <gpxtpx:hr>127</gpxtpx:hr>
          </gpxtpx:TrackPointExtension>
        </extensions>
      </trkpt>
      <trkpt lat="43.11994" lon="1.36072">
        <ele>308.2</ele>
        <time>2023-03-05T14:09:16Z</time>
        <extensions>
          <gpxtpx:TrackPointExtension xmlns:gpxtpx="http://www.garmin.com/xmlschemas/TrackPointExtension/v1">
            <gpxtpx:hr>127</gpxtpx:hr>
          </gpxtpx:TrackPointExtension>
        </extensions>
      </trkpt>
      <trkpt lat="43.11995" lon="1.36074">
        <ele>308.8</ele>
        <time>2023-03-05T14:09:17Z</time>
        <extensions>
          <gpxtpx:TrackPointExtension xmlns:gpxtpx="http://www.garmin.com/xmlschemas/TrackPointExtension/v1">
            <gpxtpx:hr>127</gpxtpx:hr>
          </gpxtpx:TrackPointExtension>
        </extensions>
      </trkpt>
      <trkpt lat="43.11998" lon="1.36082">
        <ele>309.2</ele>
        <time>2023-03-05T14:09:20Z</time>
        <extensions>
          <gpxtpx:TrackPointExtension xmlns:gpxtpx="http://www.garmin.com/xmlschemas/TrackPointExtension/v1">
            <gpxtpx:hr>127</gpxtpx:hr>
          </gpxtpx:TrackPointExtension>
        </extensions>
      </trkpt>
      <trkpt lat="43.12" lon="1.36084">
        <ele>309.6</ele>
        <time>2023-03-05T14:09:21Z</time>
        <extensions>
          <gpxtpx:TrackPointExtension xmlns:gpxtpx="http://www.garmin.com/xmlschemas/TrackPointExtension/v1">
            <gpxtpx:hr>127</gpxtpx:hr>
          </gpxtpx:TrackPointExtension>
        </extensions>
      </trkpt>
      <trkpt lat="43.12001" lon="1.36087">
        <ele>310</ele>
        <time>2023-03-05T14:09:22Z</time>
        <extensions>
          <gpxtpx:TrackPointExtension xmlns:gpxtpx="http://www.garmin.com/xmlschemas/TrackPointExtension/v1">
            <gpxtpx:hr>127</gpxtpx:hr>
          </gpxtpx:TrackPointExtension>
        </extensions>
      </trkpt>
      <trkpt lat="43.12003" lon="1.3609">
        <ele>310.4</ele>
        <time>2023-03-05T14:09:23Z</time>
        <extensions>
          <gpxtpx:TrackPointExtension xmlns:gpxtpx="http://www.garmin.com/xmlschemas/TrackPointExtension/v1">
            <gpxtpx:hr>127</gpxtpx:hr>
          </gpxtpx:TrackPointExtension>
        </extensions>
      </trkpt>
      <trkpt lat="43.12004" lon="1.36092">
        <ele>310.8</ele>
        <time>2023-03-05T14:09:24Z</time>
        <extensions>
          <gpxtpx:TrackPointExtension xmlns:gpxtpx="http://www.garmin.com/xmlschemas/TrackPointExtension/v1">
            <gpxtpx:hr>130</gpxtpx:hr>
          </gpxtpx:TrackPointExtension>
        </extensions>
      </trkpt>
      <trkpt lat="43.12007" lon="1.36098">
        <ele>310.8</ele>
        <time>2023-03-05T14:09:26Z</time>
        <extensions>
          <gpxtpx:TrackPointExtension xmlns:gpxtpx="http://www.garmin.com/xmlschemas/TrackPointExtension/v1">
            <gpxtpx:hr>130</gpxtpx:hr>
          </gpxtpx:TrackPointExtension>
        </extensions>
      </trkpt>
      <trkpt lat="43.12008" lon="1.361">
        <ele>311.2</ele>
        <time>2023-03-05T14:09:27Z</time>
        <extensions>
          <gpxtpx:TrackPointExtension xmlns:gpxtpx="http://www.garmin.com/xmlschemas/TrackPointExtension/v1">
            <gpxtpx:hr>130</gpxtpx:hr>
          </gpxtpx:TrackPointExtension>
        </extensions>
      </trkpt>
      <trkpt lat="43.12009" lon="1.36103">
        <ele>311.6</ele>
        <time>2023-03-05T14:09:28Z</time>
        <extensions>
          <gpxtpx:TrackPointExtension xmlns:gpxtpx="http://www.garmin.com/xmlschemas/TrackPointExtension/v1">
            <gpxtpx:hr>130</gpxtpx:hr>
          </gpxtpx:TrackPointExtension>
        </extensions>
      </trkpt>
      <trkpt lat="43.12011" lon="1.36105">
        <ele>312</ele>
        <time>2023-03-05T14:09:29Z</time>
        <extensions>
          <gpxtpx:TrackPointExtension xmlns:gpxtpx="http://www.garmin.com/xmlschemas/TrackPointExtension/v1">
            <gpxtpx:hr>130</gpxtpx:hr>
          </gpxtpx:TrackPointExtension>
        </extensions>
      </trkpt>
      <trkpt lat="43.12012" lon="1.36107">
        <ele>312.4</ele>
        <time>2023-03-05T14:09:30Z</time>
        <extensions>
          <gpxtpx:TrackPointExtension xmlns:gpxtpx="http://www.garmin.com/xmlschemas/TrackPointExtension/v1">
            <gpxtpx:hr>130</gpxtpx:hr>
          </gpxtpx:TrackPointExtension>
        </extensions>
      </trkpt>
      <trkpt lat="43.12014" lon="1.36109">
        <ele>312.8</ele>
        <time>2023-03-05T14:09:31Z</time>
        <extensions>
          <gpxtpx:TrackPointExtension xmlns:gpxtpx="http://www.garmin.com/xmlschemas/TrackPointExtension/v1">
            <gpxtpx:hr>130</gpxtpx:hr>
          </gpxtpx:TrackPointExtension>
        </extensions>
      </trkpt>
      <trkpt lat="43.12016" lon="1.36114">
        <ele>313.4</ele>
        <time>2023-03-05T14:09:33Z</time>
        <extensions>
          <gpxtpx:TrackPointExtension xmlns:gpxtpx="http://www.garmin.com/xmlschemas/TrackPointExtension/v1">
            <gpxtpx:hr>130</gpxtpx:hr>
          </gpxtpx:TrackPointExtension>
        </extensions>
      </trkpt>
      <trkpt lat="43.12017" lon="1.36116">
        <ele>313.8</ele>
        <time>2023-03-05T14:09:34Z</time>
        <extensions>
          <gpxtpx:TrackPointExtension xmlns:gpxtpx="http://www.garmin.com/xmlschemas/TrackPointExtension/v1">
            <gpxtpx:hr>130</gpxtpx:hr>
          </gpxtpx:TrackPointExtension>
        </extensions>
      </trkpt>
      <trkpt lat="43.12019" lon="1.36119">
        <ele>314.2</ele>
        <time>2023-03-05T14:09:35Z</time>
        <extensions>
          <gpxtpx:TrackPointExtension xmlns:gpxtpx="http://www.garmin.com/xmlschemas/TrackPointExtension/v1">
            <gpxtpx:hr>130</gpxtpx:hr>
          </gpxtpx:TrackPointExtension>
        </extensions>
      </trkpt>
      <trkpt lat="43.12021" lon="1.36121">
        <ele>314.8</ele>
        <time>2023-03-05T14:09:36Z</time>
        <extensions>
          <gpxtpx:TrackPointExtension xmlns:gpxtpx="http://www.garmin.com/xmlschemas/TrackPointExtension/v1">
            <gpxtpx:hr>130</gpxtpx:hr>
          </gpxtpx:TrackPointExtension>
        </extensions>
      </trkpt>
      <trkpt lat="43.12022" lon="1.36123">
        <ele>315.2</ele>
        <time>2023-03-05T14:09:37Z</time>
        <extensions>
          <gpxtpx:TrackPointExtension xmlns:gpxtpx="http://www.garmin.com/xmlschemas/TrackPointExtension/v1">
            <gpxtpx:hr>130</gpxtpx:hr>
          </gpxtpx:TrackPointExtension>
        </extensions>
      </trkpt>
      <trkpt lat="43.12025" lon="1.36128">
        <ele>315.2</ele>
        <time>2023-03-05T14:09:39Z</time>
        <extensions>
          <gpxtpx:TrackPointExtension xmlns:gpxtpx="http://www.garmin.com/xmlschemas/TrackPointExtension/v1">
            <gpxtpx:hr>130</gpxtpx:hr>
          </gpxtpx:TrackPointExtension>
        </extensions>
      </trkpt>
      <trkpt lat="43.12026" lon="1.3613">
        <ele>315.6</ele>
        <time>2023-03-05T14:09:40Z</time>
        <extensions>
          <gpxtpx:TrackPointExtension xmlns:gpxtpx="http://www.garmin.com/xmlschemas/TrackPointExtension/v1">
            <gpxtpx:hr>130</gpxtpx:hr>
          </gpxtpx:TrackPointExtension>
        </extensions>
      </trkpt>
      <trkpt lat="43.12027" lon="1.36132">
        <ele>316</ele>
        <time>2023-03-05T14:09:41Z</time>
        <extensions>
          <gpxtpx:TrackPointExtension xmlns:gpxtpx="http://www.garmin.com/xmlschemas/TrackPointExtension/v1">
            <gpxtpx:hr>130</gpxtpx:hr>
          </gpxtpx:TrackPointExtension>
        </extensions>
      </trkpt>
      <trkpt lat="43.12029" lon="1.36134">
        <ele>316.6</ele>
        <time>2023-03-05T14:09:42Z</time>
        <extensions>
          <gpxtpx:TrackPointExtension xmlns:gpxtpx="http://www.garmin.com/xmlschemas/TrackPointExtension/v1">
            <gpxtpx:hr>130</gpxtpx:hr>
          </gpxtpx:TrackPointExtension>
        </extensions>
      </trkpt>
      <trkpt lat="43.1203" lon="1.36137">
        <ele>317</ele>
        <time>2023-03-05T14:09:43Z</time>
        <extensions>
          <gpxtpx:TrackPointExtension xmlns:gpxtpx="http://www.garmin.com/xmlschemas/TrackPointExtension/v1">
            <gpxtpx:hr>130</gpxtpx:hr>
          </gpxtpx:TrackPointExtension>
        </extensions>
      </trkpt>
      <trkpt lat="43.12031" lon="1.36139">
        <ele>317.4</ele>
        <time>2023-03-05T14:09:44Z</time>
        <extensions>
          <gpxtpx:TrackPointExtension xmlns:gpxtpx="http://www.garmin.com/xmlschemas/TrackPointExtension/v1">
            <gpxtpx:hr>130</gpxtpx:hr>
          </gpxtpx:TrackPointExtension>
        </extensions>
      </trkpt>
      <trkpt lat="43.12033" lon="1.36141">
        <ele>317.4</ele>
        <time>2023-03-05T14:09:45Z</time>
        <extensions>
          <gpxtpx:TrackPointExtension xmlns:gpxtpx="http://www.garmin.com/xmlschemas/TrackPointExtension/v1">
            <gpxtpx:hr>130</gpxtpx:hr>
          </gpxtpx:TrackPointExtension>
        </extensions>
      </trkpt>
      <trkpt lat="43.12036" lon="1.36147">
        <ele>317.8</ele>
        <time>2023-03-05T14:09:48Z</time>
        <extensions>
          <gpxtpx:TrackPointExtension xmlns:gpxtpx="http://www.garmin.com/xmlschemas/TrackPointExtension/v1">
            <gpxtpx:hr>130</gpxtpx:hr>
          </gpxtpx:TrackPointExtension>
        </extensions>
      </trkpt>
      <trkpt lat="43.12037" lon="1.36149">
        <ele>318.2</ele>
        <time>2023-03-05T14:09:49Z</time>
        <extensions>
          <gpxtpx:TrackPointExtension xmlns:gpxtpx="http://www.garmin.com/xmlschemas/TrackPointExtension/v1">
            <gpxtpx:hr>132</gpxtpx:hr>
          </gpxtpx:TrackPointExtension>
        </extensions>
      </trkpt>
      <trkpt lat="43.12039" lon="1.36151">
        <ele>318.8</ele>
        <time>2023-03-05T14:09:50Z</time>
        <extensions>
          <gpxtpx:TrackPointExtension xmlns:gpxtpx="http://www.garmin.com/xmlschemas/TrackPointExtension/v1">
            <gpxtpx:hr>133</gpxtpx:hr>
          </gpxtpx:TrackPointExtension>
        </extensions>
      </trkpt>
      <trkpt lat="43.1204" lon="1.36153">
        <ele>319.2</ele>
        <time>2023-03-05T14:09:51Z</time>
        <extensions>
          <gpxtpx:TrackPointExtension xmlns:gpxtpx="http://www.garmin.com/xmlschemas/TrackPointExtension/v1">
            <gpxtpx:hr>133</gpxtpx:hr>
          </gpxtpx:TrackPointExtension>
        </extensions>
      </trkpt>
      <trkpt lat="43.12042" lon="1.36155">
        <ele>319.6</ele>
        <time>2023-03-05T14:09:52Z</time>
        <extensions>
          <gpxtpx:TrackPointExtension xmlns:gpxtpx="http://www.garmin.com/xmlschemas/TrackPointExtension/v1">
            <gpxtpx:hr>133</gpxtpx:hr>
          </gpxtpx:TrackPointExtension>
        </extensions>
      </trkpt>
      <trkpt lat="43.12045" lon="1.36159">
        <ele>319.6</ele>
        <time>2023-03-05T14:09:54Z</time>
        <extensions>
          <gpxtpx:TrackPointExtension xmlns:gpxtpx="http://www.garmin.com/xmlschemas/TrackPointExtension/v1">
            <gpxtpx:hr>134</gpxtpx:hr>
          </gpxtpx:TrackPointExtension>
        </extensions>
      </trkpt>
      <trkpt lat="43.12046" lon="1.36161">
        <ele>320</ele>
        <time>2023-03-05T14:09:55Z</time>
        <extensions>
          <gpxtpx:TrackPointExtension xmlns:gpxtpx="http://www.garmin.com/xmlschemas/TrackPointExtension/v1">
            <gpxtpx:hr>134</gpxtpx:hr>
          </gpxtpx:TrackPointExtension>
        </extensions>
      </trkpt>
      <trkpt lat="43.12047" lon="1.36163">
        <ele>321</ele>
        <time>2023-03-05T14:09:56Z</time>
        <extensions>
          <gpxtpx:TrackPointExtension xmlns:gpxtpx="http://www.garmin.com/xmlschemas/TrackPointExtension/v1">
            <gpxtpx:hr>134</gpxtpx:hr>
          </gpxtpx:TrackPointExtension>
        </extensions>
      </trkpt>
      <trkpt lat="43.12049" lon="1.36165">
        <ele>321.4</ele>
        <time>2023-03-05T14:09:57Z</time>
        <extensions>
          <gpxtpx:TrackPointExtension xmlns:gpxtpx="http://www.garmin.com/xmlschemas/TrackPointExtension/v1">
            <gpxtpx:hr>134</gpxtpx:hr>
          </gpxtpx:TrackPointExtension>
        </extensions>
      </trkpt>
      <trkpt lat="43.1205" lon="1.36167">
        <ele>322</ele>
        <time>2023-03-05T14:09:58Z</time>
        <extensions>
          <gpxtpx:TrackPointExtension xmlns:gpxtpx="http://www.garmin.com/xmlschemas/TrackPointExtension/v1">
            <gpxtpx:hr>134</gpxtpx:hr>
          </gpxtpx:TrackPointExtension>
        </extensions>
      </trkpt>
      <trkpt lat="43.12052" lon="1.36168">
        <ele>322.4</ele>
        <time>2023-03-05T14:09:59Z</time>
        <extensions>
          <gpxtpx:TrackPointExtension xmlns:gpxtpx="http://www.garmin.com/xmlschemas/TrackPointExtension/v1">
            <gpxtpx:hr>134</gpxtpx:hr>
          </gpxtpx:TrackPointExtension>
        </extensions>
      </trkpt>
      <trkpt lat="43.12054" lon="1.3617">
        <ele>322.8</ele>
        <time>2023-03-05T14:10:00Z</time>
        <extensions>
          <gpxtpx:TrackPointExtension xmlns:gpxtpx="http://www.garmin.com/xmlschemas/TrackPointExtension/v1">
            <gpxtpx:hr>134</gpxtpx:hr>
          </gpxtpx:TrackPointExtension>
        </extensions>
      </trkpt>
      <trkpt lat="43.12056" lon="1.36171">
        <ele>323.2</ele>
        <time>2023-03-05T14:10:01Z</time>
        <extensions>
          <gpxtpx:TrackPointExtension xmlns:gpxtpx="http://www.garmin.com/xmlschemas/TrackPointExtension/v1">
            <gpxtpx:hr>134</gpxtpx:hr>
          </gpxtpx:TrackPointExtension>
        </extensions>
      </trkpt>
      <trkpt lat="43.12058" lon="1.36172">
        <ele>323.6</ele>
        <time>2023-03-05T14:10:02Z</time>
        <extensions>
          <gpxtpx:TrackPointExtension xmlns:gpxtpx="http://www.garmin.com/xmlschemas/TrackPointExtension/v1">
            <gpxtpx:hr>134</gpxtpx:hr>
          </gpxtpx:TrackPointExtension>
        </extensions>
      </trkpt>
      <trkpt lat="43.1206" lon="1.36172">
        <ele>324</ele>
        <time>2023-03-05T14:10:03Z</time>
        <extensions>
          <gpxtpx:TrackPointExtension xmlns:gpxtpx="http://www.garmin.com/xmlschemas/TrackPointExtension/v1">
            <gpxtpx:hr>134</gpxtpx:hr>
          </gpxtpx:TrackPointExtension>
        </extensions>
      </trkpt>
      <trkpt lat="43.12061" lon="1.36172">
        <ele>324.4</ele>
        <time>2023-03-05T14:10:04Z</time>
        <extensions>
          <gpxtpx:TrackPointExtension xmlns:gpxtpx="http://www.garmin.com/xmlschemas/TrackPointExtension/v1">
            <gpxtpx:hr>134</gpxtpx:hr>
          </gpxtpx:TrackPointExtension>
        </extensions>
      </trkpt>
      <trkpt lat="43.12063" lon="1.36172">
        <ele>324.8</ele>
        <time>2023-03-05T14:10:05Z</time>
        <extensions>
          <gpxtpx:TrackPointExtension xmlns:gpxtpx="http://www.garmin.com/xmlschemas/TrackPointExtension/v1">
            <gpxtpx:hr>134</gpxtpx:hr>
          </gpxtpx:TrackPointExtension>
        </extensions>
      </trkpt>
      <trkpt lat="43.12065" lon="1.36172">
        <ele>325.4</ele>
        <time>2023-03-05T14:10:06Z</time>
        <extensions>
          <gpxtpx:TrackPointExtension xmlns:gpxtpx="http://www.garmin.com/xmlschemas/TrackPointExtension/v1">
            <gpxtpx:hr>134</gpxtpx:hr>
          </gpxtpx:TrackPointExtension>
        </extensions>
      </trkpt>
      <trkpt lat="43.12067" lon="1.36173">
        <ele>325.8</ele>
        <time>2023-03-05T14:10:07Z</time>
        <extensions>
          <gpxtpx:TrackPointExtension xmlns:gpxtpx="http://www.garmin.com/xmlschemas/TrackPointExtension/v1">
            <gpxtpx:hr>134</gpxtpx:hr>
          </gpxtpx:TrackPointExtension>
        </extensions>
      </trkpt>
      <trkpt lat="43.12069" lon="1.36172">
        <ele>326.2</ele>
        <time>2023-03-05T14:10:08Z</time>
        <extensions>
          <gpxtpx:TrackPointExtension xmlns:gpxtpx="http://www.garmin.com/xmlschemas/TrackPointExtension/v1">
            <gpxtpx:hr>134</gpxtpx:hr>
          </gpxtpx:TrackPointExtension>
        </extensions>
      </trkpt>
      <trkpt lat="43.12071" lon="1.36172">
        <ele>326.6</ele>
        <time>2023-03-05T14:10:09Z</time>
        <extensions>
          <gpxtpx:TrackPointExtension xmlns:gpxtpx="http://www.garmin.com/xmlschemas/TrackPointExtension/v1">
            <gpxtpx:hr>134</gpxtpx:hr>
          </gpxtpx:TrackPointExtension>
        </extensions>
      </trkpt>
      <trkpt lat="43.12073" lon="1.36172">
        <ele>327</ele>
        <time>2023-03-05T14:10:10Z</time>
        <extensions>
          <gpxtpx:TrackPointExtension xmlns:gpxtpx="http://www.garmin.com/xmlschemas/TrackPointExtension/v1">
            <gpxtpx:hr>134</gpxtpx:hr>
          </gpxtpx:TrackPointExtension>
        </extensions>
      </trkpt>
      <trkpt lat="43.12075" lon="1.36172">
        <ele>327.4</ele>
        <time>2023-03-05T14:10:11Z</time>
        <extensions>
          <gpxtpx:TrackPointExtension xmlns:gpxtpx="http://www.garmin.com/xmlschemas/TrackPointExtension/v1">
            <gpxtpx:hr>134</gpxtpx:hr>
          </gpxtpx:TrackPointExtension>
        </extensions>
      </trkpt>
      <trkpt lat="43.12077" lon="1.36172">
        <ele>328</ele>
        <time>2023-03-05T14:10:12Z</time>
        <extensions>
          <gpxtpx:TrackPointExtension xmlns:gpxtpx="http://www.garmin.com/xmlschemas/TrackPointExtension/v1">
            <gpxtpx:hr>134</gpxtpx:hr>
          </gpxtpx:TrackPointExtension>
        </extensions>
      </trkpt>
      <trkpt lat="43.1208" lon="1.36172">
        <ele>328.4</ele>
        <time>2023-03-05T14:10:13Z</time>
        <extensions>
          <gpxtpx:TrackPointExtension xmlns:gpxtpx="http://www.garmin.com/xmlschemas/TrackPointExtension/v1">
            <gpxtpx:hr>134</gpxtpx:hr>
          </gpxtpx:TrackPointExtension>
        </extensions>
      </trkpt>
      <trkpt lat="43.12084" lon="1.36172">
        <ele>328.4</ele>
        <time>2023-03-05T14:10:15Z</time>
        <extensions>
          <gpxtpx:TrackPointExtension xmlns:gpxtpx="http://www.garmin.com/xmlschemas/TrackPointExtension/v1">
            <gpxtpx:hr>134</gpxtpx:hr>
          </gpxtpx:TrackPointExtension>
        </extensions>
      </trkpt>
      <trkpt lat="43.12086" lon="1.36172">
        <ele>328.8</ele>
        <time>2023-03-05T14:10:16Z</time>
        <extensions>
          <gpxtpx:TrackPointExtension xmlns:gpxtpx="http://www.garmin.com/xmlschemas/TrackPointExtension/v1">
            <gpxtpx:hr>134</gpxtpx:hr>
          </gpxtpx:TrackPointExtension>
        </extensions>
      </trkpt>
      <trkpt lat="43.12088" lon="1.36171">
        <ele>329.2</ele>
        <time>2023-03-05T14:10:17Z</time>
        <extensions>
          <gpxtpx:TrackPointExtension xmlns:gpxtpx="http://www.garmin.com/xmlschemas/TrackPointExtension/v1">
            <gpxtpx:hr>134</gpxtpx:hr>
          </gpxtpx:TrackPointExtension>
        </extensions>
      </trkpt>
      <trkpt lat="43.12091" lon="1.36171">
        <ele>329.8</ele>
        <time>2023-03-05T14:10:18Z</time>
        <extensions>
          <gpxtpx:TrackPointExtension xmlns:gpxtpx="http://www.garmin.com/xmlschemas/TrackPointExtension/v1">
            <gpxtpx:hr>134</gpxtpx:hr>
          </gpxtpx:TrackPointExtension>
        </extensions>
      </trkpt>
      <trkpt lat="43.12093" lon="1.36171">
        <ele>330.2</ele>
        <time>2023-03-05T14:10:19Z</time>
        <extensions>
          <gpxtpx:TrackPointExtension xmlns:gpxtpx="http://www.garmin.com/xmlschemas/TrackPointExtension/v1">
            <gpxtpx:hr>134</gpxtpx:hr>
          </gpxtpx:TrackPointExtension>
        </extensions>
      </trkpt>
      <trkpt lat="43.12095" lon="1.36171">
        <ele>330.8</ele>
        <time>2023-03-05T14:10:20Z</time>
        <extensions>
          <gpxtpx:TrackPointExtension xmlns:gpxtpx="http://www.garmin.com/xmlschemas/TrackPointExtension/v1">
            <gpxtpx:hr>134</gpxtpx:hr>
          </gpxtpx:TrackPointExtension>
        </extensions>
      </trkpt>
      <trkpt lat="43.12097" lon="1.36171">
        <ele>331.2</ele>
        <time>2023-03-05T14:10:21Z</time>
        <extensions>
          <gpxtpx:TrackPointExtension xmlns:gpxtpx="http://www.garmin.com/xmlschemas/TrackPointExtension/v1">
            <gpxtpx:hr>134</gpxtpx:hr>
          </gpxtpx:TrackPointExtension>
        </extensions>
      </trkpt>
      <trkpt lat="43.12099" lon="1.36171">
        <ele>331.6</ele>
        <time>2023-03-05T14:10:22Z</time>
        <extensions>
          <gpxtpx:TrackPointExtension xmlns:gpxtpx="http://www.garmin.com/xmlschemas/TrackPointExtension/v1">
            <gpxtpx:hr>134</gpxtpx:hr>
          </gpxtpx:TrackPointExtension>
        </extensions>
      </trkpt>
      <trkpt lat="43.12101" lon="1.36171">
        <ele>332</ele>
        <time>2023-03-05T14:10:23Z</time>
        <extensions>
          <gpxtpx:TrackPointExtension xmlns:gpxtpx="http://www.garmin.com/xmlschemas/TrackPointExtension/v1">
            <gpxtpx:hr>134</gpxtpx:hr>
          </gpxtpx:TrackPointExtension>
        </extensions>
      </trkpt>
      <trkpt lat="43.12103" lon="1.36172">
        <ele>332.4</ele>
        <time>2023-03-05T14:10:24Z</time>
        <extensions>
          <gpxtpx:TrackPointExtension xmlns:gpxtpx="http://www.garmin.com/xmlschemas/TrackPointExtension/v1">
            <gpxtpx:hr>134</gpxtpx:hr>
          </gpxtpx:TrackPointExtension>
        </extensions>
      </trkpt>
      <trkpt lat="43.12106" lon="1.36171">
        <ele>332.8</ele>
        <time>2023-03-05T14:10:25Z</time>
        <extensions>
          <gpxtpx:TrackPointExtension xmlns:gpxtpx="http://www.garmin.com/xmlschemas/TrackPointExtension/v1">
            <gpxtpx:hr>134</gpxtpx:hr>
          </gpxtpx:TrackPointExtension>
        </extensions>
      </trkpt>
      <trkpt lat="43.12108" lon="1.36172">
        <ele>333.2</ele>
        <time>2023-03-05T14:10:26Z</time>
        <extensions>
          <gpxtpx:TrackPointExtension xmlns:gpxtpx="http://www.garmin.com/xmlschemas/TrackPointExtension/v1">
            <gpxtpx:hr>134</gpxtpx:hr>
          </gpxtpx:TrackPointExtension>
        </extensions>
      </trkpt>
      <trkpt lat="43.1211" lon="1.36173">
        <ele>333.6</ele>
        <time>2023-03-05T14:10:27Z</time>
        <extensions>
          <gpxtpx:TrackPointExtension xmlns:gpxtpx="http://www.garmin.com/xmlschemas/TrackPointExtension/v1">
            <gpxtpx:hr>134</gpxtpx:hr>
          </gpxtpx:TrackPointExtension>
        </extensions>
      </trkpt>
      <trkpt lat="43.12112" lon="1.36174">
        <ele>334</ele>
        <time>2023-03-05T14:10:28Z</time>
        <extensions>
          <gpxtpx:TrackPointExtension xmlns:gpxtpx="http://www.garmin.com/xmlschemas/TrackPointExtension/v1">
            <gpxtpx:hr>134</gpxtpx:hr>
          </gpxtpx:TrackPointExtension>
        </extensions>
      </trkpt>
      <trkpt lat="43.12114" lon="1.36176">
        <ele>334.4</ele>
        <time>2023-03-05T14:10:29Z</time>
        <extensions>
          <gpxtpx:TrackPointExtension xmlns:gpxtpx="http://www.garmin.com/xmlschemas/TrackPointExtension/v1">
            <gpxtpx:hr>134</gpxtpx:hr>
          </gpxtpx:TrackPointExtension>
        </extensions>
      </trkpt>
      <trkpt lat="43.12115" lon="1.36178">
        <ele>334.8</ele>
        <time>2023-03-05T14:10:30Z</time>
        <extensions>
          <gpxtpx:TrackPointExtension xmlns:gpxtpx="http://www.garmin.com/xmlschemas/TrackPointExtension/v1">
            <gpxtpx:hr>134</gpxtpx:hr>
          </gpxtpx:TrackPointExtension>
        </extensions>
      </trkpt>
      <trkpt lat="43.12116" lon="1.3618">
        <ele>334.8</ele>
        <time>2023-03-05T14:10:31Z</time>
        <extensions>
          <gpxtpx:TrackPointExtension xmlns:gpxtpx="http://www.garmin.com/xmlschemas/TrackPointExtension/v1">
            <gpxtpx:hr>134</gpxtpx:hr>
          </gpxtpx:TrackPointExtension>
        </extensions>
      </trkpt>
      <trkpt lat="43.12117" lon="1.36182">
        <ele>335.4</ele>
        <time>2023-03-05T14:10:32Z</time>
        <extensions>
          <gpxtpx:TrackPointExtension xmlns:gpxtpx="http://www.garmin.com/xmlschemas/TrackPointExtension/v1">
            <gpxtpx:hr>134</gpxtpx:hr>
          </gpxtpx:TrackPointExtension>
        </extensions>
      </trkpt>
      <trkpt lat="43.12117" lon="1.36185">
        <ele>335.8</ele>
        <time>2023-03-05T14:10:33Z</time>
        <extensions>
          <gpxtpx:TrackPointExtension xmlns:gpxtpx="http://www.garmin.com/xmlschemas/TrackPointExtension/v1">
            <gpxtpx:hr>134</gpxtpx:hr>
          </gpxtpx:TrackPointExtension>
        </extensions>
      </trkpt>
      <trkpt lat="43.12117" lon="1.36187">
        <ele>336.2</ele>
        <time>2023-03-05T14:10:34Z</time>
        <extensions>
          <gpxtpx:TrackPointExtension xmlns:gpxtpx="http://www.garmin.com/xmlschemas/TrackPointExtension/v1">
            <gpxtpx:hr>134</gpxtpx:hr>
          </gpxtpx:TrackPointExtension>
        </extensions>
      </trkpt>
      <trkpt lat="43.12117" lon="1.36189">
        <ele>336.6</ele>
        <time>2023-03-05T14:10:35Z</time>
        <extensions>
          <gpxtpx:TrackPointExtension xmlns:gpxtpx="http://www.garmin.com/xmlschemas/TrackPointExtension/v1">
            <gpxtpx:hr>134</gpxtpx:hr>
          </gpxtpx:TrackPointExtension>
        </extensions>
      </trkpt>
      <trkpt lat="43.12117" lon="1.36191">
        <ele>337</ele>
        <time>2023-03-05T14:10:36Z</time>
        <extensions>
          <gpxtpx:TrackPointExtension xmlns:gpxtpx="http://www.garmin.com/xmlschemas/TrackPointExtension/v1">
            <gpxtpx:hr>134</gpxtpx:hr>
          </gpxtpx:TrackPointExtension>
        </extensions>
      </trkpt>
      <trkpt lat="43.12116" lon="1.36195">
        <ele>337.6</ele>
        <time>2023-03-05T14:10:38Z</time>
        <extensions>
          <gpxtpx:TrackPointExtension xmlns:gpxtpx="http://www.garmin.com/xmlschemas/TrackPointExtension/v1">
            <gpxtpx:hr>134</gpxtpx:hr>
          </gpxtpx:TrackPointExtension>
        </extensions>
      </trkpt>
      <trkpt lat="43.12116" lon="1.36198">
        <ele>338</ele>
        <time>2023-03-05T14:10:39Z</time>
        <extensions>
          <gpxtpx:TrackPointExtension xmlns:gpxtpx="http://www.garmin.com/xmlschemas/TrackPointExtension/v1">
            <gpxtpx:hr>134</gpxtpx:hr>
          </gpxtpx:TrackPointExtension>
        </extensions>
      </trkpt>
      <trkpt lat="43.12116" lon="1.362">
        <ele>338.6</ele>
        <time>2023-03-05T14:10:40Z</time>
        <extensions>
          <gpxtpx:TrackPointExtension xmlns:gpxtpx="http://www.garmin.com/xmlschemas/TrackPointExtension/v1">
            <gpxtpx:hr>134</gpxtpx:hr>
          </gpxtpx:TrackPointExtension>
        </extensions>
      </trkpt>
      <trkpt lat="43.12115" lon="1.36203">
        <ele>339</ele>
        <time>2023-03-05T14:10:41Z</time>
        <extensions>
          <gpxtpx:TrackPointExtension xmlns:gpxtpx="http://www.garmin.com/xmlschemas/TrackPointExtension/v1">
            <gpxtpx:hr>134</gpxtpx:hr>
          </gpxtpx:TrackPointExtension>
        </extensions>
      </trkpt>
      <trkpt lat="43.12115" lon="1.36206">
        <ele>339.6</ele>
        <time>2023-03-05T14:10:42Z</time>
        <extensions>
          <gpxtpx:TrackPointExtension xmlns:gpxtpx="http://www.garmin.com/xmlschemas/TrackPointExtension/v1">
            <gpxtpx:hr>134</gpxtpx:hr>
          </gpxtpx:TrackPointExtension>
        </extensions>
      </trkpt>
      <trkpt lat="43.12116" lon="1.36211">
        <ele>340</ele>
        <time>2023-03-05T14:10:44Z</time>
        <extensions>
          <gpxtpx:TrackPointExtension xmlns:gpxtpx="http://www.garmin.com/xmlschemas/TrackPointExtension/v1">
            <gpxtpx:hr>134</gpxtpx:hr>
          </gpxtpx:TrackPointExtension>
        </extensions>
      </trkpt>
      <trkpt lat="43.12116" lon="1.36214">
        <ele>340.8</ele>
        <time>2023-03-05T14:10:45Z</time>
        <extensions>
          <gpxtpx:TrackPointExtension xmlns:gpxtpx="http://www.garmin.com/xmlschemas/TrackPointExtension/v1">
            <gpxtpx:hr>135</gpxtpx:hr>
          </gpxtpx:TrackPointExtension>
        </extensions>
      </trkpt>
      <trkpt lat="43.12116" lon="1.36216">
        <ele>341.4</ele>
        <time>2023-03-05T14:10:46Z</time>
        <extensions>
          <gpxtpx:TrackPointExtension xmlns:gpxtpx="http://www.garmin.com/xmlschemas/TrackPointExtension/v1">
            <gpxtpx:hr>135</gpxtpx:hr>
          </gpxtpx:TrackPointExtension>
        </extensions>
      </trkpt>
      <trkpt lat="43.12117" lon="1.36219">
        <ele>341.8</ele>
        <time>2023-03-05T14:10:47Z</time>
        <extensions>
          <gpxtpx:TrackPointExtension xmlns:gpxtpx="http://www.garmin.com/xmlschemas/TrackPointExtension/v1">
            <gpxtpx:hr>135</gpxtpx:hr>
          </gpxtpx:TrackPointExtension>
        </extensions>
      </trkpt>
      <trkpt lat="43.12118" lon="1.36224">
        <ele>342.2</ele>
        <time>2023-03-05T14:10:49Z</time>
        <extensions>
          <gpxtpx:TrackPointExtension xmlns:gpxtpx="http://www.garmin.com/xmlschemas/TrackPointExtension/v1">
            <gpxtpx:hr>135</gpxtpx:hr>
          </gpxtpx:TrackPointExtension>
        </extensions>
      </trkpt>
      <trkpt lat="43.12118" lon="1.36227">
        <ele>342.6</ele>
        <time>2023-03-05T14:10:50Z</time>
        <extensions>
          <gpxtpx:TrackPointExtension xmlns:gpxtpx="http://www.garmin.com/xmlschemas/TrackPointExtension/v1">
            <gpxtpx:hr>135</gpxtpx:hr>
          </gpxtpx:TrackPointExtension>
        </extensions>
      </trkpt>
      <trkpt lat="43.12119" lon="1.36229">
        <ele>343</ele>
        <time>2023-03-05T14:10:51Z</time>
        <extensions>
          <gpxtpx:TrackPointExtension xmlns:gpxtpx="http://www.garmin.com/xmlschemas/TrackPointExtension/v1">
            <gpxtpx:hr>135</gpxtpx:hr>
          </gpxtpx:TrackPointExtension>
        </extensions>
      </trkpt>
      <trkpt lat="43.12119" lon="1.36232">
        <ele>343.6</ele>
        <time>2023-03-05T14:10:52Z</time>
        <extensions>
          <gpxtpx:TrackPointExtension xmlns:gpxtpx="http://www.garmin.com/xmlschemas/TrackPointExtension/v1">
            <gpxtpx:hr>135</gpxtpx:hr>
          </gpxtpx:TrackPointExtension>
        </extensions>
      </trkpt>
      <trkpt lat="43.1212" lon="1.36235">
        <ele>344</ele>
        <time>2023-03-05T14:10:53Z</time>
        <extensions>
          <gpxtpx:TrackPointExtension xmlns:gpxtpx="http://www.garmin.com/xmlschemas/TrackPointExtension/v1">
            <gpxtpx:hr>135</gpxtpx:hr>
          </gpxtpx:TrackPointExtension>
        </extensions>
      </trkpt>
      <trkpt lat="43.1212" lon="1.36238">
        <ele>344.4</ele>
        <time>2023-03-05T14:10:54Z</time>
        <extensions>
          <gpxtpx:TrackPointExtension xmlns:gpxtpx="http://www.garmin.com/xmlschemas/TrackPointExtension/v1">
            <gpxtpx:hr>135</gpxtpx:hr>
          </gpxtpx:TrackPointExtension>
        </extensions>
      </trkpt>
      <trkpt lat="43.12121" lon="1.3624">
        <ele>344.8</ele>
        <time>2023-03-05T14:10:55Z</time>
        <extensions>
          <gpxtpx:TrackPointExtension xmlns:gpxtpx="http://www.garmin.com/xmlschemas/TrackPointExtension/v1">
            <gpxtpx:hr>135</gpxtpx:hr>
          </gpxtpx:TrackPointExtension>
        </extensions>
      </trkpt>
      <trkpt lat="43.12122" lon="1.36243">
        <ele>345.2</ele>
        <time>2023-03-05T14:10:56Z</time>
        <extensions>
          <gpxtpx:TrackPointExtension xmlns:gpxtpx="http://www.garmin.com/xmlschemas/TrackPointExtension/v1">
            <gpxtpx:hr>136</gpxtpx:hr>
          </gpxtpx:TrackPointExtension>
        </extensions>
      </trkpt>
      <trkpt lat="43.12122" lon="1.36245">
        <ele>345.6</ele>
        <time>2023-03-05T14:10:57Z</time>
        <extensions>
          <gpxtpx:TrackPointExtension xmlns:gpxtpx="http://www.garmin.com/xmlschemas/TrackPointExtension/v1">
            <gpxtpx:hr>137</gpxtpx:hr>
          </gpxtpx:TrackPointExtension>
        </extensions>
      </trkpt>
      <trkpt lat="43.12123" lon="1.36248">
        <ele>346.2</ele>
        <time>2023-03-05T14:10:58Z</time>
        <extensions>
          <gpxtpx:TrackPointExtension xmlns:gpxtpx="http://www.garmin.com/xmlschemas/TrackPointExtension/v1">
            <gpxtpx:hr>137</gpxtpx:hr>
          </gpxtpx:TrackPointExtension>
        </extensions>
      </trkpt>
      <trkpt lat="43.12125" lon="1.36253">
        <ele>346.6</ele>
        <time>2023-03-05T14:11:00Z</time>
        <extensions>
          <gpxtpx:TrackPointExtension xmlns:gpxtpx="http://www.garmin.com/xmlschemas/TrackPointExtension/v1">
            <gpxtpx:hr>121</gpxtpx:hr>
          </gpxtpx:TrackPointExtension>
        </extensions>
      </trkpt>
      <trkpt lat="43.12126" lon="1.36256">
        <ele>347</ele>
        <time>2023-03-05T14:11:01Z</time>
        <extensions>
          <gpxtpx:TrackPointExtension xmlns:gpxtpx="http://www.garmin.com/xmlschemas/TrackPointExtension/v1">
            <gpxtpx:hr>121</gpxtpx:hr>
          </gpxtpx:TrackPointExtension>
        </extensions>
      </trkpt>
      <trkpt lat="43.12128" lon="1.36258">
        <ele>347.6</ele>
        <time>2023-03-05T14:11:02Z</time>
        <extensions>
          <gpxtpx:TrackPointExtension xmlns:gpxtpx="http://www.garmin.com/xmlschemas/TrackPointExtension/v1">
            <gpxtpx:hr>121</gpxtpx:hr>
          </gpxtpx:TrackPointExtension>
        </extensions>
      </trkpt>
      <trkpt lat="43.12129" lon="1.36261">
        <ele>348</ele>
        <time>2023-03-05T14:11:03Z</time>
        <extensions>
          <gpxtpx:TrackPointExtension xmlns:gpxtpx="http://www.garmin.com/xmlschemas/TrackPointExtension/v1">
            <gpxtpx:hr>121</gpxtpx:hr>
          </gpxtpx:TrackPointExtension>
        </extensions>
      </trkpt>
      <trkpt lat="43.1213" lon="1.36263">
        <ele>348.6</ele>
        <time>2023-03-05T14:11:04Z</time>
        <extensions>
          <gpxtpx:TrackPointExtension xmlns:gpxtpx="http://www.garmin.com/xmlschemas/TrackPointExtension/v1">
            <gpxtpx:hr>121</gpxtpx:hr>
          </gpxtpx:TrackPointExtension>
        </extensions>
      </trkpt>
      <trkpt lat="43.12131" lon="1.36266">
        <ele>349</ele>
        <time>2023-03-05T14:11:05Z</time>
        <extensions>
          <gpxtpx:TrackPointExtension xmlns:gpxtpx="http://www.garmin.com/xmlschemas/TrackPointExtension/v1">
            <gpxtpx:hr>121</gpxtpx:hr>
          </gpxtpx:TrackPointExtension>
        </extensions>
      </trkpt>
      <trkpt lat="43.12131" lon="1.36268">
        <ele>349.4</ele>
        <time>2023-03-05T14:11:06Z</time>
        <extensions>
          <gpxtpx:TrackPointExtension xmlns:gpxtpx="http://www.garmin.com/xmlschemas/TrackPointExtension/v1">
            <gpxtpx:hr>121</gpxtpx:hr>
          </gpxtpx:TrackPointExtension>
        </extensions>
      </trkpt>
      <trkpt lat="43.12133" lon="1.36271">
        <ele>349.8</ele>
        <time>2023-03-05T14:11:07Z</time>
        <extensions>
          <gpxtpx:TrackPointExtension xmlns:gpxtpx="http://www.garmin.com/xmlschemas/TrackPointExtension/v1">
            <gpxtpx:hr>121</gpxtpx:hr>
          </gpxtpx:TrackPointExtension>
        </extensions>
      </trkpt>
      <trkpt lat="43.12134" lon="1.36273">
        <ele>350.2</ele>
        <time>2023-03-05T14:11:08Z</time>
        <extensions>
          <gpxtpx:TrackPointExtension xmlns:gpxtpx="http://www.garmin.com/xmlschemas/TrackPointExtension/v1">
            <gpxtpx:hr>126</gpxtpx:hr>
          </gpxtpx:TrackPointExtension>
        </extensions>
      </trkpt>
      <trkpt lat="43.12135" lon="1.36276">
        <ele>350.6</ele>
        <time>2023-03-05T14:11:09Z</time>
        <extensions>
          <gpxtpx:TrackPointExtension xmlns:gpxtpx="http://www.garmin.com/xmlschemas/TrackPointExtension/v1">
            <gpxtpx:hr>126</gpxtpx:hr>
          </gpxtpx:TrackPointExtension>
        </extensions>
      </trkpt>
      <trkpt lat="43.12136" lon="1.36278">
        <ele>350.6</ele>
        <time>2023-03-05T14:11:10Z</time>
        <extensions>
          <gpxtpx:TrackPointExtension xmlns:gpxtpx="http://www.garmin.com/xmlschemas/TrackPointExtension/v1">
            <gpxtpx:hr>126</gpxtpx:hr>
          </gpxtpx:TrackPointExtension>
        </extensions>
      </trkpt>
      <trkpt lat="43.12137" lon="1.36281">
        <ele>350.6</ele>
        <time>2023-03-05T14:11:11Z</time>
        <extensions>
          <gpxtpx:TrackPointExtension xmlns:gpxtpx="http://www.garmin.com/xmlschemas/TrackPointExtension/v1">
            <gpxtpx:hr>119</gpxtpx:hr>
          </gpxtpx:TrackPointExtension>
        </extensions>
      </trkpt>
      <trkpt lat="43.12137" lon="1.36283">
        <ele>351</ele>
        <time>2023-03-05T14:11:12Z</time>
        <extensions>
          <gpxtpx:TrackPointExtension xmlns:gpxtpx="http://www.garmin.com/xmlschemas/TrackPointExtension/v1">
            <gpxtpx:hr>119</gpxtpx:hr>
          </gpxtpx:TrackPointExtension>
        </extensions>
      </trkpt>
      <trkpt lat="43.12138" lon="1.36286">
        <ele>351.4</ele>
        <time>2023-03-05T14:11:13Z</time>
        <extensions>
          <gpxtpx:TrackPointExtension xmlns:gpxtpx="http://www.garmin.com/xmlschemas/TrackPointExtension/v1">
            <gpxtpx:hr>122</gpxtpx:hr>
          </gpxtpx:TrackPointExtension>
        </extensions>
      </trkpt>
      <trkpt lat="43.12139" lon="1.36288">
        <ele>352</ele>
        <time>2023-03-05T14:11:14Z</time>
        <extensions>
          <gpxtpx:TrackPointExtension xmlns:gpxtpx="http://www.garmin.com/xmlschemas/TrackPointExtension/v1">
            <gpxtpx:hr>124</gpxtpx:hr>
          </gpxtpx:TrackPointExtension>
        </extensions>
      </trkpt>
      <trkpt lat="43.1214" lon="1.36291">
        <ele>352.4</ele>
        <time>2023-03-05T14:11:15Z</time>
        <extensions>
          <gpxtpx:TrackPointExtension xmlns:gpxtpx="http://www.garmin.com/xmlschemas/TrackPointExtension/v1">
            <gpxtpx:hr>124</gpxtpx:hr>
          </gpxtpx:TrackPointExtension>
        </extensions>
      </trkpt>
      <trkpt lat="43.12141" lon="1.36293">
        <ele>352.8</ele>
        <time>2023-03-05T14:11:16Z</time>
        <extensions>
          <gpxtpx:TrackPointExtension xmlns:gpxtpx="http://www.garmin.com/xmlschemas/TrackPointExtension/v1">
            <gpxtpx:hr>124</gpxtpx:hr>
          </gpxtpx:TrackPointExtension>
        </extensions>
      </trkpt>
      <trkpt lat="43.12142" lon="1.36298">
        <ele>353.4</ele>
        <time>2023-03-05T14:11:18Z</time>
        <extensions>
          <gpxtpx:TrackPointExtension xmlns:gpxtpx="http://www.garmin.com/xmlschemas/TrackPointExtension/v1">
            <gpxtpx:hr>124</gpxtpx:hr>
          </gpxtpx:TrackPointExtension>
        </extensions>
      </trkpt>
      <trkpt lat="43.12142" lon="1.363">
        <ele>353.8</ele>
        <time>2023-03-05T14:11:19Z</time>
        <extensions>
          <gpxtpx:TrackPointExtension xmlns:gpxtpx="http://www.garmin.com/xmlschemas/TrackPointExtension/v1">
            <gpxtpx:hr>124</gpxtpx:hr>
          </gpxtpx:TrackPointExtension>
        </extensions>
      </trkpt>
      <trkpt lat="43.12143" lon="1.36303">
        <ele>354.2</ele>
        <time>2023-03-05T14:11:20Z</time>
        <extensions>
          <gpxtpx:TrackPointExtension xmlns:gpxtpx="http://www.garmin.com/xmlschemas/TrackPointExtension/v1">
            <gpxtpx:hr>124</gpxtpx:hr>
          </gpxtpx:TrackPointExtension>
        </extensions>
      </trkpt>
      <trkpt lat="43.12144" lon="1.36305">
        <ele>354.6</ele>
        <time>2023-03-05T14:11:21Z</time>
        <extensions>
          <gpxtpx:TrackPointExtension xmlns:gpxtpx="http://www.garmin.com/xmlschemas/TrackPointExtension/v1">
            <gpxtpx:hr>124</gpxtpx:hr>
          </gpxtpx:TrackPointExtension>
        </extensions>
      </trkpt>
      <trkpt lat="43.12146" lon="1.36308">
        <ele>355.2</ele>
        <time>2023-03-05T14:11:22Z</time>
        <extensions>
          <gpxtpx:TrackPointExtension xmlns:gpxtpx="http://www.garmin.com/xmlschemas/TrackPointExtension/v1">
            <gpxtpx:hr>124</gpxtpx:hr>
          </gpxtpx:TrackPointExtension>
        </extensions>
      </trkpt>
      <trkpt lat="43.12147" lon="1.3631">
        <ele>355.6</ele>
        <time>2023-03-05T14:11:23Z</time>
        <extensions>
          <gpxtpx:TrackPointExtension xmlns:gpxtpx="http://www.garmin.com/xmlschemas/TrackPointExtension/v1">
            <gpxtpx:hr>124</gpxtpx:hr>
          </gpxtpx:TrackPointExtension>
        </extensions>
      </trkpt>
      <trkpt lat="43.12148" lon="1.36312">
        <ele>356</ele>
        <time>2023-03-05T14:11:24Z</time>
        <extensions>
          <gpxtpx:TrackPointExtension xmlns:gpxtpx="http://www.garmin.com/xmlschemas/TrackPointExtension/v1">
            <gpxtpx:hr>124</gpxtpx:hr>
          </gpxtpx:TrackPointExtension>
        </extensions>
      </trkpt>
      <trkpt lat="43.12149" lon="1.36315">
        <ele>356.4</ele>
        <time>2023-03-05T14:11:25Z</time>
        <extensions>
          <gpxtpx:TrackPointExtension xmlns:gpxtpx="http://www.garmin.com/xmlschemas/TrackPointExtension/v1">
            <gpxtpx:hr>124</gpxtpx:hr>
          </gpxtpx:TrackPointExtension>
        </extensions>
      </trkpt>
      <trkpt lat="43.1215" lon="1.36317">
        <ele>356.8</ele>
        <time>2023-03-05T14:11:26Z</time>
        <extensions>
          <gpxtpx:TrackPointExtension xmlns:gpxtpx="http://www.garmin.com/xmlschemas/TrackPointExtension/v1">
            <gpxtpx:hr>124</gpxtpx:hr>
          </gpxtpx:TrackPointExtension>
        </extensions>
      </trkpt>
      <trkpt lat="43.12151" lon="1.36319">
        <ele>357.4</ele>
        <time>2023-03-05T14:11:27Z</time>
        <extensions>
          <gpxtpx:TrackPointExtension xmlns:gpxtpx="http://www.garmin.com/xmlschemas/TrackPointExtension/v1">
            <gpxtpx:hr>124</gpxtpx:hr>
          </gpxtpx:TrackPointExtension>
        </extensions>
      </trkpt>
      <trkpt lat="43.12152" lon="1.36325">
        <ele>357.8</ele>
        <time>2023-03-05T14:11:29Z</time>
        <extensions>
          <gpxtpx:TrackPointExtension xmlns:gpxtpx="http://www.garmin.com/xmlschemas/TrackPointExtension/v1">
            <gpxtpx:hr>124</gpxtpx:hr>
          </gpxtpx:TrackPointExtension>
        </extensions>
      </trkpt>
      <trkpt lat="43.12153" lon="1.36327">
        <ele>358.2</ele>
        <time>2023-03-05T14:11:30Z</time>
        <extensions>
          <gpxtpx:TrackPointExtension xmlns:gpxtpx="http://www.garmin.com/xmlschemas/TrackPointExtension/v1">
            <gpxtpx:hr>124</gpxtpx:hr>
          </gpxtpx:TrackPointExtension>
        </extensions>
      </trkpt>
      <trkpt lat="43.12154" lon="1.3633">
        <ele>358.6</ele>
        <time>2023-03-05T14:11:31Z</time>
        <extensions>
          <gpxtpx:TrackPointExtension xmlns:gpxtpx="http://www.garmin.com/xmlschemas/TrackPointExtension/v1">
            <gpxtpx:hr>124</gpxtpx:hr>
          </gpxtpx:TrackPointExtension>
        </extensions>
      </trkpt>
      <trkpt lat="43.12155" lon="1.36333">
        <ele>359</ele>
        <time>2023-03-05T14:11:32Z</time>
        <extensions>
          <gpxtpx:TrackPointExtension xmlns:gpxtpx="http://www.garmin.com/xmlschemas/TrackPointExtension/v1">
            <gpxtpx:hr>124</gpxtpx:hr>
          </gpxtpx:TrackPointExtension>
        </extensions>
      </trkpt>
      <trkpt lat="43.12156" lon="1.36336">
        <ele>359.4</ele>
        <time>2023-03-05T14:11:33Z</time>
        <extensions>
          <gpxtpx:TrackPointExtension xmlns:gpxtpx="http://www.garmin.com/xmlschemas/TrackPointExtension/v1">
            <gpxtpx:hr>124</gpxtpx:hr>
          </gpxtpx:TrackPointExtension>
        </extensions>
      </trkpt>
      <trkpt lat="43.12158" lon="1.3634">
        <ele>360.4</ele>
        <time>2023-03-05T14:11:35Z</time>
        <extensions>
          <gpxtpx:TrackPointExtension xmlns:gpxtpx="http://www.garmin.com/xmlschemas/TrackPointExtension/v1">
            <gpxtpx:hr>129</gpxtpx:hr>
          </gpxtpx:TrackPointExtension>
        </extensions>
      </trkpt>
      <trkpt lat="43.12159" lon="1.36342">
        <ele>360.8</ele>
        <time>2023-03-05T14:11:36Z</time>
        <extensions>
          <gpxtpx:TrackPointExtension xmlns:gpxtpx="http://www.garmin.com/xmlschemas/TrackPointExtension/v1">
            <gpxtpx:hr>131</gpxtpx:hr>
          </gpxtpx:TrackPointExtension>
        </extensions>
      </trkpt>
      <trkpt lat="43.12159" lon="1.36344">
        <ele>361.2</ele>
        <time>2023-03-05T14:11:37Z</time>
        <extensions>
          <gpxtpx:TrackPointExtension xmlns:gpxtpx="http://www.garmin.com/xmlschemas/TrackPointExtension/v1">
            <gpxtpx:hr>131</gpxtpx:hr>
          </gpxtpx:TrackPointExtension>
        </extensions>
      </trkpt>
      <trkpt lat="43.1216" lon="1.36346">
        <ele>361.8</ele>
        <time>2023-03-05T14:11:38Z</time>
        <extensions>
          <gpxtpx:TrackPointExtension xmlns:gpxtpx="http://www.garmin.com/xmlschemas/TrackPointExtension/v1">
            <gpxtpx:hr>131</gpxtpx:hr>
          </gpxtpx:TrackPointExtension>
        </extensions>
      </trkpt>
      <trkpt lat="43.12161" lon="1.36352">
        <ele>361.8</ele>
        <time>2023-03-05T14:11:41Z</time>
        <extensions>
          <gpxtpx:TrackPointExtension xmlns:gpxtpx="http://www.garmin.com/xmlschemas/TrackPointExtension/v1">
            <gpxtpx:hr>131</gpxtpx:hr>
          </gpxtpx:TrackPointExtension>
        </extensions>
      </trkpt>
      <trkpt lat="43.12163" lon="1.36358">
        <ele>361.8</ele>
        <time>2023-03-05T14:11:45Z</time>
        <extensions>
          <gpxtpx:TrackPointExtension xmlns:gpxtpx="http://www.garmin.com/xmlschemas/TrackPointExtension/v1">
            <gpxtpx:hr>131</gpxtpx:hr>
          </gpxtpx:TrackPointExtension>
        </extensions>
      </trkpt>
      <trkpt lat="43.12163" lon="1.3636">
        <ele>361.8</ele>
        <time>2023-03-05T14:13:58Z</time>
        <extensions>
          <gpxtpx:TrackPointExtension xmlns:gpxtpx="http://www.garmin.com/xmlschemas/TrackPointExtension/v1">
            <gpxtpx:hr>116</gpxtpx:hr>
          </gpxtpx:TrackPointExtension>
        </extensions>
      </trkpt>
      <trkpt lat="43.12164" lon="1.36362">
        <ele>361.8</ele>
        <time>2023-03-05T14:13:59Z</time>
        <extensions>
          <gpxtpx:TrackPointExtension xmlns:gpxtpx="http://www.garmin.com/xmlschemas/TrackPointExtension/v1">
            <gpxtpx:hr>116</gpxtpx:hr>
          </gpxtpx:TrackPointExtension>
        </extensions>
      </trkpt>
      <trkpt lat="43.12165" lon="1.36371">
        <ele>361.8</ele>
        <time>2023-03-05T14:14:02Z</time>
        <extensions>
          <gpxtpx:TrackPointExtension xmlns:gpxtpx="http://www.garmin.com/xmlschemas/TrackPointExtension/v1">
            <gpxtpx:hr>117</gpxtpx:hr>
          </gpxtpx:TrackPointExtension>
        </extensions>
      </trkpt>
      <trkpt lat="43.12164" lon="1.3638">
        <ele>361.8</ele>
        <time>2023-03-05T14:14:05Z</time>
        <extensions>
          <gpxtpx:TrackPointExtension xmlns:gpxtpx="http://www.garmin.com/xmlschemas/TrackPointExtension/v1">
            <gpxtpx:hr>116</gpxtpx:hr>
          </gpxtpx:TrackPointExtension>
        </extensions>
      </trkpt>
      <trkpt lat="43.12165" lon="1.36387">
        <ele>361.8</ele>
        <time>2023-03-05T14:14:07Z</time>
        <extensions>
          <gpxtpx:TrackPointExtension xmlns:gpxtpx="http://www.garmin.com/xmlschemas/TrackPointExtension/v1">
            <gpxtpx:hr>116</gpxtpx:hr>
          </gpxtpx:TrackPointExtension>
        </extensions>
      </trkpt>
      <trkpt lat="43.12164" lon="1.36393">
        <ele>362.2</ele>
        <time>2023-03-05T14:14:09Z</time>
        <extensions>
          <gpxtpx:TrackPointExtension xmlns:gpxtpx="http://www.garmin.com/xmlschemas/TrackPointExtension/v1">
            <gpxtpx:hr>116</gpxtpx:hr>
          </gpxtpx:TrackPointExtension>
        </extensions>
      </trkpt>
      <trkpt lat="43.12164" lon="1.36397">
        <ele>362.6</ele>
        <time>2023-03-05T14:14:10Z</time>
        <extensions>
          <gpxtpx:TrackPointExtension xmlns:gpxtpx="http://www.garmin.com/xmlschemas/TrackPointExtension/v1">
            <gpxtpx:hr>116</gpxtpx:hr>
          </gpxtpx:TrackPointExtension>
        </extensions>
      </trkpt>
      <trkpt lat="43.12164" lon="1.36401">
        <ele>363</ele>
        <time>2023-03-05T14:14:11Z</time>
        <extensions>
          <gpxtpx:TrackPointExtension xmlns:gpxtpx="http://www.garmin.com/xmlschemas/TrackPointExtension/v1">
            <gpxtpx:hr>116</gpxtpx:hr>
          </gpxtpx:TrackPointExtension>
        </extensions>
      </trkpt>
      <trkpt lat="43.12164" lon="1.36405">
        <ele>363.4</ele>
        <time>2023-03-05T14:14:12Z</time>
        <extensions>
          <gpxtpx:TrackPointExtension xmlns:gpxtpx="http://www.garmin.com/xmlschemas/TrackPointExtension/v1">
            <gpxtpx:hr>116</gpxtpx:hr>
          </gpxtpx:TrackPointExtension>
        </extensions>
      </trkpt>
      <trkpt lat="43.12163" lon="1.36408">
        <ele>363.8</ele>
        <time>2023-03-05T14:14:13Z</time>
        <extensions>
          <gpxtpx:TrackPointExtension xmlns:gpxtpx="http://www.garmin.com/xmlschemas/TrackPointExtension/v1">
            <gpxtpx:hr>116</gpxtpx:hr>
          </gpxtpx:TrackPointExtension>
        </extensions>
      </trkpt>
      <trkpt lat="43.12163" lon="1.36421">
        <ele>364.2</ele>
        <time>2023-03-05T14:14:17Z</time>
        <extensions>
          <gpxtpx:TrackPointExtension xmlns:gpxtpx="http://www.garmin.com/xmlschemas/TrackPointExtension/v1">
            <gpxtpx:hr>116</gpxtpx:hr>
          </gpxtpx:TrackPointExtension>
        </extensions>
      </trkpt>
      <trkpt lat="43.12163" lon="1.36424">
        <ele>364.6</ele>
        <time>2023-03-05T14:14:18Z</time>
        <extensions>
          <gpxtpx:TrackPointExtension xmlns:gpxtpx="http://www.garmin.com/xmlschemas/TrackPointExtension/v1">
            <gpxtpx:hr>116</gpxtpx:hr>
          </gpxtpx:TrackPointExtension>
        </extensions>
      </trkpt>
      <trkpt lat="43.12163" lon="1.36427">
        <ele>365</ele>
        <time>2023-03-05T14:14:19Z</time>
        <extensions>
          <gpxtpx:TrackPointExtension xmlns:gpxtpx="http://www.garmin.com/xmlschemas/TrackPointExtension/v1">
            <gpxtpx:hr>116</gpxtpx:hr>
          </gpxtpx:TrackPointExtension>
        </extensions>
      </trkpt>
      <trkpt lat="43.12163" lon="1.3643">
        <ele>365.6</ele>
        <time>2023-03-05T14:14:20Z</time>
        <extensions>
          <gpxtpx:TrackPointExtension xmlns:gpxtpx="http://www.garmin.com/xmlschemas/TrackPointExtension/v1">
            <gpxtpx:hr>116</gpxtpx:hr>
          </gpxtpx:TrackPointExtension>
        </extensions>
      </trkpt>
      <trkpt lat="43.12163" lon="1.36433">
        <ele>366</ele>
        <time>2023-03-05T14:14:21Z</time>
        <extensions>
          <gpxtpx:TrackPointExtension xmlns:gpxtpx="http://www.garmin.com/xmlschemas/TrackPointExtension/v1">
            <gpxtpx:hr>116</gpxtpx:hr>
          </gpxtpx:TrackPointExtension>
        </extensions>
      </trkpt>
      <trkpt lat="43.12161" lon="1.36449">
        <ele>366</ele>
        <time>2023-03-05T14:14:26Z</time>
        <extensions>
          <gpxtpx:TrackPointExtension xmlns:gpxtpx="http://www.garmin.com/xmlschemas/TrackPointExtension/v1">
            <gpxtpx:hr>116</gpxtpx:hr>
          </gpxtpx:TrackPointExtension>
        </extensions>
      </trkpt>
      <trkpt lat="43.1216" lon="1.36458">
        <ele>366.4</ele>
        <time>2023-03-05T14:14:29Z</time>
        <extensions>
          <gpxtpx:TrackPointExtension xmlns:gpxtpx="http://www.garmin.com/xmlschemas/TrackPointExtension/v1">
            <gpxtpx:hr>118</gpxtpx:hr>
          </gpxtpx:TrackPointExtension>
        </extensions>
      </trkpt>
      <trkpt lat="43.1216" lon="1.36461">
        <ele>366.8</ele>
        <time>2023-03-05T14:14:30Z</time>
        <extensions>
          <gpxtpx:TrackPointExtension xmlns:gpxtpx="http://www.garmin.com/xmlschemas/TrackPointExtension/v1">
            <gpxtpx:hr>118</gpxtpx:hr>
          </gpxtpx:TrackPointExtension>
        </extensions>
      </trkpt>
      <trkpt lat="43.12159" lon="1.36464">
        <ele>367.2</ele>
        <time>2023-03-05T14:14:31Z</time>
        <extensions>
          <gpxtpx:TrackPointExtension xmlns:gpxtpx="http://www.garmin.com/xmlschemas/TrackPointExtension/v1">
            <gpxtpx:hr>119</gpxtpx:hr>
          </gpxtpx:TrackPointExtension>
        </extensions>
      </trkpt>
      <trkpt lat="43.12159" lon="1.36468">
        <ele>367.8</ele>
        <time>2023-03-05T14:14:32Z</time>
        <extensions>
          <gpxtpx:TrackPointExtension xmlns:gpxtpx="http://www.garmin.com/xmlschemas/TrackPointExtension/v1">
            <gpxtpx:hr>119</gpxtpx:hr>
          </gpxtpx:TrackPointExtension>
        </extensions>
      </trkpt>
      <trkpt lat="43.12159" lon="1.36472">
        <ele>368.2</ele>
        <time>2023-03-05T14:14:33Z</time>
        <extensions>
          <gpxtpx:TrackPointExtension xmlns:gpxtpx="http://www.garmin.com/xmlschemas/TrackPointExtension/v1">
            <gpxtpx:hr>120</gpxtpx:hr>
          </gpxtpx:TrackPointExtension>
        </extensions>
      </trkpt>
      <trkpt lat="43.1216" lon="1.36488">
        <ele>368.6</ele>
        <time>2023-03-05T14:14:38Z</time>
        <extensions>
          <gpxtpx:TrackPointExtension xmlns:gpxtpx="http://www.garmin.com/xmlschemas/TrackPointExtension/v1">
            <gpxtpx:hr>121</gpxtpx:hr>
          </gpxtpx:TrackPointExtension>
        </extensions>
      </trkpt>
      <trkpt lat="43.12161" lon="1.36491">
        <ele>369</ele>
        <time>2023-03-05T14:14:39Z</time>
        <extensions>
          <gpxtpx:TrackPointExtension xmlns:gpxtpx="http://www.garmin.com/xmlschemas/TrackPointExtension/v1">
            <gpxtpx:hr>121</gpxtpx:hr>
          </gpxtpx:TrackPointExtension>
        </extensions>
      </trkpt>
      <trkpt lat="43.12161" lon="1.36494">
        <ele>369.4</ele>
        <time>2023-03-05T14:14:40Z</time>
        <extensions>
          <gpxtpx:TrackPointExtension xmlns:gpxtpx="http://www.garmin.com/xmlschemas/TrackPointExtension/v1">
            <gpxtpx:hr>121</gpxtpx:hr>
          </gpxtpx:TrackPointExtension>
        </extensions>
      </trkpt>
      <trkpt lat="43.12161" lon="1.36498">
        <ele>369.8</ele>
        <time>2023-03-05T14:14:41Z</time>
        <extensions>
          <gpxtpx:TrackPointExtension xmlns:gpxtpx="http://www.garmin.com/xmlschemas/TrackPointExtension/v1">
            <gpxtpx:hr>121</gpxtpx:hr>
          </gpxtpx:TrackPointExtension>
        </extensions>
      </trkpt>
      <trkpt lat="43.12161" lon="1.36501">
        <ele>370.2</ele>
        <time>2023-03-05T14:14:42Z</time>
        <extensions>
          <gpxtpx:TrackPointExtension xmlns:gpxtpx="http://www.garmin.com/xmlschemas/TrackPointExtension/v1">
            <gpxtpx:hr>121</gpxtpx:hr>
          </gpxtpx:TrackPointExtension>
        </extensions>
      </trkpt>
      <trkpt lat="43.1216" lon="1.3652">
        <ele>370.6</ele>
        <time>2023-03-05T14:14:47Z</time>
        <extensions>
          <gpxtpx:TrackPointExtension xmlns:gpxtpx="http://www.garmin.com/xmlschemas/TrackPointExtension/v1">
            <gpxtpx:hr>121</gpxtpx:hr>
          </gpxtpx:TrackPointExtension>
        </extensions>
      </trkpt>
      <trkpt lat="43.1216" lon="1.36523">
        <ele>371</ele>
        <time>2023-03-05T14:14:48Z</time>
        <extensions>
          <gpxtpx:TrackPointExtension xmlns:gpxtpx="http://www.garmin.com/xmlschemas/TrackPointExtension/v1">
            <gpxtpx:hr>121</gpxtpx:hr>
          </gpxtpx:TrackPointExtension>
        </extensions>
      </trkpt>
      <trkpt lat="43.1216" lon="1.36527">
        <ele>371.4</ele>
        <time>2023-03-05T14:14:49Z</time>
        <extensions>
          <gpxtpx:TrackPointExtension xmlns:gpxtpx="http://www.garmin.com/xmlschemas/TrackPointExtension/v1">
            <gpxtpx:hr>121</gpxtpx:hr>
          </gpxtpx:TrackPointExtension>
        </extensions>
      </trkpt>
      <trkpt lat="43.1216" lon="1.3653">
        <ele>371.8</ele>
        <time>2023-03-05T14:14:50Z</time>
        <extensions>
          <gpxtpx:TrackPointExtension xmlns:gpxtpx="http://www.garmin.com/xmlschemas/TrackPointExtension/v1">
            <gpxtpx:hr>111</gpxtpx:hr>
          </gpxtpx:TrackPointExtension>
        </extensions>
      </trkpt>
      <trkpt lat="43.12159" lon="1.36533">
        <ele>372.4</ele>
        <time>2023-03-05T14:14:51Z</time>
        <extensions>
          <gpxtpx:TrackPointExtension xmlns:gpxtpx="http://www.garmin.com/xmlschemas/TrackPointExtension/v1">
            <gpxtpx:hr>111</gpxtpx:hr>
          </gpxtpx:TrackPointExtension>
        </extensions>
      </trkpt>
      <trkpt lat="43.12159" lon="1.36543">
        <ele>372.4</ele>
        <time>2023-03-05T14:14:54Z</time>
        <extensions>
          <gpxtpx:TrackPointExtension xmlns:gpxtpx="http://www.garmin.com/xmlschemas/TrackPointExtension/v1">
            <gpxtpx:hr>111</gpxtpx:hr>
          </gpxtpx:TrackPointExtension>
        </extensions>
      </trkpt>
      <trkpt lat="43.12159" lon="1.36546">
        <ele>372.8</ele>
        <time>2023-03-05T14:14:55Z</time>
        <extensions>
          <gpxtpx:TrackPointExtension xmlns:gpxtpx="http://www.garmin.com/xmlschemas/TrackPointExtension/v1">
            <gpxtpx:hr>111</gpxtpx:hr>
          </gpxtpx:TrackPointExtension>
        </extensions>
      </trkpt>
      <trkpt lat="43.12159" lon="1.36549">
        <ele>373.2</ele>
        <time>2023-03-05T14:14:56Z</time>
        <extensions>
          <gpxtpx:TrackPointExtension xmlns:gpxtpx="http://www.garmin.com/xmlschemas/TrackPointExtension/v1">
            <gpxtpx:hr>111</gpxtpx:hr>
          </gpxtpx:TrackPointExtension>
        </extensions>
      </trkpt>
      <trkpt lat="43.12158" lon="1.36552">
        <ele>373.6</ele>
        <time>2023-03-05T14:14:57Z</time>
        <extensions>
          <gpxtpx:TrackPointExtension xmlns:gpxtpx="http://www.garmin.com/xmlschemas/TrackPointExtension/v1">
            <gpxtpx:hr>111</gpxtpx:hr>
          </gpxtpx:TrackPointExtension>
        </extensions>
      </trkpt>
      <trkpt lat="43.12158" lon="1.36556">
        <ele>374</ele>
        <time>2023-03-05T14:14:58Z</time>
        <extensions>
          <gpxtpx:TrackPointExtension xmlns:gpxtpx="http://www.garmin.com/xmlschemas/TrackPointExtension/v1">
            <gpxtpx:hr>111</gpxtpx:hr>
          </gpxtpx:TrackPointExtension>
        </extensions>
      </trkpt>
      <trkpt lat="43.12158" lon="1.36559">
        <ele>374.6</ele>
        <time>2023-03-05T14:14:59Z</time>
        <extensions>
          <gpxtpx:TrackPointExtension xmlns:gpxtpx="http://www.garmin.com/xmlschemas/TrackPointExtension/v1">
            <gpxtpx:hr>111</gpxtpx:hr>
          </gpxtpx:TrackPointExtension>
        </extensions>
      </trkpt>
      <trkpt lat="43.12157" lon="1.36564">
        <ele>374.6</ele>
        <time>2023-03-05T14:15:00Z</time>
        <extensions>
          <gpxtpx:TrackPointExtension xmlns:gpxtpx="http://www.garmin.com/xmlschemas/TrackPointExtension/v1">
            <gpxtpx:hr>111</gpxtpx:hr>
          </gpxtpx:TrackPointExtension>
        </extensions>
      </trkpt>
      <trkpt lat="43.12155" lon="1.36573">
        <ele>375</ele>
        <time>2023-03-05T14:15:02Z</time>
        <extensions>
          <gpxtpx:TrackPointExtension xmlns:gpxtpx="http://www.garmin.com/xmlschemas/TrackPointExtension/v1">
            <gpxtpx:hr>105</gpxtpx:hr>
          </gpxtpx:TrackPointExtension>
        </extensions>
      </trkpt>
      <trkpt lat="43.12154" lon="1.36578">
        <ele>375.4</ele>
        <time>2023-03-05T14:15:03Z</time>
        <extensions>
          <gpxtpx:TrackPointExtension xmlns:gpxtpx="http://www.garmin.com/xmlschemas/TrackPointExtension/v1">
            <gpxtpx:hr>105</gpxtpx:hr>
          </gpxtpx:TrackPointExtension>
        </extensions>
      </trkpt>
      <trkpt lat="43.12154" lon="1.36582">
        <ele>376</ele>
        <time>2023-03-05T14:15:04Z</time>
        <extensions>
          <gpxtpx:TrackPointExtension xmlns:gpxtpx="http://www.garmin.com/xmlschemas/TrackPointExtension/v1">
            <gpxtpx:hr>105</gpxtpx:hr>
          </gpxtpx:TrackPointExtension>
        </extensions>
      </trkpt>
      <trkpt lat="43.12153" lon="1.36587">
        <ele>376.4</ele>
        <time>2023-03-05T14:15:05Z</time>
        <extensions>
          <gpxtpx:TrackPointExtension xmlns:gpxtpx="http://www.garmin.com/xmlschemas/TrackPointExtension/v1">
            <gpxtpx:hr>105</gpxtpx:hr>
          </gpxtpx:TrackPointExtension>
        </extensions>
      </trkpt>
      <trkpt lat="43.12152" lon="1.36592">
        <ele>377</ele>
        <time>2023-03-05T14:15:06Z</time>
        <extensions>
          <gpxtpx:TrackPointExtension xmlns:gpxtpx="http://www.garmin.com/xmlschemas/TrackPointExtension/v1">
            <gpxtpx:hr>105</gpxtpx:hr>
          </gpxtpx:TrackPointExtension>
        </extensions>
      </trkpt>
      <trkpt lat="43.12152" lon="1.36598">
        <ele>377.6</ele>
        <time>2023-03-05T14:15:07Z</time>
        <extensions>
          <gpxtpx:TrackPointExtension xmlns:gpxtpx="http://www.garmin.com/xmlschemas/TrackPointExtension/v1">
            <gpxtpx:hr>105</gpxtpx:hr>
          </gpxtpx:TrackPointExtension>
        </extensions>
      </trkpt>
      <trkpt lat="43.12151" lon="1.36603">
        <ele>378</ele>
        <time>2023-03-05T14:15:08Z</time>
        <extensions>
          <gpxtpx:TrackPointExtension xmlns:gpxtpx="http://www.garmin.com/xmlschemas/TrackPointExtension/v1">
            <gpxtpx:hr>105</gpxtpx:hr>
          </gpxtpx:TrackPointExtension>
        </extensions>
      </trkpt>
      <trkpt lat="43.1215" lon="1.36609">
        <ele>378.6</ele>
        <time>2023-03-05T14:15:09Z</time>
        <extensions>
          <gpxtpx:TrackPointExtension xmlns:gpxtpx="http://www.garmin.com/xmlschemas/TrackPointExtension/v1">
            <gpxtpx:hr>105</gpxtpx:hr>
          </gpxtpx:TrackPointExtension>
        </extensions>
      </trkpt>
      <trkpt lat="43.12149" lon="1.36614">
        <ele>379.2</ele>
        <time>2023-03-05T14:15:10Z</time>
        <extensions>
          <gpxtpx:TrackPointExtension xmlns:gpxtpx="http://www.garmin.com/xmlschemas/TrackPointExtension/v1">
            <gpxtpx:hr>105</gpxtpx:hr>
          </gpxtpx:TrackPointExtension>
        </extensions>
      </trkpt>
      <trkpt lat="43.12148" lon="1.36619">
        <ele>379.8</ele>
        <time>2023-03-05T14:15:11Z</time>
        <extensions>
          <gpxtpx:TrackPointExtension xmlns:gpxtpx="http://www.garmin.com/xmlschemas/TrackPointExtension/v1">
            <gpxtpx:hr>105</gpxtpx:hr>
          </gpxtpx:TrackPointExtension>
        </extensions>
      </trkpt>
      <trkpt lat="43.12146" lon="1.36624">
        <ele>380.2</ele>
        <time>2023-03-05T14:15:12Z</time>
        <extensions>
          <gpxtpx:TrackPointExtension xmlns:gpxtpx="http://www.garmin.com/xmlschemas/TrackPointExtension/v1">
            <gpxtpx:hr>116</gpxtpx:hr>
          </gpxtpx:TrackPointExtension>
        </extensions>
      </trkpt>
      <trkpt lat="43.12146" lon="1.36629">
        <ele>380.8</ele>
        <time>2023-03-05T14:15:13Z</time>
        <extensions>
          <gpxtpx:TrackPointExtension xmlns:gpxtpx="http://www.garmin.com/xmlschemas/TrackPointExtension/v1">
            <gpxtpx:hr>116</gpxtpx:hr>
          </gpxtpx:TrackPointExtension>
        </extensions>
      </trkpt>
      <trkpt lat="43.12145" lon="1.36633">
        <ele>381.4</ele>
        <time>2023-03-05T14:15:14Z</time>
        <extensions>
          <gpxtpx:TrackPointExtension xmlns:gpxtpx="http://www.garmin.com/xmlschemas/TrackPointExtension/v1">
            <gpxtpx:hr>116</gpxtpx:hr>
          </gpxtpx:TrackPointExtension>
        </extensions>
      </trkpt>
      <trkpt lat="43.12144" lon="1.36637">
        <ele>381.8</ele>
        <time>2023-03-05T14:15:15Z</time>
        <extensions>
          <gpxtpx:TrackPointExtension xmlns:gpxtpx="http://www.garmin.com/xmlschemas/TrackPointExtension/v1">
            <gpxtpx:hr>116</gpxtpx:hr>
          </gpxtpx:TrackPointExtension>
        </extensions>
      </trkpt>
      <trkpt lat="43.12144" lon="1.36641">
        <ele>382.2</ele>
        <time>2023-03-05T14:15:16Z</time>
        <extensions>
          <gpxtpx:TrackPointExtension xmlns:gpxtpx="http://www.garmin.com/xmlschemas/TrackPointExtension/v1">
            <gpxtpx:hr>116</gpxtpx:hr>
          </gpxtpx:TrackPointExtension>
        </extensions>
      </trkpt>
      <trkpt lat="43.12143" lon="1.36645">
        <ele>382.6</ele>
        <time>2023-03-05T14:15:17Z</time>
        <extensions>
          <gpxtpx:TrackPointExtension xmlns:gpxtpx="http://www.garmin.com/xmlschemas/TrackPointExtension/v1">
            <gpxtpx:hr>116</gpxtpx:hr>
          </gpxtpx:TrackPointExtension>
        </extensions>
      </trkpt>
      <trkpt lat="43.12143" lon="1.36649">
        <ele>383.6</ele>
        <time>2023-03-05T14:15:18Z</time>
        <extensions>
          <gpxtpx:TrackPointExtension xmlns:gpxtpx="http://www.garmin.com/xmlschemas/TrackPointExtension/v1">
            <gpxtpx:hr>116</gpxtpx:hr>
          </gpxtpx:TrackPointExtension>
        </extensions>
      </trkpt>
      <trkpt lat="43.12142" lon="1.36653">
        <ele>383.6</ele>
        <time>2023-03-05T14:15:19Z</time>
        <extensions>
          <gpxtpx:TrackPointExtension xmlns:gpxtpx="http://www.garmin.com/xmlschemas/TrackPointExtension/v1">
            <gpxtpx:hr>116</gpxtpx:hr>
          </gpxtpx:TrackPointExtension>
        </extensions>
      </trkpt>
      <trkpt lat="43.12137" lon="1.36671">
        <ele>383.6</ele>
        <time>2023-03-05T14:15:24Z</time>
        <extensions>
          <gpxtpx:TrackPointExtension xmlns:gpxtpx="http://www.garmin.com/xmlschemas/TrackPointExtension/v1">
            <gpxtpx:hr>116</gpxtpx:hr>
          </gpxtpx:TrackPointExtension>
        </extensions>
      </trkpt>
      <trkpt lat="43.12135" lon="1.36682">
        <ele>384</ele>
        <time>2023-03-05T14:15:27Z</time>
        <extensions>
          <gpxtpx:TrackPointExtension xmlns:gpxtpx="http://www.garmin.com/xmlschemas/TrackPointExtension/v1">
            <gpxtpx:hr>116</gpxtpx:hr>
          </gpxtpx:TrackPointExtension>
        </extensions>
      </trkpt>
      <trkpt lat="43.12134" lon="1.36685">
        <ele>384.4</ele>
        <time>2023-03-05T14:15:28Z</time>
        <extensions>
          <gpxtpx:TrackPointExtension xmlns:gpxtpx="http://www.garmin.com/xmlschemas/TrackPointExtension/v1">
            <gpxtpx:hr>116</gpxtpx:hr>
          </gpxtpx:TrackPointExtension>
        </extensions>
      </trkpt>
      <trkpt lat="43.12133" lon="1.36689">
        <ele>384.8</ele>
        <time>2023-03-05T14:15:29Z</time>
        <extensions>
          <gpxtpx:TrackPointExtension xmlns:gpxtpx="http://www.garmin.com/xmlschemas/TrackPointExtension/v1">
            <gpxtpx:hr>116</gpxtpx:hr>
          </gpxtpx:TrackPointExtension>
        </extensions>
      </trkpt>
      <trkpt lat="43.12131" lon="1.36692">
        <ele>385.2</ele>
        <time>2023-03-05T14:15:30Z</time>
        <extensions>
          <gpxtpx:TrackPointExtension xmlns:gpxtpx="http://www.garmin.com/xmlschemas/TrackPointExtension/v1">
            <gpxtpx:hr>116</gpxtpx:hr>
          </gpxtpx:TrackPointExtension>
        </extensions>
      </trkpt>
      <trkpt lat="43.1213" lon="1.36696">
        <ele>385.6</ele>
        <time>2023-03-05T14:15:31Z</time>
        <extensions>
          <gpxtpx:TrackPointExtension xmlns:gpxtpx="http://www.garmin.com/xmlschemas/TrackPointExtension/v1">
            <gpxtpx:hr>116</gpxtpx:hr>
          </gpxtpx:TrackPointExtension>
        </extensions>
      </trkpt>
      <trkpt lat="43.12129" lon="1.367">
        <ele>385.6</ele>
        <time>2023-03-05T14:15:32Z</time>
        <extensions>
          <gpxtpx:TrackPointExtension xmlns:gpxtpx="http://www.garmin.com/xmlschemas/TrackPointExtension/v1">
            <gpxtpx:hr>116</gpxtpx:hr>
          </gpxtpx:TrackPointExtension>
        </extensions>
      </trkpt>
      <trkpt lat="43.12124" lon="1.36726">
        <ele>385.6</ele>
        <time>2023-03-05T14:15:38Z</time>
        <extensions>
          <gpxtpx:TrackPointExtension xmlns:gpxtpx="http://www.garmin.com/xmlschemas/TrackPointExtension/v1">
            <gpxtpx:hr>116</gpxtpx:hr>
          </gpxtpx:TrackPointExtension>
        </extensions>
      </trkpt>
      <trkpt lat="43.12118" lon="1.36745">
        <ele>385.6</ele>
        <time>2023-03-05T14:15:42Z</time>
        <extensions>
          <gpxtpx:TrackPointExtension xmlns:gpxtpx="http://www.garmin.com/xmlschemas/TrackPointExtension/v1">
            <gpxtpx:hr>110</gpxtpx:hr>
          </gpxtpx:TrackPointExtension>
        </extensions>
      </trkpt>
      <trkpt lat="43.12116" lon="1.36749">
        <ele>385.6</ele>
        <time>2023-03-05T14:15:43Z</time>
        <extensions>
          <gpxtpx:TrackPointExtension xmlns:gpxtpx="http://www.garmin.com/xmlschemas/TrackPointExtension/v1">
            <gpxtpx:hr>110</gpxtpx:hr>
          </gpxtpx:TrackPointExtension>
        </extensions>
      </trkpt>
      <trkpt lat="43.12113" lon="1.36757">
        <ele>385.6</ele>
        <time>2023-03-05T14:15:45Z</time>
        <extensions>
          <gpxtpx:TrackPointExtension xmlns:gpxtpx="http://www.garmin.com/xmlschemas/TrackPointExtension/v1">
            <gpxtpx:hr>110</gpxtpx:hr>
          </gpxtpx:TrackPointExtension>
        </extensions>
      </trkpt>
      <trkpt lat="43.12105" lon="1.36781">
        <ele>385.6</ele>
        <time>2023-03-05T14:15:50Z</time>
        <extensions>
          <gpxtpx:TrackPointExtension xmlns:gpxtpx="http://www.garmin.com/xmlschemas/TrackPointExtension/v1">
            <gpxtpx:hr>104</gpxtpx:hr>
          </gpxtpx:TrackPointExtension>
        </extensions>
      </trkpt>
      <trkpt lat="43.12103" lon="1.36786">
        <ele>385.6</ele>
        <time>2023-03-05T14:15:51Z</time>
        <extensions>
          <gpxtpx:TrackPointExtension xmlns:gpxtpx="http://www.garmin.com/xmlschemas/TrackPointExtension/v1">
            <gpxtpx:hr>104</gpxtpx:hr>
          </gpxtpx:TrackPointExtension>
        </extensions>
      </trkpt>
      <trkpt lat="43.12089" lon="1.36815">
        <ele>385.6</ele>
        <time>2023-03-05T14:15:57Z</time>
        <extensions>
          <gpxtpx:TrackPointExtension xmlns:gpxtpx="http://www.garmin.com/xmlschemas/TrackPointExtension/v1">
            <gpxtpx:hr>104</gpxtpx:hr>
          </gpxtpx:TrackPointExtension>
        </extensions>
      </trkpt>
      <trkpt lat="43.12073" lon="1.36849">
        <ele>385.6</ele>
        <time>2023-03-05T14:16:04Z</time>
        <extensions>
          <gpxtpx:TrackPointExtension xmlns:gpxtpx="http://www.garmin.com/xmlschemas/TrackPointExtension/v1">
            <gpxtpx:hr>104</gpxtpx:hr>
          </gpxtpx:TrackPointExtension>
        </extensions>
      </trkpt>
      <trkpt lat="43.12065" lon="1.36864">
        <ele>385.6</ele>
        <time>2023-03-05T14:16:07Z</time>
        <extensions>
          <gpxtpx:TrackPointExtension xmlns:gpxtpx="http://www.garmin.com/xmlschemas/TrackPointExtension/v1">
            <gpxtpx:hr>108</gpxtpx:hr>
          </gpxtpx:TrackPointExtension>
        </extensions>
      </trkpt>
      <trkpt lat="43.12063" lon="1.36869">
        <ele>385.2</ele>
        <time>2023-03-05T14:16:08Z</time>
        <extensions>
          <gpxtpx:TrackPointExtension xmlns:gpxtpx="http://www.garmin.com/xmlschemas/TrackPointExtension/v1">
            <gpxtpx:hr>110</gpxtpx:hr>
          </gpxtpx:TrackPointExtension>
        </extensions>
      </trkpt>
      <trkpt lat="43.12061" lon="1.36873">
        <ele>384.8</ele>
        <time>2023-03-05T14:16:09Z</time>
        <extensions>
          <gpxtpx:TrackPointExtension xmlns:gpxtpx="http://www.garmin.com/xmlschemas/TrackPointExtension/v1">
            <gpxtpx:hr>110</gpxtpx:hr>
          </gpxtpx:TrackPointExtension>
        </extensions>
      </trkpt>
      <trkpt lat="43.12059" lon="1.36878">
        <ele>384.4</ele>
        <time>2023-03-05T14:16:10Z</time>
        <extensions>
          <gpxtpx:TrackPointExtension xmlns:gpxtpx="http://www.garmin.com/xmlschemas/TrackPointExtension/v1">
            <gpxtpx:hr>110</gpxtpx:hr>
          </gpxtpx:TrackPointExtension>
        </extensions>
      </trkpt>
      <trkpt lat="43.12057" lon="1.36882">
        <ele>384</ele>
        <time>2023-03-05T14:16:11Z</time>
        <extensions>
          <gpxtpx:TrackPointExtension xmlns:gpxtpx="http://www.garmin.com/xmlschemas/TrackPointExtension/v1">
            <gpxtpx:hr>110</gpxtpx:hr>
          </gpxtpx:TrackPointExtension>
        </extensions>
      </trkpt>
      <trkpt lat="43.12055" lon="1.36887">
        <ele>383.6</ele>
        <time>2023-03-05T14:16:12Z</time>
        <extensions>
          <gpxtpx:TrackPointExtension xmlns:gpxtpx="http://www.garmin.com/xmlschemas/TrackPointExtension/v1">
            <gpxtpx:hr>110</gpxtpx:hr>
          </gpxtpx:TrackPointExtension>
        </extensions>
      </trkpt>
      <trkpt lat="43.12048" lon="1.36902">
        <ele>383.6</ele>
        <time>2023-03-05T14:16:15Z</time>
        <extensions>
          <gpxtpx:TrackPointExtension xmlns:gpxtpx="http://www.garmin.com/xmlschemas/TrackPointExtension/v1">
            <gpxtpx:hr>113</gpxtpx:hr>
          </gpxtpx:TrackPointExtension>
        </extensions>
      </trkpt>
      <trkpt lat="43.12037" lon="1.36924">
        <ele>383.6</ele>
        <time>2023-03-05T14:16:20Z</time>
        <extensions>
          <gpxtpx:TrackPointExtension xmlns:gpxtpx="http://www.garmin.com/xmlschemas/TrackPointExtension/v1">
            <gpxtpx:hr>113</gpxtpx:hr>
          </gpxtpx:TrackPointExtension>
        </extensions>
      </trkpt>
      <trkpt lat="43.12023" lon="1.3694">
        <ele>383.6</ele>
        <time>2023-03-05T14:16:25Z</time>
        <extensions>
          <gpxtpx:TrackPointExtension xmlns:gpxtpx="http://www.garmin.com/xmlschemas/TrackPointExtension/v1">
            <gpxtpx:hr>113</gpxtpx:hr>
          </gpxtpx:TrackPointExtension>
        </extensions>
      </trkpt>
      <trkpt lat="43.1201" lon="1.36965">
        <ele>383.6</ele>
        <time>2023-03-05T14:16:31Z</time>
        <extensions>
          <gpxtpx:TrackPointExtension xmlns:gpxtpx="http://www.garmin.com/xmlschemas/TrackPointExtension/v1">
            <gpxtpx:hr>114</gpxtpx:hr>
          </gpxtpx:TrackPointExtension>
        </extensions>
      </trkpt>
      <trkpt lat="43.11998" lon="1.36991">
        <ele>383.6</ele>
        <time>2023-03-05T14:16:37Z</time>
        <extensions>
          <gpxtpx:TrackPointExtension xmlns:gpxtpx="http://www.garmin.com/xmlschemas/TrackPointExtension/v1">
            <gpxtpx:hr>115</gpxtpx:hr>
          </gpxtpx:TrackPointExtension>
        </extensions>
      </trkpt>
      <trkpt lat="43.11992" lon="1.37009">
        <ele>383.6</ele>
        <time>2023-03-05T14:16:41Z</time>
        <extensions>
          <gpxtpx:TrackPointExtension xmlns:gpxtpx="http://www.garmin.com/xmlschemas/TrackPointExtension/v1">
            <gpxtpx:hr>118</gpxtpx:hr>
          </gpxtpx:TrackPointExtension>
        </extensions>
      </trkpt>
      <trkpt lat="43.11991" lon="1.37018">
        <ele>383.6</ele>
        <time>2023-03-05T14:16:44Z</time>
        <extensions>
          <gpxtpx:TrackPointExtension xmlns:gpxtpx="http://www.garmin.com/xmlschemas/TrackPointExtension/v1">
            <gpxtpx:hr>118</gpxtpx:hr>
          </gpxtpx:TrackPointExtension>
        </extensions>
      </trkpt>
      <trkpt lat="43.12001" lon="1.37029">
        <ele>383.6</ele>
        <time>2023-03-05T14:16:48Z</time>
        <extensions>
          <gpxtpx:TrackPointExtension xmlns:gpxtpx="http://www.garmin.com/xmlschemas/TrackPointExtension/v1">
            <gpxtpx:hr>118</gpxtpx:hr>
          </gpxtpx:TrackPointExtension>
        </extensions>
      </trkpt>
      <trkpt lat="43.12023" lon="1.37047">
        <ele>383.6</ele>
        <time>2023-03-05T14:16:55Z</time>
        <extensions>
          <gpxtpx:TrackPointExtension xmlns:gpxtpx="http://www.garmin.com/xmlschemas/TrackPointExtension/v1">
            <gpxtpx:hr>117</gpxtpx:hr>
          </gpxtpx:TrackPointExtension>
        </extensions>
      </trkpt>
      <trkpt lat="43.12048" lon="1.37065">
        <ele>383.6</ele>
        <time>2023-03-05T14:17:03Z</time>
        <extensions>
          <gpxtpx:TrackPointExtension xmlns:gpxtpx="http://www.garmin.com/xmlschemas/TrackPointExtension/v1">
            <gpxtpx:hr>116</gpxtpx:hr>
          </gpxtpx:TrackPointExtension>
        </extensions>
      </trkpt>
      <trkpt lat="43.12074" lon="1.37084">
        <ele>383.6</ele>
        <time>2023-03-05T14:17:11Z</time>
        <extensions>
          <gpxtpx:TrackPointExtension xmlns:gpxtpx="http://www.garmin.com/xmlschemas/TrackPointExtension/v1">
            <gpxtpx:hr>116</gpxtpx:hr>
          </gpxtpx:TrackPointExtension>
        </extensions>
      </trkpt>
      <trkpt lat="43.12106" lon="1.37108">
        <ele>383.6</ele>
        <time>2023-03-05T14:17:21Z</time>
        <extensions>
          <gpxtpx:TrackPointExtension xmlns:gpxtpx="http://www.garmin.com/xmlschemas/TrackPointExtension/v1">
            <gpxtpx:hr>116</gpxtpx:hr>
          </gpxtpx:TrackPointExtension>
        </extensions>
      </trkpt>
      <trkpt lat="43.12131" lon="1.37134">
        <ele>383.6</ele>
        <time>2023-03-05T14:17:30Z</time>
        <extensions>
          <gpxtpx:TrackPointExtension xmlns:gpxtpx="http://www.garmin.com/xmlschemas/TrackPointExtension/v1">
            <gpxtpx:hr>118</gpxtpx:hr>
          </gpxtpx:TrackPointExtension>
        </extensions>
      </trkpt>
      <trkpt lat="43.12135" lon="1.37151">
        <ele>383.6</ele>
        <time>2023-03-05T14:17:34Z</time>
        <extensions>
          <gpxtpx:TrackPointExtension xmlns:gpxtpx="http://www.garmin.com/xmlschemas/TrackPointExtension/v1">
            <gpxtpx:hr>118</gpxtpx:hr>
          </gpxtpx:TrackPointExtension>
        </extensions>
      </trkpt>
      <trkpt lat="43.12135" lon="1.37162">
        <ele>384</ele>
        <time>2023-03-05T14:17:37Z</time>
        <extensions>
          <gpxtpx:TrackPointExtension xmlns:gpxtpx="http://www.garmin.com/xmlschemas/TrackPointExtension/v1">
            <gpxtpx:hr>119</gpxtpx:hr>
          </gpxtpx:TrackPointExtension>
        </extensions>
      </trkpt>
      <trkpt lat="43.12135" lon="1.37166">
        <ele>384.4</ele>
        <time>2023-03-05T14:17:38Z</time>
        <extensions>
          <gpxtpx:TrackPointExtension xmlns:gpxtpx="http://www.garmin.com/xmlschemas/TrackPointExtension/v1">
            <gpxtpx:hr>119</gpxtpx:hr>
          </gpxtpx:TrackPointExtension>
        </extensions>
      </trkpt>
      <trkpt lat="43.12136" lon="1.3717">
        <ele>384.8</ele>
        <time>2023-03-05T14:17:39Z</time>
        <extensions>
          <gpxtpx:TrackPointExtension xmlns:gpxtpx="http://www.garmin.com/xmlschemas/TrackPointExtension/v1">
            <gpxtpx:hr>119</gpxtpx:hr>
          </gpxtpx:TrackPointExtension>
        </extensions>
      </trkpt>
      <trkpt lat="43.12136" lon="1.37174">
        <ele>385.2</ele>
        <time>2023-03-05T14:17:40Z</time>
        <extensions>
          <gpxtpx:TrackPointExtension xmlns:gpxtpx="http://www.garmin.com/xmlschemas/TrackPointExtension/v1">
            <gpxtpx:hr>119</gpxtpx:hr>
          </gpxtpx:TrackPointExtension>
        </extensions>
      </trkpt>
      <trkpt lat="43.12136" lon="1.37177">
        <ele>385.6</ele>
        <time>2023-03-05T14:17:41Z</time>
        <extensions>
          <gpxtpx:TrackPointExtension xmlns:gpxtpx="http://www.garmin.com/xmlschemas/TrackPointExtension/v1">
            <gpxtpx:hr>120</gpxtpx:hr>
          </gpxtpx:TrackPointExtension>
        </extensions>
      </trkpt>
      <trkpt lat="43.12137" lon="1.37188">
        <ele>386</ele>
        <time>2023-03-05T14:17:44Z</time>
        <extensions>
          <gpxtpx:TrackPointExtension xmlns:gpxtpx="http://www.garmin.com/xmlschemas/TrackPointExtension/v1">
            <gpxtpx:hr>120</gpxtpx:hr>
          </gpxtpx:TrackPointExtension>
        </extensions>
      </trkpt>
      <trkpt lat="43.12138" lon="1.37191">
        <ele>386.4</ele>
        <time>2023-03-05T14:17:45Z</time>
        <extensions>
          <gpxtpx:TrackPointExtension xmlns:gpxtpx="http://www.garmin.com/xmlschemas/TrackPointExtension/v1">
            <gpxtpx:hr>120</gpxtpx:hr>
          </gpxtpx:TrackPointExtension>
        </extensions>
      </trkpt>
      <trkpt lat="43.12138" lon="1.37195">
        <ele>387.4</ele>
        <time>2023-03-05T14:17:46Z</time>
        <extensions>
          <gpxtpx:TrackPointExtension xmlns:gpxtpx="http://www.garmin.com/xmlschemas/TrackPointExtension/v1">
            <gpxtpx:hr>121</gpxtpx:hr>
          </gpxtpx:TrackPointExtension>
        </extensions>
      </trkpt>
      <trkpt lat="43.12138" lon="1.37198">
        <ele>387.8</ele>
        <time>2023-03-05T14:17:47Z</time>
        <extensions>
          <gpxtpx:TrackPointExtension xmlns:gpxtpx="http://www.garmin.com/xmlschemas/TrackPointExtension/v1">
            <gpxtpx:hr>121</gpxtpx:hr>
          </gpxtpx:TrackPointExtension>
        </extensions>
      </trkpt>
      <trkpt lat="43.12137" lon="1.37204">
        <ele>388.2</ele>
        <time>2023-03-05T14:17:49Z</time>
        <extensions>
          <gpxtpx:TrackPointExtension xmlns:gpxtpx="http://www.garmin.com/xmlschemas/TrackPointExtension/v1">
            <gpxtpx:hr>122</gpxtpx:hr>
          </gpxtpx:TrackPointExtension>
        </extensions>
      </trkpt>
      <trkpt lat="43.12136" lon="1.37207">
        <ele>388.8</ele>
        <time>2023-03-05T14:17:50Z</time>
        <extensions>
          <gpxtpx:TrackPointExtension xmlns:gpxtpx="http://www.garmin.com/xmlschemas/TrackPointExtension/v1">
            <gpxtpx:hr>122</gpxtpx:hr>
          </gpxtpx:TrackPointExtension>
        </extensions>
      </trkpt>
      <trkpt lat="43.12136" lon="1.37211">
        <ele>389.2</ele>
        <time>2023-03-05T14:17:51Z</time>
        <extensions>
          <gpxtpx:TrackPointExtension xmlns:gpxtpx="http://www.garmin.com/xmlschemas/TrackPointExtension/v1">
            <gpxtpx:hr>122</gpxtpx:hr>
          </gpxtpx:TrackPointExtension>
        </extensions>
      </trkpt>
      <trkpt lat="43.12136" lon="1.37214">
        <ele>389.6</ele>
        <time>2023-03-05T14:17:52Z</time>
        <extensions>
          <gpxtpx:TrackPointExtension xmlns:gpxtpx="http://www.garmin.com/xmlschemas/TrackPointExtension/v1">
            <gpxtpx:hr>123</gpxtpx:hr>
          </gpxtpx:TrackPointExtension>
        </extensions>
      </trkpt>
      <trkpt lat="43.12136" lon="1.37218">
        <ele>390</ele>
        <time>2023-03-05T14:17:53Z</time>
        <extensions>
          <gpxtpx:TrackPointExtension xmlns:gpxtpx="http://www.garmin.com/xmlschemas/TrackPointExtension/v1">
            <gpxtpx:hr>123</gpxtpx:hr>
          </gpxtpx:TrackPointExtension>
        </extensions>
      </trkpt>
      <trkpt lat="43.12136" lon="1.37221">
        <ele>390</ele>
        <time>2023-03-05T14:17:54Z</time>
        <extensions>
          <gpxtpx:TrackPointExtension xmlns:gpxtpx="http://www.garmin.com/xmlschemas/TrackPointExtension/v1">
            <gpxtpx:hr>123</gpxtpx:hr>
          </gpxtpx:TrackPointExtension>
        </extensions>
      </trkpt>
      <trkpt lat="43.12136" lon="1.37229">
        <ele>390.4</ele>
        <time>2023-03-05T14:17:56Z</time>
        <extensions>
          <gpxtpx:TrackPointExtension xmlns:gpxtpx="http://www.garmin.com/xmlschemas/TrackPointExtension/v1">
            <gpxtpx:hr>123</gpxtpx:hr>
          </gpxtpx:TrackPointExtension>
        </extensions>
      </trkpt>
      <trkpt lat="43.12136" lon="1.37233">
        <ele>390.8</ele>
        <time>2023-03-05T14:17:57Z</time>
        <extensions>
          <gpxtpx:TrackPointExtension xmlns:gpxtpx="http://www.garmin.com/xmlschemas/TrackPointExtension/v1">
            <gpxtpx:hr>123</gpxtpx:hr>
          </gpxtpx:TrackPointExtension>
        </extensions>
      </trkpt>
      <trkpt lat="43.12136" lon="1.37236">
        <ele>391.2</ele>
        <time>2023-03-05T14:17:58Z</time>
        <extensions>
          <gpxtpx:TrackPointExtension xmlns:gpxtpx="http://www.garmin.com/xmlschemas/TrackPointExtension/v1">
            <gpxtpx:hr>123</gpxtpx:hr>
          </gpxtpx:TrackPointExtension>
        </extensions>
      </trkpt>
      <trkpt lat="43.12136" lon="1.3724">
        <ele>391.8</ele>
        <time>2023-03-05T14:17:59Z</time>
        <extensions>
          <gpxtpx:TrackPointExtension xmlns:gpxtpx="http://www.garmin.com/xmlschemas/TrackPointExtension/v1">
            <gpxtpx:hr>123</gpxtpx:hr>
          </gpxtpx:TrackPointExtension>
        </extensions>
      </trkpt>
      <trkpt lat="43.12136" lon="1.37244">
        <ele>392.2</ele>
        <time>2023-03-05T14:18:00Z</time>
        <extensions>
          <gpxtpx:TrackPointExtension xmlns:gpxtpx="http://www.garmin.com/xmlschemas/TrackPointExtension/v1">
            <gpxtpx:hr>123</gpxtpx:hr>
          </gpxtpx:TrackPointExtension>
        </extensions>
      </trkpt>
      <trkpt lat="43.12136" lon="1.37256">
        <ele>392.6</ele>
        <time>2023-03-05T14:18:03Z</time>
        <extensions>
          <gpxtpx:TrackPointExtension xmlns:gpxtpx="http://www.garmin.com/xmlschemas/TrackPointExtension/v1">
            <gpxtpx:hr>123</gpxtpx:hr>
          </gpxtpx:TrackPointExtension>
        </extensions>
      </trkpt>
      <trkpt lat="43.12137" lon="1.37259">
        <ele>393</ele>
        <time>2023-03-05T14:18:04Z</time>
        <extensions>
          <gpxtpx:TrackPointExtension xmlns:gpxtpx="http://www.garmin.com/xmlschemas/TrackPointExtension/v1">
            <gpxtpx:hr>125</gpxtpx:hr>
          </gpxtpx:TrackPointExtension>
        </extensions>
      </trkpt>
      <trkpt lat="43.12137" lon="1.37263">
        <ele>393.4</ele>
        <time>2023-03-05T14:18:05Z</time>
        <extensions>
          <gpxtpx:TrackPointExtension xmlns:gpxtpx="http://www.garmin.com/xmlschemas/TrackPointExtension/v1">
            <gpxtpx:hr>126</gpxtpx:hr>
          </gpxtpx:TrackPointExtension>
        </extensions>
      </trkpt>
      <trkpt lat="43.12137" lon="1.37267">
        <ele>393.8</ele>
        <time>2023-03-05T14:18:06Z</time>
        <extensions>
          <gpxtpx:TrackPointExtension xmlns:gpxtpx="http://www.garmin.com/xmlschemas/TrackPointExtension/v1">
            <gpxtpx:hr>126</gpxtpx:hr>
          </gpxtpx:TrackPointExtension>
        </extensions>
      </trkpt>
      <trkpt lat="43.12138" lon="1.3727">
        <ele>394.2</ele>
        <time>2023-03-05T14:18:07Z</time>
        <extensions>
          <gpxtpx:TrackPointExtension xmlns:gpxtpx="http://www.garmin.com/xmlschemas/TrackPointExtension/v1">
            <gpxtpx:hr>126</gpxtpx:hr>
          </gpxtpx:TrackPointExtension>
        </extensions>
      </trkpt>
      <trkpt lat="43.12139" lon="1.37287">
        <ele>394.6</ele>
        <time>2023-03-05T14:18:12Z</time>
        <extensions>
          <gpxtpx:TrackPointExtension xmlns:gpxtpx="http://www.garmin.com/xmlschemas/TrackPointExtension/v1">
            <gpxtpx:hr>126</gpxtpx:hr>
          </gpxtpx:TrackPointExtension>
        </extensions>
      </trkpt>
      <trkpt lat="43.12139" lon="1.37289">
        <ele>395</ele>
        <time>2023-03-05T14:18:13Z</time>
        <extensions>
          <gpxtpx:TrackPointExtension xmlns:gpxtpx="http://www.garmin.com/xmlschemas/TrackPointExtension/v1">
            <gpxtpx:hr>126</gpxtpx:hr>
          </gpxtpx:TrackPointExtension>
        </extensions>
      </trkpt>
      <trkpt lat="43.12139" lon="1.37293">
        <ele>395.4</ele>
        <time>2023-03-05T14:18:14Z</time>
        <extensions>
          <gpxtpx:TrackPointExtension xmlns:gpxtpx="http://www.garmin.com/xmlschemas/TrackPointExtension/v1">
            <gpxtpx:hr>128</gpxtpx:hr>
          </gpxtpx:TrackPointExtension>
        </extensions>
      </trkpt>
      <trkpt lat="43.12139" lon="1.37297">
        <ele>395.8</ele>
        <time>2023-03-05T14:18:15Z</time>
        <extensions>
          <gpxtpx:TrackPointExtension xmlns:gpxtpx="http://www.garmin.com/xmlschemas/TrackPointExtension/v1">
            <gpxtpx:hr>129</gpxtpx:hr>
          </gpxtpx:TrackPointExtension>
        </extensions>
      </trkpt>
      <trkpt lat="43.12139" lon="1.373">
        <ele>396.4</ele>
        <time>2023-03-05T14:18:16Z</time>
        <extensions>
          <gpxtpx:TrackPointExtension xmlns:gpxtpx="http://www.garmin.com/xmlschemas/TrackPointExtension/v1">
            <gpxtpx:hr>130</gpxtpx:hr>
          </gpxtpx:TrackPointExtension>
        </extensions>
      </trkpt>
      <trkpt lat="43.12139" lon="1.37303">
        <ele>396.4</ele>
        <time>2023-03-05T14:18:17Z</time>
        <extensions>
          <gpxtpx:TrackPointExtension xmlns:gpxtpx="http://www.garmin.com/xmlschemas/TrackPointExtension/v1">
            <gpxtpx:hr>130</gpxtpx:hr>
          </gpxtpx:TrackPointExtension>
        </extensions>
      </trkpt>
      <trkpt lat="43.12137" lon="1.37315">
        <ele>396.8</ele>
        <time>2023-03-05T14:18:21Z</time>
        <extensions>
          <gpxtpx:TrackPointExtension xmlns:gpxtpx="http://www.garmin.com/xmlschemas/TrackPointExtension/v1">
            <gpxtpx:hr>130</gpxtpx:hr>
          </gpxtpx:TrackPointExtension>
        </extensions>
      </trkpt>
      <trkpt lat="43.12136" lon="1.37317">
        <ele>397.2</ele>
        <time>2023-03-05T14:18:22Z</time>
        <extensions>
          <gpxtpx:TrackPointExtension xmlns:gpxtpx="http://www.garmin.com/xmlschemas/TrackPointExtension/v1">
            <gpxtpx:hr>130</gpxtpx:hr>
          </gpxtpx:TrackPointExtension>
        </extensions>
      </trkpt>
      <trkpt lat="43.12135" lon="1.3732">
        <ele>397.6</ele>
        <time>2023-03-05T14:18:23Z</time>
        <extensions>
          <gpxtpx:TrackPointExtension xmlns:gpxtpx="http://www.garmin.com/xmlschemas/TrackPointExtension/v1">
            <gpxtpx:hr>130</gpxtpx:hr>
          </gpxtpx:TrackPointExtension>
        </extensions>
      </trkpt>
      <trkpt lat="43.12135" lon="1.37324">
        <ele>398</ele>
        <time>2023-03-05T14:18:24Z</time>
        <extensions>
          <gpxtpx:TrackPointExtension xmlns:gpxtpx="http://www.garmin.com/xmlschemas/TrackPointExtension/v1">
            <gpxtpx:hr>130</gpxtpx:hr>
          </gpxtpx:TrackPointExtension>
        </extensions>
      </trkpt>
      <trkpt lat="43.12134" lon="1.37326">
        <ele>398.4</ele>
        <time>2023-03-05T14:18:25Z</time>
        <extensions>
          <gpxtpx:TrackPointExtension xmlns:gpxtpx="http://www.garmin.com/xmlschemas/TrackPointExtension/v1">
            <gpxtpx:hr>130</gpxtpx:hr>
          </gpxtpx:TrackPointExtension>
        </extensions>
      </trkpt>
      <trkpt lat="43.12135" lon="1.37329">
        <ele>398.4</ele>
        <time>2023-03-05T14:18:26Z</time>
        <extensions>
          <gpxtpx:TrackPointExtension xmlns:gpxtpx="http://www.garmin.com/xmlschemas/TrackPointExtension/v1">
            <gpxtpx:hr>130</gpxtpx:hr>
          </gpxtpx:TrackPointExtension>
        </extensions>
      </trkpt>
      <trkpt lat="43.12135" lon="1.37332">
        <ele>398.4</ele>
        <time>2023-03-05T14:18:27Z</time>
        <extensions>
          <gpxtpx:TrackPointExtension xmlns:gpxtpx="http://www.garmin.com/xmlschemas/TrackPointExtension/v1">
            <gpxtpx:hr>130</gpxtpx:hr>
          </gpxtpx:TrackPointExtension>
        </extensions>
      </trkpt>
      <trkpt lat="43.12133" lon="1.37345">
        <ele>398.4</ele>
        <time>2023-03-05T14:18:31Z</time>
        <extensions>
          <gpxtpx:TrackPointExtension xmlns:gpxtpx="http://www.garmin.com/xmlschemas/TrackPointExtension/v1">
            <gpxtpx:hr>130</gpxtpx:hr>
          </gpxtpx:TrackPointExtension>
        </extensions>
      </trkpt>
      <trkpt lat="43.12133" lon="1.37348">
        <ele>398.4</ele>
        <time>2023-03-05T14:18:32Z</time>
        <extensions>
          <gpxtpx:TrackPointExtension xmlns:gpxtpx="http://www.garmin.com/xmlschemas/TrackPointExtension/v1">
            <gpxtpx:hr>130</gpxtpx:hr>
          </gpxtpx:TrackPointExtension>
        </extensions>
      </trkpt>
      <trkpt lat="43.12132" lon="1.37352">
        <ele>398.8</ele>
        <time>2023-03-05T14:18:33Z</time>
        <extensions>
          <gpxtpx:TrackPointExtension xmlns:gpxtpx="http://www.garmin.com/xmlschemas/TrackPointExtension/v1">
            <gpxtpx:hr>130</gpxtpx:hr>
          </gpxtpx:TrackPointExtension>
        </extensions>
      </trkpt>
      <trkpt lat="43.12131" lon="1.37355">
        <ele>399.6</ele>
        <time>2023-03-05T14:18:34Z</time>
        <extensions>
          <gpxtpx:TrackPointExtension xmlns:gpxtpx="http://www.garmin.com/xmlschemas/TrackPointExtension/v1">
            <gpxtpx:hr>130</gpxtpx:hr>
          </gpxtpx:TrackPointExtension>
        </extensions>
      </trkpt>
      <trkpt lat="43.1213" lon="1.37359">
        <ele>400</ele>
        <time>2023-03-05T14:18:35Z</time>
        <extensions>
          <gpxtpx:TrackPointExtension xmlns:gpxtpx="http://www.garmin.com/xmlschemas/TrackPointExtension/v1">
            <gpxtpx:hr>130</gpxtpx:hr>
          </gpxtpx:TrackPointExtension>
        </extensions>
      </trkpt>
      <trkpt lat="43.1213" lon="1.37362">
        <ele>400.4</ele>
        <time>2023-03-05T14:18:36Z</time>
        <extensions>
          <gpxtpx:TrackPointExtension xmlns:gpxtpx="http://www.garmin.com/xmlschemas/TrackPointExtension/v1">
            <gpxtpx:hr>130</gpxtpx:hr>
          </gpxtpx:TrackPointExtension>
        </extensions>
      </trkpt>
      <trkpt lat="43.12129" lon="1.37365">
        <ele>400.4</ele>
        <time>2023-03-05T14:18:37Z</time>
        <extensions>
          <gpxtpx:TrackPointExtension xmlns:gpxtpx="http://www.garmin.com/xmlschemas/TrackPointExtension/v1">
            <gpxtpx:hr>130</gpxtpx:hr>
          </gpxtpx:TrackPointExtension>
        </extensions>
      </trkpt>
      <trkpt lat="43.12128" lon="1.37373">
        <ele>400.4</ele>
        <time>2023-03-05T14:18:40Z</time>
        <extensions>
          <gpxtpx:TrackPointExtension xmlns:gpxtpx="http://www.garmin.com/xmlschemas/TrackPointExtension/v1">
            <gpxtpx:hr>131</gpxtpx:hr>
          </gpxtpx:TrackPointExtension>
        </extensions>
      </trkpt>
      <trkpt lat="43.12128" lon="1.37383">
        <ele>400.4</ele>
        <time>2023-03-05T14:18:43Z</time>
        <extensions>
          <gpxtpx:TrackPointExtension xmlns:gpxtpx="http://www.garmin.com/xmlschemas/TrackPointExtension/v1">
            <gpxtpx:hr>131</gpxtpx:hr>
          </gpxtpx:TrackPointExtension>
        </extensions>
      </trkpt>
      <trkpt lat="43.1213" lon="1.37388">
        <ele>400.8</ele>
        <time>2023-03-05T14:18:45Z</time>
        <extensions>
          <gpxtpx:TrackPointExtension xmlns:gpxtpx="http://www.garmin.com/xmlschemas/TrackPointExtension/v1">
            <gpxtpx:hr>131</gpxtpx:hr>
          </gpxtpx:TrackPointExtension>
        </extensions>
      </trkpt>
      <trkpt lat="43.1213" lon="1.37391">
        <ele>401.2</ele>
        <time>2023-03-05T14:18:46Z</time>
        <extensions>
          <gpxtpx:TrackPointExtension xmlns:gpxtpx="http://www.garmin.com/xmlschemas/TrackPointExtension/v1">
            <gpxtpx:hr>131</gpxtpx:hr>
          </gpxtpx:TrackPointExtension>
        </extensions>
      </trkpt>
      <trkpt lat="43.1213" lon="1.37394">
        <ele>401.8</ele>
        <time>2023-03-05T14:18:47Z</time>
        <extensions>
          <gpxtpx:TrackPointExtension xmlns:gpxtpx="http://www.garmin.com/xmlschemas/TrackPointExtension/v1">
            <gpxtpx:hr>131</gpxtpx:hr>
          </gpxtpx:TrackPointExtension>
        </extensions>
      </trkpt>
      <trkpt lat="43.1213" lon="1.37396">
        <ele>402.2</ele>
        <time>2023-03-05T14:18:48Z</time>
        <extensions>
          <gpxtpx:TrackPointExtension xmlns:gpxtpx="http://www.garmin.com/xmlschemas/TrackPointExtension/v1">
            <gpxtpx:hr>131</gpxtpx:hr>
          </gpxtpx:TrackPointExtension>
        </extensions>
      </trkpt>
      <trkpt lat="43.1213" lon="1.37399">
        <ele>402.6</ele>
        <time>2023-03-05T14:18:49Z</time>
        <extensions>
          <gpxtpx:TrackPointExtension xmlns:gpxtpx="http://www.garmin.com/xmlschemas/TrackPointExtension/v1">
            <gpxtpx:hr>131</gpxtpx:hr>
          </gpxtpx:TrackPointExtension>
        </extensions>
      </trkpt>
      <trkpt lat="43.12131" lon="1.37409">
        <ele>403</ele>
        <time>2023-03-05T14:18:52Z</time>
        <extensions>
          <gpxtpx:TrackPointExtension xmlns:gpxtpx="http://www.garmin.com/xmlschemas/TrackPointExtension/v1">
            <gpxtpx:hr>131</gpxtpx:hr>
          </gpxtpx:TrackPointExtension>
        </extensions>
      </trkpt>
      <trkpt lat="43.12132" lon="1.37412">
        <ele>403.4</ele>
        <time>2023-03-05T14:18:53Z</time>
        <extensions>
          <gpxtpx:TrackPointExtension xmlns:gpxtpx="http://www.garmin.com/xmlschemas/TrackPointExtension/v1">
            <gpxtpx:hr>131</gpxtpx:hr>
          </gpxtpx:TrackPointExtension>
        </extensions>
      </trkpt>
      <trkpt lat="43.12132" lon="1.37416">
        <ele>403.8</ele>
        <time>2023-03-05T14:18:54Z</time>
        <extensions>
          <gpxtpx:TrackPointExtension xmlns:gpxtpx="http://www.garmin.com/xmlschemas/TrackPointExtension/v1">
            <gpxtpx:hr>131</gpxtpx:hr>
          </gpxtpx:TrackPointExtension>
        </extensions>
      </trkpt>
      <trkpt lat="43.12133" lon="1.37419">
        <ele>404.2</ele>
        <time>2023-03-05T14:18:55Z</time>
        <extensions>
          <gpxtpx:TrackPointExtension xmlns:gpxtpx="http://www.garmin.com/xmlschemas/TrackPointExtension/v1">
            <gpxtpx:hr>131</gpxtpx:hr>
          </gpxtpx:TrackPointExtension>
        </extensions>
      </trkpt>
      <trkpt lat="43.12133" lon="1.37423">
        <ele>404.6</ele>
        <time>2023-03-05T14:18:56Z</time>
        <extensions>
          <gpxtpx:TrackPointExtension xmlns:gpxtpx="http://www.garmin.com/xmlschemas/TrackPointExtension/v1">
            <gpxtpx:hr>131</gpxtpx:hr>
          </gpxtpx:TrackPointExtension>
        </extensions>
      </trkpt>
      <trkpt lat="43.12134" lon="1.37426">
        <ele>404.6</ele>
        <time>2023-03-05T14:18:57Z</time>
        <extensions>
          <gpxtpx:TrackPointExtension xmlns:gpxtpx="http://www.garmin.com/xmlschemas/TrackPointExtension/v1">
            <gpxtpx:hr>131</gpxtpx:hr>
          </gpxtpx:TrackPointExtension>
        </extensions>
      </trkpt>
      <trkpt lat="43.12136" lon="1.37433">
        <ele>405.4</ele>
        <time>2023-03-05T14:18:59Z</time>
        <extensions>
          <gpxtpx:TrackPointExtension xmlns:gpxtpx="http://www.garmin.com/xmlschemas/TrackPointExtension/v1">
            <gpxtpx:hr>131</gpxtpx:hr>
          </gpxtpx:TrackPointExtension>
        </extensions>
      </trkpt>
      <trkpt lat="43.12137" lon="1.37437">
        <ele>405.8</ele>
        <time>2023-03-05T14:19:00Z</time>
        <extensions>
          <gpxtpx:TrackPointExtension xmlns:gpxtpx="http://www.garmin.com/xmlschemas/TrackPointExtension/v1">
            <gpxtpx:hr>131</gpxtpx:hr>
          </gpxtpx:TrackPointExtension>
        </extensions>
      </trkpt>
      <trkpt lat="43.12137" lon="1.3744">
        <ele>406.2</ele>
        <time>2023-03-05T14:19:01Z</time>
        <extensions>
          <gpxtpx:TrackPointExtension xmlns:gpxtpx="http://www.garmin.com/xmlschemas/TrackPointExtension/v1">
            <gpxtpx:hr>131</gpxtpx:hr>
          </gpxtpx:TrackPointExtension>
        </extensions>
      </trkpt>
      <trkpt lat="43.12137" lon="1.37443">
        <ele>406.6</ele>
        <time>2023-03-05T14:19:02Z</time>
        <extensions>
          <gpxtpx:TrackPointExtension xmlns:gpxtpx="http://www.garmin.com/xmlschemas/TrackPointExtension/v1">
            <gpxtpx:hr>131</gpxtpx:hr>
          </gpxtpx:TrackPointExtension>
        </extensions>
      </trkpt>
      <trkpt lat="43.12139" lon="1.37451">
        <ele>407</ele>
        <time>2023-03-05T14:19:04Z</time>
        <extensions>
          <gpxtpx:TrackPointExtension xmlns:gpxtpx="http://www.garmin.com/xmlschemas/TrackPointExtension/v1">
            <gpxtpx:hr>131</gpxtpx:hr>
          </gpxtpx:TrackPointExtension>
        </extensions>
      </trkpt>
      <trkpt lat="43.1214" lon="1.37455">
        <ele>407.4</ele>
        <time>2023-03-05T14:19:05Z</time>
        <extensions>
          <gpxtpx:TrackPointExtension xmlns:gpxtpx="http://www.garmin.com/xmlschemas/TrackPointExtension/v1">
            <gpxtpx:hr>131</gpxtpx:hr>
          </gpxtpx:TrackPointExtension>
        </extensions>
      </trkpt>
      <trkpt lat="43.12141" lon="1.37459">
        <ele>407.8</ele>
        <time>2023-03-05T14:19:06Z</time>
        <extensions>
          <gpxtpx:TrackPointExtension xmlns:gpxtpx="http://www.garmin.com/xmlschemas/TrackPointExtension/v1">
            <gpxtpx:hr>131</gpxtpx:hr>
          </gpxtpx:TrackPointExtension>
        </extensions>
      </trkpt>
      <trkpt lat="43.12141" lon="1.37463">
        <ele>408.2</ele>
        <time>2023-03-05T14:19:07Z</time>
        <extensions>
          <gpxtpx:TrackPointExtension xmlns:gpxtpx="http://www.garmin.com/xmlschemas/TrackPointExtension/v1">
            <gpxtpx:hr>132</gpxtpx:hr>
          </gpxtpx:TrackPointExtension>
        </extensions>
      </trkpt>
      <trkpt lat="43.12142" lon="1.37467">
        <ele>408.6</ele>
        <time>2023-03-05T14:19:08Z</time>
        <extensions>
          <gpxtpx:TrackPointExtension xmlns:gpxtpx="http://www.garmin.com/xmlschemas/TrackPointExtension/v1">
            <gpxtpx:hr>132</gpxtpx:hr>
          </gpxtpx:TrackPointExtension>
        </extensions>
      </trkpt>
      <trkpt lat="43.12144" lon="1.37476">
        <ele>408.6</ele>
        <time>2023-03-05T14:19:11Z</time>
        <extensions>
          <gpxtpx:TrackPointExtension xmlns:gpxtpx="http://www.garmin.com/xmlschemas/TrackPointExtension/v1">
            <gpxtpx:hr>132</gpxtpx:hr>
          </gpxtpx:TrackPointExtension>
        </extensions>
      </trkpt>
      <trkpt lat="43.12146" lon="1.37498">
        <ele>408.6</ele>
        <time>2023-03-05T14:19:18Z</time>
        <extensions>
          <gpxtpx:TrackPointExtension xmlns:gpxtpx="http://www.garmin.com/xmlschemas/TrackPointExtension/v1">
            <gpxtpx:hr>133</gpxtpx:hr>
          </gpxtpx:TrackPointExtension>
        </extensions>
      </trkpt>
      <trkpt lat="43.1215" lon="1.37515">
        <ele>409.2</ele>
        <time>2023-03-05T14:19:23Z</time>
        <extensions>
          <gpxtpx:TrackPointExtension xmlns:gpxtpx="http://www.garmin.com/xmlschemas/TrackPointExtension/v1">
            <gpxtpx:hr>133</gpxtpx:hr>
          </gpxtpx:TrackPointExtension>
        </extensions>
      </trkpt>
      <trkpt lat="43.12151" lon="1.37519">
        <ele>409.6</ele>
        <time>2023-03-05T14:19:24Z</time>
        <extensions>
          <gpxtpx:TrackPointExtension xmlns:gpxtpx="http://www.garmin.com/xmlschemas/TrackPointExtension/v1">
            <gpxtpx:hr>133</gpxtpx:hr>
          </gpxtpx:TrackPointExtension>
        </extensions>
      </trkpt>
      <trkpt lat="43.12152" lon="1.37522">
        <ele>410</ele>
        <time>2023-03-05T14:19:25Z</time>
        <extensions>
          <gpxtpx:TrackPointExtension xmlns:gpxtpx="http://www.garmin.com/xmlschemas/TrackPointExtension/v1">
            <gpxtpx:hr>133</gpxtpx:hr>
          </gpxtpx:TrackPointExtension>
        </extensions>
      </trkpt>
      <trkpt lat="43.12152" lon="1.37526">
        <ele>410.4</ele>
        <time>2023-03-05T14:19:26Z</time>
        <extensions>
          <gpxtpx:TrackPointExtension xmlns:gpxtpx="http://www.garmin.com/xmlschemas/TrackPointExtension/v1">
            <gpxtpx:hr>133</gpxtpx:hr>
          </gpxtpx:TrackPointExtension>
        </extensions>
      </trkpt>
      <trkpt lat="43.12153" lon="1.37529">
        <ele>410.8</ele>
        <time>2023-03-05T14:19:27Z</time>
        <extensions>
          <gpxtpx:TrackPointExtension xmlns:gpxtpx="http://www.garmin.com/xmlschemas/TrackPointExtension/v1">
            <gpxtpx:hr>132</gpxtpx:hr>
          </gpxtpx:TrackPointExtension>
        </extensions>
      </trkpt>
      <trkpt lat="43.12157" lon="1.37539">
        <ele>410.8</ele>
        <time>2023-03-05T14:19:30Z</time>
        <extensions>
          <gpxtpx:TrackPointExtension xmlns:gpxtpx="http://www.garmin.com/xmlschemas/TrackPointExtension/v1">
            <gpxtpx:hr>132</gpxtpx:hr>
          </gpxtpx:TrackPointExtension>
        </extensions>
      </trkpt>
      <trkpt lat="43.1216" lon="1.37557">
        <ele>410.8</ele>
        <time>2023-03-05T14:19:35Z</time>
        <extensions>
          <gpxtpx:TrackPointExtension xmlns:gpxtpx="http://www.garmin.com/xmlschemas/TrackPointExtension/v1">
            <gpxtpx:hr>133</gpxtpx:hr>
          </gpxtpx:TrackPointExtension>
        </extensions>
      </trkpt>
      <trkpt lat="43.12163" lon="1.37571">
        <ele>411.2</ele>
        <time>2023-03-05T14:19:39Z</time>
        <extensions>
          <gpxtpx:TrackPointExtension xmlns:gpxtpx="http://www.garmin.com/xmlschemas/TrackPointExtension/v1">
            <gpxtpx:hr>134</gpxtpx:hr>
          </gpxtpx:TrackPointExtension>
        </extensions>
      </trkpt>
      <trkpt lat="43.12163" lon="1.37573">
        <ele>411.6</ele>
        <time>2023-03-05T14:19:40Z</time>
        <extensions>
          <gpxtpx:TrackPointExtension xmlns:gpxtpx="http://www.garmin.com/xmlschemas/TrackPointExtension/v1">
            <gpxtpx:hr>134</gpxtpx:hr>
          </gpxtpx:TrackPointExtension>
        </extensions>
      </trkpt>
      <trkpt lat="43.12164" lon="1.37575">
        <ele>412</ele>
        <time>2023-03-05T14:19:41Z</time>
        <extensions>
          <gpxtpx:TrackPointExtension xmlns:gpxtpx="http://www.garmin.com/xmlschemas/TrackPointExtension/v1">
            <gpxtpx:hr>134</gpxtpx:hr>
          </gpxtpx:TrackPointExtension>
        </extensions>
      </trkpt>
      <trkpt lat="43.12164" lon="1.37576">
        <ele>412.4</ele>
        <time>2023-03-05T14:19:42Z</time>
        <extensions>
          <gpxtpx:TrackPointExtension xmlns:gpxtpx="http://www.garmin.com/xmlschemas/TrackPointExtension/v1">
            <gpxtpx:hr>134</gpxtpx:hr>
          </gpxtpx:TrackPointExtension>
        </extensions>
      </trkpt>
      <trkpt lat="43.12164" lon="1.37577">
        <ele>412.8</ele>
        <time>2023-03-05T14:19:43Z</time>
        <extensions>
          <gpxtpx:TrackPointExtension xmlns:gpxtpx="http://www.garmin.com/xmlschemas/TrackPointExtension/v1">
            <gpxtpx:hr>134</gpxtpx:hr>
          </gpxtpx:TrackPointExtension>
        </extensions>
      </trkpt>
      <trkpt lat="43.12167" lon="1.37591">
        <ele>412.8</ele>
        <time>2023-03-05T14:20:45Z</time>
        <extensions>
          <gpxtpx:TrackPointExtension xmlns:gpxtpx="http://www.garmin.com/xmlschemas/TrackPointExtension/v1">
            <gpxtpx:hr>128</gpxtpx:hr>
          </gpxtpx:TrackPointExtension>
        </extensions>
      </trkpt>
      <trkpt lat="43.12167" lon="1.37595">
        <ele>412.8</ele>
        <time>2023-03-05T14:20:46Z</time>
        <extensions>
          <gpxtpx:TrackPointExtension xmlns:gpxtpx="http://www.garmin.com/xmlschemas/TrackPointExtension/v1">
            <gpxtpx:hr>128</gpxtpx:hr>
          </gpxtpx:TrackPointExtension>
        </extensions>
      </trkpt>
      <trkpt lat="43.12169" lon="1.37603">
        <ele>413.2</ele>
        <time>2023-03-05T14:20:48Z</time>
        <extensions>
          <gpxtpx:TrackPointExtension xmlns:gpxtpx="http://www.garmin.com/xmlschemas/TrackPointExtension/v1">
            <gpxtpx:hr>128</gpxtpx:hr>
          </gpxtpx:TrackPointExtension>
        </extensions>
      </trkpt>
      <trkpt lat="43.1217" lon="1.37606">
        <ele>413.6</ele>
        <time>2023-03-05T14:20:49Z</time>
        <extensions>
          <gpxtpx:TrackPointExtension xmlns:gpxtpx="http://www.garmin.com/xmlschemas/TrackPointExtension/v1">
            <gpxtpx:hr>128</gpxtpx:hr>
          </gpxtpx:TrackPointExtension>
        </extensions>
      </trkpt>
      <trkpt lat="43.12171" lon="1.3761">
        <ele>414</ele>
        <time>2023-03-05T14:20:50Z</time>
        <extensions>
          <gpxtpx:TrackPointExtension xmlns:gpxtpx="http://www.garmin.com/xmlschemas/TrackPointExtension/v1">
            <gpxtpx:hr>128</gpxtpx:hr>
          </gpxtpx:TrackPointExtension>
        </extensions>
      </trkpt>
      <trkpt lat="43.12171" lon="1.37614">
        <ele>414.4</ele>
        <time>2023-03-05T14:20:51Z</time>
        <extensions>
          <gpxtpx:TrackPointExtension xmlns:gpxtpx="http://www.garmin.com/xmlschemas/TrackPointExtension/v1">
            <gpxtpx:hr>127</gpxtpx:hr>
          </gpxtpx:TrackPointExtension>
        </extensions>
      </trkpt>
      <trkpt lat="43.12172" lon="1.37617">
        <ele>415</ele>
        <time>2023-03-05T14:20:52Z</time>
        <extensions>
          <gpxtpx:TrackPointExtension xmlns:gpxtpx="http://www.garmin.com/xmlschemas/TrackPointExtension/v1">
            <gpxtpx:hr>127</gpxtpx:hr>
          </gpxtpx:TrackPointExtension>
        </extensions>
      </trkpt>
      <trkpt lat="43.12177" lon="1.37641">
        <ele>415</ele>
        <time>2023-03-05T14:20:58Z</time>
        <extensions>
          <gpxtpx:TrackPointExtension xmlns:gpxtpx="http://www.garmin.com/xmlschemas/TrackPointExtension/v1">
            <gpxtpx:hr>127</gpxtpx:hr>
          </gpxtpx:TrackPointExtension>
        </extensions>
      </trkpt>
      <trkpt lat="43.12181" lon="1.37657">
        <ele>415</ele>
        <time>2023-03-05T14:21:03Z</time>
        <extensions>
          <gpxtpx:TrackPointExtension xmlns:gpxtpx="http://www.garmin.com/xmlschemas/TrackPointExtension/v1">
            <gpxtpx:hr>127</gpxtpx:hr>
          </gpxtpx:TrackPointExtension>
        </extensions>
      </trkpt>
      <trkpt lat="43.12182" lon="1.3766">
        <ele>415.4</ele>
        <time>2023-03-05T14:21:04Z</time>
        <extensions>
          <gpxtpx:TrackPointExtension xmlns:gpxtpx="http://www.garmin.com/xmlschemas/TrackPointExtension/v1">
            <gpxtpx:hr>127</gpxtpx:hr>
          </gpxtpx:TrackPointExtension>
        </extensions>
      </trkpt>
      <trkpt lat="43.12183" lon="1.37663">
        <ele>415.8</ele>
        <time>2023-03-05T14:21:05Z</time>
        <extensions>
          <gpxtpx:TrackPointExtension xmlns:gpxtpx="http://www.garmin.com/xmlschemas/TrackPointExtension/v1">
            <gpxtpx:hr>127</gpxtpx:hr>
          </gpxtpx:TrackPointExtension>
        </extensions>
      </trkpt>
      <trkpt lat="43.12184" lon="1.37667">
        <ele>416.2</ele>
        <time>2023-03-05T14:21:06Z</time>
        <extensions>
          <gpxtpx:TrackPointExtension xmlns:gpxtpx="http://www.garmin.com/xmlschemas/TrackPointExtension/v1">
            <gpxtpx:hr>127</gpxtpx:hr>
          </gpxtpx:TrackPointExtension>
        </extensions>
      </trkpt>
      <trkpt lat="43.12184" lon="1.3767">
        <ele>416.6</ele>
        <time>2023-03-05T14:21:07Z</time>
        <extensions>
          <gpxtpx:TrackPointExtension xmlns:gpxtpx="http://www.garmin.com/xmlschemas/TrackPointExtension/v1">
            <gpxtpx:hr>127</gpxtpx:hr>
          </gpxtpx:TrackPointExtension>
        </extensions>
      </trkpt>
      <trkpt lat="43.12185" lon="1.37673">
        <ele>417</ele>
        <time>2023-03-05T14:21:08Z</time>
        <extensions>
          <gpxtpx:TrackPointExtension xmlns:gpxtpx="http://www.garmin.com/xmlschemas/TrackPointExtension/v1">
            <gpxtpx:hr>127</gpxtpx:hr>
          </gpxtpx:TrackPointExtension>
        </extensions>
      </trkpt>
      <trkpt lat="43.12186" lon="1.37677">
        <ele>417</ele>
        <time>2023-03-05T14:21:09Z</time>
        <extensions>
          <gpxtpx:TrackPointExtension xmlns:gpxtpx="http://www.garmin.com/xmlschemas/TrackPointExtension/v1">
            <gpxtpx:hr>127</gpxtpx:hr>
          </gpxtpx:TrackPointExtension>
        </extensions>
      </trkpt>
      <trkpt lat="43.12189" lon="1.37691">
        <ele>417</ele>
        <time>2023-03-05T14:21:13Z</time>
        <extensions>
          <gpxtpx:TrackPointExtension xmlns:gpxtpx="http://www.garmin.com/xmlschemas/TrackPointExtension/v1">
            <gpxtpx:hr>127</gpxtpx:hr>
          </gpxtpx:TrackPointExtension>
        </extensions>
      </trkpt>
      <trkpt lat="43.12192" lon="1.3771">
        <ele>417</ele>
        <time>2023-03-05T14:21:18Z</time>
        <extensions>
          <gpxtpx:TrackPointExtension xmlns:gpxtpx="http://www.garmin.com/xmlschemas/TrackPointExtension/v1">
            <gpxtpx:hr>124</gpxtpx:hr>
          </gpxtpx:TrackPointExtension>
        </extensions>
      </trkpt>
      <trkpt lat="43.12193" lon="1.37714">
        <ele>417</ele>
        <time>2023-03-05T14:21:19Z</time>
        <extensions>
          <gpxtpx:TrackPointExtension xmlns:gpxtpx="http://www.garmin.com/xmlschemas/TrackPointExtension/v1">
            <gpxtpx:hr>123</gpxtpx:hr>
          </gpxtpx:TrackPointExtension>
        </extensions>
      </trkpt>
      <trkpt lat="43.12197" lon="1.37731">
        <ele>417</ele>
        <time>2023-03-05T14:21:24Z</time>
        <extensions>
          <gpxtpx:TrackPointExtension xmlns:gpxtpx="http://www.garmin.com/xmlschemas/TrackPointExtension/v1">
            <gpxtpx:hr>122</gpxtpx:hr>
          </gpxtpx:TrackPointExtension>
        </extensions>
      </trkpt>
      <trkpt lat="43.12199" lon="1.37749">
        <ele>417</ele>
        <time>2023-03-05T14:21:30Z</time>
        <extensions>
          <gpxtpx:TrackPointExtension xmlns:gpxtpx="http://www.garmin.com/xmlschemas/TrackPointExtension/v1">
            <gpxtpx:hr>121</gpxtpx:hr>
          </gpxtpx:TrackPointExtension>
        </extensions>
      </trkpt>
      <trkpt lat="43.12203" lon="1.37766">
        <ele>417</ele>
        <time>2023-03-05T14:21:36Z</time>
        <extensions>
          <gpxtpx:TrackPointExtension xmlns:gpxtpx="http://www.garmin.com/xmlschemas/TrackPointExtension/v1">
            <gpxtpx:hr>121</gpxtpx:hr>
          </gpxtpx:TrackPointExtension>
        </extensions>
      </trkpt>
      <trkpt lat="43.12203" lon="1.37769">
        <ele>417</ele>
        <time>2023-03-05T14:21:38Z</time>
        <extensions>
          <gpxtpx:TrackPointExtension xmlns:gpxtpx="http://www.garmin.com/xmlschemas/TrackPointExtension/v1">
            <gpxtpx:hr>121</gpxtpx:hr>
          </gpxtpx:TrackPointExtension>
        </extensions>
      </trkpt>
      <trkpt lat="43.12199" lon="1.37778">
        <ele>417</ele>
        <time>2023-03-05T14:22:39Z</time>
        <extensions>
          <gpxtpx:TrackPointExtension xmlns:gpxtpx="http://www.garmin.com/xmlschemas/TrackPointExtension/v1">
            <gpxtpx:hr>121</gpxtpx:hr>
          </gpxtpx:TrackPointExtension>
        </extensions>
      </trkpt>
      <trkpt lat="43.12199" lon="1.37781">
        <ele>417</ele>
        <time>2023-03-05T14:22:40Z</time>
        <extensions>
          <gpxtpx:TrackPointExtension xmlns:gpxtpx="http://www.garmin.com/xmlschemas/TrackPointExtension/v1">
            <gpxtpx:hr>121</gpxtpx:hr>
          </gpxtpx:TrackPointExtension>
        </extensions>
      </trkpt>
      <trkpt lat="43.12199" lon="1.37783">
        <ele>417</ele>
        <time>2023-03-05T14:22:43Z</time>
        <extensions>
          <gpxtpx:TrackPointExtension xmlns:gpxtpx="http://www.garmin.com/xmlschemas/TrackPointExtension/v1">
            <gpxtpx:hr>121</gpxtpx:hr>
          </gpxtpx:TrackPointExtension>
        </extensions>
      </trkpt>
      <trkpt lat="43.12199" lon="1.37785">
        <ele>415</ele>
        <time>2023-03-05T14:25:09Z</time>
        <extensions>
          <gpxtpx:TrackPointExtension xmlns:gpxtpx="http://www.garmin.com/xmlschemas/TrackPointExtension/v1">
            <gpxtpx:hr>107</gpxtpx:hr>
          </gpxtpx:TrackPointExtension>
        </extensions>
      </trkpt>
      <trkpt lat="43.12198" lon="1.37789">
        <ele>415</ele>
        <time>2023-03-05T14:25:10Z</time>
        <extensions>
          <gpxtpx:TrackPointExtension xmlns:gpxtpx="http://www.garmin.com/xmlschemas/TrackPointExtension/v1">
            <gpxtpx:hr>107</gpxtpx:hr>
          </gpxtpx:TrackPointExtension>
        </extensions>
      </trkpt>
      <trkpt lat="43.122" lon="1.37802">
        <ele>415</ele>
        <time>2023-03-05T14:25:14Z</time>
        <extensions>
          <gpxtpx:TrackPointExtension xmlns:gpxtpx="http://www.garmin.com/xmlschemas/TrackPointExtension/v1">
            <gpxtpx:hr>108</gpxtpx:hr>
          </gpxtpx:TrackPointExtension>
        </extensions>
      </trkpt>
      <trkpt lat="43.12202" lon="1.37808">
        <ele>415</ele>
        <time>2023-03-05T14:25:16Z</time>
        <extensions>
          <gpxtpx:TrackPointExtension xmlns:gpxtpx="http://www.garmin.com/xmlschemas/TrackPointExtension/v1">
            <gpxtpx:hr>108</gpxtpx:hr>
          </gpxtpx:TrackPointExtension>
        </extensions>
      </trkpt>
      <trkpt lat="43.12206" lon="1.37822">
        <ele>415</ele>
        <time>2023-03-05T14:25:20Z</time>
        <extensions>
          <gpxtpx:TrackPointExtension xmlns:gpxtpx="http://www.garmin.com/xmlschemas/TrackPointExtension/v1">
            <gpxtpx:hr>108</gpxtpx:hr>
          </gpxtpx:TrackPointExtension>
        </extensions>
      </trkpt>
      <trkpt lat="43.1221" lon="1.37839">
        <ele>415.4</ele>
        <time>2023-03-05T14:25:25Z</time>
        <extensions>
          <gpxtpx:TrackPointExtension xmlns:gpxtpx="http://www.garmin.com/xmlschemas/TrackPointExtension/v1">
            <gpxtpx:hr>109</gpxtpx:hr>
          </gpxtpx:TrackPointExtension>
        </extensions>
      </trkpt>
      <trkpt lat="43.12211" lon="1.37841">
        <ele>415.8</ele>
        <time>2023-03-05T14:25:26Z</time>
        <extensions>
          <gpxtpx:TrackPointExtension xmlns:gpxtpx="http://www.garmin.com/xmlschemas/TrackPointExtension/v1">
            <gpxtpx:hr>109</gpxtpx:hr>
          </gpxtpx:TrackPointExtension>
        </extensions>
      </trkpt>
      <trkpt lat="43.12211" lon="1.37844">
        <ele>416.2</ele>
        <time>2023-03-05T14:25:27Z</time>
        <extensions>
          <gpxtpx:TrackPointExtension xmlns:gpxtpx="http://www.garmin.com/xmlschemas/TrackPointExtension/v1">
            <gpxtpx:hr>110</gpxtpx:hr>
          </gpxtpx:TrackPointExtension>
        </extensions>
      </trkpt>
      <trkpt lat="43.12212" lon="1.37846">
        <ele>416.8</ele>
        <time>2023-03-05T14:25:28Z</time>
        <extensions>
          <gpxtpx:TrackPointExtension xmlns:gpxtpx="http://www.garmin.com/xmlschemas/TrackPointExtension/v1">
            <gpxtpx:hr>111</gpxtpx:hr>
          </gpxtpx:TrackPointExtension>
        </extensions>
      </trkpt>
      <trkpt lat="43.12213" lon="1.37849">
        <ele>417.2</ele>
        <time>2023-03-05T14:25:29Z</time>
        <extensions>
          <gpxtpx:TrackPointExtension xmlns:gpxtpx="http://www.garmin.com/xmlschemas/TrackPointExtension/v1">
            <gpxtpx:hr>112</gpxtpx:hr>
          </gpxtpx:TrackPointExtension>
        </extensions>
      </trkpt>
      <trkpt lat="43.12213" lon="1.37856">
        <ele>417.2</ele>
        <time>2023-03-05T14:25:32Z</time>
        <extensions>
          <gpxtpx:TrackPointExtension xmlns:gpxtpx="http://www.garmin.com/xmlschemas/TrackPointExtension/v1">
            <gpxtpx:hr>113</gpxtpx:hr>
          </gpxtpx:TrackPointExtension>
        </extensions>
      </trkpt>
      <trkpt lat="43.12213" lon="1.37859">
        <ele>417.6</ele>
        <time>2023-03-05T14:25:33Z</time>
        <extensions>
          <gpxtpx:TrackPointExtension xmlns:gpxtpx="http://www.garmin.com/xmlschemas/TrackPointExtension/v1">
            <gpxtpx:hr>113</gpxtpx:hr>
          </gpxtpx:TrackPointExtension>
        </extensions>
      </trkpt>
      <trkpt lat="43.12213" lon="1.37862">
        <ele>418</ele>
        <time>2023-03-05T14:25:34Z</time>
        <extensions>
          <gpxtpx:TrackPointExtension xmlns:gpxtpx="http://www.garmin.com/xmlschemas/TrackPointExtension/v1">
            <gpxtpx:hr>113</gpxtpx:hr>
          </gpxtpx:TrackPointExtension>
        </extensions>
      </trkpt>
      <trkpt lat="43.12214" lon="1.37865">
        <ele>418.4</ele>
        <time>2023-03-05T14:25:35Z</time>
        <extensions>
          <gpxtpx:TrackPointExtension xmlns:gpxtpx="http://www.garmin.com/xmlschemas/TrackPointExtension/v1">
            <gpxtpx:hr>113</gpxtpx:hr>
          </gpxtpx:TrackPointExtension>
        </extensions>
      </trkpt>
      <trkpt lat="43.12214" lon="1.37868">
        <ele>418.8</ele>
        <time>2023-03-05T14:25:36Z</time>
        <extensions>
          <gpxtpx:TrackPointExtension xmlns:gpxtpx="http://www.garmin.com/xmlschemas/TrackPointExtension/v1">
            <gpxtpx:hr>113</gpxtpx:hr>
          </gpxtpx:TrackPointExtension>
        </extensions>
      </trkpt>
      <trkpt lat="43.12215" lon="1.37871">
        <ele>419.2</ele>
        <time>2023-03-05T14:25:37Z</time>
        <extensions>
          <gpxtpx:TrackPointExtension xmlns:gpxtpx="http://www.garmin.com/xmlschemas/TrackPointExtension/v1">
            <gpxtpx:hr>113</gpxtpx:hr>
          </gpxtpx:TrackPointExtension>
        </extensions>
      </trkpt>
      <trkpt lat="43.12216" lon="1.37882">
        <ele>419.2</ele>
        <time>2023-03-05T14:25:43Z</time>
        <extensions>
          <gpxtpx:TrackPointExtension xmlns:gpxtpx="http://www.garmin.com/xmlschemas/TrackPointExtension/v1">
            <gpxtpx:hr>115</gpxtpx:hr>
          </gpxtpx:TrackPointExtension>
        </extensions>
      </trkpt>
      <trkpt lat="43.12218" lon="1.37892">
        <ele>419.2</ele>
        <time>2023-03-05T14:27:02Z</time>
        <extensions>
          <gpxtpx:TrackPointExtension xmlns:gpxtpx="http://www.garmin.com/xmlschemas/TrackPointExtension/v1">
            <gpxtpx:hr>122</gpxtpx:hr>
          </gpxtpx:TrackPointExtension>
        </extensions>
      </trkpt>
      <trkpt lat="43.1222" lon="1.37893">
        <ele>419.2</ele>
        <time>2023-03-05T14:27:03Z</time>
        <extensions>
          <gpxtpx:TrackPointExtension xmlns:gpxtpx="http://www.garmin.com/xmlschemas/TrackPointExtension/v1">
            <gpxtpx:hr>122</gpxtpx:hr>
          </gpxtpx:TrackPointExtension>
        </extensions>
      </trkpt>
      <trkpt lat="43.12222" lon="1.37895">
        <ele>419.2</ele>
        <time>2023-03-05T14:27:04Z</time>
        <extensions>
          <gpxtpx:TrackPointExtension xmlns:gpxtpx="http://www.garmin.com/xmlschemas/TrackPointExtension/v1">
            <gpxtpx:hr>122</gpxtpx:hr>
          </gpxtpx:TrackPointExtension>
        </extensions>
      </trkpt>
      <trkpt lat="43.12226" lon="1.37902">
        <ele>419.6</ele>
        <time>2023-03-05T14:27:07Z</time>
        <extensions>
          <gpxtpx:TrackPointExtension xmlns:gpxtpx="http://www.garmin.com/xmlschemas/TrackPointExtension/v1">
            <gpxtpx:hr>122</gpxtpx:hr>
          </gpxtpx:TrackPointExtension>
        </extensions>
      </trkpt>
      <trkpt lat="43.12229" lon="1.37905">
        <ele>420</ele>
        <time>2023-03-05T14:27:08Z</time>
        <extensions>
          <gpxtpx:TrackPointExtension xmlns:gpxtpx="http://www.garmin.com/xmlschemas/TrackPointExtension/v1">
            <gpxtpx:hr>122</gpxtpx:hr>
          </gpxtpx:TrackPointExtension>
        </extensions>
      </trkpt>
      <trkpt lat="43.12231" lon="1.37908">
        <ele>420.4</ele>
        <time>2023-03-05T14:27:09Z</time>
        <extensions>
          <gpxtpx:TrackPointExtension xmlns:gpxtpx="http://www.garmin.com/xmlschemas/TrackPointExtension/v1">
            <gpxtpx:hr>122</gpxtpx:hr>
          </gpxtpx:TrackPointExtension>
        </extensions>
      </trkpt>
      <trkpt lat="43.12233" lon="1.37909">
        <ele>420.8</ele>
        <time>2023-03-05T14:27:10Z</time>
        <extensions>
          <gpxtpx:TrackPointExtension xmlns:gpxtpx="http://www.garmin.com/xmlschemas/TrackPointExtension/v1">
            <gpxtpx:hr>122</gpxtpx:hr>
          </gpxtpx:TrackPointExtension>
        </extensions>
      </trkpt>
      <trkpt lat="43.12235" lon="1.37912">
        <ele>421.2</ele>
        <time>2023-03-05T14:27:11Z</time>
        <extensions>
          <gpxtpx:TrackPointExtension xmlns:gpxtpx="http://www.garmin.com/xmlschemas/TrackPointExtension/v1">
            <gpxtpx:hr>122</gpxtpx:hr>
          </gpxtpx:TrackPointExtension>
        </extensions>
      </trkpt>
      <trkpt lat="43.12236" lon="1.37915">
        <ele>421.8</ele>
        <time>2023-03-05T14:27:12Z</time>
        <extensions>
          <gpxtpx:TrackPointExtension xmlns:gpxtpx="http://www.garmin.com/xmlschemas/TrackPointExtension/v1">
            <gpxtpx:hr>122</gpxtpx:hr>
          </gpxtpx:TrackPointExtension>
        </extensions>
      </trkpt>
      <trkpt lat="43.12238" lon="1.37918">
        <ele>422.2</ele>
        <time>2023-03-05T14:27:13Z</time>
        <extensions>
          <gpxtpx:TrackPointExtension xmlns:gpxtpx="http://www.garmin.com/xmlschemas/TrackPointExtension/v1">
            <gpxtpx:hr>122</gpxtpx:hr>
          </gpxtpx:TrackPointExtension>
        </extensions>
      </trkpt>
      <trkpt lat="43.12239" lon="1.37921">
        <ele>422.6</ele>
        <time>2023-03-05T14:27:14Z</time>
        <extensions>
          <gpxtpx:TrackPointExtension xmlns:gpxtpx="http://www.garmin.com/xmlschemas/TrackPointExtension/v1">
            <gpxtpx:hr>122</gpxtpx:hr>
          </gpxtpx:TrackPointExtension>
        </extensions>
      </trkpt>
      <trkpt lat="43.12241" lon="1.37924">
        <ele>423</ele>
        <time>2023-03-05T14:27:15Z</time>
        <extensions>
          <gpxtpx:TrackPointExtension xmlns:gpxtpx="http://www.garmin.com/xmlschemas/TrackPointExtension/v1">
            <gpxtpx:hr>122</gpxtpx:hr>
          </gpxtpx:TrackPointExtension>
        </extensions>
      </trkpt>
      <trkpt lat="43.12242" lon="1.37926">
        <ele>423.4</ele>
        <time>2023-03-05T14:27:16Z</time>
        <extensions>
          <gpxtpx:TrackPointExtension xmlns:gpxtpx="http://www.garmin.com/xmlschemas/TrackPointExtension/v1">
            <gpxtpx:hr>122</gpxtpx:hr>
          </gpxtpx:TrackPointExtension>
        </extensions>
      </trkpt>
      <trkpt lat="43.12247" lon="1.37935">
        <ele>423.8</ele>
        <time>2023-03-05T14:27:19Z</time>
        <extensions>
          <gpxtpx:TrackPointExtension xmlns:gpxtpx="http://www.garmin.com/xmlschemas/TrackPointExtension/v1">
            <gpxtpx:hr>122</gpxtpx:hr>
          </gpxtpx:TrackPointExtension>
        </extensions>
      </trkpt>
      <trkpt lat="43.12248" lon="1.37938">
        <ele>424.4</ele>
        <time>2023-03-05T14:27:20Z</time>
        <extensions>
          <gpxtpx:TrackPointExtension xmlns:gpxtpx="http://www.garmin.com/xmlschemas/TrackPointExtension/v1">
            <gpxtpx:hr>122</gpxtpx:hr>
          </gpxtpx:TrackPointExtension>
        </extensions>
      </trkpt>
      <trkpt lat="43.12249" lon="1.37941">
        <ele>424.8</ele>
        <time>2023-03-05T14:27:21Z</time>
        <extensions>
          <gpxtpx:TrackPointExtension xmlns:gpxtpx="http://www.garmin.com/xmlschemas/TrackPointExtension/v1">
            <gpxtpx:hr>122</gpxtpx:hr>
          </gpxtpx:TrackPointExtension>
        </extensions>
      </trkpt>
      <trkpt lat="43.1225" lon="1.37944">
        <ele>425.2</ele>
        <time>2023-03-05T14:27:22Z</time>
        <extensions>
          <gpxtpx:TrackPointExtension xmlns:gpxtpx="http://www.garmin.com/xmlschemas/TrackPointExtension/v1">
            <gpxtpx:hr>122</gpxtpx:hr>
          </gpxtpx:TrackPointExtension>
        </extensions>
      </trkpt>
      <trkpt lat="43.12251" lon="1.37947">
        <ele>425.8</ele>
        <time>2023-03-05T14:27:23Z</time>
        <extensions>
          <gpxtpx:TrackPointExtension xmlns:gpxtpx="http://www.garmin.com/xmlschemas/TrackPointExtension/v1">
            <gpxtpx:hr>122</gpxtpx:hr>
          </gpxtpx:TrackPointExtension>
        </extensions>
      </trkpt>
      <trkpt lat="43.12257" lon="1.3796">
        <ele>425.8</ele>
        <time>2023-03-05T14:27:29Z</time>
        <extensions>
          <gpxtpx:TrackPointExtension xmlns:gpxtpx="http://www.garmin.com/xmlschemas/TrackPointExtension/v1">
            <gpxtpx:hr>122</gpxtpx:hr>
          </gpxtpx:TrackPointExtension>
        </extensions>
      </trkpt>
      <trkpt lat="43.12257" lon="1.3796">
        <ele>425.8</ele>
        <time>2023-03-05T14:27:30Z</time>
        <extensions>
          <gpxtpx:TrackPointExtension xmlns:gpxtpx="http://www.garmin.com/xmlschemas/TrackPointExtension/v1">
            <gpxtpx:hr>122</gpxtpx:hr>
          </gpxtpx:TrackPointExtension>
        </extensions>
      </trkpt>
      <trkpt lat="43.12264" lon="1.37952">
        <ele>426.6</ele>
        <time>2023-03-05T14:28:06Z</time>
        <extensions>
          <gpxtpx:TrackPointExtension xmlns:gpxtpx="http://www.garmin.com/xmlschemas/TrackPointExtension/v1">
            <gpxtpx:hr>124</gpxtpx:hr>
          </gpxtpx:TrackPointExtension>
        </extensions>
      </trkpt>
      <trkpt lat="43.12266" lon="1.37951">
        <ele>427</ele>
        <time>2023-03-05T14:28:07Z</time>
        <extensions>
          <gpxtpx:TrackPointExtension xmlns:gpxtpx="http://www.garmin.com/xmlschemas/TrackPointExtension/v1">
            <gpxtpx:hr>124</gpxtpx:hr>
          </gpxtpx:TrackPointExtension>
        </extensions>
      </trkpt>
      <trkpt lat="43.12266" lon="1.37951">
        <ele>427.4</ele>
        <time>2023-03-05T14:28:08Z</time>
        <extensions>
          <gpxtpx:TrackPointExtension xmlns:gpxtpx="http://www.garmin.com/xmlschemas/TrackPointExtension/v1">
            <gpxtpx:hr>124</gpxtpx:hr>
          </gpxtpx:TrackPointExtension>
        </extensions>
      </trkpt>
      <trkpt lat="43.12266" lon="1.37951">
        <ele>427.8</ele>
        <time>2023-03-05T14:28:09Z</time>
        <extensions>
          <gpxtpx:TrackPointExtension xmlns:gpxtpx="http://www.garmin.com/xmlschemas/TrackPointExtension/v1">
            <gpxtpx:hr>125</gpxtpx:hr>
          </gpxtpx:TrackPointExtension>
        </extensions>
      </trkpt>
      <trkpt lat="43.12267" lon="1.37951">
        <ele>427.8</ele>
        <time>2023-03-05T14:28:12Z</time>
        <extensions>
          <gpxtpx:TrackPointExtension xmlns:gpxtpx="http://www.garmin.com/xmlschemas/TrackPointExtension/v1">
            <gpxtpx:hr>126</gpxtpx:hr>
          </gpxtpx:TrackPointExtension>
        </extensions>
      </trkpt>
      <trkpt lat="43.1227" lon="1.3795">
        <ele>427.8</ele>
        <time>2023-03-05T14:28:14Z</time>
        <extensions>
          <gpxtpx:TrackPointExtension xmlns:gpxtpx="http://www.garmin.com/xmlschemas/TrackPointExtension/v1">
            <gpxtpx:hr>127</gpxtpx:hr>
          </gpxtpx:TrackPointExtension>
        </extensions>
      </trkpt>
      <trkpt lat="43.12271" lon="1.3795">
        <ele>427.8</ele>
        <time>2023-03-05T14:28:15Z</time>
        <extensions>
          <gpxtpx:TrackPointExtension xmlns:gpxtpx="http://www.garmin.com/xmlschemas/TrackPointExtension/v1">
            <gpxtpx:hr>127</gpxtpx:hr>
          </gpxtpx:TrackPointExtension>
        </extensions>
      </trkpt>
      <trkpt lat="43.12277" lon="1.37949">
        <ele>427.8</ele>
        <time>2023-03-05T14:28:18Z</time>
        <extensions>
          <gpxtpx:TrackPointExtension xmlns:gpxtpx="http://www.garmin.com/xmlschemas/TrackPointExtension/v1">
            <gpxtpx:hr>127</gpxtpx:hr>
          </gpxtpx:TrackPointExtension>
        </extensions>
      </trkpt>
      <trkpt lat="43.12286" lon="1.37958">
        <ele>427.8</ele>
        <time>2023-03-05T14:28:23Z</time>
        <extensions>
          <gpxtpx:TrackPointExtension xmlns:gpxtpx="http://www.garmin.com/xmlschemas/TrackPointExtension/v1">
            <gpxtpx:hr>127</gpxtpx:hr>
          </gpxtpx:TrackPointExtension>
        </extensions>
      </trkpt>
      <trkpt lat="43.12289" lon="1.37969">
        <ele>427.8</ele>
        <time>2023-03-05T14:28:26Z</time>
        <extensions>
          <gpxtpx:TrackPointExtension xmlns:gpxtpx="http://www.garmin.com/xmlschemas/TrackPointExtension/v1">
            <gpxtpx:hr>127</gpxtpx:hr>
          </gpxtpx:TrackPointExtension>
        </extensions>
      </trkpt>
      <trkpt lat="43.12293" lon="1.37977">
        <ele>427.8</ele>
        <time>2023-03-05T14:28:28Z</time>
        <extensions>
          <gpxtpx:TrackPointExtension xmlns:gpxtpx="http://www.garmin.com/xmlschemas/TrackPointExtension/v1">
            <gpxtpx:hr>127</gpxtpx:hr>
          </gpxtpx:TrackPointExtension>
        </extensions>
      </trkpt>
      <trkpt lat="43.12297" lon="1.37993">
        <ele>427.8</ele>
        <time>2023-03-05T14:28:33Z</time>
        <extensions>
          <gpxtpx:TrackPointExtension xmlns:gpxtpx="http://www.garmin.com/xmlschemas/TrackPointExtension/v1">
            <gpxtpx:hr>128</gpxtpx:hr>
          </gpxtpx:TrackPointExtension>
        </extensions>
      </trkpt>
      <trkpt lat="43.123" lon="1.38014">
        <ele>427.8</ele>
        <time>2023-03-05T14:28:40Z</time>
        <extensions>
          <gpxtpx:TrackPointExtension xmlns:gpxtpx="http://www.garmin.com/xmlschemas/TrackPointExtension/v1">
            <gpxtpx:hr>128</gpxtpx:hr>
          </gpxtpx:TrackPointExtension>
        </extensions>
      </trkpt>
      <trkpt lat="43.12301" lon="1.38041">
        <ele>427.8</ele>
        <time>2023-03-05T14:28:46Z</time>
        <extensions>
          <gpxtpx:TrackPointExtension xmlns:gpxtpx="http://www.garmin.com/xmlschemas/TrackPointExtension/v1">
            <gpxtpx:hr>127</gpxtpx:hr>
          </gpxtpx:TrackPointExtension>
        </extensions>
      </trkpt>
      <trkpt lat="43.12302" lon="1.38066">
        <ele>427.8</ele>
        <time>2023-03-05T14:28:52Z</time>
        <extensions>
          <gpxtpx:TrackPointExtension xmlns:gpxtpx="http://www.garmin.com/xmlschemas/TrackPointExtension/v1">
            <gpxtpx:hr>123</gpxtpx:hr>
          </gpxtpx:TrackPointExtension>
        </extensions>
      </trkpt>
      <trkpt lat="43.12302" lon="1.38075">
        <ele>427.8</ele>
        <time>2023-03-05T14:28:54Z</time>
        <extensions>
          <gpxtpx:TrackPointExtension xmlns:gpxtpx="http://www.garmin.com/xmlschemas/TrackPointExtension/v1">
            <gpxtpx:hr>122</gpxtpx:hr>
          </gpxtpx:TrackPointExtension>
        </extensions>
      </trkpt>
      <trkpt lat="43.12304" lon="1.3811">
        <ele>427.8</ele>
        <time>2023-03-05T14:29:02Z</time>
        <extensions>
          <gpxtpx:TrackPointExtension xmlns:gpxtpx="http://www.garmin.com/xmlschemas/TrackPointExtension/v1">
            <gpxtpx:hr>120</gpxtpx:hr>
          </gpxtpx:TrackPointExtension>
        </extensions>
      </trkpt>
      <trkpt lat="43.12306" lon="1.38148">
        <ele>427.8</ele>
        <time>2023-03-05T14:29:11Z</time>
        <extensions>
          <gpxtpx:TrackPointExtension xmlns:gpxtpx="http://www.garmin.com/xmlschemas/TrackPointExtension/v1">
            <gpxtpx:hr>118</gpxtpx:hr>
          </gpxtpx:TrackPointExtension>
        </extensions>
      </trkpt>
      <trkpt lat="43.12306" lon="1.38167">
        <ele>427.8</ele>
        <time>2023-03-05T14:29:15Z</time>
        <extensions>
          <gpxtpx:TrackPointExtension xmlns:gpxtpx="http://www.garmin.com/xmlschemas/TrackPointExtension/v1">
            <gpxtpx:hr>117</gpxtpx:hr>
          </gpxtpx:TrackPointExtension>
        </extensions>
      </trkpt>
      <trkpt lat="43.12306" lon="1.38181">
        <ele>427.8</ele>
        <time>2023-03-05T14:29:18Z</time>
        <extensions>
          <gpxtpx:TrackPointExtension xmlns:gpxtpx="http://www.garmin.com/xmlschemas/TrackPointExtension/v1">
            <gpxtpx:hr>117</gpxtpx:hr>
          </gpxtpx:TrackPointExtension>
        </extensions>
      </trkpt>
      <trkpt lat="43.12308" lon="1.38208">
        <ele>427.8</ele>
        <time>2023-03-05T14:29:24Z</time>
        <extensions>
          <gpxtpx:TrackPointExtension xmlns:gpxtpx="http://www.garmin.com/xmlschemas/TrackPointExtension/v1">
            <gpxtpx:hr>115</gpxtpx:hr>
          </gpxtpx:TrackPointExtension>
        </extensions>
      </trkpt>
      <trkpt lat="43.12308" lon="1.38223">
        <ele>427.8</ele>
        <time>2023-03-05T14:29:27Z</time>
        <extensions>
          <gpxtpx:TrackPointExtension xmlns:gpxtpx="http://www.garmin.com/xmlschemas/TrackPointExtension/v1">
            <gpxtpx:hr>108</gpxtpx:hr>
          </gpxtpx:TrackPointExtension>
        </extensions>
      </trkpt>
      <trkpt lat="43.12308" lon="1.38228">
        <ele>427.8</ele>
        <time>2023-03-05T14:29:28Z</time>
        <extensions>
          <gpxtpx:TrackPointExtension xmlns:gpxtpx="http://www.garmin.com/xmlschemas/TrackPointExtension/v1">
            <gpxtpx:hr>108</gpxtpx:hr>
          </gpxtpx:TrackPointExtension>
        </extensions>
      </trkpt>
      <trkpt lat="43.12309" lon="1.38239">
        <ele>427.8</ele>
        <time>2023-03-05T14:29:30Z</time>
        <extensions>
          <gpxtpx:TrackPointExtension xmlns:gpxtpx="http://www.garmin.com/xmlschemas/TrackPointExtension/v1">
            <gpxtpx:hr>108</gpxtpx:hr>
          </gpxtpx:TrackPointExtension>
        </extensions>
      </trkpt>
      <trkpt lat="43.12311" lon="1.38282">
        <ele>427.8</ele>
        <time>2023-03-05T14:29:38Z</time>
        <extensions>
          <gpxtpx:TrackPointExtension xmlns:gpxtpx="http://www.garmin.com/xmlschemas/TrackPointExtension/v1">
            <gpxtpx:hr>110</gpxtpx:hr>
          </gpxtpx:TrackPointExtension>
        </extensions>
      </trkpt>
      <trkpt lat="43.12313" lon="1.38325">
        <ele>427.8</ele>
        <time>2023-03-05T14:29:46Z</time>
        <extensions>
          <gpxtpx:TrackPointExtension xmlns:gpxtpx="http://www.garmin.com/xmlschemas/TrackPointExtension/v1">
            <gpxtpx:hr>110</gpxtpx:hr>
          </gpxtpx:TrackPointExtension>
        </extensions>
      </trkpt>
      <trkpt lat="43.12313" lon="1.3836">
        <ele>427.8</ele>
        <time>2023-03-05T14:29:52Z</time>
        <extensions>
          <gpxtpx:TrackPointExtension xmlns:gpxtpx="http://www.garmin.com/xmlschemas/TrackPointExtension/v1">
            <gpxtpx:hr>113</gpxtpx:hr>
          </gpxtpx:TrackPointExtension>
        </extensions>
      </trkpt>
      <trkpt lat="43.12313" lon="1.38365">
        <ele>427.8</ele>
        <time>2023-03-05T14:29:53Z</time>
        <extensions>
          <gpxtpx:TrackPointExtension xmlns:gpxtpx="http://www.garmin.com/xmlschemas/TrackPointExtension/v1">
            <gpxtpx:hr>113</gpxtpx:hr>
          </gpxtpx:TrackPointExtension>
        </extensions>
      </trkpt>
      <trkpt lat="43.12313" lon="1.38397">
        <ele>427.8</ele>
        <time>2023-03-05T14:29:59Z</time>
        <extensions>
          <gpxtpx:TrackPointExtension xmlns:gpxtpx="http://www.garmin.com/xmlschemas/TrackPointExtension/v1">
            <gpxtpx:hr>113</gpxtpx:hr>
          </gpxtpx:TrackPointExtension>
        </extensions>
      </trkpt>
      <trkpt lat="43.12312" lon="1.38407">
        <ele>428.2</ele>
        <time>2023-03-05T14:30:01Z</time>
        <extensions>
          <gpxtpx:TrackPointExtension xmlns:gpxtpx="http://www.garmin.com/xmlschemas/TrackPointExtension/v1">
            <gpxtpx:hr>113</gpxtpx:hr>
          </gpxtpx:TrackPointExtension>
        </extensions>
      </trkpt>
      <trkpt lat="43.12312" lon="1.38412">
        <ele>428.6</ele>
        <time>2023-03-05T14:30:02Z</time>
        <extensions>
          <gpxtpx:TrackPointExtension xmlns:gpxtpx="http://www.garmin.com/xmlschemas/TrackPointExtension/v1">
            <gpxtpx:hr>113</gpxtpx:hr>
          </gpxtpx:TrackPointExtension>
        </extensions>
      </trkpt>
      <trkpt lat="43.12313" lon="1.38418">
        <ele>429.2</ele>
        <time>2023-03-05T14:30:03Z</time>
        <extensions>
          <gpxtpx:TrackPointExtension xmlns:gpxtpx="http://www.garmin.com/xmlschemas/TrackPointExtension/v1">
            <gpxtpx:hr>113</gpxtpx:hr>
          </gpxtpx:TrackPointExtension>
        </extensions>
      </trkpt>
      <trkpt lat="43.12313" lon="1.38423">
        <ele>430</ele>
        <time>2023-03-05T14:30:04Z</time>
        <extensions>
          <gpxtpx:TrackPointExtension xmlns:gpxtpx="http://www.garmin.com/xmlschemas/TrackPointExtension/v1">
            <gpxtpx:hr>115</gpxtpx:hr>
          </gpxtpx:TrackPointExtension>
        </extensions>
      </trkpt>
      <trkpt lat="43.12312" lon="1.38428">
        <ele>430</ele>
        <time>2023-03-05T14:30:05Z</time>
        <extensions>
          <gpxtpx:TrackPointExtension xmlns:gpxtpx="http://www.garmin.com/xmlschemas/TrackPointExtension/v1">
            <gpxtpx:hr>116</gpxtpx:hr>
          </gpxtpx:TrackPointExtension>
        </extensions>
      </trkpt>
      <trkpt lat="43.12313" lon="1.38443">
        <ele>430.4</ele>
        <time>2023-03-05T14:30:08Z</time>
        <extensions>
          <gpxtpx:TrackPointExtension xmlns:gpxtpx="http://www.garmin.com/xmlschemas/TrackPointExtension/v1">
            <gpxtpx:hr>116</gpxtpx:hr>
          </gpxtpx:TrackPointExtension>
        </extensions>
      </trkpt>
      <trkpt lat="43.12313" lon="1.38448">
        <ele>430.8</ele>
        <time>2023-03-05T14:30:09Z</time>
        <extensions>
          <gpxtpx:TrackPointExtension xmlns:gpxtpx="http://www.garmin.com/xmlschemas/TrackPointExtension/v1">
            <gpxtpx:hr>118</gpxtpx:hr>
          </gpxtpx:TrackPointExtension>
        </extensions>
      </trkpt>
      <trkpt lat="43.12313" lon="1.38453">
        <ele>431.2</ele>
        <time>2023-03-05T14:30:10Z</time>
        <extensions>
          <gpxtpx:TrackPointExtension xmlns:gpxtpx="http://www.garmin.com/xmlschemas/TrackPointExtension/v1">
            <gpxtpx:hr>118</gpxtpx:hr>
          </gpxtpx:TrackPointExtension>
        </extensions>
      </trkpt>
      <trkpt lat="43.12312" lon="1.38458">
        <ele>431.6</ele>
        <time>2023-03-05T14:30:11Z</time>
        <extensions>
          <gpxtpx:TrackPointExtension xmlns:gpxtpx="http://www.garmin.com/xmlschemas/TrackPointExtension/v1">
            <gpxtpx:hr>118</gpxtpx:hr>
          </gpxtpx:TrackPointExtension>
        </extensions>
      </trkpt>
      <trkpt lat="43.12312" lon="1.38463">
        <ele>432</ele>
        <time>2023-03-05T14:30:12Z</time>
        <extensions>
          <gpxtpx:TrackPointExtension xmlns:gpxtpx="http://www.garmin.com/xmlschemas/TrackPointExtension/v1">
            <gpxtpx:hr>118</gpxtpx:hr>
          </gpxtpx:TrackPointExtension>
        </extensions>
      </trkpt>
      <trkpt lat="43.12311" lon="1.38499">
        <ele>432</ele>
        <time>2023-03-05T14:30:19Z</time>
        <extensions>
          <gpxtpx:TrackPointExtension xmlns:gpxtpx="http://www.garmin.com/xmlschemas/TrackPointExtension/v1">
            <gpxtpx:hr>118</gpxtpx:hr>
          </gpxtpx:TrackPointExtension>
        </extensions>
      </trkpt>
      <trkpt lat="43.12311" lon="1.38551">
        <ele>432</ele>
        <time>2023-03-05T14:30:27Z</time>
        <extensions>
          <gpxtpx:TrackPointExtension xmlns:gpxtpx="http://www.garmin.com/xmlschemas/TrackPointExtension/v1">
            <gpxtpx:hr>118</gpxtpx:hr>
          </gpxtpx:TrackPointExtension>
        </extensions>
      </trkpt>
      <trkpt lat="43.1231" lon="1.38566">
        <ele>431.2</ele>
        <time>2023-03-05T14:30:29Z</time>
        <extensions>
          <gpxtpx:TrackPointExtension xmlns:gpxtpx="http://www.garmin.com/xmlschemas/TrackPointExtension/v1">
            <gpxtpx:hr>118</gpxtpx:hr>
          </gpxtpx:TrackPointExtension>
        </extensions>
      </trkpt>
      <trkpt lat="43.1231" lon="1.38574">
        <ele>430.8</ele>
        <time>2023-03-05T14:30:30Z</time>
        <extensions>
          <gpxtpx:TrackPointExtension xmlns:gpxtpx="http://www.garmin.com/xmlschemas/TrackPointExtension/v1">
            <gpxtpx:hr>118</gpxtpx:hr>
          </gpxtpx:TrackPointExtension>
        </extensions>
      </trkpt>
      <trkpt lat="43.12311" lon="1.3858">
        <ele>430.4</ele>
        <time>2023-03-05T14:30:31Z</time>
        <extensions>
          <gpxtpx:TrackPointExtension xmlns:gpxtpx="http://www.garmin.com/xmlschemas/TrackPointExtension/v1">
            <gpxtpx:hr>118</gpxtpx:hr>
          </gpxtpx:TrackPointExtension>
        </extensions>
      </trkpt>
      <trkpt lat="43.12313" lon="1.38586">
        <ele>429.8</ele>
        <time>2023-03-05T14:30:32Z</time>
        <extensions>
          <gpxtpx:TrackPointExtension xmlns:gpxtpx="http://www.garmin.com/xmlschemas/TrackPointExtension/v1">
            <gpxtpx:hr>118</gpxtpx:hr>
          </gpxtpx:TrackPointExtension>
        </extensions>
      </trkpt>
      <trkpt lat="43.12317" lon="1.38591">
        <ele>429.2</ele>
        <time>2023-03-05T14:30:33Z</time>
        <extensions>
          <gpxtpx:TrackPointExtension xmlns:gpxtpx="http://www.garmin.com/xmlschemas/TrackPointExtension/v1">
            <gpxtpx:hr>118</gpxtpx:hr>
          </gpxtpx:TrackPointExtension>
        </extensions>
      </trkpt>
      <trkpt lat="43.12321" lon="1.38594">
        <ele>428.6</ele>
        <time>2023-03-05T14:30:34Z</time>
        <extensions>
          <gpxtpx:TrackPointExtension xmlns:gpxtpx="http://www.garmin.com/xmlschemas/TrackPointExtension/v1">
            <gpxtpx:hr>118</gpxtpx:hr>
          </gpxtpx:TrackPointExtension>
        </extensions>
      </trkpt>
      <trkpt lat="43.12326" lon="1.38595">
        <ele>428</ele>
        <time>2023-03-05T14:30:35Z</time>
        <extensions>
          <gpxtpx:TrackPointExtension xmlns:gpxtpx="http://www.garmin.com/xmlschemas/TrackPointExtension/v1">
            <gpxtpx:hr>118</gpxtpx:hr>
          </gpxtpx:TrackPointExtension>
        </extensions>
      </trkpt>
      <trkpt lat="43.1233" lon="1.38596">
        <ele>427.6</ele>
        <time>2023-03-05T14:30:36Z</time>
        <extensions>
          <gpxtpx:TrackPointExtension xmlns:gpxtpx="http://www.garmin.com/xmlschemas/TrackPointExtension/v1">
            <gpxtpx:hr>118</gpxtpx:hr>
          </gpxtpx:TrackPointExtension>
        </extensions>
      </trkpt>
      <trkpt lat="43.12334" lon="1.38597">
        <ele>427.6</ele>
        <time>2023-03-05T14:30:37Z</time>
        <extensions>
          <gpxtpx:TrackPointExtension xmlns:gpxtpx="http://www.garmin.com/xmlschemas/TrackPointExtension/v1">
            <gpxtpx:hr>118</gpxtpx:hr>
          </gpxtpx:TrackPointExtension>
        </extensions>
      </trkpt>
      <trkpt lat="43.12347" lon="1.38602">
        <ele>427.6</ele>
        <time>2023-03-05T14:30:40Z</time>
        <extensions>
          <gpxtpx:TrackPointExtension xmlns:gpxtpx="http://www.garmin.com/xmlschemas/TrackPointExtension/v1">
            <gpxtpx:hr>118</gpxtpx:hr>
          </gpxtpx:TrackPointExtension>
        </extensions>
      </trkpt>
      <trkpt lat="43.12356" lon="1.38606">
        <ele>427.6</ele>
        <time>2023-03-05T14:30:42Z</time>
        <extensions>
          <gpxtpx:TrackPointExtension xmlns:gpxtpx="http://www.garmin.com/xmlschemas/TrackPointExtension/v1">
            <gpxtpx:hr>119</gpxtpx:hr>
          </gpxtpx:TrackPointExtension>
        </extensions>
      </trkpt>
      <trkpt lat="43.1237" lon="1.3861">
        <ele>427.6</ele>
        <time>2023-03-05T14:30:45Z</time>
        <extensions>
          <gpxtpx:TrackPointExtension xmlns:gpxtpx="http://www.garmin.com/xmlschemas/TrackPointExtension/v1">
            <gpxtpx:hr>118</gpxtpx:hr>
          </gpxtpx:TrackPointExtension>
        </extensions>
      </trkpt>
      <trkpt lat="43.12383" lon="1.38616">
        <ele>427.6</ele>
        <time>2023-03-05T14:30:48Z</time>
        <extensions>
          <gpxtpx:TrackPointExtension xmlns:gpxtpx="http://www.garmin.com/xmlschemas/TrackPointExtension/v1">
            <gpxtpx:hr>118</gpxtpx:hr>
          </gpxtpx:TrackPointExtension>
        </extensions>
      </trkpt>
      <trkpt lat="43.12405" lon="1.38628">
        <ele>427.6</ele>
        <time>2023-03-05T14:30:54Z</time>
        <extensions>
          <gpxtpx:TrackPointExtension xmlns:gpxtpx="http://www.garmin.com/xmlschemas/TrackPointExtension/v1">
            <gpxtpx:hr>118</gpxtpx:hr>
          </gpxtpx:TrackPointExtension>
        </extensions>
      </trkpt>
      <trkpt lat="43.12413" lon="1.38634">
        <ele>427</ele>
        <time>2023-03-05T14:30:56Z</time>
        <extensions>
          <gpxtpx:TrackPointExtension xmlns:gpxtpx="http://www.garmin.com/xmlschemas/TrackPointExtension/v1">
            <gpxtpx:hr>118</gpxtpx:hr>
          </gpxtpx:TrackPointExtension>
        </extensions>
      </trkpt>
      <trkpt lat="43.12416" lon="1.38638">
        <ele>426.6</ele>
        <time>2023-03-05T14:30:57Z</time>
        <extensions>
          <gpxtpx:TrackPointExtension xmlns:gpxtpx="http://www.garmin.com/xmlschemas/TrackPointExtension/v1">
            <gpxtpx:hr>118</gpxtpx:hr>
          </gpxtpx:TrackPointExtension>
        </extensions>
      </trkpt>
      <trkpt lat="43.12421" lon="1.38641">
        <ele>426.2</ele>
        <time>2023-03-05T14:30:58Z</time>
        <extensions>
          <gpxtpx:TrackPointExtension xmlns:gpxtpx="http://www.garmin.com/xmlschemas/TrackPointExtension/v1">
            <gpxtpx:hr>118</gpxtpx:hr>
          </gpxtpx:TrackPointExtension>
        </extensions>
      </trkpt>
      <trkpt lat="43.12425" lon="1.38646">
        <ele>425.8</ele>
        <time>2023-03-05T14:30:59Z</time>
        <extensions>
          <gpxtpx:TrackPointExtension xmlns:gpxtpx="http://www.garmin.com/xmlschemas/TrackPointExtension/v1">
            <gpxtpx:hr>118</gpxtpx:hr>
          </gpxtpx:TrackPointExtension>
        </extensions>
      </trkpt>
      <trkpt lat="43.12429" lon="1.3865">
        <ele>425.2</ele>
        <time>2023-03-05T14:31:00Z</time>
        <extensions>
          <gpxtpx:TrackPointExtension xmlns:gpxtpx="http://www.garmin.com/xmlschemas/TrackPointExtension/v1">
            <gpxtpx:hr>118</gpxtpx:hr>
          </gpxtpx:TrackPointExtension>
        </extensions>
      </trkpt>
      <trkpt lat="43.12444" lon="1.38666">
        <ele>424.8</ele>
        <time>2023-03-05T14:31:03Z</time>
        <extensions>
          <gpxtpx:TrackPointExtension xmlns:gpxtpx="http://www.garmin.com/xmlschemas/TrackPointExtension/v1">
            <gpxtpx:hr>118</gpxtpx:hr>
          </gpxtpx:TrackPointExtension>
        </extensions>
      </trkpt>
      <trkpt lat="43.12448" lon="1.38673">
        <ele>424.4</ele>
        <time>2023-03-05T14:31:04Z</time>
        <extensions>
          <gpxtpx:TrackPointExtension xmlns:gpxtpx="http://www.garmin.com/xmlschemas/TrackPointExtension/v1">
            <gpxtpx:hr>118</gpxtpx:hr>
          </gpxtpx:TrackPointExtension>
        </extensions>
      </trkpt>
      <trkpt lat="43.1245" lon="1.38681">
        <ele>424</ele>
        <time>2023-03-05T14:31:05Z</time>
        <extensions>
          <gpxtpx:TrackPointExtension xmlns:gpxtpx="http://www.garmin.com/xmlschemas/TrackPointExtension/v1">
            <gpxtpx:hr>118</gpxtpx:hr>
          </gpxtpx:TrackPointExtension>
        </extensions>
      </trkpt>
      <trkpt lat="43.12452" lon="1.38689">
        <ele>423.6</ele>
        <time>2023-03-05T14:31:06Z</time>
        <extensions>
          <gpxtpx:TrackPointExtension xmlns:gpxtpx="http://www.garmin.com/xmlschemas/TrackPointExtension/v1">
            <gpxtpx:hr>118</gpxtpx:hr>
          </gpxtpx:TrackPointExtension>
        </extensions>
      </trkpt>
      <trkpt lat="43.12453" lon="1.38697">
        <ele>423</ele>
        <time>2023-03-05T14:31:07Z</time>
        <extensions>
          <gpxtpx:TrackPointExtension xmlns:gpxtpx="http://www.garmin.com/xmlschemas/TrackPointExtension/v1">
            <gpxtpx:hr>118</gpxtpx:hr>
          </gpxtpx:TrackPointExtension>
        </extensions>
      </trkpt>
      <trkpt lat="43.12451" lon="1.38714">
        <ele>422.6</ele>
        <time>2023-03-05T14:31:09Z</time>
        <extensions>
          <gpxtpx:TrackPointExtension xmlns:gpxtpx="http://www.garmin.com/xmlschemas/TrackPointExtension/v1">
            <gpxtpx:hr>118</gpxtpx:hr>
          </gpxtpx:TrackPointExtension>
        </extensions>
      </trkpt>
      <trkpt lat="43.12449" lon="1.38722">
        <ele>422.2</ele>
        <time>2023-03-05T14:31:10Z</time>
        <extensions>
          <gpxtpx:TrackPointExtension xmlns:gpxtpx="http://www.garmin.com/xmlschemas/TrackPointExtension/v1">
            <gpxtpx:hr>118</gpxtpx:hr>
          </gpxtpx:TrackPointExtension>
        </extensions>
      </trkpt>
      <trkpt lat="43.12448" lon="1.3873">
        <ele>421.8</ele>
        <time>2023-03-05T14:31:11Z</time>
        <extensions>
          <gpxtpx:TrackPointExtension xmlns:gpxtpx="http://www.garmin.com/xmlschemas/TrackPointExtension/v1">
            <gpxtpx:hr>118</gpxtpx:hr>
          </gpxtpx:TrackPointExtension>
        </extensions>
      </trkpt>
      <trkpt lat="43.12446" lon="1.38739">
        <ele>421.4</ele>
        <time>2023-03-05T14:31:12Z</time>
        <extensions>
          <gpxtpx:TrackPointExtension xmlns:gpxtpx="http://www.garmin.com/xmlschemas/TrackPointExtension/v1">
            <gpxtpx:hr>118</gpxtpx:hr>
          </gpxtpx:TrackPointExtension>
        </extensions>
      </trkpt>
      <trkpt lat="43.12444" lon="1.38747">
        <ele>421</ele>
        <time>2023-03-05T14:31:13Z</time>
        <extensions>
          <gpxtpx:TrackPointExtension xmlns:gpxtpx="http://www.garmin.com/xmlschemas/TrackPointExtension/v1">
            <gpxtpx:hr>118</gpxtpx:hr>
          </gpxtpx:TrackPointExtension>
        </extensions>
      </trkpt>
      <trkpt lat="43.1244" lon="1.38771">
        <ele>421</ele>
        <time>2023-03-05T14:31:16Z</time>
        <extensions>
          <gpxtpx:TrackPointExtension xmlns:gpxtpx="http://www.garmin.com/xmlschemas/TrackPointExtension/v1">
            <gpxtpx:hr>118</gpxtpx:hr>
          </gpxtpx:TrackPointExtension>
        </extensions>
      </trkpt>
      <trkpt lat="43.12431" lon="1.38817">
        <ele>421</ele>
        <time>2023-03-05T14:31:23Z</time>
        <extensions>
          <gpxtpx:TrackPointExtension xmlns:gpxtpx="http://www.garmin.com/xmlschemas/TrackPointExtension/v1">
            <gpxtpx:hr>117</gpxtpx:hr>
          </gpxtpx:TrackPointExtension>
        </extensions>
      </trkpt>
      <trkpt lat="43.12422" lon="1.38866">
        <ele>421</ele>
        <time>2023-03-05T14:31:31Z</time>
        <extensions>
          <gpxtpx:TrackPointExtension xmlns:gpxtpx="http://www.garmin.com/xmlschemas/TrackPointExtension/v1">
            <gpxtpx:hr>117</gpxtpx:hr>
          </gpxtpx:TrackPointExtension>
        </extensions>
      </trkpt>
      <trkpt lat="43.12418" lon="1.38888">
        <ele>421</ele>
        <time>2023-03-05T14:31:34Z</time>
        <extensions>
          <gpxtpx:TrackPointExtension xmlns:gpxtpx="http://www.garmin.com/xmlschemas/TrackPointExtension/v1">
            <gpxtpx:hr>109</gpxtpx:hr>
          </gpxtpx:TrackPointExtension>
        </extensions>
      </trkpt>
      <trkpt lat="43.12416" lon="1.38896">
        <ele>421</ele>
        <time>2023-03-05T14:31:35Z</time>
        <extensions>
          <gpxtpx:TrackPointExtension xmlns:gpxtpx="http://www.garmin.com/xmlschemas/TrackPointExtension/v1">
            <gpxtpx:hr>109</gpxtpx:hr>
          </gpxtpx:TrackPointExtension>
        </extensions>
      </trkpt>
      <trkpt lat="43.12411" lon="1.38918">
        <ele>421</ele>
        <time>2023-03-05T14:31:38Z</time>
        <extensions>
          <gpxtpx:TrackPointExtension xmlns:gpxtpx="http://www.garmin.com/xmlschemas/TrackPointExtension/v1">
            <gpxtpx:hr>109</gpxtpx:hr>
          </gpxtpx:TrackPointExtension>
        </extensions>
      </trkpt>
      <trkpt lat="43.12414" lon="1.38928">
        <ele>421</ele>
        <time>2023-03-05T14:31:41Z</time>
        <extensions>
          <gpxtpx:TrackPointExtension xmlns:gpxtpx="http://www.garmin.com/xmlschemas/TrackPointExtension/v1">
            <gpxtpx:hr>109</gpxtpx:hr>
          </gpxtpx:TrackPointExtension>
        </extensions>
      </trkpt>
      <trkpt lat="43.12424" lon="1.38919">
        <ele>420.6</ele>
        <time>2023-03-05T14:31:44Z</time>
        <extensions>
          <gpxtpx:TrackPointExtension xmlns:gpxtpx="http://www.garmin.com/xmlschemas/TrackPointExtension/v1">
            <gpxtpx:hr>109</gpxtpx:hr>
          </gpxtpx:TrackPointExtension>
        </extensions>
      </trkpt>
      <trkpt lat="43.12428" lon="1.38917">
        <ele>420</ele>
        <time>2023-03-05T14:31:45Z</time>
        <extensions>
          <gpxtpx:TrackPointExtension xmlns:gpxtpx="http://www.garmin.com/xmlschemas/TrackPointExtension/v1">
            <gpxtpx:hr>109</gpxtpx:hr>
          </gpxtpx:TrackPointExtension>
        </extensions>
      </trkpt>
      <trkpt lat="43.12431" lon="1.38914">
        <ele>419.6</ele>
        <time>2023-03-05T14:31:46Z</time>
        <extensions>
          <gpxtpx:TrackPointExtension xmlns:gpxtpx="http://www.garmin.com/xmlschemas/TrackPointExtension/v1">
            <gpxtpx:hr>109</gpxtpx:hr>
          </gpxtpx:TrackPointExtension>
        </extensions>
      </trkpt>
      <trkpt lat="43.12435" lon="1.38912">
        <ele>419.2</ele>
        <time>2023-03-05T14:31:47Z</time>
        <extensions>
          <gpxtpx:TrackPointExtension xmlns:gpxtpx="http://www.garmin.com/xmlschemas/TrackPointExtension/v1">
            <gpxtpx:hr>109</gpxtpx:hr>
          </gpxtpx:TrackPointExtension>
        </extensions>
      </trkpt>
      <trkpt lat="43.12439" lon="1.38909">
        <ele>418.8</ele>
        <time>2023-03-05T14:31:48Z</time>
        <extensions>
          <gpxtpx:TrackPointExtension xmlns:gpxtpx="http://www.garmin.com/xmlschemas/TrackPointExtension/v1">
            <gpxtpx:hr>109</gpxtpx:hr>
          </gpxtpx:TrackPointExtension>
        </extensions>
      </trkpt>
      <trkpt lat="43.12451" lon="1.38902">
        <ele>418.8</ele>
        <time>2023-03-05T14:31:51Z</time>
        <extensions>
          <gpxtpx:TrackPointExtension xmlns:gpxtpx="http://www.garmin.com/xmlschemas/TrackPointExtension/v1">
            <gpxtpx:hr>109</gpxtpx:hr>
          </gpxtpx:TrackPointExtension>
        </extensions>
      </trkpt>
      <trkpt lat="43.12476" lon="1.38882">
        <ele>418.4</ele>
        <time>2023-03-05T14:31:57Z</time>
        <extensions>
          <gpxtpx:TrackPointExtension xmlns:gpxtpx="http://www.garmin.com/xmlschemas/TrackPointExtension/v1">
            <gpxtpx:hr>109</gpxtpx:hr>
          </gpxtpx:TrackPointExtension>
        </extensions>
      </trkpt>
      <trkpt lat="43.1248" lon="1.38877">
        <ele>418</ele>
        <time>2023-03-05T14:31:58Z</time>
        <extensions>
          <gpxtpx:TrackPointExtension xmlns:gpxtpx="http://www.garmin.com/xmlschemas/TrackPointExtension/v1">
            <gpxtpx:hr>109</gpxtpx:hr>
          </gpxtpx:TrackPointExtension>
        </extensions>
      </trkpt>
      <trkpt lat="43.12484" lon="1.38871">
        <ele>417.4</ele>
        <time>2023-03-05T14:31:59Z</time>
        <extensions>
          <gpxtpx:TrackPointExtension xmlns:gpxtpx="http://www.garmin.com/xmlschemas/TrackPointExtension/v1">
            <gpxtpx:hr>109</gpxtpx:hr>
          </gpxtpx:TrackPointExtension>
        </extensions>
      </trkpt>
      <trkpt lat="43.12488" lon="1.38866">
        <ele>417</ele>
        <time>2023-03-05T14:32:00Z</time>
        <extensions>
          <gpxtpx:TrackPointExtension xmlns:gpxtpx="http://www.garmin.com/xmlschemas/TrackPointExtension/v1">
            <gpxtpx:hr>109</gpxtpx:hr>
          </gpxtpx:TrackPointExtension>
        </extensions>
      </trkpt>
      <trkpt lat="43.12492" lon="1.38861">
        <ele>416.6</ele>
        <time>2023-03-05T14:32:01Z</time>
        <extensions>
          <gpxtpx:TrackPointExtension xmlns:gpxtpx="http://www.garmin.com/xmlschemas/TrackPointExtension/v1">
            <gpxtpx:hr>109</gpxtpx:hr>
          </gpxtpx:TrackPointExtension>
        </extensions>
      </trkpt>
      <trkpt lat="43.12499" lon="1.38849">
        <ele>416.2</ele>
        <time>2023-03-05T14:32:03Z</time>
        <extensions>
          <gpxtpx:TrackPointExtension xmlns:gpxtpx="http://www.garmin.com/xmlschemas/TrackPointExtension/v1">
            <gpxtpx:hr>109</gpxtpx:hr>
          </gpxtpx:TrackPointExtension>
        </extensions>
      </trkpt>
      <trkpt lat="43.12502" lon="1.38844">
        <ele>415.8</ele>
        <time>2023-03-05T14:32:04Z</time>
        <extensions>
          <gpxtpx:TrackPointExtension xmlns:gpxtpx="http://www.garmin.com/xmlschemas/TrackPointExtension/v1">
            <gpxtpx:hr>109</gpxtpx:hr>
          </gpxtpx:TrackPointExtension>
        </extensions>
      </trkpt>
      <trkpt lat="43.12507" lon="1.38839">
        <ele>415.4</ele>
        <time>2023-03-05T14:32:05Z</time>
        <extensions>
          <gpxtpx:TrackPointExtension xmlns:gpxtpx="http://www.garmin.com/xmlschemas/TrackPointExtension/v1">
            <gpxtpx:hr>109</gpxtpx:hr>
          </gpxtpx:TrackPointExtension>
        </extensions>
      </trkpt>
      <trkpt lat="43.12511" lon="1.38834">
        <ele>415</ele>
        <time>2023-03-05T14:32:06Z</time>
        <extensions>
          <gpxtpx:TrackPointExtension xmlns:gpxtpx="http://www.garmin.com/xmlschemas/TrackPointExtension/v1">
            <gpxtpx:hr>109</gpxtpx:hr>
          </gpxtpx:TrackPointExtension>
        </extensions>
      </trkpt>
      <trkpt lat="43.12514" lon="1.3883">
        <ele>414.4</ele>
        <time>2023-03-05T14:32:07Z</time>
        <extensions>
          <gpxtpx:TrackPointExtension xmlns:gpxtpx="http://www.garmin.com/xmlschemas/TrackPointExtension/v1">
            <gpxtpx:hr>109</gpxtpx:hr>
          </gpxtpx:TrackPointExtension>
        </extensions>
      </trkpt>
      <trkpt lat="43.12519" lon="1.38826">
        <ele>414.4</ele>
        <time>2023-03-05T14:32:08Z</time>
        <extensions>
          <gpxtpx:TrackPointExtension xmlns:gpxtpx="http://www.garmin.com/xmlschemas/TrackPointExtension/v1">
            <gpxtpx:hr>108</gpxtpx:hr>
          </gpxtpx:TrackPointExtension>
        </extensions>
      </trkpt>
      <trkpt lat="43.12534" lon="1.38819">
        <ele>414.4</ele>
        <time>2023-03-05T14:32:11Z</time>
        <extensions>
          <gpxtpx:TrackPointExtension xmlns:gpxtpx="http://www.garmin.com/xmlschemas/TrackPointExtension/v1">
            <gpxtpx:hr>108</gpxtpx:hr>
          </gpxtpx:TrackPointExtension>
        </extensions>
      </trkpt>
      <trkpt lat="43.1254" lon="1.38817">
        <ele>414</ele>
        <time>2023-03-05T14:32:12Z</time>
        <extensions>
          <gpxtpx:TrackPointExtension xmlns:gpxtpx="http://www.garmin.com/xmlschemas/TrackPointExtension/v1">
            <gpxtpx:hr>108</gpxtpx:hr>
          </gpxtpx:TrackPointExtension>
        </extensions>
      </trkpt>
      <trkpt lat="43.12546" lon="1.38818">
        <ele>413.6</ele>
        <time>2023-03-05T14:32:13Z</time>
        <extensions>
          <gpxtpx:TrackPointExtension xmlns:gpxtpx="http://www.garmin.com/xmlschemas/TrackPointExtension/v1">
            <gpxtpx:hr>108</gpxtpx:hr>
          </gpxtpx:TrackPointExtension>
        </extensions>
      </trkpt>
      <trkpt lat="43.12553" lon="1.38818">
        <ele>413.2</ele>
        <time>2023-03-05T14:32:14Z</time>
        <extensions>
          <gpxtpx:TrackPointExtension xmlns:gpxtpx="http://www.garmin.com/xmlschemas/TrackPointExtension/v1">
            <gpxtpx:hr>108</gpxtpx:hr>
          </gpxtpx:TrackPointExtension>
        </extensions>
      </trkpt>
      <trkpt lat="43.12559" lon="1.3882">
        <ele>412.8</ele>
        <time>2023-03-05T14:32:15Z</time>
        <extensions>
          <gpxtpx:TrackPointExtension xmlns:gpxtpx="http://www.garmin.com/xmlschemas/TrackPointExtension/v1">
            <gpxtpx:hr>108</gpxtpx:hr>
          </gpxtpx:TrackPointExtension>
        </extensions>
      </trkpt>
      <trkpt lat="43.12564" lon="1.38822">
        <ele>412.2</ele>
        <time>2023-03-05T14:32:16Z</time>
        <extensions>
          <gpxtpx:TrackPointExtension xmlns:gpxtpx="http://www.garmin.com/xmlschemas/TrackPointExtension/v1">
            <gpxtpx:hr>108</gpxtpx:hr>
          </gpxtpx:TrackPointExtension>
        </extensions>
      </trkpt>
      <trkpt lat="43.12579" lon="1.38832">
        <ele>412.2</ele>
        <time>2023-03-05T14:32:19Z</time>
      </trkpt>
      <trkpt lat="43.12582" lon="1.38836">
        <ele>411.8</ele>
        <time>2023-03-05T14:32:20Z</time>
      </trkpt>
      <trkpt lat="43.12585" lon="1.38839">
        <ele>411.4</ele>
        <time>2023-03-05T14:32:21Z</time>
      </trkpt>
      <trkpt lat="43.12586" lon="1.3884">
        <ele>411</ele>
        <time>2023-03-05T14:32:22Z</time>
        <extensions>
          <gpxtpx:TrackPointExtension xmlns:gpxtpx="http://www.garmin.com/xmlschemas/TrackPointExtension/v1">
            <gpxtpx:hr>108</gpxtpx:hr>
          </gpxtpx:TrackPointExtension>
        </extensions>
      </trkpt>
      <trkpt lat="43.12586" lon="1.38839">
        <ele>410.6</ele>
        <time>2023-03-05T14:32:23Z</time>
        <extensions>
          <gpxtpx:TrackPointExtension xmlns:gpxtpx="http://www.garmin.com/xmlschemas/TrackPointExtension/v1">
            <gpxtpx:hr>108</gpxtpx:hr>
          </gpxtpx:TrackPointExtension>
        </extensions>
      </trkpt>
      <trkpt lat="43.12586" lon="1.38839">
        <ele>410.2</ele>
        <time>2023-03-05T14:32:24Z</time>
        <extensions>
          <gpxtpx:TrackPointExtension xmlns:gpxtpx="http://www.garmin.com/xmlschemas/TrackPointExtension/v1">
            <gpxtpx:hr>108</gpxtpx:hr>
          </gpxtpx:TrackPointExtension>
        </extensions>
      </trkpt>
      <trkpt lat="43.12587" lon="1.3884">
        <ele>410.2</ele>
        <time>2023-03-05T14:32:53Z</time>
        <extensions>
          <gpxtpx:TrackPointExtension xmlns:gpxtpx="http://www.garmin.com/xmlschemas/TrackPointExtension/v1">
            <gpxtpx:hr>109</gpxtpx:hr>
          </gpxtpx:TrackPointExtension>
        </extensions>
      </trkpt>
      <trkpt lat="43.12589" lon="1.38841">
        <ele>409.8</ele>
        <time>2023-03-05T14:32:54Z</time>
        <extensions>
          <gpxtpx:TrackPointExtension xmlns:gpxtpx="http://www.garmin.com/xmlschemas/TrackPointExtension/v1">
            <gpxtpx:hr>110</gpxtpx:hr>
          </gpxtpx:TrackPointExtension>
        </extensions>
      </trkpt>
      <trkpt lat="43.12591" lon="1.38842">
        <ele>409.4</ele>
        <time>2023-03-05T14:32:55Z</time>
        <extensions>
          <gpxtpx:TrackPointExtension xmlns:gpxtpx="http://www.garmin.com/xmlschemas/TrackPointExtension/v1">
            <gpxtpx:hr>110</gpxtpx:hr>
          </gpxtpx:TrackPointExtension>
        </extensions>
      </trkpt>
      <trkpt lat="43.12593" lon="1.38843">
        <ele>409</ele>
        <time>2023-03-05T14:32:56Z</time>
        <extensions>
          <gpxtpx:TrackPointExtension xmlns:gpxtpx="http://www.garmin.com/xmlschemas/TrackPointExtension/v1">
            <gpxtpx:hr>111</gpxtpx:hr>
          </gpxtpx:TrackPointExtension>
        </extensions>
      </trkpt>
      <trkpt lat="43.12596" lon="1.38847">
        <ele>408.2</ele>
        <time>2023-03-05T14:32:57Z</time>
        <extensions>
          <gpxtpx:TrackPointExtension xmlns:gpxtpx="http://www.garmin.com/xmlschemas/TrackPointExtension/v1">
            <gpxtpx:hr>111</gpxtpx:hr>
          </gpxtpx:TrackPointExtension>
        </extensions>
      </trkpt>
      <trkpt lat="43.12607" lon="1.38857">
        <ele>408.2</ele>
        <time>2023-03-05T14:33:00Z</time>
        <extensions>
          <gpxtpx:TrackPointExtension xmlns:gpxtpx="http://www.garmin.com/xmlschemas/TrackPointExtension/v1">
            <gpxtpx:hr>111</gpxtpx:hr>
          </gpxtpx:TrackPointExtension>
        </extensions>
      </trkpt>
      <trkpt lat="43.1262" lon="1.38868">
        <ele>408.2</ele>
        <time>2023-03-05T14:33:03Z</time>
        <extensions>
          <gpxtpx:TrackPointExtension xmlns:gpxtpx="http://www.garmin.com/xmlschemas/TrackPointExtension/v1">
            <gpxtpx:hr>103</gpxtpx:hr>
          </gpxtpx:TrackPointExtension>
        </extensions>
      </trkpt>
      <trkpt lat="43.12624" lon="1.38872">
        <ele>408.2</ele>
        <time>2023-03-05T14:33:04Z</time>
        <extensions>
          <gpxtpx:TrackPointExtension xmlns:gpxtpx="http://www.garmin.com/xmlschemas/TrackPointExtension/v1">
            <gpxtpx:hr>103</gpxtpx:hr>
          </gpxtpx:TrackPointExtension>
        </extensions>
      </trkpt>
      <trkpt lat="43.12628" lon="1.38877">
        <ele>408.2</ele>
        <time>2023-03-05T14:33:05Z</time>
        <extensions>
          <gpxtpx:TrackPointExtension xmlns:gpxtpx="http://www.garmin.com/xmlschemas/TrackPointExtension/v1">
            <gpxtpx:hr>104</gpxtpx:hr>
          </gpxtpx:TrackPointExtension>
        </extensions>
      </trkpt>
      <trkpt lat="43.12637" lon="1.38886">
        <ele>408.2</ele>
        <time>2023-03-05T14:33:07Z</time>
        <extensions>
          <gpxtpx:TrackPointExtension xmlns:gpxtpx="http://www.garmin.com/xmlschemas/TrackPointExtension/v1">
            <gpxtpx:hr>105</gpxtpx:hr>
          </gpxtpx:TrackPointExtension>
        </extensions>
      </trkpt>
      <trkpt lat="43.12677" lon="1.38921">
        <ele>408.2</ele>
        <time>2023-03-05T14:33:16Z</time>
        <extensions>
          <gpxtpx:TrackPointExtension xmlns:gpxtpx="http://www.garmin.com/xmlschemas/TrackPointExtension/v1">
            <gpxtpx:hr>105</gpxtpx:hr>
          </gpxtpx:TrackPointExtension>
        </extensions>
      </trkpt>
      <trkpt lat="43.12702" lon="1.38945">
        <ele>408.2</ele>
        <time>2023-03-05T14:33:22Z</time>
      </trkpt>
      <trkpt lat="43.12736" lon="1.38974">
        <ele>408.2</ele>
        <time>2023-03-05T14:33:30Z</time>
        <extensions>
          <gpxtpx:TrackPointExtension xmlns:gpxtpx="http://www.garmin.com/xmlschemas/TrackPointExtension/v1">
            <gpxtpx:hr>105</gpxtpx:hr>
          </gpxtpx:TrackPointExtension>
        </extensions>
      </trkpt>
      <trkpt lat="43.12755" lon="1.38986">
        <ele>408.2</ele>
        <time>2023-03-05T14:33:34Z</time>
        <extensions>
          <gpxtpx:TrackPointExtension xmlns:gpxtpx="http://www.garmin.com/xmlschemas/TrackPointExtension/v1">
            <gpxtpx:hr>108</gpxtpx:hr>
          </gpxtpx:TrackPointExtension>
        </extensions>
      </trkpt>
      <trkpt lat="43.12768" lon="1.3899">
        <ele>408.2</ele>
        <time>2023-03-05T14:33:37Z</time>
        <extensions>
          <gpxtpx:TrackPointExtension xmlns:gpxtpx="http://www.garmin.com/xmlschemas/TrackPointExtension/v1">
            <gpxtpx:hr>108</gpxtpx:hr>
          </gpxtpx:TrackPointExtension>
        </extensions>
      </trkpt>
      <trkpt lat="43.12782" lon="1.38993">
        <ele>408.2</ele>
        <time>2023-03-05T14:33:40Z</time>
        <extensions>
          <gpxtpx:TrackPointExtension xmlns:gpxtpx="http://www.garmin.com/xmlschemas/TrackPointExtension/v1">
            <gpxtpx:hr>101</gpxtpx:hr>
          </gpxtpx:TrackPointExtension>
        </extensions>
      </trkpt>
      <trkpt lat="43.12786" lon="1.38993">
        <ele>408.2</ele>
        <time>2023-03-05T14:33:41Z</time>
        <extensions>
          <gpxtpx:TrackPointExtension xmlns:gpxtpx="http://www.garmin.com/xmlschemas/TrackPointExtension/v1">
            <gpxtpx:hr>101</gpxtpx:hr>
          </gpxtpx:TrackPointExtension>
        </extensions>
      </trkpt>
      <trkpt lat="43.12804" lon="1.38994">
        <ele>408.2</ele>
        <time>2023-03-05T14:33:45Z</time>
        <extensions>
          <gpxtpx:TrackPointExtension xmlns:gpxtpx="http://www.garmin.com/xmlschemas/TrackPointExtension/v1">
            <gpxtpx:hr>105</gpxtpx:hr>
          </gpxtpx:TrackPointExtension>
        </extensions>
      </trkpt>
      <trkpt lat="43.12818" lon="1.38992">
        <ele>408.2</ele>
        <time>2023-03-05T14:33:48Z</time>
        <extensions>
          <gpxtpx:TrackPointExtension xmlns:gpxtpx="http://www.garmin.com/xmlschemas/TrackPointExtension/v1">
            <gpxtpx:hr>106</gpxtpx:hr>
          </gpxtpx:TrackPointExtension>
        </extensions>
      </trkpt>
      <trkpt lat="43.12832" lon="1.38992">
        <ele>408.2</ele>
        <time>2023-03-05T14:33:51Z</time>
        <extensions>
          <gpxtpx:TrackPointExtension xmlns:gpxtpx="http://www.garmin.com/xmlschemas/TrackPointExtension/v1">
            <gpxtpx:hr>107</gpxtpx:hr>
          </gpxtpx:TrackPointExtension>
        </extensions>
      </trkpt>
      <trkpt lat="43.12849" lon="1.38992">
        <ele>407.6</ele>
        <time>2023-03-05T14:33:54Z</time>
        <extensions>
          <gpxtpx:TrackPointExtension xmlns:gpxtpx="http://www.garmin.com/xmlschemas/TrackPointExtension/v1">
            <gpxtpx:hr>107</gpxtpx:hr>
          </gpxtpx:TrackPointExtension>
        </extensions>
      </trkpt>
      <trkpt lat="43.12854" lon="1.38991">
        <ele>407.2</ele>
        <time>2023-03-05T14:33:55Z</time>
        <extensions>
          <gpxtpx:TrackPointExtension xmlns:gpxtpx="http://www.garmin.com/xmlschemas/TrackPointExtension/v1">
            <gpxtpx:hr>107</gpxtpx:hr>
          </gpxtpx:TrackPointExtension>
        </extensions>
      </trkpt>
      <trkpt lat="43.12859" lon="1.3899">
        <ele>406.8</ele>
        <time>2023-03-05T14:33:56Z</time>
        <extensions>
          <gpxtpx:TrackPointExtension xmlns:gpxtpx="http://www.garmin.com/xmlschemas/TrackPointExtension/v1">
            <gpxtpx:hr>107</gpxtpx:hr>
          </gpxtpx:TrackPointExtension>
        </extensions>
      </trkpt>
      <trkpt lat="43.12864" lon="1.38988">
        <ele>406.4</ele>
        <time>2023-03-05T14:33:57Z</time>
        <extensions>
          <gpxtpx:TrackPointExtension xmlns:gpxtpx="http://www.garmin.com/xmlschemas/TrackPointExtension/v1">
            <gpxtpx:hr>107</gpxtpx:hr>
          </gpxtpx:TrackPointExtension>
        </extensions>
      </trkpt>
      <trkpt lat="43.12869" lon="1.38988">
        <ele>405.8</ele>
        <time>2023-03-05T14:33:58Z</time>
        <extensions>
          <gpxtpx:TrackPointExtension xmlns:gpxtpx="http://www.garmin.com/xmlschemas/TrackPointExtension/v1">
            <gpxtpx:hr>107</gpxtpx:hr>
          </gpxtpx:TrackPointExtension>
        </extensions>
      </trkpt>
      <trkpt lat="43.12873" lon="1.38987">
        <ele>405.2</ele>
        <time>2023-03-05T14:33:59Z</time>
        <extensions>
          <gpxtpx:TrackPointExtension xmlns:gpxtpx="http://www.garmin.com/xmlschemas/TrackPointExtension/v1">
            <gpxtpx:hr>107</gpxtpx:hr>
          </gpxtpx:TrackPointExtension>
        </extensions>
      </trkpt>
      <trkpt lat="43.12877" lon="1.38987">
        <ele>404.8</ele>
        <time>2023-03-05T14:34:00Z</time>
        <extensions>
          <gpxtpx:TrackPointExtension xmlns:gpxtpx="http://www.garmin.com/xmlschemas/TrackPointExtension/v1">
            <gpxtpx:hr>108</gpxtpx:hr>
          </gpxtpx:TrackPointExtension>
        </extensions>
      </trkpt>
      <trkpt lat="43.12881" lon="1.38986">
        <ele>404.2</ele>
        <time>2023-03-05T14:34:01Z</time>
        <extensions>
          <gpxtpx:TrackPointExtension xmlns:gpxtpx="http://www.garmin.com/xmlschemas/TrackPointExtension/v1">
            <gpxtpx:hr>108</gpxtpx:hr>
          </gpxtpx:TrackPointExtension>
        </extensions>
      </trkpt>
      <trkpt lat="43.12885" lon="1.38985">
        <ele>403.6</ele>
        <time>2023-03-05T14:34:02Z</time>
        <extensions>
          <gpxtpx:TrackPointExtension xmlns:gpxtpx="http://www.garmin.com/xmlschemas/TrackPointExtension/v1">
            <gpxtpx:hr>108</gpxtpx:hr>
          </gpxtpx:TrackPointExtension>
        </extensions>
      </trkpt>
      <trkpt lat="43.12888" lon="1.38984">
        <ele>403</ele>
        <time>2023-03-05T14:34:03Z</time>
        <extensions>
          <gpxtpx:TrackPointExtension xmlns:gpxtpx="http://www.garmin.com/xmlschemas/TrackPointExtension/v1">
            <gpxtpx:hr>108</gpxtpx:hr>
          </gpxtpx:TrackPointExtension>
        </extensions>
      </trkpt>
      <trkpt lat="43.12892" lon="1.38983">
        <ele>402.4</ele>
        <time>2023-03-05T14:34:04Z</time>
        <extensions>
          <gpxtpx:TrackPointExtension xmlns:gpxtpx="http://www.garmin.com/xmlschemas/TrackPointExtension/v1">
            <gpxtpx:hr>108</gpxtpx:hr>
          </gpxtpx:TrackPointExtension>
        </extensions>
      </trkpt>
      <trkpt lat="43.12895" lon="1.38981">
        <ele>401.8</ele>
        <time>2023-03-05T14:34:05Z</time>
        <extensions>
          <gpxtpx:TrackPointExtension xmlns:gpxtpx="http://www.garmin.com/xmlschemas/TrackPointExtension/v1">
            <gpxtpx:hr>108</gpxtpx:hr>
          </gpxtpx:TrackPointExtension>
        </extensions>
      </trkpt>
      <trkpt lat="43.129" lon="1.38979">
        <ele>401.2</ele>
        <time>2023-03-05T14:34:06Z</time>
        <extensions>
          <gpxtpx:TrackPointExtension xmlns:gpxtpx="http://www.garmin.com/xmlschemas/TrackPointExtension/v1">
            <gpxtpx:hr>108</gpxtpx:hr>
          </gpxtpx:TrackPointExtension>
        </extensions>
      </trkpt>
      <trkpt lat="43.12903" lon="1.38977">
        <ele>400.6</ele>
        <time>2023-03-05T14:34:07Z</time>
        <extensions>
          <gpxtpx:TrackPointExtension xmlns:gpxtpx="http://www.garmin.com/xmlschemas/TrackPointExtension/v1">
            <gpxtpx:hr>108</gpxtpx:hr>
          </gpxtpx:TrackPointExtension>
        </extensions>
      </trkpt>
      <trkpt lat="43.12907" lon="1.38975">
        <ele>400</ele>
        <time>2023-03-05T14:34:08Z</time>
        <extensions>
          <gpxtpx:TrackPointExtension xmlns:gpxtpx="http://www.garmin.com/xmlschemas/TrackPointExtension/v1">
            <gpxtpx:hr>108</gpxtpx:hr>
          </gpxtpx:TrackPointExtension>
        </extensions>
      </trkpt>
      <trkpt lat="43.1291" lon="1.38974">
        <ele>399.4</ele>
        <time>2023-03-05T14:34:09Z</time>
        <extensions>
          <gpxtpx:TrackPointExtension xmlns:gpxtpx="http://www.garmin.com/xmlschemas/TrackPointExtension/v1">
            <gpxtpx:hr>108</gpxtpx:hr>
          </gpxtpx:TrackPointExtension>
        </extensions>
      </trkpt>
      <trkpt lat="43.12912" lon="1.38972">
        <ele>398.6</ele>
        <time>2023-03-05T14:34:10Z</time>
        <extensions>
          <gpxtpx:TrackPointExtension xmlns:gpxtpx="http://www.garmin.com/xmlschemas/TrackPointExtension/v1">
            <gpxtpx:hr>108</gpxtpx:hr>
          </gpxtpx:TrackPointExtension>
        </extensions>
      </trkpt>
      <trkpt lat="43.12915" lon="1.38971">
        <ele>397.2</ele>
        <time>2023-03-05T14:34:11Z</time>
        <extensions>
          <gpxtpx:TrackPointExtension xmlns:gpxtpx="http://www.garmin.com/xmlschemas/TrackPointExtension/v1">
            <gpxtpx:hr>108</gpxtpx:hr>
          </gpxtpx:TrackPointExtension>
        </extensions>
      </trkpt>
      <trkpt lat="43.12917" lon="1.3897">
        <ele>396.6</ele>
        <time>2023-03-05T14:34:12Z</time>
        <extensions>
          <gpxtpx:TrackPointExtension xmlns:gpxtpx="http://www.garmin.com/xmlschemas/TrackPointExtension/v1">
            <gpxtpx:hr>107</gpxtpx:hr>
          </gpxtpx:TrackPointExtension>
        </extensions>
      </trkpt>
      <trkpt lat="43.12919" lon="1.38969">
        <ele>396</ele>
        <time>2023-03-05T14:34:13Z</time>
        <extensions>
          <gpxtpx:TrackPointExtension xmlns:gpxtpx="http://www.garmin.com/xmlschemas/TrackPointExtension/v1">
            <gpxtpx:hr>107</gpxtpx:hr>
          </gpxtpx:TrackPointExtension>
        </extensions>
      </trkpt>
      <trkpt lat="43.12922" lon="1.38968">
        <ele>395.6</ele>
        <time>2023-03-05T14:34:14Z</time>
        <extensions>
          <gpxtpx:TrackPointExtension xmlns:gpxtpx="http://www.garmin.com/xmlschemas/TrackPointExtension/v1">
            <gpxtpx:hr>107</gpxtpx:hr>
          </gpxtpx:TrackPointExtension>
        </extensions>
      </trkpt>
      <trkpt lat="43.12924" lon="1.38967">
        <ele>395</ele>
        <time>2023-03-05T14:34:15Z</time>
        <extensions>
          <gpxtpx:TrackPointExtension xmlns:gpxtpx="http://www.garmin.com/xmlschemas/TrackPointExtension/v1">
            <gpxtpx:hr>107</gpxtpx:hr>
          </gpxtpx:TrackPointExtension>
        </extensions>
      </trkpt>
      <trkpt lat="43.12926" lon="1.38967">
        <ele>394.6</ele>
        <time>2023-03-05T14:34:16Z</time>
        <extensions>
          <gpxtpx:TrackPointExtension xmlns:gpxtpx="http://www.garmin.com/xmlschemas/TrackPointExtension/v1">
            <gpxtpx:hr>107</gpxtpx:hr>
          </gpxtpx:TrackPointExtension>
        </extensions>
      </trkpt>
      <trkpt lat="43.12929" lon="1.38966">
        <ele>394</ele>
        <time>2023-03-05T14:34:17Z</time>
        <extensions>
          <gpxtpx:TrackPointExtension xmlns:gpxtpx="http://www.garmin.com/xmlschemas/TrackPointExtension/v1">
            <gpxtpx:hr>107</gpxtpx:hr>
          </gpxtpx:TrackPointExtension>
        </extensions>
      </trkpt>
      <trkpt lat="43.12931" lon="1.38966">
        <ele>394</ele>
        <time>2023-03-05T14:34:18Z</time>
        <extensions>
          <gpxtpx:TrackPointExtension xmlns:gpxtpx="http://www.garmin.com/xmlschemas/TrackPointExtension/v1">
            <gpxtpx:hr>107</gpxtpx:hr>
          </gpxtpx:TrackPointExtension>
        </extensions>
      </trkpt>
      <trkpt lat="43.12934" lon="1.38966">
        <ele>393.6</ele>
        <time>2023-03-05T14:34:19Z</time>
        <extensions>
          <gpxtpx:TrackPointExtension xmlns:gpxtpx="http://www.garmin.com/xmlschemas/TrackPointExtension/v1">
            <gpxtpx:hr>107</gpxtpx:hr>
          </gpxtpx:TrackPointExtension>
        </extensions>
      </trkpt>
      <trkpt lat="43.12937" lon="1.38966">
        <ele>393.2</ele>
        <time>2023-03-05T14:34:20Z</time>
        <extensions>
          <gpxtpx:TrackPointExtension xmlns:gpxtpx="http://www.garmin.com/xmlschemas/TrackPointExtension/v1">
            <gpxtpx:hr>107</gpxtpx:hr>
          </gpxtpx:TrackPointExtension>
        </extensions>
      </trkpt>
      <trkpt lat="43.1294" lon="1.38966">
        <ele>392.6</ele>
        <time>2023-03-05T14:34:21Z</time>
        <extensions>
          <gpxtpx:TrackPointExtension xmlns:gpxtpx="http://www.garmin.com/xmlschemas/TrackPointExtension/v1">
            <gpxtpx:hr>107</gpxtpx:hr>
          </gpxtpx:TrackPointExtension>
        </extensions>
      </trkpt>
      <trkpt lat="43.12943" lon="1.38966">
        <ele>392.2</ele>
        <time>2023-03-05T14:34:22Z</time>
        <extensions>
          <gpxtpx:TrackPointExtension xmlns:gpxtpx="http://www.garmin.com/xmlschemas/TrackPointExtension/v1">
            <gpxtpx:hr>107</gpxtpx:hr>
          </gpxtpx:TrackPointExtension>
        </extensions>
      </trkpt>
      <trkpt lat="43.12946" lon="1.38966">
        <ele>391.6</ele>
        <time>2023-03-05T14:34:23Z</time>
        <extensions>
          <gpxtpx:TrackPointExtension xmlns:gpxtpx="http://www.garmin.com/xmlschemas/TrackPointExtension/v1">
            <gpxtpx:hr>107</gpxtpx:hr>
          </gpxtpx:TrackPointExtension>
        </extensions>
      </trkpt>
      <trkpt lat="43.12949" lon="1.38966">
        <ele>391.2</ele>
        <time>2023-03-05T14:34:24Z</time>
        <extensions>
          <gpxtpx:TrackPointExtension xmlns:gpxtpx="http://www.garmin.com/xmlschemas/TrackPointExtension/v1">
            <gpxtpx:hr>107</gpxtpx:hr>
          </gpxtpx:TrackPointExtension>
        </extensions>
      </trkpt>
      <trkpt lat="43.12951" lon="1.38966">
        <ele>390.6</ele>
        <time>2023-03-05T14:34:25Z</time>
        <extensions>
          <gpxtpx:TrackPointExtension xmlns:gpxtpx="http://www.garmin.com/xmlschemas/TrackPointExtension/v1">
            <gpxtpx:hr>107</gpxtpx:hr>
          </gpxtpx:TrackPointExtension>
        </extensions>
      </trkpt>
      <trkpt lat="43.12955" lon="1.38967">
        <ele>390</ele>
        <time>2023-03-05T14:34:26Z</time>
        <extensions>
          <gpxtpx:TrackPointExtension xmlns:gpxtpx="http://www.garmin.com/xmlschemas/TrackPointExtension/v1">
            <gpxtpx:hr>107</gpxtpx:hr>
          </gpxtpx:TrackPointExtension>
        </extensions>
      </trkpt>
      <trkpt lat="43.12958" lon="1.38968">
        <ele>389.6</ele>
        <time>2023-03-05T14:34:27Z</time>
        <extensions>
          <gpxtpx:TrackPointExtension xmlns:gpxtpx="http://www.garmin.com/xmlschemas/TrackPointExtension/v1">
            <gpxtpx:hr>107</gpxtpx:hr>
          </gpxtpx:TrackPointExtension>
        </extensions>
      </trkpt>
      <trkpt lat="43.12961" lon="1.38969">
        <ele>389.6</ele>
        <time>2023-03-05T14:34:28Z</time>
        <extensions>
          <gpxtpx:TrackPointExtension xmlns:gpxtpx="http://www.garmin.com/xmlschemas/TrackPointExtension/v1">
            <gpxtpx:hr>107</gpxtpx:hr>
          </gpxtpx:TrackPointExtension>
        </extensions>
      </trkpt>
      <trkpt lat="43.12964" lon="1.3897">
        <ele>389</ele>
        <time>2023-03-05T14:34:29Z</time>
        <extensions>
          <gpxtpx:TrackPointExtension xmlns:gpxtpx="http://www.garmin.com/xmlschemas/TrackPointExtension/v1">
            <gpxtpx:hr>107</gpxtpx:hr>
          </gpxtpx:TrackPointExtension>
        </extensions>
      </trkpt>
      <trkpt lat="43.12967" lon="1.38971">
        <ele>388.6</ele>
        <time>2023-03-05T14:34:30Z</time>
        <extensions>
          <gpxtpx:TrackPointExtension xmlns:gpxtpx="http://www.garmin.com/xmlschemas/TrackPointExtension/v1">
            <gpxtpx:hr>107</gpxtpx:hr>
          </gpxtpx:TrackPointExtension>
        </extensions>
      </trkpt>
      <trkpt lat="43.12971" lon="1.38972">
        <ele>388.2</ele>
        <time>2023-03-05T14:34:31Z</time>
        <extensions>
          <gpxtpx:TrackPointExtension xmlns:gpxtpx="http://www.garmin.com/xmlschemas/TrackPointExtension/v1">
            <gpxtpx:hr>107</gpxtpx:hr>
          </gpxtpx:TrackPointExtension>
        </extensions>
      </trkpt>
      <trkpt lat="43.12974" lon="1.38972">
        <ele>387.6</ele>
        <time>2023-03-05T14:34:32Z</time>
        <extensions>
          <gpxtpx:TrackPointExtension xmlns:gpxtpx="http://www.garmin.com/xmlschemas/TrackPointExtension/v1">
            <gpxtpx:hr>106</gpxtpx:hr>
          </gpxtpx:TrackPointExtension>
        </extensions>
      </trkpt>
      <trkpt lat="43.12977" lon="1.38971">
        <ele>387.2</ele>
        <time>2023-03-05T14:34:33Z</time>
        <extensions>
          <gpxtpx:TrackPointExtension xmlns:gpxtpx="http://www.garmin.com/xmlschemas/TrackPointExtension/v1">
            <gpxtpx:hr>106</gpxtpx:hr>
          </gpxtpx:TrackPointExtension>
        </extensions>
      </trkpt>
      <trkpt lat="43.12991" lon="1.38965">
        <ele>387.2</ele>
        <time>2023-03-05T14:34:37Z</time>
        <extensions>
          <gpxtpx:TrackPointExtension xmlns:gpxtpx="http://www.garmin.com/xmlschemas/TrackPointExtension/v1">
            <gpxtpx:hr>106</gpxtpx:hr>
          </gpxtpx:TrackPointExtension>
        </extensions>
      </trkpt>
      <trkpt lat="43.12993" lon="1.38964">
        <ele>387.2</ele>
        <time>2023-03-05T14:34:38Z</time>
        <extensions>
          <gpxtpx:TrackPointExtension xmlns:gpxtpx="http://www.garmin.com/xmlschemas/TrackPointExtension/v1">
            <gpxtpx:hr>106</gpxtpx:hr>
          </gpxtpx:TrackPointExtension>
        </extensions>
      </trkpt>
      <trkpt lat="43.13" lon="1.38966">
        <ele>387.2</ele>
        <time>2023-03-05T14:34:41Z</time>
        <extensions>
          <gpxtpx:TrackPointExtension xmlns:gpxtpx="http://www.garmin.com/xmlschemas/TrackPointExtension/v1">
            <gpxtpx:hr>106</gpxtpx:hr>
          </gpxtpx:TrackPointExtension>
        </extensions>
      </trkpt>
      <trkpt lat="43.13004" lon="1.38966">
        <ele>387.2</ele>
        <time>2023-03-05T14:34:44Z</time>
        <extensions>
          <gpxtpx:TrackPointExtension xmlns:gpxtpx="http://www.garmin.com/xmlschemas/TrackPointExtension/v1">
            <gpxtpx:hr>106</gpxtpx:hr>
          </gpxtpx:TrackPointExtension>
        </extensions>
      </trkpt>
      <trkpt lat="43.13017" lon="1.3897">
        <ele>385</ele>
        <time>2023-03-05T14:35:10Z</time>
        <extensions>
          <gpxtpx:TrackPointExtension xmlns:gpxtpx="http://www.garmin.com/xmlschemas/TrackPointExtension/v1">
            <gpxtpx:hr>111</gpxtpx:hr>
          </gpxtpx:TrackPointExtension>
        </extensions>
      </trkpt>
      <trkpt lat="43.13019" lon="1.38972">
        <ele>385</ele>
        <time>2023-03-05T14:35:11Z</time>
        <extensions>
          <gpxtpx:TrackPointExtension xmlns:gpxtpx="http://www.garmin.com/xmlschemas/TrackPointExtension/v1">
            <gpxtpx:hr>104</gpxtpx:hr>
          </gpxtpx:TrackPointExtension>
        </extensions>
      </trkpt>
      <trkpt lat="43.13027" lon="1.38977">
        <ele>384.6</ele>
        <time>2023-03-05T14:35:13Z</time>
        <extensions>
          <gpxtpx:TrackPointExtension xmlns:gpxtpx="http://www.garmin.com/xmlschemas/TrackPointExtension/v1">
            <gpxtpx:hr>104</gpxtpx:hr>
          </gpxtpx:TrackPointExtension>
        </extensions>
      </trkpt>
      <trkpt lat="43.13031" lon="1.3898">
        <ele>384.2</ele>
        <time>2023-03-05T14:35:14Z</time>
        <extensions>
          <gpxtpx:TrackPointExtension xmlns:gpxtpx="http://www.garmin.com/xmlschemas/TrackPointExtension/v1">
            <gpxtpx:hr>104</gpxtpx:hr>
          </gpxtpx:TrackPointExtension>
        </extensions>
      </trkpt>
      <trkpt lat="43.13035" lon="1.38983">
        <ele>383.8</ele>
        <time>2023-03-05T14:35:15Z</time>
        <extensions>
          <gpxtpx:TrackPointExtension xmlns:gpxtpx="http://www.garmin.com/xmlschemas/TrackPointExtension/v1">
            <gpxtpx:hr>105</gpxtpx:hr>
          </gpxtpx:TrackPointExtension>
        </extensions>
      </trkpt>
      <trkpt lat="43.13038" lon="1.38986">
        <ele>383.4</ele>
        <time>2023-03-05T14:35:16Z</time>
        <extensions>
          <gpxtpx:TrackPointExtension xmlns:gpxtpx="http://www.garmin.com/xmlschemas/TrackPointExtension/v1">
            <gpxtpx:hr>105</gpxtpx:hr>
          </gpxtpx:TrackPointExtension>
        </extensions>
      </trkpt>
      <trkpt lat="43.13042" lon="1.38989">
        <ele>383</ele>
        <time>2023-03-05T14:35:17Z</time>
        <extensions>
          <gpxtpx:TrackPointExtension xmlns:gpxtpx="http://www.garmin.com/xmlschemas/TrackPointExtension/v1">
            <gpxtpx:hr>105</gpxtpx:hr>
          </gpxtpx:TrackPointExtension>
        </extensions>
      </trkpt>
      <trkpt lat="43.13046" lon="1.38994">
        <ele>383</ele>
        <time>2023-03-05T14:35:18Z</time>
        <extensions>
          <gpxtpx:TrackPointExtension xmlns:gpxtpx="http://www.garmin.com/xmlschemas/TrackPointExtension/v1">
            <gpxtpx:hr>105</gpxtpx:hr>
          </gpxtpx:TrackPointExtension>
        </extensions>
      </trkpt>
      <trkpt lat="43.13052" lon="1.39002">
        <ele>383</ele>
        <time>2023-03-05T14:35:20Z</time>
        <extensions>
          <gpxtpx:TrackPointExtension xmlns:gpxtpx="http://www.garmin.com/xmlschemas/TrackPointExtension/v1">
            <gpxtpx:hr>105</gpxtpx:hr>
          </gpxtpx:TrackPointExtension>
        </extensions>
      </trkpt>
      <trkpt lat="43.13054" lon="1.39006">
        <ele>383</ele>
        <time>2023-03-05T14:35:21Z</time>
        <extensions>
          <gpxtpx:TrackPointExtension xmlns:gpxtpx="http://www.garmin.com/xmlschemas/TrackPointExtension/v1">
            <gpxtpx:hr>105</gpxtpx:hr>
          </gpxtpx:TrackPointExtension>
        </extensions>
      </trkpt>
      <trkpt lat="43.13063" lon="1.3902">
        <ele>383</ele>
        <time>2023-03-05T14:35:24Z</time>
        <extensions>
          <gpxtpx:TrackPointExtension xmlns:gpxtpx="http://www.garmin.com/xmlschemas/TrackPointExtension/v1">
            <gpxtpx:hr>108</gpxtpx:hr>
          </gpxtpx:TrackPointExtension>
        </extensions>
      </trkpt>
      <trkpt lat="43.13067" lon="1.39025">
        <ele>383</ele>
        <time>2023-03-05T14:35:25Z</time>
        <extensions>
          <gpxtpx:TrackPointExtension xmlns:gpxtpx="http://www.garmin.com/xmlschemas/TrackPointExtension/v1">
            <gpxtpx:hr>108</gpxtpx:hr>
          </gpxtpx:TrackPointExtension>
        </extensions>
      </trkpt>
      <trkpt lat="43.1307" lon="1.39029">
        <ele>383</ele>
        <time>2023-03-05T14:35:26Z</time>
        <extensions>
          <gpxtpx:TrackPointExtension xmlns:gpxtpx="http://www.garmin.com/xmlschemas/TrackPointExtension/v1">
            <gpxtpx:hr>109</gpxtpx:hr>
          </gpxtpx:TrackPointExtension>
        </extensions>
      </trkpt>
      <trkpt lat="43.13084" lon="1.39044">
        <ele>382.6</ele>
        <time>2023-03-05T14:35:30Z</time>
        <extensions>
          <gpxtpx:TrackPointExtension xmlns:gpxtpx="http://www.garmin.com/xmlschemas/TrackPointExtension/v1">
            <gpxtpx:hr>109</gpxtpx:hr>
          </gpxtpx:TrackPointExtension>
        </extensions>
      </trkpt>
      <trkpt lat="43.13087" lon="1.39047">
        <ele>382.2</ele>
        <time>2023-03-05T14:35:31Z</time>
        <extensions>
          <gpxtpx:TrackPointExtension xmlns:gpxtpx="http://www.garmin.com/xmlschemas/TrackPointExtension/v1">
            <gpxtpx:hr>109</gpxtpx:hr>
          </gpxtpx:TrackPointExtension>
        </extensions>
      </trkpt>
      <trkpt lat="43.1309" lon="1.3905">
        <ele>381.8</ele>
        <time>2023-03-05T14:35:32Z</time>
        <extensions>
          <gpxtpx:TrackPointExtension xmlns:gpxtpx="http://www.garmin.com/xmlschemas/TrackPointExtension/v1">
            <gpxtpx:hr>109</gpxtpx:hr>
          </gpxtpx:TrackPointExtension>
        </extensions>
      </trkpt>
      <trkpt lat="43.13093" lon="1.39054">
        <ele>381.4</ele>
        <time>2023-03-05T14:35:33Z</time>
        <extensions>
          <gpxtpx:TrackPointExtension xmlns:gpxtpx="http://www.garmin.com/xmlschemas/TrackPointExtension/v1">
            <gpxtpx:hr>109</gpxtpx:hr>
          </gpxtpx:TrackPointExtension>
        </extensions>
      </trkpt>
      <trkpt lat="43.13096" lon="1.39057">
        <ele>381</ele>
        <time>2023-03-05T14:35:34Z</time>
        <extensions>
          <gpxtpx:TrackPointExtension xmlns:gpxtpx="http://www.garmin.com/xmlschemas/TrackPointExtension/v1">
            <gpxtpx:hr>109</gpxtpx:hr>
          </gpxtpx:TrackPointExtension>
        </extensions>
      </trkpt>
      <trkpt lat="43.13103" lon="1.39065">
        <ele>381</ele>
        <time>2023-03-05T14:35:36Z</time>
        <extensions>
          <gpxtpx:TrackPointExtension xmlns:gpxtpx="http://www.garmin.com/xmlschemas/TrackPointExtension/v1">
            <gpxtpx:hr>110</gpxtpx:hr>
          </gpxtpx:TrackPointExtension>
        </extensions>
      </trkpt>
      <trkpt lat="43.13123" lon="1.39084">
        <ele>381</ele>
        <time>2023-03-05T14:35:41Z</time>
        <extensions>
          <gpxtpx:TrackPointExtension xmlns:gpxtpx="http://www.garmin.com/xmlschemas/TrackPointExtension/v1">
            <gpxtpx:hr>111</gpxtpx:hr>
          </gpxtpx:TrackPointExtension>
        </extensions>
      </trkpt>
      <trkpt lat="43.13127" lon="1.39089">
        <ele>381</ele>
        <time>2023-03-05T14:35:42Z</time>
        <extensions>
          <gpxtpx:TrackPointExtension xmlns:gpxtpx="http://www.garmin.com/xmlschemas/TrackPointExtension/v1">
            <gpxtpx:hr>111</gpxtpx:hr>
          </gpxtpx:TrackPointExtension>
        </extensions>
      </trkpt>
      <trkpt lat="43.13141" lon="1.39109">
        <ele>381</ele>
        <time>2023-03-05T14:35:47Z</time>
        <extensions>
          <gpxtpx:TrackPointExtension xmlns:gpxtpx="http://www.garmin.com/xmlschemas/TrackPointExtension/v1">
            <gpxtpx:hr>111</gpxtpx:hr>
          </gpxtpx:TrackPointExtension>
        </extensions>
      </trkpt>
      <trkpt lat="43.13149" lon="1.39117">
        <ele>381.8</ele>
        <time>2023-03-05T14:35:50Z</time>
        <extensions>
          <gpxtpx:TrackPointExtension xmlns:gpxtpx="http://www.garmin.com/xmlschemas/TrackPointExtension/v1">
            <gpxtpx:hr>111</gpxtpx:hr>
          </gpxtpx:TrackPointExtension>
        </extensions>
      </trkpt>
      <trkpt lat="43.13151" lon="1.39119">
        <ele>382.2</ele>
        <time>2023-03-05T14:35:51Z</time>
        <extensions>
          <gpxtpx:TrackPointExtension xmlns:gpxtpx="http://www.garmin.com/xmlschemas/TrackPointExtension/v1">
            <gpxtpx:hr>111</gpxtpx:hr>
          </gpxtpx:TrackPointExtension>
        </extensions>
      </trkpt>
      <trkpt lat="43.13153" lon="1.39121">
        <ele>382.6</ele>
        <time>2023-03-05T14:35:52Z</time>
        <extensions>
          <gpxtpx:TrackPointExtension xmlns:gpxtpx="http://www.garmin.com/xmlschemas/TrackPointExtension/v1">
            <gpxtpx:hr>111</gpxtpx:hr>
          </gpxtpx:TrackPointExtension>
        </extensions>
      </trkpt>
      <trkpt lat="43.13155" lon="1.39123">
        <ele>383</ele>
        <time>2023-03-05T14:35:53Z</time>
        <extensions>
          <gpxtpx:TrackPointExtension xmlns:gpxtpx="http://www.garmin.com/xmlschemas/TrackPointExtension/v1">
            <gpxtpx:hr>111</gpxtpx:hr>
          </gpxtpx:TrackPointExtension>
        </extensions>
      </trkpt>
      <trkpt lat="43.13161" lon="1.39129">
        <ele>383</ele>
        <time>2023-03-05T14:35:56Z</time>
        <extensions>
          <gpxtpx:TrackPointExtension xmlns:gpxtpx="http://www.garmin.com/xmlschemas/TrackPointExtension/v1">
            <gpxtpx:hr>114</gpxtpx:hr>
          </gpxtpx:TrackPointExtension>
        </extensions>
      </trkpt>
      <trkpt lat="43.13172" lon="1.39135">
        <ele>383</ele>
        <time>2023-03-05T14:36:01Z</time>
        <extensions>
          <gpxtpx:TrackPointExtension xmlns:gpxtpx="http://www.garmin.com/xmlschemas/TrackPointExtension/v1">
            <gpxtpx:hr>114</gpxtpx:hr>
          </gpxtpx:TrackPointExtension>
        </extensions>
      </trkpt>
      <trkpt lat="43.13175" lon="1.39136">
        <ele>383</ele>
        <time>2023-03-05T14:36:03Z</time>
        <extensions>
          <gpxtpx:TrackPointExtension xmlns:gpxtpx="http://www.garmin.com/xmlschemas/TrackPointExtension/v1">
            <gpxtpx:hr>114</gpxtpx:hr>
          </gpxtpx:TrackPointExtension>
        </extensions>
      </trkpt>
      <trkpt lat="43.13182" lon="1.39141">
        <ele>383</ele>
        <time>2023-03-05T14:36:06Z</time>
        <extensions>
          <gpxtpx:TrackPointExtension xmlns:gpxtpx="http://www.garmin.com/xmlschemas/TrackPointExtension/v1">
            <gpxtpx:hr>114</gpxtpx:hr>
          </gpxtpx:TrackPointExtension>
        </extensions>
      </trkpt>
      <trkpt lat="43.13186" lon="1.39143">
        <ele>383</ele>
        <time>2023-03-05T14:36:07Z</time>
        <extensions>
          <gpxtpx:TrackPointExtension xmlns:gpxtpx="http://www.garmin.com/xmlschemas/TrackPointExtension/v1">
            <gpxtpx:hr>114</gpxtpx:hr>
          </gpxtpx:TrackPointExtension>
        </extensions>
      </trkpt>
      <trkpt lat="43.1319" lon="1.39145">
        <ele>382.6</ele>
        <time>2023-03-05T14:36:08Z</time>
        <extensions>
          <gpxtpx:TrackPointExtension xmlns:gpxtpx="http://www.garmin.com/xmlschemas/TrackPointExtension/v1">
            <gpxtpx:hr>107</gpxtpx:hr>
          </gpxtpx:TrackPointExtension>
        </extensions>
      </trkpt>
      <trkpt lat="43.13194" lon="1.39148">
        <ele>382.2</ele>
        <time>2023-03-05T14:36:09Z</time>
        <extensions>
          <gpxtpx:TrackPointExtension xmlns:gpxtpx="http://www.garmin.com/xmlschemas/TrackPointExtension/v1">
            <gpxtpx:hr>101</gpxtpx:hr>
          </gpxtpx:TrackPointExtension>
        </extensions>
      </trkpt>
      <trkpt lat="43.13199" lon="1.39151">
        <ele>381.8</ele>
        <time>2023-03-05T14:36:10Z</time>
        <extensions>
          <gpxtpx:TrackPointExtension xmlns:gpxtpx="http://www.garmin.com/xmlschemas/TrackPointExtension/v1">
            <gpxtpx:hr>95</gpxtpx:hr>
          </gpxtpx:TrackPointExtension>
        </extensions>
      </trkpt>
      <trkpt lat="43.13203" lon="1.39154">
        <ele>381.4</ele>
        <time>2023-03-05T14:36:11Z</time>
        <extensions>
          <gpxtpx:TrackPointExtension xmlns:gpxtpx="http://www.garmin.com/xmlschemas/TrackPointExtension/v1">
            <gpxtpx:hr>95</gpxtpx:hr>
          </gpxtpx:TrackPointExtension>
        </extensions>
      </trkpt>
      <trkpt lat="43.13208" lon="1.39157">
        <ele>380.8</ele>
        <time>2023-03-05T14:36:12Z</time>
        <extensions>
          <gpxtpx:TrackPointExtension xmlns:gpxtpx="http://www.garmin.com/xmlschemas/TrackPointExtension/v1">
            <gpxtpx:hr>95</gpxtpx:hr>
          </gpxtpx:TrackPointExtension>
        </extensions>
      </trkpt>
      <trkpt lat="43.13213" lon="1.3916">
        <ele>380.2</ele>
        <time>2023-03-05T14:36:13Z</time>
        <extensions>
          <gpxtpx:TrackPointExtension xmlns:gpxtpx="http://www.garmin.com/xmlschemas/TrackPointExtension/v1">
            <gpxtpx:hr>95</gpxtpx:hr>
          </gpxtpx:TrackPointExtension>
        </extensions>
      </trkpt>
      <trkpt lat="43.13219" lon="1.39163">
        <ele>379.6</ele>
        <time>2023-03-05T14:36:14Z</time>
        <extensions>
          <gpxtpx:TrackPointExtension xmlns:gpxtpx="http://www.garmin.com/xmlschemas/TrackPointExtension/v1">
            <gpxtpx:hr>95</gpxtpx:hr>
          </gpxtpx:TrackPointExtension>
        </extensions>
      </trkpt>
      <trkpt lat="43.13224" lon="1.39167">
        <ele>378.4</ele>
        <time>2023-03-05T14:36:15Z</time>
        <extensions>
          <gpxtpx:TrackPointExtension xmlns:gpxtpx="http://www.garmin.com/xmlschemas/TrackPointExtension/v1">
            <gpxtpx:hr>97</gpxtpx:hr>
          </gpxtpx:TrackPointExtension>
        </extensions>
      </trkpt>
      <trkpt lat="43.13228" lon="1.3917">
        <ele>377.6</ele>
        <time>2023-03-05T14:36:16Z</time>
        <extensions>
          <gpxtpx:TrackPointExtension xmlns:gpxtpx="http://www.garmin.com/xmlschemas/TrackPointExtension/v1">
            <gpxtpx:hr>100</gpxtpx:hr>
          </gpxtpx:TrackPointExtension>
        </extensions>
      </trkpt>
      <trkpt lat="43.13233" lon="1.39174">
        <ele>377</ele>
        <time>2023-03-05T14:36:17Z</time>
        <extensions>
          <gpxtpx:TrackPointExtension xmlns:gpxtpx="http://www.garmin.com/xmlschemas/TrackPointExtension/v1">
            <gpxtpx:hr>101</gpxtpx:hr>
          </gpxtpx:TrackPointExtension>
        </extensions>
      </trkpt>
      <trkpt lat="43.13237" lon="1.39177">
        <ele>376.2</ele>
        <time>2023-03-05T14:36:18Z</time>
        <extensions>
          <gpxtpx:TrackPointExtension xmlns:gpxtpx="http://www.garmin.com/xmlschemas/TrackPointExtension/v1">
            <gpxtpx:hr>101</gpxtpx:hr>
          </gpxtpx:TrackPointExtension>
        </extensions>
      </trkpt>
      <trkpt lat="43.13242" lon="1.39182">
        <ele>375.6</ele>
        <time>2023-03-05T14:36:19Z</time>
        <extensions>
          <gpxtpx:TrackPointExtension xmlns:gpxtpx="http://www.garmin.com/xmlschemas/TrackPointExtension/v1">
            <gpxtpx:hr>101</gpxtpx:hr>
          </gpxtpx:TrackPointExtension>
        </extensions>
      </trkpt>
      <trkpt lat="43.13246" lon="1.39186">
        <ele>374.8</ele>
        <time>2023-03-05T14:36:20Z</time>
        <extensions>
          <gpxtpx:TrackPointExtension xmlns:gpxtpx="http://www.garmin.com/xmlschemas/TrackPointExtension/v1">
            <gpxtpx:hr>103</gpxtpx:hr>
          </gpxtpx:TrackPointExtension>
        </extensions>
      </trkpt>
      <trkpt lat="43.1325" lon="1.39191">
        <ele>374</ele>
        <time>2023-03-05T14:36:21Z</time>
        <extensions>
          <gpxtpx:TrackPointExtension xmlns:gpxtpx="http://www.garmin.com/xmlschemas/TrackPointExtension/v1">
            <gpxtpx:hr>103</gpxtpx:hr>
          </gpxtpx:TrackPointExtension>
        </extensions>
      </trkpt>
      <trkpt lat="43.13254" lon="1.39194">
        <ele>373.2</ele>
        <time>2023-03-05T14:36:22Z</time>
        <extensions>
          <gpxtpx:TrackPointExtension xmlns:gpxtpx="http://www.garmin.com/xmlschemas/TrackPointExtension/v1">
            <gpxtpx:hr>103</gpxtpx:hr>
          </gpxtpx:TrackPointExtension>
        </extensions>
      </trkpt>
      <trkpt lat="43.13258" lon="1.39198">
        <ele>372.2</ele>
        <time>2023-03-05T14:36:23Z</time>
        <extensions>
          <gpxtpx:TrackPointExtension xmlns:gpxtpx="http://www.garmin.com/xmlschemas/TrackPointExtension/v1">
            <gpxtpx:hr>103</gpxtpx:hr>
          </gpxtpx:TrackPointExtension>
        </extensions>
      </trkpt>
      <trkpt lat="43.13262" lon="1.39201">
        <ele>371.2</ele>
        <time>2023-03-05T14:36:24Z</time>
        <extensions>
          <gpxtpx:TrackPointExtension xmlns:gpxtpx="http://www.garmin.com/xmlschemas/TrackPointExtension/v1">
            <gpxtpx:hr>103</gpxtpx:hr>
          </gpxtpx:TrackPointExtension>
        </extensions>
      </trkpt>
      <trkpt lat="43.13267" lon="1.39205">
        <ele>370.2</ele>
        <time>2023-03-05T14:36:25Z</time>
        <extensions>
          <gpxtpx:TrackPointExtension xmlns:gpxtpx="http://www.garmin.com/xmlschemas/TrackPointExtension/v1">
            <gpxtpx:hr>103</gpxtpx:hr>
          </gpxtpx:TrackPointExtension>
        </extensions>
      </trkpt>
      <trkpt lat="43.13272" lon="1.39207">
        <ele>369.2</ele>
        <time>2023-03-05T14:36:26Z</time>
        <extensions>
          <gpxtpx:TrackPointExtension xmlns:gpxtpx="http://www.garmin.com/xmlschemas/TrackPointExtension/v1">
            <gpxtpx:hr>97</gpxtpx:hr>
          </gpxtpx:TrackPointExtension>
        </extensions>
      </trkpt>
      <trkpt lat="43.13277" lon="1.39208">
        <ele>368.2</ele>
        <time>2023-03-05T14:36:27Z</time>
        <extensions>
          <gpxtpx:TrackPointExtension xmlns:gpxtpx="http://www.garmin.com/xmlschemas/TrackPointExtension/v1">
            <gpxtpx:hr>97</gpxtpx:hr>
          </gpxtpx:TrackPointExtension>
        </extensions>
      </trkpt>
      <trkpt lat="43.13282" lon="1.39209">
        <ele>367.2</ele>
        <time>2023-03-05T14:36:28Z</time>
        <extensions>
          <gpxtpx:TrackPointExtension xmlns:gpxtpx="http://www.garmin.com/xmlschemas/TrackPointExtension/v1">
            <gpxtpx:hr>97</gpxtpx:hr>
          </gpxtpx:TrackPointExtension>
        </extensions>
      </trkpt>
      <trkpt lat="43.13286" lon="1.39211">
        <ele>366.2</ele>
        <time>2023-03-05T14:36:29Z</time>
        <extensions>
          <gpxtpx:TrackPointExtension xmlns:gpxtpx="http://www.garmin.com/xmlschemas/TrackPointExtension/v1">
            <gpxtpx:hr>97</gpxtpx:hr>
          </gpxtpx:TrackPointExtension>
        </extensions>
      </trkpt>
      <trkpt lat="43.13292" lon="1.39213">
        <ele>365.2</ele>
        <time>2023-03-05T14:36:30Z</time>
        <extensions>
          <gpxtpx:TrackPointExtension xmlns:gpxtpx="http://www.garmin.com/xmlschemas/TrackPointExtension/v1">
            <gpxtpx:hr>97</gpxtpx:hr>
          </gpxtpx:TrackPointExtension>
        </extensions>
      </trkpt>
      <trkpt lat="43.13297" lon="1.39214">
        <ele>364.2</ele>
        <time>2023-03-05T14:36:31Z</time>
        <extensions>
          <gpxtpx:TrackPointExtension xmlns:gpxtpx="http://www.garmin.com/xmlschemas/TrackPointExtension/v1">
            <gpxtpx:hr>97</gpxtpx:hr>
          </gpxtpx:TrackPointExtension>
        </extensions>
      </trkpt>
      <trkpt lat="43.13301" lon="1.39216">
        <ele>363.4</ele>
        <time>2023-03-05T14:36:32Z</time>
        <extensions>
          <gpxtpx:TrackPointExtension xmlns:gpxtpx="http://www.garmin.com/xmlschemas/TrackPointExtension/v1">
            <gpxtpx:hr>97</gpxtpx:hr>
          </gpxtpx:TrackPointExtension>
        </extensions>
      </trkpt>
      <trkpt lat="43.13305" lon="1.39217">
        <ele>362.4</ele>
        <time>2023-03-05T14:36:33Z</time>
        <extensions>
          <gpxtpx:TrackPointExtension xmlns:gpxtpx="http://www.garmin.com/xmlschemas/TrackPointExtension/v1">
            <gpxtpx:hr>98</gpxtpx:hr>
          </gpxtpx:TrackPointExtension>
        </extensions>
      </trkpt>
      <trkpt lat="43.1331" lon="1.39219">
        <ele>361.4</ele>
        <time>2023-03-05T14:36:34Z</time>
        <extensions>
          <gpxtpx:TrackPointExtension xmlns:gpxtpx="http://www.garmin.com/xmlschemas/TrackPointExtension/v1">
            <gpxtpx:hr>98</gpxtpx:hr>
          </gpxtpx:TrackPointExtension>
        </extensions>
      </trkpt>
      <trkpt lat="43.13315" lon="1.3922">
        <ele>360.6</ele>
        <time>2023-03-05T14:36:35Z</time>
        <extensions>
          <gpxtpx:TrackPointExtension xmlns:gpxtpx="http://www.garmin.com/xmlschemas/TrackPointExtension/v1">
            <gpxtpx:hr>98</gpxtpx:hr>
          </gpxtpx:TrackPointExtension>
        </extensions>
      </trkpt>
      <trkpt lat="43.1332" lon="1.39221">
        <ele>359.6</ele>
        <time>2023-03-05T14:36:36Z</time>
        <extensions>
          <gpxtpx:TrackPointExtension xmlns:gpxtpx="http://www.garmin.com/xmlschemas/TrackPointExtension/v1">
            <gpxtpx:hr>99</gpxtpx:hr>
          </gpxtpx:TrackPointExtension>
        </extensions>
      </trkpt>
      <trkpt lat="43.13324" lon="1.39222">
        <ele>358.8</ele>
        <time>2023-03-05T14:36:37Z</time>
        <extensions>
          <gpxtpx:TrackPointExtension xmlns:gpxtpx="http://www.garmin.com/xmlschemas/TrackPointExtension/v1">
            <gpxtpx:hr>100</gpxtpx:hr>
          </gpxtpx:TrackPointExtension>
        </extensions>
      </trkpt>
      <trkpt lat="43.13328" lon="1.39224">
        <ele>358</ele>
        <time>2023-03-05T14:36:38Z</time>
        <extensions>
          <gpxtpx:TrackPointExtension xmlns:gpxtpx="http://www.garmin.com/xmlschemas/TrackPointExtension/v1">
            <gpxtpx:hr>102</gpxtpx:hr>
          </gpxtpx:TrackPointExtension>
        </extensions>
      </trkpt>
      <trkpt lat="43.13332" lon="1.39225">
        <ele>357.2</ele>
        <time>2023-03-05T14:36:39Z</time>
        <extensions>
          <gpxtpx:TrackPointExtension xmlns:gpxtpx="http://www.garmin.com/xmlschemas/TrackPointExtension/v1">
            <gpxtpx:hr>102</gpxtpx:hr>
          </gpxtpx:TrackPointExtension>
        </extensions>
      </trkpt>
      <trkpt lat="43.13336" lon="1.39227">
        <ele>355.6</ele>
        <time>2023-03-05T14:36:40Z</time>
        <extensions>
          <gpxtpx:TrackPointExtension xmlns:gpxtpx="http://www.garmin.com/xmlschemas/TrackPointExtension/v1">
            <gpxtpx:hr>102</gpxtpx:hr>
          </gpxtpx:TrackPointExtension>
        </extensions>
      </trkpt>
      <trkpt lat="43.1334" lon="1.39229">
        <ele>355</ele>
        <time>2023-03-05T14:36:41Z</time>
        <extensions>
          <gpxtpx:TrackPointExtension xmlns:gpxtpx="http://www.garmin.com/xmlschemas/TrackPointExtension/v1">
            <gpxtpx:hr>102</gpxtpx:hr>
          </gpxtpx:TrackPointExtension>
        </extensions>
      </trkpt>
      <trkpt lat="43.13343" lon="1.3923">
        <ele>354.4</ele>
        <time>2023-03-05T14:36:42Z</time>
        <extensions>
          <gpxtpx:TrackPointExtension xmlns:gpxtpx="http://www.garmin.com/xmlschemas/TrackPointExtension/v1">
            <gpxtpx:hr>102</gpxtpx:hr>
          </gpxtpx:TrackPointExtension>
        </extensions>
      </trkpt>
      <trkpt lat="43.13345" lon="1.39232">
        <ele>353.6</ele>
        <time>2023-03-05T14:36:43Z</time>
        <extensions>
          <gpxtpx:TrackPointExtension xmlns:gpxtpx="http://www.garmin.com/xmlschemas/TrackPointExtension/v1">
            <gpxtpx:hr>102</gpxtpx:hr>
          </gpxtpx:TrackPointExtension>
        </extensions>
      </trkpt>
      <trkpt lat="43.13348" lon="1.39233">
        <ele>353</ele>
        <time>2023-03-05T14:36:44Z</time>
        <extensions>
          <gpxtpx:TrackPointExtension xmlns:gpxtpx="http://www.garmin.com/xmlschemas/TrackPointExtension/v1">
            <gpxtpx:hr>102</gpxtpx:hr>
          </gpxtpx:TrackPointExtension>
        </extensions>
      </trkpt>
      <trkpt lat="43.13351" lon="1.39234">
        <ele>352.4</ele>
        <time>2023-03-05T14:36:45Z</time>
        <extensions>
          <gpxtpx:TrackPointExtension xmlns:gpxtpx="http://www.garmin.com/xmlschemas/TrackPointExtension/v1">
            <gpxtpx:hr>102</gpxtpx:hr>
          </gpxtpx:TrackPointExtension>
        </extensions>
      </trkpt>
      <trkpt lat="43.13355" lon="1.39236">
        <ele>352</ele>
        <time>2023-03-05T14:36:46Z</time>
        <extensions>
          <gpxtpx:TrackPointExtension xmlns:gpxtpx="http://www.garmin.com/xmlschemas/TrackPointExtension/v1">
            <gpxtpx:hr>102</gpxtpx:hr>
          </gpxtpx:TrackPointExtension>
        </extensions>
      </trkpt>
      <trkpt lat="43.13359" lon="1.39237">
        <ele>351.4</ele>
        <time>2023-03-05T14:36:47Z</time>
        <extensions>
          <gpxtpx:TrackPointExtension xmlns:gpxtpx="http://www.garmin.com/xmlschemas/TrackPointExtension/v1">
            <gpxtpx:hr>102</gpxtpx:hr>
          </gpxtpx:TrackPointExtension>
        </extensions>
      </trkpt>
      <trkpt lat="43.13362" lon="1.39239">
        <ele>350.8</ele>
        <time>2023-03-05T14:36:48Z</time>
        <extensions>
          <gpxtpx:TrackPointExtension xmlns:gpxtpx="http://www.garmin.com/xmlschemas/TrackPointExtension/v1">
            <gpxtpx:hr>102</gpxtpx:hr>
          </gpxtpx:TrackPointExtension>
        </extensions>
      </trkpt>
      <trkpt lat="43.13365" lon="1.3924">
        <ele>350.2</ele>
        <time>2023-03-05T14:36:49Z</time>
        <extensions>
          <gpxtpx:TrackPointExtension xmlns:gpxtpx="http://www.garmin.com/xmlschemas/TrackPointExtension/v1">
            <gpxtpx:hr>102</gpxtpx:hr>
          </gpxtpx:TrackPointExtension>
        </extensions>
      </trkpt>
      <trkpt lat="43.13369" lon="1.39241">
        <ele>349.6</ele>
        <time>2023-03-05T14:36:50Z</time>
        <extensions>
          <gpxtpx:TrackPointExtension xmlns:gpxtpx="http://www.garmin.com/xmlschemas/TrackPointExtension/v1">
            <gpxtpx:hr>102</gpxtpx:hr>
          </gpxtpx:TrackPointExtension>
        </extensions>
      </trkpt>
      <trkpt lat="43.13372" lon="1.39242">
        <ele>349</ele>
        <time>2023-03-05T14:36:51Z</time>
        <extensions>
          <gpxtpx:TrackPointExtension xmlns:gpxtpx="http://www.garmin.com/xmlschemas/TrackPointExtension/v1">
            <gpxtpx:hr>102</gpxtpx:hr>
          </gpxtpx:TrackPointExtension>
        </extensions>
      </trkpt>
      <trkpt lat="43.13375" lon="1.39243">
        <ele>348.4</ele>
        <time>2023-03-05T14:36:52Z</time>
        <extensions>
          <gpxtpx:TrackPointExtension xmlns:gpxtpx="http://www.garmin.com/xmlschemas/TrackPointExtension/v1">
            <gpxtpx:hr>102</gpxtpx:hr>
          </gpxtpx:TrackPointExtension>
        </extensions>
      </trkpt>
      <trkpt lat="43.13378" lon="1.39244">
        <ele>347.8</ele>
        <time>2023-03-05T14:36:53Z</time>
        <extensions>
          <gpxtpx:TrackPointExtension xmlns:gpxtpx="http://www.garmin.com/xmlschemas/TrackPointExtension/v1">
            <gpxtpx:hr>102</gpxtpx:hr>
          </gpxtpx:TrackPointExtension>
        </extensions>
      </trkpt>
      <trkpt lat="43.13381" lon="1.39245">
        <ele>347.2</ele>
        <time>2023-03-05T14:36:54Z</time>
        <extensions>
          <gpxtpx:TrackPointExtension xmlns:gpxtpx="http://www.garmin.com/xmlschemas/TrackPointExtension/v1">
            <gpxtpx:hr>102</gpxtpx:hr>
          </gpxtpx:TrackPointExtension>
        </extensions>
      </trkpt>
      <trkpt lat="43.13385" lon="1.39245">
        <ele>346.6</ele>
        <time>2023-03-05T14:36:55Z</time>
        <extensions>
          <gpxtpx:TrackPointExtension xmlns:gpxtpx="http://www.garmin.com/xmlschemas/TrackPointExtension/v1">
            <gpxtpx:hr>102</gpxtpx:hr>
          </gpxtpx:TrackPointExtension>
        </extensions>
      </trkpt>
      <trkpt lat="43.13389" lon="1.39246">
        <ele>346</ele>
        <time>2023-03-05T14:36:56Z</time>
        <extensions>
          <gpxtpx:TrackPointExtension xmlns:gpxtpx="http://www.garmin.com/xmlschemas/TrackPointExtension/v1">
            <gpxtpx:hr>102</gpxtpx:hr>
          </gpxtpx:TrackPointExtension>
        </extensions>
      </trkpt>
      <trkpt lat="43.13392" lon="1.39246">
        <ele>345.4</ele>
        <time>2023-03-05T14:36:57Z</time>
        <extensions>
          <gpxtpx:TrackPointExtension xmlns:gpxtpx="http://www.garmin.com/xmlschemas/TrackPointExtension/v1">
            <gpxtpx:hr>102</gpxtpx:hr>
          </gpxtpx:TrackPointExtension>
        </extensions>
      </trkpt>
      <trkpt lat="43.13396" lon="1.39247">
        <ele>344.6</ele>
        <time>2023-03-05T14:36:58Z</time>
        <extensions>
          <gpxtpx:TrackPointExtension xmlns:gpxtpx="http://www.garmin.com/xmlschemas/TrackPointExtension/v1">
            <gpxtpx:hr>102</gpxtpx:hr>
          </gpxtpx:TrackPointExtension>
        </extensions>
      </trkpt>
      <trkpt lat="43.13399" lon="1.39248">
        <ele>344</ele>
        <time>2023-03-05T14:36:59Z</time>
        <extensions>
          <gpxtpx:TrackPointExtension xmlns:gpxtpx="http://www.garmin.com/xmlschemas/TrackPointExtension/v1">
            <gpxtpx:hr>102</gpxtpx:hr>
          </gpxtpx:TrackPointExtension>
        </extensions>
      </trkpt>
      <trkpt lat="43.13403" lon="1.3925">
        <ele>343.4</ele>
        <time>2023-03-05T14:37:00Z</time>
        <extensions>
          <gpxtpx:TrackPointExtension xmlns:gpxtpx="http://www.garmin.com/xmlschemas/TrackPointExtension/v1">
            <gpxtpx:hr>102</gpxtpx:hr>
          </gpxtpx:TrackPointExtension>
        </extensions>
      </trkpt>
      <trkpt lat="43.13406" lon="1.39251">
        <ele>342.8</ele>
        <time>2023-03-05T14:37:01Z</time>
        <extensions>
          <gpxtpx:TrackPointExtension xmlns:gpxtpx="http://www.garmin.com/xmlschemas/TrackPointExtension/v1">
            <gpxtpx:hr>102</gpxtpx:hr>
          </gpxtpx:TrackPointExtension>
        </extensions>
      </trkpt>
      <trkpt lat="43.1341" lon="1.39252">
        <ele>342.2</ele>
        <time>2023-03-05T14:37:02Z</time>
        <extensions>
          <gpxtpx:TrackPointExtension xmlns:gpxtpx="http://www.garmin.com/xmlschemas/TrackPointExtension/v1">
            <gpxtpx:hr>102</gpxtpx:hr>
          </gpxtpx:TrackPointExtension>
        </extensions>
      </trkpt>
      <trkpt lat="43.13414" lon="1.39254">
        <ele>341.4</ele>
        <time>2023-03-05T14:37:03Z</time>
        <extensions>
          <gpxtpx:TrackPointExtension xmlns:gpxtpx="http://www.garmin.com/xmlschemas/TrackPointExtension/v1">
            <gpxtpx:hr>102</gpxtpx:hr>
          </gpxtpx:TrackPointExtension>
        </extensions>
      </trkpt>
      <trkpt lat="43.13417" lon="1.39254">
        <ele>340.8</ele>
        <time>2023-03-05T14:37:04Z</time>
        <extensions>
          <gpxtpx:TrackPointExtension xmlns:gpxtpx="http://www.garmin.com/xmlschemas/TrackPointExtension/v1">
            <gpxtpx:hr>102</gpxtpx:hr>
          </gpxtpx:TrackPointExtension>
        </extensions>
      </trkpt>
      <trkpt lat="43.1342" lon="1.39254">
        <ele>339.4</ele>
        <time>2023-03-05T14:37:05Z</time>
        <extensions>
          <gpxtpx:TrackPointExtension xmlns:gpxtpx="http://www.garmin.com/xmlschemas/TrackPointExtension/v1">
            <gpxtpx:hr>103</gpxtpx:hr>
          </gpxtpx:TrackPointExtension>
        </extensions>
      </trkpt>
      <trkpt lat="43.13423" lon="1.39253">
        <ele>338.6</ele>
        <time>2023-03-05T14:37:06Z</time>
        <extensions>
          <gpxtpx:TrackPointExtension xmlns:gpxtpx="http://www.garmin.com/xmlschemas/TrackPointExtension/v1">
            <gpxtpx:hr>104</gpxtpx:hr>
          </gpxtpx:TrackPointExtension>
        </extensions>
      </trkpt>
      <trkpt lat="43.13426" lon="1.39251">
        <ele>338</ele>
        <time>2023-03-05T14:37:07Z</time>
        <extensions>
          <gpxtpx:TrackPointExtension xmlns:gpxtpx="http://www.garmin.com/xmlschemas/TrackPointExtension/v1">
            <gpxtpx:hr>104</gpxtpx:hr>
          </gpxtpx:TrackPointExtension>
        </extensions>
      </trkpt>
      <trkpt lat="43.1343" lon="1.39248">
        <ele>337.4</ele>
        <time>2023-03-05T14:37:08Z</time>
        <extensions>
          <gpxtpx:TrackPointExtension xmlns:gpxtpx="http://www.garmin.com/xmlschemas/TrackPointExtension/v1">
            <gpxtpx:hr>105</gpxtpx:hr>
          </gpxtpx:TrackPointExtension>
        </extensions>
      </trkpt>
      <trkpt lat="43.13433" lon="1.39247">
        <ele>336.8</ele>
        <time>2023-03-05T14:37:09Z</time>
        <extensions>
          <gpxtpx:TrackPointExtension xmlns:gpxtpx="http://www.garmin.com/xmlschemas/TrackPointExtension/v1">
            <gpxtpx:hr>105</gpxtpx:hr>
          </gpxtpx:TrackPointExtension>
        </extensions>
      </trkpt>
      <trkpt lat="43.13436" lon="1.39247">
        <ele>336</ele>
        <time>2023-03-05T14:37:10Z</time>
        <extensions>
          <gpxtpx:TrackPointExtension xmlns:gpxtpx="http://www.garmin.com/xmlschemas/TrackPointExtension/v1">
            <gpxtpx:hr>105</gpxtpx:hr>
          </gpxtpx:TrackPointExtension>
        </extensions>
      </trkpt>
      <trkpt lat="43.13441" lon="1.39246">
        <ele>335.6</ele>
        <time>2023-03-05T14:37:12Z</time>
        <extensions>
          <gpxtpx:TrackPointExtension xmlns:gpxtpx="http://www.garmin.com/xmlschemas/TrackPointExtension/v1">
            <gpxtpx:hr>105</gpxtpx:hr>
          </gpxtpx:TrackPointExtension>
        </extensions>
      </trkpt>
      <trkpt lat="43.13443" lon="1.39245">
        <ele>335.2</ele>
        <time>2023-03-05T14:37:13Z</time>
        <extensions>
          <gpxtpx:TrackPointExtension xmlns:gpxtpx="http://www.garmin.com/xmlschemas/TrackPointExtension/v1">
            <gpxtpx:hr>105</gpxtpx:hr>
          </gpxtpx:TrackPointExtension>
        </extensions>
      </trkpt>
      <trkpt lat="43.13445" lon="1.39244">
        <ele>334.8</ele>
        <time>2023-03-05T14:37:14Z</time>
        <extensions>
          <gpxtpx:TrackPointExtension xmlns:gpxtpx="http://www.garmin.com/xmlschemas/TrackPointExtension/v1">
            <gpxtpx:hr>105</gpxtpx:hr>
          </gpxtpx:TrackPointExtension>
        </extensions>
      </trkpt>
      <trkpt lat="43.13447" lon="1.39243">
        <ele>334.4</ele>
        <time>2023-03-05T14:37:15Z</time>
        <extensions>
          <gpxtpx:TrackPointExtension xmlns:gpxtpx="http://www.garmin.com/xmlschemas/TrackPointExtension/v1">
            <gpxtpx:hr>105</gpxtpx:hr>
          </gpxtpx:TrackPointExtension>
        </extensions>
      </trkpt>
      <trkpt lat="43.1345" lon="1.39242">
        <ele>334</ele>
        <time>2023-03-05T14:37:16Z</time>
        <extensions>
          <gpxtpx:TrackPointExtension xmlns:gpxtpx="http://www.garmin.com/xmlschemas/TrackPointExtension/v1">
            <gpxtpx:hr>99</gpxtpx:hr>
          </gpxtpx:TrackPointExtension>
        </extensions>
      </trkpt>
      <trkpt lat="43.13453" lon="1.39241">
        <ele>334</ele>
        <time>2023-03-05T14:37:17Z</time>
        <extensions>
          <gpxtpx:TrackPointExtension xmlns:gpxtpx="http://www.garmin.com/xmlschemas/TrackPointExtension/v1">
            <gpxtpx:hr>94</gpxtpx:hr>
          </gpxtpx:TrackPointExtension>
        </extensions>
      </trkpt>
      <trkpt lat="43.13456" lon="1.3924">
        <ele>334</ele>
        <time>2023-03-05T14:37:18Z</time>
        <extensions>
          <gpxtpx:TrackPointExtension xmlns:gpxtpx="http://www.garmin.com/xmlschemas/TrackPointExtension/v1">
            <gpxtpx:hr>94</gpxtpx:hr>
          </gpxtpx:TrackPointExtension>
        </extensions>
      </trkpt>
      <trkpt lat="43.13463" lon="1.39237">
        <ele>334</ele>
        <time>2023-03-05T14:37:20Z</time>
        <extensions>
          <gpxtpx:TrackPointExtension xmlns:gpxtpx="http://www.garmin.com/xmlschemas/TrackPointExtension/v1">
            <gpxtpx:hr>94</gpxtpx:hr>
          </gpxtpx:TrackPointExtension>
        </extensions>
      </trkpt>
      <trkpt lat="43.13486" lon="1.39228">
        <ele>334</ele>
        <time>2023-03-05T14:37:26Z</time>
        <extensions>
          <gpxtpx:TrackPointExtension xmlns:gpxtpx="http://www.garmin.com/xmlschemas/TrackPointExtension/v1">
            <gpxtpx:hr>94</gpxtpx:hr>
          </gpxtpx:TrackPointExtension>
        </extensions>
      </trkpt>
      <trkpt lat="43.13489" lon="1.39227">
        <ele>334.4</ele>
        <time>2023-03-05T14:37:27Z</time>
        <extensions>
          <gpxtpx:TrackPointExtension xmlns:gpxtpx="http://www.garmin.com/xmlschemas/TrackPointExtension/v1">
            <gpxtpx:hr>94</gpxtpx:hr>
          </gpxtpx:TrackPointExtension>
        </extensions>
      </trkpt>
      <trkpt lat="43.13492" lon="1.39226">
        <ele>334.8</ele>
        <time>2023-03-05T14:37:28Z</time>
        <extensions>
          <gpxtpx:TrackPointExtension xmlns:gpxtpx="http://www.garmin.com/xmlschemas/TrackPointExtension/v1">
            <gpxtpx:hr>94</gpxtpx:hr>
          </gpxtpx:TrackPointExtension>
        </extensions>
      </trkpt>
      <trkpt lat="43.13496" lon="1.39225">
        <ele>335.6</ele>
        <time>2023-03-05T14:37:29Z</time>
        <extensions>
          <gpxtpx:TrackPointExtension xmlns:gpxtpx="http://www.garmin.com/xmlschemas/TrackPointExtension/v1">
            <gpxtpx:hr>94</gpxtpx:hr>
          </gpxtpx:TrackPointExtension>
        </extensions>
      </trkpt>
      <trkpt lat="43.13499" lon="1.39224">
        <ele>336.2</ele>
        <time>2023-03-05T14:37:30Z</time>
        <extensions>
          <gpxtpx:TrackPointExtension xmlns:gpxtpx="http://www.garmin.com/xmlschemas/TrackPointExtension/v1">
            <gpxtpx:hr>94</gpxtpx:hr>
          </gpxtpx:TrackPointExtension>
        </extensions>
      </trkpt>
      <trkpt lat="43.13503" lon="1.39221">
        <ele>336.2</ele>
        <time>2023-03-05T14:37:31Z</time>
        <extensions>
          <gpxtpx:TrackPointExtension xmlns:gpxtpx="http://www.garmin.com/xmlschemas/TrackPointExtension/v1">
            <gpxtpx:hr>94</gpxtpx:hr>
          </gpxtpx:TrackPointExtension>
        </extensions>
      </trkpt>
      <trkpt lat="43.1353" lon="1.39204">
        <ele>336.2</ele>
        <time>2023-03-05T14:37:37Z</time>
        <extensions>
          <gpxtpx:TrackPointExtension xmlns:gpxtpx="http://www.garmin.com/xmlschemas/TrackPointExtension/v1">
            <gpxtpx:hr>94</gpxtpx:hr>
          </gpxtpx:TrackPointExtension>
        </extensions>
      </trkpt>
      <trkpt lat="43.13535" lon="1.39202">
        <ele>335.6</ele>
        <time>2023-03-05T14:37:38Z</time>
        <extensions>
          <gpxtpx:TrackPointExtension xmlns:gpxtpx="http://www.garmin.com/xmlschemas/TrackPointExtension/v1">
            <gpxtpx:hr>94</gpxtpx:hr>
          </gpxtpx:TrackPointExtension>
        </extensions>
      </trkpt>
      <trkpt lat="43.1354" lon="1.392">
        <ele>335.2</ele>
        <time>2023-03-05T14:37:39Z</time>
        <extensions>
          <gpxtpx:TrackPointExtension xmlns:gpxtpx="http://www.garmin.com/xmlschemas/TrackPointExtension/v1">
            <gpxtpx:hr>94</gpxtpx:hr>
          </gpxtpx:TrackPointExtension>
        </extensions>
      </trkpt>
      <trkpt lat="43.13544" lon="1.39198">
        <ele>334.8</ele>
        <time>2023-03-05T14:37:40Z</time>
        <extensions>
          <gpxtpx:TrackPointExtension xmlns:gpxtpx="http://www.garmin.com/xmlschemas/TrackPointExtension/v1">
            <gpxtpx:hr>94</gpxtpx:hr>
          </gpxtpx:TrackPointExtension>
        </extensions>
      </trkpt>
      <trkpt lat="43.1355" lon="1.39197">
        <ele>334.2</ele>
        <time>2023-03-05T14:37:41Z</time>
        <extensions>
          <gpxtpx:TrackPointExtension xmlns:gpxtpx="http://www.garmin.com/xmlschemas/TrackPointExtension/v1">
            <gpxtpx:hr>94</gpxtpx:hr>
          </gpxtpx:TrackPointExtension>
        </extensions>
      </trkpt>
      <trkpt lat="43.13554" lon="1.39195">
        <ele>333.8</ele>
        <time>2023-03-05T14:37:42Z</time>
        <extensions>
          <gpxtpx:TrackPointExtension xmlns:gpxtpx="http://www.garmin.com/xmlschemas/TrackPointExtension/v1">
            <gpxtpx:hr>94</gpxtpx:hr>
          </gpxtpx:TrackPointExtension>
        </extensions>
      </trkpt>
      <trkpt lat="43.13569" lon="1.39191">
        <ele>333.8</ele>
        <time>2023-03-05T14:37:45Z</time>
        <extensions>
          <gpxtpx:TrackPointExtension xmlns:gpxtpx="http://www.garmin.com/xmlschemas/TrackPointExtension/v1">
            <gpxtpx:hr>94</gpxtpx:hr>
          </gpxtpx:TrackPointExtension>
        </extensions>
      </trkpt>
      <trkpt lat="43.13574" lon="1.39189">
        <ele>333.8</ele>
        <time>2023-03-05T14:37:46Z</time>
        <extensions>
          <gpxtpx:TrackPointExtension xmlns:gpxtpx="http://www.garmin.com/xmlschemas/TrackPointExtension/v1">
            <gpxtpx:hr>94</gpxtpx:hr>
          </gpxtpx:TrackPointExtension>
        </extensions>
      </trkpt>
      <trkpt lat="43.13589" lon="1.3919">
        <ele>333.4</ele>
        <time>2023-03-05T14:37:49Z</time>
        <extensions>
          <gpxtpx:TrackPointExtension xmlns:gpxtpx="http://www.garmin.com/xmlschemas/TrackPointExtension/v1">
            <gpxtpx:hr>94</gpxtpx:hr>
          </gpxtpx:TrackPointExtension>
        </extensions>
      </trkpt>
      <trkpt lat="43.13595" lon="1.39191">
        <ele>333</ele>
        <time>2023-03-05T14:37:50Z</time>
        <extensions>
          <gpxtpx:TrackPointExtension xmlns:gpxtpx="http://www.garmin.com/xmlschemas/TrackPointExtension/v1">
            <gpxtpx:hr>94</gpxtpx:hr>
          </gpxtpx:TrackPointExtension>
        </extensions>
      </trkpt>
      <trkpt lat="43.136" lon="1.39192">
        <ele>332.6</ele>
        <time>2023-03-05T14:37:51Z</time>
        <extensions>
          <gpxtpx:TrackPointExtension xmlns:gpxtpx="http://www.garmin.com/xmlschemas/TrackPointExtension/v1">
            <gpxtpx:hr>89</gpxtpx:hr>
          </gpxtpx:TrackPointExtension>
        </extensions>
      </trkpt>
      <trkpt lat="43.13605" lon="1.39193">
        <ele>332</ele>
        <time>2023-03-05T14:37:52Z</time>
        <extensions>
          <gpxtpx:TrackPointExtension xmlns:gpxtpx="http://www.garmin.com/xmlschemas/TrackPointExtension/v1">
            <gpxtpx:hr>89</gpxtpx:hr>
          </gpxtpx:TrackPointExtension>
        </extensions>
      </trkpt>
      <trkpt lat="43.13609" lon="1.39194">
        <ele>331.6</ele>
        <time>2023-03-05T14:37:53Z</time>
        <extensions>
          <gpxtpx:TrackPointExtension xmlns:gpxtpx="http://www.garmin.com/xmlschemas/TrackPointExtension/v1">
            <gpxtpx:hr>89</gpxtpx:hr>
          </gpxtpx:TrackPointExtension>
        </extensions>
      </trkpt>
      <trkpt lat="43.13618" lon="1.39195">
        <ele>331.6</ele>
        <time>2023-03-05T14:37:55Z</time>
        <extensions>
          <gpxtpx:TrackPointExtension xmlns:gpxtpx="http://www.garmin.com/xmlschemas/TrackPointExtension/v1">
            <gpxtpx:hr>89</gpxtpx:hr>
          </gpxtpx:TrackPointExtension>
        </extensions>
      </trkpt>
      <trkpt lat="43.13623" lon="1.39195">
        <ele>331.6</ele>
        <time>2023-03-05T14:37:56Z</time>
        <extensions>
          <gpxtpx:TrackPointExtension xmlns:gpxtpx="http://www.garmin.com/xmlschemas/TrackPointExtension/v1">
            <gpxtpx:hr>89</gpxtpx:hr>
          </gpxtpx:TrackPointExtension>
        </extensions>
      </trkpt>
      <trkpt lat="43.13632" lon="1.39196">
        <ele>331.2</ele>
        <time>2023-03-05T14:37:58Z</time>
        <extensions>
          <gpxtpx:TrackPointExtension xmlns:gpxtpx="http://www.garmin.com/xmlschemas/TrackPointExtension/v1">
            <gpxtpx:hr>89</gpxtpx:hr>
          </gpxtpx:TrackPointExtension>
        </extensions>
      </trkpt>
      <trkpt lat="43.13636" lon="1.39196">
        <ele>330.8</ele>
        <time>2023-03-05T14:37:59Z</time>
        <extensions>
          <gpxtpx:TrackPointExtension xmlns:gpxtpx="http://www.garmin.com/xmlschemas/TrackPointExtension/v1">
            <gpxtpx:hr>89</gpxtpx:hr>
          </gpxtpx:TrackPointExtension>
        </extensions>
      </trkpt>
      <trkpt lat="43.13642" lon="1.39197">
        <ele>330.4</ele>
        <time>2023-03-05T14:38:00Z</time>
        <extensions>
          <gpxtpx:TrackPointExtension xmlns:gpxtpx="http://www.garmin.com/xmlschemas/TrackPointExtension/v1">
            <gpxtpx:hr>89</gpxtpx:hr>
          </gpxtpx:TrackPointExtension>
        </extensions>
      </trkpt>
      <trkpt lat="43.13647" lon="1.39197">
        <ele>330</ele>
        <time>2023-03-05T14:38:01Z</time>
        <extensions>
          <gpxtpx:TrackPointExtension xmlns:gpxtpx="http://www.garmin.com/xmlschemas/TrackPointExtension/v1">
            <gpxtpx:hr>89</gpxtpx:hr>
          </gpxtpx:TrackPointExtension>
        </extensions>
      </trkpt>
      <trkpt lat="43.13652" lon="1.39197">
        <ele>329.6</ele>
        <time>2023-03-05T14:38:02Z</time>
        <extensions>
          <gpxtpx:TrackPointExtension xmlns:gpxtpx="http://www.garmin.com/xmlschemas/TrackPointExtension/v1">
            <gpxtpx:hr>89</gpxtpx:hr>
          </gpxtpx:TrackPointExtension>
        </extensions>
      </trkpt>
      <trkpt lat="43.13663" lon="1.39199">
        <ele>329.6</ele>
        <time>2023-03-05T14:38:04Z</time>
        <extensions>
          <gpxtpx:TrackPointExtension xmlns:gpxtpx="http://www.garmin.com/xmlschemas/TrackPointExtension/v1">
            <gpxtpx:hr>89</gpxtpx:hr>
          </gpxtpx:TrackPointExtension>
        </extensions>
      </trkpt>
      <trkpt lat="43.13673" lon="1.39203">
        <ele>329.6</ele>
        <time>2023-03-05T14:38:06Z</time>
        <extensions>
          <gpxtpx:TrackPointExtension xmlns:gpxtpx="http://www.garmin.com/xmlschemas/TrackPointExtension/v1">
            <gpxtpx:hr>92</gpxtpx:hr>
          </gpxtpx:TrackPointExtension>
        </extensions>
      </trkpt>
      <trkpt lat="43.13678" lon="1.39206">
        <ele>329.2</ele>
        <time>2023-03-05T14:38:07Z</time>
        <extensions>
          <gpxtpx:TrackPointExtension xmlns:gpxtpx="http://www.garmin.com/xmlschemas/TrackPointExtension/v1">
            <gpxtpx:hr>92</gpxtpx:hr>
          </gpxtpx:TrackPointExtension>
        </extensions>
      </trkpt>
      <trkpt lat="43.13683" lon="1.3921">
        <ele>328.8</ele>
        <time>2023-03-05T14:38:08Z</time>
        <extensions>
          <gpxtpx:TrackPointExtension xmlns:gpxtpx="http://www.garmin.com/xmlschemas/TrackPointExtension/v1">
            <gpxtpx:hr>92</gpxtpx:hr>
          </gpxtpx:TrackPointExtension>
        </extensions>
      </trkpt>
      <trkpt lat="43.13687" lon="1.39214">
        <ele>328.4</ele>
        <time>2023-03-05T14:38:09Z</time>
        <extensions>
          <gpxtpx:TrackPointExtension xmlns:gpxtpx="http://www.garmin.com/xmlschemas/TrackPointExtension/v1">
            <gpxtpx:hr>92</gpxtpx:hr>
          </gpxtpx:TrackPointExtension>
        </extensions>
      </trkpt>
      <trkpt lat="43.13692" lon="1.39218">
        <ele>327.8</ele>
        <time>2023-03-05T14:38:10Z</time>
        <extensions>
          <gpxtpx:TrackPointExtension xmlns:gpxtpx="http://www.garmin.com/xmlschemas/TrackPointExtension/v1">
            <gpxtpx:hr>92</gpxtpx:hr>
          </gpxtpx:TrackPointExtension>
        </extensions>
      </trkpt>
      <trkpt lat="43.13696" lon="1.39222">
        <ele>327.4</ele>
        <time>2023-03-05T14:38:11Z</time>
        <extensions>
          <gpxtpx:TrackPointExtension xmlns:gpxtpx="http://www.garmin.com/xmlschemas/TrackPointExtension/v1">
            <gpxtpx:hr>92</gpxtpx:hr>
          </gpxtpx:TrackPointExtension>
        </extensions>
      </trkpt>
      <trkpt lat="43.137" lon="1.39225">
        <ele>327.4</ele>
        <time>2023-03-05T14:38:12Z</time>
        <extensions>
          <gpxtpx:TrackPointExtension xmlns:gpxtpx="http://www.garmin.com/xmlschemas/TrackPointExtension/v1">
            <gpxtpx:hr>92</gpxtpx:hr>
          </gpxtpx:TrackPointExtension>
        </extensions>
      </trkpt>
      <trkpt lat="43.13722" lon="1.39239">
        <ele>327.4</ele>
        <time>2023-03-05T14:38:18Z</time>
        <extensions>
          <gpxtpx:TrackPointExtension xmlns:gpxtpx="http://www.garmin.com/xmlschemas/TrackPointExtension/v1">
            <gpxtpx:hr>92</gpxtpx:hr>
          </gpxtpx:TrackPointExtension>
        </extensions>
      </trkpt>
      <trkpt lat="43.13742" lon="1.39242">
        <ele>327.4</ele>
        <time>2023-03-05T14:38:25Z</time>
        <extensions>
          <gpxtpx:TrackPointExtension xmlns:gpxtpx="http://www.garmin.com/xmlschemas/TrackPointExtension/v1">
            <gpxtpx:hr>92</gpxtpx:hr>
          </gpxtpx:TrackPointExtension>
        </extensions>
      </trkpt>
      <trkpt lat="43.13761" lon="1.3924">
        <ele>327.4</ele>
        <time>2023-03-05T14:38:31Z</time>
        <extensions>
          <gpxtpx:TrackPointExtension xmlns:gpxtpx="http://www.garmin.com/xmlschemas/TrackPointExtension/v1">
            <gpxtpx:hr>92</gpxtpx:hr>
          </gpxtpx:TrackPointExtension>
        </extensions>
      </trkpt>
      <trkpt lat="43.13785" lon="1.39239">
        <ele>327.4</ele>
        <time>2023-03-05T14:38:38Z</time>
        <extensions>
          <gpxtpx:TrackPointExtension xmlns:gpxtpx="http://www.garmin.com/xmlschemas/TrackPointExtension/v1">
            <gpxtpx:hr>92</gpxtpx:hr>
          </gpxtpx:TrackPointExtension>
        </extensions>
      </trkpt>
      <trkpt lat="43.13796" lon="1.39239">
        <ele>327.4</ele>
        <time>2023-03-05T14:38:41Z</time>
        <extensions>
          <gpxtpx:TrackPointExtension xmlns:gpxtpx="http://www.garmin.com/xmlschemas/TrackPointExtension/v1">
            <gpxtpx:hr>87</gpxtpx:hr>
          </gpxtpx:TrackPointExtension>
        </extensions>
      </trkpt>
      <trkpt lat="43.138" lon="1.39239">
        <ele>327.4</ele>
        <time>2023-03-05T14:38:42Z</time>
        <extensions>
          <gpxtpx:TrackPointExtension xmlns:gpxtpx="http://www.garmin.com/xmlschemas/TrackPointExtension/v1">
            <gpxtpx:hr>87</gpxtpx:hr>
          </gpxtpx:TrackPointExtension>
        </extensions>
      </trkpt>
      <trkpt lat="43.13812" lon="1.39239">
        <ele>327.4</ele>
        <time>2023-03-05T14:38:45Z</time>
        <extensions>
          <gpxtpx:TrackPointExtension xmlns:gpxtpx="http://www.garmin.com/xmlschemas/TrackPointExtension/v1">
            <gpxtpx:hr>87</gpxtpx:hr>
          </gpxtpx:TrackPointExtension>
        </extensions>
      </trkpt>
      <trkpt lat="43.13836" lon="1.39242">
        <ele>327.4</ele>
        <time>2023-03-05T14:38:50Z</time>
        <extensions>
          <gpxtpx:TrackPointExtension xmlns:gpxtpx="http://www.garmin.com/xmlschemas/TrackPointExtension/v1">
            <gpxtpx:hr>90</gpxtpx:hr>
          </gpxtpx:TrackPointExtension>
        </extensions>
      </trkpt>
      <trkpt lat="43.13841" lon="1.39243">
        <ele>327.4</ele>
        <time>2023-03-05T14:38:51Z</time>
        <extensions>
          <gpxtpx:TrackPointExtension xmlns:gpxtpx="http://www.garmin.com/xmlschemas/TrackPointExtension/v1">
            <gpxtpx:hr>93</gpxtpx:hr>
          </gpxtpx:TrackPointExtension>
        </extensions>
      </trkpt>
      <trkpt lat="43.13846" lon="1.39244">
        <ele>327.4</ele>
        <time>2023-03-05T14:38:52Z</time>
        <extensions>
          <gpxtpx:TrackPointExtension xmlns:gpxtpx="http://www.garmin.com/xmlschemas/TrackPointExtension/v1">
            <gpxtpx:hr>93</gpxtpx:hr>
          </gpxtpx:TrackPointExtension>
        </extensions>
      </trkpt>
      <trkpt lat="43.13856" lon="1.39244">
        <ele>327.4</ele>
        <time>2023-03-05T14:38:54Z</time>
        <extensions>
          <gpxtpx:TrackPointExtension xmlns:gpxtpx="http://www.garmin.com/xmlschemas/TrackPointExtension/v1">
            <gpxtpx:hr>93</gpxtpx:hr>
          </gpxtpx:TrackPointExtension>
        </extensions>
      </trkpt>
      <trkpt lat="43.1387" lon="1.39242">
        <ele>327.4</ele>
        <time>2023-03-05T14:38:57Z</time>
        <extensions>
          <gpxtpx:TrackPointExtension xmlns:gpxtpx="http://www.garmin.com/xmlschemas/TrackPointExtension/v1">
            <gpxtpx:hr>93</gpxtpx:hr>
          </gpxtpx:TrackPointExtension>
        </extensions>
      </trkpt>
      <trkpt lat="43.13902" lon="1.39233">
        <ele>327.4</ele>
        <time>2023-03-05T14:39:04Z</time>
        <extensions>
          <gpxtpx:TrackPointExtension xmlns:gpxtpx="http://www.garmin.com/xmlschemas/TrackPointExtension/v1">
            <gpxtpx:hr>93</gpxtpx:hr>
          </gpxtpx:TrackPointExtension>
        </extensions>
      </trkpt>
      <trkpt lat="43.13911" lon="1.39232">
        <ele>327.4</ele>
        <time>2023-03-05T14:39:06Z</time>
        <extensions>
          <gpxtpx:TrackPointExtension xmlns:gpxtpx="http://www.garmin.com/xmlschemas/TrackPointExtension/v1">
            <gpxtpx:hr>93</gpxtpx:hr>
          </gpxtpx:TrackPointExtension>
        </extensions>
      </trkpt>
      <trkpt lat="43.13928" lon="1.39232">
        <ele>327.4</ele>
        <time>2023-03-05T14:39:10Z</time>
        <extensions>
          <gpxtpx:TrackPointExtension xmlns:gpxtpx="http://www.garmin.com/xmlschemas/TrackPointExtension/v1">
            <gpxtpx:hr>88</gpxtpx:hr>
          </gpxtpx:TrackPointExtension>
        </extensions>
      </trkpt>
      <trkpt lat="43.13932" lon="1.39232">
        <ele>327.4</ele>
        <time>2023-03-05T14:39:11Z</time>
        <extensions>
          <gpxtpx:TrackPointExtension xmlns:gpxtpx="http://www.garmin.com/xmlschemas/TrackPointExtension/v1">
            <gpxtpx:hr>88</gpxtpx:hr>
          </gpxtpx:TrackPointExtension>
        </extensions>
      </trkpt>
      <trkpt lat="43.13936" lon="1.39232">
        <ele>327.4</ele>
        <time>2023-03-05T14:39:12Z</time>
        <extensions>
          <gpxtpx:TrackPointExtension xmlns:gpxtpx="http://www.garmin.com/xmlschemas/TrackPointExtension/v1">
            <gpxtpx:hr>88</gpxtpx:hr>
          </gpxtpx:TrackPointExtension>
        </extensions>
      </trkpt>
      <trkpt lat="43.13961" lon="1.39229">
        <ele>327.4</ele>
        <time>2023-03-05T14:39:17Z</time>
        <extensions>
          <gpxtpx:TrackPointExtension xmlns:gpxtpx="http://www.garmin.com/xmlschemas/TrackPointExtension/v1">
            <gpxtpx:hr>88</gpxtpx:hr>
          </gpxtpx:TrackPointExtension>
        </extensions>
      </trkpt>
      <trkpt lat="43.13996" lon="1.39223">
        <ele>327</ele>
        <time>2023-03-05T14:39:23Z</time>
        <extensions>
          <gpxtpx:TrackPointExtension xmlns:gpxtpx="http://www.garmin.com/xmlschemas/TrackPointExtension/v1">
            <gpxtpx:hr>88</gpxtpx:hr>
          </gpxtpx:TrackPointExtension>
        </extensions>
      </trkpt>
      <trkpt lat="43.14002" lon="1.39221">
        <ele>326.6</ele>
        <time>2023-03-05T14:39:24Z</time>
        <extensions>
          <gpxtpx:TrackPointExtension xmlns:gpxtpx="http://www.garmin.com/xmlschemas/TrackPointExtension/v1">
            <gpxtpx:hr>88</gpxtpx:hr>
          </gpxtpx:TrackPointExtension>
        </extensions>
      </trkpt>
      <trkpt lat="43.14007" lon="1.3922">
        <ele>326.2</ele>
        <time>2023-03-05T14:39:25Z</time>
      </trkpt>
      <trkpt lat="43.14013" lon="1.39219">
        <ele>325.8</ele>
        <time>2023-03-05T14:39:26Z</time>
      </trkpt>
      <trkpt lat="43.14018" lon="1.39218">
        <ele>325.4</ele>
        <time>2023-03-05T14:39:27Z</time>
      </trkpt>
      <trkpt lat="43.14029" lon="1.39218">
        <ele>325.4</ele>
        <time>2023-03-05T14:39:29Z</time>
        <extensions>
          <gpxtpx:TrackPointExtension xmlns:gpxtpx="http://www.garmin.com/xmlschemas/TrackPointExtension/v1">
            <gpxtpx:hr>88</gpxtpx:hr>
          </gpxtpx:TrackPointExtension>
        </extensions>
      </trkpt>
      <trkpt lat="43.14035" lon="1.39219">
        <ele>325.4</ele>
        <time>2023-03-05T14:39:30Z</time>
        <extensions>
          <gpxtpx:TrackPointExtension xmlns:gpxtpx="http://www.garmin.com/xmlschemas/TrackPointExtension/v1">
            <gpxtpx:hr>88</gpxtpx:hr>
          </gpxtpx:TrackPointExtension>
        </extensions>
      </trkpt>
      <trkpt lat="43.14046" lon="1.39221">
        <ele>325.4</ele>
        <time>2023-03-05T14:39:32Z</time>
        <extensions>
          <gpxtpx:TrackPointExtension xmlns:gpxtpx="http://www.garmin.com/xmlschemas/TrackPointExtension/v1">
            <gpxtpx:hr>91</gpxtpx:hr>
          </gpxtpx:TrackPointExtension>
        </extensions>
      </trkpt>
      <trkpt lat="43.14058" lon="1.39223">
        <ele>325.4</ele>
        <time>2023-03-05T14:39:34Z</time>
        <extensions>
          <gpxtpx:TrackPointExtension xmlns:gpxtpx="http://www.garmin.com/xmlschemas/TrackPointExtension/v1">
            <gpxtpx:hr>94</gpxtpx:hr>
          </gpxtpx:TrackPointExtension>
        </extensions>
      </trkpt>
      <trkpt lat="43.14086" lon="1.39229">
        <ele>325.4</ele>
        <time>2023-03-05T14:39:39Z</time>
        <extensions>
          <gpxtpx:TrackPointExtension xmlns:gpxtpx="http://www.garmin.com/xmlschemas/TrackPointExtension/v1">
            <gpxtpx:hr>94</gpxtpx:hr>
          </gpxtpx:TrackPointExtension>
        </extensions>
      </trkpt>
      <trkpt lat="43.14121" lon="1.39235">
        <ele>325</ele>
        <time>2023-03-05T14:39:45Z</time>
        <extensions>
          <gpxtpx:TrackPointExtension xmlns:gpxtpx="http://www.garmin.com/xmlschemas/TrackPointExtension/v1">
            <gpxtpx:hr>94</gpxtpx:hr>
          </gpxtpx:TrackPointExtension>
        </extensions>
      </trkpt>
      <trkpt lat="43.14127" lon="1.39234">
        <ele>324.6</ele>
        <time>2023-03-05T14:39:46Z</time>
        <extensions>
          <gpxtpx:TrackPointExtension xmlns:gpxtpx="http://www.garmin.com/xmlschemas/TrackPointExtension/v1">
            <gpxtpx:hr>94</gpxtpx:hr>
          </gpxtpx:TrackPointExtension>
        </extensions>
      </trkpt>
      <trkpt lat="43.14132" lon="1.39233">
        <ele>324.2</ele>
        <time>2023-03-05T14:39:47Z</time>
        <extensions>
          <gpxtpx:TrackPointExtension xmlns:gpxtpx="http://www.garmin.com/xmlschemas/TrackPointExtension/v1">
            <gpxtpx:hr>94</gpxtpx:hr>
          </gpxtpx:TrackPointExtension>
        </extensions>
      </trkpt>
      <trkpt lat="43.14137" lon="1.3923">
        <ele>323.8</ele>
        <time>2023-03-05T14:39:48Z</time>
        <extensions>
          <gpxtpx:TrackPointExtension xmlns:gpxtpx="http://www.garmin.com/xmlschemas/TrackPointExtension/v1">
            <gpxtpx:hr>94</gpxtpx:hr>
          </gpxtpx:TrackPointExtension>
        </extensions>
      </trkpt>
      <trkpt lat="43.14142" lon="1.39227">
        <ele>323.2</ele>
        <time>2023-03-05T14:39:49Z</time>
        <extensions>
          <gpxtpx:TrackPointExtension xmlns:gpxtpx="http://www.garmin.com/xmlschemas/TrackPointExtension/v1">
            <gpxtpx:hr>94</gpxtpx:hr>
          </gpxtpx:TrackPointExtension>
        </extensions>
      </trkpt>
      <trkpt lat="43.14147" lon="1.39222">
        <ele>323.2</ele>
        <time>2023-03-05T14:39:50Z</time>
        <extensions>
          <gpxtpx:TrackPointExtension xmlns:gpxtpx="http://www.garmin.com/xmlschemas/TrackPointExtension/v1">
            <gpxtpx:hr>94</gpxtpx:hr>
          </gpxtpx:TrackPointExtension>
        </extensions>
      </trkpt>
      <trkpt lat="43.14152" lon="1.39217">
        <ele>323.2</ele>
        <time>2023-03-05T14:39:51Z</time>
        <extensions>
          <gpxtpx:TrackPointExtension xmlns:gpxtpx="http://www.garmin.com/xmlschemas/TrackPointExtension/v1">
            <gpxtpx:hr>94</gpxtpx:hr>
          </gpxtpx:TrackPointExtension>
        </extensions>
      </trkpt>
      <trkpt lat="43.14165" lon="1.39205">
        <ele>323.2</ele>
        <time>2023-03-05T14:39:54Z</time>
        <extensions>
          <gpxtpx:TrackPointExtension xmlns:gpxtpx="http://www.garmin.com/xmlschemas/TrackPointExtension/v1">
            <gpxtpx:hr>96</gpxtpx:hr>
          </gpxtpx:TrackPointExtension>
        </extensions>
      </trkpt>
      <trkpt lat="43.14175" lon="1.39197">
        <ele>323.2</ele>
        <time>2023-03-05T14:39:56Z</time>
        <extensions>
          <gpxtpx:TrackPointExtension xmlns:gpxtpx="http://www.garmin.com/xmlschemas/TrackPointExtension/v1">
            <gpxtpx:hr>96</gpxtpx:hr>
          </gpxtpx:TrackPointExtension>
        </extensions>
      </trkpt>
      <trkpt lat="43.14181" lon="1.39195">
        <ele>322.8</ele>
        <time>2023-03-05T14:39:57Z</time>
        <extensions>
          <gpxtpx:TrackPointExtension xmlns:gpxtpx="http://www.garmin.com/xmlschemas/TrackPointExtension/v1">
            <gpxtpx:hr>96</gpxtpx:hr>
          </gpxtpx:TrackPointExtension>
        </extensions>
      </trkpt>
      <trkpt lat="43.14186" lon="1.39192">
        <ele>322</ele>
        <time>2023-03-05T14:39:58Z</time>
        <extensions>
          <gpxtpx:TrackPointExtension xmlns:gpxtpx="http://www.garmin.com/xmlschemas/TrackPointExtension/v1">
            <gpxtpx:hr>96</gpxtpx:hr>
          </gpxtpx:TrackPointExtension>
        </extensions>
      </trkpt>
      <trkpt lat="43.14191" lon="1.3919">
        <ele>321.6</ele>
        <time>2023-03-05T14:39:59Z</time>
        <extensions>
          <gpxtpx:TrackPointExtension xmlns:gpxtpx="http://www.garmin.com/xmlschemas/TrackPointExtension/v1">
            <gpxtpx:hr>96</gpxtpx:hr>
          </gpxtpx:TrackPointExtension>
        </extensions>
      </trkpt>
      <trkpt lat="43.14197" lon="1.39187">
        <ele>321.2</ele>
        <time>2023-03-05T14:40:00Z</time>
        <extensions>
          <gpxtpx:TrackPointExtension xmlns:gpxtpx="http://www.garmin.com/xmlschemas/TrackPointExtension/v1">
            <gpxtpx:hr>96</gpxtpx:hr>
          </gpxtpx:TrackPointExtension>
        </extensions>
      </trkpt>
      <trkpt lat="43.14207" lon="1.39181">
        <ele>321.2</ele>
        <time>2023-03-05T14:40:02Z</time>
        <extensions>
          <gpxtpx:TrackPointExtension xmlns:gpxtpx="http://www.garmin.com/xmlschemas/TrackPointExtension/v1">
            <gpxtpx:hr>97</gpxtpx:hr>
          </gpxtpx:TrackPointExtension>
        </extensions>
      </trkpt>
      <trkpt lat="43.14245" lon="1.39168">
        <ele>321.2</ele>
        <time>2023-03-05T14:40:10Z</time>
        <extensions>
          <gpxtpx:TrackPointExtension xmlns:gpxtpx="http://www.garmin.com/xmlschemas/TrackPointExtension/v1">
            <gpxtpx:hr>98</gpxtpx:hr>
          </gpxtpx:TrackPointExtension>
        </extensions>
      </trkpt>
      <trkpt lat="43.14271" lon="1.39172">
        <ele>321.2</ele>
        <time>2023-03-05T14:40:15Z</time>
        <extensions>
          <gpxtpx:TrackPointExtension xmlns:gpxtpx="http://www.garmin.com/xmlschemas/TrackPointExtension/v1">
            <gpxtpx:hr>98</gpxtpx:hr>
          </gpxtpx:TrackPointExtension>
        </extensions>
      </trkpt>
      <trkpt lat="43.14276" lon="1.39173">
        <ele>321.2</ele>
        <time>2023-03-05T14:40:16Z</time>
        <extensions>
          <gpxtpx:TrackPointExtension xmlns:gpxtpx="http://www.garmin.com/xmlschemas/TrackPointExtension/v1">
            <gpxtpx:hr>98</gpxtpx:hr>
          </gpxtpx:TrackPointExtension>
        </extensions>
      </trkpt>
      <trkpt lat="43.14301" lon="1.3918">
        <ele>321.2</ele>
        <time>2023-03-05T14:40:21Z</time>
        <extensions>
          <gpxtpx:TrackPointExtension xmlns:gpxtpx="http://www.garmin.com/xmlschemas/TrackPointExtension/v1">
            <gpxtpx:hr>100</gpxtpx:hr>
          </gpxtpx:TrackPointExtension>
        </extensions>
      </trkpt>
      <trkpt lat="43.14324" lon="1.39185">
        <ele>321.6</ele>
        <time>2023-03-05T14:40:26Z</time>
        <extensions>
          <gpxtpx:TrackPointExtension xmlns:gpxtpx="http://www.garmin.com/xmlschemas/TrackPointExtension/v1">
            <gpxtpx:hr>100</gpxtpx:hr>
          </gpxtpx:TrackPointExtension>
        </extensions>
      </trkpt>
      <trkpt lat="43.14328" lon="1.39187">
        <ele>322</ele>
        <time>2023-03-05T14:40:27Z</time>
        <extensions>
          <gpxtpx:TrackPointExtension xmlns:gpxtpx="http://www.garmin.com/xmlschemas/TrackPointExtension/v1">
            <gpxtpx:hr>100</gpxtpx:hr>
          </gpxtpx:TrackPointExtension>
        </extensions>
      </trkpt>
      <trkpt lat="43.14333" lon="1.39188">
        <ele>322.4</ele>
        <time>2023-03-05T14:40:28Z</time>
        <extensions>
          <gpxtpx:TrackPointExtension xmlns:gpxtpx="http://www.garmin.com/xmlschemas/TrackPointExtension/v1">
            <gpxtpx:hr>94</gpxtpx:hr>
          </gpxtpx:TrackPointExtension>
        </extensions>
      </trkpt>
      <trkpt lat="43.14338" lon="1.3919">
        <ele>322.8</ele>
        <time>2023-03-05T14:40:29Z</time>
        <extensions>
          <gpxtpx:TrackPointExtension xmlns:gpxtpx="http://www.garmin.com/xmlschemas/TrackPointExtension/v1">
            <gpxtpx:hr>94</gpxtpx:hr>
          </gpxtpx:TrackPointExtension>
        </extensions>
      </trkpt>
      <trkpt lat="43.14343" lon="1.39191">
        <ele>323.2</ele>
        <time>2023-03-05T14:40:30Z</time>
        <extensions>
          <gpxtpx:TrackPointExtension xmlns:gpxtpx="http://www.garmin.com/xmlschemas/TrackPointExtension/v1">
            <gpxtpx:hr>97</gpxtpx:hr>
          </gpxtpx:TrackPointExtension>
        </extensions>
      </trkpt>
      <trkpt lat="43.14349" lon="1.39193">
        <ele>323.2</ele>
        <time>2023-03-05T14:40:31Z</time>
        <extensions>
          <gpxtpx:TrackPointExtension xmlns:gpxtpx="http://www.garmin.com/xmlschemas/TrackPointExtension/v1">
            <gpxtpx:hr>101</gpxtpx:hr>
          </gpxtpx:TrackPointExtension>
        </extensions>
      </trkpt>
      <trkpt lat="43.1436" lon="1.39197">
        <ele>323.2</ele>
        <time>2023-03-05T14:40:33Z</time>
        <extensions>
          <gpxtpx:TrackPointExtension xmlns:gpxtpx="http://www.garmin.com/xmlschemas/TrackPointExtension/v1">
            <gpxtpx:hr>105</gpxtpx:hr>
          </gpxtpx:TrackPointExtension>
        </extensions>
      </trkpt>
      <trkpt lat="43.14365" lon="1.392">
        <ele>322.8</ele>
        <time>2023-03-05T14:40:34Z</time>
        <extensions>
          <gpxtpx:TrackPointExtension xmlns:gpxtpx="http://www.garmin.com/xmlschemas/TrackPointExtension/v1">
            <gpxtpx:hr>107</gpxtpx:hr>
          </gpxtpx:TrackPointExtension>
        </extensions>
      </trkpt>
      <trkpt lat="43.14371" lon="1.39202">
        <ele>322.4</ele>
        <time>2023-03-05T14:40:35Z</time>
        <extensions>
          <gpxtpx:TrackPointExtension xmlns:gpxtpx="http://www.garmin.com/xmlschemas/TrackPointExtension/v1">
            <gpxtpx:hr>107</gpxtpx:hr>
          </gpxtpx:TrackPointExtension>
        </extensions>
      </trkpt>
      <trkpt lat="43.14377" lon="1.39205">
        <ele>322</ele>
        <time>2023-03-05T14:40:36Z</time>
        <extensions>
          <gpxtpx:TrackPointExtension xmlns:gpxtpx="http://www.garmin.com/xmlschemas/TrackPointExtension/v1">
            <gpxtpx:hr>107</gpxtpx:hr>
          </gpxtpx:TrackPointExtension>
        </extensions>
      </trkpt>
      <trkpt lat="43.14383" lon="1.39208">
        <ele>321.6</ele>
        <time>2023-03-05T14:40:37Z</time>
        <extensions>
          <gpxtpx:TrackPointExtension xmlns:gpxtpx="http://www.garmin.com/xmlschemas/TrackPointExtension/v1">
            <gpxtpx:hr>107</gpxtpx:hr>
          </gpxtpx:TrackPointExtension>
        </extensions>
      </trkpt>
      <trkpt lat="43.14389" lon="1.39211">
        <ele>321.2</ele>
        <time>2023-03-05T14:40:38Z</time>
        <extensions>
          <gpxtpx:TrackPointExtension xmlns:gpxtpx="http://www.garmin.com/xmlschemas/TrackPointExtension/v1">
            <gpxtpx:hr>107</gpxtpx:hr>
          </gpxtpx:TrackPointExtension>
        </extensions>
      </trkpt>
      <trkpt lat="43.144" lon="1.39218">
        <ele>320.8</ele>
        <time>2023-03-05T14:40:40Z</time>
        <extensions>
          <gpxtpx:TrackPointExtension xmlns:gpxtpx="http://www.garmin.com/xmlschemas/TrackPointExtension/v1">
            <gpxtpx:hr>107</gpxtpx:hr>
          </gpxtpx:TrackPointExtension>
        </extensions>
      </trkpt>
      <trkpt lat="43.14406" lon="1.39221">
        <ele>320.4</ele>
        <time>2023-03-05T14:40:41Z</time>
        <extensions>
          <gpxtpx:TrackPointExtension xmlns:gpxtpx="http://www.garmin.com/xmlschemas/TrackPointExtension/v1">
            <gpxtpx:hr>107</gpxtpx:hr>
          </gpxtpx:TrackPointExtension>
        </extensions>
      </trkpt>
      <trkpt lat="43.14411" lon="1.39224">
        <ele>319.8</ele>
        <time>2023-03-05T14:40:42Z</time>
        <extensions>
          <gpxtpx:TrackPointExtension xmlns:gpxtpx="http://www.garmin.com/xmlschemas/TrackPointExtension/v1">
            <gpxtpx:hr>107</gpxtpx:hr>
          </gpxtpx:TrackPointExtension>
        </extensions>
      </trkpt>
      <trkpt lat="43.14417" lon="1.39227">
        <ele>319.4</ele>
        <time>2023-03-05T14:40:43Z</time>
        <extensions>
          <gpxtpx:TrackPointExtension xmlns:gpxtpx="http://www.garmin.com/xmlschemas/TrackPointExtension/v1">
            <gpxtpx:hr>107</gpxtpx:hr>
          </gpxtpx:TrackPointExtension>
        </extensions>
      </trkpt>
      <trkpt lat="43.14423" lon="1.3923">
        <ele>319</ele>
        <time>2023-03-05T14:40:44Z</time>
        <extensions>
          <gpxtpx:TrackPointExtension xmlns:gpxtpx="http://www.garmin.com/xmlschemas/TrackPointExtension/v1">
            <gpxtpx:hr>108</gpxtpx:hr>
          </gpxtpx:TrackPointExtension>
        </extensions>
      </trkpt>
      <trkpt lat="43.14434" lon="1.39235">
        <ele>319</ele>
        <time>2023-03-05T14:40:46Z</time>
        <extensions>
          <gpxtpx:TrackPointExtension xmlns:gpxtpx="http://www.garmin.com/xmlschemas/TrackPointExtension/v1">
            <gpxtpx:hr>108</gpxtpx:hr>
          </gpxtpx:TrackPointExtension>
        </extensions>
      </trkpt>
      <trkpt lat="43.14445" lon="1.39235">
        <ele>319</ele>
        <time>2023-03-05T14:40:48Z</time>
        <extensions>
          <gpxtpx:TrackPointExtension xmlns:gpxtpx="http://www.garmin.com/xmlschemas/TrackPointExtension/v1">
            <gpxtpx:hr>108</gpxtpx:hr>
          </gpxtpx:TrackPointExtension>
        </extensions>
      </trkpt>
      <trkpt lat="43.14467" lon="1.3923">
        <ele>319</ele>
        <time>2023-03-05T14:40:52Z</time>
        <extensions>
          <gpxtpx:TrackPointExtension xmlns:gpxtpx="http://www.garmin.com/xmlschemas/TrackPointExtension/v1">
            <gpxtpx:hr>109</gpxtpx:hr>
          </gpxtpx:TrackPointExtension>
        </extensions>
      </trkpt>
      <trkpt lat="43.14472" lon="1.39228">
        <ele>319.4</ele>
        <time>2023-03-05T14:40:53Z</time>
        <extensions>
          <gpxtpx:TrackPointExtension xmlns:gpxtpx="http://www.garmin.com/xmlschemas/TrackPointExtension/v1">
            <gpxtpx:hr>109</gpxtpx:hr>
          </gpxtpx:TrackPointExtension>
        </extensions>
      </trkpt>
      <trkpt lat="43.14476" lon="1.39226">
        <ele>319.8</ele>
        <time>2023-03-05T14:40:54Z</time>
        <extensions>
          <gpxtpx:TrackPointExtension xmlns:gpxtpx="http://www.garmin.com/xmlschemas/TrackPointExtension/v1">
            <gpxtpx:hr>109</gpxtpx:hr>
          </gpxtpx:TrackPointExtension>
        </extensions>
      </trkpt>
      <trkpt lat="43.14479" lon="1.39224">
        <ele>320.4</ele>
        <time>2023-03-05T14:40:55Z</time>
        <extensions>
          <gpxtpx:TrackPointExtension xmlns:gpxtpx="http://www.garmin.com/xmlschemas/TrackPointExtension/v1">
            <gpxtpx:hr>109</gpxtpx:hr>
          </gpxtpx:TrackPointExtension>
        </extensions>
      </trkpt>
      <trkpt lat="43.14481" lon="1.39221">
        <ele>320.8</ele>
        <time>2023-03-05T14:40:56Z</time>
        <extensions>
          <gpxtpx:TrackPointExtension xmlns:gpxtpx="http://www.garmin.com/xmlschemas/TrackPointExtension/v1">
            <gpxtpx:hr>110</gpxtpx:hr>
          </gpxtpx:TrackPointExtension>
        </extensions>
      </trkpt>
      <trkpt lat="43.14483" lon="1.3922">
        <ele>321.2</ele>
        <time>2023-03-05T14:40:57Z</time>
        <extensions>
          <gpxtpx:TrackPointExtension xmlns:gpxtpx="http://www.garmin.com/xmlschemas/TrackPointExtension/v1">
            <gpxtpx:hr>111</gpxtpx:hr>
          </gpxtpx:TrackPointExtension>
        </extensions>
      </trkpt>
      <trkpt lat="43.14488" lon="1.39218">
        <ele>321.8</ele>
        <time>2023-03-05T14:41:00Z</time>
        <extensions>
          <gpxtpx:TrackPointExtension xmlns:gpxtpx="http://www.garmin.com/xmlschemas/TrackPointExtension/v1">
            <gpxtpx:hr>113</gpxtpx:hr>
          </gpxtpx:TrackPointExtension>
        </extensions>
      </trkpt>
      <trkpt lat="43.1449" lon="1.39217">
        <ele>322.2</ele>
        <time>2023-03-05T14:41:01Z</time>
        <extensions>
          <gpxtpx:TrackPointExtension xmlns:gpxtpx="http://www.garmin.com/xmlschemas/TrackPointExtension/v1">
            <gpxtpx:hr>112</gpxtpx:hr>
          </gpxtpx:TrackPointExtension>
        </extensions>
      </trkpt>
      <trkpt lat="43.14492" lon="1.39216">
        <ele>322.6</ele>
        <time>2023-03-05T14:41:02Z</time>
        <extensions>
          <gpxtpx:TrackPointExtension xmlns:gpxtpx="http://www.garmin.com/xmlschemas/TrackPointExtension/v1">
            <gpxtpx:hr>112</gpxtpx:hr>
          </gpxtpx:TrackPointExtension>
        </extensions>
      </trkpt>
      <trkpt lat="43.14495" lon="1.39215">
        <ele>323</ele>
        <time>2023-03-05T14:41:03Z</time>
        <extensions>
          <gpxtpx:TrackPointExtension xmlns:gpxtpx="http://www.garmin.com/xmlschemas/TrackPointExtension/v1">
            <gpxtpx:hr>112</gpxtpx:hr>
          </gpxtpx:TrackPointExtension>
        </extensions>
      </trkpt>
      <trkpt lat="43.14498" lon="1.39215">
        <ele>323.6</ele>
        <time>2023-03-05T14:41:04Z</time>
        <extensions>
          <gpxtpx:TrackPointExtension xmlns:gpxtpx="http://www.garmin.com/xmlschemas/TrackPointExtension/v1">
            <gpxtpx:hr>112</gpxtpx:hr>
          </gpxtpx:TrackPointExtension>
        </extensions>
      </trkpt>
      <trkpt lat="43.14504" lon="1.39213">
        <ele>323.6</ele>
        <time>2023-03-05T14:41:06Z</time>
        <extensions>
          <gpxtpx:TrackPointExtension xmlns:gpxtpx="http://www.garmin.com/xmlschemas/TrackPointExtension/v1">
            <gpxtpx:hr>112</gpxtpx:hr>
          </gpxtpx:TrackPointExtension>
        </extensions>
      </trkpt>
      <trkpt lat="43.14508" lon="1.39213">
        <ele>324</ele>
        <time>2023-03-05T14:41:07Z</time>
        <extensions>
          <gpxtpx:TrackPointExtension xmlns:gpxtpx="http://www.garmin.com/xmlschemas/TrackPointExtension/v1">
            <gpxtpx:hr>112</gpxtpx:hr>
          </gpxtpx:TrackPointExtension>
        </extensions>
      </trkpt>
      <trkpt lat="43.14511" lon="1.39213">
        <ele>324.4</ele>
        <time>2023-03-05T14:41:08Z</time>
        <extensions>
          <gpxtpx:TrackPointExtension xmlns:gpxtpx="http://www.garmin.com/xmlschemas/TrackPointExtension/v1">
            <gpxtpx:hr>112</gpxtpx:hr>
          </gpxtpx:TrackPointExtension>
        </extensions>
      </trkpt>
      <trkpt lat="43.14514" lon="1.39212">
        <ele>325</ele>
        <time>2023-03-05T14:41:09Z</time>
        <extensions>
          <gpxtpx:TrackPointExtension xmlns:gpxtpx="http://www.garmin.com/xmlschemas/TrackPointExtension/v1">
            <gpxtpx:hr>112</gpxtpx:hr>
          </gpxtpx:TrackPointExtension>
        </extensions>
      </trkpt>
      <trkpt lat="43.14517" lon="1.39213">
        <ele>325.4</ele>
        <time>2023-03-05T14:41:10Z</time>
        <extensions>
          <gpxtpx:TrackPointExtension xmlns:gpxtpx="http://www.garmin.com/xmlschemas/TrackPointExtension/v1">
            <gpxtpx:hr>112</gpxtpx:hr>
          </gpxtpx:TrackPointExtension>
        </extensions>
      </trkpt>
      <trkpt lat="43.1452" lon="1.39213">
        <ele>325.8</ele>
        <time>2023-03-05T14:41:11Z</time>
        <extensions>
          <gpxtpx:TrackPointExtension xmlns:gpxtpx="http://www.garmin.com/xmlschemas/TrackPointExtension/v1">
            <gpxtpx:hr>112</gpxtpx:hr>
          </gpxtpx:TrackPointExtension>
        </extensions>
      </trkpt>
      <trkpt lat="43.14523" lon="1.39214">
        <ele>326.8</ele>
        <time>2023-03-05T14:41:12Z</time>
        <extensions>
          <gpxtpx:TrackPointExtension xmlns:gpxtpx="http://www.garmin.com/xmlschemas/TrackPointExtension/v1">
            <gpxtpx:hr>112</gpxtpx:hr>
          </gpxtpx:TrackPointExtension>
        </extensions>
      </trkpt>
      <trkpt lat="43.14526" lon="1.39215">
        <ele>327.2</ele>
        <time>2023-03-05T14:41:13Z</time>
        <extensions>
          <gpxtpx:TrackPointExtension xmlns:gpxtpx="http://www.garmin.com/xmlschemas/TrackPointExtension/v1">
            <gpxtpx:hr>112</gpxtpx:hr>
          </gpxtpx:TrackPointExtension>
        </extensions>
      </trkpt>
      <trkpt lat="43.14528" lon="1.39215">
        <ele>327.6</ele>
        <time>2023-03-05T14:41:14Z</time>
        <extensions>
          <gpxtpx:TrackPointExtension xmlns:gpxtpx="http://www.garmin.com/xmlschemas/TrackPointExtension/v1">
            <gpxtpx:hr>113</gpxtpx:hr>
          </gpxtpx:TrackPointExtension>
        </extensions>
      </trkpt>
      <trkpt lat="43.14531" lon="1.39216">
        <ele>328</ele>
        <time>2023-03-05T14:41:15Z</time>
        <extensions>
          <gpxtpx:TrackPointExtension xmlns:gpxtpx="http://www.garmin.com/xmlschemas/TrackPointExtension/v1">
            <gpxtpx:hr>113</gpxtpx:hr>
          </gpxtpx:TrackPointExtension>
        </extensions>
      </trkpt>
      <trkpt lat="43.14536" lon="1.39219">
        <ele>328.4</ele>
        <time>2023-03-05T14:41:17Z</time>
        <extensions>
          <gpxtpx:TrackPointExtension xmlns:gpxtpx="http://www.garmin.com/xmlschemas/TrackPointExtension/v1">
            <gpxtpx:hr>113</gpxtpx:hr>
          </gpxtpx:TrackPointExtension>
        </extensions>
      </trkpt>
      <trkpt lat="43.14539" lon="1.39221">
        <ele>328.8</ele>
        <time>2023-03-05T14:41:18Z</time>
        <extensions>
          <gpxtpx:TrackPointExtension xmlns:gpxtpx="http://www.garmin.com/xmlschemas/TrackPointExtension/v1">
            <gpxtpx:hr>113</gpxtpx:hr>
          </gpxtpx:TrackPointExtension>
        </extensions>
      </trkpt>
      <trkpt lat="43.14542" lon="1.39222">
        <ele>329.2</ele>
        <time>2023-03-05T14:41:19Z</time>
        <extensions>
          <gpxtpx:TrackPointExtension xmlns:gpxtpx="http://www.garmin.com/xmlschemas/TrackPointExtension/v1">
            <gpxtpx:hr>115</gpxtpx:hr>
          </gpxtpx:TrackPointExtension>
        </extensions>
      </trkpt>
      <trkpt lat="43.14544" lon="1.39224">
        <ele>329.6</ele>
        <time>2023-03-05T14:41:20Z</time>
        <extensions>
          <gpxtpx:TrackPointExtension xmlns:gpxtpx="http://www.garmin.com/xmlschemas/TrackPointExtension/v1">
            <gpxtpx:hr>117</gpxtpx:hr>
          </gpxtpx:TrackPointExtension>
        </extensions>
      </trkpt>
      <trkpt lat="43.14546" lon="1.39226">
        <ele>330.2</ele>
        <time>2023-03-05T14:41:21Z</time>
        <extensions>
          <gpxtpx:TrackPointExtension xmlns:gpxtpx="http://www.garmin.com/xmlschemas/TrackPointExtension/v1">
            <gpxtpx:hr>118</gpxtpx:hr>
          </gpxtpx:TrackPointExtension>
        </extensions>
      </trkpt>
      <trkpt lat="43.14551" lon="1.39234">
        <ele>330.6</ele>
        <time>2023-03-05T14:41:24Z</time>
        <extensions>
          <gpxtpx:TrackPointExtension xmlns:gpxtpx="http://www.garmin.com/xmlschemas/TrackPointExtension/v1">
            <gpxtpx:hr>119</gpxtpx:hr>
          </gpxtpx:TrackPointExtension>
        </extensions>
      </trkpt>
      <trkpt lat="43.14552" lon="1.39238">
        <ele>331</ele>
        <time>2023-03-05T14:41:25Z</time>
        <extensions>
          <gpxtpx:TrackPointExtension xmlns:gpxtpx="http://www.garmin.com/xmlschemas/TrackPointExtension/v1">
            <gpxtpx:hr>119</gpxtpx:hr>
          </gpxtpx:TrackPointExtension>
        </extensions>
      </trkpt>
      <trkpt lat="43.14554" lon="1.39241">
        <ele>331.4</ele>
        <time>2023-03-05T14:41:26Z</time>
        <extensions>
          <gpxtpx:TrackPointExtension xmlns:gpxtpx="http://www.garmin.com/xmlschemas/TrackPointExtension/v1">
            <gpxtpx:hr>120</gpxtpx:hr>
          </gpxtpx:TrackPointExtension>
        </extensions>
      </trkpt>
      <trkpt lat="43.14554" lon="1.39244">
        <ele>331.8</ele>
        <time>2023-03-05T14:41:27Z</time>
        <extensions>
          <gpxtpx:TrackPointExtension xmlns:gpxtpx="http://www.garmin.com/xmlschemas/TrackPointExtension/v1">
            <gpxtpx:hr>121</gpxtpx:hr>
          </gpxtpx:TrackPointExtension>
        </extensions>
      </trkpt>
      <trkpt lat="43.14555" lon="1.39248">
        <ele>332.2</ele>
        <time>2023-03-05T14:41:28Z</time>
        <extensions>
          <gpxtpx:TrackPointExtension xmlns:gpxtpx="http://www.garmin.com/xmlschemas/TrackPointExtension/v1">
            <gpxtpx:hr>121</gpxtpx:hr>
          </gpxtpx:TrackPointExtension>
        </extensions>
      </trkpt>
      <trkpt lat="43.14556" lon="1.39254">
        <ele>332.2</ele>
        <time>2023-03-05T14:41:30Z</time>
        <extensions>
          <gpxtpx:TrackPointExtension xmlns:gpxtpx="http://www.garmin.com/xmlschemas/TrackPointExtension/v1">
            <gpxtpx:hr>121</gpxtpx:hr>
          </gpxtpx:TrackPointExtension>
        </extensions>
      </trkpt>
      <trkpt lat="43.14556" lon="1.39257">
        <ele>332.6</ele>
        <time>2023-03-05T14:41:31Z</time>
        <extensions>
          <gpxtpx:TrackPointExtension xmlns:gpxtpx="http://www.garmin.com/xmlschemas/TrackPointExtension/v1">
            <gpxtpx:hr>121</gpxtpx:hr>
          </gpxtpx:TrackPointExtension>
        </extensions>
      </trkpt>
      <trkpt lat="43.14557" lon="1.39261">
        <ele>333.2</ele>
        <time>2023-03-05T14:41:32Z</time>
        <extensions>
          <gpxtpx:TrackPointExtension xmlns:gpxtpx="http://www.garmin.com/xmlschemas/TrackPointExtension/v1">
            <gpxtpx:hr>121</gpxtpx:hr>
          </gpxtpx:TrackPointExtension>
        </extensions>
      </trkpt>
      <trkpt lat="43.14557" lon="1.39265">
        <ele>333.6</ele>
        <time>2023-03-05T14:41:33Z</time>
        <extensions>
          <gpxtpx:TrackPointExtension xmlns:gpxtpx="http://www.garmin.com/xmlschemas/TrackPointExtension/v1">
            <gpxtpx:hr>121</gpxtpx:hr>
          </gpxtpx:TrackPointExtension>
        </extensions>
      </trkpt>
      <trkpt lat="43.14557" lon="1.39269">
        <ele>334</ele>
        <time>2023-03-05T14:41:34Z</time>
        <extensions>
          <gpxtpx:TrackPointExtension xmlns:gpxtpx="http://www.garmin.com/xmlschemas/TrackPointExtension/v1">
            <gpxtpx:hr>122</gpxtpx:hr>
          </gpxtpx:TrackPointExtension>
        </extensions>
      </trkpt>
      <trkpt lat="43.14557" lon="1.39273">
        <ele>334.4</ele>
        <time>2023-03-05T14:41:35Z</time>
        <extensions>
          <gpxtpx:TrackPointExtension xmlns:gpxtpx="http://www.garmin.com/xmlschemas/TrackPointExtension/v1">
            <gpxtpx:hr>122</gpxtpx:hr>
          </gpxtpx:TrackPointExtension>
        </extensions>
      </trkpt>
      <trkpt lat="43.14559" lon="1.3928">
        <ele>335</ele>
        <time>2023-03-05T14:41:37Z</time>
        <extensions>
          <gpxtpx:TrackPointExtension xmlns:gpxtpx="http://www.garmin.com/xmlschemas/TrackPointExtension/v1">
            <gpxtpx:hr>123</gpxtpx:hr>
          </gpxtpx:TrackPointExtension>
        </extensions>
      </trkpt>
      <trkpt lat="43.1456" lon="1.39283">
        <ele>335.4</ele>
        <time>2023-03-05T14:41:38Z</time>
        <extensions>
          <gpxtpx:TrackPointExtension xmlns:gpxtpx="http://www.garmin.com/xmlschemas/TrackPointExtension/v1">
            <gpxtpx:hr>123</gpxtpx:hr>
          </gpxtpx:TrackPointExtension>
        </extensions>
      </trkpt>
      <trkpt lat="43.14561" lon="1.39286">
        <ele>335.8</ele>
        <time>2023-03-05T14:41:39Z</time>
        <extensions>
          <gpxtpx:TrackPointExtension xmlns:gpxtpx="http://www.garmin.com/xmlschemas/TrackPointExtension/v1">
            <gpxtpx:hr>123</gpxtpx:hr>
          </gpxtpx:TrackPointExtension>
        </extensions>
      </trkpt>
      <trkpt lat="43.14562" lon="1.39289">
        <ele>336.2</ele>
        <time>2023-03-05T14:41:40Z</time>
        <extensions>
          <gpxtpx:TrackPointExtension xmlns:gpxtpx="http://www.garmin.com/xmlschemas/TrackPointExtension/v1">
            <gpxtpx:hr>124</gpxtpx:hr>
          </gpxtpx:TrackPointExtension>
        </extensions>
      </trkpt>
      <trkpt lat="43.14564" lon="1.39291">
        <ele>336.8</ele>
        <time>2023-03-05T14:41:41Z</time>
        <extensions>
          <gpxtpx:TrackPointExtension xmlns:gpxtpx="http://www.garmin.com/xmlschemas/TrackPointExtension/v1">
            <gpxtpx:hr>124</gpxtpx:hr>
          </gpxtpx:TrackPointExtension>
        </extensions>
      </trkpt>
      <trkpt lat="43.14569" lon="1.39294">
        <ele>336.8</ele>
        <time>2023-03-05T14:41:43Z</time>
        <extensions>
          <gpxtpx:TrackPointExtension xmlns:gpxtpx="http://www.garmin.com/xmlschemas/TrackPointExtension/v1">
            <gpxtpx:hr>124</gpxtpx:hr>
          </gpxtpx:TrackPointExtension>
        </extensions>
      </trkpt>
      <trkpt lat="43.1457" lon="1.39296">
        <ele>337.2</ele>
        <time>2023-03-05T14:41:44Z</time>
        <extensions>
          <gpxtpx:TrackPointExtension xmlns:gpxtpx="http://www.garmin.com/xmlschemas/TrackPointExtension/v1">
            <gpxtpx:hr>124</gpxtpx:hr>
          </gpxtpx:TrackPointExtension>
        </extensions>
      </trkpt>
      <trkpt lat="43.14572" lon="1.39297">
        <ele>337.6</ele>
        <time>2023-03-05T14:41:45Z</time>
        <extensions>
          <gpxtpx:TrackPointExtension xmlns:gpxtpx="http://www.garmin.com/xmlschemas/TrackPointExtension/v1">
            <gpxtpx:hr>125</gpxtpx:hr>
          </gpxtpx:TrackPointExtension>
        </extensions>
      </trkpt>
      <trkpt lat="43.14574" lon="1.39298">
        <ele>338</ele>
        <time>2023-03-05T14:41:46Z</time>
        <extensions>
          <gpxtpx:TrackPointExtension xmlns:gpxtpx="http://www.garmin.com/xmlschemas/TrackPointExtension/v1">
            <gpxtpx:hr>125</gpxtpx:hr>
          </gpxtpx:TrackPointExtension>
        </extensions>
      </trkpt>
      <trkpt lat="43.14576" lon="1.39299">
        <ele>338.4</ele>
        <time>2023-03-05T14:41:47Z</time>
        <extensions>
          <gpxtpx:TrackPointExtension xmlns:gpxtpx="http://www.garmin.com/xmlschemas/TrackPointExtension/v1">
            <gpxtpx:hr>125</gpxtpx:hr>
          </gpxtpx:TrackPointExtension>
        </extensions>
      </trkpt>
      <trkpt lat="43.14578" lon="1.39301">
        <ele>338.8</ele>
        <time>2023-03-05T14:41:48Z</time>
        <extensions>
          <gpxtpx:TrackPointExtension xmlns:gpxtpx="http://www.garmin.com/xmlschemas/TrackPointExtension/v1">
            <gpxtpx:hr>125</gpxtpx:hr>
          </gpxtpx:TrackPointExtension>
        </extensions>
      </trkpt>
      <trkpt lat="43.14582" lon="1.39303">
        <ele>339.2</ele>
        <time>2023-03-05T14:41:50Z</time>
        <extensions>
          <gpxtpx:TrackPointExtension xmlns:gpxtpx="http://www.garmin.com/xmlschemas/TrackPointExtension/v1">
            <gpxtpx:hr>125</gpxtpx:hr>
          </gpxtpx:TrackPointExtension>
        </extensions>
      </trkpt>
      <trkpt lat="43.14584" lon="1.39304">
        <ele>339.6</ele>
        <time>2023-03-05T14:41:51Z</time>
        <extensions>
          <gpxtpx:TrackPointExtension xmlns:gpxtpx="http://www.garmin.com/xmlschemas/TrackPointExtension/v1">
            <gpxtpx:hr>125</gpxtpx:hr>
          </gpxtpx:TrackPointExtension>
        </extensions>
      </trkpt>
      <trkpt lat="43.14586" lon="1.39305">
        <ele>340</ele>
        <time>2023-03-05T14:41:52Z</time>
        <extensions>
          <gpxtpx:TrackPointExtension xmlns:gpxtpx="http://www.garmin.com/xmlschemas/TrackPointExtension/v1">
            <gpxtpx:hr>125</gpxtpx:hr>
          </gpxtpx:TrackPointExtension>
        </extensions>
      </trkpt>
      <trkpt lat="43.14588" lon="1.39305">
        <ele>340.6</ele>
        <time>2023-03-05T14:41:53Z</time>
        <extensions>
          <gpxtpx:TrackPointExtension xmlns:gpxtpx="http://www.garmin.com/xmlschemas/TrackPointExtension/v1">
            <gpxtpx:hr>125</gpxtpx:hr>
          </gpxtpx:TrackPointExtension>
        </extensions>
      </trkpt>
      <trkpt lat="43.1459" lon="1.39306">
        <ele>341</ele>
        <time>2023-03-05T14:41:54Z</time>
        <extensions>
          <gpxtpx:TrackPointExtension xmlns:gpxtpx="http://www.garmin.com/xmlschemas/TrackPointExtension/v1">
            <gpxtpx:hr>125</gpxtpx:hr>
          </gpxtpx:TrackPointExtension>
        </extensions>
      </trkpt>
      <trkpt lat="43.14595" lon="1.39308">
        <ele>341</ele>
        <time>2023-03-05T14:41:56Z</time>
        <extensions>
          <gpxtpx:TrackPointExtension xmlns:gpxtpx="http://www.garmin.com/xmlschemas/TrackPointExtension/v1">
            <gpxtpx:hr>125</gpxtpx:hr>
          </gpxtpx:TrackPointExtension>
        </extensions>
      </trkpt>
      <trkpt lat="43.14597" lon="1.3931">
        <ele>341.4</ele>
        <time>2023-03-05T14:41:57Z</time>
        <extensions>
          <gpxtpx:TrackPointExtension xmlns:gpxtpx="http://www.garmin.com/xmlschemas/TrackPointExtension/v1">
            <gpxtpx:hr>126</gpxtpx:hr>
          </gpxtpx:TrackPointExtension>
        </extensions>
      </trkpt>
      <trkpt lat="43.14599" lon="1.39311">
        <ele>341.8</ele>
        <time>2023-03-05T14:41:58Z</time>
        <extensions>
          <gpxtpx:TrackPointExtension xmlns:gpxtpx="http://www.garmin.com/xmlschemas/TrackPointExtension/v1">
            <gpxtpx:hr>126</gpxtpx:hr>
          </gpxtpx:TrackPointExtension>
        </extensions>
      </trkpt>
      <trkpt lat="43.14601" lon="1.39313">
        <ele>342.2</ele>
        <time>2023-03-05T14:41:59Z</time>
        <extensions>
          <gpxtpx:TrackPointExtension xmlns:gpxtpx="http://www.garmin.com/xmlschemas/TrackPointExtension/v1">
            <gpxtpx:hr>126</gpxtpx:hr>
          </gpxtpx:TrackPointExtension>
        </extensions>
      </trkpt>
      <trkpt lat="43.14604" lon="1.39315">
        <ele>342.6</ele>
        <time>2023-03-05T14:42:00Z</time>
        <extensions>
          <gpxtpx:TrackPointExtension xmlns:gpxtpx="http://www.garmin.com/xmlschemas/TrackPointExtension/v1">
            <gpxtpx:hr>126</gpxtpx:hr>
          </gpxtpx:TrackPointExtension>
        </extensions>
      </trkpt>
      <trkpt lat="43.14606" lon="1.39316">
        <ele>343</ele>
        <time>2023-03-05T14:42:01Z</time>
        <extensions>
          <gpxtpx:TrackPointExtension xmlns:gpxtpx="http://www.garmin.com/xmlschemas/TrackPointExtension/v1">
            <gpxtpx:hr>126</gpxtpx:hr>
          </gpxtpx:TrackPointExtension>
        </extensions>
      </trkpt>
      <trkpt lat="43.14612" lon="1.3932">
        <ele>343.4</ele>
        <time>2023-03-05T14:42:03Z</time>
        <extensions>
          <gpxtpx:TrackPointExtension xmlns:gpxtpx="http://www.garmin.com/xmlschemas/TrackPointExtension/v1">
            <gpxtpx:hr>126</gpxtpx:hr>
          </gpxtpx:TrackPointExtension>
        </extensions>
      </trkpt>
      <trkpt lat="43.14614" lon="1.39322">
        <ele>344</ele>
        <time>2023-03-05T14:42:04Z</time>
        <extensions>
          <gpxtpx:TrackPointExtension xmlns:gpxtpx="http://www.garmin.com/xmlschemas/TrackPointExtension/v1">
            <gpxtpx:hr>126</gpxtpx:hr>
          </gpxtpx:TrackPointExtension>
        </extensions>
      </trkpt>
      <trkpt lat="43.14617" lon="1.39324">
        <ele>344.4</ele>
        <time>2023-03-05T14:42:05Z</time>
        <extensions>
          <gpxtpx:TrackPointExtension xmlns:gpxtpx="http://www.garmin.com/xmlschemas/TrackPointExtension/v1">
            <gpxtpx:hr>126</gpxtpx:hr>
          </gpxtpx:TrackPointExtension>
        </extensions>
      </trkpt>
      <trkpt lat="43.1462" lon="1.39326">
        <ele>344.8</ele>
        <time>2023-03-05T14:42:06Z</time>
        <extensions>
          <gpxtpx:TrackPointExtension xmlns:gpxtpx="http://www.garmin.com/xmlschemas/TrackPointExtension/v1">
            <gpxtpx:hr>126</gpxtpx:hr>
          </gpxtpx:TrackPointExtension>
        </extensions>
      </trkpt>
      <trkpt lat="43.14623" lon="1.39328">
        <ele>345.4</ele>
        <time>2023-03-05T14:42:07Z</time>
        <extensions>
          <gpxtpx:TrackPointExtension xmlns:gpxtpx="http://www.garmin.com/xmlschemas/TrackPointExtension/v1">
            <gpxtpx:hr>126</gpxtpx:hr>
          </gpxtpx:TrackPointExtension>
        </extensions>
      </trkpt>
      <trkpt lat="43.14625" lon="1.39331">
        <ele>345.8</ele>
        <time>2023-03-05T14:42:08Z</time>
        <extensions>
          <gpxtpx:TrackPointExtension xmlns:gpxtpx="http://www.garmin.com/xmlschemas/TrackPointExtension/v1">
            <gpxtpx:hr>126</gpxtpx:hr>
          </gpxtpx:TrackPointExtension>
        </extensions>
      </trkpt>
      <trkpt lat="43.14628" lon="1.39334">
        <ele>346.2</ele>
        <time>2023-03-05T14:42:09Z</time>
        <extensions>
          <gpxtpx:TrackPointExtension xmlns:gpxtpx="http://www.garmin.com/xmlschemas/TrackPointExtension/v1">
            <gpxtpx:hr>126</gpxtpx:hr>
          </gpxtpx:TrackPointExtension>
        </extensions>
      </trkpt>
      <trkpt lat="43.1463" lon="1.39337">
        <ele>346.8</ele>
        <time>2023-03-05T14:42:10Z</time>
        <extensions>
          <gpxtpx:TrackPointExtension xmlns:gpxtpx="http://www.garmin.com/xmlschemas/TrackPointExtension/v1">
            <gpxtpx:hr>126</gpxtpx:hr>
          </gpxtpx:TrackPointExtension>
        </extensions>
      </trkpt>
      <trkpt lat="43.14633" lon="1.3934">
        <ele>347.2</ele>
        <time>2023-03-05T14:42:11Z</time>
        <extensions>
          <gpxtpx:TrackPointExtension xmlns:gpxtpx="http://www.garmin.com/xmlschemas/TrackPointExtension/v1">
            <gpxtpx:hr>126</gpxtpx:hr>
          </gpxtpx:TrackPointExtension>
        </extensions>
      </trkpt>
      <trkpt lat="43.14635" lon="1.39343">
        <ele>347.6</ele>
        <time>2023-03-05T14:42:12Z</time>
        <extensions>
          <gpxtpx:TrackPointExtension xmlns:gpxtpx="http://www.garmin.com/xmlschemas/TrackPointExtension/v1">
            <gpxtpx:hr>126</gpxtpx:hr>
          </gpxtpx:TrackPointExtension>
        </extensions>
      </trkpt>
      <trkpt lat="43.14637" lon="1.39346">
        <ele>348</ele>
        <time>2023-03-05T14:42:13Z</time>
        <extensions>
          <gpxtpx:TrackPointExtension xmlns:gpxtpx="http://www.garmin.com/xmlschemas/TrackPointExtension/v1">
            <gpxtpx:hr>126</gpxtpx:hr>
          </gpxtpx:TrackPointExtension>
        </extensions>
      </trkpt>
      <trkpt lat="43.14639" lon="1.3935">
        <ele>348.4</ele>
        <time>2023-03-05T14:42:14Z</time>
        <extensions>
          <gpxtpx:TrackPointExtension xmlns:gpxtpx="http://www.garmin.com/xmlschemas/TrackPointExtension/v1">
            <gpxtpx:hr>126</gpxtpx:hr>
          </gpxtpx:TrackPointExtension>
        </extensions>
      </trkpt>
      <trkpt lat="43.14641" lon="1.39352">
        <ele>348.8</ele>
        <time>2023-03-05T14:42:15Z</time>
        <extensions>
          <gpxtpx:TrackPointExtension xmlns:gpxtpx="http://www.garmin.com/xmlschemas/TrackPointExtension/v1">
            <gpxtpx:hr>126</gpxtpx:hr>
          </gpxtpx:TrackPointExtension>
        </extensions>
      </trkpt>
      <trkpt lat="43.14644" lon="1.39355">
        <ele>349.2</ele>
        <time>2023-03-05T14:42:16Z</time>
        <extensions>
          <gpxtpx:TrackPointExtension xmlns:gpxtpx="http://www.garmin.com/xmlschemas/TrackPointExtension/v1">
            <gpxtpx:hr>126</gpxtpx:hr>
          </gpxtpx:TrackPointExtension>
        </extensions>
      </trkpt>
      <trkpt lat="43.14646" lon="1.39357">
        <ele>349.6</ele>
        <time>2023-03-05T14:42:17Z</time>
        <extensions>
          <gpxtpx:TrackPointExtension xmlns:gpxtpx="http://www.garmin.com/xmlschemas/TrackPointExtension/v1">
            <gpxtpx:hr>126</gpxtpx:hr>
          </gpxtpx:TrackPointExtension>
        </extensions>
      </trkpt>
      <trkpt lat="43.14653" lon="1.39362">
        <ele>350.2</ele>
        <time>2023-03-05T14:42:20Z</time>
        <extensions>
          <gpxtpx:TrackPointExtension xmlns:gpxtpx="http://www.garmin.com/xmlschemas/TrackPointExtension/v1">
            <gpxtpx:hr>126</gpxtpx:hr>
          </gpxtpx:TrackPointExtension>
        </extensions>
      </trkpt>
      <trkpt lat="43.14655" lon="1.39363">
        <ele>350.6</ele>
        <time>2023-03-05T14:42:21Z</time>
        <extensions>
          <gpxtpx:TrackPointExtension xmlns:gpxtpx="http://www.garmin.com/xmlschemas/TrackPointExtension/v1">
            <gpxtpx:hr>126</gpxtpx:hr>
          </gpxtpx:TrackPointExtension>
        </extensions>
      </trkpt>
      <trkpt lat="43.14658" lon="1.39363">
        <ele>351</ele>
        <time>2023-03-05T14:42:22Z</time>
        <extensions>
          <gpxtpx:TrackPointExtension xmlns:gpxtpx="http://www.garmin.com/xmlschemas/TrackPointExtension/v1">
            <gpxtpx:hr>126</gpxtpx:hr>
          </gpxtpx:TrackPointExtension>
        </extensions>
      </trkpt>
      <trkpt lat="43.14661" lon="1.39363">
        <ele>351.4</ele>
        <time>2023-03-05T14:42:23Z</time>
        <extensions>
          <gpxtpx:TrackPointExtension xmlns:gpxtpx="http://www.garmin.com/xmlschemas/TrackPointExtension/v1">
            <gpxtpx:hr>126</gpxtpx:hr>
          </gpxtpx:TrackPointExtension>
        </extensions>
      </trkpt>
      <trkpt lat="43.14663" lon="1.39362">
        <ele>351.8</ele>
        <time>2023-03-05T14:42:24Z</time>
        <extensions>
          <gpxtpx:TrackPointExtension xmlns:gpxtpx="http://www.garmin.com/xmlschemas/TrackPointExtension/v1">
            <gpxtpx:hr>126</gpxtpx:hr>
          </gpxtpx:TrackPointExtension>
        </extensions>
      </trkpt>
      <trkpt lat="43.14667" lon="1.39357">
        <ele>351.8</ele>
        <time>2023-03-05T14:42:26Z</time>
        <extensions>
          <gpxtpx:TrackPointExtension xmlns:gpxtpx="http://www.garmin.com/xmlschemas/TrackPointExtension/v1">
            <gpxtpx:hr>126</gpxtpx:hr>
          </gpxtpx:TrackPointExtension>
        </extensions>
      </trkpt>
      <trkpt lat="43.1467" lon="1.39353">
        <ele>352.4</ele>
        <time>2023-03-05T14:42:28Z</time>
        <extensions>
          <gpxtpx:TrackPointExtension xmlns:gpxtpx="http://www.garmin.com/xmlschemas/TrackPointExtension/v1">
            <gpxtpx:hr>126</gpxtpx:hr>
          </gpxtpx:TrackPointExtension>
        </extensions>
      </trkpt>
      <trkpt lat="43.14672" lon="1.39352">
        <ele>352.8</ele>
        <time>2023-03-05T14:42:29Z</time>
        <extensions>
          <gpxtpx:TrackPointExtension xmlns:gpxtpx="http://www.garmin.com/xmlschemas/TrackPointExtension/v1">
            <gpxtpx:hr>127</gpxtpx:hr>
          </gpxtpx:TrackPointExtension>
        </extensions>
      </trkpt>
      <trkpt lat="43.14674" lon="1.3935">
        <ele>353.2</ele>
        <time>2023-03-05T14:42:30Z</time>
        <extensions>
          <gpxtpx:TrackPointExtension xmlns:gpxtpx="http://www.garmin.com/xmlschemas/TrackPointExtension/v1">
            <gpxtpx:hr>128</gpxtpx:hr>
          </gpxtpx:TrackPointExtension>
        </extensions>
      </trkpt>
      <trkpt lat="43.14676" lon="1.39348">
        <ele>353.8</ele>
        <time>2023-03-05T14:42:31Z</time>
        <extensions>
          <gpxtpx:TrackPointExtension xmlns:gpxtpx="http://www.garmin.com/xmlschemas/TrackPointExtension/v1">
            <gpxtpx:hr>128</gpxtpx:hr>
          </gpxtpx:TrackPointExtension>
        </extensions>
      </trkpt>
      <trkpt lat="43.14678" lon="1.39346">
        <ele>354.2</ele>
        <time>2023-03-05T14:42:32Z</time>
        <extensions>
          <gpxtpx:TrackPointExtension xmlns:gpxtpx="http://www.garmin.com/xmlschemas/TrackPointExtension/v1">
            <gpxtpx:hr>128</gpxtpx:hr>
          </gpxtpx:TrackPointExtension>
        </extensions>
      </trkpt>
      <trkpt lat="43.14682" lon="1.39342">
        <ele>354.2</ele>
        <time>2023-03-05T14:42:34Z</time>
        <extensions>
          <gpxtpx:TrackPointExtension xmlns:gpxtpx="http://www.garmin.com/xmlschemas/TrackPointExtension/v1">
            <gpxtpx:hr>128</gpxtpx:hr>
          </gpxtpx:TrackPointExtension>
        </extensions>
      </trkpt>
      <trkpt lat="43.14683" lon="1.3934">
        <ele>354.6</ele>
        <time>2023-03-05T14:42:35Z</time>
        <extensions>
          <gpxtpx:TrackPointExtension xmlns:gpxtpx="http://www.garmin.com/xmlschemas/TrackPointExtension/v1">
            <gpxtpx:hr>128</gpxtpx:hr>
          </gpxtpx:TrackPointExtension>
        </extensions>
      </trkpt>
      <trkpt lat="43.14685" lon="1.39338">
        <ele>355</ele>
        <time>2023-03-05T14:42:36Z</time>
        <extensions>
          <gpxtpx:TrackPointExtension xmlns:gpxtpx="http://www.garmin.com/xmlschemas/TrackPointExtension/v1">
            <gpxtpx:hr>128</gpxtpx:hr>
          </gpxtpx:TrackPointExtension>
        </extensions>
      </trkpt>
      <trkpt lat="43.14687" lon="1.39336">
        <ele>355.4</ele>
        <time>2023-03-05T14:42:37Z</time>
        <extensions>
          <gpxtpx:TrackPointExtension xmlns:gpxtpx="http://www.garmin.com/xmlschemas/TrackPointExtension/v1">
            <gpxtpx:hr>128</gpxtpx:hr>
          </gpxtpx:TrackPointExtension>
        </extensions>
      </trkpt>
      <trkpt lat="43.14689" lon="1.39334">
        <ele>355.8</ele>
        <time>2023-03-05T14:42:38Z</time>
        <extensions>
          <gpxtpx:TrackPointExtension xmlns:gpxtpx="http://www.garmin.com/xmlschemas/TrackPointExtension/v1">
            <gpxtpx:hr>128</gpxtpx:hr>
          </gpxtpx:TrackPointExtension>
        </extensions>
      </trkpt>
      <trkpt lat="43.14691" lon="1.39332">
        <ele>356.2</ele>
        <time>2023-03-05T14:42:39Z</time>
        <extensions>
          <gpxtpx:TrackPointExtension xmlns:gpxtpx="http://www.garmin.com/xmlschemas/TrackPointExtension/v1">
            <gpxtpx:hr>128</gpxtpx:hr>
          </gpxtpx:TrackPointExtension>
        </extensions>
      </trkpt>
      <trkpt lat="43.14694" lon="1.39328">
        <ele>356.6</ele>
        <time>2023-03-05T14:42:41Z</time>
        <extensions>
          <gpxtpx:TrackPointExtension xmlns:gpxtpx="http://www.garmin.com/xmlschemas/TrackPointExtension/v1">
            <gpxtpx:hr>129</gpxtpx:hr>
          </gpxtpx:TrackPointExtension>
        </extensions>
      </trkpt>
      <trkpt lat="43.14696" lon="1.39326">
        <ele>357</ele>
        <time>2023-03-05T14:42:42Z</time>
        <extensions>
          <gpxtpx:TrackPointExtension xmlns:gpxtpx="http://www.garmin.com/xmlschemas/TrackPointExtension/v1">
            <gpxtpx:hr>129</gpxtpx:hr>
          </gpxtpx:TrackPointExtension>
        </extensions>
      </trkpt>
      <trkpt lat="43.14698" lon="1.39323">
        <ele>357.4</ele>
        <time>2023-03-05T14:42:43Z</time>
        <extensions>
          <gpxtpx:TrackPointExtension xmlns:gpxtpx="http://www.garmin.com/xmlschemas/TrackPointExtension/v1">
            <gpxtpx:hr>129</gpxtpx:hr>
          </gpxtpx:TrackPointExtension>
        </extensions>
      </trkpt>
      <trkpt lat="43.14699" lon="1.39321">
        <ele>357.8</ele>
        <time>2023-03-05T14:42:44Z</time>
        <extensions>
          <gpxtpx:TrackPointExtension xmlns:gpxtpx="http://www.garmin.com/xmlschemas/TrackPointExtension/v1">
            <gpxtpx:hr>129</gpxtpx:hr>
          </gpxtpx:TrackPointExtension>
        </extensions>
      </trkpt>
      <trkpt lat="43.14701" lon="1.39319">
        <ele>358.4</ele>
        <time>2023-03-05T14:42:45Z</time>
        <extensions>
          <gpxtpx:TrackPointExtension xmlns:gpxtpx="http://www.garmin.com/xmlschemas/TrackPointExtension/v1">
            <gpxtpx:hr>129</gpxtpx:hr>
          </gpxtpx:TrackPointExtension>
        </extensions>
      </trkpt>
      <trkpt lat="43.14707" lon="1.39313">
        <ele>358.8</ele>
        <time>2023-03-05T14:42:48Z</time>
        <extensions>
          <gpxtpx:TrackPointExtension xmlns:gpxtpx="http://www.garmin.com/xmlschemas/TrackPointExtension/v1">
            <gpxtpx:hr>129</gpxtpx:hr>
          </gpxtpx:TrackPointExtension>
        </extensions>
      </trkpt>
      <trkpt lat="43.14709" lon="1.39311">
        <ele>359.2</ele>
        <time>2023-03-05T14:42:49Z</time>
        <extensions>
          <gpxtpx:TrackPointExtension xmlns:gpxtpx="http://www.garmin.com/xmlschemas/TrackPointExtension/v1">
            <gpxtpx:hr>129</gpxtpx:hr>
          </gpxtpx:TrackPointExtension>
        </extensions>
      </trkpt>
      <trkpt lat="43.14711" lon="1.39308">
        <ele>360</ele>
        <time>2023-03-05T14:42:50Z</time>
        <extensions>
          <gpxtpx:TrackPointExtension xmlns:gpxtpx="http://www.garmin.com/xmlschemas/TrackPointExtension/v1">
            <gpxtpx:hr>129</gpxtpx:hr>
          </gpxtpx:TrackPointExtension>
        </extensions>
      </trkpt>
      <trkpt lat="43.14713" lon="1.39306">
        <ele>360.6</ele>
        <time>2023-03-05T14:42:51Z</time>
        <extensions>
          <gpxtpx:TrackPointExtension xmlns:gpxtpx="http://www.garmin.com/xmlschemas/TrackPointExtension/v1">
            <gpxtpx:hr>129</gpxtpx:hr>
          </gpxtpx:TrackPointExtension>
        </extensions>
      </trkpt>
      <trkpt lat="43.14721" lon="1.39297">
        <ele>361</ele>
        <time>2023-03-05T14:42:55Z</time>
        <extensions>
          <gpxtpx:TrackPointExtension xmlns:gpxtpx="http://www.garmin.com/xmlschemas/TrackPointExtension/v1">
            <gpxtpx:hr>129</gpxtpx:hr>
          </gpxtpx:TrackPointExtension>
        </extensions>
      </trkpt>
      <trkpt lat="43.14724" lon="1.39295">
        <ele>361.4</ele>
        <time>2023-03-05T14:42:56Z</time>
        <extensions>
          <gpxtpx:TrackPointExtension xmlns:gpxtpx="http://www.garmin.com/xmlschemas/TrackPointExtension/v1">
            <gpxtpx:hr>129</gpxtpx:hr>
          </gpxtpx:TrackPointExtension>
        </extensions>
      </trkpt>
      <trkpt lat="43.14726" lon="1.39293">
        <ele>362</ele>
        <time>2023-03-05T14:42:57Z</time>
        <extensions>
          <gpxtpx:TrackPointExtension xmlns:gpxtpx="http://www.garmin.com/xmlschemas/TrackPointExtension/v1">
            <gpxtpx:hr>129</gpxtpx:hr>
          </gpxtpx:TrackPointExtension>
        </extensions>
      </trkpt>
      <trkpt lat="43.14728" lon="1.39291">
        <ele>362.4</ele>
        <time>2023-03-05T14:42:58Z</time>
        <extensions>
          <gpxtpx:TrackPointExtension xmlns:gpxtpx="http://www.garmin.com/xmlschemas/TrackPointExtension/v1">
            <gpxtpx:hr>129</gpxtpx:hr>
          </gpxtpx:TrackPointExtension>
        </extensions>
      </trkpt>
      <trkpt lat="43.1473" lon="1.39289">
        <ele>362.8</ele>
        <time>2023-03-05T14:42:59Z</time>
        <extensions>
          <gpxtpx:TrackPointExtension xmlns:gpxtpx="http://www.garmin.com/xmlschemas/TrackPointExtension/v1">
            <gpxtpx:hr>129</gpxtpx:hr>
          </gpxtpx:TrackPointExtension>
        </extensions>
      </trkpt>
      <trkpt lat="43.14735" lon="1.39285">
        <ele>363.2</ele>
        <time>2023-03-05T14:43:01Z</time>
        <extensions>
          <gpxtpx:TrackPointExtension xmlns:gpxtpx="http://www.garmin.com/xmlschemas/TrackPointExtension/v1">
            <gpxtpx:hr>130</gpxtpx:hr>
          </gpxtpx:TrackPointExtension>
        </extensions>
      </trkpt>
      <trkpt lat="43.14738" lon="1.39283">
        <ele>363.8</ele>
        <time>2023-03-05T14:43:02Z</time>
        <extensions>
          <gpxtpx:TrackPointExtension xmlns:gpxtpx="http://www.garmin.com/xmlschemas/TrackPointExtension/v1">
            <gpxtpx:hr>130</gpxtpx:hr>
          </gpxtpx:TrackPointExtension>
        </extensions>
      </trkpt>
      <trkpt lat="43.14741" lon="1.39281">
        <ele>364.2</ele>
        <time>2023-03-05T14:43:03Z</time>
        <extensions>
          <gpxtpx:TrackPointExtension xmlns:gpxtpx="http://www.garmin.com/xmlschemas/TrackPointExtension/v1">
            <gpxtpx:hr>131</gpxtpx:hr>
          </gpxtpx:TrackPointExtension>
        </extensions>
      </trkpt>
      <trkpt lat="43.14743" lon="1.3928">
        <ele>364.6</ele>
        <time>2023-03-05T14:43:04Z</time>
        <extensions>
          <gpxtpx:TrackPointExtension xmlns:gpxtpx="http://www.garmin.com/xmlschemas/TrackPointExtension/v1">
            <gpxtpx:hr>131</gpxtpx:hr>
          </gpxtpx:TrackPointExtension>
        </extensions>
      </trkpt>
      <trkpt lat="43.14746" lon="1.39278">
        <ele>365</ele>
        <time>2023-03-05T14:43:05Z</time>
        <extensions>
          <gpxtpx:TrackPointExtension xmlns:gpxtpx="http://www.garmin.com/xmlschemas/TrackPointExtension/v1">
            <gpxtpx:hr>131</gpxtpx:hr>
          </gpxtpx:TrackPointExtension>
        </extensions>
      </trkpt>
      <trkpt lat="43.14748" lon="1.39277">
        <ele>365.4</ele>
        <time>2023-03-05T14:43:06Z</time>
        <extensions>
          <gpxtpx:TrackPointExtension xmlns:gpxtpx="http://www.garmin.com/xmlschemas/TrackPointExtension/v1">
            <gpxtpx:hr>131</gpxtpx:hr>
          </gpxtpx:TrackPointExtension>
        </extensions>
      </trkpt>
      <trkpt lat="43.14751" lon="1.39275">
        <ele>365.8</ele>
        <time>2023-03-05T14:43:07Z</time>
        <extensions>
          <gpxtpx:TrackPointExtension xmlns:gpxtpx="http://www.garmin.com/xmlschemas/TrackPointExtension/v1">
            <gpxtpx:hr>131</gpxtpx:hr>
          </gpxtpx:TrackPointExtension>
        </extensions>
      </trkpt>
      <trkpt lat="43.14753" lon="1.39274">
        <ele>366.2</ele>
        <time>2023-03-05T14:43:08Z</time>
        <extensions>
          <gpxtpx:TrackPointExtension xmlns:gpxtpx="http://www.garmin.com/xmlschemas/TrackPointExtension/v1">
            <gpxtpx:hr>131</gpxtpx:hr>
          </gpxtpx:TrackPointExtension>
        </extensions>
      </trkpt>
      <trkpt lat="43.14756" lon="1.39272">
        <ele>366.8</ele>
        <time>2023-03-05T14:43:09Z</time>
        <extensions>
          <gpxtpx:TrackPointExtension xmlns:gpxtpx="http://www.garmin.com/xmlschemas/TrackPointExtension/v1">
            <gpxtpx:hr>131</gpxtpx:hr>
          </gpxtpx:TrackPointExtension>
        </extensions>
      </trkpt>
      <trkpt lat="43.14759" lon="1.39271">
        <ele>367.2</ele>
        <time>2023-03-05T14:43:10Z</time>
        <extensions>
          <gpxtpx:TrackPointExtension xmlns:gpxtpx="http://www.garmin.com/xmlschemas/TrackPointExtension/v1">
            <gpxtpx:hr>132</gpxtpx:hr>
          </gpxtpx:TrackPointExtension>
        </extensions>
      </trkpt>
      <trkpt lat="43.14763" lon="1.3927">
        <ele>367.2</ele>
        <time>2023-03-05T14:43:11Z</time>
        <extensions>
          <gpxtpx:TrackPointExtension xmlns:gpxtpx="http://www.garmin.com/xmlschemas/TrackPointExtension/v1">
            <gpxtpx:hr>132</gpxtpx:hr>
          </gpxtpx:TrackPointExtension>
        </extensions>
      </trkpt>
      <trkpt lat="43.14766" lon="1.39268">
        <ele>367.6</ele>
        <time>2023-03-05T14:43:12Z</time>
        <extensions>
          <gpxtpx:TrackPointExtension xmlns:gpxtpx="http://www.garmin.com/xmlschemas/TrackPointExtension/v1">
            <gpxtpx:hr>132</gpxtpx:hr>
          </gpxtpx:TrackPointExtension>
        </extensions>
      </trkpt>
      <trkpt lat="43.14769" lon="1.39267">
        <ele>368.2</ele>
        <time>2023-03-05T14:43:13Z</time>
        <extensions>
          <gpxtpx:TrackPointExtension xmlns:gpxtpx="http://www.garmin.com/xmlschemas/TrackPointExtension/v1">
            <gpxtpx:hr>132</gpxtpx:hr>
          </gpxtpx:TrackPointExtension>
        </extensions>
      </trkpt>
      <trkpt lat="43.14772" lon="1.39265">
        <ele>368.6</ele>
        <time>2023-03-05T14:43:14Z</time>
        <extensions>
          <gpxtpx:TrackPointExtension xmlns:gpxtpx="http://www.garmin.com/xmlschemas/TrackPointExtension/v1">
            <gpxtpx:hr>132</gpxtpx:hr>
          </gpxtpx:TrackPointExtension>
        </extensions>
      </trkpt>
      <trkpt lat="43.14775" lon="1.39264">
        <ele>369.6</ele>
        <time>2023-03-05T14:43:15Z</time>
        <extensions>
          <gpxtpx:TrackPointExtension xmlns:gpxtpx="http://www.garmin.com/xmlschemas/TrackPointExtension/v1">
            <gpxtpx:hr>132</gpxtpx:hr>
          </gpxtpx:TrackPointExtension>
        </extensions>
      </trkpt>
      <trkpt lat="43.14785" lon="1.39257">
        <ele>370</ele>
        <time>2023-03-05T14:43:19Z</time>
        <extensions>
          <gpxtpx:TrackPointExtension xmlns:gpxtpx="http://www.garmin.com/xmlschemas/TrackPointExtension/v1">
            <gpxtpx:hr>132</gpxtpx:hr>
          </gpxtpx:TrackPointExtension>
        </extensions>
      </trkpt>
      <trkpt lat="43.14787" lon="1.39255">
        <ele>370.4</ele>
        <time>2023-03-05T14:43:20Z</time>
        <extensions>
          <gpxtpx:TrackPointExtension xmlns:gpxtpx="http://www.garmin.com/xmlschemas/TrackPointExtension/v1">
            <gpxtpx:hr>132</gpxtpx:hr>
          </gpxtpx:TrackPointExtension>
        </extensions>
      </trkpt>
      <trkpt lat="43.14789" lon="1.39252">
        <ele>370.8</ele>
        <time>2023-03-05T14:43:21Z</time>
        <extensions>
          <gpxtpx:TrackPointExtension xmlns:gpxtpx="http://www.garmin.com/xmlschemas/TrackPointExtension/v1">
            <gpxtpx:hr>132</gpxtpx:hr>
          </gpxtpx:TrackPointExtension>
        </extensions>
      </trkpt>
      <trkpt lat="43.14792" lon="1.3925">
        <ele>371.2</ele>
        <time>2023-03-05T14:43:22Z</time>
        <extensions>
          <gpxtpx:TrackPointExtension xmlns:gpxtpx="http://www.garmin.com/xmlschemas/TrackPointExtension/v1">
            <gpxtpx:hr>132</gpxtpx:hr>
          </gpxtpx:TrackPointExtension>
        </extensions>
      </trkpt>
      <trkpt lat="43.14794" lon="1.39247">
        <ele>371.6</ele>
        <time>2023-03-05T14:43:23Z</time>
        <extensions>
          <gpxtpx:TrackPointExtension xmlns:gpxtpx="http://www.garmin.com/xmlschemas/TrackPointExtension/v1">
            <gpxtpx:hr>132</gpxtpx:hr>
          </gpxtpx:TrackPointExtension>
        </extensions>
      </trkpt>
      <trkpt lat="43.14798" lon="1.3924">
        <ele>371.6</ele>
        <time>2023-03-05T14:43:25Z</time>
        <extensions>
          <gpxtpx:TrackPointExtension xmlns:gpxtpx="http://www.garmin.com/xmlschemas/TrackPointExtension/v1">
            <gpxtpx:hr>132</gpxtpx:hr>
          </gpxtpx:TrackPointExtension>
        </extensions>
      </trkpt>
      <trkpt lat="43.14807" lon="1.39212">
        <ele>371.6</ele>
        <time>2023-03-05T14:43:31Z</time>
        <extensions>
          <gpxtpx:TrackPointExtension xmlns:gpxtpx="http://www.garmin.com/xmlschemas/TrackPointExtension/v1">
            <gpxtpx:hr>132</gpxtpx:hr>
          </gpxtpx:TrackPointExtension>
        </extensions>
      </trkpt>
      <trkpt lat="43.14812" lon="1.39193">
        <ele>371.6</ele>
        <time>2023-03-05T14:43:34Z</time>
        <extensions>
          <gpxtpx:TrackPointExtension xmlns:gpxtpx="http://www.garmin.com/xmlschemas/TrackPointExtension/v1">
            <gpxtpx:hr>132</gpxtpx:hr>
          </gpxtpx:TrackPointExtension>
        </extensions>
      </trkpt>
      <trkpt lat="43.1482" lon="1.39182">
        <ele>371.6</ele>
        <time>2023-03-05T14:43:36Z</time>
        <extensions>
          <gpxtpx:TrackPointExtension xmlns:gpxtpx="http://www.garmin.com/xmlschemas/TrackPointExtension/v1">
            <gpxtpx:hr>132</gpxtpx:hr>
          </gpxtpx:TrackPointExtension>
        </extensions>
      </trkpt>
      <trkpt lat="43.14836" lon="1.39175">
        <ele>371.6</ele>
        <time>2023-03-05T14:43:39Z</time>
        <extensions>
          <gpxtpx:TrackPointExtension xmlns:gpxtpx="http://www.garmin.com/xmlschemas/TrackPointExtension/v1">
            <gpxtpx:hr>132</gpxtpx:hr>
          </gpxtpx:TrackPointExtension>
        </extensions>
      </trkpt>
      <trkpt lat="43.1485" lon="1.3918">
        <ele>371.6</ele>
        <time>2023-03-05T14:43:42Z</time>
        <extensions>
          <gpxtpx:TrackPointExtension xmlns:gpxtpx="http://www.garmin.com/xmlschemas/TrackPointExtension/v1">
            <gpxtpx:hr>132</gpxtpx:hr>
          </gpxtpx:TrackPointExtension>
        </extensions>
      </trkpt>
      <trkpt lat="43.14857" lon="1.39186">
        <ele>371.6</ele>
        <time>2023-03-05T14:43:44Z</time>
        <extensions>
          <gpxtpx:TrackPointExtension xmlns:gpxtpx="http://www.garmin.com/xmlschemas/TrackPointExtension/v1">
            <gpxtpx:hr>132</gpxtpx:hr>
          </gpxtpx:TrackPointExtension>
        </extensions>
      </trkpt>
      <trkpt lat="43.1486" lon="1.39189">
        <ele>371.6</ele>
        <time>2023-03-05T14:43:45Z</time>
        <extensions>
          <gpxtpx:TrackPointExtension xmlns:gpxtpx="http://www.garmin.com/xmlschemas/TrackPointExtension/v1">
            <gpxtpx:hr>132</gpxtpx:hr>
          </gpxtpx:TrackPointExtension>
        </extensions>
      </trkpt>
      <trkpt lat="43.14863" lon="1.39193">
        <ele>371.6</ele>
        <time>2023-03-05T14:43:46Z</time>
        <extensions>
          <gpxtpx:TrackPointExtension xmlns:gpxtpx="http://www.garmin.com/xmlschemas/TrackPointExtension/v1">
            <gpxtpx:hr>123</gpxtpx:hr>
          </gpxtpx:TrackPointExtension>
        </extensions>
      </trkpt>
      <trkpt lat="43.14866" lon="1.39197">
        <ele>371.6</ele>
        <time>2023-03-05T14:43:47Z</time>
        <extensions>
          <gpxtpx:TrackPointExtension xmlns:gpxtpx="http://www.garmin.com/xmlschemas/TrackPointExtension/v1">
            <gpxtpx:hr>123</gpxtpx:hr>
          </gpxtpx:TrackPointExtension>
        </extensions>
      </trkpt>
      <trkpt lat="43.14873" lon="1.39202">
        <ele>371.6</ele>
        <time>2023-03-05T14:43:49Z</time>
        <extensions>
          <gpxtpx:TrackPointExtension xmlns:gpxtpx="http://www.garmin.com/xmlschemas/TrackPointExtension/v1">
            <gpxtpx:hr>123</gpxtpx:hr>
          </gpxtpx:TrackPointExtension>
        </extensions>
      </trkpt>
      <trkpt lat="43.14885" lon="1.39206">
        <ele>371.6</ele>
        <time>2023-03-05T14:43:52Z</time>
        <extensions>
          <gpxtpx:TrackPointExtension xmlns:gpxtpx="http://www.garmin.com/xmlschemas/TrackPointExtension/v1">
            <gpxtpx:hr>124</gpxtpx:hr>
          </gpxtpx:TrackPointExtension>
        </extensions>
      </trkpt>
      <trkpt lat="43.14893" lon="1.39205">
        <ele>372</ele>
        <time>2023-03-05T14:43:54Z</time>
        <extensions>
          <gpxtpx:TrackPointExtension xmlns:gpxtpx="http://www.garmin.com/xmlschemas/TrackPointExtension/v1">
            <gpxtpx:hr>124</gpxtpx:hr>
          </gpxtpx:TrackPointExtension>
        </extensions>
      </trkpt>
      <trkpt lat="43.14897" lon="1.39204">
        <ele>372.4</ele>
        <time>2023-03-05T14:43:55Z</time>
        <extensions>
          <gpxtpx:TrackPointExtension xmlns:gpxtpx="http://www.garmin.com/xmlschemas/TrackPointExtension/v1">
            <gpxtpx:hr>124</gpxtpx:hr>
          </gpxtpx:TrackPointExtension>
        </extensions>
      </trkpt>
      <trkpt lat="43.149" lon="1.39203">
        <ele>372.8</ele>
        <time>2023-03-05T14:43:56Z</time>
        <extensions>
          <gpxtpx:TrackPointExtension xmlns:gpxtpx="http://www.garmin.com/xmlschemas/TrackPointExtension/v1">
            <gpxtpx:hr>124</gpxtpx:hr>
          </gpxtpx:TrackPointExtension>
        </extensions>
      </trkpt>
      <trkpt lat="43.14903" lon="1.39202">
        <ele>373.2</ele>
        <time>2023-03-05T14:43:57Z</time>
        <extensions>
          <gpxtpx:TrackPointExtension xmlns:gpxtpx="http://www.garmin.com/xmlschemas/TrackPointExtension/v1">
            <gpxtpx:hr>124</gpxtpx:hr>
          </gpxtpx:TrackPointExtension>
        </extensions>
      </trkpt>
      <trkpt lat="43.14905" lon="1.39201">
        <ele>373.6</ele>
        <time>2023-03-05T14:43:58Z</time>
        <extensions>
          <gpxtpx:TrackPointExtension xmlns:gpxtpx="http://www.garmin.com/xmlschemas/TrackPointExtension/v1">
            <gpxtpx:hr>123</gpxtpx:hr>
          </gpxtpx:TrackPointExtension>
        </extensions>
      </trkpt>
      <trkpt lat="43.14906" lon="1.392">
        <ele>373.6</ele>
        <time>2023-03-05T14:43:59Z</time>
        <extensions>
          <gpxtpx:TrackPointExtension xmlns:gpxtpx="http://www.garmin.com/xmlschemas/TrackPointExtension/v1">
            <gpxtpx:hr>123</gpxtpx:hr>
          </gpxtpx:TrackPointExtension>
        </extensions>
      </trkpt>
      <trkpt lat="43.14906" lon="1.392">
        <ele>373.6</ele>
        <time>2023-03-05T14:44:00Z</time>
        <extensions>
          <gpxtpx:TrackPointExtension xmlns:gpxtpx="http://www.garmin.com/xmlschemas/TrackPointExtension/v1">
            <gpxtpx:hr>123</gpxtpx:hr>
          </gpxtpx:TrackPointExtension>
        </extensions>
      </trkpt>
      <trkpt lat="43.14911" lon="1.392">
        <ele>373.6</ele>
        <time>2023-03-05T14:46:05Z</time>
        <extensions>
          <gpxtpx:TrackPointExtension xmlns:gpxtpx="http://www.garmin.com/xmlschemas/TrackPointExtension/v1">
            <gpxtpx:hr>104</gpxtpx:hr>
          </gpxtpx:TrackPointExtension>
        </extensions>
      </trkpt>
      <trkpt lat="43.14913" lon="1.392">
        <ele>373.6</ele>
        <time>2023-03-05T14:46:06Z</time>
        <extensions>
          <gpxtpx:TrackPointExtension xmlns:gpxtpx="http://www.garmin.com/xmlschemas/TrackPointExtension/v1">
            <gpxtpx:hr>104</gpxtpx:hr>
          </gpxtpx:TrackPointExtension>
        </extensions>
      </trkpt>
      <trkpt lat="43.14915" lon="1.392">
        <ele>373.6</ele>
        <time>2023-03-05T14:46:07Z</time>
        <extensions>
          <gpxtpx:TrackPointExtension xmlns:gpxtpx="http://www.garmin.com/xmlschemas/TrackPointExtension/v1">
            <gpxtpx:hr>104</gpxtpx:hr>
          </gpxtpx:TrackPointExtension>
        </extensions>
      </trkpt>
      <trkpt lat="43.14918" lon="1.39197">
        <ele>373.6</ele>
        <time>2023-03-05T14:46:10Z</time>
        <extensions>
          <gpxtpx:TrackPointExtension xmlns:gpxtpx="http://www.garmin.com/xmlschemas/TrackPointExtension/v1">
            <gpxtpx:hr>107</gpxtpx:hr>
          </gpxtpx:TrackPointExtension>
        </extensions>
      </trkpt>
      <trkpt lat="43.14921" lon="1.39191">
        <ele>373.6</ele>
        <time>2023-03-05T14:46:12Z</time>
        <extensions>
          <gpxtpx:TrackPointExtension xmlns:gpxtpx="http://www.garmin.com/xmlschemas/TrackPointExtension/v1">
            <gpxtpx:hr>108</gpxtpx:hr>
          </gpxtpx:TrackPointExtension>
        </extensions>
      </trkpt>
      <trkpt lat="43.14923" lon="1.39186">
        <ele>373.6</ele>
        <time>2023-03-05T14:46:13Z</time>
        <extensions>
          <gpxtpx:TrackPointExtension xmlns:gpxtpx="http://www.garmin.com/xmlschemas/TrackPointExtension/v1">
            <gpxtpx:hr>108</gpxtpx:hr>
          </gpxtpx:TrackPointExtension>
        </extensions>
      </trkpt>
      <trkpt lat="43.14928" lon="1.39171">
        <ele>373.6</ele>
        <time>2023-03-05T14:46:15Z</time>
        <extensions>
          <gpxtpx:TrackPointExtension xmlns:gpxtpx="http://www.garmin.com/xmlschemas/TrackPointExtension/v1">
            <gpxtpx:hr>108</gpxtpx:hr>
          </gpxtpx:TrackPointExtension>
        </extensions>
      </trkpt>
      <trkpt lat="43.1493" lon="1.39163">
        <ele>373</ele>
        <time>2023-03-05T14:46:16Z</time>
        <extensions>
          <gpxtpx:TrackPointExtension xmlns:gpxtpx="http://www.garmin.com/xmlschemas/TrackPointExtension/v1">
            <gpxtpx:hr>108</gpxtpx:hr>
          </gpxtpx:TrackPointExtension>
        </extensions>
      </trkpt>
      <trkpt lat="43.14932" lon="1.39154">
        <ele>372.4</ele>
        <time>2023-03-05T14:46:17Z</time>
        <extensions>
          <gpxtpx:TrackPointExtension xmlns:gpxtpx="http://www.garmin.com/xmlschemas/TrackPointExtension/v1">
            <gpxtpx:hr>108</gpxtpx:hr>
          </gpxtpx:TrackPointExtension>
        </extensions>
      </trkpt>
      <trkpt lat="43.14934" lon="1.39144">
        <ele>372</ele>
        <time>2023-03-05T14:46:18Z</time>
        <extensions>
          <gpxtpx:TrackPointExtension xmlns:gpxtpx="http://www.garmin.com/xmlschemas/TrackPointExtension/v1">
            <gpxtpx:hr>108</gpxtpx:hr>
          </gpxtpx:TrackPointExtension>
        </extensions>
      </trkpt>
      <trkpt lat="43.14936" lon="1.39136">
        <ele>371.2</ele>
        <time>2023-03-05T14:46:19Z</time>
        <extensions>
          <gpxtpx:TrackPointExtension xmlns:gpxtpx="http://www.garmin.com/xmlschemas/TrackPointExtension/v1">
            <gpxtpx:hr>108</gpxtpx:hr>
          </gpxtpx:TrackPointExtension>
        </extensions>
      </trkpt>
      <trkpt lat="43.14938" lon="1.39128">
        <ele>370.4</ele>
        <time>2023-03-05T14:46:20Z</time>
        <extensions>
          <gpxtpx:TrackPointExtension xmlns:gpxtpx="http://www.garmin.com/xmlschemas/TrackPointExtension/v1">
            <gpxtpx:hr>108</gpxtpx:hr>
          </gpxtpx:TrackPointExtension>
        </extensions>
      </trkpt>
      <trkpt lat="43.14943" lon="1.39122">
        <ele>369.8</ele>
        <time>2023-03-05T14:46:21Z</time>
        <extensions>
          <gpxtpx:TrackPointExtension xmlns:gpxtpx="http://www.garmin.com/xmlschemas/TrackPointExtension/v1">
            <gpxtpx:hr>108</gpxtpx:hr>
          </gpxtpx:TrackPointExtension>
        </extensions>
      </trkpt>
      <trkpt lat="43.14948" lon="1.39118">
        <ele>369</ele>
        <time>2023-03-05T14:46:22Z</time>
        <extensions>
          <gpxtpx:TrackPointExtension xmlns:gpxtpx="http://www.garmin.com/xmlschemas/TrackPointExtension/v1">
            <gpxtpx:hr>108</gpxtpx:hr>
          </gpxtpx:TrackPointExtension>
        </extensions>
      </trkpt>
      <trkpt lat="43.14953" lon="1.39115">
        <ele>368.2</ele>
        <time>2023-03-05T14:46:23Z</time>
        <extensions>
          <gpxtpx:TrackPointExtension xmlns:gpxtpx="http://www.garmin.com/xmlschemas/TrackPointExtension/v1">
            <gpxtpx:hr>108</gpxtpx:hr>
          </gpxtpx:TrackPointExtension>
        </extensions>
      </trkpt>
      <trkpt lat="43.14958" lon="1.39113">
        <ele>367.6</ele>
        <time>2023-03-05T14:46:24Z</time>
        <extensions>
          <gpxtpx:TrackPointExtension xmlns:gpxtpx="http://www.garmin.com/xmlschemas/TrackPointExtension/v1">
            <gpxtpx:hr>108</gpxtpx:hr>
          </gpxtpx:TrackPointExtension>
        </extensions>
      </trkpt>
      <trkpt lat="43.14962" lon="1.39108">
        <ele>366.8</ele>
        <time>2023-03-05T14:46:25Z</time>
        <extensions>
          <gpxtpx:TrackPointExtension xmlns:gpxtpx="http://www.garmin.com/xmlschemas/TrackPointExtension/v1">
            <gpxtpx:hr>109</gpxtpx:hr>
          </gpxtpx:TrackPointExtension>
        </extensions>
      </trkpt>
      <trkpt lat="43.14965" lon="1.39102">
        <ele>366</ele>
        <time>2023-03-05T14:46:26Z</time>
        <extensions>
          <gpxtpx:TrackPointExtension xmlns:gpxtpx="http://www.garmin.com/xmlschemas/TrackPointExtension/v1">
            <gpxtpx:hr>111</gpxtpx:hr>
          </gpxtpx:TrackPointExtension>
        </extensions>
      </trkpt>
      <trkpt lat="43.14977" lon="1.39078">
        <ele>365.6</ele>
        <time>2023-03-05T14:46:30Z</time>
        <extensions>
          <gpxtpx:TrackPointExtension xmlns:gpxtpx="http://www.garmin.com/xmlschemas/TrackPointExtension/v1">
            <gpxtpx:hr>111</gpxtpx:hr>
          </gpxtpx:TrackPointExtension>
        </extensions>
      </trkpt>
      <trkpt lat="43.1498" lon="1.39071">
        <ele>364.6</ele>
        <time>2023-03-05T14:46:31Z</time>
        <extensions>
          <gpxtpx:TrackPointExtension xmlns:gpxtpx="http://www.garmin.com/xmlschemas/TrackPointExtension/v1">
            <gpxtpx:hr>112</gpxtpx:hr>
          </gpxtpx:TrackPointExtension>
        </extensions>
      </trkpt>
      <trkpt lat="43.14983" lon="1.39065">
        <ele>364.2</ele>
        <time>2023-03-05T14:46:32Z</time>
        <extensions>
          <gpxtpx:TrackPointExtension xmlns:gpxtpx="http://www.garmin.com/xmlschemas/TrackPointExtension/v1">
            <gpxtpx:hr>111</gpxtpx:hr>
          </gpxtpx:TrackPointExtension>
        </extensions>
      </trkpt>
      <trkpt lat="43.14987" lon="1.39059">
        <ele>363.8</ele>
        <time>2023-03-05T14:46:33Z</time>
        <extensions>
          <gpxtpx:TrackPointExtension xmlns:gpxtpx="http://www.garmin.com/xmlschemas/TrackPointExtension/v1">
            <gpxtpx:hr>111</gpxtpx:hr>
          </gpxtpx:TrackPointExtension>
        </extensions>
      </trkpt>
      <trkpt lat="43.14995" lon="1.39046">
        <ele>363.4</ele>
        <time>2023-03-05T14:46:35Z</time>
        <extensions>
          <gpxtpx:TrackPointExtension xmlns:gpxtpx="http://www.garmin.com/xmlschemas/TrackPointExtension/v1">
            <gpxtpx:hr>111</gpxtpx:hr>
          </gpxtpx:TrackPointExtension>
        </extensions>
      </trkpt>
      <trkpt lat="43.14999" lon="1.3904">
        <ele>363</ele>
        <time>2023-03-05T14:46:36Z</time>
        <extensions>
          <gpxtpx:TrackPointExtension xmlns:gpxtpx="http://www.garmin.com/xmlschemas/TrackPointExtension/v1">
            <gpxtpx:hr>111</gpxtpx:hr>
          </gpxtpx:TrackPointExtension>
        </extensions>
      </trkpt>
      <trkpt lat="43.15004" lon="1.39034">
        <ele>362.6</ele>
        <time>2023-03-05T14:46:37Z</time>
        <extensions>
          <gpxtpx:TrackPointExtension xmlns:gpxtpx="http://www.garmin.com/xmlschemas/TrackPointExtension/v1">
            <gpxtpx:hr>111</gpxtpx:hr>
          </gpxtpx:TrackPointExtension>
        </extensions>
      </trkpt>
      <trkpt lat="43.15008" lon="1.39028">
        <ele>362.2</ele>
        <time>2023-03-05T14:46:38Z</time>
        <extensions>
          <gpxtpx:TrackPointExtension xmlns:gpxtpx="http://www.garmin.com/xmlschemas/TrackPointExtension/v1">
            <gpxtpx:hr>111</gpxtpx:hr>
          </gpxtpx:TrackPointExtension>
        </extensions>
      </trkpt>
      <trkpt lat="43.15012" lon="1.39022">
        <ele>361.8</ele>
        <time>2023-03-05T14:46:39Z</time>
        <extensions>
          <gpxtpx:TrackPointExtension xmlns:gpxtpx="http://www.garmin.com/xmlschemas/TrackPointExtension/v1">
            <gpxtpx:hr>111</gpxtpx:hr>
          </gpxtpx:TrackPointExtension>
        </extensions>
      </trkpt>
      <trkpt lat="43.15014" lon="1.39018">
        <ele>361.4</ele>
        <time>2023-03-05T14:46:40Z</time>
        <extensions>
          <gpxtpx:TrackPointExtension xmlns:gpxtpx="http://www.garmin.com/xmlschemas/TrackPointExtension/v1">
            <gpxtpx:hr>111</gpxtpx:hr>
          </gpxtpx:TrackPointExtension>
        </extensions>
      </trkpt>
      <trkpt lat="43.15015" lon="1.39014">
        <ele>360.8</ele>
        <time>2023-03-05T14:46:41Z</time>
        <extensions>
          <gpxtpx:TrackPointExtension xmlns:gpxtpx="http://www.garmin.com/xmlschemas/TrackPointExtension/v1">
            <gpxtpx:hr>111</gpxtpx:hr>
          </gpxtpx:TrackPointExtension>
        </extensions>
      </trkpt>
      <trkpt lat="43.15016" lon="1.39011">
        <ele>360.4</ele>
        <time>2023-03-05T14:46:42Z</time>
        <extensions>
          <gpxtpx:TrackPointExtension xmlns:gpxtpx="http://www.garmin.com/xmlschemas/TrackPointExtension/v1">
            <gpxtpx:hr>111</gpxtpx:hr>
          </gpxtpx:TrackPointExtension>
        </extensions>
      </trkpt>
      <trkpt lat="43.15016" lon="1.39006">
        <ele>360</ele>
        <time>2023-03-05T14:46:43Z</time>
        <extensions>
          <gpxtpx:TrackPointExtension xmlns:gpxtpx="http://www.garmin.com/xmlschemas/TrackPointExtension/v1">
            <gpxtpx:hr>111</gpxtpx:hr>
          </gpxtpx:TrackPointExtension>
        </extensions>
      </trkpt>
      <trkpt lat="43.15015" lon="1.39001">
        <ele>359.6</ele>
        <time>2023-03-05T14:46:44Z</time>
        <extensions>
          <gpxtpx:TrackPointExtension xmlns:gpxtpx="http://www.garmin.com/xmlschemas/TrackPointExtension/v1">
            <gpxtpx:hr>112</gpxtpx:hr>
          </gpxtpx:TrackPointExtension>
        </extensions>
      </trkpt>
      <trkpt lat="43.15013" lon="1.38997">
        <ele>359.6</ele>
        <time>2023-03-05T14:46:45Z</time>
        <extensions>
          <gpxtpx:TrackPointExtension xmlns:gpxtpx="http://www.garmin.com/xmlschemas/TrackPointExtension/v1">
            <gpxtpx:hr>112</gpxtpx:hr>
          </gpxtpx:TrackPointExtension>
        </extensions>
      </trkpt>
      <trkpt lat="43.1501" lon="1.38986">
        <ele>359.2</ele>
        <time>2023-03-05T14:46:47Z</time>
        <extensions>
          <gpxtpx:TrackPointExtension xmlns:gpxtpx="http://www.garmin.com/xmlschemas/TrackPointExtension/v1">
            <gpxtpx:hr>112</gpxtpx:hr>
          </gpxtpx:TrackPointExtension>
        </extensions>
      </trkpt>
      <trkpt lat="43.15009" lon="1.3898">
        <ele>358.6</ele>
        <time>2023-03-05T14:46:48Z</time>
        <extensions>
          <gpxtpx:TrackPointExtension xmlns:gpxtpx="http://www.garmin.com/xmlschemas/TrackPointExtension/v1">
            <gpxtpx:hr>112</gpxtpx:hr>
          </gpxtpx:TrackPointExtension>
        </extensions>
      </trkpt>
      <trkpt lat="43.15009" lon="1.38974">
        <ele>358.2</ele>
        <time>2023-03-05T14:46:49Z</time>
        <extensions>
          <gpxtpx:TrackPointExtension xmlns:gpxtpx="http://www.garmin.com/xmlschemas/TrackPointExtension/v1">
            <gpxtpx:hr>112</gpxtpx:hr>
          </gpxtpx:TrackPointExtension>
        </extensions>
      </trkpt>
      <trkpt lat="43.15009" lon="1.38966">
        <ele>357.6</ele>
        <time>2023-03-05T14:46:50Z</time>
        <extensions>
          <gpxtpx:TrackPointExtension xmlns:gpxtpx="http://www.garmin.com/xmlschemas/TrackPointExtension/v1">
            <gpxtpx:hr>112</gpxtpx:hr>
          </gpxtpx:TrackPointExtension>
        </extensions>
      </trkpt>
      <trkpt lat="43.15009" lon="1.38957">
        <ele>357.2</ele>
        <time>2023-03-05T14:46:51Z</time>
        <extensions>
          <gpxtpx:TrackPointExtension xmlns:gpxtpx="http://www.garmin.com/xmlschemas/TrackPointExtension/v1">
            <gpxtpx:hr>112</gpxtpx:hr>
          </gpxtpx:TrackPointExtension>
        </extensions>
      </trkpt>
      <trkpt lat="43.15008" lon="1.38939">
        <ele>356.6</ele>
        <time>2023-03-05T14:46:53Z</time>
        <extensions>
          <gpxtpx:TrackPointExtension xmlns:gpxtpx="http://www.garmin.com/xmlschemas/TrackPointExtension/v1">
            <gpxtpx:hr>112</gpxtpx:hr>
          </gpxtpx:TrackPointExtension>
        </extensions>
      </trkpt>
      <trkpt lat="43.15007" lon="1.38929">
        <ele>356.2</ele>
        <time>2023-03-05T14:46:54Z</time>
        <extensions>
          <gpxtpx:TrackPointExtension xmlns:gpxtpx="http://www.garmin.com/xmlschemas/TrackPointExtension/v1">
            <gpxtpx:hr>112</gpxtpx:hr>
          </gpxtpx:TrackPointExtension>
        </extensions>
      </trkpt>
      <trkpt lat="43.15007" lon="1.38919">
        <ele>355.6</ele>
        <time>2023-03-05T14:46:55Z</time>
        <extensions>
          <gpxtpx:TrackPointExtension xmlns:gpxtpx="http://www.garmin.com/xmlschemas/TrackPointExtension/v1">
            <gpxtpx:hr>112</gpxtpx:hr>
          </gpxtpx:TrackPointExtension>
        </extensions>
      </trkpt>
      <trkpt lat="43.15006" lon="1.38909">
        <ele>354.4</ele>
        <time>2023-03-05T14:46:56Z</time>
        <extensions>
          <gpxtpx:TrackPointExtension xmlns:gpxtpx="http://www.garmin.com/xmlschemas/TrackPointExtension/v1">
            <gpxtpx:hr>112</gpxtpx:hr>
          </gpxtpx:TrackPointExtension>
        </extensions>
      </trkpt>
      <trkpt lat="43.15005" lon="1.38898">
        <ele>353.6</ele>
        <time>2023-03-05T14:46:57Z</time>
        <extensions>
          <gpxtpx:TrackPointExtension xmlns:gpxtpx="http://www.garmin.com/xmlschemas/TrackPointExtension/v1">
            <gpxtpx:hr>112</gpxtpx:hr>
          </gpxtpx:TrackPointExtension>
        </extensions>
      </trkpt>
      <trkpt lat="43.15005" lon="1.38888">
        <ele>353</ele>
        <time>2023-03-05T14:46:58Z</time>
        <extensions>
          <gpxtpx:TrackPointExtension xmlns:gpxtpx="http://www.garmin.com/xmlschemas/TrackPointExtension/v1">
            <gpxtpx:hr>112</gpxtpx:hr>
          </gpxtpx:TrackPointExtension>
        </extensions>
      </trkpt>
      <trkpt lat="43.15005" lon="1.38879">
        <ele>352.2</ele>
        <time>2023-03-05T14:46:59Z</time>
        <extensions>
          <gpxtpx:TrackPointExtension xmlns:gpxtpx="http://www.garmin.com/xmlschemas/TrackPointExtension/v1">
            <gpxtpx:hr>112</gpxtpx:hr>
          </gpxtpx:TrackPointExtension>
        </extensions>
      </trkpt>
      <trkpt lat="43.15005" lon="1.3887">
        <ele>351.4</ele>
        <time>2023-03-05T14:47:00Z</time>
        <extensions>
          <gpxtpx:TrackPointExtension xmlns:gpxtpx="http://www.garmin.com/xmlschemas/TrackPointExtension/v1">
            <gpxtpx:hr>112</gpxtpx:hr>
          </gpxtpx:TrackPointExtension>
        </extensions>
      </trkpt>
      <trkpt lat="43.15005" lon="1.38861">
        <ele>350.8</ele>
        <time>2023-03-05T14:47:01Z</time>
        <extensions>
          <gpxtpx:TrackPointExtension xmlns:gpxtpx="http://www.garmin.com/xmlschemas/TrackPointExtension/v1">
            <gpxtpx:hr>112</gpxtpx:hr>
          </gpxtpx:TrackPointExtension>
        </extensions>
      </trkpt>
      <trkpt lat="43.15003" lon="1.38853">
        <ele>350</ele>
        <time>2023-03-05T14:47:02Z</time>
        <extensions>
          <gpxtpx:TrackPointExtension xmlns:gpxtpx="http://www.garmin.com/xmlschemas/TrackPointExtension/v1">
            <gpxtpx:hr>111</gpxtpx:hr>
          </gpxtpx:TrackPointExtension>
        </extensions>
      </trkpt>
      <trkpt lat="43.14999" lon="1.38847">
        <ele>349.2</ele>
        <time>2023-03-05T14:47:03Z</time>
        <extensions>
          <gpxtpx:TrackPointExtension xmlns:gpxtpx="http://www.garmin.com/xmlschemas/TrackPointExtension/v1">
            <gpxtpx:hr>110</gpxtpx:hr>
          </gpxtpx:TrackPointExtension>
        </extensions>
      </trkpt>
      <trkpt lat="43.14993" lon="1.38841">
        <ele>348.4</ele>
        <time>2023-03-05T14:47:04Z</time>
        <extensions>
          <gpxtpx:TrackPointExtension xmlns:gpxtpx="http://www.garmin.com/xmlschemas/TrackPointExtension/v1">
            <gpxtpx:hr>110</gpxtpx:hr>
          </gpxtpx:TrackPointExtension>
        </extensions>
      </trkpt>
      <trkpt lat="43.14987" lon="1.38835">
        <ele>347.6</ele>
        <time>2023-03-05T14:47:05Z</time>
        <extensions>
          <gpxtpx:TrackPointExtension xmlns:gpxtpx="http://www.garmin.com/xmlschemas/TrackPointExtension/v1">
            <gpxtpx:hr>110</gpxtpx:hr>
          </gpxtpx:TrackPointExtension>
        </extensions>
      </trkpt>
      <trkpt lat="43.14981" lon="1.3883">
        <ele>346.8</ele>
        <time>2023-03-05T14:47:06Z</time>
        <extensions>
          <gpxtpx:TrackPointExtension xmlns:gpxtpx="http://www.garmin.com/xmlschemas/TrackPointExtension/v1">
            <gpxtpx:hr>109</gpxtpx:hr>
          </gpxtpx:TrackPointExtension>
        </extensions>
      </trkpt>
      <trkpt lat="43.14975" lon="1.38826">
        <ele>346</ele>
        <time>2023-03-05T14:47:07Z</time>
        <extensions>
          <gpxtpx:TrackPointExtension xmlns:gpxtpx="http://www.garmin.com/xmlschemas/TrackPointExtension/v1">
            <gpxtpx:hr>109</gpxtpx:hr>
          </gpxtpx:TrackPointExtension>
        </extensions>
      </trkpt>
      <trkpt lat="43.1497" lon="1.38822">
        <ele>345</ele>
        <time>2023-03-05T14:47:08Z</time>
        <extensions>
          <gpxtpx:TrackPointExtension xmlns:gpxtpx="http://www.garmin.com/xmlschemas/TrackPointExtension/v1">
            <gpxtpx:hr>109</gpxtpx:hr>
          </gpxtpx:TrackPointExtension>
        </extensions>
      </trkpt>
      <trkpt lat="43.14967" lon="1.3882">
        <ele>343.8</ele>
        <time>2023-03-05T14:47:09Z</time>
        <extensions>
          <gpxtpx:TrackPointExtension xmlns:gpxtpx="http://www.garmin.com/xmlschemas/TrackPointExtension/v1">
            <gpxtpx:hr>108</gpxtpx:hr>
          </gpxtpx:TrackPointExtension>
        </extensions>
      </trkpt>
      <trkpt lat="43.14964" lon="1.38817">
        <ele>342.8</ele>
        <time>2023-03-05T14:47:10Z</time>
        <extensions>
          <gpxtpx:TrackPointExtension xmlns:gpxtpx="http://www.garmin.com/xmlschemas/TrackPointExtension/v1">
            <gpxtpx:hr>108</gpxtpx:hr>
          </gpxtpx:TrackPointExtension>
        </extensions>
      </trkpt>
      <trkpt lat="43.14962" lon="1.38816">
        <ele>341.8</ele>
        <time>2023-03-05T14:47:11Z</time>
        <extensions>
          <gpxtpx:TrackPointExtension xmlns:gpxtpx="http://www.garmin.com/xmlschemas/TrackPointExtension/v1">
            <gpxtpx:hr>108</gpxtpx:hr>
          </gpxtpx:TrackPointExtension>
        </extensions>
      </trkpt>
      <trkpt lat="43.1496" lon="1.38814">
        <ele>340.8</ele>
        <time>2023-03-05T14:47:12Z</time>
        <extensions>
          <gpxtpx:TrackPointExtension xmlns:gpxtpx="http://www.garmin.com/xmlschemas/TrackPointExtension/v1">
            <gpxtpx:hr>108</gpxtpx:hr>
          </gpxtpx:TrackPointExtension>
        </extensions>
      </trkpt>
      <trkpt lat="43.14957" lon="1.38811">
        <ele>339.8</ele>
        <time>2023-03-05T14:47:13Z</time>
        <extensions>
          <gpxtpx:TrackPointExtension xmlns:gpxtpx="http://www.garmin.com/xmlschemas/TrackPointExtension/v1">
            <gpxtpx:hr>109</gpxtpx:hr>
          </gpxtpx:TrackPointExtension>
        </extensions>
      </trkpt>
      <trkpt lat="43.14954" lon="1.38809">
        <ele>338.6</ele>
        <time>2023-03-05T14:47:14Z</time>
        <extensions>
          <gpxtpx:TrackPointExtension xmlns:gpxtpx="http://www.garmin.com/xmlschemas/TrackPointExtension/v1">
            <gpxtpx:hr>109</gpxtpx:hr>
          </gpxtpx:TrackPointExtension>
        </extensions>
      </trkpt>
      <trkpt lat="43.1495" lon="1.38806">
        <ele>338.2</ele>
        <time>2023-03-05T14:47:15Z</time>
        <extensions>
          <gpxtpx:TrackPointExtension xmlns:gpxtpx="http://www.garmin.com/xmlschemas/TrackPointExtension/v1">
            <gpxtpx:hr>109</gpxtpx:hr>
          </gpxtpx:TrackPointExtension>
        </extensions>
      </trkpt>
      <trkpt lat="43.14946" lon="1.38803">
        <ele>337.6</ele>
        <time>2023-03-05T14:47:16Z</time>
        <extensions>
          <gpxtpx:TrackPointExtension xmlns:gpxtpx="http://www.garmin.com/xmlschemas/TrackPointExtension/v1">
            <gpxtpx:hr>109</gpxtpx:hr>
          </gpxtpx:TrackPointExtension>
        </extensions>
      </trkpt>
      <trkpt lat="43.14941" lon="1.38799">
        <ele>337.2</ele>
        <time>2023-03-05T14:47:17Z</time>
        <extensions>
          <gpxtpx:TrackPointExtension xmlns:gpxtpx="http://www.garmin.com/xmlschemas/TrackPointExtension/v1">
            <gpxtpx:hr>109</gpxtpx:hr>
          </gpxtpx:TrackPointExtension>
        </extensions>
      </trkpt>
      <trkpt lat="43.14935" lon="1.38795">
        <ele>336.8</ele>
        <time>2023-03-05T14:47:18Z</time>
        <extensions>
          <gpxtpx:TrackPointExtension xmlns:gpxtpx="http://www.garmin.com/xmlschemas/TrackPointExtension/v1">
            <gpxtpx:hr>109</gpxtpx:hr>
          </gpxtpx:TrackPointExtension>
        </extensions>
      </trkpt>
      <trkpt lat="43.14928" lon="1.3879">
        <ele>336.2</ele>
        <time>2023-03-05T14:47:19Z</time>
        <extensions>
          <gpxtpx:TrackPointExtension xmlns:gpxtpx="http://www.garmin.com/xmlschemas/TrackPointExtension/v1">
            <gpxtpx:hr>109</gpxtpx:hr>
          </gpxtpx:TrackPointExtension>
        </extensions>
      </trkpt>
      <trkpt lat="43.14922" lon="1.38785">
        <ele>335</ele>
        <time>2023-03-05T14:47:20Z</time>
        <extensions>
          <gpxtpx:TrackPointExtension xmlns:gpxtpx="http://www.garmin.com/xmlschemas/TrackPointExtension/v1">
            <gpxtpx:hr>108</gpxtpx:hr>
          </gpxtpx:TrackPointExtension>
        </extensions>
      </trkpt>
      <trkpt lat="43.14916" lon="1.38779">
        <ele>334.2</ele>
        <time>2023-03-05T14:47:21Z</time>
        <extensions>
          <gpxtpx:TrackPointExtension xmlns:gpxtpx="http://www.garmin.com/xmlschemas/TrackPointExtension/v1">
            <gpxtpx:hr>107</gpxtpx:hr>
          </gpxtpx:TrackPointExtension>
        </extensions>
      </trkpt>
      <trkpt lat="43.14912" lon="1.38772">
        <ele>333.4</ele>
        <time>2023-03-05T14:47:22Z</time>
        <extensions>
          <gpxtpx:TrackPointExtension xmlns:gpxtpx="http://www.garmin.com/xmlschemas/TrackPointExtension/v1">
            <gpxtpx:hr>107</gpxtpx:hr>
          </gpxtpx:TrackPointExtension>
        </extensions>
      </trkpt>
      <trkpt lat="43.14909" lon="1.38763">
        <ele>332.6</ele>
        <time>2023-03-05T14:47:23Z</time>
        <extensions>
          <gpxtpx:TrackPointExtension xmlns:gpxtpx="http://www.garmin.com/xmlschemas/TrackPointExtension/v1">
            <gpxtpx:hr>107</gpxtpx:hr>
          </gpxtpx:TrackPointExtension>
        </extensions>
      </trkpt>
      <trkpt lat="43.14907" lon="1.38754">
        <ele>331.8</ele>
        <time>2023-03-05T14:47:24Z</time>
        <extensions>
          <gpxtpx:TrackPointExtension xmlns:gpxtpx="http://www.garmin.com/xmlschemas/TrackPointExtension/v1">
            <gpxtpx:hr>106</gpxtpx:hr>
          </gpxtpx:TrackPointExtension>
        </extensions>
      </trkpt>
      <trkpt lat="43.14905" lon="1.38745">
        <ele>331.2</ele>
        <time>2023-03-05T14:47:25Z</time>
        <extensions>
          <gpxtpx:TrackPointExtension xmlns:gpxtpx="http://www.garmin.com/xmlschemas/TrackPointExtension/v1">
            <gpxtpx:hr>106</gpxtpx:hr>
          </gpxtpx:TrackPointExtension>
        </extensions>
      </trkpt>
      <trkpt lat="43.14903" lon="1.38736">
        <ele>330.6</ele>
        <time>2023-03-05T14:47:26Z</time>
        <extensions>
          <gpxtpx:TrackPointExtension xmlns:gpxtpx="http://www.garmin.com/xmlschemas/TrackPointExtension/v1">
            <gpxtpx:hr>106</gpxtpx:hr>
          </gpxtpx:TrackPointExtension>
        </extensions>
      </trkpt>
      <trkpt lat="43.14902" lon="1.38727">
        <ele>330</ele>
        <time>2023-03-05T14:47:27Z</time>
        <extensions>
          <gpxtpx:TrackPointExtension xmlns:gpxtpx="http://www.garmin.com/xmlschemas/TrackPointExtension/v1">
            <gpxtpx:hr>105</gpxtpx:hr>
          </gpxtpx:TrackPointExtension>
        </extensions>
      </trkpt>
      <trkpt lat="43.149" lon="1.38718">
        <ele>329.2</ele>
        <time>2023-03-05T14:47:28Z</time>
        <extensions>
          <gpxtpx:TrackPointExtension xmlns:gpxtpx="http://www.garmin.com/xmlschemas/TrackPointExtension/v1">
            <gpxtpx:hr>104</gpxtpx:hr>
          </gpxtpx:TrackPointExtension>
        </extensions>
      </trkpt>
      <trkpt lat="43.14898" lon="1.38709">
        <ele>328.6</ele>
        <time>2023-03-05T14:47:29Z</time>
        <extensions>
          <gpxtpx:TrackPointExtension xmlns:gpxtpx="http://www.garmin.com/xmlschemas/TrackPointExtension/v1">
            <gpxtpx:hr>103</gpxtpx:hr>
          </gpxtpx:TrackPointExtension>
        </extensions>
      </trkpt>
      <trkpt lat="43.14893" lon="1.3869">
        <ele>328.2</ele>
        <time>2023-03-05T14:47:31Z</time>
        <extensions>
          <gpxtpx:TrackPointExtension xmlns:gpxtpx="http://www.garmin.com/xmlschemas/TrackPointExtension/v1">
            <gpxtpx:hr>102</gpxtpx:hr>
          </gpxtpx:TrackPointExtension>
        </extensions>
      </trkpt>
      <trkpt lat="43.1489" lon="1.38681">
        <ele>327.6</ele>
        <time>2023-03-05T14:47:32Z</time>
        <extensions>
          <gpxtpx:TrackPointExtension xmlns:gpxtpx="http://www.garmin.com/xmlschemas/TrackPointExtension/v1">
            <gpxtpx:hr>102</gpxtpx:hr>
          </gpxtpx:TrackPointExtension>
        </extensions>
      </trkpt>
      <trkpt lat="43.14886" lon="1.38673">
        <ele>327.2</ele>
        <time>2023-03-05T14:47:33Z</time>
        <extensions>
          <gpxtpx:TrackPointExtension xmlns:gpxtpx="http://www.garmin.com/xmlschemas/TrackPointExtension/v1">
            <gpxtpx:hr>102</gpxtpx:hr>
          </gpxtpx:TrackPointExtension>
        </extensions>
      </trkpt>
      <trkpt lat="43.14883" lon="1.38665">
        <ele>326.6</ele>
        <time>2023-03-05T14:47:34Z</time>
        <extensions>
          <gpxtpx:TrackPointExtension xmlns:gpxtpx="http://www.garmin.com/xmlschemas/TrackPointExtension/v1">
            <gpxtpx:hr>102</gpxtpx:hr>
          </gpxtpx:TrackPointExtension>
        </extensions>
      </trkpt>
      <trkpt lat="43.1488" lon="1.38657">
        <ele>326</ele>
        <time>2023-03-05T14:47:35Z</time>
        <extensions>
          <gpxtpx:TrackPointExtension xmlns:gpxtpx="http://www.garmin.com/xmlschemas/TrackPointExtension/v1">
            <gpxtpx:hr>102</gpxtpx:hr>
          </gpxtpx:TrackPointExtension>
        </extensions>
      </trkpt>
      <trkpt lat="43.14874" lon="1.38643">
        <ele>326</ele>
        <time>2023-03-05T14:47:37Z</time>
        <extensions>
          <gpxtpx:TrackPointExtension xmlns:gpxtpx="http://www.garmin.com/xmlschemas/TrackPointExtension/v1">
            <gpxtpx:hr>101</gpxtpx:hr>
          </gpxtpx:TrackPointExtension>
        </extensions>
      </trkpt>
      <trkpt lat="43.14859" lon="1.38595">
        <ele>326</ele>
        <time>2023-03-05T14:47:44Z</time>
        <extensions>
          <gpxtpx:TrackPointExtension xmlns:gpxtpx="http://www.garmin.com/xmlschemas/TrackPointExtension/v1">
            <gpxtpx:hr>102</gpxtpx:hr>
          </gpxtpx:TrackPointExtension>
        </extensions>
      </trkpt>
      <trkpt lat="43.14856" lon="1.38588">
        <ele>325.6</ele>
        <time>2023-03-05T14:47:45Z</time>
        <extensions>
          <gpxtpx:TrackPointExtension xmlns:gpxtpx="http://www.garmin.com/xmlschemas/TrackPointExtension/v1">
            <gpxtpx:hr>102</gpxtpx:hr>
          </gpxtpx:TrackPointExtension>
        </extensions>
      </trkpt>
      <trkpt lat="43.14852" lon="1.3858">
        <ele>325.2</ele>
        <time>2023-03-05T14:47:46Z</time>
        <extensions>
          <gpxtpx:TrackPointExtension xmlns:gpxtpx="http://www.garmin.com/xmlschemas/TrackPointExtension/v1">
            <gpxtpx:hr>102</gpxtpx:hr>
          </gpxtpx:TrackPointExtension>
        </extensions>
      </trkpt>
      <trkpt lat="43.14846" lon="1.38572">
        <ele>324.8</ele>
        <time>2023-03-05T14:47:47Z</time>
        <extensions>
          <gpxtpx:TrackPointExtension xmlns:gpxtpx="http://www.garmin.com/xmlschemas/TrackPointExtension/v1">
            <gpxtpx:hr>102</gpxtpx:hr>
          </gpxtpx:TrackPointExtension>
        </extensions>
      </trkpt>
      <trkpt lat="43.14841" lon="1.38565">
        <ele>324</ele>
        <time>2023-03-05T14:47:48Z</time>
        <extensions>
          <gpxtpx:TrackPointExtension xmlns:gpxtpx="http://www.garmin.com/xmlschemas/TrackPointExtension/v1">
            <gpxtpx:hr>101</gpxtpx:hr>
          </gpxtpx:TrackPointExtension>
        </extensions>
      </trkpt>
      <trkpt lat="43.14836" lon="1.38558">
        <ele>323.4</ele>
        <time>2023-03-05T14:47:49Z</time>
        <extensions>
          <gpxtpx:TrackPointExtension xmlns:gpxtpx="http://www.garmin.com/xmlschemas/TrackPointExtension/v1">
            <gpxtpx:hr>100</gpxtpx:hr>
          </gpxtpx:TrackPointExtension>
        </extensions>
      </trkpt>
      <trkpt lat="43.14831" lon="1.38551">
        <ele>322.4</ele>
        <time>2023-03-05T14:47:50Z</time>
        <extensions>
          <gpxtpx:TrackPointExtension xmlns:gpxtpx="http://www.garmin.com/xmlschemas/TrackPointExtension/v1">
            <gpxtpx:hr>100</gpxtpx:hr>
          </gpxtpx:TrackPointExtension>
        </extensions>
      </trkpt>
      <trkpt lat="43.14827" lon="1.38543">
        <ele>321.4</ele>
        <time>2023-03-05T14:47:51Z</time>
        <extensions>
          <gpxtpx:TrackPointExtension xmlns:gpxtpx="http://www.garmin.com/xmlschemas/TrackPointExtension/v1">
            <gpxtpx:hr>100</gpxtpx:hr>
          </gpxtpx:TrackPointExtension>
        </extensions>
      </trkpt>
      <trkpt lat="43.14822" lon="1.38535">
        <ele>320.4</ele>
        <time>2023-03-05T14:47:52Z</time>
        <extensions>
          <gpxtpx:TrackPointExtension xmlns:gpxtpx="http://www.garmin.com/xmlschemas/TrackPointExtension/v1">
            <gpxtpx:hr>100</gpxtpx:hr>
          </gpxtpx:TrackPointExtension>
        </extensions>
      </trkpt>
      <trkpt lat="43.14818" lon="1.38527">
        <ele>319.2</ele>
        <time>2023-03-05T14:47:53Z</time>
        <extensions>
          <gpxtpx:TrackPointExtension xmlns:gpxtpx="http://www.garmin.com/xmlschemas/TrackPointExtension/v1">
            <gpxtpx:hr>100</gpxtpx:hr>
          </gpxtpx:TrackPointExtension>
        </extensions>
      </trkpt>
      <trkpt lat="43.14813" lon="1.38519">
        <ele>318</ele>
        <time>2023-03-05T14:47:54Z</time>
        <extensions>
          <gpxtpx:TrackPointExtension xmlns:gpxtpx="http://www.garmin.com/xmlschemas/TrackPointExtension/v1">
            <gpxtpx:hr>100</gpxtpx:hr>
          </gpxtpx:TrackPointExtension>
        </extensions>
      </trkpt>
      <trkpt lat="43.14808" lon="1.3851">
        <ele>317</ele>
        <time>2023-03-05T14:47:55Z</time>
        <extensions>
          <gpxtpx:TrackPointExtension xmlns:gpxtpx="http://www.garmin.com/xmlschemas/TrackPointExtension/v1">
            <gpxtpx:hr>99</gpxtpx:hr>
          </gpxtpx:TrackPointExtension>
        </extensions>
      </trkpt>
      <trkpt lat="43.14802" lon="1.38502">
        <ele>316.2</ele>
        <time>2023-03-05T14:47:56Z</time>
        <extensions>
          <gpxtpx:TrackPointExtension xmlns:gpxtpx="http://www.garmin.com/xmlschemas/TrackPointExtension/v1">
            <gpxtpx:hr>99</gpxtpx:hr>
          </gpxtpx:TrackPointExtension>
        </extensions>
      </trkpt>
      <trkpt lat="43.14796" lon="1.38495">
        <ele>315.2</ele>
        <time>2023-03-05T14:47:57Z</time>
        <extensions>
          <gpxtpx:TrackPointExtension xmlns:gpxtpx="http://www.garmin.com/xmlschemas/TrackPointExtension/v1">
            <gpxtpx:hr>98</gpxtpx:hr>
          </gpxtpx:TrackPointExtension>
        </extensions>
      </trkpt>
      <trkpt lat="43.14788" lon="1.38488">
        <ele>314.2</ele>
        <time>2023-03-05T14:47:58Z</time>
        <extensions>
          <gpxtpx:TrackPointExtension xmlns:gpxtpx="http://www.garmin.com/xmlschemas/TrackPointExtension/v1">
            <gpxtpx:hr>98</gpxtpx:hr>
          </gpxtpx:TrackPointExtension>
        </extensions>
      </trkpt>
      <trkpt lat="43.14781" lon="1.38481">
        <ele>313.2</ele>
        <time>2023-03-05T14:47:59Z</time>
        <extensions>
          <gpxtpx:TrackPointExtension xmlns:gpxtpx="http://www.garmin.com/xmlschemas/TrackPointExtension/v1">
            <gpxtpx:hr>98</gpxtpx:hr>
          </gpxtpx:TrackPointExtension>
        </extensions>
      </trkpt>
      <trkpt lat="43.14775" lon="1.38474">
        <ele>312.2</ele>
        <time>2023-03-05T14:48:00Z</time>
        <extensions>
          <gpxtpx:TrackPointExtension xmlns:gpxtpx="http://www.garmin.com/xmlschemas/TrackPointExtension/v1">
            <gpxtpx:hr>98</gpxtpx:hr>
          </gpxtpx:TrackPointExtension>
        </extensions>
      </trkpt>
      <trkpt lat="43.14768" lon="1.38466">
        <ele>311.6</ele>
        <time>2023-03-05T14:48:01Z</time>
        <extensions>
          <gpxtpx:TrackPointExtension xmlns:gpxtpx="http://www.garmin.com/xmlschemas/TrackPointExtension/v1">
            <gpxtpx:hr>98</gpxtpx:hr>
          </gpxtpx:TrackPointExtension>
        </extensions>
      </trkpt>
      <trkpt lat="43.14762" lon="1.38459">
        <ele>311</ele>
        <time>2023-03-05T14:48:02Z</time>
        <extensions>
          <gpxtpx:TrackPointExtension xmlns:gpxtpx="http://www.garmin.com/xmlschemas/TrackPointExtension/v1">
            <gpxtpx:hr>92</gpxtpx:hr>
          </gpxtpx:TrackPointExtension>
        </extensions>
      </trkpt>
      <trkpt lat="43.14757" lon="1.38451">
        <ele>310.4</ele>
        <time>2023-03-05T14:48:03Z</time>
        <extensions>
          <gpxtpx:TrackPointExtension xmlns:gpxtpx="http://www.garmin.com/xmlschemas/TrackPointExtension/v1">
            <gpxtpx:hr>92</gpxtpx:hr>
          </gpxtpx:TrackPointExtension>
        </extensions>
      </trkpt>
      <trkpt lat="43.14752" lon="1.38442">
        <ele>309.8</ele>
        <time>2023-03-05T14:48:04Z</time>
        <extensions>
          <gpxtpx:TrackPointExtension xmlns:gpxtpx="http://www.garmin.com/xmlschemas/TrackPointExtension/v1">
            <gpxtpx:hr>93</gpxtpx:hr>
          </gpxtpx:TrackPointExtension>
        </extensions>
      </trkpt>
      <trkpt lat="43.14749" lon="1.38433">
        <ele>309.2</ele>
        <time>2023-03-05T14:48:05Z</time>
        <extensions>
          <gpxtpx:TrackPointExtension xmlns:gpxtpx="http://www.garmin.com/xmlschemas/TrackPointExtension/v1">
            <gpxtpx:hr>95</gpxtpx:hr>
          </gpxtpx:TrackPointExtension>
        </extensions>
      </trkpt>
      <trkpt lat="43.14743" lon="1.38405">
        <ele>308.8</ele>
        <time>2023-03-05T14:48:08Z</time>
        <extensions>
          <gpxtpx:TrackPointExtension xmlns:gpxtpx="http://www.garmin.com/xmlschemas/TrackPointExtension/v1">
            <gpxtpx:hr>97</gpxtpx:hr>
          </gpxtpx:TrackPointExtension>
        </extensions>
      </trkpt>
      <trkpt lat="43.14743" lon="1.38397">
        <ele>308.4</ele>
        <time>2023-03-05T14:48:09Z</time>
        <extensions>
          <gpxtpx:TrackPointExtension xmlns:gpxtpx="http://www.garmin.com/xmlschemas/TrackPointExtension/v1">
            <gpxtpx:hr>98</gpxtpx:hr>
          </gpxtpx:TrackPointExtension>
        </extensions>
      </trkpt>
      <trkpt lat="43.14746" lon="1.38389">
        <ele>307.4</ele>
        <time>2023-03-05T14:48:10Z</time>
        <extensions>
          <gpxtpx:TrackPointExtension xmlns:gpxtpx="http://www.garmin.com/xmlschemas/TrackPointExtension/v1">
            <gpxtpx:hr>98</gpxtpx:hr>
          </gpxtpx:TrackPointExtension>
        </extensions>
      </trkpt>
      <trkpt lat="43.14751" lon="1.38385">
        <ele>307</ele>
        <time>2023-03-05T14:48:11Z</time>
        <extensions>
          <gpxtpx:TrackPointExtension xmlns:gpxtpx="http://www.garmin.com/xmlschemas/TrackPointExtension/v1">
            <gpxtpx:hr>99</gpxtpx:hr>
          </gpxtpx:TrackPointExtension>
        </extensions>
      </trkpt>
      <trkpt lat="43.14759" lon="1.38383">
        <ele>307.4</ele>
        <time>2023-03-05T14:48:13Z</time>
        <extensions>
          <gpxtpx:TrackPointExtension xmlns:gpxtpx="http://www.garmin.com/xmlschemas/TrackPointExtension/v1">
            <gpxtpx:hr>99</gpxtpx:hr>
          </gpxtpx:TrackPointExtension>
        </extensions>
      </trkpt>
      <trkpt lat="43.14764" lon="1.38382">
        <ele>307.8</ele>
        <time>2023-03-05T14:48:14Z</time>
        <extensions>
          <gpxtpx:TrackPointExtension xmlns:gpxtpx="http://www.garmin.com/xmlschemas/TrackPointExtension/v1">
            <gpxtpx:hr>99</gpxtpx:hr>
          </gpxtpx:TrackPointExtension>
        </extensions>
      </trkpt>
      <trkpt lat="43.14767" lon="1.3838">
        <ele>308.2</ele>
        <time>2023-03-05T14:48:15Z</time>
        <extensions>
          <gpxtpx:TrackPointExtension xmlns:gpxtpx="http://www.garmin.com/xmlschemas/TrackPointExtension/v1">
            <gpxtpx:hr>99</gpxtpx:hr>
          </gpxtpx:TrackPointExtension>
        </extensions>
      </trkpt>
      <trkpt lat="43.1477" lon="1.38379">
        <ele>308.6</ele>
        <time>2023-03-05T14:48:16Z</time>
        <extensions>
          <gpxtpx:TrackPointExtension xmlns:gpxtpx="http://www.garmin.com/xmlschemas/TrackPointExtension/v1">
            <gpxtpx:hr>99</gpxtpx:hr>
          </gpxtpx:TrackPointExtension>
        </extensions>
      </trkpt>
      <trkpt lat="43.14773" lon="1.38377">
        <ele>309</ele>
        <time>2023-03-05T14:48:17Z</time>
        <extensions>
          <gpxtpx:TrackPointExtension xmlns:gpxtpx="http://www.garmin.com/xmlschemas/TrackPointExtension/v1">
            <gpxtpx:hr>98</gpxtpx:hr>
          </gpxtpx:TrackPointExtension>
        </extensions>
      </trkpt>
      <trkpt lat="43.14777" lon="1.38373">
        <ele>309</ele>
        <time>2023-03-05T14:48:19Z</time>
        <extensions>
          <gpxtpx:TrackPointExtension xmlns:gpxtpx="http://www.garmin.com/xmlschemas/TrackPointExtension/v1">
            <gpxtpx:hr>98</gpxtpx:hr>
          </gpxtpx:TrackPointExtension>
        </extensions>
      </trkpt>
      <trkpt lat="43.14781" lon="1.38368">
        <ele>309</ele>
        <time>2023-03-05T14:48:23Z</time>
        <extensions>
          <gpxtpx:TrackPointExtension xmlns:gpxtpx="http://www.garmin.com/xmlschemas/TrackPointExtension/v1">
            <gpxtpx:hr>98</gpxtpx:hr>
          </gpxtpx:TrackPointExtension>
        </extensions>
      </trkpt>
      <trkpt lat="43.14781" lon="1.38368">
        <ele>309</ele>
        <time>2023-03-05T14:48:24Z</time>
        <extensions>
          <gpxtpx:TrackPointExtension xmlns:gpxtpx="http://www.garmin.com/xmlschemas/TrackPointExtension/v1">
            <gpxtpx:hr>98</gpxtpx:hr>
          </gpxtpx:TrackPointExtension>
        </extensions>
      </trkpt>
      <trkpt lat="43.14782" lon="1.38367">
        <ele>309</ele>
        <time>2023-03-05T14:48:28Z</time>
        <extensions>
          <gpxtpx:TrackPointExtension xmlns:gpxtpx="http://www.garmin.com/xmlschemas/TrackPointExtension/v1">
            <gpxtpx:hr>100</gpxtpx:hr>
          </gpxtpx:TrackPointExtension>
        </extensions>
      </trkpt>
      <trkpt lat="43.14786" lon="1.38363">
        <ele>309</ele>
        <time>2023-03-05T14:48:30Z</time>
        <extensions>
          <gpxtpx:TrackPointExtension xmlns:gpxtpx="http://www.garmin.com/xmlschemas/TrackPointExtension/v1">
            <gpxtpx:hr>100</gpxtpx:hr>
          </gpxtpx:TrackPointExtension>
        </extensions>
      </trkpt>
      <trkpt lat="43.14791" lon="1.38357">
        <ele>309</ele>
        <time>2023-03-05T14:48:32Z</time>
        <extensions>
          <gpxtpx:TrackPointExtension xmlns:gpxtpx="http://www.garmin.com/xmlschemas/TrackPointExtension/v1">
            <gpxtpx:hr>94</gpxtpx:hr>
          </gpxtpx:TrackPointExtension>
        </extensions>
      </trkpt>
      <trkpt lat="43.14793" lon="1.38353">
        <ele>309</ele>
        <time>2023-03-05T14:48:33Z</time>
        <extensions>
          <gpxtpx:TrackPointExtension xmlns:gpxtpx="http://www.garmin.com/xmlschemas/TrackPointExtension/v1">
            <gpxtpx:hr>94</gpxtpx:hr>
          </gpxtpx:TrackPointExtension>
        </extensions>
      </trkpt>
      <trkpt lat="43.14804" lon="1.38338">
        <ele>309</ele>
        <time>2023-03-05T14:48:37Z</time>
        <extensions>
          <gpxtpx:TrackPointExtension xmlns:gpxtpx="http://www.garmin.com/xmlschemas/TrackPointExtension/v1">
            <gpxtpx:hr>96</gpxtpx:hr>
          </gpxtpx:TrackPointExtension>
        </extensions>
      </trkpt>
      <trkpt lat="43.14807" lon="1.38333">
        <ele>309</ele>
        <time>2023-03-05T14:48:38Z</time>
        <extensions>
          <gpxtpx:TrackPointExtension xmlns:gpxtpx="http://www.garmin.com/xmlschemas/TrackPointExtension/v1">
            <gpxtpx:hr>97</gpxtpx:hr>
          </gpxtpx:TrackPointExtension>
        </extensions>
      </trkpt>
      <trkpt lat="43.14814" lon="1.38325">
        <ele>309</ele>
        <time>2023-03-05T14:48:40Z</time>
        <extensions>
          <gpxtpx:TrackPointExtension xmlns:gpxtpx="http://www.garmin.com/xmlschemas/TrackPointExtension/v1">
            <gpxtpx:hr>101</gpxtpx:hr>
          </gpxtpx:TrackPointExtension>
        </extensions>
      </trkpt>
      <trkpt lat="43.1482" lon="1.38316">
        <ele>309</ele>
        <time>2023-03-05T14:48:42Z</time>
        <extensions>
          <gpxtpx:TrackPointExtension xmlns:gpxtpx="http://www.garmin.com/xmlschemas/TrackPointExtension/v1">
            <gpxtpx:hr>101</gpxtpx:hr>
          </gpxtpx:TrackPointExtension>
        </extensions>
      </trkpt>
      <trkpt lat="43.14824" lon="1.38306">
        <ele>309</ele>
        <time>2023-03-05T14:48:44Z</time>
        <extensions>
          <gpxtpx:TrackPointExtension xmlns:gpxtpx="http://www.garmin.com/xmlschemas/TrackPointExtension/v1">
            <gpxtpx:hr>101</gpxtpx:hr>
          </gpxtpx:TrackPointExtension>
        </extensions>
      </trkpt>
      <trkpt lat="43.14833" lon="1.38287">
        <ele>309</ele>
        <time>2023-03-05T14:48:48Z</time>
        <extensions>
          <gpxtpx:TrackPointExtension xmlns:gpxtpx="http://www.garmin.com/xmlschemas/TrackPointExtension/v1">
            <gpxtpx:hr>101</gpxtpx:hr>
          </gpxtpx:TrackPointExtension>
        </extensions>
      </trkpt>
      <trkpt lat="43.14848" lon="1.38252">
        <ele>309</ele>
        <time>2023-03-05T14:48:55Z</time>
        <extensions>
          <gpxtpx:TrackPointExtension xmlns:gpxtpx="http://www.garmin.com/xmlschemas/TrackPointExtension/v1">
            <gpxtpx:hr>101</gpxtpx:hr>
          </gpxtpx:TrackPointExtension>
        </extensions>
      </trkpt>
      <trkpt lat="43.14864" lon="1.38214">
        <ele>309</ele>
        <time>2023-03-05T14:49:02Z</time>
        <extensions>
          <gpxtpx:TrackPointExtension xmlns:gpxtpx="http://www.garmin.com/xmlschemas/TrackPointExtension/v1">
            <gpxtpx:hr>101</gpxtpx:hr>
          </gpxtpx:TrackPointExtension>
        </extensions>
      </trkpt>
      <trkpt lat="43.14871" lon="1.38192">
        <ele>309</ele>
        <time>2023-03-05T14:49:06Z</time>
        <extensions>
          <gpxtpx:TrackPointExtension xmlns:gpxtpx="http://www.garmin.com/xmlschemas/TrackPointExtension/v1">
            <gpxtpx:hr>101</gpxtpx:hr>
          </gpxtpx:TrackPointExtension>
        </extensions>
      </trkpt>
      <trkpt lat="43.14875" lon="1.38181">
        <ele>309</ele>
        <time>2023-03-05T14:49:08Z</time>
        <extensions>
          <gpxtpx:TrackPointExtension xmlns:gpxtpx="http://www.garmin.com/xmlschemas/TrackPointExtension/v1">
            <gpxtpx:hr>101</gpxtpx:hr>
          </gpxtpx:TrackPointExtension>
        </extensions>
      </trkpt>
      <trkpt lat="43.14884" lon="1.38158">
        <ele>309</ele>
        <time>2023-03-05T14:49:12Z</time>
        <extensions>
          <gpxtpx:TrackPointExtension xmlns:gpxtpx="http://www.garmin.com/xmlschemas/TrackPointExtension/v1">
            <gpxtpx:hr>101</gpxtpx:hr>
          </gpxtpx:TrackPointExtension>
        </extensions>
      </trkpt>
      <trkpt lat="43.14888" lon="1.38148">
        <ele>309</ele>
        <time>2023-03-05T14:49:14Z</time>
        <extensions>
          <gpxtpx:TrackPointExtension xmlns:gpxtpx="http://www.garmin.com/xmlschemas/TrackPointExtension/v1">
            <gpxtpx:hr>101</gpxtpx:hr>
          </gpxtpx:TrackPointExtension>
        </extensions>
      </trkpt>
      <trkpt lat="43.14897" lon="1.3812">
        <ele>309</ele>
        <time>2023-03-05T14:49:20Z</time>
        <extensions>
          <gpxtpx:TrackPointExtension xmlns:gpxtpx="http://www.garmin.com/xmlschemas/TrackPointExtension/v1">
            <gpxtpx:hr>101</gpxtpx:hr>
          </gpxtpx:TrackPointExtension>
        </extensions>
      </trkpt>
      <trkpt lat="43.14903" lon="1.38111">
        <ele>309</ele>
        <time>2023-03-05T14:49:25Z</time>
        <extensions>
          <gpxtpx:TrackPointExtension xmlns:gpxtpx="http://www.garmin.com/xmlschemas/TrackPointExtension/v1">
            <gpxtpx:hr>103</gpxtpx:hr>
          </gpxtpx:TrackPointExtension>
        </extensions>
      </trkpt>
      <trkpt lat="43.14902" lon="1.38101">
        <ele>309</ele>
        <time>2023-03-05T14:49:42Z</time>
        <extensions>
          <gpxtpx:TrackPointExtension xmlns:gpxtpx="http://www.garmin.com/xmlschemas/TrackPointExtension/v1">
            <gpxtpx:hr>109</gpxtpx:hr>
          </gpxtpx:TrackPointExtension>
        </extensions>
      </trkpt>
      <trkpt lat="43.14903" lon="1.38098">
        <ele>309</ele>
        <time>2023-03-05T14:49:43Z</time>
        <extensions>
          <gpxtpx:TrackPointExtension xmlns:gpxtpx="http://www.garmin.com/xmlschemas/TrackPointExtension/v1">
            <gpxtpx:hr>109</gpxtpx:hr>
          </gpxtpx:TrackPointExtension>
        </extensions>
      </trkpt>
      <trkpt lat="43.14904" lon="1.38094">
        <ele>309</ele>
        <time>2023-03-05T14:49:44Z</time>
        <extensions>
          <gpxtpx:TrackPointExtension xmlns:gpxtpx="http://www.garmin.com/xmlschemas/TrackPointExtension/v1">
            <gpxtpx:hr>109</gpxtpx:hr>
          </gpxtpx:TrackPointExtension>
        </extensions>
      </trkpt>
      <trkpt lat="43.14907" lon="1.38073">
        <ele>309</ele>
        <time>2023-03-05T14:49:48Z</time>
        <extensions>
          <gpxtpx:TrackPointExtension xmlns:gpxtpx="http://www.garmin.com/xmlschemas/TrackPointExtension/v1">
            <gpxtpx:hr>109</gpxtpx:hr>
          </gpxtpx:TrackPointExtension>
        </extensions>
      </trkpt>
      <trkpt lat="43.14908" lon="1.38068">
        <ele>309</ele>
        <time>2023-03-05T14:49:49Z</time>
        <extensions>
          <gpxtpx:TrackPointExtension xmlns:gpxtpx="http://www.garmin.com/xmlschemas/TrackPointExtension/v1">
            <gpxtpx:hr>109</gpxtpx:hr>
          </gpxtpx:TrackPointExtension>
        </extensions>
      </trkpt>
      <trkpt lat="43.1491" lon="1.38055">
        <ele>309</ele>
        <time>2023-03-05T14:49:51Z</time>
        <extensions>
          <gpxtpx:TrackPointExtension xmlns:gpxtpx="http://www.garmin.com/xmlschemas/TrackPointExtension/v1">
            <gpxtpx:hr>109</gpxtpx:hr>
          </gpxtpx:TrackPointExtension>
        </extensions>
      </trkpt>
      <trkpt lat="43.14911" lon="1.38034">
        <ele>309</ele>
        <time>2023-03-05T14:49:54Z</time>
        <extensions>
          <gpxtpx:TrackPointExtension xmlns:gpxtpx="http://www.garmin.com/xmlschemas/TrackPointExtension/v1">
            <gpxtpx:hr>109</gpxtpx:hr>
          </gpxtpx:TrackPointExtension>
        </extensions>
      </trkpt>
      <trkpt lat="43.14913" lon="1.37996">
        <ele>309</ele>
        <time>2023-03-05T14:50:00Z</time>
        <extensions>
          <gpxtpx:TrackPointExtension xmlns:gpxtpx="http://www.garmin.com/xmlschemas/TrackPointExtension/v1">
            <gpxtpx:hr>109</gpxtpx:hr>
          </gpxtpx:TrackPointExtension>
        </extensions>
      </trkpt>
      <trkpt lat="43.14915" lon="1.37966">
        <ele>309</ele>
        <time>2023-03-05T14:50:05Z</time>
        <extensions>
          <gpxtpx:TrackPointExtension xmlns:gpxtpx="http://www.garmin.com/xmlschemas/TrackPointExtension/v1">
            <gpxtpx:hr>109</gpxtpx:hr>
          </gpxtpx:TrackPointExtension>
        </extensions>
      </trkpt>
      <trkpt lat="43.14908" lon="1.37941">
        <ele>309</ele>
        <time>2023-03-05T14:50:09Z</time>
        <extensions>
          <gpxtpx:TrackPointExtension xmlns:gpxtpx="http://www.garmin.com/xmlschemas/TrackPointExtension/v1">
            <gpxtpx:hr>111</gpxtpx:hr>
          </gpxtpx:TrackPointExtension>
        </extensions>
      </trkpt>
      <trkpt lat="43.14906" lon="1.37936">
        <ele>309</ele>
        <time>2023-03-05T14:50:10Z</time>
        <extensions>
          <gpxtpx:TrackPointExtension xmlns:gpxtpx="http://www.garmin.com/xmlschemas/TrackPointExtension/v1">
            <gpxtpx:hr>112</gpxtpx:hr>
          </gpxtpx:TrackPointExtension>
        </extensions>
      </trkpt>
      <trkpt lat="43.14902" lon="1.37924">
        <ele>309</ele>
        <time>2023-03-05T14:50:12Z</time>
        <extensions>
          <gpxtpx:TrackPointExtension xmlns:gpxtpx="http://www.garmin.com/xmlschemas/TrackPointExtension/v1">
            <gpxtpx:hr>112</gpxtpx:hr>
          </gpxtpx:TrackPointExtension>
        </extensions>
      </trkpt>
      <trkpt lat="43.14902" lon="1.37911">
        <ele>309</ele>
        <time>2023-03-05T14:50:14Z</time>
        <extensions>
          <gpxtpx:TrackPointExtension xmlns:gpxtpx="http://www.garmin.com/xmlschemas/TrackPointExtension/v1">
            <gpxtpx:hr>112</gpxtpx:hr>
          </gpxtpx:TrackPointExtension>
        </extensions>
      </trkpt>
      <trkpt lat="43.14901" lon="1.37897">
        <ele>309</ele>
        <time>2023-03-05T14:50:16Z</time>
        <extensions>
          <gpxtpx:TrackPointExtension xmlns:gpxtpx="http://www.garmin.com/xmlschemas/TrackPointExtension/v1">
            <gpxtpx:hr>112</gpxtpx:hr>
          </gpxtpx:TrackPointExtension>
        </extensions>
      </trkpt>
      <trkpt lat="43.14901" lon="1.37891">
        <ele>309</ele>
        <time>2023-03-05T14:50:17Z</time>
        <extensions>
          <gpxtpx:TrackPointExtension xmlns:gpxtpx="http://www.garmin.com/xmlschemas/TrackPointExtension/v1">
            <gpxtpx:hr>112</gpxtpx:hr>
          </gpxtpx:TrackPointExtension>
        </extensions>
      </trkpt>
      <trkpt lat="43.14902" lon="1.37885">
        <ele>308.6</ele>
        <time>2023-03-05T14:50:18Z</time>
        <extensions>
          <gpxtpx:TrackPointExtension xmlns:gpxtpx="http://www.garmin.com/xmlschemas/TrackPointExtension/v1">
            <gpxtpx:hr>112</gpxtpx:hr>
          </gpxtpx:TrackPointExtension>
        </extensions>
      </trkpt>
      <trkpt lat="43.14903" lon="1.3788">
        <ele>308.2</ele>
        <time>2023-03-05T14:50:19Z</time>
        <extensions>
          <gpxtpx:TrackPointExtension xmlns:gpxtpx="http://www.garmin.com/xmlschemas/TrackPointExtension/v1">
            <gpxtpx:hr>112</gpxtpx:hr>
          </gpxtpx:TrackPointExtension>
        </extensions>
      </trkpt>
      <trkpt lat="43.14906" lon="1.37876">
        <ele>307.8</ele>
        <time>2023-03-05T14:50:20Z</time>
        <extensions>
          <gpxtpx:TrackPointExtension xmlns:gpxtpx="http://www.garmin.com/xmlschemas/TrackPointExtension/v1">
            <gpxtpx:hr>112</gpxtpx:hr>
          </gpxtpx:TrackPointExtension>
        </extensions>
      </trkpt>
      <trkpt lat="43.14909" lon="1.37871">
        <ele>307.4</ele>
        <time>2023-03-05T14:50:21Z</time>
        <extensions>
          <gpxtpx:TrackPointExtension xmlns:gpxtpx="http://www.garmin.com/xmlschemas/TrackPointExtension/v1">
            <gpxtpx:hr>112</gpxtpx:hr>
          </gpxtpx:TrackPointExtension>
        </extensions>
      </trkpt>
      <trkpt lat="43.14912" lon="1.37866">
        <ele>307</ele>
        <time>2023-03-05T14:50:22Z</time>
        <extensions>
          <gpxtpx:TrackPointExtension xmlns:gpxtpx="http://www.garmin.com/xmlschemas/TrackPointExtension/v1">
            <gpxtpx:hr>112</gpxtpx:hr>
          </gpxtpx:TrackPointExtension>
        </extensions>
      </trkpt>
      <trkpt lat="43.14916" lon="1.37862">
        <ele>307</ele>
        <time>2023-03-05T14:50:23Z</time>
        <extensions>
          <gpxtpx:TrackPointExtension xmlns:gpxtpx="http://www.garmin.com/xmlschemas/TrackPointExtension/v1">
            <gpxtpx:hr>112</gpxtpx:hr>
          </gpxtpx:TrackPointExtension>
        </extensions>
      </trkpt>
      <trkpt lat="43.14932" lon="1.37849">
        <ele>307</ele>
        <time>2023-03-05T14:50:27Z</time>
        <extensions>
          <gpxtpx:TrackPointExtension xmlns:gpxtpx="http://www.garmin.com/xmlschemas/TrackPointExtension/v1">
            <gpxtpx:hr>112</gpxtpx:hr>
          </gpxtpx:TrackPointExtension>
        </extensions>
      </trkpt>
      <trkpt lat="43.14935" lon="1.37846">
        <ele>307.4</ele>
        <time>2023-03-05T14:50:28Z</time>
        <extensions>
          <gpxtpx:TrackPointExtension xmlns:gpxtpx="http://www.garmin.com/xmlschemas/TrackPointExtension/v1">
            <gpxtpx:hr>112</gpxtpx:hr>
          </gpxtpx:TrackPointExtension>
        </extensions>
      </trkpt>
      <trkpt lat="43.14937" lon="1.37842">
        <ele>307.8</ele>
        <time>2023-03-05T14:50:29Z</time>
        <extensions>
          <gpxtpx:TrackPointExtension xmlns:gpxtpx="http://www.garmin.com/xmlschemas/TrackPointExtension/v1">
            <gpxtpx:hr>112</gpxtpx:hr>
          </gpxtpx:TrackPointExtension>
        </extensions>
      </trkpt>
      <trkpt lat="43.1494" lon="1.37839">
        <ele>308.2</ele>
        <time>2023-03-05T14:50:30Z</time>
        <extensions>
          <gpxtpx:TrackPointExtension xmlns:gpxtpx="http://www.garmin.com/xmlschemas/TrackPointExtension/v1">
            <gpxtpx:hr>112</gpxtpx:hr>
          </gpxtpx:TrackPointExtension>
        </extensions>
      </trkpt>
      <trkpt lat="43.14942" lon="1.37836">
        <ele>308.6</ele>
        <time>2023-03-05T14:50:31Z</time>
        <extensions>
          <gpxtpx:TrackPointExtension xmlns:gpxtpx="http://www.garmin.com/xmlschemas/TrackPointExtension/v1">
            <gpxtpx:hr>105</gpxtpx:hr>
          </gpxtpx:TrackPointExtension>
        </extensions>
      </trkpt>
      <trkpt lat="43.14944" lon="1.37833">
        <ele>309</ele>
        <time>2023-03-05T14:50:32Z</time>
        <extensions>
          <gpxtpx:TrackPointExtension xmlns:gpxtpx="http://www.garmin.com/xmlschemas/TrackPointExtension/v1">
            <gpxtpx:hr>105</gpxtpx:hr>
          </gpxtpx:TrackPointExtension>
        </extensions>
      </trkpt>
      <trkpt lat="43.14946" lon="1.3783">
        <ele>309</ele>
        <time>2023-03-05T14:50:33Z</time>
        <extensions>
          <gpxtpx:TrackPointExtension xmlns:gpxtpx="http://www.garmin.com/xmlschemas/TrackPointExtension/v1">
            <gpxtpx:hr>105</gpxtpx:hr>
          </gpxtpx:TrackPointExtension>
        </extensions>
      </trkpt>
      <trkpt lat="43.14952" lon="1.37822">
        <ele>309</ele>
        <time>2023-03-05T14:50:35Z</time>
        <extensions>
          <gpxtpx:TrackPointExtension xmlns:gpxtpx="http://www.garmin.com/xmlschemas/TrackPointExtension/v1">
            <gpxtpx:hr>108</gpxtpx:hr>
          </gpxtpx:TrackPointExtension>
        </extensions>
      </trkpt>
      <trkpt lat="43.14957" lon="1.37812">
        <ele>309</ele>
        <time>2023-03-05T14:50:37Z</time>
        <extensions>
          <gpxtpx:TrackPointExtension xmlns:gpxtpx="http://www.garmin.com/xmlschemas/TrackPointExtension/v1">
            <gpxtpx:hr>109</gpxtpx:hr>
          </gpxtpx:TrackPointExtension>
        </extensions>
      </trkpt>
      <trkpt lat="43.14959" lon="1.37807">
        <ele>309</ele>
        <time>2023-03-05T14:50:38Z</time>
        <extensions>
          <gpxtpx:TrackPointExtension xmlns:gpxtpx="http://www.garmin.com/xmlschemas/TrackPointExtension/v1">
            <gpxtpx:hr>109</gpxtpx:hr>
          </gpxtpx:TrackPointExtension>
        </extensions>
      </trkpt>
      <trkpt lat="43.14967" lon="1.3778">
        <ele>309</ele>
        <time>2023-03-05T14:50:43Z</time>
        <extensions>
          <gpxtpx:TrackPointExtension xmlns:gpxtpx="http://www.garmin.com/xmlschemas/TrackPointExtension/v1">
            <gpxtpx:hr>109</gpxtpx:hr>
          </gpxtpx:TrackPointExtension>
        </extensions>
      </trkpt>
      <trkpt lat="43.14973" lon="1.37751">
        <ele>309</ele>
        <time>2023-03-05T14:50:47Z</time>
        <extensions>
          <gpxtpx:TrackPointExtension xmlns:gpxtpx="http://www.garmin.com/xmlschemas/TrackPointExtension/v1">
            <gpxtpx:hr>111</gpxtpx:hr>
          </gpxtpx:TrackPointExtension>
        </extensions>
      </trkpt>
      <trkpt lat="43.14975" lon="1.37737">
        <ele>309</ele>
        <time>2023-03-05T14:50:49Z</time>
        <extensions>
          <gpxtpx:TrackPointExtension xmlns:gpxtpx="http://www.garmin.com/xmlschemas/TrackPointExtension/v1">
            <gpxtpx:hr>111</gpxtpx:hr>
          </gpxtpx:TrackPointExtension>
        </extensions>
      </trkpt>
      <trkpt lat="43.14976" lon="1.37712">
        <ele>309</ele>
        <time>2023-03-05T14:50:52Z</time>
        <extensions>
          <gpxtpx:TrackPointExtension xmlns:gpxtpx="http://www.garmin.com/xmlschemas/TrackPointExtension/v1">
            <gpxtpx:hr>111</gpxtpx:hr>
          </gpxtpx:TrackPointExtension>
        </extensions>
      </trkpt>
      <trkpt lat="43.14976" lon="1.37666">
        <ele>309</ele>
        <time>2023-03-05T14:50:58Z</time>
        <extensions>
          <gpxtpx:TrackPointExtension xmlns:gpxtpx="http://www.garmin.com/xmlschemas/TrackPointExtension/v1">
            <gpxtpx:hr>111</gpxtpx:hr>
          </gpxtpx:TrackPointExtension>
        </extensions>
      </trkpt>
      <trkpt lat="43.14975" lon="1.3764">
        <ele>309</ele>
        <time>2023-03-05T14:51:02Z</time>
        <extensions>
          <gpxtpx:TrackPointExtension xmlns:gpxtpx="http://www.garmin.com/xmlschemas/TrackPointExtension/v1">
            <gpxtpx:hr>112</gpxtpx:hr>
          </gpxtpx:TrackPointExtension>
        </extensions>
      </trkpt>
      <trkpt lat="43.14975" lon="1.37634">
        <ele>309</ele>
        <time>2023-03-05T14:51:03Z</time>
        <extensions>
          <gpxtpx:TrackPointExtension xmlns:gpxtpx="http://www.garmin.com/xmlschemas/TrackPointExtension/v1">
            <gpxtpx:hr>112</gpxtpx:hr>
          </gpxtpx:TrackPointExtension>
        </extensions>
      </trkpt>
      <trkpt lat="43.14978" lon="1.37604">
        <ele>309</ele>
        <time>2023-03-05T14:51:09Z</time>
        <extensions>
          <gpxtpx:TrackPointExtension xmlns:gpxtpx="http://www.garmin.com/xmlschemas/TrackPointExtension/v1">
            <gpxtpx:hr>112</gpxtpx:hr>
          </gpxtpx:TrackPointExtension>
        </extensions>
      </trkpt>
      <trkpt lat="43.14979" lon="1.37601">
        <ele>309</ele>
        <time>2023-03-05T14:51:11Z</time>
        <extensions>
          <gpxtpx:TrackPointExtension xmlns:gpxtpx="http://www.garmin.com/xmlschemas/TrackPointExtension/v1">
            <gpxtpx:hr>105</gpxtpx:hr>
          </gpxtpx:TrackPointExtension>
        </extensions>
      </trkpt>
      <trkpt lat="43.14981" lon="1.37601">
        <ele>309</ele>
        <time>2023-03-05T14:51:12Z</time>
        <extensions>
          <gpxtpx:TrackPointExtension xmlns:gpxtpx="http://www.garmin.com/xmlschemas/TrackPointExtension/v1">
            <gpxtpx:hr>105</gpxtpx:hr>
          </gpxtpx:TrackPointExtension>
        </extensions>
      </trkpt>
      <trkpt lat="43.14992" lon="1.37605">
        <ele>309</ele>
        <time>2023-03-05T14:51:16Z</time>
        <extensions>
          <gpxtpx:TrackPointExtension xmlns:gpxtpx="http://www.garmin.com/xmlschemas/TrackPointExtension/v1">
            <gpxtpx:hr>109</gpxtpx:hr>
          </gpxtpx:TrackPointExtension>
        </extensions>
      </trkpt>
      <trkpt lat="43.15014" lon="1.3761">
        <ele>309</ele>
        <time>2023-03-05T14:51:21Z</time>
        <extensions>
          <gpxtpx:TrackPointExtension xmlns:gpxtpx="http://www.garmin.com/xmlschemas/TrackPointExtension/v1">
            <gpxtpx:hr>112</gpxtpx:hr>
          </gpxtpx:TrackPointExtension>
        </extensions>
      </trkpt>
      <trkpt lat="43.15018" lon="1.37611">
        <ele>309</ele>
        <time>2023-03-05T14:51:22Z</time>
        <extensions>
          <gpxtpx:TrackPointExtension xmlns:gpxtpx="http://www.garmin.com/xmlschemas/TrackPointExtension/v1">
            <gpxtpx:hr>112</gpxtpx:hr>
          </gpxtpx:TrackPointExtension>
        </extensions>
      </trkpt>
      <trkpt lat="43.15044" lon="1.37619">
        <ele>309</ele>
        <time>2023-03-05T14:51:29Z</time>
        <extensions>
          <gpxtpx:TrackPointExtension xmlns:gpxtpx="http://www.garmin.com/xmlschemas/TrackPointExtension/v1">
            <gpxtpx:hr>113</gpxtpx:hr>
          </gpxtpx:TrackPointExtension>
        </extensions>
      </trkpt>
      <trkpt lat="43.15065" lon="1.37621">
        <ele>309</ele>
        <time>2023-03-05T14:51:35Z</time>
        <extensions>
          <gpxtpx:TrackPointExtension xmlns:gpxtpx="http://www.garmin.com/xmlschemas/TrackPointExtension/v1">
            <gpxtpx:hr>112</gpxtpx:hr>
          </gpxtpx:TrackPointExtension>
        </extensions>
      </trkpt>
      <trkpt lat="43.15067" lon="1.37621">
        <ele>309</ele>
        <time>2023-03-05T14:51:38Z</time>
        <extensions>
          <gpxtpx:TrackPointExtension xmlns:gpxtpx="http://www.garmin.com/xmlschemas/TrackPointExtension/v1">
            <gpxtpx:hr>112</gpxtpx:hr>
          </gpxtpx:TrackPointExtension>
        </extensions>
      </trkpt>
      <trkpt lat="43.1507" lon="1.37624">
        <ele>309</ele>
        <time>2023-03-05T14:53:00Z</time>
        <extensions>
          <gpxtpx:TrackPointExtension xmlns:gpxtpx="http://www.garmin.com/xmlschemas/TrackPointExtension/v1">
            <gpxtpx:hr>108</gpxtpx:hr>
          </gpxtpx:TrackPointExtension>
        </extensions>
      </trkpt>
      <trkpt lat="43.15079" lon="1.37627">
        <ele>309</ele>
        <time>2023-03-05T14:53:05Z</time>
        <extensions>
          <gpxtpx:TrackPointExtension xmlns:gpxtpx="http://www.garmin.com/xmlschemas/TrackPointExtension/v1">
            <gpxtpx:hr>108</gpxtpx:hr>
          </gpxtpx:TrackPointExtension>
        </extensions>
      </trkpt>
      <trkpt lat="43.15082" lon="1.37629">
        <ele>309</ele>
        <time>2023-03-05T14:53:06Z</time>
        <extensions>
          <gpxtpx:TrackPointExtension xmlns:gpxtpx="http://www.garmin.com/xmlschemas/TrackPointExtension/v1">
            <gpxtpx:hr>107</gpxtpx:hr>
          </gpxtpx:TrackPointExtension>
        </extensions>
      </trkpt>
      <trkpt lat="43.15093" lon="1.37632">
        <ele>309</ele>
        <time>2023-03-05T14:53:09Z</time>
        <extensions>
          <gpxtpx:TrackPointExtension xmlns:gpxtpx="http://www.garmin.com/xmlschemas/TrackPointExtension/v1">
            <gpxtpx:hr>107</gpxtpx:hr>
          </gpxtpx:TrackPointExtension>
        </extensions>
      </trkpt>
      <trkpt lat="43.15098" lon="1.37631">
        <ele>309</ele>
        <time>2023-03-05T14:53:10Z</time>
        <extensions>
          <gpxtpx:TrackPointExtension xmlns:gpxtpx="http://www.garmin.com/xmlschemas/TrackPointExtension/v1">
            <gpxtpx:hr>107</gpxtpx:hr>
          </gpxtpx:TrackPointExtension>
        </extensions>
      </trkpt>
      <trkpt lat="43.15118" lon="1.37635">
        <ele>309</ele>
        <time>2023-03-05T14:53:14Z</time>
        <extensions>
          <gpxtpx:TrackPointExtension xmlns:gpxtpx="http://www.garmin.com/xmlschemas/TrackPointExtension/v1">
            <gpxtpx:hr>107</gpxtpx:hr>
          </gpxtpx:TrackPointExtension>
        </extensions>
      </trkpt>
      <trkpt lat="43.15122" lon="1.37636">
        <ele>309</ele>
        <time>2023-03-05T14:53:15Z</time>
        <extensions>
          <gpxtpx:TrackPointExtension xmlns:gpxtpx="http://www.garmin.com/xmlschemas/TrackPointExtension/v1">
            <gpxtpx:hr>107</gpxtpx:hr>
          </gpxtpx:TrackPointExtension>
        </extensions>
      </trkpt>
      <trkpt lat="43.15148" lon="1.37644">
        <ele>309</ele>
        <time>2023-03-05T14:53:20Z</time>
        <extensions>
          <gpxtpx:TrackPointExtension xmlns:gpxtpx="http://www.garmin.com/xmlschemas/TrackPointExtension/v1">
            <gpxtpx:hr>107</gpxtpx:hr>
          </gpxtpx:TrackPointExtension>
        </extensions>
      </trkpt>
      <trkpt lat="43.15153" lon="1.37643">
        <ele>309</ele>
        <time>2023-03-05T14:53:21Z</time>
        <extensions>
          <gpxtpx:TrackPointExtension xmlns:gpxtpx="http://www.garmin.com/xmlschemas/TrackPointExtension/v1">
            <gpxtpx:hr>107</gpxtpx:hr>
          </gpxtpx:TrackPointExtension>
        </extensions>
      </trkpt>
      <trkpt lat="43.15159" lon="1.3764">
        <ele>309</ele>
        <time>2023-03-05T14:53:23Z</time>
        <extensions>
          <gpxtpx:TrackPointExtension xmlns:gpxtpx="http://www.garmin.com/xmlschemas/TrackPointExtension/v1">
            <gpxtpx:hr>107</gpxtpx:hr>
          </gpxtpx:TrackPointExtension>
        </extensions>
      </trkpt>
      <trkpt lat="43.15167" lon="1.37638">
        <ele>309</ele>
        <time>2023-03-05T14:53:25Z</time>
        <extensions>
          <gpxtpx:TrackPointExtension xmlns:gpxtpx="http://www.garmin.com/xmlschemas/TrackPointExtension/v1">
            <gpxtpx:hr>107</gpxtpx:hr>
          </gpxtpx:TrackPointExtension>
        </extensions>
      </trkpt>
      <trkpt lat="43.15176" lon="1.37633">
        <ele>309</ele>
        <time>2023-03-05T14:53:27Z</time>
        <extensions>
          <gpxtpx:TrackPointExtension xmlns:gpxtpx="http://www.garmin.com/xmlschemas/TrackPointExtension/v1">
            <gpxtpx:hr>109</gpxtpx:hr>
          </gpxtpx:TrackPointExtension>
        </extensions>
      </trkpt>
      <trkpt lat="43.1518" lon="1.3762">
        <ele>309</ele>
        <time>2023-03-05T14:53:30Z</time>
        <extensions>
          <gpxtpx:TrackPointExtension xmlns:gpxtpx="http://www.garmin.com/xmlschemas/TrackPointExtension/v1">
            <gpxtpx:hr>110</gpxtpx:hr>
          </gpxtpx:TrackPointExtension>
        </extensions>
      </trkpt>
      <trkpt lat="43.15181" lon="1.37605">
        <ele>309</ele>
        <time>2023-03-05T14:53:33Z</time>
        <extensions>
          <gpxtpx:TrackPointExtension xmlns:gpxtpx="http://www.garmin.com/xmlschemas/TrackPointExtension/v1">
            <gpxtpx:hr>110</gpxtpx:hr>
          </gpxtpx:TrackPointExtension>
        </extensions>
      </trkpt>
      <trkpt lat="43.15182" lon="1.37589">
        <ele>309</ele>
        <time>2023-03-05T14:53:36Z</time>
        <extensions>
          <gpxtpx:TrackPointExtension xmlns:gpxtpx="http://www.garmin.com/xmlschemas/TrackPointExtension/v1">
            <gpxtpx:hr>110</gpxtpx:hr>
          </gpxtpx:TrackPointExtension>
        </extensions>
      </trkpt>
      <trkpt lat="43.15183" lon="1.37566">
        <ele>309</ele>
        <time>2023-03-05T14:53:41Z</time>
        <extensions>
          <gpxtpx:TrackPointExtension xmlns:gpxtpx="http://www.garmin.com/xmlschemas/TrackPointExtension/v1">
            <gpxtpx:hr>110</gpxtpx:hr>
          </gpxtpx:TrackPointExtension>
        </extensions>
      </trkpt>
      <trkpt lat="43.15183" lon="1.37552">
        <ele>309</ele>
        <time>2023-03-05T14:53:46Z</time>
        <extensions>
          <gpxtpx:TrackPointExtension xmlns:gpxtpx="http://www.garmin.com/xmlschemas/TrackPointExtension/v1">
            <gpxtpx:hr>110</gpxtpx:hr>
          </gpxtpx:TrackPointExtension>
        </extensions>
      </trkpt>
      <trkpt lat="43.15182" lon="1.37536">
        <ele>309</ele>
        <time>2023-03-05T14:53:51Z</time>
        <extensions>
          <gpxtpx:TrackPointExtension xmlns:gpxtpx="http://www.garmin.com/xmlschemas/TrackPointExtension/v1">
            <gpxtpx:hr>110</gpxtpx:hr>
          </gpxtpx:TrackPointExtension>
        </extensions>
      </trkpt>
      <trkpt lat="43.15182" lon="1.37523">
        <ele>308.6</ele>
        <time>2023-03-05T14:53:53Z</time>
        <extensions>
          <gpxtpx:TrackPointExtension xmlns:gpxtpx="http://www.garmin.com/xmlschemas/TrackPointExtension/v1">
            <gpxtpx:hr>111</gpxtpx:hr>
          </gpxtpx:TrackPointExtension>
        </extensions>
      </trkpt>
      <trkpt lat="43.15182" lon="1.37517">
        <ele>308.2</ele>
        <time>2023-03-05T14:53:54Z</time>
        <extensions>
          <gpxtpx:TrackPointExtension xmlns:gpxtpx="http://www.garmin.com/xmlschemas/TrackPointExtension/v1">
            <gpxtpx:hr>111</gpxtpx:hr>
          </gpxtpx:TrackPointExtension>
        </extensions>
      </trkpt>
      <trkpt lat="43.15182" lon="1.37512">
        <ele>307.8</ele>
        <time>2023-03-05T14:53:55Z</time>
        <extensions>
          <gpxtpx:TrackPointExtension xmlns:gpxtpx="http://www.garmin.com/xmlschemas/TrackPointExtension/v1">
            <gpxtpx:hr>111</gpxtpx:hr>
          </gpxtpx:TrackPointExtension>
        </extensions>
      </trkpt>
      <trkpt lat="43.15182" lon="1.37507">
        <ele>307.4</ele>
        <time>2023-03-05T14:53:56Z</time>
        <extensions>
          <gpxtpx:TrackPointExtension xmlns:gpxtpx="http://www.garmin.com/xmlschemas/TrackPointExtension/v1">
            <gpxtpx:hr>111</gpxtpx:hr>
          </gpxtpx:TrackPointExtension>
        </extensions>
      </trkpt>
      <trkpt lat="43.15182" lon="1.37502">
        <ele>307</ele>
        <time>2023-03-05T14:53:57Z</time>
        <extensions>
          <gpxtpx:TrackPointExtension xmlns:gpxtpx="http://www.garmin.com/xmlschemas/TrackPointExtension/v1">
            <gpxtpx:hr>111</gpxtpx:hr>
          </gpxtpx:TrackPointExtension>
        </extensions>
      </trkpt>
      <trkpt lat="43.15182" lon="1.37491">
        <ele>307</ele>
        <time>2023-03-05T14:53:59Z</time>
        <extensions>
          <gpxtpx:TrackPointExtension xmlns:gpxtpx="http://www.garmin.com/xmlschemas/TrackPointExtension/v1">
            <gpxtpx:hr>105</gpxtpx:hr>
          </gpxtpx:TrackPointExtension>
        </extensions>
      </trkpt>
      <trkpt lat="43.15182" lon="1.37486">
        <ele>307</ele>
        <time>2023-03-05T14:54:00Z</time>
        <extensions>
          <gpxtpx:TrackPointExtension xmlns:gpxtpx="http://www.garmin.com/xmlschemas/TrackPointExtension/v1">
            <gpxtpx:hr>105</gpxtpx:hr>
          </gpxtpx:TrackPointExtension>
        </extensions>
      </trkpt>
      <trkpt lat="43.15182" lon="1.37476">
        <ele>307</ele>
        <time>2023-03-05T14:54:02Z</time>
        <extensions>
          <gpxtpx:TrackPointExtension xmlns:gpxtpx="http://www.garmin.com/xmlschemas/TrackPointExtension/v1">
            <gpxtpx:hr>105</gpxtpx:hr>
          </gpxtpx:TrackPointExtension>
        </extensions>
      </trkpt>
      <trkpt lat="43.15182" lon="1.37454">
        <ele>307</ele>
        <time>2023-03-05T14:54:07Z</time>
        <extensions>
          <gpxtpx:TrackPointExtension xmlns:gpxtpx="http://www.garmin.com/xmlschemas/TrackPointExtension/v1">
            <gpxtpx:hr>105</gpxtpx:hr>
          </gpxtpx:TrackPointExtension>
        </extensions>
      </trkpt>
      <trkpt lat="43.15182" lon="1.37435">
        <ele>307</ele>
        <time>2023-03-05T14:54:11Z</time>
        <extensions>
          <gpxtpx:TrackPointExtension xmlns:gpxtpx="http://www.garmin.com/xmlschemas/TrackPointExtension/v1">
            <gpxtpx:hr>98</gpxtpx:hr>
          </gpxtpx:TrackPointExtension>
        </extensions>
      </trkpt>
      <trkpt lat="43.15183" lon="1.3743">
        <ele>307</ele>
        <time>2023-03-05T14:54:12Z</time>
        <extensions>
          <gpxtpx:TrackPointExtension xmlns:gpxtpx="http://www.garmin.com/xmlschemas/TrackPointExtension/v1">
            <gpxtpx:hr>93</gpxtpx:hr>
          </gpxtpx:TrackPointExtension>
        </extensions>
      </trkpt>
      <trkpt lat="43.15182" lon="1.37425">
        <ele>307</ele>
        <time>2023-03-05T14:54:13Z</time>
        <extensions>
          <gpxtpx:TrackPointExtension xmlns:gpxtpx="http://www.garmin.com/xmlschemas/TrackPointExtension/v1">
            <gpxtpx:hr>93</gpxtpx:hr>
          </gpxtpx:TrackPointExtension>
        </extensions>
      </trkpt>
      <trkpt lat="43.15182" lon="1.37413">
        <ele>307</ele>
        <time>2023-03-05T14:54:15Z</time>
        <extensions>
          <gpxtpx:TrackPointExtension xmlns:gpxtpx="http://www.garmin.com/xmlschemas/TrackPointExtension/v1">
            <gpxtpx:hr>93</gpxtpx:hr>
          </gpxtpx:TrackPointExtension>
        </extensions>
      </trkpt>
      <trkpt lat="43.15181" lon="1.37401">
        <ele>307</ele>
        <time>2023-03-05T14:54:17Z</time>
        <extensions>
          <gpxtpx:TrackPointExtension xmlns:gpxtpx="http://www.garmin.com/xmlschemas/TrackPointExtension/v1">
            <gpxtpx:hr>93</gpxtpx:hr>
          </gpxtpx:TrackPointExtension>
        </extensions>
      </trkpt>
      <trkpt lat="43.15177" lon="1.37378">
        <ele>307</ele>
        <time>2023-03-05T14:54:21Z</time>
        <extensions>
          <gpxtpx:TrackPointExtension xmlns:gpxtpx="http://www.garmin.com/xmlschemas/TrackPointExtension/v1">
            <gpxtpx:hr>93</gpxtpx:hr>
          </gpxtpx:TrackPointExtension>
        </extensions>
      </trkpt>
      <trkpt lat="43.1517" lon="1.37348">
        <ele>307</ele>
        <time>2023-03-05T14:54:27Z</time>
        <extensions>
          <gpxtpx:TrackPointExtension xmlns:gpxtpx="http://www.garmin.com/xmlschemas/TrackPointExtension/v1">
            <gpxtpx:hr>93</gpxtpx:hr>
          </gpxtpx:TrackPointExtension>
        </extensions>
      </trkpt>
      <trkpt lat="43.15164" lon="1.37325">
        <ele>307</ele>
        <time>2023-03-05T14:54:32Z</time>
        <extensions>
          <gpxtpx:TrackPointExtension xmlns:gpxtpx="http://www.garmin.com/xmlschemas/TrackPointExtension/v1">
            <gpxtpx:hr>97</gpxtpx:hr>
          </gpxtpx:TrackPointExtension>
        </extensions>
      </trkpt>
      <trkpt lat="43.15163" lon="1.3732">
        <ele>307</ele>
        <time>2023-03-05T14:54:33Z</time>
        <extensions>
          <gpxtpx:TrackPointExtension xmlns:gpxtpx="http://www.garmin.com/xmlschemas/TrackPointExtension/v1">
            <gpxtpx:hr>99</gpxtpx:hr>
          </gpxtpx:TrackPointExtension>
        </extensions>
      </trkpt>
      <trkpt lat="43.15159" lon="1.37297">
        <ele>307</ele>
        <time>2023-03-05T14:54:37Z</time>
        <extensions>
          <gpxtpx:TrackPointExtension xmlns:gpxtpx="http://www.garmin.com/xmlschemas/TrackPointExtension/v1">
            <gpxtpx:hr>99</gpxtpx:hr>
          </gpxtpx:TrackPointExtension>
        </extensions>
      </trkpt>
      <trkpt lat="43.15158" lon="1.37284">
        <ele>307</ele>
        <time>2023-03-05T14:54:39Z</time>
        <extensions>
          <gpxtpx:TrackPointExtension xmlns:gpxtpx="http://www.garmin.com/xmlschemas/TrackPointExtension/v1">
            <gpxtpx:hr>99</gpxtpx:hr>
          </gpxtpx:TrackPointExtension>
        </extensions>
      </trkpt>
      <trkpt lat="43.15157" lon="1.37272">
        <ele>307</ele>
        <time>2023-03-05T14:54:41Z</time>
        <extensions>
          <gpxtpx:TrackPointExtension xmlns:gpxtpx="http://www.garmin.com/xmlschemas/TrackPointExtension/v1">
            <gpxtpx:hr>99</gpxtpx:hr>
          </gpxtpx:TrackPointExtension>
        </extensions>
      </trkpt>
      <trkpt lat="43.15157" lon="1.3726">
        <ele>306.6</ele>
        <time>2023-03-05T14:54:43Z</time>
        <extensions>
          <gpxtpx:TrackPointExtension xmlns:gpxtpx="http://www.garmin.com/xmlschemas/TrackPointExtension/v1">
            <gpxtpx:hr>99</gpxtpx:hr>
          </gpxtpx:TrackPointExtension>
        </extensions>
      </trkpt>
      <trkpt lat="43.15157" lon="1.37253">
        <ele>306.2</ele>
        <time>2023-03-05T14:54:44Z</time>
        <extensions>
          <gpxtpx:TrackPointExtension xmlns:gpxtpx="http://www.garmin.com/xmlschemas/TrackPointExtension/v1">
            <gpxtpx:hr>99</gpxtpx:hr>
          </gpxtpx:TrackPointExtension>
        </extensions>
      </trkpt>
      <trkpt lat="43.15157" lon="1.37248">
        <ele>305.8</ele>
        <time>2023-03-05T14:54:45Z</time>
        <extensions>
          <gpxtpx:TrackPointExtension xmlns:gpxtpx="http://www.garmin.com/xmlschemas/TrackPointExtension/v1">
            <gpxtpx:hr>99</gpxtpx:hr>
          </gpxtpx:TrackPointExtension>
        </extensions>
      </trkpt>
      <trkpt lat="43.15158" lon="1.37242">
        <ele>305.4</ele>
        <time>2023-03-05T14:54:46Z</time>
        <extensions>
          <gpxtpx:TrackPointExtension xmlns:gpxtpx="http://www.garmin.com/xmlschemas/TrackPointExtension/v1">
            <gpxtpx:hr>99</gpxtpx:hr>
          </gpxtpx:TrackPointExtension>
        </extensions>
      </trkpt>
      <trkpt lat="43.1516" lon="1.37237">
        <ele>305</ele>
        <time>2023-03-05T14:54:47Z</time>
        <extensions>
          <gpxtpx:TrackPointExtension xmlns:gpxtpx="http://www.garmin.com/xmlschemas/TrackPointExtension/v1">
            <gpxtpx:hr>99</gpxtpx:hr>
          </gpxtpx:TrackPointExtension>
        </extensions>
      </trkpt>
      <trkpt lat="43.15164" lon="1.37226">
        <ele>305</ele>
        <time>2023-03-05T14:54:49Z</time>
        <extensions>
          <gpxtpx:TrackPointExtension xmlns:gpxtpx="http://www.garmin.com/xmlschemas/TrackPointExtension/v1">
            <gpxtpx:hr>103</gpxtpx:hr>
          </gpxtpx:TrackPointExtension>
        </extensions>
      </trkpt>
      <trkpt lat="43.15166" lon="1.3722">
        <ele>304.6</ele>
        <time>2023-03-05T14:54:50Z</time>
        <extensions>
          <gpxtpx:TrackPointExtension xmlns:gpxtpx="http://www.garmin.com/xmlschemas/TrackPointExtension/v1">
            <gpxtpx:hr>103</gpxtpx:hr>
          </gpxtpx:TrackPointExtension>
        </extensions>
      </trkpt>
      <trkpt lat="43.15169" lon="1.37213">
        <ele>304</ele>
        <time>2023-03-05T14:54:51Z</time>
        <extensions>
          <gpxtpx:TrackPointExtension xmlns:gpxtpx="http://www.garmin.com/xmlschemas/TrackPointExtension/v1">
            <gpxtpx:hr>103</gpxtpx:hr>
          </gpxtpx:TrackPointExtension>
        </extensions>
      </trkpt>
      <trkpt lat="43.15171" lon="1.37206">
        <ele>303.6</ele>
        <time>2023-03-05T14:54:52Z</time>
        <extensions>
          <gpxtpx:TrackPointExtension xmlns:gpxtpx="http://www.garmin.com/xmlschemas/TrackPointExtension/v1">
            <gpxtpx:hr>103</gpxtpx:hr>
          </gpxtpx:TrackPointExtension>
        </extensions>
      </trkpt>
      <trkpt lat="43.15174" lon="1.37199">
        <ele>302.6</ele>
        <time>2023-03-05T14:54:53Z</time>
        <extensions>
          <gpxtpx:TrackPointExtension xmlns:gpxtpx="http://www.garmin.com/xmlschemas/TrackPointExtension/v1">
            <gpxtpx:hr>102</gpxtpx:hr>
          </gpxtpx:TrackPointExtension>
        </extensions>
      </trkpt>
      <trkpt lat="43.15176" lon="1.37192">
        <ele>302.2</ele>
        <time>2023-03-05T14:54:54Z</time>
        <extensions>
          <gpxtpx:TrackPointExtension xmlns:gpxtpx="http://www.garmin.com/xmlschemas/TrackPointExtension/v1">
            <gpxtpx:hr>103</gpxtpx:hr>
          </gpxtpx:TrackPointExtension>
        </extensions>
      </trkpt>
      <trkpt lat="43.15178" lon="1.37185">
        <ele>301.6</ele>
        <time>2023-03-05T14:54:55Z</time>
        <extensions>
          <gpxtpx:TrackPointExtension xmlns:gpxtpx="http://www.garmin.com/xmlschemas/TrackPointExtension/v1">
            <gpxtpx:hr>103</gpxtpx:hr>
          </gpxtpx:TrackPointExtension>
        </extensions>
      </trkpt>
      <trkpt lat="43.1518" lon="1.37178">
        <ele>301.2</ele>
        <time>2023-03-05T14:54:56Z</time>
        <extensions>
          <gpxtpx:TrackPointExtension xmlns:gpxtpx="http://www.garmin.com/xmlschemas/TrackPointExtension/v1">
            <gpxtpx:hr>103</gpxtpx:hr>
          </gpxtpx:TrackPointExtension>
        </extensions>
      </trkpt>
      <trkpt lat="43.15182" lon="1.37171">
        <ele>300.6</ele>
        <time>2023-03-05T14:54:57Z</time>
        <extensions>
          <gpxtpx:TrackPointExtension xmlns:gpxtpx="http://www.garmin.com/xmlschemas/TrackPointExtension/v1">
            <gpxtpx:hr>103</gpxtpx:hr>
          </gpxtpx:TrackPointExtension>
        </extensions>
      </trkpt>
      <trkpt lat="43.15189" lon="1.37145">
        <ele>300.6</ele>
        <time>2023-03-05T14:55:01Z</time>
        <extensions>
          <gpxtpx:TrackPointExtension xmlns:gpxtpx="http://www.garmin.com/xmlschemas/TrackPointExtension/v1">
            <gpxtpx:hr>103</gpxtpx:hr>
          </gpxtpx:TrackPointExtension>
        </extensions>
      </trkpt>
      <trkpt lat="43.15191" lon="1.37139">
        <ele>300.6</ele>
        <time>2023-03-05T14:55:02Z</time>
        <extensions>
          <gpxtpx:TrackPointExtension xmlns:gpxtpx="http://www.garmin.com/xmlschemas/TrackPointExtension/v1">
            <gpxtpx:hr>104</gpxtpx:hr>
          </gpxtpx:TrackPointExtension>
        </extensions>
      </trkpt>
      <trkpt lat="43.15195" lon="1.37124">
        <ele>300.6</ele>
        <time>2023-03-05T14:55:05Z</time>
        <extensions>
          <gpxtpx:TrackPointExtension xmlns:gpxtpx="http://www.garmin.com/xmlschemas/TrackPointExtension/v1">
            <gpxtpx:hr>105</gpxtpx:hr>
          </gpxtpx:TrackPointExtension>
        </extensions>
      </trkpt>
      <trkpt lat="43.15204" lon="1.37092">
        <ele>300.6</ele>
        <time>2023-03-05T14:55:10Z</time>
        <extensions>
          <gpxtpx:TrackPointExtension xmlns:gpxtpx="http://www.garmin.com/xmlschemas/TrackPointExtension/v1">
            <gpxtpx:hr>105</gpxtpx:hr>
          </gpxtpx:TrackPointExtension>
        </extensions>
      </trkpt>
      <trkpt lat="43.15207" lon="1.37083">
        <ele>300.6</ele>
        <time>2023-03-05T14:55:11Z</time>
        <extensions>
          <gpxtpx:TrackPointExtension xmlns:gpxtpx="http://www.garmin.com/xmlschemas/TrackPointExtension/v1">
            <gpxtpx:hr>105</gpxtpx:hr>
          </gpxtpx:TrackPointExtension>
        </extensions>
      </trkpt>
      <trkpt lat="43.15217" lon="1.37066">
        <ele>300.2</ele>
        <time>2023-03-05T14:55:13Z</time>
        <extensions>
          <gpxtpx:TrackPointExtension xmlns:gpxtpx="http://www.garmin.com/xmlschemas/TrackPointExtension/v1">
            <gpxtpx:hr>105</gpxtpx:hr>
          </gpxtpx:TrackPointExtension>
        </extensions>
      </trkpt>
      <trkpt lat="43.15221" lon="1.37059">
        <ele>299.6</ele>
        <time>2023-03-05T14:55:14Z</time>
        <extensions>
          <gpxtpx:TrackPointExtension xmlns:gpxtpx="http://www.garmin.com/xmlschemas/TrackPointExtension/v1">
            <gpxtpx:hr>105</gpxtpx:hr>
          </gpxtpx:TrackPointExtension>
        </extensions>
      </trkpt>
      <trkpt lat="43.15225" lon="1.37053">
        <ele>299.2</ele>
        <time>2023-03-05T14:55:15Z</time>
        <extensions>
          <gpxtpx:TrackPointExtension xmlns:gpxtpx="http://www.garmin.com/xmlschemas/TrackPointExtension/v1">
            <gpxtpx:hr>105</gpxtpx:hr>
          </gpxtpx:TrackPointExtension>
        </extensions>
      </trkpt>
      <trkpt lat="43.15228" lon="1.37047">
        <ele>298.6</ele>
        <time>2023-03-05T14:55:16Z</time>
        <extensions>
          <gpxtpx:TrackPointExtension xmlns:gpxtpx="http://www.garmin.com/xmlschemas/TrackPointExtension/v1">
            <gpxtpx:hr>105</gpxtpx:hr>
          </gpxtpx:TrackPointExtension>
        </extensions>
      </trkpt>
      <trkpt lat="43.15231" lon="1.37042">
        <ele>298.2</ele>
        <time>2023-03-05T14:55:17Z</time>
        <extensions>
          <gpxtpx:TrackPointExtension xmlns:gpxtpx="http://www.garmin.com/xmlschemas/TrackPointExtension/v1">
            <gpxtpx:hr>105</gpxtpx:hr>
          </gpxtpx:TrackPointExtension>
        </extensions>
      </trkpt>
      <trkpt lat="43.15233" lon="1.37036">
        <ele>298.2</ele>
        <time>2023-03-05T14:55:18Z</time>
        <extensions>
          <gpxtpx:TrackPointExtension xmlns:gpxtpx="http://www.garmin.com/xmlschemas/TrackPointExtension/v1">
            <gpxtpx:hr>105</gpxtpx:hr>
          </gpxtpx:TrackPointExtension>
        </extensions>
      </trkpt>
      <trkpt lat="43.15237" lon="1.37029">
        <ele>298.6</ele>
        <time>2023-03-05T14:55:20Z</time>
        <extensions>
          <gpxtpx:TrackPointExtension xmlns:gpxtpx="http://www.garmin.com/xmlschemas/TrackPointExtension/v1">
            <gpxtpx:hr>108</gpxtpx:hr>
          </gpxtpx:TrackPointExtension>
        </extensions>
      </trkpt>
      <trkpt lat="43.15239" lon="1.37026">
        <ele>299</ele>
        <time>2023-03-05T14:55:21Z</time>
        <extensions>
          <gpxtpx:TrackPointExtension xmlns:gpxtpx="http://www.garmin.com/xmlschemas/TrackPointExtension/v1">
            <gpxtpx:hr>108</gpxtpx:hr>
          </gpxtpx:TrackPointExtension>
        </extensions>
      </trkpt>
      <trkpt lat="43.15241" lon="1.37023">
        <ele>299.4</ele>
        <time>2023-03-05T14:55:22Z</time>
        <extensions>
          <gpxtpx:TrackPointExtension xmlns:gpxtpx="http://www.garmin.com/xmlschemas/TrackPointExtension/v1">
            <gpxtpx:hr>108</gpxtpx:hr>
          </gpxtpx:TrackPointExtension>
        </extensions>
      </trkpt>
      <trkpt lat="43.15243" lon="1.3702">
        <ele>300</ele>
        <time>2023-03-05T14:55:23Z</time>
        <extensions>
          <gpxtpx:TrackPointExtension xmlns:gpxtpx="http://www.garmin.com/xmlschemas/TrackPointExtension/v1">
            <gpxtpx:hr>108</gpxtpx:hr>
          </gpxtpx:TrackPointExtension>
        </extensions>
      </trkpt>
      <trkpt lat="43.15245" lon="1.37016">
        <ele>300.6</ele>
        <time>2023-03-05T14:55:24Z</time>
        <extensions>
          <gpxtpx:TrackPointExtension xmlns:gpxtpx="http://www.garmin.com/xmlschemas/TrackPointExtension/v1">
            <gpxtpx:hr>108</gpxtpx:hr>
          </gpxtpx:TrackPointExtension>
        </extensions>
      </trkpt>
      <trkpt lat="43.15247" lon="1.37012">
        <ele>301.2</ele>
        <time>2023-03-05T14:55:25Z</time>
        <extensions>
          <gpxtpx:TrackPointExtension xmlns:gpxtpx="http://www.garmin.com/xmlschemas/TrackPointExtension/v1">
            <gpxtpx:hr>108</gpxtpx:hr>
          </gpxtpx:TrackPointExtension>
        </extensions>
      </trkpt>
      <trkpt lat="43.15249" lon="1.37009">
        <ele>301.8</ele>
        <time>2023-03-05T14:55:26Z</time>
        <extensions>
          <gpxtpx:TrackPointExtension xmlns:gpxtpx="http://www.garmin.com/xmlschemas/TrackPointExtension/v1">
            <gpxtpx:hr>110</gpxtpx:hr>
          </gpxtpx:TrackPointExtension>
        </extensions>
      </trkpt>
      <trkpt lat="43.15251" lon="1.37005">
        <ele>302.6</ele>
        <time>2023-03-05T14:55:27Z</time>
        <extensions>
          <gpxtpx:TrackPointExtension xmlns:gpxtpx="http://www.garmin.com/xmlschemas/TrackPointExtension/v1">
            <gpxtpx:hr>112</gpxtpx:hr>
          </gpxtpx:TrackPointExtension>
        </extensions>
      </trkpt>
      <trkpt lat="43.15253" lon="1.37002">
        <ele>303.2</ele>
        <time>2023-03-05T14:55:28Z</time>
        <extensions>
          <gpxtpx:TrackPointExtension xmlns:gpxtpx="http://www.garmin.com/xmlschemas/TrackPointExtension/v1">
            <gpxtpx:hr>112</gpxtpx:hr>
          </gpxtpx:TrackPointExtension>
        </extensions>
      </trkpt>
      <trkpt lat="43.15255" lon="1.36999">
        <ele>303.8</ele>
        <time>2023-03-05T14:55:29Z</time>
        <extensions>
          <gpxtpx:TrackPointExtension xmlns:gpxtpx="http://www.garmin.com/xmlschemas/TrackPointExtension/v1">
            <gpxtpx:hr>112</gpxtpx:hr>
          </gpxtpx:TrackPointExtension>
        </extensions>
      </trkpt>
      <trkpt lat="43.15257" lon="1.36996">
        <ele>304.4</ele>
        <time>2023-03-05T14:55:30Z</time>
        <extensions>
          <gpxtpx:TrackPointExtension xmlns:gpxtpx="http://www.garmin.com/xmlschemas/TrackPointExtension/v1">
            <gpxtpx:hr>112</gpxtpx:hr>
          </gpxtpx:TrackPointExtension>
        </extensions>
      </trkpt>
      <trkpt lat="43.15259" lon="1.36992">
        <ele>305</ele>
        <time>2023-03-05T14:55:31Z</time>
        <extensions>
          <gpxtpx:TrackPointExtension xmlns:gpxtpx="http://www.garmin.com/xmlschemas/TrackPointExtension/v1">
            <gpxtpx:hr>112</gpxtpx:hr>
          </gpxtpx:TrackPointExtension>
        </extensions>
      </trkpt>
      <trkpt lat="43.15265" lon="1.36972">
        <ele>305</ele>
        <time>2023-03-05T14:55:36Z</time>
        <extensions>
          <gpxtpx:TrackPointExtension xmlns:gpxtpx="http://www.garmin.com/xmlschemas/TrackPointExtension/v1">
            <gpxtpx:hr>112</gpxtpx:hr>
          </gpxtpx:TrackPointExtension>
        </extensions>
      </trkpt>
      <trkpt lat="43.15266" lon="1.36963">
        <ele>305</ele>
        <time>2023-03-05T14:55:39Z</time>
        <extensions>
          <gpxtpx:TrackPointExtension xmlns:gpxtpx="http://www.garmin.com/xmlschemas/TrackPointExtension/v1">
            <gpxtpx:hr>115</gpxtpx:hr>
          </gpxtpx:TrackPointExtension>
        </extensions>
      </trkpt>
      <trkpt lat="43.15266" lon="1.36959">
        <ele>305</ele>
        <time>2023-03-05T14:55:40Z</time>
        <extensions>
          <gpxtpx:TrackPointExtension xmlns:gpxtpx="http://www.garmin.com/xmlschemas/TrackPointExtension/v1">
            <gpxtpx:hr>115</gpxtpx:hr>
          </gpxtpx:TrackPointExtension>
        </extensions>
      </trkpt>
      <trkpt lat="43.15269" lon="1.36941">
        <ele>305</ele>
        <time>2023-03-05T14:55:44Z</time>
        <extensions>
          <gpxtpx:TrackPointExtension xmlns:gpxtpx="http://www.garmin.com/xmlschemas/TrackPointExtension/v1">
            <gpxtpx:hr>115</gpxtpx:hr>
          </gpxtpx:TrackPointExtension>
        </extensions>
      </trkpt>
      <trkpt lat="43.15272" lon="1.36918">
        <ele>305</ele>
        <time>2023-03-05T14:55:48Z</time>
        <extensions>
          <gpxtpx:TrackPointExtension xmlns:gpxtpx="http://www.garmin.com/xmlschemas/TrackPointExtension/v1">
            <gpxtpx:hr>115</gpxtpx:hr>
          </gpxtpx:TrackPointExtension>
        </extensions>
      </trkpt>
      <trkpt lat="43.15271" lon="1.36912">
        <ele>305</ele>
        <time>2023-03-05T14:55:49Z</time>
        <extensions>
          <gpxtpx:TrackPointExtension xmlns:gpxtpx="http://www.garmin.com/xmlschemas/TrackPointExtension/v1">
            <gpxtpx:hr>115</gpxtpx:hr>
          </gpxtpx:TrackPointExtension>
        </extensions>
      </trkpt>
      <trkpt lat="43.15268" lon="1.36885">
        <ele>304.6</ele>
        <time>2023-03-05T14:55:53Z</time>
        <extensions>
          <gpxtpx:TrackPointExtension xmlns:gpxtpx="http://www.garmin.com/xmlschemas/TrackPointExtension/v1">
            <gpxtpx:hr>115</gpxtpx:hr>
          </gpxtpx:TrackPointExtension>
        </extensions>
      </trkpt>
      <trkpt lat="43.15268" lon="1.36879">
        <ele>304.2</ele>
        <time>2023-03-05T14:55:54Z</time>
        <extensions>
          <gpxtpx:TrackPointExtension xmlns:gpxtpx="http://www.garmin.com/xmlschemas/TrackPointExtension/v1">
            <gpxtpx:hr>116</gpxtpx:hr>
          </gpxtpx:TrackPointExtension>
        </extensions>
      </trkpt>
      <trkpt lat="43.15268" lon="1.36873">
        <ele>303.8</ele>
        <time>2023-03-05T14:55:55Z</time>
        <extensions>
          <gpxtpx:TrackPointExtension xmlns:gpxtpx="http://www.garmin.com/xmlschemas/TrackPointExtension/v1">
            <gpxtpx:hr>117</gpxtpx:hr>
          </gpxtpx:TrackPointExtension>
        </extensions>
      </trkpt>
      <trkpt lat="43.15267" lon="1.36868">
        <ele>303.4</ele>
        <time>2023-03-05T14:55:56Z</time>
        <extensions>
          <gpxtpx:TrackPointExtension xmlns:gpxtpx="http://www.garmin.com/xmlschemas/TrackPointExtension/v1">
            <gpxtpx:hr>117</gpxtpx:hr>
          </gpxtpx:TrackPointExtension>
        </extensions>
      </trkpt>
      <trkpt lat="43.15267" lon="1.36863">
        <ele>303</ele>
        <time>2023-03-05T14:55:57Z</time>
        <extensions>
          <gpxtpx:TrackPointExtension xmlns:gpxtpx="http://www.garmin.com/xmlschemas/TrackPointExtension/v1">
            <gpxtpx:hr>117</gpxtpx:hr>
          </gpxtpx:TrackPointExtension>
        </extensions>
      </trkpt>
      <trkpt lat="43.15265" lon="1.36848">
        <ele>303</ele>
        <time>2023-03-05T14:56:00Z</time>
        <extensions>
          <gpxtpx:TrackPointExtension xmlns:gpxtpx="http://www.garmin.com/xmlschemas/TrackPointExtension/v1">
            <gpxtpx:hr>116</gpxtpx:hr>
          </gpxtpx:TrackPointExtension>
        </extensions>
      </trkpt>
      <trkpt lat="43.15264" lon="1.36824">
        <ele>303</ele>
        <time>2023-03-05T14:56:05Z</time>
        <extensions>
          <gpxtpx:TrackPointExtension xmlns:gpxtpx="http://www.garmin.com/xmlschemas/TrackPointExtension/v1">
            <gpxtpx:hr>116</gpxtpx:hr>
          </gpxtpx:TrackPointExtension>
        </extensions>
      </trkpt>
      <trkpt lat="43.15264" lon="1.3679">
        <ele>303</ele>
        <time>2023-03-05T14:56:12Z</time>
        <extensions>
          <gpxtpx:TrackPointExtension xmlns:gpxtpx="http://www.garmin.com/xmlschemas/TrackPointExtension/v1">
            <gpxtpx:hr>116</gpxtpx:hr>
          </gpxtpx:TrackPointExtension>
        </extensions>
      </trkpt>
      <trkpt lat="43.15261" lon="1.36767">
        <ele>303</ele>
        <time>2023-03-05T14:56:17Z</time>
        <extensions>
          <gpxtpx:TrackPointExtension xmlns:gpxtpx="http://www.garmin.com/xmlschemas/TrackPointExtension/v1">
            <gpxtpx:hr>116</gpxtpx:hr>
          </gpxtpx:TrackPointExtension>
        </extensions>
      </trkpt>
      <trkpt lat="43.15254" lon="1.36738">
        <ele>303</ele>
        <time>2023-03-05T14:56:24Z</time>
        <extensions>
          <gpxtpx:TrackPointExtension xmlns:gpxtpx="http://www.garmin.com/xmlschemas/TrackPointExtension/v1">
            <gpxtpx:hr>115</gpxtpx:hr>
          </gpxtpx:TrackPointExtension>
        </extensions>
      </trkpt>
      <trkpt lat="43.15254" lon="1.3672">
        <ele>303</ele>
        <time>2023-03-05T14:56:29Z</time>
        <extensions>
          <gpxtpx:TrackPointExtension xmlns:gpxtpx="http://www.garmin.com/xmlschemas/TrackPointExtension/v1">
            <gpxtpx:hr>112</gpxtpx:hr>
          </gpxtpx:TrackPointExtension>
        </extensions>
      </trkpt>
      <trkpt lat="43.15254" lon="1.36715">
        <ele>302.6</ele>
        <time>2023-03-05T14:56:30Z</time>
        <extensions>
          <gpxtpx:TrackPointExtension xmlns:gpxtpx="http://www.garmin.com/xmlschemas/TrackPointExtension/v1">
            <gpxtpx:hr>111</gpxtpx:hr>
          </gpxtpx:TrackPointExtension>
        </extensions>
      </trkpt>
      <trkpt lat="43.15253" lon="1.36706">
        <ele>301.8</ele>
        <time>2023-03-05T14:56:31Z</time>
        <extensions>
          <gpxtpx:TrackPointExtension xmlns:gpxtpx="http://www.garmin.com/xmlschemas/TrackPointExtension/v1">
            <gpxtpx:hr>111</gpxtpx:hr>
          </gpxtpx:TrackPointExtension>
        </extensions>
      </trkpt>
      <trkpt lat="43.15253" lon="1.36697">
        <ele>301.4</ele>
        <time>2023-03-05T14:56:32Z</time>
        <extensions>
          <gpxtpx:TrackPointExtension xmlns:gpxtpx="http://www.garmin.com/xmlschemas/TrackPointExtension/v1">
            <gpxtpx:hr>111</gpxtpx:hr>
          </gpxtpx:TrackPointExtension>
        </extensions>
      </trkpt>
      <trkpt lat="43.15253" lon="1.36687">
        <ele>300.8</ele>
        <time>2023-03-05T14:56:33Z</time>
        <extensions>
          <gpxtpx:TrackPointExtension xmlns:gpxtpx="http://www.garmin.com/xmlschemas/TrackPointExtension/v1">
            <gpxtpx:hr>111</gpxtpx:hr>
          </gpxtpx:TrackPointExtension>
        </extensions>
      </trkpt>
      <trkpt lat="43.15252" lon="1.36675">
        <ele>300.2</ele>
        <time>2023-03-05T14:56:34Z</time>
        <extensions>
          <gpxtpx:TrackPointExtension xmlns:gpxtpx="http://www.garmin.com/xmlschemas/TrackPointExtension/v1">
            <gpxtpx:hr>112</gpxtpx:hr>
          </gpxtpx:TrackPointExtension>
        </extensions>
      </trkpt>
      <trkpt lat="43.15253" lon="1.36664">
        <ele>299.6</ele>
        <time>2023-03-05T14:56:35Z</time>
        <extensions>
          <gpxtpx:TrackPointExtension xmlns:gpxtpx="http://www.garmin.com/xmlschemas/TrackPointExtension/v1">
            <gpxtpx:hr>112</gpxtpx:hr>
          </gpxtpx:TrackPointExtension>
        </extensions>
      </trkpt>
      <trkpt lat="43.15252" lon="1.36654">
        <ele>299</ele>
        <time>2023-03-05T14:56:36Z</time>
        <extensions>
          <gpxtpx:TrackPointExtension xmlns:gpxtpx="http://www.garmin.com/xmlschemas/TrackPointExtension/v1">
            <gpxtpx:hr>112</gpxtpx:hr>
          </gpxtpx:TrackPointExtension>
        </extensions>
      </trkpt>
      <trkpt lat="43.15252" lon="1.36645">
        <ele>298.2</ele>
        <time>2023-03-05T14:56:37Z</time>
        <extensions>
          <gpxtpx:TrackPointExtension xmlns:gpxtpx="http://www.garmin.com/xmlschemas/TrackPointExtension/v1">
            <gpxtpx:hr>112</gpxtpx:hr>
          </gpxtpx:TrackPointExtension>
        </extensions>
      </trkpt>
      <trkpt lat="43.15252" lon="1.36639">
        <ele>297.6</ele>
        <time>2023-03-05T14:56:38Z</time>
        <extensions>
          <gpxtpx:TrackPointExtension xmlns:gpxtpx="http://www.garmin.com/xmlschemas/TrackPointExtension/v1">
            <gpxtpx:hr>112</gpxtpx:hr>
          </gpxtpx:TrackPointExtension>
        </extensions>
      </trkpt>
      <trkpt lat="43.15251" lon="1.36634">
        <ele>296.8</ele>
        <time>2023-03-05T14:56:39Z</time>
        <extensions>
          <gpxtpx:TrackPointExtension xmlns:gpxtpx="http://www.garmin.com/xmlschemas/TrackPointExtension/v1">
            <gpxtpx:hr>112</gpxtpx:hr>
          </gpxtpx:TrackPointExtension>
        </extensions>
      </trkpt>
      <trkpt lat="43.1525" lon="1.36629">
        <ele>296</ele>
        <time>2023-03-05T14:56:40Z</time>
        <extensions>
          <gpxtpx:TrackPointExtension xmlns:gpxtpx="http://www.garmin.com/xmlschemas/TrackPointExtension/v1">
            <gpxtpx:hr>112</gpxtpx:hr>
          </gpxtpx:TrackPointExtension>
        </extensions>
      </trkpt>
      <trkpt lat="43.15247" lon="1.36614">
        <ele>296.4</ele>
        <time>2023-03-05T14:56:43Z</time>
        <extensions>
          <gpxtpx:TrackPointExtension xmlns:gpxtpx="http://www.garmin.com/xmlschemas/TrackPointExtension/v1">
            <gpxtpx:hr>112</gpxtpx:hr>
          </gpxtpx:TrackPointExtension>
        </extensions>
      </trkpt>
      <trkpt lat="43.15246" lon="1.36609">
        <ele>297</ele>
        <time>2023-03-05T14:56:44Z</time>
        <extensions>
          <gpxtpx:TrackPointExtension xmlns:gpxtpx="http://www.garmin.com/xmlschemas/TrackPointExtension/v1">
            <gpxtpx:hr>112</gpxtpx:hr>
          </gpxtpx:TrackPointExtension>
        </extensions>
      </trkpt>
      <trkpt lat="43.15245" lon="1.36604">
        <ele>297.4</ele>
        <time>2023-03-05T14:56:45Z</time>
        <extensions>
          <gpxtpx:TrackPointExtension xmlns:gpxtpx="http://www.garmin.com/xmlschemas/TrackPointExtension/v1">
            <gpxtpx:hr>112</gpxtpx:hr>
          </gpxtpx:TrackPointExtension>
        </extensions>
      </trkpt>
      <trkpt lat="43.15244" lon="1.36599">
        <ele>297.8</ele>
        <time>2023-03-05T14:56:46Z</time>
        <extensions>
          <gpxtpx:TrackPointExtension xmlns:gpxtpx="http://www.garmin.com/xmlschemas/TrackPointExtension/v1">
            <gpxtpx:hr>112</gpxtpx:hr>
          </gpxtpx:TrackPointExtension>
        </extensions>
      </trkpt>
      <trkpt lat="43.15244" lon="1.36593">
        <ele>298.2</ele>
        <time>2023-03-05T14:56:47Z</time>
        <extensions>
          <gpxtpx:TrackPointExtension xmlns:gpxtpx="http://www.garmin.com/xmlschemas/TrackPointExtension/v1">
            <gpxtpx:hr>112</gpxtpx:hr>
          </gpxtpx:TrackPointExtension>
        </extensions>
      </trkpt>
      <trkpt lat="43.15243" lon="1.36583">
        <ele>298.2</ele>
        <time>2023-03-05T14:56:49Z</time>
        <extensions>
          <gpxtpx:TrackPointExtension xmlns:gpxtpx="http://www.garmin.com/xmlschemas/TrackPointExtension/v1">
            <gpxtpx:hr>112</gpxtpx:hr>
          </gpxtpx:TrackPointExtension>
        </extensions>
      </trkpt>
      <trkpt lat="43.15246" lon="1.36553">
        <ele>298.2</ele>
        <time>2023-03-05T14:56:55Z</time>
        <extensions>
          <gpxtpx:TrackPointExtension xmlns:gpxtpx="http://www.garmin.com/xmlschemas/TrackPointExtension/v1">
            <gpxtpx:hr>113</gpxtpx:hr>
          </gpxtpx:TrackPointExtension>
        </extensions>
      </trkpt>
      <trkpt lat="43.15247" lon="1.36548">
        <ele>299</ele>
        <time>2023-03-05T14:56:56Z</time>
        <extensions>
          <gpxtpx:TrackPointExtension xmlns:gpxtpx="http://www.garmin.com/xmlschemas/TrackPointExtension/v1">
            <gpxtpx:hr>113</gpxtpx:hr>
          </gpxtpx:TrackPointExtension>
        </extensions>
      </trkpt>
      <trkpt lat="43.15248" lon="1.36544">
        <ele>299.6</ele>
        <time>2023-03-05T14:56:57Z</time>
        <extensions>
          <gpxtpx:TrackPointExtension xmlns:gpxtpx="http://www.garmin.com/xmlschemas/TrackPointExtension/v1">
            <gpxtpx:hr>113</gpxtpx:hr>
          </gpxtpx:TrackPointExtension>
        </extensions>
      </trkpt>
      <trkpt lat="43.1525" lon="1.3654">
        <ele>300</ele>
        <time>2023-03-05T14:56:58Z</time>
        <extensions>
          <gpxtpx:TrackPointExtension xmlns:gpxtpx="http://www.garmin.com/xmlschemas/TrackPointExtension/v1">
            <gpxtpx:hr>113</gpxtpx:hr>
          </gpxtpx:TrackPointExtension>
        </extensions>
      </trkpt>
      <trkpt lat="43.15251" lon="1.36536">
        <ele>300.4</ele>
        <time>2023-03-05T14:56:59Z</time>
        <extensions>
          <gpxtpx:TrackPointExtension xmlns:gpxtpx="http://www.garmin.com/xmlschemas/TrackPointExtension/v1">
            <gpxtpx:hr>113</gpxtpx:hr>
          </gpxtpx:TrackPointExtension>
        </extensions>
      </trkpt>
      <trkpt lat="43.15253" lon="1.36528">
        <ele>300.8</ele>
        <time>2023-03-05T14:57:01Z</time>
        <extensions>
          <gpxtpx:TrackPointExtension xmlns:gpxtpx="http://www.garmin.com/xmlschemas/TrackPointExtension/v1">
            <gpxtpx:hr>114</gpxtpx:hr>
          </gpxtpx:TrackPointExtension>
        </extensions>
      </trkpt>
      <trkpt lat="43.15254" lon="1.36525">
        <ele>301.2</ele>
        <time>2023-03-05T14:57:02Z</time>
        <extensions>
          <gpxtpx:TrackPointExtension xmlns:gpxtpx="http://www.garmin.com/xmlschemas/TrackPointExtension/v1">
            <gpxtpx:hr>114</gpxtpx:hr>
          </gpxtpx:TrackPointExtension>
        </extensions>
      </trkpt>
      <trkpt lat="43.15256" lon="1.36521">
        <ele>301.8</ele>
        <time>2023-03-05T14:57:03Z</time>
        <extensions>
          <gpxtpx:TrackPointExtension xmlns:gpxtpx="http://www.garmin.com/xmlschemas/TrackPointExtension/v1">
            <gpxtpx:hr>114</gpxtpx:hr>
          </gpxtpx:TrackPointExtension>
        </extensions>
      </trkpt>
      <trkpt lat="43.15258" lon="1.36518">
        <ele>302.2</ele>
        <time>2023-03-05T14:57:04Z</time>
        <extensions>
          <gpxtpx:TrackPointExtension xmlns:gpxtpx="http://www.garmin.com/xmlschemas/TrackPointExtension/v1">
            <gpxtpx:hr>114</gpxtpx:hr>
          </gpxtpx:TrackPointExtension>
        </extensions>
      </trkpt>
      <trkpt lat="43.1526" lon="1.36515">
        <ele>302.6</ele>
        <time>2023-03-05T14:57:05Z</time>
        <extensions>
          <gpxtpx:TrackPointExtension xmlns:gpxtpx="http://www.garmin.com/xmlschemas/TrackPointExtension/v1">
            <gpxtpx:hr>114</gpxtpx:hr>
          </gpxtpx:TrackPointExtension>
        </extensions>
      </trkpt>
      <trkpt lat="43.15262" lon="1.36513">
        <ele>302.6</ele>
        <time>2023-03-05T14:57:06Z</time>
        <extensions>
          <gpxtpx:TrackPointExtension xmlns:gpxtpx="http://www.garmin.com/xmlschemas/TrackPointExtension/v1">
            <gpxtpx:hr>114</gpxtpx:hr>
          </gpxtpx:TrackPointExtension>
        </extensions>
      </trkpt>
      <trkpt lat="43.15267" lon="1.36509">
        <ele>302.6</ele>
        <time>2023-03-05T14:57:08Z</time>
        <extensions>
          <gpxtpx:TrackPointExtension xmlns:gpxtpx="http://www.garmin.com/xmlschemas/TrackPointExtension/v1">
            <gpxtpx:hr>117</gpxtpx:hr>
          </gpxtpx:TrackPointExtension>
        </extensions>
      </trkpt>
      <trkpt lat="43.15276" lon="1.36504">
        <ele>303</ele>
        <time>2023-03-05T14:57:11Z</time>
        <extensions>
          <gpxtpx:TrackPointExtension xmlns:gpxtpx="http://www.garmin.com/xmlschemas/TrackPointExtension/v1">
            <gpxtpx:hr>117</gpxtpx:hr>
          </gpxtpx:TrackPointExtension>
        </extensions>
      </trkpt>
      <trkpt lat="43.15279" lon="1.36502">
        <ele>303.4</ele>
        <time>2023-03-05T14:57:12Z</time>
        <extensions>
          <gpxtpx:TrackPointExtension xmlns:gpxtpx="http://www.garmin.com/xmlschemas/TrackPointExtension/v1">
            <gpxtpx:hr>118</gpxtpx:hr>
          </gpxtpx:TrackPointExtension>
        </extensions>
      </trkpt>
      <trkpt lat="43.15282" lon="1.36501">
        <ele>304</ele>
        <time>2023-03-05T14:57:13Z</time>
        <extensions>
          <gpxtpx:TrackPointExtension xmlns:gpxtpx="http://www.garmin.com/xmlschemas/TrackPointExtension/v1">
            <gpxtpx:hr>118</gpxtpx:hr>
          </gpxtpx:TrackPointExtension>
        </extensions>
      </trkpt>
      <trkpt lat="43.15285" lon="1.365">
        <ele>304.4</ele>
        <time>2023-03-05T14:57:14Z</time>
        <extensions>
          <gpxtpx:TrackPointExtension xmlns:gpxtpx="http://www.garmin.com/xmlschemas/TrackPointExtension/v1">
            <gpxtpx:hr>118</gpxtpx:hr>
          </gpxtpx:TrackPointExtension>
        </extensions>
      </trkpt>
      <trkpt lat="43.15288" lon="1.36499">
        <ele>304.8</ele>
        <time>2023-03-05T14:57:15Z</time>
        <extensions>
          <gpxtpx:TrackPointExtension xmlns:gpxtpx="http://www.garmin.com/xmlschemas/TrackPointExtension/v1">
            <gpxtpx:hr>119</gpxtpx:hr>
          </gpxtpx:TrackPointExtension>
        </extensions>
      </trkpt>
      <trkpt lat="43.15295" lon="1.36491">
        <ele>304.8</ele>
        <time>2023-03-05T14:57:18Z</time>
        <extensions>
          <gpxtpx:TrackPointExtension xmlns:gpxtpx="http://www.garmin.com/xmlschemas/TrackPointExtension/v1">
            <gpxtpx:hr>119</gpxtpx:hr>
          </gpxtpx:TrackPointExtension>
        </extensions>
      </trkpt>
      <trkpt lat="43.153" lon="1.36476">
        <ele>304.8</ele>
        <time>2023-03-05T14:57:21Z</time>
        <extensions>
          <gpxtpx:TrackPointExtension xmlns:gpxtpx="http://www.garmin.com/xmlschemas/TrackPointExtension/v1">
            <gpxtpx:hr>112</gpxtpx:hr>
          </gpxtpx:TrackPointExtension>
        </extensions>
      </trkpt>
      <trkpt lat="43.15301" lon="1.36471">
        <ele>304.8</ele>
        <time>2023-03-05T14:57:22Z</time>
        <extensions>
          <gpxtpx:TrackPointExtension xmlns:gpxtpx="http://www.garmin.com/xmlschemas/TrackPointExtension/v1">
            <gpxtpx:hr>112</gpxtpx:hr>
          </gpxtpx:TrackPointExtension>
        </extensions>
      </trkpt>
      <trkpt lat="43.15314" lon="1.36453">
        <ele>304.8</ele>
        <time>2023-03-05T14:57:27Z</time>
        <extensions>
          <gpxtpx:TrackPointExtension xmlns:gpxtpx="http://www.garmin.com/xmlschemas/TrackPointExtension/v1">
            <gpxtpx:hr>112</gpxtpx:hr>
          </gpxtpx:TrackPointExtension>
        </extensions>
      </trkpt>
      <trkpt lat="43.15317" lon="1.36451">
        <ele>305.2</ele>
        <time>2023-03-05T14:57:28Z</time>
        <extensions>
          <gpxtpx:TrackPointExtension xmlns:gpxtpx="http://www.garmin.com/xmlschemas/TrackPointExtension/v1">
            <gpxtpx:hr>112</gpxtpx:hr>
          </gpxtpx:TrackPointExtension>
        </extensions>
      </trkpt>
      <trkpt lat="43.15321" lon="1.36451">
        <ele>305.6</ele>
        <time>2023-03-05T14:57:29Z</time>
        <extensions>
          <gpxtpx:TrackPointExtension xmlns:gpxtpx="http://www.garmin.com/xmlschemas/TrackPointExtension/v1">
            <gpxtpx:hr>112</gpxtpx:hr>
          </gpxtpx:TrackPointExtension>
        </extensions>
      </trkpt>
      <trkpt lat="43.15324" lon="1.36451">
        <ele>306</ele>
        <time>2023-03-05T14:57:30Z</time>
        <extensions>
          <gpxtpx:TrackPointExtension xmlns:gpxtpx="http://www.garmin.com/xmlschemas/TrackPointExtension/v1">
            <gpxtpx:hr>114</gpxtpx:hr>
          </gpxtpx:TrackPointExtension>
        </extensions>
      </trkpt>
      <trkpt lat="43.15328" lon="1.36452">
        <ele>306.4</ele>
        <time>2023-03-05T14:57:31Z</time>
        <extensions>
          <gpxtpx:TrackPointExtension xmlns:gpxtpx="http://www.garmin.com/xmlschemas/TrackPointExtension/v1">
            <gpxtpx:hr>117</gpxtpx:hr>
          </gpxtpx:TrackPointExtension>
        </extensions>
      </trkpt>
      <trkpt lat="43.15332" lon="1.36453">
        <ele>306.8</ele>
        <time>2023-03-05T14:57:32Z</time>
        <extensions>
          <gpxtpx:TrackPointExtension xmlns:gpxtpx="http://www.garmin.com/xmlschemas/TrackPointExtension/v1">
            <gpxtpx:hr>118</gpxtpx:hr>
          </gpxtpx:TrackPointExtension>
        </extensions>
      </trkpt>
      <trkpt lat="43.1534" lon="1.36462">
        <ele>306.8</ele>
        <time>2023-03-05T14:57:35Z</time>
        <extensions>
          <gpxtpx:TrackPointExtension xmlns:gpxtpx="http://www.garmin.com/xmlschemas/TrackPointExtension/v1">
            <gpxtpx:hr>118</gpxtpx:hr>
          </gpxtpx:TrackPointExtension>
        </extensions>
      </trkpt>
      <trkpt lat="43.15343" lon="1.36465">
        <ele>306.8</ele>
        <time>2023-03-05T14:57:36Z</time>
        <extensions>
          <gpxtpx:TrackPointExtension xmlns:gpxtpx="http://www.garmin.com/xmlschemas/TrackPointExtension/v1">
            <gpxtpx:hr>118</gpxtpx:hr>
          </gpxtpx:TrackPointExtension>
        </extensions>
      </trkpt>
      <trkpt lat="43.15348" lon="1.36471">
        <ele>307.4</ele>
        <time>2023-03-05T14:57:38Z</time>
        <extensions>
          <gpxtpx:TrackPointExtension xmlns:gpxtpx="http://www.garmin.com/xmlschemas/TrackPointExtension/v1">
            <gpxtpx:hr>121</gpxtpx:hr>
          </gpxtpx:TrackPointExtension>
        </extensions>
      </trkpt>
      <trkpt lat="43.15351" lon="1.36473">
        <ele>307.8</ele>
        <time>2023-03-05T14:57:39Z</time>
        <extensions>
          <gpxtpx:TrackPointExtension xmlns:gpxtpx="http://www.garmin.com/xmlschemas/TrackPointExtension/v1">
            <gpxtpx:hr>122</gpxtpx:hr>
          </gpxtpx:TrackPointExtension>
        </extensions>
      </trkpt>
      <trkpt lat="43.15354" lon="1.36475">
        <ele>308.2</ele>
        <time>2023-03-05T14:57:40Z</time>
        <extensions>
          <gpxtpx:TrackPointExtension xmlns:gpxtpx="http://www.garmin.com/xmlschemas/TrackPointExtension/v1">
            <gpxtpx:hr>122</gpxtpx:hr>
          </gpxtpx:TrackPointExtension>
        </extensions>
      </trkpt>
      <trkpt lat="43.15357" lon="1.36476">
        <ele>308.6</ele>
        <time>2023-03-05T14:57:41Z</time>
        <extensions>
          <gpxtpx:TrackPointExtension xmlns:gpxtpx="http://www.garmin.com/xmlschemas/TrackPointExtension/v1">
            <gpxtpx:hr>123</gpxtpx:hr>
          </gpxtpx:TrackPointExtension>
        </extensions>
      </trkpt>
      <trkpt lat="43.1536" lon="1.36475">
        <ele>309</ele>
        <time>2023-03-05T14:57:42Z</time>
        <extensions>
          <gpxtpx:TrackPointExtension xmlns:gpxtpx="http://www.garmin.com/xmlschemas/TrackPointExtension/v1">
            <gpxtpx:hr>123</gpxtpx:hr>
          </gpxtpx:TrackPointExtension>
        </extensions>
      </trkpt>
      <trkpt lat="43.15365" lon="1.3647">
        <ele>309</ele>
        <time>2023-03-05T14:57:44Z</time>
        <extensions>
          <gpxtpx:TrackPointExtension xmlns:gpxtpx="http://www.garmin.com/xmlschemas/TrackPointExtension/v1">
            <gpxtpx:hr>123</gpxtpx:hr>
          </gpxtpx:TrackPointExtension>
        </extensions>
      </trkpt>
      <trkpt lat="43.15381" lon="1.36441">
        <ele>309</ele>
        <time>2023-03-05T14:57:52Z</time>
        <extensions>
          <gpxtpx:TrackPointExtension xmlns:gpxtpx="http://www.garmin.com/xmlschemas/TrackPointExtension/v1">
            <gpxtpx:hr>123</gpxtpx:hr>
          </gpxtpx:TrackPointExtension>
        </extensions>
      </trkpt>
      <trkpt lat="43.15394" lon="1.36412">
        <ele>309</ele>
        <time>2023-03-05T14:57:58Z</time>
        <extensions>
          <gpxtpx:TrackPointExtension xmlns:gpxtpx="http://www.garmin.com/xmlschemas/TrackPointExtension/v1">
            <gpxtpx:hr>123</gpxtpx:hr>
          </gpxtpx:TrackPointExtension>
        </extensions>
      </trkpt>
      <trkpt lat="43.15399" lon="1.36402">
        <ele>308.6</ele>
        <time>2023-03-05T14:58:02Z</time>
        <extensions>
          <gpxtpx:TrackPointExtension xmlns:gpxtpx="http://www.garmin.com/xmlschemas/TrackPointExtension/v1">
            <gpxtpx:hr>121</gpxtpx:hr>
          </gpxtpx:TrackPointExtension>
        </extensions>
      </trkpt>
      <trkpt lat="43.15401" lon="1.364">
        <ele>308.2</ele>
        <time>2023-03-05T14:58:03Z</time>
        <extensions>
          <gpxtpx:TrackPointExtension xmlns:gpxtpx="http://www.garmin.com/xmlschemas/TrackPointExtension/v1">
            <gpxtpx:hr>121</gpxtpx:hr>
          </gpxtpx:TrackPointExtension>
        </extensions>
      </trkpt>
      <trkpt lat="43.15402" lon="1.36397">
        <ele>307.8</ele>
        <time>2023-03-05T14:58:04Z</time>
        <extensions>
          <gpxtpx:TrackPointExtension xmlns:gpxtpx="http://www.garmin.com/xmlschemas/TrackPointExtension/v1">
            <gpxtpx:hr>121</gpxtpx:hr>
          </gpxtpx:TrackPointExtension>
        </extensions>
      </trkpt>
      <trkpt lat="43.15403" lon="1.36395">
        <ele>307.4</ele>
        <time>2023-03-05T14:58:05Z</time>
        <extensions>
          <gpxtpx:TrackPointExtension xmlns:gpxtpx="http://www.garmin.com/xmlschemas/TrackPointExtension/v1">
            <gpxtpx:hr>120</gpxtpx:hr>
          </gpxtpx:TrackPointExtension>
        </extensions>
      </trkpt>
      <trkpt lat="43.15404" lon="1.36394">
        <ele>307</ele>
        <time>2023-03-05T14:58:06Z</time>
        <extensions>
          <gpxtpx:TrackPointExtension xmlns:gpxtpx="http://www.garmin.com/xmlschemas/TrackPointExtension/v1">
            <gpxtpx:hr>120</gpxtpx:hr>
          </gpxtpx:TrackPointExtension>
        </extensions>
      </trkpt>
      <trkpt lat="43.15405" lon="1.36393">
        <ele>307</ele>
        <time>2023-03-05T14:58:07Z</time>
        <extensions>
          <gpxtpx:TrackPointExtension xmlns:gpxtpx="http://www.garmin.com/xmlschemas/TrackPointExtension/v1">
            <gpxtpx:hr>120</gpxtpx:hr>
          </gpxtpx:TrackPointExtension>
        </extensions>
      </trkpt>
      <trkpt lat="43.15405" lon="1.36392">
        <ele>307</ele>
        <time>2023-03-05T14:58:08Z</time>
        <extensions>
          <gpxtpx:TrackPointExtension xmlns:gpxtpx="http://www.garmin.com/xmlschemas/TrackPointExtension/v1">
            <gpxtpx:hr>119</gpxtpx:hr>
          </gpxtpx:TrackPointExtension>
        </extensions>
      </trkpt>
      <trkpt lat="43.15406" lon="1.36391">
        <ele>305</ele>
        <time>2023-03-05T14:59:01Z</time>
        <extensions>
          <gpxtpx:TrackPointExtension xmlns:gpxtpx="http://www.garmin.com/xmlschemas/TrackPointExtension/v1">
            <gpxtpx:hr>113</gpxtpx:hr>
          </gpxtpx:TrackPointExtension>
        </extensions>
      </trkpt>
      <trkpt lat="43.15409" lon="1.36387">
        <ele>305</ele>
        <time>2023-03-05T14:59:02Z</time>
        <extensions>
          <gpxtpx:TrackPointExtension xmlns:gpxtpx="http://www.garmin.com/xmlschemas/TrackPointExtension/v1">
            <gpxtpx:hr>113</gpxtpx:hr>
          </gpxtpx:TrackPointExtension>
        </extensions>
      </trkpt>
      <trkpt lat="43.15419" lon="1.36371">
        <ele>304.6</ele>
        <time>2023-03-05T14:59:05Z</time>
        <extensions>
          <gpxtpx:TrackPointExtension xmlns:gpxtpx="http://www.garmin.com/xmlschemas/TrackPointExtension/v1">
            <gpxtpx:hr>111</gpxtpx:hr>
          </gpxtpx:TrackPointExtension>
        </extensions>
      </trkpt>
      <trkpt lat="43.15422" lon="1.36364">
        <ele>304.2</ele>
        <time>2023-03-05T14:59:06Z</time>
        <extensions>
          <gpxtpx:TrackPointExtension xmlns:gpxtpx="http://www.garmin.com/xmlschemas/TrackPointExtension/v1">
            <gpxtpx:hr>111</gpxtpx:hr>
          </gpxtpx:TrackPointExtension>
        </extensions>
      </trkpt>
      <trkpt lat="43.15427" lon="1.36357">
        <ele>303.6</ele>
        <time>2023-03-05T14:59:07Z</time>
        <extensions>
          <gpxtpx:TrackPointExtension xmlns:gpxtpx="http://www.garmin.com/xmlschemas/TrackPointExtension/v1">
            <gpxtpx:hr>111</gpxtpx:hr>
          </gpxtpx:TrackPointExtension>
        </extensions>
      </trkpt>
      <trkpt lat="43.15432" lon="1.3635">
        <ele>303</ele>
        <time>2023-03-05T14:59:08Z</time>
        <extensions>
          <gpxtpx:TrackPointExtension xmlns:gpxtpx="http://www.garmin.com/xmlschemas/TrackPointExtension/v1">
            <gpxtpx:hr>111</gpxtpx:hr>
          </gpxtpx:TrackPointExtension>
        </extensions>
      </trkpt>
      <trkpt lat="43.15437" lon="1.36342">
        <ele>302.2</ele>
        <time>2023-03-05T14:59:09Z</time>
        <extensions>
          <gpxtpx:TrackPointExtension xmlns:gpxtpx="http://www.garmin.com/xmlschemas/TrackPointExtension/v1">
            <gpxtpx:hr>110</gpxtpx:hr>
          </gpxtpx:TrackPointExtension>
        </extensions>
      </trkpt>
      <trkpt lat="43.15441" lon="1.36336">
        <ele>301.6</ele>
        <time>2023-03-05T14:59:10Z</time>
        <extensions>
          <gpxtpx:TrackPointExtension xmlns:gpxtpx="http://www.garmin.com/xmlschemas/TrackPointExtension/v1">
            <gpxtpx:hr>110</gpxtpx:hr>
          </gpxtpx:TrackPointExtension>
        </extensions>
      </trkpt>
      <trkpt lat="43.15444" lon="1.36329">
        <ele>300.8</ele>
        <time>2023-03-05T14:59:11Z</time>
        <extensions>
          <gpxtpx:TrackPointExtension xmlns:gpxtpx="http://www.garmin.com/xmlschemas/TrackPointExtension/v1">
            <gpxtpx:hr>109</gpxtpx:hr>
          </gpxtpx:TrackPointExtension>
        </extensions>
      </trkpt>
      <trkpt lat="43.15444" lon="1.36324">
        <ele>300.2</ele>
        <time>2023-03-05T14:59:12Z</time>
        <extensions>
          <gpxtpx:TrackPointExtension xmlns:gpxtpx="http://www.garmin.com/xmlschemas/TrackPointExtension/v1">
            <gpxtpx:hr>108</gpxtpx:hr>
          </gpxtpx:TrackPointExtension>
        </extensions>
      </trkpt>
      <trkpt lat="43.15444" lon="1.3632">
        <ele>300.2</ele>
        <time>2023-03-05T14:59:13Z</time>
        <extensions>
          <gpxtpx:TrackPointExtension xmlns:gpxtpx="http://www.garmin.com/xmlschemas/TrackPointExtension/v1">
            <gpxtpx:hr>106</gpxtpx:hr>
          </gpxtpx:TrackPointExtension>
        </extensions>
      </trkpt>
      <trkpt lat="43.15434" lon="1.36307">
        <ele>300.2</ele>
        <time>2023-03-05T14:59:16Z</time>
        <extensions>
          <gpxtpx:TrackPointExtension xmlns:gpxtpx="http://www.garmin.com/xmlschemas/TrackPointExtension/v1">
            <gpxtpx:hr>106</gpxtpx:hr>
          </gpxtpx:TrackPointExtension>
        </extensions>
      </trkpt>
      <trkpt lat="43.15424" lon="1.36303">
        <ele>300.2</ele>
        <time>2023-03-05T14:59:18Z</time>
        <extensions>
          <gpxtpx:TrackPointExtension xmlns:gpxtpx="http://www.garmin.com/xmlschemas/TrackPointExtension/v1">
            <gpxtpx:hr>105</gpxtpx:hr>
          </gpxtpx:TrackPointExtension>
        </extensions>
      </trkpt>
      <trkpt lat="43.1542" lon="1.363">
        <ele>300.2</ele>
        <time>2023-03-05T14:59:19Z</time>
        <extensions>
          <gpxtpx:TrackPointExtension xmlns:gpxtpx="http://www.garmin.com/xmlschemas/TrackPointExtension/v1">
            <gpxtpx:hr>105</gpxtpx:hr>
          </gpxtpx:TrackPointExtension>
        </extensions>
      </trkpt>
      <trkpt lat="43.1541" lon="1.36294">
        <ele>300.2</ele>
        <time>2023-03-05T14:59:21Z</time>
        <extensions>
          <gpxtpx:TrackPointExtension xmlns:gpxtpx="http://www.garmin.com/xmlschemas/TrackPointExtension/v1">
            <gpxtpx:hr>105</gpxtpx:hr>
          </gpxtpx:TrackPointExtension>
        </extensions>
      </trkpt>
      <trkpt lat="43.15404" lon="1.3629">
        <ele>299.8</ele>
        <time>2023-03-05T14:59:22Z</time>
        <extensions>
          <gpxtpx:TrackPointExtension xmlns:gpxtpx="http://www.garmin.com/xmlschemas/TrackPointExtension/v1">
            <gpxtpx:hr>105</gpxtpx:hr>
          </gpxtpx:TrackPointExtension>
        </extensions>
      </trkpt>
      <trkpt lat="43.15399" lon="1.36287">
        <ele>299.4</ele>
        <time>2023-03-05T14:59:23Z</time>
        <extensions>
          <gpxtpx:TrackPointExtension xmlns:gpxtpx="http://www.garmin.com/xmlschemas/TrackPointExtension/v1">
            <gpxtpx:hr>105</gpxtpx:hr>
          </gpxtpx:TrackPointExtension>
        </extensions>
      </trkpt>
      <trkpt lat="43.15394" lon="1.36283">
        <ele>299</ele>
        <time>2023-03-05T14:59:24Z</time>
        <extensions>
          <gpxtpx:TrackPointExtension xmlns:gpxtpx="http://www.garmin.com/xmlschemas/TrackPointExtension/v1">
            <gpxtpx:hr>105</gpxtpx:hr>
          </gpxtpx:TrackPointExtension>
        </extensions>
      </trkpt>
      <trkpt lat="43.15388" lon="1.3628">
        <ele>298</ele>
        <time>2023-03-05T14:59:25Z</time>
        <extensions>
          <gpxtpx:TrackPointExtension xmlns:gpxtpx="http://www.garmin.com/xmlschemas/TrackPointExtension/v1">
            <gpxtpx:hr>105</gpxtpx:hr>
          </gpxtpx:TrackPointExtension>
        </extensions>
      </trkpt>
      <trkpt lat="43.15371" lon="1.36268">
        <ele>298</ele>
        <time>2023-03-05T14:59:28Z</time>
        <extensions>
          <gpxtpx:TrackPointExtension xmlns:gpxtpx="http://www.garmin.com/xmlschemas/TrackPointExtension/v1">
            <gpxtpx:hr>104</gpxtpx:hr>
          </gpxtpx:TrackPointExtension>
        </extensions>
      </trkpt>
      <trkpt lat="43.15359" lon="1.36257">
        <ele>297.6</ele>
        <time>2023-03-05T14:59:30Z</time>
        <extensions>
          <gpxtpx:TrackPointExtension xmlns:gpxtpx="http://www.garmin.com/xmlschemas/TrackPointExtension/v1">
            <gpxtpx:hr>104</gpxtpx:hr>
          </gpxtpx:TrackPointExtension>
        </extensions>
      </trkpt>
      <trkpt lat="43.15354" lon="1.36251">
        <ele>297.2</ele>
        <time>2023-03-05T14:59:31Z</time>
        <extensions>
          <gpxtpx:TrackPointExtension xmlns:gpxtpx="http://www.garmin.com/xmlschemas/TrackPointExtension/v1">
            <gpxtpx:hr>104</gpxtpx:hr>
          </gpxtpx:TrackPointExtension>
        </extensions>
      </trkpt>
      <trkpt lat="43.15349" lon="1.36244">
        <ele>296.8</ele>
        <time>2023-03-05T14:59:32Z</time>
        <extensions>
          <gpxtpx:TrackPointExtension xmlns:gpxtpx="http://www.garmin.com/xmlschemas/TrackPointExtension/v1">
            <gpxtpx:hr>104</gpxtpx:hr>
          </gpxtpx:TrackPointExtension>
        </extensions>
      </trkpt>
      <trkpt lat="43.15344" lon="1.36237">
        <ele>296.4</ele>
        <time>2023-03-05T14:59:33Z</time>
        <extensions>
          <gpxtpx:TrackPointExtension xmlns:gpxtpx="http://www.garmin.com/xmlschemas/TrackPointExtension/v1">
            <gpxtpx:hr>104</gpxtpx:hr>
          </gpxtpx:TrackPointExtension>
        </extensions>
      </trkpt>
      <trkpt lat="43.15339" lon="1.36229">
        <ele>296</ele>
        <time>2023-03-05T14:59:34Z</time>
        <extensions>
          <gpxtpx:TrackPointExtension xmlns:gpxtpx="http://www.garmin.com/xmlschemas/TrackPointExtension/v1">
            <gpxtpx:hr>104</gpxtpx:hr>
          </gpxtpx:TrackPointExtension>
        </extensions>
      </trkpt>
      <trkpt lat="43.15331" lon="1.36212">
        <ele>295.6</ele>
        <time>2023-03-05T14:59:36Z</time>
        <extensions>
          <gpxtpx:TrackPointExtension xmlns:gpxtpx="http://www.garmin.com/xmlschemas/TrackPointExtension/v1">
            <gpxtpx:hr>103</gpxtpx:hr>
          </gpxtpx:TrackPointExtension>
        </extensions>
      </trkpt>
      <trkpt lat="43.15328" lon="1.36203">
        <ele>295</ele>
        <time>2023-03-05T14:59:37Z</time>
        <extensions>
          <gpxtpx:TrackPointExtension xmlns:gpxtpx="http://www.garmin.com/xmlschemas/TrackPointExtension/v1">
            <gpxtpx:hr>102</gpxtpx:hr>
          </gpxtpx:TrackPointExtension>
        </extensions>
      </trkpt>
      <trkpt lat="43.15325" lon="1.36194">
        <ele>294.6</ele>
        <time>2023-03-05T14:59:38Z</time>
        <extensions>
          <gpxtpx:TrackPointExtension xmlns:gpxtpx="http://www.garmin.com/xmlschemas/TrackPointExtension/v1">
            <gpxtpx:hr>102</gpxtpx:hr>
          </gpxtpx:TrackPointExtension>
        </extensions>
      </trkpt>
      <trkpt lat="43.15322" lon="1.36185">
        <ele>294.2</ele>
        <time>2023-03-05T14:59:39Z</time>
        <extensions>
          <gpxtpx:TrackPointExtension xmlns:gpxtpx="http://www.garmin.com/xmlschemas/TrackPointExtension/v1">
            <gpxtpx:hr>102</gpxtpx:hr>
          </gpxtpx:TrackPointExtension>
        </extensions>
      </trkpt>
      <trkpt lat="43.1532" lon="1.36177">
        <ele>293.6</ele>
        <time>2023-03-05T14:59:40Z</time>
        <extensions>
          <gpxtpx:TrackPointExtension xmlns:gpxtpx="http://www.garmin.com/xmlschemas/TrackPointExtension/v1">
            <gpxtpx:hr>102</gpxtpx:hr>
          </gpxtpx:TrackPointExtension>
        </extensions>
      </trkpt>
      <trkpt lat="43.15317" lon="1.36168">
        <ele>293.6</ele>
        <time>2023-03-05T14:59:41Z</time>
        <extensions>
          <gpxtpx:TrackPointExtension xmlns:gpxtpx="http://www.garmin.com/xmlschemas/TrackPointExtension/v1">
            <gpxtpx:hr>102</gpxtpx:hr>
          </gpxtpx:TrackPointExtension>
        </extensions>
      </trkpt>
      <trkpt lat="43.15312" lon="1.36151">
        <ele>293.6</ele>
        <time>2023-03-05T14:59:43Z</time>
        <extensions>
          <gpxtpx:TrackPointExtension xmlns:gpxtpx="http://www.garmin.com/xmlschemas/TrackPointExtension/v1">
            <gpxtpx:hr>102</gpxtpx:hr>
          </gpxtpx:TrackPointExtension>
        </extensions>
      </trkpt>
      <trkpt lat="43.1531" lon="1.36142">
        <ele>293.2</ele>
        <time>2023-03-05T14:59:44Z</time>
        <extensions>
          <gpxtpx:TrackPointExtension xmlns:gpxtpx="http://www.garmin.com/xmlschemas/TrackPointExtension/v1">
            <gpxtpx:hr>102</gpxtpx:hr>
          </gpxtpx:TrackPointExtension>
        </extensions>
      </trkpt>
      <trkpt lat="43.15308" lon="1.36134">
        <ele>292.8</ele>
        <time>2023-03-05T14:59:45Z</time>
        <extensions>
          <gpxtpx:TrackPointExtension xmlns:gpxtpx="http://www.garmin.com/xmlschemas/TrackPointExtension/v1">
            <gpxtpx:hr>102</gpxtpx:hr>
          </gpxtpx:TrackPointExtension>
        </extensions>
      </trkpt>
      <trkpt lat="43.15306" lon="1.36126">
        <ele>292.4</ele>
        <time>2023-03-05T14:59:46Z</time>
        <extensions>
          <gpxtpx:TrackPointExtension xmlns:gpxtpx="http://www.garmin.com/xmlschemas/TrackPointExtension/v1">
            <gpxtpx:hr>102</gpxtpx:hr>
          </gpxtpx:TrackPointExtension>
        </extensions>
      </trkpt>
      <trkpt lat="43.15303" lon="1.36118">
        <ele>292</ele>
        <time>2023-03-05T14:59:47Z</time>
        <extensions>
          <gpxtpx:TrackPointExtension xmlns:gpxtpx="http://www.garmin.com/xmlschemas/TrackPointExtension/v1">
            <gpxtpx:hr>102</gpxtpx:hr>
          </gpxtpx:TrackPointExtension>
        </extensions>
      </trkpt>
      <trkpt lat="43.15301" lon="1.3611">
        <ele>291.4</ele>
        <time>2023-03-05T14:59:48Z</time>
        <extensions>
          <gpxtpx:TrackPointExtension xmlns:gpxtpx="http://www.garmin.com/xmlschemas/TrackPointExtension/v1">
            <gpxtpx:hr>102</gpxtpx:hr>
          </gpxtpx:TrackPointExtension>
        </extensions>
      </trkpt>
      <trkpt lat="43.15291" lon="1.36078">
        <ele>291.4</ele>
        <time>2023-03-05T14:59:52Z</time>
        <extensions>
          <gpxtpx:TrackPointExtension xmlns:gpxtpx="http://www.garmin.com/xmlschemas/TrackPointExtension/v1">
            <gpxtpx:hr>103</gpxtpx:hr>
          </gpxtpx:TrackPointExtension>
        </extensions>
      </trkpt>
      <trkpt lat="43.15285" lon="1.36063">
        <ele>291</ele>
        <time>2023-03-05T14:59:54Z</time>
        <extensions>
          <gpxtpx:TrackPointExtension xmlns:gpxtpx="http://www.garmin.com/xmlschemas/TrackPointExtension/v1">
            <gpxtpx:hr>103</gpxtpx:hr>
          </gpxtpx:TrackPointExtension>
        </extensions>
      </trkpt>
      <trkpt lat="43.15281" lon="1.36057">
        <ele>290.6</ele>
        <time>2023-03-05T14:59:55Z</time>
        <extensions>
          <gpxtpx:TrackPointExtension xmlns:gpxtpx="http://www.garmin.com/xmlschemas/TrackPointExtension/v1">
            <gpxtpx:hr>103</gpxtpx:hr>
          </gpxtpx:TrackPointExtension>
        </extensions>
      </trkpt>
      <trkpt lat="43.15277" lon="1.36051">
        <ele>290.2</ele>
        <time>2023-03-05T14:59:56Z</time>
        <extensions>
          <gpxtpx:TrackPointExtension xmlns:gpxtpx="http://www.garmin.com/xmlschemas/TrackPointExtension/v1">
            <gpxtpx:hr>103</gpxtpx:hr>
          </gpxtpx:TrackPointExtension>
        </extensions>
      </trkpt>
      <trkpt lat="43.15273" lon="1.36045">
        <ele>289.8</ele>
        <time>2023-03-05T14:59:57Z</time>
        <extensions>
          <gpxtpx:TrackPointExtension xmlns:gpxtpx="http://www.garmin.com/xmlschemas/TrackPointExtension/v1">
            <gpxtpx:hr>104</gpxtpx:hr>
          </gpxtpx:TrackPointExtension>
        </extensions>
      </trkpt>
      <trkpt lat="43.15268" lon="1.36041">
        <ele>289.4</ele>
        <time>2023-03-05T14:59:58Z</time>
        <extensions>
          <gpxtpx:TrackPointExtension xmlns:gpxtpx="http://www.garmin.com/xmlschemas/TrackPointExtension/v1">
            <gpxtpx:hr>104</gpxtpx:hr>
          </gpxtpx:TrackPointExtension>
        </extensions>
      </trkpt>
      <trkpt lat="43.15251" lon="1.36033">
        <ele>289.4</ele>
        <time>2023-03-05T15:00:01Z</time>
        <extensions>
          <gpxtpx:TrackPointExtension xmlns:gpxtpx="http://www.garmin.com/xmlschemas/TrackPointExtension/v1">
            <gpxtpx:hr>104</gpxtpx:hr>
          </gpxtpx:TrackPointExtension>
        </extensions>
      </trkpt>
      <trkpt lat="43.15212" lon="1.36018">
        <ele>289.4</ele>
        <time>2023-03-05T15:00:08Z</time>
        <extensions>
          <gpxtpx:TrackPointExtension xmlns:gpxtpx="http://www.garmin.com/xmlschemas/TrackPointExtension/v1">
            <gpxtpx:hr>104</gpxtpx:hr>
          </gpxtpx:TrackPointExtension>
        </extensions>
      </trkpt>
      <trkpt lat="43.15191" lon="1.36004">
        <ele>289.4</ele>
        <time>2023-03-05T15:00:12Z</time>
        <extensions>
          <gpxtpx:TrackPointExtension xmlns:gpxtpx="http://www.garmin.com/xmlschemas/TrackPointExtension/v1">
            <gpxtpx:hr>107</gpxtpx:hr>
          </gpxtpx:TrackPointExtension>
        </extensions>
      </trkpt>
      <trkpt lat="43.15182" lon="1.35996">
        <ele>289.4</ele>
        <time>2023-03-05T15:00:14Z</time>
        <extensions>
          <gpxtpx:TrackPointExtension xmlns:gpxtpx="http://www.garmin.com/xmlschemas/TrackPointExtension/v1">
            <gpxtpx:hr>108</gpxtpx:hr>
          </gpxtpx:TrackPointExtension>
        </extensions>
      </trkpt>
      <trkpt lat="43.15169" lon="1.3598">
        <ele>289.4</ele>
        <time>2023-03-05T15:00:17Z</time>
        <extensions>
          <gpxtpx:TrackPointExtension xmlns:gpxtpx="http://www.garmin.com/xmlschemas/TrackPointExtension/v1">
            <gpxtpx:hr>108</gpxtpx:hr>
          </gpxtpx:TrackPointExtension>
        </extensions>
      </trkpt>
      <trkpt lat="43.15163" lon="1.35969">
        <ele>289.4</ele>
        <time>2023-03-05T15:00:19Z</time>
        <extensions>
          <gpxtpx:TrackPointExtension xmlns:gpxtpx="http://www.garmin.com/xmlschemas/TrackPointExtension/v1">
            <gpxtpx:hr>108</gpxtpx:hr>
          </gpxtpx:TrackPointExtension>
        </extensions>
      </trkpt>
      <trkpt lat="43.15156" lon="1.35957">
        <ele>289.4</ele>
        <time>2023-03-05T15:00:21Z</time>
        <extensions>
          <gpxtpx:TrackPointExtension xmlns:gpxtpx="http://www.garmin.com/xmlschemas/TrackPointExtension/v1">
            <gpxtpx:hr>108</gpxtpx:hr>
          </gpxtpx:TrackPointExtension>
        </extensions>
      </trkpt>
      <trkpt lat="43.15146" lon="1.35941">
        <ele>289</ele>
        <time>2023-03-05T15:00:24Z</time>
        <extensions>
          <gpxtpx:TrackPointExtension xmlns:gpxtpx="http://www.garmin.com/xmlschemas/TrackPointExtension/v1">
            <gpxtpx:hr>108</gpxtpx:hr>
          </gpxtpx:TrackPointExtension>
        </extensions>
      </trkpt>
      <trkpt lat="43.15143" lon="1.35935">
        <ele>288.6</ele>
        <time>2023-03-05T15:00:25Z</time>
        <extensions>
          <gpxtpx:TrackPointExtension xmlns:gpxtpx="http://www.garmin.com/xmlschemas/TrackPointExtension/v1">
            <gpxtpx:hr>108</gpxtpx:hr>
          </gpxtpx:TrackPointExtension>
        </extensions>
      </trkpt>
      <trkpt lat="43.1514" lon="1.3593">
        <ele>288.2</ele>
        <time>2023-03-05T15:00:26Z</time>
        <extensions>
          <gpxtpx:TrackPointExtension xmlns:gpxtpx="http://www.garmin.com/xmlschemas/TrackPointExtension/v1">
            <gpxtpx:hr>108</gpxtpx:hr>
          </gpxtpx:TrackPointExtension>
        </extensions>
      </trkpt>
      <trkpt lat="43.15137" lon="1.35925">
        <ele>287.8</ele>
        <time>2023-03-05T15:00:27Z</time>
        <extensions>
          <gpxtpx:TrackPointExtension xmlns:gpxtpx="http://www.garmin.com/xmlschemas/TrackPointExtension/v1">
            <gpxtpx:hr>107</gpxtpx:hr>
          </gpxtpx:TrackPointExtension>
        </extensions>
      </trkpt>
      <trkpt lat="43.15134" lon="1.3592">
        <ele>287.2</ele>
        <time>2023-03-05T15:00:28Z</time>
        <extensions>
          <gpxtpx:TrackPointExtension xmlns:gpxtpx="http://www.garmin.com/xmlschemas/TrackPointExtension/v1">
            <gpxtpx:hr>107</gpxtpx:hr>
          </gpxtpx:TrackPointExtension>
        </extensions>
      </trkpt>
      <trkpt lat="43.15132" lon="1.35915">
        <ele>287.2</ele>
        <time>2023-03-05T15:00:29Z</time>
        <extensions>
          <gpxtpx:TrackPointExtension xmlns:gpxtpx="http://www.garmin.com/xmlschemas/TrackPointExtension/v1">
            <gpxtpx:hr>107</gpxtpx:hr>
          </gpxtpx:TrackPointExtension>
        </extensions>
      </trkpt>
      <trkpt lat="43.15113" lon="1.35881">
        <ele>287.2</ele>
        <time>2023-03-05T15:00:36Z</time>
        <extensions>
          <gpxtpx:TrackPointExtension xmlns:gpxtpx="http://www.garmin.com/xmlschemas/TrackPointExtension/v1">
            <gpxtpx:hr>107</gpxtpx:hr>
          </gpxtpx:TrackPointExtension>
        </extensions>
      </trkpt>
      <trkpt lat="43.15107" lon="1.35871">
        <ele>287.2</ele>
        <time>2023-03-05T15:00:38Z</time>
        <extensions>
          <gpxtpx:TrackPointExtension xmlns:gpxtpx="http://www.garmin.com/xmlschemas/TrackPointExtension/v1">
            <gpxtpx:hr>101</gpxtpx:hr>
          </gpxtpx:TrackPointExtension>
        </extensions>
      </trkpt>
      <trkpt lat="43.15104" lon="1.35865">
        <ele>287.2</ele>
        <time>2023-03-05T15:00:39Z</time>
        <extensions>
          <gpxtpx:TrackPointExtension xmlns:gpxtpx="http://www.garmin.com/xmlschemas/TrackPointExtension/v1">
            <gpxtpx:hr>101</gpxtpx:hr>
          </gpxtpx:TrackPointExtension>
        </extensions>
      </trkpt>
      <trkpt lat="43.15092" lon="1.35843">
        <ele>287.2</ele>
        <time>2023-03-05T15:00:43Z</time>
        <extensions>
          <gpxtpx:TrackPointExtension xmlns:gpxtpx="http://www.garmin.com/xmlschemas/TrackPointExtension/v1">
            <gpxtpx:hr>101</gpxtpx:hr>
          </gpxtpx:TrackPointExtension>
        </extensions>
      </trkpt>
      <trkpt lat="43.15089" lon="1.35837">
        <ele>287.2</ele>
        <time>2023-03-05T15:00:44Z</time>
        <extensions>
          <gpxtpx:TrackPointExtension xmlns:gpxtpx="http://www.garmin.com/xmlschemas/TrackPointExtension/v1">
            <gpxtpx:hr>102</gpxtpx:hr>
          </gpxtpx:TrackPointExtension>
        </extensions>
      </trkpt>
      <trkpt lat="43.15083" lon="1.35825">
        <ele>287.2</ele>
        <time>2023-03-05T15:00:46Z</time>
        <extensions>
          <gpxtpx:TrackPointExtension xmlns:gpxtpx="http://www.garmin.com/xmlschemas/TrackPointExtension/v1">
            <gpxtpx:hr>105</gpxtpx:hr>
          </gpxtpx:TrackPointExtension>
        </extensions>
      </trkpt>
      <trkpt lat="43.15065" lon="1.35795">
        <ele>287.2</ele>
        <time>2023-03-05T15:00:51Z</time>
        <extensions>
          <gpxtpx:TrackPointExtension xmlns:gpxtpx="http://www.garmin.com/xmlschemas/TrackPointExtension/v1">
            <gpxtpx:hr>107</gpxtpx:hr>
          </gpxtpx:TrackPointExtension>
        </extensions>
      </trkpt>
      <trkpt lat="43.15035" lon="1.35743">
        <ele>287.2</ele>
        <time>2023-03-05T15:01:00Z</time>
        <extensions>
          <gpxtpx:TrackPointExtension xmlns:gpxtpx="http://www.garmin.com/xmlschemas/TrackPointExtension/v1">
            <gpxtpx:hr>108</gpxtpx:hr>
          </gpxtpx:TrackPointExtension>
        </extensions>
      </trkpt>
      <trkpt lat="43.15012" lon="1.35701">
        <ele>287.2</ele>
        <time>2023-03-05T15:01:07Z</time>
        <extensions>
          <gpxtpx:TrackPointExtension xmlns:gpxtpx="http://www.garmin.com/xmlschemas/TrackPointExtension/v1">
            <gpxtpx:hr>108</gpxtpx:hr>
          </gpxtpx:TrackPointExtension>
        </extensions>
      </trkpt>
      <trkpt lat="43.15" lon="1.35679">
        <ele>287.2</ele>
        <time>2023-03-05T15:01:11Z</time>
        <extensions>
          <gpxtpx:TrackPointExtension xmlns:gpxtpx="http://www.garmin.com/xmlschemas/TrackPointExtension/v1">
            <gpxtpx:hr>102</gpxtpx:hr>
          </gpxtpx:TrackPointExtension>
        </extensions>
      </trkpt>
      <trkpt lat="43.14997" lon="1.35674">
        <ele>287.2</ele>
        <time>2023-03-05T15:01:12Z</time>
        <extensions>
          <gpxtpx:TrackPointExtension xmlns:gpxtpx="http://www.garmin.com/xmlschemas/TrackPointExtension/v1">
            <gpxtpx:hr>102</gpxtpx:hr>
          </gpxtpx:TrackPointExtension>
        </extensions>
      </trkpt>
      <trkpt lat="43.14987" lon="1.35657">
        <ele>287.2</ele>
        <time>2023-03-05T15:01:15Z</time>
        <extensions>
          <gpxtpx:TrackPointExtension xmlns:gpxtpx="http://www.garmin.com/xmlschemas/TrackPointExtension/v1">
            <gpxtpx:hr>105</gpxtpx:hr>
          </gpxtpx:TrackPointExtension>
        </extensions>
      </trkpt>
      <trkpt lat="43.14984" lon="1.35652">
        <ele>287.2</ele>
        <time>2023-03-05T15:01:16Z</time>
        <extensions>
          <gpxtpx:TrackPointExtension xmlns:gpxtpx="http://www.garmin.com/xmlschemas/TrackPointExtension/v1">
            <gpxtpx:hr>106</gpxtpx:hr>
          </gpxtpx:TrackPointExtension>
        </extensions>
      </trkpt>
      <trkpt lat="43.14968" lon="1.35623">
        <ele>287.2</ele>
        <time>2023-03-05T15:01:21Z</time>
        <extensions>
          <gpxtpx:TrackPointExtension xmlns:gpxtpx="http://www.garmin.com/xmlschemas/TrackPointExtension/v1">
            <gpxtpx:hr>109</gpxtpx:hr>
          </gpxtpx:TrackPointExtension>
        </extensions>
      </trkpt>
      <trkpt lat="43.14959" lon="1.35607">
        <ele>287.2</ele>
        <time>2023-03-05T15:01:24Z</time>
        <extensions>
          <gpxtpx:TrackPointExtension xmlns:gpxtpx="http://www.garmin.com/xmlschemas/TrackPointExtension/v1">
            <gpxtpx:hr>109</gpxtpx:hr>
          </gpxtpx:TrackPointExtension>
        </extensions>
      </trkpt>
      <trkpt lat="43.14938" lon="1.35568">
        <ele>286.8</ele>
        <time>2023-03-05T15:01:31Z</time>
        <extensions>
          <gpxtpx:TrackPointExtension xmlns:gpxtpx="http://www.garmin.com/xmlschemas/TrackPointExtension/v1">
            <gpxtpx:hr>111</gpxtpx:hr>
          </gpxtpx:TrackPointExtension>
        </extensions>
      </trkpt>
      <trkpt lat="43.14935" lon="1.35562">
        <ele>286.4</ele>
        <time>2023-03-05T15:01:32Z</time>
        <extensions>
          <gpxtpx:TrackPointExtension xmlns:gpxtpx="http://www.garmin.com/xmlschemas/TrackPointExtension/v1">
            <gpxtpx:hr>111</gpxtpx:hr>
          </gpxtpx:TrackPointExtension>
        </extensions>
      </trkpt>
      <trkpt lat="43.14932" lon="1.35557">
        <ele>286</ele>
        <time>2023-03-05T15:01:33Z</time>
        <extensions>
          <gpxtpx:TrackPointExtension xmlns:gpxtpx="http://www.garmin.com/xmlschemas/TrackPointExtension/v1">
            <gpxtpx:hr>112</gpxtpx:hr>
          </gpxtpx:TrackPointExtension>
        </extensions>
      </trkpt>
      <trkpt lat="43.14929" lon="1.35551">
        <ele>285.6</ele>
        <time>2023-03-05T15:01:34Z</time>
        <extensions>
          <gpxtpx:TrackPointExtension xmlns:gpxtpx="http://www.garmin.com/xmlschemas/TrackPointExtension/v1">
            <gpxtpx:hr>112</gpxtpx:hr>
          </gpxtpx:TrackPointExtension>
        </extensions>
      </trkpt>
      <trkpt lat="43.14926" lon="1.35545">
        <ele>285</ele>
        <time>2023-03-05T15:01:35Z</time>
        <extensions>
          <gpxtpx:TrackPointExtension xmlns:gpxtpx="http://www.garmin.com/xmlschemas/TrackPointExtension/v1">
            <gpxtpx:hr>113</gpxtpx:hr>
          </gpxtpx:TrackPointExtension>
        </extensions>
      </trkpt>
      <trkpt lat="43.14911" lon="1.35517">
        <ele>285</ele>
        <time>2023-03-05T15:01:40Z</time>
        <extensions>
          <gpxtpx:TrackPointExtension xmlns:gpxtpx="http://www.garmin.com/xmlschemas/TrackPointExtension/v1">
            <gpxtpx:hr>113</gpxtpx:hr>
          </gpxtpx:TrackPointExtension>
        </extensions>
      </trkpt>
      <trkpt lat="43.14893" lon="1.35485">
        <ele>285</ele>
        <time>2023-03-05T15:01:46Z</time>
        <extensions>
          <gpxtpx:TrackPointExtension xmlns:gpxtpx="http://www.garmin.com/xmlschemas/TrackPointExtension/v1">
            <gpxtpx:hr>112</gpxtpx:hr>
          </gpxtpx:TrackPointExtension>
        </extensions>
      </trkpt>
      <trkpt lat="43.14865" lon="1.35434">
        <ele>285</ele>
        <time>2023-03-05T15:01:55Z</time>
        <extensions>
          <gpxtpx:TrackPointExtension xmlns:gpxtpx="http://www.garmin.com/xmlschemas/TrackPointExtension/v1">
            <gpxtpx:hr>112</gpxtpx:hr>
          </gpxtpx:TrackPointExtension>
        </extensions>
      </trkpt>
      <trkpt lat="43.14859" lon="1.35423">
        <ele>285</ele>
        <time>2023-03-05T15:01:57Z</time>
        <extensions>
          <gpxtpx:TrackPointExtension xmlns:gpxtpx="http://www.garmin.com/xmlschemas/TrackPointExtension/v1">
            <gpxtpx:hr>112</gpxtpx:hr>
          </gpxtpx:TrackPointExtension>
        </extensions>
      </trkpt>
      <trkpt lat="43.14842" lon="1.35395">
        <ele>285</ele>
        <time>2023-03-05T15:02:02Z</time>
        <extensions>
          <gpxtpx:TrackPointExtension xmlns:gpxtpx="http://www.garmin.com/xmlschemas/TrackPointExtension/v1">
            <gpxtpx:hr>111</gpxtpx:hr>
          </gpxtpx:TrackPointExtension>
        </extensions>
      </trkpt>
      <trkpt lat="43.14806" lon="1.35351">
        <ele>285</ele>
        <time>2023-03-05T15:02:11Z</time>
        <extensions>
          <gpxtpx:TrackPointExtension xmlns:gpxtpx="http://www.garmin.com/xmlschemas/TrackPointExtension/v1">
            <gpxtpx:hr>112</gpxtpx:hr>
          </gpxtpx:TrackPointExtension>
        </extensions>
      </trkpt>
      <trkpt lat="43.14761" lon="1.35315">
        <ele>285</ele>
        <time>2023-03-05T15:02:21Z</time>
        <extensions>
          <gpxtpx:TrackPointExtension xmlns:gpxtpx="http://www.garmin.com/xmlschemas/TrackPointExtension/v1">
            <gpxtpx:hr>113</gpxtpx:hr>
          </gpxtpx:TrackPointExtension>
        </extensions>
      </trkpt>
      <trkpt lat="43.14721" lon="1.35294">
        <ele>285</ele>
        <time>2023-03-05T15:02:29Z</time>
        <extensions>
          <gpxtpx:TrackPointExtension xmlns:gpxtpx="http://www.garmin.com/xmlschemas/TrackPointExtension/v1">
            <gpxtpx:hr>113</gpxtpx:hr>
          </gpxtpx:TrackPointExtension>
        </extensions>
      </trkpt>
      <trkpt lat="43.14687" lon="1.35279">
        <ele>285</ele>
        <time>2023-03-05T15:02:36Z</time>
        <extensions>
          <gpxtpx:TrackPointExtension xmlns:gpxtpx="http://www.garmin.com/xmlschemas/TrackPointExtension/v1">
            <gpxtpx:hr>112</gpxtpx:hr>
          </gpxtpx:TrackPointExtension>
        </extensions>
      </trkpt>
      <trkpt lat="43.1465" lon="1.35263">
        <ele>285</ele>
        <time>2023-03-05T15:02:43Z</time>
        <extensions>
          <gpxtpx:TrackPointExtension xmlns:gpxtpx="http://www.garmin.com/xmlschemas/TrackPointExtension/v1">
            <gpxtpx:hr>113</gpxtpx:hr>
          </gpxtpx:TrackPointExtension>
        </extensions>
      </trkpt>
      <trkpt lat="43.14623" lon="1.35251">
        <ele>284.6</ele>
        <time>2023-03-05T15:02:48Z</time>
        <extensions>
          <gpxtpx:TrackPointExtension xmlns:gpxtpx="http://www.garmin.com/xmlschemas/TrackPointExtension/v1">
            <gpxtpx:hr>113</gpxtpx:hr>
          </gpxtpx:TrackPointExtension>
        </extensions>
      </trkpt>
      <trkpt lat="43.14618" lon="1.35249">
        <ele>284.2</ele>
        <time>2023-03-05T15:02:49Z</time>
        <extensions>
          <gpxtpx:TrackPointExtension xmlns:gpxtpx="http://www.garmin.com/xmlschemas/TrackPointExtension/v1">
            <gpxtpx:hr>113</gpxtpx:hr>
          </gpxtpx:TrackPointExtension>
        </extensions>
      </trkpt>
      <trkpt lat="43.14613" lon="1.35246">
        <ele>283.8</ele>
        <time>2023-03-05T15:02:50Z</time>
        <extensions>
          <gpxtpx:TrackPointExtension xmlns:gpxtpx="http://www.garmin.com/xmlschemas/TrackPointExtension/v1">
            <gpxtpx:hr>113</gpxtpx:hr>
          </gpxtpx:TrackPointExtension>
        </extensions>
      </trkpt>
      <trkpt lat="43.14608" lon="1.35243">
        <ele>283.4</ele>
        <time>2023-03-05T15:02:51Z</time>
        <extensions>
          <gpxtpx:TrackPointExtension xmlns:gpxtpx="http://www.garmin.com/xmlschemas/TrackPointExtension/v1">
            <gpxtpx:hr>114</gpxtpx:hr>
          </gpxtpx:TrackPointExtension>
        </extensions>
      </trkpt>
      <trkpt lat="43.14602" lon="1.35241">
        <ele>282.8</ele>
        <time>2023-03-05T15:02:52Z</time>
        <extensions>
          <gpxtpx:TrackPointExtension xmlns:gpxtpx="http://www.garmin.com/xmlschemas/TrackPointExtension/v1">
            <gpxtpx:hr>114</gpxtpx:hr>
          </gpxtpx:TrackPointExtension>
        </extensions>
      </trkpt>
      <trkpt lat="43.14592" lon="1.35236">
        <ele>282.8</ele>
        <time>2023-03-05T15:02:54Z</time>
        <extensions>
          <gpxtpx:TrackPointExtension xmlns:gpxtpx="http://www.garmin.com/xmlschemas/TrackPointExtension/v1">
            <gpxtpx:hr>114</gpxtpx:hr>
          </gpxtpx:TrackPointExtension>
        </extensions>
      </trkpt>
      <trkpt lat="43.14546" lon="1.35216">
        <ele>282.8</ele>
        <time>2023-03-05T15:03:03Z</time>
        <extensions>
          <gpxtpx:TrackPointExtension xmlns:gpxtpx="http://www.garmin.com/xmlschemas/TrackPointExtension/v1">
            <gpxtpx:hr>113</gpxtpx:hr>
          </gpxtpx:TrackPointExtension>
        </extensions>
      </trkpt>
      <trkpt lat="43.14506" lon="1.35197">
        <ele>282.8</ele>
        <time>2023-03-05T15:03:11Z</time>
        <extensions>
          <gpxtpx:TrackPointExtension xmlns:gpxtpx="http://www.garmin.com/xmlschemas/TrackPointExtension/v1">
            <gpxtpx:hr>114</gpxtpx:hr>
          </gpxtpx:TrackPointExtension>
        </extensions>
      </trkpt>
      <trkpt lat="43.14453" lon="1.35173">
        <ele>282.8</ele>
        <time>2023-03-05T15:03:21Z</time>
        <extensions>
          <gpxtpx:TrackPointExtension xmlns:gpxtpx="http://www.garmin.com/xmlschemas/TrackPointExtension/v1">
            <gpxtpx:hr>113</gpxtpx:hr>
          </gpxtpx:TrackPointExtension>
        </extensions>
      </trkpt>
      <trkpt lat="43.14405" lon="1.35151">
        <ele>282.8</ele>
        <time>2023-03-05T15:03:30Z</time>
        <extensions>
          <gpxtpx:TrackPointExtension xmlns:gpxtpx="http://www.garmin.com/xmlschemas/TrackPointExtension/v1">
            <gpxtpx:hr>113</gpxtpx:hr>
          </gpxtpx:TrackPointExtension>
        </extensions>
      </trkpt>
      <trkpt lat="43.14394" lon="1.35147">
        <ele>282</ele>
        <time>2023-03-05T15:03:32Z</time>
        <extensions>
          <gpxtpx:TrackPointExtension xmlns:gpxtpx="http://www.garmin.com/xmlschemas/TrackPointExtension/v1">
            <gpxtpx:hr>113</gpxtpx:hr>
          </gpxtpx:TrackPointExtension>
        </extensions>
      </trkpt>
      <trkpt lat="43.14389" lon="1.35144">
        <ele>281.6</ele>
        <time>2023-03-05T15:03:33Z</time>
        <extensions>
          <gpxtpx:TrackPointExtension xmlns:gpxtpx="http://www.garmin.com/xmlschemas/TrackPointExtension/v1">
            <gpxtpx:hr>113</gpxtpx:hr>
          </gpxtpx:TrackPointExtension>
        </extensions>
      </trkpt>
      <trkpt lat="43.14384" lon="1.35142">
        <ele>281.2</ele>
        <time>2023-03-05T15:03:34Z</time>
        <extensions>
          <gpxtpx:TrackPointExtension xmlns:gpxtpx="http://www.garmin.com/xmlschemas/TrackPointExtension/v1">
            <gpxtpx:hr>113</gpxtpx:hr>
          </gpxtpx:TrackPointExtension>
        </extensions>
      </trkpt>
      <trkpt lat="43.14379" lon="1.35139">
        <ele>280.8</ele>
        <time>2023-03-05T15:03:35Z</time>
        <extensions>
          <gpxtpx:TrackPointExtension xmlns:gpxtpx="http://www.garmin.com/xmlschemas/TrackPointExtension/v1">
            <gpxtpx:hr>113</gpxtpx:hr>
          </gpxtpx:TrackPointExtension>
        </extensions>
      </trkpt>
      <trkpt lat="43.14362" lon="1.35131">
        <ele>280.8</ele>
        <time>2023-03-05T15:03:38Z</time>
        <extensions>
          <gpxtpx:TrackPointExtension xmlns:gpxtpx="http://www.garmin.com/xmlschemas/TrackPointExtension/v1">
            <gpxtpx:hr>113</gpxtpx:hr>
          </gpxtpx:TrackPointExtension>
        </extensions>
      </trkpt>
      <trkpt lat="43.14316" lon="1.35111">
        <ele>280.8</ele>
        <time>2023-03-05T15:03:47Z</time>
        <extensions>
          <gpxtpx:TrackPointExtension xmlns:gpxtpx="http://www.garmin.com/xmlschemas/TrackPointExtension/v1">
            <gpxtpx:hr>110</gpxtpx:hr>
          </gpxtpx:TrackPointExtension>
        </extensions>
      </trkpt>
      <trkpt lat="43.1428" lon="1.35099">
        <ele>280.8</ele>
        <time>2023-03-05T15:03:54Z</time>
        <extensions>
          <gpxtpx:TrackPointExtension xmlns:gpxtpx="http://www.garmin.com/xmlschemas/TrackPointExtension/v1">
            <gpxtpx:hr>109</gpxtpx:hr>
          </gpxtpx:TrackPointExtension>
        </extensions>
      </trkpt>
      <trkpt lat="43.14239" lon="1.35089">
        <ele>280.8</ele>
        <time>2023-03-05T15:04:02Z</time>
        <extensions>
          <gpxtpx:TrackPointExtension xmlns:gpxtpx="http://www.garmin.com/xmlschemas/TrackPointExtension/v1">
            <gpxtpx:hr>109</gpxtpx:hr>
          </gpxtpx:TrackPointExtension>
        </extensions>
      </trkpt>
      <trkpt lat="43.14182" lon="1.35075">
        <ele>280.8</ele>
        <time>2023-03-05T15:04:13Z</time>
        <extensions>
          <gpxtpx:TrackPointExtension xmlns:gpxtpx="http://www.garmin.com/xmlschemas/TrackPointExtension/v1">
            <gpxtpx:hr>111</gpxtpx:hr>
          </gpxtpx:TrackPointExtension>
        </extensions>
      </trkpt>
      <trkpt lat="43.14135" lon="1.35063">
        <ele>280.8</ele>
        <time>2023-03-05T15:04:22Z</time>
        <extensions>
          <gpxtpx:TrackPointExtension xmlns:gpxtpx="http://www.garmin.com/xmlschemas/TrackPointExtension/v1">
            <gpxtpx:hr>112</gpxtpx:hr>
          </gpxtpx:TrackPointExtension>
        </extensions>
      </trkpt>
      <trkpt lat="43.14093" lon="1.35053">
        <ele>280.8</ele>
        <time>2023-03-05T15:04:30Z</time>
        <extensions>
          <gpxtpx:TrackPointExtension xmlns:gpxtpx="http://www.garmin.com/xmlschemas/TrackPointExtension/v1">
            <gpxtpx:hr>112</gpxtpx:hr>
          </gpxtpx:TrackPointExtension>
        </extensions>
      </trkpt>
      <trkpt lat="43.14061" lon="1.35031">
        <ele>280.8</ele>
        <time>2023-03-05T15:04:37Z</time>
        <extensions>
          <gpxtpx:TrackPointExtension xmlns:gpxtpx="http://www.garmin.com/xmlschemas/TrackPointExtension/v1">
            <gpxtpx:hr>112</gpxtpx:hr>
          </gpxtpx:TrackPointExtension>
        </extensions>
      </trkpt>
      <trkpt lat="43.14039" lon="1.34999">
        <ele>280.8</ele>
        <time>2023-03-05T15:04:44Z</time>
        <extensions>
          <gpxtpx:TrackPointExtension xmlns:gpxtpx="http://www.garmin.com/xmlschemas/TrackPointExtension/v1">
            <gpxtpx:hr>111</gpxtpx:hr>
          </gpxtpx:TrackPointExtension>
        </extensions>
      </trkpt>
      <trkpt lat="43.14021" lon="1.34953">
        <ele>280.8</ele>
        <time>2023-03-05T15:04:51Z</time>
        <extensions>
          <gpxtpx:TrackPointExtension xmlns:gpxtpx="http://www.garmin.com/xmlschemas/TrackPointExtension/v1">
            <gpxtpx:hr>111</gpxtpx:hr>
          </gpxtpx:TrackPointExtension>
        </extensions>
      </trkpt>
      <trkpt lat="43.14016" lon="1.3494">
        <ele>280.4</ele>
        <time>2023-03-05T15:04:53Z</time>
        <extensions>
          <gpxtpx:TrackPointExtension xmlns:gpxtpx="http://www.garmin.com/xmlschemas/TrackPointExtension/v1">
            <gpxtpx:hr>111</gpxtpx:hr>
          </gpxtpx:TrackPointExtension>
        </extensions>
      </trkpt>
      <trkpt lat="43.14013" lon="1.34933">
        <ele>280</ele>
        <time>2023-03-05T15:04:54Z</time>
        <extensions>
          <gpxtpx:TrackPointExtension xmlns:gpxtpx="http://www.garmin.com/xmlschemas/TrackPointExtension/v1">
            <gpxtpx:hr>111</gpxtpx:hr>
          </gpxtpx:TrackPointExtension>
        </extensions>
      </trkpt>
      <trkpt lat="43.1401" lon="1.34926">
        <ele>279.6</ele>
        <time>2023-03-05T15:04:55Z</time>
        <extensions>
          <gpxtpx:TrackPointExtension xmlns:gpxtpx="http://www.garmin.com/xmlschemas/TrackPointExtension/v1">
            <gpxtpx:hr>111</gpxtpx:hr>
          </gpxtpx:TrackPointExtension>
        </extensions>
      </trkpt>
      <trkpt lat="43.14007" lon="1.34919">
        <ele>279.2</ele>
        <time>2023-03-05T15:04:56Z</time>
        <extensions>
          <gpxtpx:TrackPointExtension xmlns:gpxtpx="http://www.garmin.com/xmlschemas/TrackPointExtension/v1">
            <gpxtpx:hr>111</gpxtpx:hr>
          </gpxtpx:TrackPointExtension>
        </extensions>
      </trkpt>
      <trkpt lat="43.14004" lon="1.34913">
        <ele>278.8</ele>
        <time>2023-03-05T15:04:57Z</time>
        <extensions>
          <gpxtpx:TrackPointExtension xmlns:gpxtpx="http://www.garmin.com/xmlschemas/TrackPointExtension/v1">
            <gpxtpx:hr>110</gpxtpx:hr>
          </gpxtpx:TrackPointExtension>
        </extensions>
      </trkpt>
      <trkpt lat="43.13998" lon="1.349">
        <ele>278.8</ele>
        <time>2023-03-05T15:04:59Z</time>
        <extensions>
          <gpxtpx:TrackPointExtension xmlns:gpxtpx="http://www.garmin.com/xmlschemas/TrackPointExtension/v1">
            <gpxtpx:hr>109</gpxtpx:hr>
          </gpxtpx:TrackPointExtension>
        </extensions>
      </trkpt>
      <trkpt lat="43.13977" lon="1.34857">
        <ele>278.8</ele>
        <time>2023-03-05T15:05:06Z</time>
        <extensions>
          <gpxtpx:TrackPointExtension xmlns:gpxtpx="http://www.garmin.com/xmlschemas/TrackPointExtension/v1">
            <gpxtpx:hr>108</gpxtpx:hr>
          </gpxtpx:TrackPointExtension>
        </extensions>
      </trkpt>
      <trkpt lat="43.13957" lon="1.34814">
        <ele>278.8</ele>
        <time>2023-03-05T15:05:13Z</time>
        <extensions>
          <gpxtpx:TrackPointExtension xmlns:gpxtpx="http://www.garmin.com/xmlschemas/TrackPointExtension/v1">
            <gpxtpx:hr>107</gpxtpx:hr>
          </gpxtpx:TrackPointExtension>
        </extensions>
      </trkpt>
      <trkpt lat="43.13954" lon="1.34808">
        <ele>278.4</ele>
        <time>2023-03-05T15:05:14Z</time>
        <extensions>
          <gpxtpx:TrackPointExtension xmlns:gpxtpx="http://www.garmin.com/xmlschemas/TrackPointExtension/v1">
            <gpxtpx:hr>107</gpxtpx:hr>
          </gpxtpx:TrackPointExtension>
        </extensions>
      </trkpt>
      <trkpt lat="43.13951" lon="1.34801">
        <ele>278</ele>
        <time>2023-03-05T15:05:15Z</time>
        <extensions>
          <gpxtpx:TrackPointExtension xmlns:gpxtpx="http://www.garmin.com/xmlschemas/TrackPointExtension/v1">
            <gpxtpx:hr>107</gpxtpx:hr>
          </gpxtpx:TrackPointExtension>
        </extensions>
      </trkpt>
      <trkpt lat="43.13948" lon="1.34795">
        <ele>277.6</ele>
        <time>2023-03-05T15:05:16Z</time>
        <extensions>
          <gpxtpx:TrackPointExtension xmlns:gpxtpx="http://www.garmin.com/xmlschemas/TrackPointExtension/v1">
            <gpxtpx:hr>107</gpxtpx:hr>
          </gpxtpx:TrackPointExtension>
        </extensions>
      </trkpt>
      <trkpt lat="43.13945" lon="1.34789">
        <ele>277</ele>
        <time>2023-03-05T15:05:17Z</time>
        <extensions>
          <gpxtpx:TrackPointExtension xmlns:gpxtpx="http://www.garmin.com/xmlschemas/TrackPointExtension/v1">
            <gpxtpx:hr>107</gpxtpx:hr>
          </gpxtpx:TrackPointExtension>
        </extensions>
      </trkpt>
      <trkpt lat="43.13942" lon="1.34783">
        <ele>276.6</ele>
        <time>2023-03-05T15:05:18Z</time>
        <extensions>
          <gpxtpx:TrackPointExtension xmlns:gpxtpx="http://www.garmin.com/xmlschemas/TrackPointExtension/v1">
            <gpxtpx:hr>107</gpxtpx:hr>
          </gpxtpx:TrackPointExtension>
        </extensions>
      </trkpt>
      <trkpt lat="43.13936" lon="1.34771">
        <ele>276.6</ele>
        <time>2023-03-05T15:05:20Z</time>
        <extensions>
          <gpxtpx:TrackPointExtension xmlns:gpxtpx="http://www.garmin.com/xmlschemas/TrackPointExtension/v1">
            <gpxtpx:hr>107</gpxtpx:hr>
          </gpxtpx:TrackPointExtension>
        </extensions>
      </trkpt>
      <trkpt lat="43.13915" lon="1.34725">
        <ele>276.6</ele>
        <time>2023-03-05T15:05:27Z</time>
        <extensions>
          <gpxtpx:TrackPointExtension xmlns:gpxtpx="http://www.garmin.com/xmlschemas/TrackPointExtension/v1">
            <gpxtpx:hr>107</gpxtpx:hr>
          </gpxtpx:TrackPointExtension>
        </extensions>
      </trkpt>
      <trkpt lat="43.13899" lon="1.34693">
        <ele>276.6</ele>
        <time>2023-03-05T15:05:32Z</time>
        <extensions>
          <gpxtpx:TrackPointExtension xmlns:gpxtpx="http://www.garmin.com/xmlschemas/TrackPointExtension/v1">
            <gpxtpx:hr>101</gpxtpx:hr>
          </gpxtpx:TrackPointExtension>
        </extensions>
      </trkpt>
      <trkpt lat="43.13896" lon="1.34687">
        <ele>276.6</ele>
        <time>2023-03-05T15:05:33Z</time>
        <extensions>
          <gpxtpx:TrackPointExtension xmlns:gpxtpx="http://www.garmin.com/xmlschemas/TrackPointExtension/v1">
            <gpxtpx:hr>101</gpxtpx:hr>
          </gpxtpx:TrackPointExtension>
        </extensions>
      </trkpt>
      <trkpt lat="43.13892" lon="1.34681">
        <ele>276.6</ele>
        <time>2023-03-05T15:05:34Z</time>
        <extensions>
          <gpxtpx:TrackPointExtension xmlns:gpxtpx="http://www.garmin.com/xmlschemas/TrackPointExtension/v1">
            <gpxtpx:hr>101</gpxtpx:hr>
          </gpxtpx:TrackPointExtension>
        </extensions>
      </trkpt>
      <trkpt lat="43.13871" lon="1.34648">
        <ele>276.6</ele>
        <time>2023-03-05T15:05:40Z</time>
        <extensions>
          <gpxtpx:TrackPointExtension xmlns:gpxtpx="http://www.garmin.com/xmlschemas/TrackPointExtension/v1">
            <gpxtpx:hr>103</gpxtpx:hr>
          </gpxtpx:TrackPointExtension>
        </extensions>
      </trkpt>
      <trkpt lat="43.13867" lon="1.34644">
        <ele>276.6</ele>
        <time>2023-03-05T15:05:41Z</time>
        <extensions>
          <gpxtpx:TrackPointExtension xmlns:gpxtpx="http://www.garmin.com/xmlschemas/TrackPointExtension/v1">
            <gpxtpx:hr>105</gpxtpx:hr>
          </gpxtpx:TrackPointExtension>
        </extensions>
      </trkpt>
      <trkpt lat="43.13841" lon="1.34618">
        <ele>276.6</ele>
        <time>2023-03-05T15:05:47Z</time>
        <extensions>
          <gpxtpx:TrackPointExtension xmlns:gpxtpx="http://www.garmin.com/xmlschemas/TrackPointExtension/v1">
            <gpxtpx:hr>105</gpxtpx:hr>
          </gpxtpx:TrackPointExtension>
        </extensions>
      </trkpt>
      <trkpt lat="43.13813" lon="1.3459">
        <ele>276.6</ele>
        <time>2023-03-05T15:05:54Z</time>
        <extensions>
          <gpxtpx:TrackPointExtension xmlns:gpxtpx="http://www.garmin.com/xmlschemas/TrackPointExtension/v1">
            <gpxtpx:hr>106</gpxtpx:hr>
          </gpxtpx:TrackPointExtension>
        </extensions>
      </trkpt>
      <trkpt lat="43.13788" lon="1.34566">
        <ele>276.6</ele>
        <time>2023-03-05T15:06:00Z</time>
        <extensions>
          <gpxtpx:TrackPointExtension xmlns:gpxtpx="http://www.garmin.com/xmlschemas/TrackPointExtension/v1">
            <gpxtpx:hr>109</gpxtpx:hr>
          </gpxtpx:TrackPointExtension>
        </extensions>
      </trkpt>
      <trkpt lat="43.13779" lon="1.34558">
        <ele>276.6</ele>
        <time>2023-03-05T15:06:02Z</time>
        <extensions>
          <gpxtpx:TrackPointExtension xmlns:gpxtpx="http://www.garmin.com/xmlschemas/TrackPointExtension/v1">
            <gpxtpx:hr>110</gpxtpx:hr>
          </gpxtpx:TrackPointExtension>
        </extensions>
      </trkpt>
      <trkpt lat="43.13742" lon="1.34523">
        <ele>276.6</ele>
        <time>2023-03-05T15:06:11Z</time>
        <extensions>
          <gpxtpx:TrackPointExtension xmlns:gpxtpx="http://www.garmin.com/xmlschemas/TrackPointExtension/v1">
            <gpxtpx:hr>111</gpxtpx:hr>
          </gpxtpx:TrackPointExtension>
        </extensions>
      </trkpt>
      <trkpt lat="43.13704" lon="1.34502">
        <ele>276.6</ele>
        <time>2023-03-05T15:06:19Z</time>
        <extensions>
          <gpxtpx:TrackPointExtension xmlns:gpxtpx="http://www.garmin.com/xmlschemas/TrackPointExtension/v1">
            <gpxtpx:hr>111</gpxtpx:hr>
          </gpxtpx:TrackPointExtension>
        </extensions>
      </trkpt>
      <trkpt lat="43.13655" lon="1.3448">
        <ele>276.6</ele>
        <time>2023-03-05T15:06:29Z</time>
        <extensions>
          <gpxtpx:TrackPointExtension xmlns:gpxtpx="http://www.garmin.com/xmlschemas/TrackPointExtension/v1">
            <gpxtpx:hr>112</gpxtpx:hr>
          </gpxtpx:TrackPointExtension>
        </extensions>
      </trkpt>
      <trkpt lat="43.13616" lon="1.34463">
        <ele>276.6</ele>
        <time>2023-03-05T15:06:37Z</time>
        <extensions>
          <gpxtpx:TrackPointExtension xmlns:gpxtpx="http://www.garmin.com/xmlschemas/TrackPointExtension/v1">
            <gpxtpx:hr>113</gpxtpx:hr>
          </gpxtpx:TrackPointExtension>
        </extensions>
      </trkpt>
      <trkpt lat="43.13574" lon="1.34444">
        <ele>276.6</ele>
        <time>2023-03-05T15:06:46Z</time>
        <extensions>
          <gpxtpx:TrackPointExtension xmlns:gpxtpx="http://www.garmin.com/xmlschemas/TrackPointExtension/v1">
            <gpxtpx:hr>113</gpxtpx:hr>
          </gpxtpx:TrackPointExtension>
        </extensions>
      </trkpt>
      <trkpt lat="43.13525" lon="1.34422">
        <ele>276.6</ele>
        <time>2023-03-05T15:06:56Z</time>
        <extensions>
          <gpxtpx:TrackPointExtension xmlns:gpxtpx="http://www.garmin.com/xmlschemas/TrackPointExtension/v1">
            <gpxtpx:hr>113</gpxtpx:hr>
          </gpxtpx:TrackPointExtension>
        </extensions>
      </trkpt>
      <trkpt lat="43.13482" lon="1.34404">
        <ele>276.6</ele>
        <time>2023-03-05T15:07:04Z</time>
        <extensions>
          <gpxtpx:TrackPointExtension xmlns:gpxtpx="http://www.garmin.com/xmlschemas/TrackPointExtension/v1">
            <gpxtpx:hr>114</gpxtpx:hr>
          </gpxtpx:TrackPointExtension>
        </extensions>
      </trkpt>
      <trkpt lat="43.13445" lon="1.34387">
        <ele>276.6</ele>
        <time>2023-03-05T15:07:11Z</time>
        <extensions>
          <gpxtpx:TrackPointExtension xmlns:gpxtpx="http://www.garmin.com/xmlschemas/TrackPointExtension/v1">
            <gpxtpx:hr>112</gpxtpx:hr>
          </gpxtpx:TrackPointExtension>
        </extensions>
      </trkpt>
      <trkpt lat="43.13413" lon="1.34372">
        <ele>276.2</ele>
        <time>2023-03-05T15:07:17Z</time>
        <extensions>
          <gpxtpx:TrackPointExtension xmlns:gpxtpx="http://www.garmin.com/xmlschemas/TrackPointExtension/v1">
            <gpxtpx:hr>112</gpxtpx:hr>
          </gpxtpx:TrackPointExtension>
        </extensions>
      </trkpt>
      <trkpt lat="43.13407" lon="1.3437">
        <ele>275.8</ele>
        <time>2023-03-05T15:07:18Z</time>
        <extensions>
          <gpxtpx:TrackPointExtension xmlns:gpxtpx="http://www.garmin.com/xmlschemas/TrackPointExtension/v1">
            <gpxtpx:hr>112</gpxtpx:hr>
          </gpxtpx:TrackPointExtension>
        </extensions>
      </trkpt>
      <trkpt lat="43.13402" lon="1.34367">
        <ele>275.4</ele>
        <time>2023-03-05T15:07:19Z</time>
        <extensions>
          <gpxtpx:TrackPointExtension xmlns:gpxtpx="http://www.garmin.com/xmlschemas/TrackPointExtension/v1">
            <gpxtpx:hr>112</gpxtpx:hr>
          </gpxtpx:TrackPointExtension>
        </extensions>
      </trkpt>
      <trkpt lat="43.13397" lon="1.34365">
        <ele>275</ele>
        <time>2023-03-05T15:07:20Z</time>
        <extensions>
          <gpxtpx:TrackPointExtension xmlns:gpxtpx="http://www.garmin.com/xmlschemas/TrackPointExtension/v1">
            <gpxtpx:hr>112</gpxtpx:hr>
          </gpxtpx:TrackPointExtension>
        </extensions>
      </trkpt>
      <trkpt lat="43.13392" lon="1.34363">
        <ele>274.6</ele>
        <time>2023-03-05T15:07:21Z</time>
        <extensions>
          <gpxtpx:TrackPointExtension xmlns:gpxtpx="http://www.garmin.com/xmlschemas/TrackPointExtension/v1">
            <gpxtpx:hr>112</gpxtpx:hr>
          </gpxtpx:TrackPointExtension>
        </extensions>
      </trkpt>
      <trkpt lat="43.13362" lon="1.34345">
        <ele>274.6</ele>
        <time>2023-03-05T15:07:27Z</time>
        <extensions>
          <gpxtpx:TrackPointExtension xmlns:gpxtpx="http://www.garmin.com/xmlschemas/TrackPointExtension/v1">
            <gpxtpx:hr>112</gpxtpx:hr>
          </gpxtpx:TrackPointExtension>
        </extensions>
      </trkpt>
      <trkpt lat="43.13352" lon="1.34338">
        <ele>274.6</ele>
        <time>2023-03-05T15:07:29Z</time>
        <extensions>
          <gpxtpx:TrackPointExtension xmlns:gpxtpx="http://www.garmin.com/xmlschemas/TrackPointExtension/v1">
            <gpxtpx:hr>108</gpxtpx:hr>
          </gpxtpx:TrackPointExtension>
        </extensions>
      </trkpt>
      <trkpt lat="43.1333" lon="1.34321">
        <ele>274.6</ele>
        <time>2023-03-05T15:07:34Z</time>
        <extensions>
          <gpxtpx:TrackPointExtension xmlns:gpxtpx="http://www.garmin.com/xmlschemas/TrackPointExtension/v1">
            <gpxtpx:hr>107</gpxtpx:hr>
          </gpxtpx:TrackPointExtension>
        </extensions>
      </trkpt>
      <trkpt lat="43.13325" lon="1.34319">
        <ele>274.6</ele>
        <time>2023-03-05T15:07:35Z</time>
        <extensions>
          <gpxtpx:TrackPointExtension xmlns:gpxtpx="http://www.garmin.com/xmlschemas/TrackPointExtension/v1">
            <gpxtpx:hr>107</gpxtpx:hr>
          </gpxtpx:TrackPointExtension>
        </extensions>
      </trkpt>
      <trkpt lat="43.13304" lon="1.34302">
        <ele>274.6</ele>
        <time>2023-03-05T15:07:40Z</time>
        <extensions>
          <gpxtpx:TrackPointExtension xmlns:gpxtpx="http://www.garmin.com/xmlschemas/TrackPointExtension/v1">
            <gpxtpx:hr>107</gpxtpx:hr>
          </gpxtpx:TrackPointExtension>
        </extensions>
      </trkpt>
      <trkpt lat="43.13299" lon="1.34299">
        <ele>274.6</ele>
        <time>2023-03-05T15:07:41Z</time>
        <extensions>
          <gpxtpx:TrackPointExtension xmlns:gpxtpx="http://www.garmin.com/xmlschemas/TrackPointExtension/v1">
            <gpxtpx:hr>107</gpxtpx:hr>
          </gpxtpx:TrackPointExtension>
        </extensions>
      </trkpt>
      <trkpt lat="43.13281" lon="1.34285">
        <ele>274.2</ele>
        <time>2023-03-05T15:07:45Z</time>
      </trkpt>
      <trkpt lat="43.13276" lon="1.34282">
        <ele>273.8</ele>
        <time>2023-03-05T15:07:46Z</time>
      </trkpt>
      <trkpt lat="43.13271" lon="1.34278">
        <ele>273.4</ele>
        <time>2023-03-05T15:07:47Z</time>
      </trkpt>
      <trkpt lat="43.13266" lon="1.34275">
        <ele>273</ele>
        <time>2023-03-05T15:07:48Z</time>
        <extensions>
          <gpxtpx:TrackPointExtension xmlns:gpxtpx="http://www.garmin.com/xmlschemas/TrackPointExtension/v1">
            <gpxtpx:hr>107</gpxtpx:hr>
          </gpxtpx:TrackPointExtension>
        </extensions>
      </trkpt>
      <trkpt lat="43.13261" lon="1.34272">
        <ele>272.6</ele>
        <time>2023-03-05T15:07:49Z</time>
        <extensions>
          <gpxtpx:TrackPointExtension xmlns:gpxtpx="http://www.garmin.com/xmlschemas/TrackPointExtension/v1">
            <gpxtpx:hr>107</gpxtpx:hr>
          </gpxtpx:TrackPointExtension>
        </extensions>
      </trkpt>
      <trkpt lat="43.13237" lon="1.34255">
        <ele>272.6</ele>
        <time>2023-03-05T15:07:54Z</time>
        <extensions>
          <gpxtpx:TrackPointExtension xmlns:gpxtpx="http://www.garmin.com/xmlschemas/TrackPointExtension/v1">
            <gpxtpx:hr>106</gpxtpx:hr>
          </gpxtpx:TrackPointExtension>
        </extensions>
      </trkpt>
      <trkpt lat="43.13196" lon="1.34226">
        <ele>272.6</ele>
        <time>2023-03-05T15:08:03Z</time>
        <extensions>
          <gpxtpx:TrackPointExtension xmlns:gpxtpx="http://www.garmin.com/xmlschemas/TrackPointExtension/v1">
            <gpxtpx:hr>107</gpxtpx:hr>
          </gpxtpx:TrackPointExtension>
        </extensions>
      </trkpt>
      <trkpt lat="43.13163" lon="1.34194">
        <ele>272.6</ele>
        <time>2023-03-05T15:08:11Z</time>
        <extensions>
          <gpxtpx:TrackPointExtension xmlns:gpxtpx="http://www.garmin.com/xmlschemas/TrackPointExtension/v1">
            <gpxtpx:hr>109</gpxtpx:hr>
          </gpxtpx:TrackPointExtension>
        </extensions>
      </trkpt>
      <trkpt lat="43.13157" lon="1.34183">
        <ele>272.6</ele>
        <time>2023-03-05T15:08:13Z</time>
        <extensions>
          <gpxtpx:TrackPointExtension xmlns:gpxtpx="http://www.garmin.com/xmlschemas/TrackPointExtension/v1">
            <gpxtpx:hr>109</gpxtpx:hr>
          </gpxtpx:TrackPointExtension>
        </extensions>
      </trkpt>
      <trkpt lat="43.13147" lon="1.34159">
        <ele>272.6</ele>
        <time>2023-03-05T15:08:17Z</time>
        <extensions>
          <gpxtpx:TrackPointExtension xmlns:gpxtpx="http://www.garmin.com/xmlschemas/TrackPointExtension/v1">
            <gpxtpx:hr>109</gpxtpx:hr>
          </gpxtpx:TrackPointExtension>
        </extensions>
      </trkpt>
      <trkpt lat="43.13136" lon="1.34111">
        <ele>272.6</ele>
        <time>2023-03-05T15:08:24Z</time>
        <extensions>
          <gpxtpx:TrackPointExtension xmlns:gpxtpx="http://www.garmin.com/xmlschemas/TrackPointExtension/v1">
            <gpxtpx:hr>110</gpxtpx:hr>
          </gpxtpx:TrackPointExtension>
        </extensions>
      </trkpt>
      <trkpt lat="43.13134" lon="1.34104">
        <ele>272.6</ele>
        <time>2023-03-05T15:08:25Z</time>
        <extensions>
          <gpxtpx:TrackPointExtension xmlns:gpxtpx="http://www.garmin.com/xmlschemas/TrackPointExtension/v1">
            <gpxtpx:hr>110</gpxtpx:hr>
          </gpxtpx:TrackPointExtension>
        </extensions>
      </trkpt>
      <trkpt lat="43.13123" lon="1.34078">
        <ele>272.2</ele>
        <time>2023-03-05T15:08:29Z</time>
        <extensions>
          <gpxtpx:TrackPointExtension xmlns:gpxtpx="http://www.garmin.com/xmlschemas/TrackPointExtension/v1">
            <gpxtpx:hr>111</gpxtpx:hr>
          </gpxtpx:TrackPointExtension>
        </extensions>
      </trkpt>
      <trkpt lat="43.1312" lon="1.34072">
        <ele>271.6</ele>
        <time>2023-03-05T15:08:30Z</time>
        <extensions>
          <gpxtpx:TrackPointExtension xmlns:gpxtpx="http://www.garmin.com/xmlschemas/TrackPointExtension/v1">
            <gpxtpx:hr>112</gpxtpx:hr>
          </gpxtpx:TrackPointExtension>
        </extensions>
      </trkpt>
      <trkpt lat="43.13117" lon="1.34066">
        <ele>271.2</ele>
        <time>2023-03-05T15:08:31Z</time>
        <extensions>
          <gpxtpx:TrackPointExtension xmlns:gpxtpx="http://www.garmin.com/xmlschemas/TrackPointExtension/v1">
            <gpxtpx:hr>112</gpxtpx:hr>
          </gpxtpx:TrackPointExtension>
        </extensions>
      </trkpt>
      <trkpt lat="43.13113" lon="1.3406">
        <ele>270.8</ele>
        <time>2023-03-05T15:08:32Z</time>
        <extensions>
          <gpxtpx:TrackPointExtension xmlns:gpxtpx="http://www.garmin.com/xmlschemas/TrackPointExtension/v1">
            <gpxtpx:hr>112</gpxtpx:hr>
          </gpxtpx:TrackPointExtension>
        </extensions>
      </trkpt>
      <trkpt lat="43.13109" lon="1.34056">
        <ele>270.4</ele>
        <time>2023-03-05T15:08:33Z</time>
        <extensions>
          <gpxtpx:TrackPointExtension xmlns:gpxtpx="http://www.garmin.com/xmlschemas/TrackPointExtension/v1">
            <gpxtpx:hr>112</gpxtpx:hr>
          </gpxtpx:TrackPointExtension>
        </extensions>
      </trkpt>
      <trkpt lat="43.13101" lon="1.34045">
        <ele>270.4</ele>
        <time>2023-03-05T15:08:35Z</time>
        <extensions>
          <gpxtpx:TrackPointExtension xmlns:gpxtpx="http://www.garmin.com/xmlschemas/TrackPointExtension/v1">
            <gpxtpx:hr>111</gpxtpx:hr>
          </gpxtpx:TrackPointExtension>
        </extensions>
      </trkpt>
      <trkpt lat="43.13073" lon="1.34018">
        <ele>270</ele>
        <time>2023-03-05T15:08:41Z</time>
        <extensions>
          <gpxtpx:TrackPointExtension xmlns:gpxtpx="http://www.garmin.com/xmlschemas/TrackPointExtension/v1">
            <gpxtpx:hr>110</gpxtpx:hr>
          </gpxtpx:TrackPointExtension>
        </extensions>
      </trkpt>
      <trkpt lat="43.13068" lon="1.34013">
        <ele>269.6</ele>
        <time>2023-03-05T15:08:42Z</time>
        <extensions>
          <gpxtpx:TrackPointExtension xmlns:gpxtpx="http://www.garmin.com/xmlschemas/TrackPointExtension/v1">
            <gpxtpx:hr>110</gpxtpx:hr>
          </gpxtpx:TrackPointExtension>
        </extensions>
      </trkpt>
      <trkpt lat="43.13064" lon="1.34009">
        <ele>269</ele>
        <time>2023-03-05T15:08:43Z</time>
        <extensions>
          <gpxtpx:TrackPointExtension xmlns:gpxtpx="http://www.garmin.com/xmlschemas/TrackPointExtension/v1">
            <gpxtpx:hr>111</gpxtpx:hr>
          </gpxtpx:TrackPointExtension>
        </extensions>
      </trkpt>
      <trkpt lat="43.13059" lon="1.34005">
        <ele>268.6</ele>
        <time>2023-03-05T15:08:44Z</time>
        <extensions>
          <gpxtpx:TrackPointExtension xmlns:gpxtpx="http://www.garmin.com/xmlschemas/TrackPointExtension/v1">
            <gpxtpx:hr>111</gpxtpx:hr>
          </gpxtpx:TrackPointExtension>
        </extensions>
      </trkpt>
      <trkpt lat="43.13054" lon="1.34001">
        <ele>268.2</ele>
        <time>2023-03-05T15:08:45Z</time>
        <extensions>
          <gpxtpx:TrackPointExtension xmlns:gpxtpx="http://www.garmin.com/xmlschemas/TrackPointExtension/v1">
            <gpxtpx:hr>111</gpxtpx:hr>
          </gpxtpx:TrackPointExtension>
        </extensions>
      </trkpt>
      <trkpt lat="43.13022" lon="1.33971">
        <ele>268.2</ele>
        <time>2023-03-05T15:08:52Z</time>
        <extensions>
          <gpxtpx:TrackPointExtension xmlns:gpxtpx="http://www.garmin.com/xmlschemas/TrackPointExtension/v1">
            <gpxtpx:hr>111</gpxtpx:hr>
          </gpxtpx:TrackPointExtension>
        </extensions>
      </trkpt>
      <trkpt lat="43.12982" lon="1.33935">
        <ele>268.2</ele>
        <time>2023-03-05T15:09:01Z</time>
        <extensions>
          <gpxtpx:TrackPointExtension xmlns:gpxtpx="http://www.garmin.com/xmlschemas/TrackPointExtension/v1">
            <gpxtpx:hr>109</gpxtpx:hr>
          </gpxtpx:TrackPointExtension>
        </extensions>
      </trkpt>
      <trkpt lat="43.12951" lon="1.33909">
        <ele>268.2</ele>
        <time>2023-03-05T15:09:08Z</time>
        <extensions>
          <gpxtpx:TrackPointExtension xmlns:gpxtpx="http://www.garmin.com/xmlschemas/TrackPointExtension/v1">
            <gpxtpx:hr>108</gpxtpx:hr>
          </gpxtpx:TrackPointExtension>
        </extensions>
      </trkpt>
      <trkpt lat="43.12919" lon="1.3388">
        <ele>268.2</ele>
        <time>2023-03-05T15:09:16Z</time>
        <extensions>
          <gpxtpx:TrackPointExtension xmlns:gpxtpx="http://www.garmin.com/xmlschemas/TrackPointExtension/v1">
            <gpxtpx:hr>107</gpxtpx:hr>
          </gpxtpx:TrackPointExtension>
        </extensions>
      </trkpt>
      <trkpt lat="43.12892" lon="1.33855">
        <ele>268.2</ele>
        <time>2023-03-05T15:09:23Z</time>
        <extensions>
          <gpxtpx:TrackPointExtension xmlns:gpxtpx="http://www.garmin.com/xmlschemas/TrackPointExtension/v1">
            <gpxtpx:hr>107</gpxtpx:hr>
          </gpxtpx:TrackPointExtension>
        </extensions>
      </trkpt>
      <trkpt lat="43.12872" lon="1.33835">
        <ele>268.2</ele>
        <time>2023-03-05T15:09:30Z</time>
        <extensions>
          <gpxtpx:TrackPointExtension xmlns:gpxtpx="http://www.garmin.com/xmlschemas/TrackPointExtension/v1">
            <gpxtpx:hr>106</gpxtpx:hr>
          </gpxtpx:TrackPointExtension>
        </extensions>
      </trkpt>
      <trkpt lat="43.1287" lon="1.33834">
        <ele>267.8</ele>
        <time>2023-03-05T15:09:31Z</time>
        <extensions>
          <gpxtpx:TrackPointExtension xmlns:gpxtpx="http://www.garmin.com/xmlschemas/TrackPointExtension/v1">
            <gpxtpx:hr>105</gpxtpx:hr>
          </gpxtpx:TrackPointExtension>
        </extensions>
      </trkpt>
      <trkpt lat="43.12868" lon="1.33833">
        <ele>267.4</ele>
        <time>2023-03-05T15:09:32Z</time>
        <extensions>
          <gpxtpx:TrackPointExtension xmlns:gpxtpx="http://www.garmin.com/xmlschemas/TrackPointExtension/v1">
            <gpxtpx:hr>105</gpxtpx:hr>
          </gpxtpx:TrackPointExtension>
        </extensions>
      </trkpt>
      <trkpt lat="43.12866" lon="1.33833">
        <ele>267</ele>
        <time>2023-03-05T15:09:33Z</time>
        <extensions>
          <gpxtpx:TrackPointExtension xmlns:gpxtpx="http://www.garmin.com/xmlschemas/TrackPointExtension/v1">
            <gpxtpx:hr>105</gpxtpx:hr>
          </gpxtpx:TrackPointExtension>
        </extensions>
      </trkpt>
      <trkpt lat="43.12863" lon="1.33835">
        <ele>266.6</ele>
        <time>2023-03-05T15:09:34Z</time>
        <extensions>
          <gpxtpx:TrackPointExtension xmlns:gpxtpx="http://www.garmin.com/xmlschemas/TrackPointExtension/v1">
            <gpxtpx:hr>105</gpxtpx:hr>
          </gpxtpx:TrackPointExtension>
        </extensions>
      </trkpt>
      <trkpt lat="43.1286" lon="1.33837">
        <ele>266.2</ele>
        <time>2023-03-05T15:09:35Z</time>
        <extensions>
          <gpxtpx:TrackPointExtension xmlns:gpxtpx="http://www.garmin.com/xmlschemas/TrackPointExtension/v1">
            <gpxtpx:hr>106</gpxtpx:hr>
          </gpxtpx:TrackPointExtension>
        </extensions>
      </trkpt>
      <trkpt lat="43.12851" lon="1.33846">
        <ele>266.2</ele>
        <time>2023-03-05T15:09:38Z</time>
        <extensions>
          <gpxtpx:TrackPointExtension xmlns:gpxtpx="http://www.garmin.com/xmlschemas/TrackPointExtension/v1">
            <gpxtpx:hr>105</gpxtpx:hr>
          </gpxtpx:TrackPointExtension>
        </extensions>
      </trkpt>
      <trkpt lat="43.12846" lon="1.33854">
        <ele>266.2</ele>
        <time>2023-03-05T15:09:40Z</time>
        <extensions>
          <gpxtpx:TrackPointExtension xmlns:gpxtpx="http://www.garmin.com/xmlschemas/TrackPointExtension/v1">
            <gpxtpx:hr>105</gpxtpx:hr>
          </gpxtpx:TrackPointExtension>
        </extensions>
      </trkpt>
      <trkpt lat="43.12842" lon="1.33858">
        <ele>266.2</ele>
        <time>2023-03-05T15:09:41Z</time>
        <extensions>
          <gpxtpx:TrackPointExtension xmlns:gpxtpx="http://www.garmin.com/xmlschemas/TrackPointExtension/v1">
            <gpxtpx:hr>105</gpxtpx:hr>
          </gpxtpx:TrackPointExtension>
        </extensions>
      </trkpt>
      <trkpt lat="43.12839" lon="1.33862">
        <ele>266.2</ele>
        <time>2023-03-05T15:09:42Z</time>
        <extensions>
          <gpxtpx:TrackPointExtension xmlns:gpxtpx="http://www.garmin.com/xmlschemas/TrackPointExtension/v1">
            <gpxtpx:hr>105</gpxtpx:hr>
          </gpxtpx:TrackPointExtension>
        </extensions>
      </trkpt>
      <trkpt lat="43.12831" lon="1.33868">
        <ele>266.2</ele>
        <time>2023-03-05T15:09:44Z</time>
        <extensions>
          <gpxtpx:TrackPointExtension xmlns:gpxtpx="http://www.garmin.com/xmlschemas/TrackPointExtension/v1">
            <gpxtpx:hr>105</gpxtpx:hr>
          </gpxtpx:TrackPointExtension>
        </extensions>
      </trkpt>
      <trkpt lat="43.12821" lon="1.33872">
        <ele>266.2</ele>
        <time>2023-03-05T15:09:46Z</time>
        <extensions>
          <gpxtpx:TrackPointExtension xmlns:gpxtpx="http://www.garmin.com/xmlschemas/TrackPointExtension/v1">
            <gpxtpx:hr>105</gpxtpx:hr>
          </gpxtpx:TrackPointExtension>
        </extensions>
      </trkpt>
      <trkpt lat="43.12811" lon="1.33872">
        <ele>265.8</ele>
        <time>2023-03-05T15:09:48Z</time>
        <extensions>
          <gpxtpx:TrackPointExtension xmlns:gpxtpx="http://www.garmin.com/xmlschemas/TrackPointExtension/v1">
            <gpxtpx:hr>105</gpxtpx:hr>
          </gpxtpx:TrackPointExtension>
        </extensions>
      </trkpt>
      <trkpt lat="43.12807" lon="1.33868">
        <ele>265.4</ele>
        <time>2023-03-05T15:09:49Z</time>
        <extensions>
          <gpxtpx:TrackPointExtension xmlns:gpxtpx="http://www.garmin.com/xmlschemas/TrackPointExtension/v1">
            <gpxtpx:hr>105</gpxtpx:hr>
          </gpxtpx:TrackPointExtension>
        </extensions>
      </trkpt>
      <trkpt lat="43.12802" lon="1.33864">
        <ele>265</ele>
        <time>2023-03-05T15:09:50Z</time>
        <extensions>
          <gpxtpx:TrackPointExtension xmlns:gpxtpx="http://www.garmin.com/xmlschemas/TrackPointExtension/v1">
            <gpxtpx:hr>105</gpxtpx:hr>
          </gpxtpx:TrackPointExtension>
        </extensions>
      </trkpt>
      <trkpt lat="43.12798" lon="1.3386">
        <ele>264.6</ele>
        <time>2023-03-05T15:09:51Z</time>
        <extensions>
          <gpxtpx:TrackPointExtension xmlns:gpxtpx="http://www.garmin.com/xmlschemas/TrackPointExtension/v1">
            <gpxtpx:hr>105</gpxtpx:hr>
          </gpxtpx:TrackPointExtension>
        </extensions>
      </trkpt>
      <trkpt lat="43.12793" lon="1.33854">
        <ele>264.2</ele>
        <time>2023-03-05T15:09:52Z</time>
        <extensions>
          <gpxtpx:TrackPointExtension xmlns:gpxtpx="http://www.garmin.com/xmlschemas/TrackPointExtension/v1">
            <gpxtpx:hr>105</gpxtpx:hr>
          </gpxtpx:TrackPointExtension>
        </extensions>
      </trkpt>
      <trkpt lat="43.12791" lon="1.33847">
        <ele>264.2</ele>
        <time>2023-03-05T15:09:53Z</time>
        <extensions>
          <gpxtpx:TrackPointExtension xmlns:gpxtpx="http://www.garmin.com/xmlschemas/TrackPointExtension/v1">
            <gpxtpx:hr>105</gpxtpx:hr>
          </gpxtpx:TrackPointExtension>
        </extensions>
      </trkpt>
      <trkpt lat="43.12786" lon="1.33822">
        <ele>264.2</ele>
        <time>2023-03-05T15:09:56Z</time>
        <extensions>
          <gpxtpx:TrackPointExtension xmlns:gpxtpx="http://www.garmin.com/xmlschemas/TrackPointExtension/v1">
            <gpxtpx:hr>105</gpxtpx:hr>
          </gpxtpx:TrackPointExtension>
        </extensions>
      </trkpt>
      <trkpt lat="43.12778" lon="1.33808">
        <ele>263.8</ele>
        <time>2023-03-05T15:09:58Z</time>
        <extensions>
          <gpxtpx:TrackPointExtension xmlns:gpxtpx="http://www.garmin.com/xmlschemas/TrackPointExtension/v1">
            <gpxtpx:hr>105</gpxtpx:hr>
          </gpxtpx:TrackPointExtension>
        </extensions>
      </trkpt>
      <trkpt lat="43.12773" lon="1.33803">
        <ele>263.4</ele>
        <time>2023-03-05T15:09:59Z</time>
        <extensions>
          <gpxtpx:TrackPointExtension xmlns:gpxtpx="http://www.garmin.com/xmlschemas/TrackPointExtension/v1">
            <gpxtpx:hr>105</gpxtpx:hr>
          </gpxtpx:TrackPointExtension>
        </extensions>
      </trkpt>
      <trkpt lat="43.12769" lon="1.33798">
        <ele>263</ele>
        <time>2023-03-05T15:10:00Z</time>
        <extensions>
          <gpxtpx:TrackPointExtension xmlns:gpxtpx="http://www.garmin.com/xmlschemas/TrackPointExtension/v1">
            <gpxtpx:hr>105</gpxtpx:hr>
          </gpxtpx:TrackPointExtension>
        </extensions>
      </trkpt>
      <trkpt lat="43.12764" lon="1.33793">
        <ele>262.4</ele>
        <time>2023-03-05T15:10:01Z</time>
        <extensions>
          <gpxtpx:TrackPointExtension xmlns:gpxtpx="http://www.garmin.com/xmlschemas/TrackPointExtension/v1">
            <gpxtpx:hr>105</gpxtpx:hr>
          </gpxtpx:TrackPointExtension>
        </extensions>
      </trkpt>
      <trkpt lat="43.12759" lon="1.3379">
        <ele>262</ele>
        <time>2023-03-05T15:10:02Z</time>
        <extensions>
          <gpxtpx:TrackPointExtension xmlns:gpxtpx="http://www.garmin.com/xmlschemas/TrackPointExtension/v1">
            <gpxtpx:hr>105</gpxtpx:hr>
          </gpxtpx:TrackPointExtension>
        </extensions>
      </trkpt>
      <trkpt lat="43.12751" lon="1.33783">
        <ele>262</ele>
        <time>2023-03-05T15:10:04Z</time>
        <extensions>
          <gpxtpx:TrackPointExtension xmlns:gpxtpx="http://www.garmin.com/xmlschemas/TrackPointExtension/v1">
            <gpxtpx:hr>105</gpxtpx:hr>
          </gpxtpx:TrackPointExtension>
        </extensions>
      </trkpt>
      <trkpt lat="43.12736" lon="1.33769">
        <ele>262</ele>
        <time>2023-03-05T15:10:09Z</time>
        <extensions>
          <gpxtpx:TrackPointExtension xmlns:gpxtpx="http://www.garmin.com/xmlschemas/TrackPointExtension/v1">
            <gpxtpx:hr>105</gpxtpx:hr>
          </gpxtpx:TrackPointExtension>
        </extensions>
      </trkpt>
      <trkpt lat="43.12728" lon="1.33758">
        <ele>262</ele>
        <time>2023-03-05T15:10:14Z</time>
        <extensions>
          <gpxtpx:TrackPointExtension xmlns:gpxtpx="http://www.garmin.com/xmlschemas/TrackPointExtension/v1">
            <gpxtpx:hr>105</gpxtpx:hr>
          </gpxtpx:TrackPointExtension>
        </extensions>
      </trkpt>
      <trkpt lat="43.12729" lon="1.33765">
        <ele>262</ele>
        <time>2023-03-05T15:10:18Z</time>
        <extensions>
          <gpxtpx:TrackPointExtension xmlns:gpxtpx="http://www.garmin.com/xmlschemas/TrackPointExtension/v1">
            <gpxtpx:hr>105</gpxtpx:hr>
          </gpxtpx:TrackPointExtension>
        </extensions>
      </trkpt>
      <trkpt lat="43.12737" lon="1.33768">
        <ele>262</ele>
        <time>2023-03-05T15:10:21Z</time>
        <extensions>
          <gpxtpx:TrackPointExtension xmlns:gpxtpx="http://www.garmin.com/xmlschemas/TrackPointExtension/v1">
            <gpxtpx:hr>104</gpxtpx:hr>
          </gpxtpx:TrackPointExtension>
        </extensions>
      </trkpt>
      <trkpt lat="43.12741" lon="1.33767">
        <ele>262</ele>
        <time>2023-03-05T15:10:22Z</time>
        <extensions>
          <gpxtpx:TrackPointExtension xmlns:gpxtpx="http://www.garmin.com/xmlschemas/TrackPointExtension/v1">
            <gpxtpx:hr>104</gpxtpx:hr>
          </gpxtpx:TrackPointExtension>
        </extensions>
      </trkpt>
      <trkpt lat="43.12743" lon="1.33765">
        <ele>262</ele>
        <time>2023-03-05T15:10:23Z</time>
        <extensions>
          <gpxtpx:TrackPointExtension xmlns:gpxtpx="http://www.garmin.com/xmlschemas/TrackPointExtension/v1">
            <gpxtpx:hr>104</gpxtpx:hr>
          </gpxtpx:TrackPointExtension>
        </extensions>
      </trkpt>
      <trkpt lat="43.12746" lon="1.33759">
        <ele>262</ele>
        <time>2023-03-05T15:10:25Z</time>
        <extensions>
          <gpxtpx:TrackPointExtension xmlns:gpxtpx="http://www.garmin.com/xmlschemas/TrackPointExtension/v1">
            <gpxtpx:hr>103</gpxtpx:hr>
          </gpxtpx:TrackPointExtension>
        </extensions>
      </trkpt>
      <trkpt lat="43.12759" lon="1.33731">
        <ele>262</ele>
        <time>2023-03-05T15:10:31Z</time>
        <extensions>
          <gpxtpx:TrackPointExtension xmlns:gpxtpx="http://www.garmin.com/xmlschemas/TrackPointExtension/v1">
            <gpxtpx:hr>104</gpxtpx:hr>
          </gpxtpx:TrackPointExtension>
        </extensions>
      </trkpt>
      <trkpt lat="43.12764" lon="1.33721">
        <ele>262</ele>
        <time>2023-03-05T15:10:33Z</time>
        <extensions>
          <gpxtpx:TrackPointExtension xmlns:gpxtpx="http://www.garmin.com/xmlschemas/TrackPointExtension/v1">
            <gpxtpx:hr>104</gpxtpx:hr>
          </gpxtpx:TrackPointExtension>
        </extensions>
      </trkpt>
      <trkpt lat="43.12767" lon="1.33709">
        <ele>262</ele>
        <time>2023-03-05T15:10:35Z</time>
        <extensions>
          <gpxtpx:TrackPointExtension xmlns:gpxtpx="http://www.garmin.com/xmlschemas/TrackPointExtension/v1">
            <gpxtpx:hr>104</gpxtpx:hr>
          </gpxtpx:TrackPointExtension>
        </extensions>
      </trkpt>
      <trkpt lat="43.12772" lon="1.33699">
        <ele>262</ele>
        <time>2023-03-05T15:10:37Z</time>
        <extensions>
          <gpxtpx:TrackPointExtension xmlns:gpxtpx="http://www.garmin.com/xmlschemas/TrackPointExtension/v1">
            <gpxtpx:hr>104</gpxtpx:hr>
          </gpxtpx:TrackPointExtension>
        </extensions>
      </trkpt>
      <trkpt lat="43.12784" lon="1.33674">
        <ele>262</ele>
        <time>2023-03-05T15:10:42Z</time>
        <extensions>
          <gpxtpx:TrackPointExtension xmlns:gpxtpx="http://www.garmin.com/xmlschemas/TrackPointExtension/v1">
            <gpxtpx:hr>105</gpxtpx:hr>
          </gpxtpx:TrackPointExtension>
        </extensions>
      </trkpt>
      <trkpt lat="43.12789" lon="1.33665">
        <ele>262</ele>
        <time>2023-03-05T15:10:44Z</time>
        <extensions>
          <gpxtpx:TrackPointExtension xmlns:gpxtpx="http://www.garmin.com/xmlschemas/TrackPointExtension/v1">
            <gpxtpx:hr>105</gpxtpx:hr>
          </gpxtpx:TrackPointExtension>
        </extensions>
      </trkpt>
      <trkpt lat="43.12801" lon="1.33639">
        <ele>262</ele>
        <time>2023-03-05T15:10:51Z</time>
        <extensions>
          <gpxtpx:TrackPointExtension xmlns:gpxtpx="http://www.garmin.com/xmlschemas/TrackPointExtension/v1">
            <gpxtpx:hr>105</gpxtpx:hr>
          </gpxtpx:TrackPointExtension>
        </extensions>
      </trkpt>
      <trkpt lat="43.12807" lon="1.3363">
        <ele>262</ele>
        <time>2023-03-05T15:10:56Z</time>
        <extensions>
          <gpxtpx:TrackPointExtension xmlns:gpxtpx="http://www.garmin.com/xmlschemas/TrackPointExtension/v1">
            <gpxtpx:hr>105</gpxtpx:hr>
          </gpxtpx:TrackPointExtension>
        </extensions>
      </trkpt>
      <trkpt lat="43.12805" lon="1.33631">
        <ele>262</ele>
        <time>2023-03-05T15:11:18Z</time>
        <extensions>
          <gpxtpx:TrackPointExtension xmlns:gpxtpx="http://www.garmin.com/xmlschemas/TrackPointExtension/v1">
            <gpxtpx:hr>103</gpxtpx:hr>
          </gpxtpx:TrackPointExtension>
        </extensions>
      </trkpt>
      <trkpt lat="43.12804" lon="1.33631">
        <ele>262</ele>
        <time>2023-03-05T15:11:20Z</time>
        <extensions>
          <gpxtpx:TrackPointExtension xmlns:gpxtpx="http://www.garmin.com/xmlschemas/TrackPointExtension/v1">
            <gpxtpx:hr>104</gpxtpx:hr>
          </gpxtpx:TrackPointExtension>
        </extensions>
      </trkpt>
      <trkpt lat="43.12805" lon="1.33631">
        <ele>262</ele>
        <time>2023-03-05T15:11:22Z</time>
        <extensions>
          <gpxtpx:TrackPointExtension xmlns:gpxtpx="http://www.garmin.com/xmlschemas/TrackPointExtension/v1">
            <gpxtpx:hr>104</gpxtpx:hr>
          </gpxtpx:TrackPointExtension>
        </extensions>
      </trkpt>
      <trkpt lat="43.12805" lon="1.33632">
        <ele>262</ele>
        <time>2023-03-05T15:11:25Z</time>
        <extensions>
          <gpxtpx:TrackPointExtension xmlns:gpxtpx="http://www.garmin.com/xmlschemas/TrackPointExtension/v1">
            <gpxtpx:hr>104</gpxtpx:hr>
          </gpxtpx:TrackPointExtension>
        </extensions>
      </trkpt>
      <trkpt lat="43.12803" lon="1.33634">
        <ele>262</ele>
        <time>2023-03-05T15:11:27Z</time>
        <extensions>
          <gpxtpx:TrackPointExtension xmlns:gpxtpx="http://www.garmin.com/xmlschemas/TrackPointExtension/v1">
            <gpxtpx:hr>104</gpxtpx:hr>
          </gpxtpx:TrackPointExtension>
        </extensions>
      </trkpt>
      <trkpt lat="43.12796" lon="1.3365">
        <ele>262</ele>
        <time>2023-03-05T15:11:32Z</time>
        <extensions>
          <gpxtpx:TrackPointExtension xmlns:gpxtpx="http://www.garmin.com/xmlschemas/TrackPointExtension/v1">
            <gpxtpx:hr>104</gpxtpx:hr>
          </gpxtpx:TrackPointExtension>
        </extensions>
      </trkpt>
      <trkpt lat="43.1278" lon="1.33676">
        <ele>262</ele>
        <time>2023-03-05T15:11:38Z</time>
        <extensions>
          <gpxtpx:TrackPointExtension xmlns:gpxtpx="http://www.garmin.com/xmlschemas/TrackPointExtension/v1">
            <gpxtpx:hr>104</gpxtpx:hr>
          </gpxtpx:TrackPointExtension>
        </extensions>
      </trkpt>
      <trkpt lat="43.12769" lon="1.33703">
        <ele>262</ele>
        <time>2023-03-05T15:11:43Z</time>
        <extensions>
          <gpxtpx:TrackPointExtension xmlns:gpxtpx="http://www.garmin.com/xmlschemas/TrackPointExtension/v1">
            <gpxtpx:hr>104</gpxtpx:hr>
          </gpxtpx:TrackPointExtension>
        </extensions>
      </trkpt>
      <trkpt lat="43.12764" lon="1.33715">
        <ele>262</ele>
        <time>2023-03-05T15:11:45Z</time>
        <extensions>
          <gpxtpx:TrackPointExtension xmlns:gpxtpx="http://www.garmin.com/xmlschemas/TrackPointExtension/v1">
            <gpxtpx:hr>104</gpxtpx:hr>
          </gpxtpx:TrackPointExtension>
        </extensions>
      </trkpt>
      <trkpt lat="43.12743" lon="1.33762">
        <ele>262</ele>
        <time>2023-03-05T15:11:53Z</time>
        <extensions>
          <gpxtpx:TrackPointExtension xmlns:gpxtpx="http://www.garmin.com/xmlschemas/TrackPointExtension/v1">
            <gpxtpx:hr>105</gpxtpx:hr>
          </gpxtpx:TrackPointExtension>
        </extensions>
      </trkpt>
      <trkpt lat="43.12738" lon="1.33769">
        <ele>262</ele>
        <time>2023-03-05T15:11:56Z</time>
        <extensions>
          <gpxtpx:TrackPointExtension xmlns:gpxtpx="http://www.garmin.com/xmlschemas/TrackPointExtension/v1">
            <gpxtpx:hr>106</gpxtpx:hr>
          </gpxtpx:TrackPointExtension>
        </extensions>
      </trkpt>
      <trkpt lat="43.12733" lon="1.33768">
        <ele>262</ele>
        <time>2023-03-05T15:11:59Z</time>
        <extensions>
          <gpxtpx:TrackPointExtension xmlns:gpxtpx="http://www.garmin.com/xmlschemas/TrackPointExtension/v1">
            <gpxtpx:hr>106</gpxtpx:hr>
          </gpxtpx:TrackPointExtension>
        </extensions>
      </trkpt>
      <trkpt lat="43.12728" lon="1.33764">
        <ele>262</ele>
        <time>2023-03-05T15:12:01Z</time>
        <extensions>
          <gpxtpx:TrackPointExtension xmlns:gpxtpx="http://www.garmin.com/xmlschemas/TrackPointExtension/v1">
            <gpxtpx:hr>107</gpxtpx:hr>
          </gpxtpx:TrackPointExtension>
        </extensions>
      </trkpt>
      <trkpt lat="43.12719" lon="1.33751">
        <ele>262</ele>
        <time>2023-03-05T15:12:05Z</time>
        <extensions>
          <gpxtpx:TrackPointExtension xmlns:gpxtpx="http://www.garmin.com/xmlschemas/TrackPointExtension/v1">
            <gpxtpx:hr>107</gpxtpx:hr>
          </gpxtpx:TrackPointExtension>
        </extensions>
      </trkpt>
      <trkpt lat="43.12717" lon="1.33751">
        <ele>262</ele>
        <time>2023-03-05T15:12:06Z</time>
        <extensions>
          <gpxtpx:TrackPointExtension xmlns:gpxtpx="http://www.garmin.com/xmlschemas/TrackPointExtension/v1">
            <gpxtpx:hr>108</gpxtpx:hr>
          </gpxtpx:TrackPointExtension>
        </extensions>
      </trkpt>
      <trkpt lat="43.12717" lon="1.33751">
        <ele>262</ele>
        <time>2023-03-05T15:12:08Z</time>
        <extensions>
          <gpxtpx:TrackPointExtension xmlns:gpxtpx="http://www.garmin.com/xmlschemas/TrackPointExtension/v1">
            <gpxtpx:hr>108</gpxtpx:hr>
          </gpxtpx:TrackPointExtension>
        </extensions>
      </trkpt>
      <trkpt lat="43.12716" lon="1.3375">
        <ele>262</ele>
        <time>2023-03-05T15:13:14Z</time>
        <extensions>
          <gpxtpx:TrackPointExtension xmlns:gpxtpx="http://www.garmin.com/xmlschemas/TrackPointExtension/v1">
            <gpxtpx:hr>102</gpxtpx:hr>
          </gpxtpx:TrackPointExtension>
        </extensions>
      </trkpt>
      <trkpt lat="43.12714" lon="1.3375">
        <ele>262</ele>
        <time>2023-03-05T15:13:15Z</time>
        <extensions>
          <gpxtpx:TrackPointExtension xmlns:gpxtpx="http://www.garmin.com/xmlschemas/TrackPointExtension/v1">
            <gpxtpx:hr>102</gpxtpx:hr>
          </gpxtpx:TrackPointExtension>
        </extensions>
      </trkpt>
      <trkpt lat="43.12712" lon="1.33748">
        <ele>262</ele>
        <time>2023-03-05T15:13:16Z</time>
        <extensions>
          <gpxtpx:TrackPointExtension xmlns:gpxtpx="http://www.garmin.com/xmlschemas/TrackPointExtension/v1">
            <gpxtpx:hr>103</gpxtpx:hr>
          </gpxtpx:TrackPointExtension>
        </extensions>
      </trkpt>
      <trkpt lat="43.12691" lon="1.33734">
        <ele>262</ele>
        <time>2023-03-05T15:13:22Z</time>
        <extensions>
          <gpxtpx:TrackPointExtension xmlns:gpxtpx="http://www.garmin.com/xmlschemas/TrackPointExtension/v1">
            <gpxtpx:hr>103</gpxtpx:hr>
          </gpxtpx:TrackPointExtension>
        </extensions>
      </trkpt>
      <trkpt lat="43.12688" lon="1.33731">
        <ele>262</ele>
        <time>2023-03-05T15:13:23Z</time>
        <extensions>
          <gpxtpx:TrackPointExtension xmlns:gpxtpx="http://www.garmin.com/xmlschemas/TrackPointExtension/v1">
            <gpxtpx:hr>103</gpxtpx:hr>
          </gpxtpx:TrackPointExtension>
        </extensions>
      </trkpt>
      <trkpt lat="43.12676" lon="1.33723">
        <ele>262</ele>
        <time>2023-03-05T15:13:26Z</time>
        <extensions>
          <gpxtpx:TrackPointExtension xmlns:gpxtpx="http://www.garmin.com/xmlschemas/TrackPointExtension/v1">
            <gpxtpx:hr>103</gpxtpx:hr>
          </gpxtpx:TrackPointExtension>
        </extensions>
      </trkpt>
      <trkpt lat="43.12672" lon="1.33721">
        <ele>262</ele>
        <time>2023-03-05T15:13:27Z</time>
        <extensions>
          <gpxtpx:TrackPointExtension xmlns:gpxtpx="http://www.garmin.com/xmlschemas/TrackPointExtension/v1">
            <gpxtpx:hr>103</gpxtpx:hr>
          </gpxtpx:TrackPointExtension>
        </extensions>
      </trkpt>
      <trkpt lat="43.12644" lon="1.3371">
        <ele>262</ele>
        <time>2023-03-05T15:13:34Z</time>
        <extensions>
          <gpxtpx:TrackPointExtension xmlns:gpxtpx="http://www.garmin.com/xmlschemas/TrackPointExtension/v1">
            <gpxtpx:hr>103</gpxtpx:hr>
          </gpxtpx:TrackPointExtension>
        </extensions>
      </trkpt>
      <trkpt lat="43.12624" lon="1.337">
        <ele>262</ele>
        <time>2023-03-05T15:13:40Z</time>
        <extensions>
          <gpxtpx:TrackPointExtension xmlns:gpxtpx="http://www.garmin.com/xmlschemas/TrackPointExtension/v1">
            <gpxtpx:hr>103</gpxtpx:hr>
          </gpxtpx:TrackPointExtension>
        </extensions>
      </trkpt>
      <trkpt lat="43.12622" lon="1.33691">
        <ele>262</ele>
        <time>2023-03-05T15:13:42Z</time>
        <extensions>
          <gpxtpx:TrackPointExtension xmlns:gpxtpx="http://www.garmin.com/xmlschemas/TrackPointExtension/v1">
            <gpxtpx:hr>103</gpxtpx:hr>
          </gpxtpx:TrackPointExtension>
        </extensions>
      </trkpt>
      <trkpt lat="43.12623" lon="1.33685">
        <ele>262</ele>
        <time>2023-03-05T15:13:43Z</time>
        <extensions>
          <gpxtpx:TrackPointExtension xmlns:gpxtpx="http://www.garmin.com/xmlschemas/TrackPointExtension/v1">
            <gpxtpx:hr>103</gpxtpx:hr>
          </gpxtpx:TrackPointExtension>
        </extensions>
      </trkpt>
      <trkpt lat="43.1263" lon="1.33649">
        <ele>262</ele>
        <time>2023-03-05T15:13:49Z</time>
        <extensions>
          <gpxtpx:TrackPointExtension xmlns:gpxtpx="http://www.garmin.com/xmlschemas/TrackPointExtension/v1">
            <gpxtpx:hr>103</gpxtpx:hr>
          </gpxtpx:TrackPointExtension>
        </extensions>
      </trkpt>
      <trkpt lat="43.12632" lon="1.33643">
        <ele>262</ele>
        <time>2023-03-05T15:13:50Z</time>
        <extensions>
          <gpxtpx:TrackPointExtension xmlns:gpxtpx="http://www.garmin.com/xmlschemas/TrackPointExtension/v1">
            <gpxtpx:hr>103</gpxtpx:hr>
          </gpxtpx:TrackPointExtension>
        </extensions>
      </trkpt>
      <trkpt lat="43.12638" lon="1.33618">
        <ele>262</ele>
        <time>2023-03-05T15:13:54Z</time>
        <extensions>
          <gpxtpx:TrackPointExtension xmlns:gpxtpx="http://www.garmin.com/xmlschemas/TrackPointExtension/v1">
            <gpxtpx:hr>103</gpxtpx:hr>
          </gpxtpx:TrackPointExtension>
        </extensions>
      </trkpt>
      <trkpt lat="43.12648" lon="1.33579">
        <ele>262</ele>
        <time>2023-03-05T15:14:01Z</time>
        <extensions>
          <gpxtpx:TrackPointExtension xmlns:gpxtpx="http://www.garmin.com/xmlschemas/TrackPointExtension/v1">
            <gpxtpx:hr>104</gpxtpx:hr>
          </gpxtpx:TrackPointExtension>
        </extensions>
      </trkpt>
      <trkpt lat="43.12652" lon="1.33559">
        <ele>262</ele>
        <time>2023-03-05T15:14:07Z</time>
        <extensions>
          <gpxtpx:TrackPointExtension xmlns:gpxtpx="http://www.garmin.com/xmlschemas/TrackPointExtension/v1">
            <gpxtpx:hr>104</gpxtpx:hr>
          </gpxtpx:TrackPointExtension>
        </extensions>
      </trkpt>
      <trkpt lat="43.12654" lon="1.33549">
        <ele>262</ele>
        <time>2023-03-05T15:14:11Z</time>
        <extensions>
          <gpxtpx:TrackPointExtension xmlns:gpxtpx="http://www.garmin.com/xmlschemas/TrackPointExtension/v1">
            <gpxtpx:hr>98</gpxtpx:hr>
          </gpxtpx:TrackPointExtension>
        </extensions>
      </trkpt>
      <trkpt lat="43.12655" lon="1.33545">
        <ele>262</ele>
        <time>2023-03-05T15:14:12Z</time>
        <extensions>
          <gpxtpx:TrackPointExtension xmlns:gpxtpx="http://www.garmin.com/xmlschemas/TrackPointExtension/v1">
            <gpxtpx:hr>98</gpxtpx:hr>
          </gpxtpx:TrackPointExtension>
        </extensions>
      </trkpt>
      <trkpt lat="43.12661" lon="1.33526">
        <ele>262</ele>
        <time>2023-03-05T15:14:17Z</time>
        <extensions>
          <gpxtpx:TrackPointExtension xmlns:gpxtpx="http://www.garmin.com/xmlschemas/TrackPointExtension/v1">
            <gpxtpx:hr>99</gpxtpx:hr>
          </gpxtpx:TrackPointExtension>
        </extensions>
      </trkpt>
      <trkpt lat="43.12668" lon="1.33493">
        <ele>262</ele>
        <time>2023-03-05T15:14:24Z</time>
        <extensions>
          <gpxtpx:TrackPointExtension xmlns:gpxtpx="http://www.garmin.com/xmlschemas/TrackPointExtension/v1">
            <gpxtpx:hr>99</gpxtpx:hr>
          </gpxtpx:TrackPointExtension>
        </extensions>
      </trkpt>
      <trkpt lat="43.12677" lon="1.33459">
        <ele>262</ele>
        <time>2023-03-05T15:14:31Z</time>
        <extensions>
          <gpxtpx:TrackPointExtension xmlns:gpxtpx="http://www.garmin.com/xmlschemas/TrackPointExtension/v1">
            <gpxtpx:hr>99</gpxtpx:hr>
          </gpxtpx:TrackPointExtension>
        </extensions>
      </trkpt>
      <trkpt lat="43.12688" lon="1.33415">
        <ele>262</ele>
        <time>2023-03-05T15:14:39Z</time>
        <extensions>
          <gpxtpx:TrackPointExtension xmlns:gpxtpx="http://www.garmin.com/xmlschemas/TrackPointExtension/v1">
            <gpxtpx:hr>102</gpxtpx:hr>
          </gpxtpx:TrackPointExtension>
        </extensions>
      </trkpt>
      <trkpt lat="43.12689" lon="1.3341">
        <ele>262</ele>
        <time>2023-03-05T15:14:40Z</time>
        <extensions>
          <gpxtpx:TrackPointExtension xmlns:gpxtpx="http://www.garmin.com/xmlschemas/TrackPointExtension/v1">
            <gpxtpx:hr>105</gpxtpx:hr>
          </gpxtpx:TrackPointExtension>
        </extensions>
      </trkpt>
      <trkpt lat="43.1269" lon="1.33404">
        <ele>262</ele>
        <time>2023-03-05T15:14:41Z</time>
        <extensions>
          <gpxtpx:TrackPointExtension xmlns:gpxtpx="http://www.garmin.com/xmlschemas/TrackPointExtension/v1">
            <gpxtpx:hr>106</gpxtpx:hr>
          </gpxtpx:TrackPointExtension>
        </extensions>
      </trkpt>
      <trkpt lat="43.12695" lon="1.33362">
        <ele>262</ele>
        <time>2023-03-05T15:14:48Z</time>
        <extensions>
          <gpxtpx:TrackPointExtension xmlns:gpxtpx="http://www.garmin.com/xmlschemas/TrackPointExtension/v1">
            <gpxtpx:hr>107</gpxtpx:hr>
          </gpxtpx:TrackPointExtension>
        </extensions>
      </trkpt>
      <trkpt lat="43.12695" lon="1.33356">
        <ele>262</ele>
        <time>2023-03-05T15:14:49Z</time>
        <extensions>
          <gpxtpx:TrackPointExtension xmlns:gpxtpx="http://www.garmin.com/xmlschemas/TrackPointExtension/v1">
            <gpxtpx:hr>107</gpxtpx:hr>
          </gpxtpx:TrackPointExtension>
        </extensions>
      </trkpt>
      <trkpt lat="43.12693" lon="1.33331">
        <ele>262</ele>
        <time>2023-03-05T15:14:53Z</time>
        <extensions>
          <gpxtpx:TrackPointExtension xmlns:gpxtpx="http://www.garmin.com/xmlschemas/TrackPointExtension/v1">
            <gpxtpx:hr>107</gpxtpx:hr>
          </gpxtpx:TrackPointExtension>
        </extensions>
      </trkpt>
      <trkpt lat="43.12688" lon="1.33313">
        <ele>262</ele>
        <time>2023-03-05T15:14:56Z</time>
        <extensions>
          <gpxtpx:TrackPointExtension xmlns:gpxtpx="http://www.garmin.com/xmlschemas/TrackPointExtension/v1">
            <gpxtpx:hr>107</gpxtpx:hr>
          </gpxtpx:TrackPointExtension>
        </extensions>
      </trkpt>
      <trkpt lat="43.12677" lon="1.33275">
        <ele>262</ele>
        <time>2023-03-05T15:15:02Z</time>
        <extensions>
          <gpxtpx:TrackPointExtension xmlns:gpxtpx="http://www.garmin.com/xmlschemas/TrackPointExtension/v1">
            <gpxtpx:hr>107</gpxtpx:hr>
          </gpxtpx:TrackPointExtension>
        </extensions>
      </trkpt>
      <trkpt lat="43.12668" lon="1.3324">
        <ele>262</ele>
        <time>2023-03-05T15:15:08Z</time>
        <extensions>
          <gpxtpx:TrackPointExtension xmlns:gpxtpx="http://www.garmin.com/xmlschemas/TrackPointExtension/v1">
            <gpxtpx:hr>110</gpxtpx:hr>
          </gpxtpx:TrackPointExtension>
        </extensions>
      </trkpt>
      <trkpt lat="43.12667" lon="1.33234">
        <ele>262</ele>
        <time>2023-03-05T15:15:09Z</time>
        <extensions>
          <gpxtpx:TrackPointExtension xmlns:gpxtpx="http://www.garmin.com/xmlschemas/TrackPointExtension/v1">
            <gpxtpx:hr>110</gpxtpx:hr>
          </gpxtpx:TrackPointExtension>
        </extensions>
      </trkpt>
      <trkpt lat="43.12664" lon="1.33207">
        <ele>262</ele>
        <time>2023-03-05T15:15:13Z</time>
        <extensions>
          <gpxtpx:TrackPointExtension xmlns:gpxtpx="http://www.garmin.com/xmlschemas/TrackPointExtension/v1">
            <gpxtpx:hr>112</gpxtpx:hr>
          </gpxtpx:TrackPointExtension>
        </extensions>
      </trkpt>
      <trkpt lat="43.12665" lon="1.33194">
        <ele>262</ele>
        <time>2023-03-05T15:15:15Z</time>
        <extensions>
          <gpxtpx:TrackPointExtension xmlns:gpxtpx="http://www.garmin.com/xmlschemas/TrackPointExtension/v1">
            <gpxtpx:hr>113</gpxtpx:hr>
          </gpxtpx:TrackPointExtension>
        </extensions>
      </trkpt>
      <trkpt lat="43.12671" lon="1.3316">
        <ele>262.4</ele>
        <time>2023-03-05T15:15:20Z</time>
        <extensions>
          <gpxtpx:TrackPointExtension xmlns:gpxtpx="http://www.garmin.com/xmlschemas/TrackPointExtension/v1">
            <gpxtpx:hr>114</gpxtpx:hr>
          </gpxtpx:TrackPointExtension>
        </extensions>
      </trkpt>
      <trkpt lat="43.12673" lon="1.33154">
        <ele>262.8</ele>
        <time>2023-03-05T15:15:21Z</time>
        <extensions>
          <gpxtpx:TrackPointExtension xmlns:gpxtpx="http://www.garmin.com/xmlschemas/TrackPointExtension/v1">
            <gpxtpx:hr>115</gpxtpx:hr>
          </gpxtpx:TrackPointExtension>
        </extensions>
      </trkpt>
      <trkpt lat="43.12674" lon="1.33147">
        <ele>263.4</ele>
        <time>2023-03-05T15:15:22Z</time>
        <extensions>
          <gpxtpx:TrackPointExtension xmlns:gpxtpx="http://www.garmin.com/xmlschemas/TrackPointExtension/v1">
            <gpxtpx:hr>116</gpxtpx:hr>
          </gpxtpx:TrackPointExtension>
        </extensions>
      </trkpt>
      <trkpt lat="43.12675" lon="1.3314">
        <ele>263.8</ele>
        <time>2023-03-05T15:15:23Z</time>
        <extensions>
          <gpxtpx:TrackPointExtension xmlns:gpxtpx="http://www.garmin.com/xmlschemas/TrackPointExtension/v1">
            <gpxtpx:hr>117</gpxtpx:hr>
          </gpxtpx:TrackPointExtension>
        </extensions>
      </trkpt>
      <trkpt lat="43.12676" lon="1.33133">
        <ele>264.2</ele>
        <time>2023-03-05T15:15:24Z</time>
        <extensions>
          <gpxtpx:TrackPointExtension xmlns:gpxtpx="http://www.garmin.com/xmlschemas/TrackPointExtension/v1">
            <gpxtpx:hr>117</gpxtpx:hr>
          </gpxtpx:TrackPointExtension>
        </extensions>
      </trkpt>
      <trkpt lat="43.12678" lon="1.33127">
        <ele>264.6</ele>
        <time>2023-03-05T15:15:25Z</time>
        <extensions>
          <gpxtpx:TrackPointExtension xmlns:gpxtpx="http://www.garmin.com/xmlschemas/TrackPointExtension/v1">
            <gpxtpx:hr>118</gpxtpx:hr>
          </gpxtpx:TrackPointExtension>
        </extensions>
      </trkpt>
      <trkpt lat="43.12679" lon="1.3312">
        <ele>265</ele>
        <time>2023-03-05T15:15:26Z</time>
        <extensions>
          <gpxtpx:TrackPointExtension xmlns:gpxtpx="http://www.garmin.com/xmlschemas/TrackPointExtension/v1">
            <gpxtpx:hr>119</gpxtpx:hr>
          </gpxtpx:TrackPointExtension>
        </extensions>
      </trkpt>
      <trkpt lat="43.1268" lon="1.33114">
        <ele>265.4</ele>
        <time>2023-03-05T15:15:27Z</time>
        <extensions>
          <gpxtpx:TrackPointExtension xmlns:gpxtpx="http://www.garmin.com/xmlschemas/TrackPointExtension/v1">
            <gpxtpx:hr>120</gpxtpx:hr>
          </gpxtpx:TrackPointExtension>
        </extensions>
      </trkpt>
      <trkpt lat="43.12681" lon="1.33108">
        <ele>265.8</ele>
        <time>2023-03-05T15:15:28Z</time>
        <extensions>
          <gpxtpx:TrackPointExtension xmlns:gpxtpx="http://www.garmin.com/xmlschemas/TrackPointExtension/v1">
            <gpxtpx:hr>120</gpxtpx:hr>
          </gpxtpx:TrackPointExtension>
        </extensions>
      </trkpt>
      <trkpt lat="43.12682" lon="1.33102">
        <ele>266.8</ele>
        <time>2023-03-05T15:15:29Z</time>
        <extensions>
          <gpxtpx:TrackPointExtension xmlns:gpxtpx="http://www.garmin.com/xmlschemas/TrackPointExtension/v1">
            <gpxtpx:hr>121</gpxtpx:hr>
          </gpxtpx:TrackPointExtension>
        </extensions>
      </trkpt>
      <trkpt lat="43.12683" lon="1.33095">
        <ele>267.2</ele>
        <time>2023-03-05T15:15:30Z</time>
        <extensions>
          <gpxtpx:TrackPointExtension xmlns:gpxtpx="http://www.garmin.com/xmlschemas/TrackPointExtension/v1">
            <gpxtpx:hr>121</gpxtpx:hr>
          </gpxtpx:TrackPointExtension>
        </extensions>
      </trkpt>
      <trkpt lat="43.12684" lon="1.33088">
        <ele>267.8</ele>
        <time>2023-03-05T15:15:31Z</time>
        <extensions>
          <gpxtpx:TrackPointExtension xmlns:gpxtpx="http://www.garmin.com/xmlschemas/TrackPointExtension/v1">
            <gpxtpx:hr>120</gpxtpx:hr>
          </gpxtpx:TrackPointExtension>
        </extensions>
      </trkpt>
      <trkpt lat="43.12686" lon="1.33082">
        <ele>268.4</ele>
        <time>2023-03-05T15:15:32Z</time>
        <extensions>
          <gpxtpx:TrackPointExtension xmlns:gpxtpx="http://www.garmin.com/xmlschemas/TrackPointExtension/v1">
            <gpxtpx:hr>120</gpxtpx:hr>
          </gpxtpx:TrackPointExtension>
        </extensions>
      </trkpt>
      <trkpt lat="43.12687" lon="1.33077">
        <ele>269</ele>
        <time>2023-03-05T15:15:33Z</time>
        <extensions>
          <gpxtpx:TrackPointExtension xmlns:gpxtpx="http://www.garmin.com/xmlschemas/TrackPointExtension/v1">
            <gpxtpx:hr>120</gpxtpx:hr>
          </gpxtpx:TrackPointExtension>
        </extensions>
      </trkpt>
      <trkpt lat="43.12688" lon="1.33072">
        <ele>269.4</ele>
        <time>2023-03-05T15:15:34Z</time>
        <extensions>
          <gpxtpx:TrackPointExtension xmlns:gpxtpx="http://www.garmin.com/xmlschemas/TrackPointExtension/v1">
            <gpxtpx:hr>120</gpxtpx:hr>
          </gpxtpx:TrackPointExtension>
        </extensions>
      </trkpt>
      <trkpt lat="43.12689" lon="1.33066">
        <ele>270</ele>
        <time>2023-03-05T15:15:35Z</time>
        <extensions>
          <gpxtpx:TrackPointExtension xmlns:gpxtpx="http://www.garmin.com/xmlschemas/TrackPointExtension/v1">
            <gpxtpx:hr>120</gpxtpx:hr>
          </gpxtpx:TrackPointExtension>
        </extensions>
      </trkpt>
      <trkpt lat="43.1269" lon="1.3306">
        <ele>270.6</ele>
        <time>2023-03-05T15:15:36Z</time>
        <extensions>
          <gpxtpx:TrackPointExtension xmlns:gpxtpx="http://www.garmin.com/xmlschemas/TrackPointExtension/v1">
            <gpxtpx:hr>121</gpxtpx:hr>
          </gpxtpx:TrackPointExtension>
        </extensions>
      </trkpt>
      <trkpt lat="43.12691" lon="1.33054">
        <ele>271</ele>
        <time>2023-03-05T15:15:37Z</time>
        <extensions>
          <gpxtpx:TrackPointExtension xmlns:gpxtpx="http://www.garmin.com/xmlschemas/TrackPointExtension/v1">
            <gpxtpx:hr>122</gpxtpx:hr>
          </gpxtpx:TrackPointExtension>
        </extensions>
      </trkpt>
      <trkpt lat="43.12691" lon="1.33048">
        <ele>271.6</ele>
        <time>2023-03-05T15:15:38Z</time>
        <extensions>
          <gpxtpx:TrackPointExtension xmlns:gpxtpx="http://www.garmin.com/xmlschemas/TrackPointExtension/v1">
            <gpxtpx:hr>123</gpxtpx:hr>
          </gpxtpx:TrackPointExtension>
        </extensions>
      </trkpt>
      <trkpt lat="43.12692" lon="1.33042">
        <ele>272.2</ele>
        <time>2023-03-05T15:15:39Z</time>
        <extensions>
          <gpxtpx:TrackPointExtension xmlns:gpxtpx="http://www.garmin.com/xmlschemas/TrackPointExtension/v1">
            <gpxtpx:hr>123</gpxtpx:hr>
          </gpxtpx:TrackPointExtension>
        </extensions>
      </trkpt>
      <trkpt lat="43.12693" lon="1.33037">
        <ele>272.6</ele>
        <time>2023-03-05T15:15:40Z</time>
        <extensions>
          <gpxtpx:TrackPointExtension xmlns:gpxtpx="http://www.garmin.com/xmlschemas/TrackPointExtension/v1">
            <gpxtpx:hr>123</gpxtpx:hr>
          </gpxtpx:TrackPointExtension>
        </extensions>
      </trkpt>
      <trkpt lat="43.12693" lon="1.33031">
        <ele>273.2</ele>
        <time>2023-03-05T15:15:41Z</time>
        <extensions>
          <gpxtpx:TrackPointExtension xmlns:gpxtpx="http://www.garmin.com/xmlschemas/TrackPointExtension/v1">
            <gpxtpx:hr>123</gpxtpx:hr>
          </gpxtpx:TrackPointExtension>
        </extensions>
      </trkpt>
      <trkpt lat="43.12694" lon="1.33026">
        <ele>273.6</ele>
        <time>2023-03-05T15:15:42Z</time>
        <extensions>
          <gpxtpx:TrackPointExtension xmlns:gpxtpx="http://www.garmin.com/xmlschemas/TrackPointExtension/v1">
            <gpxtpx:hr>123</gpxtpx:hr>
          </gpxtpx:TrackPointExtension>
        </extensions>
      </trkpt>
      <trkpt lat="43.12695" lon="1.3302">
        <ele>274</ele>
        <time>2023-03-05T15:15:43Z</time>
        <extensions>
          <gpxtpx:TrackPointExtension xmlns:gpxtpx="http://www.garmin.com/xmlschemas/TrackPointExtension/v1">
            <gpxtpx:hr>123</gpxtpx:hr>
          </gpxtpx:TrackPointExtension>
        </extensions>
      </trkpt>
      <trkpt lat="43.12696" lon="1.33015">
        <ele>274.4</ele>
        <time>2023-03-05T15:15:44Z</time>
        <extensions>
          <gpxtpx:TrackPointExtension xmlns:gpxtpx="http://www.garmin.com/xmlschemas/TrackPointExtension/v1">
            <gpxtpx:hr>123</gpxtpx:hr>
          </gpxtpx:TrackPointExtension>
        </extensions>
      </trkpt>
      <trkpt lat="43.12696" lon="1.33009">
        <ele>275</ele>
        <time>2023-03-05T15:15:45Z</time>
        <extensions>
          <gpxtpx:TrackPointExtension xmlns:gpxtpx="http://www.garmin.com/xmlschemas/TrackPointExtension/v1">
            <gpxtpx:hr>123</gpxtpx:hr>
          </gpxtpx:TrackPointExtension>
        </extensions>
      </trkpt>
      <trkpt lat="43.12697" lon="1.33003">
        <ele>275.4</ele>
        <time>2023-03-05T15:15:46Z</time>
        <extensions>
          <gpxtpx:TrackPointExtension xmlns:gpxtpx="http://www.garmin.com/xmlschemas/TrackPointExtension/v1">
            <gpxtpx:hr>123</gpxtpx:hr>
          </gpxtpx:TrackPointExtension>
        </extensions>
      </trkpt>
      <trkpt lat="43.12698" lon="1.32991">
        <ele>275.4</ele>
        <time>2023-03-05T15:15:48Z</time>
        <extensions>
          <gpxtpx:TrackPointExtension xmlns:gpxtpx="http://www.garmin.com/xmlschemas/TrackPointExtension/v1">
            <gpxtpx:hr>123</gpxtpx:hr>
          </gpxtpx:TrackPointExtension>
        </extensions>
      </trkpt>
      <trkpt lat="43.12696" lon="1.3298">
        <ele>275.4</ele>
        <time>2023-03-05T15:15:50Z</time>
        <extensions>
          <gpxtpx:TrackPointExtension xmlns:gpxtpx="http://www.garmin.com/xmlschemas/TrackPointExtension/v1">
            <gpxtpx:hr>123</gpxtpx:hr>
          </gpxtpx:TrackPointExtension>
        </extensions>
      </trkpt>
      <trkpt lat="43.12688" lon="1.32952">
        <ele>275.4</ele>
        <time>2023-03-05T15:15:56Z</time>
        <extensions>
          <gpxtpx:TrackPointExtension xmlns:gpxtpx="http://www.garmin.com/xmlschemas/TrackPointExtension/v1">
            <gpxtpx:hr>123</gpxtpx:hr>
          </gpxtpx:TrackPointExtension>
        </extensions>
      </trkpt>
      <trkpt lat="43.12685" lon="1.32937">
        <ele>275.4</ele>
        <time>2023-03-05T15:15:59Z</time>
        <extensions>
          <gpxtpx:TrackPointExtension xmlns:gpxtpx="http://www.garmin.com/xmlschemas/TrackPointExtension/v1">
            <gpxtpx:hr>126</gpxtpx:hr>
          </gpxtpx:TrackPointExtension>
        </extensions>
      </trkpt>
      <trkpt lat="43.12684" lon="1.32919">
        <ele>275.4</ele>
        <time>2023-03-05T15:16:02Z</time>
        <extensions>
          <gpxtpx:TrackPointExtension xmlns:gpxtpx="http://www.garmin.com/xmlschemas/TrackPointExtension/v1">
            <gpxtpx:hr>126</gpxtpx:hr>
          </gpxtpx:TrackPointExtension>
        </extensions>
      </trkpt>
      <trkpt lat="43.12685" lon="1.32876">
        <ele>275.4</ele>
        <time>2023-03-05T15:16:09Z</time>
        <extensions>
          <gpxtpx:TrackPointExtension xmlns:gpxtpx="http://www.garmin.com/xmlschemas/TrackPointExtension/v1">
            <gpxtpx:hr>126</gpxtpx:hr>
          </gpxtpx:TrackPointExtension>
        </extensions>
      </trkpt>
      <trkpt lat="43.12686" lon="1.3287">
        <ele>275.4</ele>
        <time>2023-03-05T15:16:10Z</time>
        <extensions>
          <gpxtpx:TrackPointExtension xmlns:gpxtpx="http://www.garmin.com/xmlschemas/TrackPointExtension/v1">
            <gpxtpx:hr>126</gpxtpx:hr>
          </gpxtpx:TrackPointExtension>
        </extensions>
      </trkpt>
      <trkpt lat="43.12696" lon="1.32847">
        <ele>275.4</ele>
        <time>2023-03-05T15:16:15Z</time>
        <extensions>
          <gpxtpx:TrackPointExtension xmlns:gpxtpx="http://www.garmin.com/xmlschemas/TrackPointExtension/v1">
            <gpxtpx:hr>128</gpxtpx:hr>
          </gpxtpx:TrackPointExtension>
        </extensions>
      </trkpt>
      <trkpt lat="43.12708" lon="1.3282">
        <ele>275.4</ele>
        <time>2023-03-05T15:16:20Z</time>
        <extensions>
          <gpxtpx:TrackPointExtension xmlns:gpxtpx="http://www.garmin.com/xmlschemas/TrackPointExtension/v1">
            <gpxtpx:hr>125</gpxtpx:hr>
          </gpxtpx:TrackPointExtension>
        </extensions>
      </trkpt>
      <trkpt lat="43.12727" lon="1.32789">
        <ele>275.4</ele>
        <time>2023-03-05T15:16:26Z</time>
        <extensions>
          <gpxtpx:TrackPointExtension xmlns:gpxtpx="http://www.garmin.com/xmlschemas/TrackPointExtension/v1">
            <gpxtpx:hr>125</gpxtpx:hr>
          </gpxtpx:TrackPointExtension>
        </extensions>
      </trkpt>
      <trkpt lat="43.12729" lon="1.32783">
        <ele>275.4</ele>
        <time>2023-03-05T15:16:27Z</time>
        <extensions>
          <gpxtpx:TrackPointExtension xmlns:gpxtpx="http://www.garmin.com/xmlschemas/TrackPointExtension/v1">
            <gpxtpx:hr>125</gpxtpx:hr>
          </gpxtpx:TrackPointExtension>
        </extensions>
      </trkpt>
      <trkpt lat="43.12738" lon="1.32752">
        <ele>275.4</ele>
        <time>2023-03-05T15:16:32Z</time>
        <extensions>
          <gpxtpx:TrackPointExtension xmlns:gpxtpx="http://www.garmin.com/xmlschemas/TrackPointExtension/v1">
            <gpxtpx:hr>124</gpxtpx:hr>
          </gpxtpx:TrackPointExtension>
        </extensions>
      </trkpt>
      <trkpt lat="43.12749" lon="1.32705">
        <ele>274.8</ele>
        <time>2023-03-05T15:16:37Z</time>
        <extensions>
          <gpxtpx:TrackPointExtension xmlns:gpxtpx="http://www.garmin.com/xmlschemas/TrackPointExtension/v1">
            <gpxtpx:hr>124</gpxtpx:hr>
          </gpxtpx:TrackPointExtension>
        </extensions>
      </trkpt>
      <trkpt lat="43.12753" lon="1.32694">
        <ele>274.4</ele>
        <time>2023-03-05T15:16:38Z</time>
        <extensions>
          <gpxtpx:TrackPointExtension xmlns:gpxtpx="http://www.garmin.com/xmlschemas/TrackPointExtension/v1">
            <gpxtpx:hr>123</gpxtpx:hr>
          </gpxtpx:TrackPointExtension>
        </extensions>
      </trkpt>
      <trkpt lat="43.12756" lon="1.32683">
        <ele>273.8</ele>
        <time>2023-03-05T15:16:39Z</time>
        <extensions>
          <gpxtpx:TrackPointExtension xmlns:gpxtpx="http://www.garmin.com/xmlschemas/TrackPointExtension/v1">
            <gpxtpx:hr>122</gpxtpx:hr>
          </gpxtpx:TrackPointExtension>
        </extensions>
      </trkpt>
      <trkpt lat="43.12761" lon="1.32671">
        <ele>273</ele>
        <time>2023-03-05T15:16:40Z</time>
        <extensions>
          <gpxtpx:TrackPointExtension xmlns:gpxtpx="http://www.garmin.com/xmlschemas/TrackPointExtension/v1">
            <gpxtpx:hr>122</gpxtpx:hr>
          </gpxtpx:TrackPointExtension>
        </extensions>
      </trkpt>
      <trkpt lat="43.12765" lon="1.3266">
        <ele>272.4</ele>
        <time>2023-03-05T15:16:41Z</time>
        <extensions>
          <gpxtpx:TrackPointExtension xmlns:gpxtpx="http://www.garmin.com/xmlschemas/TrackPointExtension/v1">
            <gpxtpx:hr>122</gpxtpx:hr>
          </gpxtpx:TrackPointExtension>
        </extensions>
      </trkpt>
      <trkpt lat="43.1277" lon="1.32648">
        <ele>271.6</ele>
        <time>2023-03-05T15:16:42Z</time>
        <extensions>
          <gpxtpx:TrackPointExtension xmlns:gpxtpx="http://www.garmin.com/xmlschemas/TrackPointExtension/v1">
            <gpxtpx:hr>120</gpxtpx:hr>
          </gpxtpx:TrackPointExtension>
        </extensions>
      </trkpt>
      <trkpt lat="43.12775" lon="1.32637">
        <ele>270.8</ele>
        <time>2023-03-05T15:16:43Z</time>
        <extensions>
          <gpxtpx:TrackPointExtension xmlns:gpxtpx="http://www.garmin.com/xmlschemas/TrackPointExtension/v1">
            <gpxtpx:hr>118</gpxtpx:hr>
          </gpxtpx:TrackPointExtension>
        </extensions>
      </trkpt>
      <trkpt lat="43.1278" lon="1.32626">
        <ele>269.2</ele>
        <time>2023-03-05T15:16:44Z</time>
        <extensions>
          <gpxtpx:TrackPointExtension xmlns:gpxtpx="http://www.garmin.com/xmlschemas/TrackPointExtension/v1">
            <gpxtpx:hr>117</gpxtpx:hr>
          </gpxtpx:TrackPointExtension>
        </extensions>
      </trkpt>
      <trkpt lat="43.12784" lon="1.32615">
        <ele>268.4</ele>
        <time>2023-03-05T15:16:45Z</time>
        <extensions>
          <gpxtpx:TrackPointExtension xmlns:gpxtpx="http://www.garmin.com/xmlschemas/TrackPointExtension/v1">
            <gpxtpx:hr>117</gpxtpx:hr>
          </gpxtpx:TrackPointExtension>
        </extensions>
      </trkpt>
      <trkpt lat="43.12788" lon="1.32604">
        <ele>267.6</ele>
        <time>2023-03-05T15:16:46Z</time>
        <extensions>
          <gpxtpx:TrackPointExtension xmlns:gpxtpx="http://www.garmin.com/xmlschemas/TrackPointExtension/v1">
            <gpxtpx:hr>117</gpxtpx:hr>
          </gpxtpx:TrackPointExtension>
        </extensions>
      </trkpt>
      <trkpt lat="43.12792" lon="1.32594">
        <ele>266.8</ele>
        <time>2023-03-05T15:16:47Z</time>
        <extensions>
          <gpxtpx:TrackPointExtension xmlns:gpxtpx="http://www.garmin.com/xmlschemas/TrackPointExtension/v1">
            <gpxtpx:hr>115</gpxtpx:hr>
          </gpxtpx:TrackPointExtension>
        </extensions>
      </trkpt>
      <trkpt lat="43.12795" lon="1.32583">
        <ele>266</ele>
        <time>2023-03-05T15:16:48Z</time>
        <extensions>
          <gpxtpx:TrackPointExtension xmlns:gpxtpx="http://www.garmin.com/xmlschemas/TrackPointExtension/v1">
            <gpxtpx:hr>115</gpxtpx:hr>
          </gpxtpx:TrackPointExtension>
        </extensions>
      </trkpt>
      <trkpt lat="43.12798" lon="1.32574">
        <ele>265.2</ele>
        <time>2023-03-05T15:16:49Z</time>
        <extensions>
          <gpxtpx:TrackPointExtension xmlns:gpxtpx="http://www.garmin.com/xmlschemas/TrackPointExtension/v1">
            <gpxtpx:hr>115</gpxtpx:hr>
          </gpxtpx:TrackPointExtension>
        </extensions>
      </trkpt>
      <trkpt lat="43.12801" lon="1.32564">
        <ele>264.4</ele>
        <time>2023-03-05T15:16:50Z</time>
        <extensions>
          <gpxtpx:TrackPointExtension xmlns:gpxtpx="http://www.garmin.com/xmlschemas/TrackPointExtension/v1">
            <gpxtpx:hr>115</gpxtpx:hr>
          </gpxtpx:TrackPointExtension>
        </extensions>
      </trkpt>
      <trkpt lat="43.12803" lon="1.32556">
        <ele>263.8</ele>
        <time>2023-03-05T15:16:51Z</time>
        <extensions>
          <gpxtpx:TrackPointExtension xmlns:gpxtpx="http://www.garmin.com/xmlschemas/TrackPointExtension/v1">
            <gpxtpx:hr>115</gpxtpx:hr>
          </gpxtpx:TrackPointExtension>
        </extensions>
      </trkpt>
      <trkpt lat="43.12808" lon="1.3254">
        <ele>263.8</ele>
        <time>2023-03-05T15:16:53Z</time>
        <extensions>
          <gpxtpx:TrackPointExtension xmlns:gpxtpx="http://www.garmin.com/xmlschemas/TrackPointExtension/v1">
            <gpxtpx:hr>115</gpxtpx:hr>
          </gpxtpx:TrackPointExtension>
        </extensions>
      </trkpt>
      <trkpt lat="43.12823" lon="1.32489">
        <ele>263.8</ele>
        <time>2023-03-05T15:17:00Z</time>
        <extensions>
          <gpxtpx:TrackPointExtension xmlns:gpxtpx="http://www.garmin.com/xmlschemas/TrackPointExtension/v1">
            <gpxtpx:hr>112</gpxtpx:hr>
          </gpxtpx:TrackPointExtension>
        </extensions>
      </trkpt>
      <trkpt lat="43.12825" lon="1.32482">
        <ele>263.8</ele>
        <time>2023-03-05T15:17:01Z</time>
        <extensions>
          <gpxtpx:TrackPointExtension xmlns:gpxtpx="http://www.garmin.com/xmlschemas/TrackPointExtension/v1">
            <gpxtpx:hr>112</gpxtpx:hr>
          </gpxtpx:TrackPointExtension>
        </extensions>
      </trkpt>
      <trkpt lat="43.12843" lon="1.32422">
        <ele>263.8</ele>
        <time>2023-03-05T15:17:10Z</time>
        <extensions>
          <gpxtpx:TrackPointExtension xmlns:gpxtpx="http://www.garmin.com/xmlschemas/TrackPointExtension/v1">
            <gpxtpx:hr>110</gpxtpx:hr>
          </gpxtpx:TrackPointExtension>
        </extensions>
      </trkpt>
      <trkpt lat="43.12854" lon="1.32387">
        <ele>263.4</ele>
        <time>2023-03-05T15:17:15Z</time>
        <extensions>
          <gpxtpx:TrackPointExtension xmlns:gpxtpx="http://www.garmin.com/xmlschemas/TrackPointExtension/v1">
            <gpxtpx:hr>109</gpxtpx:hr>
          </gpxtpx:TrackPointExtension>
        </extensions>
      </trkpt>
      <trkpt lat="43.12856" lon="1.3238">
        <ele>263</ele>
        <time>2023-03-05T15:17:16Z</time>
        <extensions>
          <gpxtpx:TrackPointExtension xmlns:gpxtpx="http://www.garmin.com/xmlschemas/TrackPointExtension/v1">
            <gpxtpx:hr>109</gpxtpx:hr>
          </gpxtpx:TrackPointExtension>
        </extensions>
      </trkpt>
      <trkpt lat="43.12858" lon="1.32373">
        <ele>262.6</ele>
        <time>2023-03-05T15:17:17Z</time>
        <extensions>
          <gpxtpx:TrackPointExtension xmlns:gpxtpx="http://www.garmin.com/xmlschemas/TrackPointExtension/v1">
            <gpxtpx:hr>109</gpxtpx:hr>
          </gpxtpx:TrackPointExtension>
        </extensions>
      </trkpt>
      <trkpt lat="43.1286" lon="1.32366">
        <ele>262.2</ele>
        <time>2023-03-05T15:17:18Z</time>
        <extensions>
          <gpxtpx:TrackPointExtension xmlns:gpxtpx="http://www.garmin.com/xmlschemas/TrackPointExtension/v1">
            <gpxtpx:hr>109</gpxtpx:hr>
          </gpxtpx:TrackPointExtension>
        </extensions>
      </trkpt>
      <trkpt lat="43.12862" lon="1.32359">
        <ele>261.8</ele>
        <time>2023-03-05T15:17:19Z</time>
        <extensions>
          <gpxtpx:TrackPointExtension xmlns:gpxtpx="http://www.garmin.com/xmlschemas/TrackPointExtension/v1">
            <gpxtpx:hr>109</gpxtpx:hr>
          </gpxtpx:TrackPointExtension>
        </extensions>
      </trkpt>
      <trkpt lat="43.12866" lon="1.32345">
        <ele>261.8</ele>
        <time>2023-03-05T15:17:21Z</time>
        <extensions>
          <gpxtpx:TrackPointExtension xmlns:gpxtpx="http://www.garmin.com/xmlschemas/TrackPointExtension/v1">
            <gpxtpx:hr>109</gpxtpx:hr>
          </gpxtpx:TrackPointExtension>
        </extensions>
      </trkpt>
      <trkpt lat="43.12885" lon="1.32283">
        <ele>261.8</ele>
        <time>2023-03-05T15:17:30Z</time>
        <extensions>
          <gpxtpx:TrackPointExtension xmlns:gpxtpx="http://www.garmin.com/xmlschemas/TrackPointExtension/v1">
            <gpxtpx:hr>111</gpxtpx:hr>
          </gpxtpx:TrackPointExtension>
        </extensions>
      </trkpt>
      <trkpt lat="43.12904" lon="1.32222">
        <ele>261.8</ele>
        <time>2023-03-05T15:17:39Z</time>
        <extensions>
          <gpxtpx:TrackPointExtension xmlns:gpxtpx="http://www.garmin.com/xmlschemas/TrackPointExtension/v1">
            <gpxtpx:hr>112</gpxtpx:hr>
          </gpxtpx:TrackPointExtension>
        </extensions>
      </trkpt>
      <trkpt lat="43.12924" lon="1.32151">
        <ele>261.8</ele>
        <time>2023-03-05T15:17:49Z</time>
        <extensions>
          <gpxtpx:TrackPointExtension xmlns:gpxtpx="http://www.garmin.com/xmlschemas/TrackPointExtension/v1">
            <gpxtpx:hr>112</gpxtpx:hr>
          </gpxtpx:TrackPointExtension>
        </extensions>
      </trkpt>
      <trkpt lat="43.12945" lon="1.32081">
        <ele>261.8</ele>
        <time>2023-03-05T15:17:59Z</time>
        <extensions>
          <gpxtpx:TrackPointExtension xmlns:gpxtpx="http://www.garmin.com/xmlschemas/TrackPointExtension/v1">
            <gpxtpx:hr>112</gpxtpx:hr>
          </gpxtpx:TrackPointExtension>
        </extensions>
      </trkpt>
      <trkpt lat="43.12963" lon="1.32022">
        <ele>261.2</ele>
        <time>2023-03-05T15:18:07Z</time>
        <extensions>
          <gpxtpx:TrackPointExtension xmlns:gpxtpx="http://www.garmin.com/xmlschemas/TrackPointExtension/v1">
            <gpxtpx:hr>112</gpxtpx:hr>
          </gpxtpx:TrackPointExtension>
        </extensions>
      </trkpt>
      <trkpt lat="43.12965" lon="1.32014">
        <ele>260.8</ele>
        <time>2023-03-05T15:18:08Z</time>
        <extensions>
          <gpxtpx:TrackPointExtension xmlns:gpxtpx="http://www.garmin.com/xmlschemas/TrackPointExtension/v1">
            <gpxtpx:hr>112</gpxtpx:hr>
          </gpxtpx:TrackPointExtension>
        </extensions>
      </trkpt>
      <trkpt lat="43.12967" lon="1.32006">
        <ele>260.4</ele>
        <time>2023-03-05T15:18:09Z</time>
        <extensions>
          <gpxtpx:TrackPointExtension xmlns:gpxtpx="http://www.garmin.com/xmlschemas/TrackPointExtension/v1">
            <gpxtpx:hr>112</gpxtpx:hr>
          </gpxtpx:TrackPointExtension>
        </extensions>
      </trkpt>
      <trkpt lat="43.12969" lon="1.31999">
        <ele>260</ele>
        <time>2023-03-05T15:18:10Z</time>
        <extensions>
          <gpxtpx:TrackPointExtension xmlns:gpxtpx="http://www.garmin.com/xmlschemas/TrackPointExtension/v1">
            <gpxtpx:hr>112</gpxtpx:hr>
          </gpxtpx:TrackPointExtension>
        </extensions>
      </trkpt>
      <trkpt lat="43.12971" lon="1.31991">
        <ele>259.6</ele>
        <time>2023-03-05T15:18:11Z</time>
        <extensions>
          <gpxtpx:TrackPointExtension xmlns:gpxtpx="http://www.garmin.com/xmlschemas/TrackPointExtension/v1">
            <gpxtpx:hr>113</gpxtpx:hr>
          </gpxtpx:TrackPointExtension>
        </extensions>
      </trkpt>
      <trkpt lat="43.12978" lon="1.31969">
        <ele>259.6</ele>
        <time>2023-03-05T15:18:14Z</time>
        <extensions>
          <gpxtpx:TrackPointExtension xmlns:gpxtpx="http://www.garmin.com/xmlschemas/TrackPointExtension/v1">
            <gpxtpx:hr>113</gpxtpx:hr>
          </gpxtpx:TrackPointExtension>
        </extensions>
      </trkpt>
      <trkpt lat="43.12988" lon="1.31939">
        <ele>259.6</ele>
        <time>2023-03-05T15:18:18Z</time>
        <extensions>
          <gpxtpx:TrackPointExtension xmlns:gpxtpx="http://www.garmin.com/xmlschemas/TrackPointExtension/v1">
            <gpxtpx:hr>116</gpxtpx:hr>
          </gpxtpx:TrackPointExtension>
        </extensions>
      </trkpt>
      <trkpt lat="43.13001" lon="1.31897">
        <ele>259.6</ele>
        <time>2023-03-05T15:18:24Z</time>
        <extensions>
          <gpxtpx:TrackPointExtension xmlns:gpxtpx="http://www.garmin.com/xmlschemas/TrackPointExtension/v1">
            <gpxtpx:hr>119</gpxtpx:hr>
          </gpxtpx:TrackPointExtension>
        </extensions>
      </trkpt>
      <trkpt lat="43.13019" lon="1.31836">
        <ele>259.6</ele>
        <time>2023-03-05T15:18:33Z</time>
        <extensions>
          <gpxtpx:TrackPointExtension xmlns:gpxtpx="http://www.garmin.com/xmlschemas/TrackPointExtension/v1">
            <gpxtpx:hr>120</gpxtpx:hr>
          </gpxtpx:TrackPointExtension>
        </extensions>
      </trkpt>
      <trkpt lat="43.13023" lon="1.31823">
        <ele>260</ele>
        <time>2023-03-05T15:18:35Z</time>
        <extensions>
          <gpxtpx:TrackPointExtension xmlns:gpxtpx="http://www.garmin.com/xmlschemas/TrackPointExtension/v1">
            <gpxtpx:hr>121</gpxtpx:hr>
          </gpxtpx:TrackPointExtension>
        </extensions>
      </trkpt>
      <trkpt lat="43.13024" lon="1.31817">
        <ele>260.4</ele>
        <time>2023-03-05T15:18:36Z</time>
        <extensions>
          <gpxtpx:TrackPointExtension xmlns:gpxtpx="http://www.garmin.com/xmlschemas/TrackPointExtension/v1">
            <gpxtpx:hr>121</gpxtpx:hr>
          </gpxtpx:TrackPointExtension>
        </extensions>
      </trkpt>
      <trkpt lat="43.13026" lon="1.31811">
        <ele>260.8</ele>
        <time>2023-03-05T15:18:37Z</time>
        <extensions>
          <gpxtpx:TrackPointExtension xmlns:gpxtpx="http://www.garmin.com/xmlschemas/TrackPointExtension/v1">
            <gpxtpx:hr>122</gpxtpx:hr>
          </gpxtpx:TrackPointExtension>
        </extensions>
      </trkpt>
      <trkpt lat="43.13028" lon="1.31805">
        <ele>261.2</ele>
        <time>2023-03-05T15:18:38Z</time>
        <extensions>
          <gpxtpx:TrackPointExtension xmlns:gpxtpx="http://www.garmin.com/xmlschemas/TrackPointExtension/v1">
            <gpxtpx:hr>122</gpxtpx:hr>
          </gpxtpx:TrackPointExtension>
        </extensions>
      </trkpt>
      <trkpt lat="43.13029" lon="1.318">
        <ele>261.6</ele>
        <time>2023-03-05T15:18:39Z</time>
        <extensions>
          <gpxtpx:TrackPointExtension xmlns:gpxtpx="http://www.garmin.com/xmlschemas/TrackPointExtension/v1">
            <gpxtpx:hr>122</gpxtpx:hr>
          </gpxtpx:TrackPointExtension>
        </extensions>
      </trkpt>
      <trkpt lat="43.13033" lon="1.31789">
        <ele>261.6</ele>
        <time>2023-03-05T15:18:41Z</time>
        <extensions>
          <gpxtpx:TrackPointExtension xmlns:gpxtpx="http://www.garmin.com/xmlschemas/TrackPointExtension/v1">
            <gpxtpx:hr>122</gpxtpx:hr>
          </gpxtpx:TrackPointExtension>
        </extensions>
      </trkpt>
      <trkpt lat="43.13047" lon="1.31742">
        <ele>261.6</ele>
        <time>2023-03-05T15:18:49Z</time>
        <extensions>
          <gpxtpx:TrackPointExtension xmlns:gpxtpx="http://www.garmin.com/xmlschemas/TrackPointExtension/v1">
            <gpxtpx:hr>120</gpxtpx:hr>
          </gpxtpx:TrackPointExtension>
        </extensions>
      </trkpt>
      <trkpt lat="43.13058" lon="1.31693">
        <ele>261.6</ele>
        <time>2023-03-05T15:18:56Z</time>
        <extensions>
          <gpxtpx:TrackPointExtension xmlns:gpxtpx="http://www.garmin.com/xmlschemas/TrackPointExtension/v1">
            <gpxtpx:hr>122</gpxtpx:hr>
          </gpxtpx:TrackPointExtension>
        </extensions>
      </trkpt>
      <trkpt lat="43.1306" lon="1.31664">
        <ele>261.6</ele>
        <time>2023-03-05T15:19:01Z</time>
        <extensions>
          <gpxtpx:TrackPointExtension xmlns:gpxtpx="http://www.garmin.com/xmlschemas/TrackPointExtension/v1">
            <gpxtpx:hr>122</gpxtpx:hr>
          </gpxtpx:TrackPointExtension>
        </extensions>
      </trkpt>
      <trkpt lat="43.13061" lon="1.31659">
        <ele>261.6</ele>
        <time>2023-03-05T15:19:02Z</time>
        <extensions>
          <gpxtpx:TrackPointExtension xmlns:gpxtpx="http://www.garmin.com/xmlschemas/TrackPointExtension/v1">
            <gpxtpx:hr>122</gpxtpx:hr>
          </gpxtpx:TrackPointExtension>
        </extensions>
      </trkpt>
      <trkpt lat="43.13065" lon="1.31633">
        <ele>261.6</ele>
        <time>2023-03-05T15:19:07Z</time>
        <extensions>
          <gpxtpx:TrackPointExtension xmlns:gpxtpx="http://www.garmin.com/xmlschemas/TrackPointExtension/v1">
            <gpxtpx:hr>121</gpxtpx:hr>
          </gpxtpx:TrackPointExtension>
        </extensions>
      </trkpt>
      <trkpt lat="43.13067" lon="1.31625">
        <ele>262</ele>
        <time>2023-03-05T15:19:09Z</time>
        <extensions>
          <gpxtpx:TrackPointExtension xmlns:gpxtpx="http://www.garmin.com/xmlschemas/TrackPointExtension/v1">
            <gpxtpx:hr>121</gpxtpx:hr>
          </gpxtpx:TrackPointExtension>
        </extensions>
      </trkpt>
      <trkpt lat="43.13069" lon="1.31623">
        <ele>262.6</ele>
        <time>2023-03-05T15:19:10Z</time>
        <extensions>
          <gpxtpx:TrackPointExtension xmlns:gpxtpx="http://www.garmin.com/xmlschemas/TrackPointExtension/v1">
            <gpxtpx:hr>121</gpxtpx:hr>
          </gpxtpx:TrackPointExtension>
        </extensions>
      </trkpt>
      <trkpt lat="43.13068" lon="1.3162">
        <ele>263</ele>
        <time>2023-03-05T15:19:11Z</time>
        <extensions>
          <gpxtpx:TrackPointExtension xmlns:gpxtpx="http://www.garmin.com/xmlschemas/TrackPointExtension/v1">
            <gpxtpx:hr>121</gpxtpx:hr>
          </gpxtpx:TrackPointExtension>
        </extensions>
      </trkpt>
      <trkpt lat="43.13068" lon="1.31616">
        <ele>263.6</ele>
        <time>2023-03-05T15:19:12Z</time>
        <extensions>
          <gpxtpx:TrackPointExtension xmlns:gpxtpx="http://www.garmin.com/xmlschemas/TrackPointExtension/v1">
            <gpxtpx:hr>122</gpxtpx:hr>
          </gpxtpx:TrackPointExtension>
        </extensions>
      </trkpt>
      <trkpt lat="43.13069" lon="1.31612">
        <ele>264.8</ele>
        <time>2023-03-05T15:19:13Z</time>
        <extensions>
          <gpxtpx:TrackPointExtension xmlns:gpxtpx="http://www.garmin.com/xmlschemas/TrackPointExtension/v1">
            <gpxtpx:hr>122</gpxtpx:hr>
          </gpxtpx:TrackPointExtension>
        </extensions>
      </trkpt>
      <trkpt lat="43.13068" lon="1.31609">
        <ele>265.4</ele>
        <time>2023-03-05T15:19:14Z</time>
        <extensions>
          <gpxtpx:TrackPointExtension xmlns:gpxtpx="http://www.garmin.com/xmlschemas/TrackPointExtension/v1">
            <gpxtpx:hr>123</gpxtpx:hr>
          </gpxtpx:TrackPointExtension>
        </extensions>
      </trkpt>
      <trkpt lat="43.13068" lon="1.31605">
        <ele>265.8</ele>
        <time>2023-03-05T15:19:15Z</time>
        <extensions>
          <gpxtpx:TrackPointExtension xmlns:gpxtpx="http://www.garmin.com/xmlschemas/TrackPointExtension/v1">
            <gpxtpx:hr>123</gpxtpx:hr>
          </gpxtpx:TrackPointExtension>
        </extensions>
      </trkpt>
      <trkpt lat="43.13068" lon="1.31602">
        <ele>266.4</ele>
        <time>2023-03-05T15:19:16Z</time>
        <extensions>
          <gpxtpx:TrackPointExtension xmlns:gpxtpx="http://www.garmin.com/xmlschemas/TrackPointExtension/v1">
            <gpxtpx:hr>123</gpxtpx:hr>
          </gpxtpx:TrackPointExtension>
        </extensions>
      </trkpt>
      <trkpt lat="43.13068" lon="1.31599">
        <ele>266.8</ele>
        <time>2023-03-05T15:19:17Z</time>
        <extensions>
          <gpxtpx:TrackPointExtension xmlns:gpxtpx="http://www.garmin.com/xmlschemas/TrackPointExtension/v1">
            <gpxtpx:hr>123</gpxtpx:hr>
          </gpxtpx:TrackPointExtension>
        </extensions>
      </trkpt>
      <trkpt lat="43.13068" lon="1.31596">
        <ele>267.4</ele>
        <time>2023-03-05T15:19:18Z</time>
        <extensions>
          <gpxtpx:TrackPointExtension xmlns:gpxtpx="http://www.garmin.com/xmlschemas/TrackPointExtension/v1">
            <gpxtpx:hr>124</gpxtpx:hr>
          </gpxtpx:TrackPointExtension>
        </extensions>
      </trkpt>
      <trkpt lat="43.13067" lon="1.31593">
        <ele>267.8</ele>
        <time>2023-03-05T15:19:19Z</time>
        <extensions>
          <gpxtpx:TrackPointExtension xmlns:gpxtpx="http://www.garmin.com/xmlschemas/TrackPointExtension/v1">
            <gpxtpx:hr>126</gpxtpx:hr>
          </gpxtpx:TrackPointExtension>
        </extensions>
      </trkpt>
      <trkpt lat="43.13067" lon="1.31591">
        <ele>268.4</ele>
        <time>2023-03-05T15:19:20Z</time>
        <extensions>
          <gpxtpx:TrackPointExtension xmlns:gpxtpx="http://www.garmin.com/xmlschemas/TrackPointExtension/v1">
            <gpxtpx:hr>127</gpxtpx:hr>
          </gpxtpx:TrackPointExtension>
        </extensions>
      </trkpt>
      <trkpt lat="43.13068" lon="1.31585">
        <ele>268.8</ele>
        <time>2023-03-05T15:19:22Z</time>
        <extensions>
          <gpxtpx:TrackPointExtension xmlns:gpxtpx="http://www.garmin.com/xmlschemas/TrackPointExtension/v1">
            <gpxtpx:hr>129</gpxtpx:hr>
          </gpxtpx:TrackPointExtension>
        </extensions>
      </trkpt>
      <trkpt lat="43.13068" lon="1.31583">
        <ele>269.2</ele>
        <time>2023-03-05T15:19:23Z</time>
        <extensions>
          <gpxtpx:TrackPointExtension xmlns:gpxtpx="http://www.garmin.com/xmlschemas/TrackPointExtension/v1">
            <gpxtpx:hr>129</gpxtpx:hr>
          </gpxtpx:TrackPointExtension>
        </extensions>
      </trkpt>
      <trkpt lat="43.13068" lon="1.31581">
        <ele>269.8</ele>
        <time>2023-03-05T15:19:24Z</time>
        <extensions>
          <gpxtpx:TrackPointExtension xmlns:gpxtpx="http://www.garmin.com/xmlschemas/TrackPointExtension/v1">
            <gpxtpx:hr>129</gpxtpx:hr>
          </gpxtpx:TrackPointExtension>
        </extensions>
      </trkpt>
      <trkpt lat="43.13068" lon="1.31579">
        <ele>270.2</ele>
        <time>2023-03-05T15:19:25Z</time>
        <extensions>
          <gpxtpx:TrackPointExtension xmlns:gpxtpx="http://www.garmin.com/xmlschemas/TrackPointExtension/v1">
            <gpxtpx:hr>129</gpxtpx:hr>
          </gpxtpx:TrackPointExtension>
        </extensions>
      </trkpt>
      <trkpt lat="43.13068" lon="1.31578">
        <ele>270.6</ele>
        <time>2023-03-05T15:19:26Z</time>
        <extensions>
          <gpxtpx:TrackPointExtension xmlns:gpxtpx="http://www.garmin.com/xmlschemas/TrackPointExtension/v1">
            <gpxtpx:hr>129</gpxtpx:hr>
          </gpxtpx:TrackPointExtension>
        </extensions>
      </trkpt>
      <trkpt lat="43.13068" lon="1.31572">
        <ele>271</ele>
        <time>2023-03-05T15:19:29Z</time>
        <extensions>
          <gpxtpx:TrackPointExtension xmlns:gpxtpx="http://www.garmin.com/xmlschemas/TrackPointExtension/v1">
            <gpxtpx:hr>128</gpxtpx:hr>
          </gpxtpx:TrackPointExtension>
        </extensions>
      </trkpt>
      <trkpt lat="43.13069" lon="1.31571">
        <ele>271.6</ele>
        <time>2023-03-05T15:19:30Z</time>
        <extensions>
          <gpxtpx:TrackPointExtension xmlns:gpxtpx="http://www.garmin.com/xmlschemas/TrackPointExtension/v1">
            <gpxtpx:hr>128</gpxtpx:hr>
          </gpxtpx:TrackPointExtension>
        </extensions>
      </trkpt>
      <trkpt lat="43.13069" lon="1.31569">
        <ele>272</ele>
        <time>2023-03-05T15:19:31Z</time>
        <extensions>
          <gpxtpx:TrackPointExtension xmlns:gpxtpx="http://www.garmin.com/xmlschemas/TrackPointExtension/v1">
            <gpxtpx:hr>128</gpxtpx:hr>
          </gpxtpx:TrackPointExtension>
        </extensions>
      </trkpt>
      <trkpt lat="43.13069" lon="1.31566">
        <ele>272.4</ele>
        <time>2023-03-05T15:19:32Z</time>
        <extensions>
          <gpxtpx:TrackPointExtension xmlns:gpxtpx="http://www.garmin.com/xmlschemas/TrackPointExtension/v1">
            <gpxtpx:hr>128</gpxtpx:hr>
          </gpxtpx:TrackPointExtension>
        </extensions>
      </trkpt>
      <trkpt lat="43.13068" lon="1.31565">
        <ele>273</ele>
        <time>2023-03-05T15:19:33Z</time>
        <extensions>
          <gpxtpx:TrackPointExtension xmlns:gpxtpx="http://www.garmin.com/xmlschemas/TrackPointExtension/v1">
            <gpxtpx:hr>128</gpxtpx:hr>
          </gpxtpx:TrackPointExtension>
        </extensions>
      </trkpt>
      <trkpt lat="43.13069" lon="1.31562">
        <ele>273</ele>
        <time>2023-03-05T15:19:34Z</time>
        <extensions>
          <gpxtpx:TrackPointExtension xmlns:gpxtpx="http://www.garmin.com/xmlschemas/TrackPointExtension/v1">
            <gpxtpx:hr>128</gpxtpx:hr>
          </gpxtpx:TrackPointExtension>
        </extensions>
      </trkpt>
      <trkpt lat="43.13069" lon="1.3156">
        <ele>273.4</ele>
        <time>2023-03-05T15:19:35Z</time>
        <extensions>
          <gpxtpx:TrackPointExtension xmlns:gpxtpx="http://www.garmin.com/xmlschemas/TrackPointExtension/v1">
            <gpxtpx:hr>128</gpxtpx:hr>
          </gpxtpx:TrackPointExtension>
        </extensions>
      </trkpt>
      <trkpt lat="43.1307" lon="1.31557">
        <ele>273.8</ele>
        <time>2023-03-05T15:19:36Z</time>
        <extensions>
          <gpxtpx:TrackPointExtension xmlns:gpxtpx="http://www.garmin.com/xmlschemas/TrackPointExtension/v1">
            <gpxtpx:hr>128</gpxtpx:hr>
          </gpxtpx:TrackPointExtension>
        </extensions>
      </trkpt>
      <trkpt lat="43.1307" lon="1.31556">
        <ele>274.8</ele>
        <time>2023-03-05T15:19:37Z</time>
        <extensions>
          <gpxtpx:TrackPointExtension xmlns:gpxtpx="http://www.garmin.com/xmlschemas/TrackPointExtension/v1">
            <gpxtpx:hr>128</gpxtpx:hr>
          </gpxtpx:TrackPointExtension>
        </extensions>
      </trkpt>
      <trkpt lat="43.1307" lon="1.31553">
        <ele>275.2</ele>
        <time>2023-03-05T15:19:38Z</time>
        <extensions>
          <gpxtpx:TrackPointExtension xmlns:gpxtpx="http://www.garmin.com/xmlschemas/TrackPointExtension/v1">
            <gpxtpx:hr>129</gpxtpx:hr>
          </gpxtpx:TrackPointExtension>
        </extensions>
      </trkpt>
      <trkpt lat="43.13069" lon="1.31547">
        <ele>275.8</ele>
        <time>2023-03-05T15:19:41Z</time>
        <extensions>
          <gpxtpx:TrackPointExtension xmlns:gpxtpx="http://www.garmin.com/xmlschemas/TrackPointExtension/v1">
            <gpxtpx:hr>129</gpxtpx:hr>
          </gpxtpx:TrackPointExtension>
        </extensions>
      </trkpt>
      <trkpt lat="43.13069" lon="1.31545">
        <ele>276.2</ele>
        <time>2023-03-05T15:19:42Z</time>
        <extensions>
          <gpxtpx:TrackPointExtension xmlns:gpxtpx="http://www.garmin.com/xmlschemas/TrackPointExtension/v1">
            <gpxtpx:hr>129</gpxtpx:hr>
          </gpxtpx:TrackPointExtension>
        </extensions>
      </trkpt>
      <trkpt lat="43.13069" lon="1.31542">
        <ele>276.6</ele>
        <time>2023-03-05T15:19:43Z</time>
        <extensions>
          <gpxtpx:TrackPointExtension xmlns:gpxtpx="http://www.garmin.com/xmlschemas/TrackPointExtension/v1">
            <gpxtpx:hr>129</gpxtpx:hr>
          </gpxtpx:TrackPointExtension>
        </extensions>
      </trkpt>
      <trkpt lat="43.13069" lon="1.3154">
        <ele>277</ele>
        <time>2023-03-05T15:19:44Z</time>
        <extensions>
          <gpxtpx:TrackPointExtension xmlns:gpxtpx="http://www.garmin.com/xmlschemas/TrackPointExtension/v1">
            <gpxtpx:hr>130</gpxtpx:hr>
          </gpxtpx:TrackPointExtension>
        </extensions>
      </trkpt>
      <trkpt lat="43.13068" lon="1.31538">
        <ele>277.4</ele>
        <time>2023-03-05T15:19:45Z</time>
        <extensions>
          <gpxtpx:TrackPointExtension xmlns:gpxtpx="http://www.garmin.com/xmlschemas/TrackPointExtension/v1">
            <gpxtpx:hr>130</gpxtpx:hr>
          </gpxtpx:TrackPointExtension>
        </extensions>
      </trkpt>
      <trkpt lat="43.13067" lon="1.31534">
        <ele>277.4</ele>
        <time>2023-03-05T15:19:47Z</time>
        <extensions>
          <gpxtpx:TrackPointExtension xmlns:gpxtpx="http://www.garmin.com/xmlschemas/TrackPointExtension/v1">
            <gpxtpx:hr>130</gpxtpx:hr>
          </gpxtpx:TrackPointExtension>
        </extensions>
      </trkpt>
      <trkpt lat="43.13067" lon="1.31527">
        <ele>278</ele>
        <time>2023-03-05T15:19:50Z</time>
        <extensions>
          <gpxtpx:TrackPointExtension xmlns:gpxtpx="http://www.garmin.com/xmlschemas/TrackPointExtension/v1">
            <gpxtpx:hr>131</gpxtpx:hr>
          </gpxtpx:TrackPointExtension>
        </extensions>
      </trkpt>
      <trkpt lat="43.13067" lon="1.31526">
        <ele>278.4</ele>
        <time>2023-03-05T15:19:51Z</time>
        <extensions>
          <gpxtpx:TrackPointExtension xmlns:gpxtpx="http://www.garmin.com/xmlschemas/TrackPointExtension/v1">
            <gpxtpx:hr>132</gpxtpx:hr>
          </gpxtpx:TrackPointExtension>
        </extensions>
      </trkpt>
      <trkpt lat="43.13068" lon="1.31524">
        <ele>278.8</ele>
        <time>2023-03-05T15:19:52Z</time>
        <extensions>
          <gpxtpx:TrackPointExtension xmlns:gpxtpx="http://www.garmin.com/xmlschemas/TrackPointExtension/v1">
            <gpxtpx:hr>132</gpxtpx:hr>
          </gpxtpx:TrackPointExtension>
        </extensions>
      </trkpt>
      <trkpt lat="43.13067" lon="1.31522">
        <ele>279.4</ele>
        <time>2023-03-05T15:19:53Z</time>
        <extensions>
          <gpxtpx:TrackPointExtension xmlns:gpxtpx="http://www.garmin.com/xmlschemas/TrackPointExtension/v1">
            <gpxtpx:hr>132</gpxtpx:hr>
          </gpxtpx:TrackPointExtension>
        </extensions>
      </trkpt>
      <trkpt lat="43.13067" lon="1.31519">
        <ele>279.8</ele>
        <time>2023-03-05T15:19:54Z</time>
        <extensions>
          <gpxtpx:TrackPointExtension xmlns:gpxtpx="http://www.garmin.com/xmlschemas/TrackPointExtension/v1">
            <gpxtpx:hr>132</gpxtpx:hr>
          </gpxtpx:TrackPointExtension>
        </extensions>
      </trkpt>
      <trkpt lat="43.13066" lon="1.31512">
        <ele>280.2</ele>
        <time>2023-03-05T15:19:57Z</time>
        <extensions>
          <gpxtpx:TrackPointExtension xmlns:gpxtpx="http://www.garmin.com/xmlschemas/TrackPointExtension/v1">
            <gpxtpx:hr>134</gpxtpx:hr>
          </gpxtpx:TrackPointExtension>
        </extensions>
      </trkpt>
      <trkpt lat="43.13066" lon="1.3151">
        <ele>280.6</ele>
        <time>2023-03-05T15:19:58Z</time>
        <extensions>
          <gpxtpx:TrackPointExtension xmlns:gpxtpx="http://www.garmin.com/xmlschemas/TrackPointExtension/v1">
            <gpxtpx:hr>134</gpxtpx:hr>
          </gpxtpx:TrackPointExtension>
        </extensions>
      </trkpt>
      <trkpt lat="43.13066" lon="1.31509">
        <ele>281.2</ele>
        <time>2023-03-05T15:19:59Z</time>
        <extensions>
          <gpxtpx:TrackPointExtension xmlns:gpxtpx="http://www.garmin.com/xmlschemas/TrackPointExtension/v1">
            <gpxtpx:hr>135</gpxtpx:hr>
          </gpxtpx:TrackPointExtension>
        </extensions>
      </trkpt>
      <trkpt lat="43.13067" lon="1.31506">
        <ele>281.6</ele>
        <time>2023-03-05T15:20:00Z</time>
        <extensions>
          <gpxtpx:TrackPointExtension xmlns:gpxtpx="http://www.garmin.com/xmlschemas/TrackPointExtension/v1">
            <gpxtpx:hr>135</gpxtpx:hr>
          </gpxtpx:TrackPointExtension>
        </extensions>
      </trkpt>
      <trkpt lat="43.13067" lon="1.31504">
        <ele>282</ele>
        <time>2023-03-05T15:20:01Z</time>
        <extensions>
          <gpxtpx:TrackPointExtension xmlns:gpxtpx="http://www.garmin.com/xmlschemas/TrackPointExtension/v1">
            <gpxtpx:hr>135</gpxtpx:hr>
          </gpxtpx:TrackPointExtension>
        </extensions>
      </trkpt>
      <trkpt lat="43.13068" lon="1.31502">
        <ele>282.8</ele>
        <time>2023-03-05T15:20:02Z</time>
        <extensions>
          <gpxtpx:TrackPointExtension xmlns:gpxtpx="http://www.garmin.com/xmlschemas/TrackPointExtension/v1">
            <gpxtpx:hr>135</gpxtpx:hr>
          </gpxtpx:TrackPointExtension>
        </extensions>
      </trkpt>
      <trkpt lat="43.13068" lon="1.315">
        <ele>283.2</ele>
        <time>2023-03-05T15:20:03Z</time>
        <extensions>
          <gpxtpx:TrackPointExtension xmlns:gpxtpx="http://www.garmin.com/xmlschemas/TrackPointExtension/v1">
            <gpxtpx:hr>135</gpxtpx:hr>
          </gpxtpx:TrackPointExtension>
        </extensions>
      </trkpt>
      <trkpt lat="43.13069" lon="1.31497">
        <ele>283.8</ele>
        <time>2023-03-05T15:20:04Z</time>
        <extensions>
          <gpxtpx:TrackPointExtension xmlns:gpxtpx="http://www.garmin.com/xmlschemas/TrackPointExtension/v1">
            <gpxtpx:hr>135</gpxtpx:hr>
          </gpxtpx:TrackPointExtension>
        </extensions>
      </trkpt>
      <trkpt lat="43.1307" lon="1.31495">
        <ele>284.2</ele>
        <time>2023-03-05T15:20:05Z</time>
        <extensions>
          <gpxtpx:TrackPointExtension xmlns:gpxtpx="http://www.garmin.com/xmlschemas/TrackPointExtension/v1">
            <gpxtpx:hr>135</gpxtpx:hr>
          </gpxtpx:TrackPointExtension>
        </extensions>
      </trkpt>
      <trkpt lat="43.1307" lon="1.3149">
        <ele>284.6</ele>
        <time>2023-03-05T15:20:07Z</time>
        <extensions>
          <gpxtpx:TrackPointExtension xmlns:gpxtpx="http://www.garmin.com/xmlschemas/TrackPointExtension/v1">
            <gpxtpx:hr>135</gpxtpx:hr>
          </gpxtpx:TrackPointExtension>
        </extensions>
      </trkpt>
      <trkpt lat="43.13071" lon="1.31487">
        <ele>285</ele>
        <time>2023-03-05T15:20:08Z</time>
        <extensions>
          <gpxtpx:TrackPointExtension xmlns:gpxtpx="http://www.garmin.com/xmlschemas/TrackPointExtension/v1">
            <gpxtpx:hr>135</gpxtpx:hr>
          </gpxtpx:TrackPointExtension>
        </extensions>
      </trkpt>
      <trkpt lat="43.1307" lon="1.31484">
        <ele>285.4</ele>
        <time>2023-03-05T15:20:09Z</time>
        <extensions>
          <gpxtpx:TrackPointExtension xmlns:gpxtpx="http://www.garmin.com/xmlschemas/TrackPointExtension/v1">
            <gpxtpx:hr>136</gpxtpx:hr>
          </gpxtpx:TrackPointExtension>
        </extensions>
      </trkpt>
      <trkpt lat="43.1307" lon="1.31482">
        <ele>285.8</ele>
        <time>2023-03-05T15:20:10Z</time>
        <extensions>
          <gpxtpx:TrackPointExtension xmlns:gpxtpx="http://www.garmin.com/xmlschemas/TrackPointExtension/v1">
            <gpxtpx:hr>136</gpxtpx:hr>
          </gpxtpx:TrackPointExtension>
        </extensions>
      </trkpt>
      <trkpt lat="43.13069" lon="1.31479">
        <ele>286.2</ele>
        <time>2023-03-05T15:20:11Z</time>
        <extensions>
          <gpxtpx:TrackPointExtension xmlns:gpxtpx="http://www.garmin.com/xmlschemas/TrackPointExtension/v1">
            <gpxtpx:hr>136</gpxtpx:hr>
          </gpxtpx:TrackPointExtension>
        </extensions>
      </trkpt>
      <trkpt lat="43.13068" lon="1.31476">
        <ele>286.2</ele>
        <time>2023-03-05T15:20:13Z</time>
        <extensions>
          <gpxtpx:TrackPointExtension xmlns:gpxtpx="http://www.garmin.com/xmlschemas/TrackPointExtension/v1">
            <gpxtpx:hr>136</gpxtpx:hr>
          </gpxtpx:TrackPointExtension>
        </extensions>
      </trkpt>
      <trkpt lat="43.13067" lon="1.31472">
        <ele>286.8</ele>
        <time>2023-03-05T15:20:15Z</time>
        <extensions>
          <gpxtpx:TrackPointExtension xmlns:gpxtpx="http://www.garmin.com/xmlschemas/TrackPointExtension/v1">
            <gpxtpx:hr>136</gpxtpx:hr>
          </gpxtpx:TrackPointExtension>
        </extensions>
      </trkpt>
      <trkpt lat="43.13067" lon="1.3147">
        <ele>287.2</ele>
        <time>2023-03-05T15:20:16Z</time>
        <extensions>
          <gpxtpx:TrackPointExtension xmlns:gpxtpx="http://www.garmin.com/xmlschemas/TrackPointExtension/v1">
            <gpxtpx:hr>136</gpxtpx:hr>
          </gpxtpx:TrackPointExtension>
        </extensions>
      </trkpt>
      <trkpt lat="43.13066" lon="1.31468">
        <ele>287.6</ele>
        <time>2023-03-05T15:20:17Z</time>
        <extensions>
          <gpxtpx:TrackPointExtension xmlns:gpxtpx="http://www.garmin.com/xmlschemas/TrackPointExtension/v1">
            <gpxtpx:hr>136</gpxtpx:hr>
          </gpxtpx:TrackPointExtension>
        </extensions>
      </trkpt>
      <trkpt lat="43.13066" lon="1.31466">
        <ele>288</ele>
        <time>2023-03-05T15:20:18Z</time>
        <extensions>
          <gpxtpx:TrackPointExtension xmlns:gpxtpx="http://www.garmin.com/xmlschemas/TrackPointExtension/v1">
            <gpxtpx:hr>135</gpxtpx:hr>
          </gpxtpx:TrackPointExtension>
        </extensions>
      </trkpt>
      <trkpt lat="43.13065" lon="1.31463">
        <ele>288.4</ele>
        <time>2023-03-05T15:20:19Z</time>
        <extensions>
          <gpxtpx:TrackPointExtension xmlns:gpxtpx="http://www.garmin.com/xmlschemas/TrackPointExtension/v1">
            <gpxtpx:hr>136</gpxtpx:hr>
          </gpxtpx:TrackPointExtension>
        </extensions>
      </trkpt>
      <trkpt lat="43.13067" lon="1.31456">
        <ele>288.8</ele>
        <time>2023-03-05T15:20:22Z</time>
        <extensions>
          <gpxtpx:TrackPointExtension xmlns:gpxtpx="http://www.garmin.com/xmlschemas/TrackPointExtension/v1">
            <gpxtpx:hr>135</gpxtpx:hr>
          </gpxtpx:TrackPointExtension>
        </extensions>
      </trkpt>
      <trkpt lat="43.13068" lon="1.31453">
        <ele>289.2</ele>
        <time>2023-03-05T15:20:23Z</time>
        <extensions>
          <gpxtpx:TrackPointExtension xmlns:gpxtpx="http://www.garmin.com/xmlschemas/TrackPointExtension/v1">
            <gpxtpx:hr>135</gpxtpx:hr>
          </gpxtpx:TrackPointExtension>
        </extensions>
      </trkpt>
      <trkpt lat="43.13068" lon="1.31451">
        <ele>289.6</ele>
        <time>2023-03-05T15:20:24Z</time>
        <extensions>
          <gpxtpx:TrackPointExtension xmlns:gpxtpx="http://www.garmin.com/xmlschemas/TrackPointExtension/v1">
            <gpxtpx:hr>135</gpxtpx:hr>
          </gpxtpx:TrackPointExtension>
        </extensions>
      </trkpt>
      <trkpt lat="43.1307" lon="1.3145">
        <ele>290</ele>
        <time>2023-03-05T15:20:25Z</time>
        <extensions>
          <gpxtpx:TrackPointExtension xmlns:gpxtpx="http://www.garmin.com/xmlschemas/TrackPointExtension/v1">
            <gpxtpx:hr>135</gpxtpx:hr>
          </gpxtpx:TrackPointExtension>
        </extensions>
      </trkpt>
      <trkpt lat="43.13072" lon="1.31448">
        <ele>290.4</ele>
        <time>2023-03-05T15:20:26Z</time>
        <extensions>
          <gpxtpx:TrackPointExtension xmlns:gpxtpx="http://www.garmin.com/xmlschemas/TrackPointExtension/v1">
            <gpxtpx:hr>135</gpxtpx:hr>
          </gpxtpx:TrackPointExtension>
        </extensions>
      </trkpt>
      <trkpt lat="43.1308" lon="1.31445">
        <ele>290.4</ele>
        <time>2023-03-05T15:20:30Z</time>
        <extensions>
          <gpxtpx:TrackPointExtension xmlns:gpxtpx="http://www.garmin.com/xmlschemas/TrackPointExtension/v1">
            <gpxtpx:hr>135</gpxtpx:hr>
          </gpxtpx:TrackPointExtension>
        </extensions>
      </trkpt>
      <trkpt lat="43.13082" lon="1.31445">
        <ele>290.4</ele>
        <time>2023-03-05T15:20:31Z</time>
        <extensions>
          <gpxtpx:TrackPointExtension xmlns:gpxtpx="http://www.garmin.com/xmlschemas/TrackPointExtension/v1">
            <gpxtpx:hr>135</gpxtpx:hr>
          </gpxtpx:TrackPointExtension>
        </extensions>
      </trkpt>
      <trkpt lat="43.13086" lon="1.3144">
        <ele>290.4</ele>
        <time>2023-03-05T15:20:34Z</time>
        <extensions>
          <gpxtpx:TrackPointExtension xmlns:gpxtpx="http://www.garmin.com/xmlschemas/TrackPointExtension/v1">
            <gpxtpx:hr>134</gpxtpx:hr>
          </gpxtpx:TrackPointExtension>
        </extensions>
      </trkpt>
      <trkpt lat="43.13088" lon="1.31438">
        <ele>290.4</ele>
        <time>2023-03-05T15:20:35Z</time>
        <extensions>
          <gpxtpx:TrackPointExtension xmlns:gpxtpx="http://www.garmin.com/xmlschemas/TrackPointExtension/v1">
            <gpxtpx:hr>134</gpxtpx:hr>
          </gpxtpx:TrackPointExtension>
        </extensions>
      </trkpt>
      <trkpt lat="43.13093" lon="1.31434">
        <ele>290.4</ele>
        <time>2023-03-05T15:20:39Z</time>
        <extensions>
          <gpxtpx:TrackPointExtension xmlns:gpxtpx="http://www.garmin.com/xmlschemas/TrackPointExtension/v1">
            <gpxtpx:hr>134</gpxtpx:hr>
          </gpxtpx:TrackPointExtension>
        </extensions>
      </trkpt>
      <trkpt lat="43.13094" lon="1.31433">
        <ele>290.4</ele>
        <time>2023-03-05T15:20:55Z</time>
        <extensions>
          <gpxtpx:TrackPointExtension xmlns:gpxtpx="http://www.garmin.com/xmlschemas/TrackPointExtension/v1">
            <gpxtpx:hr>129</gpxtpx:hr>
          </gpxtpx:TrackPointExtension>
        </extensions>
      </trkpt>
      <trkpt lat="43.13097" lon="1.3143">
        <ele>290.4</ele>
        <time>2023-03-05T15:20:56Z</time>
        <extensions>
          <gpxtpx:TrackPointExtension xmlns:gpxtpx="http://www.garmin.com/xmlschemas/TrackPointExtension/v1">
            <gpxtpx:hr>129</gpxtpx:hr>
          </gpxtpx:TrackPointExtension>
        </extensions>
      </trkpt>
      <trkpt lat="43.13101" lon="1.31422">
        <ele>290</ele>
        <time>2023-03-05T15:20:58Z</time>
        <extensions>
          <gpxtpx:TrackPointExtension xmlns:gpxtpx="http://www.garmin.com/xmlschemas/TrackPointExtension/v1">
            <gpxtpx:hr>127</gpxtpx:hr>
          </gpxtpx:TrackPointExtension>
        </extensions>
      </trkpt>
      <trkpt lat="43.13102" lon="1.31418">
        <ele>289.6</ele>
        <time>2023-03-05T15:20:59Z</time>
        <extensions>
          <gpxtpx:TrackPointExtension xmlns:gpxtpx="http://www.garmin.com/xmlschemas/TrackPointExtension/v1">
            <gpxtpx:hr>126</gpxtpx:hr>
          </gpxtpx:TrackPointExtension>
        </extensions>
      </trkpt>
      <trkpt lat="43.13106" lon="1.31413">
        <ele>289.2</ele>
        <time>2023-03-05T15:21:00Z</time>
        <extensions>
          <gpxtpx:TrackPointExtension xmlns:gpxtpx="http://www.garmin.com/xmlschemas/TrackPointExtension/v1">
            <gpxtpx:hr>126</gpxtpx:hr>
          </gpxtpx:TrackPointExtension>
        </extensions>
      </trkpt>
      <trkpt lat="43.1311" lon="1.31411">
        <ele>288.8</ele>
        <time>2023-03-05T15:21:01Z</time>
        <extensions>
          <gpxtpx:TrackPointExtension xmlns:gpxtpx="http://www.garmin.com/xmlschemas/TrackPointExtension/v1">
            <gpxtpx:hr>126</gpxtpx:hr>
          </gpxtpx:TrackPointExtension>
        </extensions>
      </trkpt>
      <trkpt lat="43.13115" lon="1.31412">
        <ele>288.4</ele>
        <time>2023-03-05T15:21:02Z</time>
        <extensions>
          <gpxtpx:TrackPointExtension xmlns:gpxtpx="http://www.garmin.com/xmlschemas/TrackPointExtension/v1">
            <gpxtpx:hr>126</gpxtpx:hr>
          </gpxtpx:TrackPointExtension>
        </extensions>
      </trkpt>
      <trkpt lat="43.13119" lon="1.31414">
        <ele>287.8</ele>
        <time>2023-03-05T15:21:03Z</time>
        <extensions>
          <gpxtpx:TrackPointExtension xmlns:gpxtpx="http://www.garmin.com/xmlschemas/TrackPointExtension/v1">
            <gpxtpx:hr>125</gpxtpx:hr>
          </gpxtpx:TrackPointExtension>
        </extensions>
      </trkpt>
      <trkpt lat="43.13124" lon="1.31416">
        <ele>287.4</ele>
        <time>2023-03-05T15:21:04Z</time>
        <extensions>
          <gpxtpx:TrackPointExtension xmlns:gpxtpx="http://www.garmin.com/xmlschemas/TrackPointExtension/v1">
            <gpxtpx:hr>124</gpxtpx:hr>
          </gpxtpx:TrackPointExtension>
        </extensions>
      </trkpt>
      <trkpt lat="43.13129" lon="1.31416">
        <ele>286.8</ele>
        <time>2023-03-05T15:21:05Z</time>
        <extensions>
          <gpxtpx:TrackPointExtension xmlns:gpxtpx="http://www.garmin.com/xmlschemas/TrackPointExtension/v1">
            <gpxtpx:hr>123</gpxtpx:hr>
          </gpxtpx:TrackPointExtension>
        </extensions>
      </trkpt>
      <trkpt lat="43.13134" lon="1.31415">
        <ele>286.4</ele>
        <time>2023-03-05T15:21:06Z</time>
        <extensions>
          <gpxtpx:TrackPointExtension xmlns:gpxtpx="http://www.garmin.com/xmlschemas/TrackPointExtension/v1">
            <gpxtpx:hr>123</gpxtpx:hr>
          </gpxtpx:TrackPointExtension>
        </extensions>
      </trkpt>
      <trkpt lat="43.1314" lon="1.31413">
        <ele>286</ele>
        <time>2023-03-05T15:21:07Z</time>
        <extensions>
          <gpxtpx:TrackPointExtension xmlns:gpxtpx="http://www.garmin.com/xmlschemas/TrackPointExtension/v1">
            <gpxtpx:hr>123</gpxtpx:hr>
          </gpxtpx:TrackPointExtension>
        </extensions>
      </trkpt>
      <trkpt lat="43.13155" lon="1.31406">
        <ele>285.6</ele>
        <time>2023-03-05T15:21:10Z</time>
        <extensions>
          <gpxtpx:TrackPointExtension xmlns:gpxtpx="http://www.garmin.com/xmlschemas/TrackPointExtension/v1">
            <gpxtpx:hr>123</gpxtpx:hr>
          </gpxtpx:TrackPointExtension>
        </extensions>
      </trkpt>
      <trkpt lat="43.13159" lon="1.31404">
        <ele>285.2</ele>
        <time>2023-03-05T15:21:11Z</time>
        <extensions>
          <gpxtpx:TrackPointExtension xmlns:gpxtpx="http://www.garmin.com/xmlschemas/TrackPointExtension/v1">
            <gpxtpx:hr>122</gpxtpx:hr>
          </gpxtpx:TrackPointExtension>
        </extensions>
      </trkpt>
      <trkpt lat="43.13164" lon="1.314">
        <ele>284.8</ele>
        <time>2023-03-05T15:21:12Z</time>
        <extensions>
          <gpxtpx:TrackPointExtension xmlns:gpxtpx="http://www.garmin.com/xmlschemas/TrackPointExtension/v1">
            <gpxtpx:hr>121</gpxtpx:hr>
          </gpxtpx:TrackPointExtension>
        </extensions>
      </trkpt>
      <trkpt lat="43.13168" lon="1.31397">
        <ele>284.4</ele>
        <time>2023-03-05T15:21:13Z</time>
        <extensions>
          <gpxtpx:TrackPointExtension xmlns:gpxtpx="http://www.garmin.com/xmlschemas/TrackPointExtension/v1">
            <gpxtpx:hr>121</gpxtpx:hr>
          </gpxtpx:TrackPointExtension>
        </extensions>
      </trkpt>
      <trkpt lat="43.13173" lon="1.31394">
        <ele>284</ele>
        <time>2023-03-05T15:21:14Z</time>
        <extensions>
          <gpxtpx:TrackPointExtension xmlns:gpxtpx="http://www.garmin.com/xmlschemas/TrackPointExtension/v1">
            <gpxtpx:hr>121</gpxtpx:hr>
          </gpxtpx:TrackPointExtension>
        </extensions>
      </trkpt>
      <trkpt lat="43.13181" lon="1.31389">
        <ele>284</ele>
        <time>2023-03-05T15:21:16Z</time>
        <extensions>
          <gpxtpx:TrackPointExtension xmlns:gpxtpx="http://www.garmin.com/xmlschemas/TrackPointExtension/v1">
            <gpxtpx:hr>121</gpxtpx:hr>
          </gpxtpx:TrackPointExtension>
        </extensions>
      </trkpt>
      <trkpt lat="43.13189" lon="1.31383">
        <ele>283.4</ele>
        <time>2023-03-05T15:21:18Z</time>
        <extensions>
          <gpxtpx:TrackPointExtension xmlns:gpxtpx="http://www.garmin.com/xmlschemas/TrackPointExtension/v1">
            <gpxtpx:hr>121</gpxtpx:hr>
          </gpxtpx:TrackPointExtension>
        </extensions>
      </trkpt>
      <trkpt lat="43.13193" lon="1.3138">
        <ele>283</ele>
        <time>2023-03-05T15:21:19Z</time>
        <extensions>
          <gpxtpx:TrackPointExtension xmlns:gpxtpx="http://www.garmin.com/xmlschemas/TrackPointExtension/v1">
            <gpxtpx:hr>121</gpxtpx:hr>
          </gpxtpx:TrackPointExtension>
        </extensions>
      </trkpt>
      <trkpt lat="43.13196" lon="1.31378">
        <ele>282.6</ele>
        <time>2023-03-05T15:21:20Z</time>
        <extensions>
          <gpxtpx:TrackPointExtension xmlns:gpxtpx="http://www.garmin.com/xmlschemas/TrackPointExtension/v1">
            <gpxtpx:hr>121</gpxtpx:hr>
          </gpxtpx:TrackPointExtension>
        </extensions>
      </trkpt>
      <trkpt lat="43.132" lon="1.31377">
        <ele>282.2</ele>
        <time>2023-03-05T15:21:21Z</time>
        <extensions>
          <gpxtpx:TrackPointExtension xmlns:gpxtpx="http://www.garmin.com/xmlschemas/TrackPointExtension/v1">
            <gpxtpx:hr>121</gpxtpx:hr>
          </gpxtpx:TrackPointExtension>
        </extensions>
      </trkpt>
      <trkpt lat="43.13203" lon="1.31374">
        <ele>281.8</ele>
        <time>2023-03-05T15:21:22Z</time>
        <extensions>
          <gpxtpx:TrackPointExtension xmlns:gpxtpx="http://www.garmin.com/xmlschemas/TrackPointExtension/v1">
            <gpxtpx:hr>120</gpxtpx:hr>
          </gpxtpx:TrackPointExtension>
        </extensions>
      </trkpt>
      <trkpt lat="43.13216" lon="1.31365">
        <ele>281.8</ele>
        <time>2023-03-05T15:21:27Z</time>
        <extensions>
          <gpxtpx:TrackPointExtension xmlns:gpxtpx="http://www.garmin.com/xmlschemas/TrackPointExtension/v1">
            <gpxtpx:hr>120</gpxtpx:hr>
          </gpxtpx:TrackPointExtension>
        </extensions>
      </trkpt>
      <trkpt lat="43.13237" lon="1.31351">
        <ele>281.8</ele>
        <time>2023-03-05T15:21:32Z</time>
        <extensions>
          <gpxtpx:TrackPointExtension xmlns:gpxtpx="http://www.garmin.com/xmlschemas/TrackPointExtension/v1">
            <gpxtpx:hr>120</gpxtpx:hr>
          </gpxtpx:TrackPointExtension>
        </extensions>
      </trkpt>
      <trkpt lat="43.13268" lon="1.31331">
        <ele>281.8</ele>
        <time>2023-03-05T15:21:38Z</time>
        <extensions>
          <gpxtpx:TrackPointExtension xmlns:gpxtpx="http://www.garmin.com/xmlschemas/TrackPointExtension/v1">
            <gpxtpx:hr>119</gpxtpx:hr>
          </gpxtpx:TrackPointExtension>
        </extensions>
      </trkpt>
      <trkpt lat="43.13298" lon="1.31314">
        <ele>281.8</ele>
        <time>2023-03-05T15:21:44Z</time>
        <extensions>
          <gpxtpx:TrackPointExtension xmlns:gpxtpx="http://www.garmin.com/xmlschemas/TrackPointExtension/v1">
            <gpxtpx:hr>119</gpxtpx:hr>
          </gpxtpx:TrackPointExtension>
        </extensions>
      </trkpt>
      <trkpt lat="43.13303" lon="1.31314">
        <ele>281.8</ele>
        <time>2023-03-05T15:21:45Z</time>
        <extensions>
          <gpxtpx:TrackPointExtension xmlns:gpxtpx="http://www.garmin.com/xmlschemas/TrackPointExtension/v1">
            <gpxtpx:hr>119</gpxtpx:hr>
          </gpxtpx:TrackPointExtension>
        </extensions>
      </trkpt>
      <trkpt lat="43.13331" lon="1.31312">
        <ele>281.8</ele>
        <time>2023-03-05T15:21:51Z</time>
        <extensions>
          <gpxtpx:TrackPointExtension xmlns:gpxtpx="http://www.garmin.com/xmlschemas/TrackPointExtension/v1">
            <gpxtpx:hr>119</gpxtpx:hr>
          </gpxtpx:TrackPointExtension>
        </extensions>
      </trkpt>
      <trkpt lat="43.13369" lon="1.31316">
        <ele>281.2</ele>
        <time>2023-03-05T15:21:59Z</time>
        <extensions>
          <gpxtpx:TrackPointExtension xmlns:gpxtpx="http://www.garmin.com/xmlschemas/TrackPointExtension/v1">
            <gpxtpx:hr>118</gpxtpx:hr>
          </gpxtpx:TrackPointExtension>
        </extensions>
      </trkpt>
      <trkpt lat="43.13373" lon="1.31315">
        <ele>280.8</ele>
        <time>2023-03-05T15:22:00Z</time>
        <extensions>
          <gpxtpx:TrackPointExtension xmlns:gpxtpx="http://www.garmin.com/xmlschemas/TrackPointExtension/v1">
            <gpxtpx:hr>118</gpxtpx:hr>
          </gpxtpx:TrackPointExtension>
        </extensions>
      </trkpt>
      <trkpt lat="43.13377" lon="1.31316">
        <ele>280.4</ele>
        <time>2023-03-05T15:22:01Z</time>
        <extensions>
          <gpxtpx:TrackPointExtension xmlns:gpxtpx="http://www.garmin.com/xmlschemas/TrackPointExtension/v1">
            <gpxtpx:hr>118</gpxtpx:hr>
          </gpxtpx:TrackPointExtension>
        </extensions>
      </trkpt>
      <trkpt lat="43.13382" lon="1.31316">
        <ele>279.8</ele>
        <time>2023-03-05T15:22:02Z</time>
        <extensions>
          <gpxtpx:TrackPointExtension xmlns:gpxtpx="http://www.garmin.com/xmlschemas/TrackPointExtension/v1">
            <gpxtpx:hr>118</gpxtpx:hr>
          </gpxtpx:TrackPointExtension>
        </extensions>
      </trkpt>
      <trkpt lat="43.13387" lon="1.31315">
        <ele>279.4</ele>
        <time>2023-03-05T15:22:03Z</time>
        <extensions>
          <gpxtpx:TrackPointExtension xmlns:gpxtpx="http://www.garmin.com/xmlschemas/TrackPointExtension/v1">
            <gpxtpx:hr>118</gpxtpx:hr>
          </gpxtpx:TrackPointExtension>
        </extensions>
      </trkpt>
      <trkpt lat="43.13393" lon="1.31315">
        <ele>279.4</ele>
        <time>2023-03-05T15:22:04Z</time>
        <extensions>
          <gpxtpx:TrackPointExtension xmlns:gpxtpx="http://www.garmin.com/xmlschemas/TrackPointExtension/v1">
            <gpxtpx:hr>118</gpxtpx:hr>
          </gpxtpx:TrackPointExtension>
        </extensions>
      </trkpt>
      <trkpt lat="43.13419" lon="1.31311">
        <ele>279.4</ele>
        <time>2023-03-05T15:22:09Z</time>
        <extensions>
          <gpxtpx:TrackPointExtension xmlns:gpxtpx="http://www.garmin.com/xmlschemas/TrackPointExtension/v1">
            <gpxtpx:hr>115</gpxtpx:hr>
          </gpxtpx:TrackPointExtension>
        </extensions>
      </trkpt>
      <trkpt lat="43.13428" lon="1.31309">
        <ele>279</ele>
        <time>2023-03-05T15:22:11Z</time>
        <extensions>
          <gpxtpx:TrackPointExtension xmlns:gpxtpx="http://www.garmin.com/xmlschemas/TrackPointExtension/v1">
            <gpxtpx:hr>115</gpxtpx:hr>
          </gpxtpx:TrackPointExtension>
        </extensions>
      </trkpt>
      <trkpt lat="43.13433" lon="1.31308">
        <ele>278.6</ele>
        <time>2023-03-05T15:22:12Z</time>
        <extensions>
          <gpxtpx:TrackPointExtension xmlns:gpxtpx="http://www.garmin.com/xmlschemas/TrackPointExtension/v1">
            <gpxtpx:hr>114</gpxtpx:hr>
          </gpxtpx:TrackPointExtension>
        </extensions>
      </trkpt>
      <trkpt lat="43.13437" lon="1.31307">
        <ele>278</ele>
        <time>2023-03-05T15:22:13Z</time>
        <extensions>
          <gpxtpx:TrackPointExtension xmlns:gpxtpx="http://www.garmin.com/xmlschemas/TrackPointExtension/v1">
            <gpxtpx:hr>114</gpxtpx:hr>
          </gpxtpx:TrackPointExtension>
        </extensions>
      </trkpt>
      <trkpt lat="43.13442" lon="1.31307">
        <ele>277.6</ele>
        <time>2023-03-05T15:22:14Z</time>
        <extensions>
          <gpxtpx:TrackPointExtension xmlns:gpxtpx="http://www.garmin.com/xmlschemas/TrackPointExtension/v1">
            <gpxtpx:hr>114</gpxtpx:hr>
          </gpxtpx:TrackPointExtension>
        </extensions>
      </trkpt>
      <trkpt lat="43.13447" lon="1.31307">
        <ele>277.2</ele>
        <time>2023-03-05T15:22:15Z</time>
        <extensions>
          <gpxtpx:TrackPointExtension xmlns:gpxtpx="http://www.garmin.com/xmlschemas/TrackPointExtension/v1">
            <gpxtpx:hr>114</gpxtpx:hr>
          </gpxtpx:TrackPointExtension>
        </extensions>
      </trkpt>
      <trkpt lat="43.13463" lon="1.31305">
        <ele>277.2</ele>
        <time>2023-03-05T15:22:18Z</time>
        <extensions>
          <gpxtpx:TrackPointExtension xmlns:gpxtpx="http://www.garmin.com/xmlschemas/TrackPointExtension/v1">
            <gpxtpx:hr>115</gpxtpx:hr>
          </gpxtpx:TrackPointExtension>
        </extensions>
      </trkpt>
      <trkpt lat="43.13486" lon="1.31304">
        <ele>276.8</ele>
        <time>2023-03-05T15:22:22Z</time>
        <extensions>
          <gpxtpx:TrackPointExtension xmlns:gpxtpx="http://www.garmin.com/xmlschemas/TrackPointExtension/v1">
            <gpxtpx:hr>115</gpxtpx:hr>
          </gpxtpx:TrackPointExtension>
        </extensions>
      </trkpt>
      <trkpt lat="43.13492" lon="1.31303">
        <ele>276.2</ele>
        <time>2023-03-05T15:22:23Z</time>
        <extensions>
          <gpxtpx:TrackPointExtension xmlns:gpxtpx="http://www.garmin.com/xmlschemas/TrackPointExtension/v1">
            <gpxtpx:hr>115</gpxtpx:hr>
          </gpxtpx:TrackPointExtension>
        </extensions>
      </trkpt>
      <trkpt lat="43.13498" lon="1.31303">
        <ele>275.8</ele>
        <time>2023-03-05T15:22:24Z</time>
        <extensions>
          <gpxtpx:TrackPointExtension xmlns:gpxtpx="http://www.garmin.com/xmlschemas/TrackPointExtension/v1">
            <gpxtpx:hr>115</gpxtpx:hr>
          </gpxtpx:TrackPointExtension>
        </extensions>
      </trkpt>
      <trkpt lat="43.13504" lon="1.31303">
        <ele>275.4</ele>
        <time>2023-03-05T15:22:25Z</time>
        <extensions>
          <gpxtpx:TrackPointExtension xmlns:gpxtpx="http://www.garmin.com/xmlschemas/TrackPointExtension/v1">
            <gpxtpx:hr>115</gpxtpx:hr>
          </gpxtpx:TrackPointExtension>
        </extensions>
      </trkpt>
      <trkpt lat="43.1351" lon="1.31303">
        <ele>275</ele>
        <time>2023-03-05T15:22:26Z</time>
        <extensions>
          <gpxtpx:TrackPointExtension xmlns:gpxtpx="http://www.garmin.com/xmlschemas/TrackPointExtension/v1">
            <gpxtpx:hr>115</gpxtpx:hr>
          </gpxtpx:TrackPointExtension>
        </extensions>
      </trkpt>
      <trkpt lat="43.13516" lon="1.31302">
        <ele>275</ele>
        <time>2023-03-05T15:22:27Z</time>
        <extensions>
          <gpxtpx:TrackPointExtension xmlns:gpxtpx="http://www.garmin.com/xmlschemas/TrackPointExtension/v1">
            <gpxtpx:hr>115</gpxtpx:hr>
          </gpxtpx:TrackPointExtension>
        </extensions>
      </trkpt>
      <trkpt lat="43.13537" lon="1.31303">
        <ele>275</ele>
        <time>2023-03-05T15:22:31Z</time>
        <extensions>
          <gpxtpx:TrackPointExtension xmlns:gpxtpx="http://www.garmin.com/xmlschemas/TrackPointExtension/v1">
            <gpxtpx:hr>114</gpxtpx:hr>
          </gpxtpx:TrackPointExtension>
        </extensions>
      </trkpt>
      <trkpt lat="43.13548" lon="1.31303">
        <ele>275</ele>
        <time>2023-03-05T15:22:33Z</time>
        <extensions>
          <gpxtpx:TrackPointExtension xmlns:gpxtpx="http://www.garmin.com/xmlschemas/TrackPointExtension/v1">
            <gpxtpx:hr>113</gpxtpx:hr>
          </gpxtpx:TrackPointExtension>
        </extensions>
      </trkpt>
      <trkpt lat="43.13559" lon="1.31303">
        <ele>274.4</ele>
        <time>2023-03-05T15:22:35Z</time>
        <extensions>
          <gpxtpx:TrackPointExtension xmlns:gpxtpx="http://www.garmin.com/xmlschemas/TrackPointExtension/v1">
            <gpxtpx:hr>112</gpxtpx:hr>
          </gpxtpx:TrackPointExtension>
        </extensions>
      </trkpt>
      <trkpt lat="43.13564" lon="1.31303">
        <ele>274</ele>
        <time>2023-03-05T15:22:36Z</time>
        <extensions>
          <gpxtpx:TrackPointExtension xmlns:gpxtpx="http://www.garmin.com/xmlschemas/TrackPointExtension/v1">
            <gpxtpx:hr>112</gpxtpx:hr>
          </gpxtpx:TrackPointExtension>
        </extensions>
      </trkpt>
      <trkpt lat="43.13569" lon="1.31304">
        <ele>273.6</ele>
        <time>2023-03-05T15:22:37Z</time>
        <extensions>
          <gpxtpx:TrackPointExtension xmlns:gpxtpx="http://www.garmin.com/xmlschemas/TrackPointExtension/v1">
            <gpxtpx:hr>112</gpxtpx:hr>
          </gpxtpx:TrackPointExtension>
        </extensions>
      </trkpt>
      <trkpt lat="43.13574" lon="1.31304">
        <ele>273.2</ele>
        <time>2023-03-05T15:22:38Z</time>
        <extensions>
          <gpxtpx:TrackPointExtension xmlns:gpxtpx="http://www.garmin.com/xmlschemas/TrackPointExtension/v1">
            <gpxtpx:hr>112</gpxtpx:hr>
          </gpxtpx:TrackPointExtension>
        </extensions>
      </trkpt>
      <trkpt lat="43.13579" lon="1.31304">
        <ele>272.8</ele>
        <time>2023-03-05T15:22:39Z</time>
        <extensions>
          <gpxtpx:TrackPointExtension xmlns:gpxtpx="http://www.garmin.com/xmlschemas/TrackPointExtension/v1">
            <gpxtpx:hr>110</gpxtpx:hr>
          </gpxtpx:TrackPointExtension>
        </extensions>
      </trkpt>
      <trkpt lat="43.13584" lon="1.31304">
        <ele>272.8</ele>
        <time>2023-03-05T15:22:40Z</time>
        <extensions>
          <gpxtpx:TrackPointExtension xmlns:gpxtpx="http://www.garmin.com/xmlschemas/TrackPointExtension/v1">
            <gpxtpx:hr>109</gpxtpx:hr>
          </gpxtpx:TrackPointExtension>
        </extensions>
      </trkpt>
      <trkpt lat="43.13588" lon="1.31302">
        <ele>272.8</ele>
        <time>2023-03-05T15:22:41Z</time>
        <extensions>
          <gpxtpx:TrackPointExtension xmlns:gpxtpx="http://www.garmin.com/xmlschemas/TrackPointExtension/v1">
            <gpxtpx:hr>108</gpxtpx:hr>
          </gpxtpx:TrackPointExtension>
        </extensions>
      </trkpt>
      <trkpt lat="43.13601" lon="1.31295">
        <ele>272.8</ele>
        <time>2023-03-05T15:22:44Z</time>
        <extensions>
          <gpxtpx:TrackPointExtension xmlns:gpxtpx="http://www.garmin.com/xmlschemas/TrackPointExtension/v1">
            <gpxtpx:hr>107</gpxtpx:hr>
          </gpxtpx:TrackPointExtension>
        </extensions>
      </trkpt>
      <trkpt lat="43.13604" lon="1.31292">
        <ele>272.8</ele>
        <time>2023-03-05T15:22:45Z</time>
        <extensions>
          <gpxtpx:TrackPointExtension xmlns:gpxtpx="http://www.garmin.com/xmlschemas/TrackPointExtension/v1">
            <gpxtpx:hr>107</gpxtpx:hr>
          </gpxtpx:TrackPointExtension>
        </extensions>
      </trkpt>
      <trkpt lat="43.13608" lon="1.3129">
        <ele>272.8</ele>
        <time>2023-03-05T15:22:46Z</time>
        <extensions>
          <gpxtpx:TrackPointExtension xmlns:gpxtpx="http://www.garmin.com/xmlschemas/TrackPointExtension/v1">
            <gpxtpx:hr>107</gpxtpx:hr>
          </gpxtpx:TrackPointExtension>
        </extensions>
      </trkpt>
      <trkpt lat="43.1362" lon="1.31287">
        <ele>272.8</ele>
        <time>2023-03-05T15:22:49Z</time>
        <extensions>
          <gpxtpx:TrackPointExtension xmlns:gpxtpx="http://www.garmin.com/xmlschemas/TrackPointExtension/v1">
            <gpxtpx:hr>107</gpxtpx:hr>
          </gpxtpx:TrackPointExtension>
        </extensions>
      </trkpt>
      <trkpt lat="43.13623" lon="1.31287">
        <ele>272.8</ele>
        <time>2023-03-05T15:22:50Z</time>
        <extensions>
          <gpxtpx:TrackPointExtension xmlns:gpxtpx="http://www.garmin.com/xmlschemas/TrackPointExtension/v1">
            <gpxtpx:hr>107</gpxtpx:hr>
          </gpxtpx:TrackPointExtension>
        </extensions>
      </trkpt>
      <trkpt lat="43.13633" lon="1.31291">
        <ele>272.8</ele>
        <time>2023-03-05T15:22:53Z</time>
        <extensions>
          <gpxtpx:TrackPointExtension xmlns:gpxtpx="http://www.garmin.com/xmlschemas/TrackPointExtension/v1">
            <gpxtpx:hr>107</gpxtpx:hr>
          </gpxtpx:TrackPointExtension>
        </extensions>
      </trkpt>
      <trkpt lat="43.13634" lon="1.31291">
        <ele>272.4</ele>
        <time>2023-03-05T15:22:54Z</time>
        <extensions>
          <gpxtpx:TrackPointExtension xmlns:gpxtpx="http://www.garmin.com/xmlschemas/TrackPointExtension/v1">
            <gpxtpx:hr>107</gpxtpx:hr>
          </gpxtpx:TrackPointExtension>
        </extensions>
      </trkpt>
      <trkpt lat="43.13635" lon="1.31292">
        <ele>271.6</ele>
        <time>2023-03-05T15:22:55Z</time>
        <extensions>
          <gpxtpx:TrackPointExtension xmlns:gpxtpx="http://www.garmin.com/xmlschemas/TrackPointExtension/v1">
            <gpxtpx:hr>107</gpxtpx:hr>
          </gpxtpx:TrackPointExtension>
        </extensions>
      </trkpt>
      <trkpt lat="43.13635" lon="1.31292">
        <ele>271.2</ele>
        <time>2023-03-05T15:22:56Z</time>
        <extensions>
          <gpxtpx:TrackPointExtension xmlns:gpxtpx="http://www.garmin.com/xmlschemas/TrackPointExtension/v1">
            <gpxtpx:hr>107</gpxtpx:hr>
          </gpxtpx:TrackPointExtension>
        </extensions>
      </trkpt>
      <trkpt lat="43.13635" lon="1.31292">
        <ele>270.8</ele>
        <time>2023-03-05T15:22:57Z</time>
        <extensions>
          <gpxtpx:TrackPointExtension xmlns:gpxtpx="http://www.garmin.com/xmlschemas/TrackPointExtension/v1">
            <gpxtpx:hr>107</gpxtpx:hr>
          </gpxtpx:TrackPointExtension>
        </extensions>
      </trkpt>
      <trkpt lat="43.13637" lon="1.31294">
        <ele>270.8</ele>
        <time>2023-03-05T15:27:42Z</time>
        <extensions>
          <gpxtpx:TrackPointExtension xmlns:gpxtpx="http://www.garmin.com/xmlschemas/TrackPointExtension/v1">
            <gpxtpx:hr>101</gpxtpx:hr>
          </gpxtpx:TrackPointExtension>
        </extensions>
      </trkpt>
      <trkpt lat="43.1364" lon="1.31296">
        <ele>270.8</ele>
        <time>2023-03-05T15:27:43Z</time>
        <extensions>
          <gpxtpx:TrackPointExtension xmlns:gpxtpx="http://www.garmin.com/xmlschemas/TrackPointExtension/v1">
            <gpxtpx:hr>101</gpxtpx:hr>
          </gpxtpx:TrackPointExtension>
        </extensions>
      </trkpt>
      <trkpt lat="43.13655" lon="1.31301">
        <ele>270.8</ele>
        <time>2023-03-05T15:27:47Z</time>
        <extensions>
          <gpxtpx:TrackPointExtension xmlns:gpxtpx="http://www.garmin.com/xmlschemas/TrackPointExtension/v1">
            <gpxtpx:hr>103</gpxtpx:hr>
          </gpxtpx:TrackPointExtension>
        </extensions>
      </trkpt>
      <trkpt lat="43.13666" lon="1.31301">
        <ele>270.4</ele>
        <time>2023-03-05T15:27:49Z</time>
        <extensions>
          <gpxtpx:TrackPointExtension xmlns:gpxtpx="http://www.garmin.com/xmlschemas/TrackPointExtension/v1">
            <gpxtpx:hr>103</gpxtpx:hr>
          </gpxtpx:TrackPointExtension>
        </extensions>
      </trkpt>
      <trkpt lat="43.13671" lon="1.313">
        <ele>269.8</ele>
        <time>2023-03-05T15:27:50Z</time>
        <extensions>
          <gpxtpx:TrackPointExtension xmlns:gpxtpx="http://www.garmin.com/xmlschemas/TrackPointExtension/v1">
            <gpxtpx:hr>103</gpxtpx:hr>
          </gpxtpx:TrackPointExtension>
        </extensions>
      </trkpt>
      <trkpt lat="43.13677" lon="1.31298">
        <ele>269.4</ele>
        <time>2023-03-05T15:27:51Z</time>
        <extensions>
          <gpxtpx:TrackPointExtension xmlns:gpxtpx="http://www.garmin.com/xmlschemas/TrackPointExtension/v1">
            <gpxtpx:hr>102</gpxtpx:hr>
          </gpxtpx:TrackPointExtension>
        </extensions>
      </trkpt>
      <trkpt lat="43.13684" lon="1.31297">
        <ele>268.6</ele>
        <time>2023-03-05T15:27:52Z</time>
        <extensions>
          <gpxtpx:TrackPointExtension xmlns:gpxtpx="http://www.garmin.com/xmlschemas/TrackPointExtension/v1">
            <gpxtpx:hr>102</gpxtpx:hr>
          </gpxtpx:TrackPointExtension>
        </extensions>
      </trkpt>
      <trkpt lat="43.13698" lon="1.31295">
        <ele>268.2</ele>
        <time>2023-03-05T15:27:54Z</time>
        <extensions>
          <gpxtpx:TrackPointExtension xmlns:gpxtpx="http://www.garmin.com/xmlschemas/TrackPointExtension/v1">
            <gpxtpx:hr>102</gpxtpx:hr>
          </gpxtpx:TrackPointExtension>
        </extensions>
      </trkpt>
      <trkpt lat="43.13705" lon="1.31294">
        <ele>267.8</ele>
        <time>2023-03-05T15:27:55Z</time>
        <extensions>
          <gpxtpx:TrackPointExtension xmlns:gpxtpx="http://www.garmin.com/xmlschemas/TrackPointExtension/v1">
            <gpxtpx:hr>102</gpxtpx:hr>
          </gpxtpx:TrackPointExtension>
        </extensions>
      </trkpt>
      <trkpt lat="43.13713" lon="1.31293">
        <ele>267.4</ele>
        <time>2023-03-05T15:27:56Z</time>
        <extensions>
          <gpxtpx:TrackPointExtension xmlns:gpxtpx="http://www.garmin.com/xmlschemas/TrackPointExtension/v1">
            <gpxtpx:hr>102</gpxtpx:hr>
          </gpxtpx:TrackPointExtension>
        </extensions>
      </trkpt>
      <trkpt lat="43.1372" lon="1.31293">
        <ele>267</ele>
        <time>2023-03-05T15:27:57Z</time>
        <extensions>
          <gpxtpx:TrackPointExtension xmlns:gpxtpx="http://www.garmin.com/xmlschemas/TrackPointExtension/v1">
            <gpxtpx:hr>102</gpxtpx:hr>
          </gpxtpx:TrackPointExtension>
        </extensions>
      </trkpt>
      <trkpt lat="43.13728" lon="1.31294">
        <ele>266.6</ele>
        <time>2023-03-05T15:27:58Z</time>
        <extensions>
          <gpxtpx:TrackPointExtension xmlns:gpxtpx="http://www.garmin.com/xmlschemas/TrackPointExtension/v1">
            <gpxtpx:hr>102</gpxtpx:hr>
          </gpxtpx:TrackPointExtension>
        </extensions>
      </trkpt>
      <trkpt lat="43.13736" lon="1.31294">
        <ele>266</ele>
        <time>2023-03-05T15:27:59Z</time>
        <extensions>
          <gpxtpx:TrackPointExtension xmlns:gpxtpx="http://www.garmin.com/xmlschemas/TrackPointExtension/v1">
            <gpxtpx:hr>102</gpxtpx:hr>
          </gpxtpx:TrackPointExtension>
        </extensions>
      </trkpt>
      <trkpt lat="43.13744" lon="1.31295">
        <ele>265.6</ele>
        <time>2023-03-05T15:28:00Z</time>
        <extensions>
          <gpxtpx:TrackPointExtension xmlns:gpxtpx="http://www.garmin.com/xmlschemas/TrackPointExtension/v1">
            <gpxtpx:hr>102</gpxtpx:hr>
          </gpxtpx:TrackPointExtension>
        </extensions>
      </trkpt>
      <trkpt lat="43.13752" lon="1.31296">
        <ele>265.2</ele>
        <time>2023-03-05T15:28:01Z</time>
        <extensions>
          <gpxtpx:TrackPointExtension xmlns:gpxtpx="http://www.garmin.com/xmlschemas/TrackPointExtension/v1">
            <gpxtpx:hr>102</gpxtpx:hr>
          </gpxtpx:TrackPointExtension>
        </extensions>
      </trkpt>
      <trkpt lat="43.13762" lon="1.31295">
        <ele>264.6</ele>
        <time>2023-03-05T15:28:02Z</time>
        <extensions>
          <gpxtpx:TrackPointExtension xmlns:gpxtpx="http://www.garmin.com/xmlschemas/TrackPointExtension/v1">
            <gpxtpx:hr>102</gpxtpx:hr>
          </gpxtpx:TrackPointExtension>
        </extensions>
      </trkpt>
      <trkpt lat="43.13771" lon="1.31294">
        <ele>264.2</ele>
        <time>2023-03-05T15:28:03Z</time>
        <extensions>
          <gpxtpx:TrackPointExtension xmlns:gpxtpx="http://www.garmin.com/xmlschemas/TrackPointExtension/v1">
            <gpxtpx:hr>102</gpxtpx:hr>
          </gpxtpx:TrackPointExtension>
        </extensions>
      </trkpt>
      <trkpt lat="43.13779" lon="1.31292">
        <ele>264.2</ele>
        <time>2023-03-05T15:28:04Z</time>
        <extensions>
          <gpxtpx:TrackPointExtension xmlns:gpxtpx="http://www.garmin.com/xmlschemas/TrackPointExtension/v1">
            <gpxtpx:hr>101</gpxtpx:hr>
          </gpxtpx:TrackPointExtension>
        </extensions>
      </trkpt>
      <trkpt lat="43.13788" lon="1.31289">
        <ele>263.8</ele>
        <time>2023-03-05T15:28:05Z</time>
        <extensions>
          <gpxtpx:TrackPointExtension xmlns:gpxtpx="http://www.garmin.com/xmlschemas/TrackPointExtension/v1">
            <gpxtpx:hr>101</gpxtpx:hr>
          </gpxtpx:TrackPointExtension>
        </extensions>
      </trkpt>
      <trkpt lat="43.13796" lon="1.31284">
        <ele>263.4</ele>
        <time>2023-03-05T15:28:06Z</time>
        <extensions>
          <gpxtpx:TrackPointExtension xmlns:gpxtpx="http://www.garmin.com/xmlschemas/TrackPointExtension/v1">
            <gpxtpx:hr>101</gpxtpx:hr>
          </gpxtpx:TrackPointExtension>
        </extensions>
      </trkpt>
      <trkpt lat="43.13803" lon="1.31279">
        <ele>263</ele>
        <time>2023-03-05T15:28:07Z</time>
        <extensions>
          <gpxtpx:TrackPointExtension xmlns:gpxtpx="http://www.garmin.com/xmlschemas/TrackPointExtension/v1">
            <gpxtpx:hr>101</gpxtpx:hr>
          </gpxtpx:TrackPointExtension>
        </extensions>
      </trkpt>
      <trkpt lat="43.1381" lon="1.31273">
        <ele>262.6</ele>
        <time>2023-03-05T15:28:08Z</time>
        <extensions>
          <gpxtpx:TrackPointExtension xmlns:gpxtpx="http://www.garmin.com/xmlschemas/TrackPointExtension/v1">
            <gpxtpx:hr>101</gpxtpx:hr>
          </gpxtpx:TrackPointExtension>
        </extensions>
      </trkpt>
      <trkpt lat="43.13817" lon="1.31268">
        <ele>262.2</ele>
        <time>2023-03-05T15:28:09Z</time>
        <extensions>
          <gpxtpx:TrackPointExtension xmlns:gpxtpx="http://www.garmin.com/xmlschemas/TrackPointExtension/v1">
            <gpxtpx:hr>101</gpxtpx:hr>
          </gpxtpx:TrackPointExtension>
        </extensions>
      </trkpt>
      <trkpt lat="43.13823" lon="1.31262">
        <ele>262.2</ele>
        <time>2023-03-05T15:28:10Z</time>
        <extensions>
          <gpxtpx:TrackPointExtension xmlns:gpxtpx="http://www.garmin.com/xmlschemas/TrackPointExtension/v1">
            <gpxtpx:hr>100</gpxtpx:hr>
          </gpxtpx:TrackPointExtension>
        </extensions>
      </trkpt>
      <trkpt lat="43.13829" lon="1.31256">
        <ele>262.2</ele>
        <time>2023-03-05T15:28:11Z</time>
        <extensions>
          <gpxtpx:TrackPointExtension xmlns:gpxtpx="http://www.garmin.com/xmlschemas/TrackPointExtension/v1">
            <gpxtpx:hr>99</gpxtpx:hr>
          </gpxtpx:TrackPointExtension>
        </extensions>
      </trkpt>
      <trkpt lat="43.1386" lon="1.31233">
        <ele>261.8</ele>
        <time>2023-03-05T15:28:16Z</time>
        <extensions>
          <gpxtpx:TrackPointExtension xmlns:gpxtpx="http://www.garmin.com/xmlschemas/TrackPointExtension/v1">
            <gpxtpx:hr>99</gpxtpx:hr>
          </gpxtpx:TrackPointExtension>
        </extensions>
      </trkpt>
      <trkpt lat="43.13866" lon="1.31229">
        <ele>261.4</ele>
        <time>2023-03-05T15:28:17Z</time>
        <extensions>
          <gpxtpx:TrackPointExtension xmlns:gpxtpx="http://www.garmin.com/xmlschemas/TrackPointExtension/v1">
            <gpxtpx:hr>99</gpxtpx:hr>
          </gpxtpx:TrackPointExtension>
        </extensions>
      </trkpt>
      <trkpt lat="43.13872" lon="1.31225">
        <ele>260.8</ele>
        <time>2023-03-05T15:28:18Z</time>
        <extensions>
          <gpxtpx:TrackPointExtension xmlns:gpxtpx="http://www.garmin.com/xmlschemas/TrackPointExtension/v1">
            <gpxtpx:hr>99</gpxtpx:hr>
          </gpxtpx:TrackPointExtension>
        </extensions>
      </trkpt>
      <trkpt lat="43.13878" lon="1.31223">
        <ele>260.4</ele>
        <time>2023-03-05T15:28:19Z</time>
        <extensions>
          <gpxtpx:TrackPointExtension xmlns:gpxtpx="http://www.garmin.com/xmlschemas/TrackPointExtension/v1">
            <gpxtpx:hr>99</gpxtpx:hr>
          </gpxtpx:TrackPointExtension>
        </extensions>
      </trkpt>
      <trkpt lat="43.13884" lon="1.31221">
        <ele>260</ele>
        <time>2023-03-05T15:28:20Z</time>
        <extensions>
          <gpxtpx:TrackPointExtension xmlns:gpxtpx="http://www.garmin.com/xmlschemas/TrackPointExtension/v1">
            <gpxtpx:hr>99</gpxtpx:hr>
          </gpxtpx:TrackPointExtension>
        </extensions>
      </trkpt>
      <trkpt lat="43.1389" lon="1.3122">
        <ele>260</ele>
        <time>2023-03-05T15:28:21Z</time>
        <extensions>
          <gpxtpx:TrackPointExtension xmlns:gpxtpx="http://www.garmin.com/xmlschemas/TrackPointExtension/v1">
            <gpxtpx:hr>99</gpxtpx:hr>
          </gpxtpx:TrackPointExtension>
        </extensions>
      </trkpt>
      <trkpt lat="43.13922" lon="1.31212">
        <ele>260</ele>
        <time>2023-03-05T15:28:26Z</time>
        <extensions>
          <gpxtpx:TrackPointExtension xmlns:gpxtpx="http://www.garmin.com/xmlschemas/TrackPointExtension/v1">
            <gpxtpx:hr>98</gpxtpx:hr>
          </gpxtpx:TrackPointExtension>
        </extensions>
      </trkpt>
      <trkpt lat="43.13929" lon="1.3121">
        <ele>259.6</ele>
        <time>2023-03-05T15:28:27Z</time>
        <extensions>
          <gpxtpx:TrackPointExtension xmlns:gpxtpx="http://www.garmin.com/xmlschemas/TrackPointExtension/v1">
            <gpxtpx:hr>98</gpxtpx:hr>
          </gpxtpx:TrackPointExtension>
        </extensions>
      </trkpt>
      <trkpt lat="43.13935" lon="1.31209">
        <ele>259.2</ele>
        <time>2023-03-05T15:28:28Z</time>
        <extensions>
          <gpxtpx:TrackPointExtension xmlns:gpxtpx="http://www.garmin.com/xmlschemas/TrackPointExtension/v1">
            <gpxtpx:hr>97</gpxtpx:hr>
          </gpxtpx:TrackPointExtension>
        </extensions>
      </trkpt>
      <trkpt lat="43.13942" lon="1.31208">
        <ele>258.8</ele>
        <time>2023-03-05T15:28:29Z</time>
        <extensions>
          <gpxtpx:TrackPointExtension xmlns:gpxtpx="http://www.garmin.com/xmlschemas/TrackPointExtension/v1">
            <gpxtpx:hr>97</gpxtpx:hr>
          </gpxtpx:TrackPointExtension>
        </extensions>
      </trkpt>
      <trkpt lat="43.13949" lon="1.31207">
        <ele>258.4</ele>
        <time>2023-03-05T15:28:30Z</time>
        <extensions>
          <gpxtpx:TrackPointExtension xmlns:gpxtpx="http://www.garmin.com/xmlschemas/TrackPointExtension/v1">
            <gpxtpx:hr>97</gpxtpx:hr>
          </gpxtpx:TrackPointExtension>
        </extensions>
      </trkpt>
      <trkpt lat="43.13956" lon="1.31206">
        <ele>258</ele>
        <time>2023-03-05T15:28:31Z</time>
        <extensions>
          <gpxtpx:TrackPointExtension xmlns:gpxtpx="http://www.garmin.com/xmlschemas/TrackPointExtension/v1">
            <gpxtpx:hr>97</gpxtpx:hr>
          </gpxtpx:TrackPointExtension>
        </extensions>
      </trkpt>
      <trkpt lat="43.13963" lon="1.31206">
        <ele>258</ele>
        <time>2023-03-05T15:28:32Z</time>
        <extensions>
          <gpxtpx:TrackPointExtension xmlns:gpxtpx="http://www.garmin.com/xmlschemas/TrackPointExtension/v1">
            <gpxtpx:hr>97</gpxtpx:hr>
          </gpxtpx:TrackPointExtension>
        </extensions>
      </trkpt>
      <trkpt lat="43.13977" lon="1.31204">
        <ele>257.6</ele>
        <time>2023-03-05T15:28:34Z</time>
        <extensions>
          <gpxtpx:TrackPointExtension xmlns:gpxtpx="http://www.garmin.com/xmlschemas/TrackPointExtension/v1">
            <gpxtpx:hr>97</gpxtpx:hr>
          </gpxtpx:TrackPointExtension>
        </extensions>
      </trkpt>
      <trkpt lat="43.13983" lon="1.31204">
        <ele>257.2</ele>
        <time>2023-03-05T15:28:35Z</time>
        <extensions>
          <gpxtpx:TrackPointExtension xmlns:gpxtpx="http://www.garmin.com/xmlschemas/TrackPointExtension/v1">
            <gpxtpx:hr>97</gpxtpx:hr>
          </gpxtpx:TrackPointExtension>
        </extensions>
      </trkpt>
      <trkpt lat="43.13989" lon="1.31204">
        <ele>256.8</ele>
        <time>2023-03-05T15:28:36Z</time>
        <extensions>
          <gpxtpx:TrackPointExtension xmlns:gpxtpx="http://www.garmin.com/xmlschemas/TrackPointExtension/v1">
            <gpxtpx:hr>97</gpxtpx:hr>
          </gpxtpx:TrackPointExtension>
        </extensions>
      </trkpt>
      <trkpt lat="43.13994" lon="1.31203">
        <ele>256.4</ele>
        <time>2023-03-05T15:28:37Z</time>
        <extensions>
          <gpxtpx:TrackPointExtension xmlns:gpxtpx="http://www.garmin.com/xmlschemas/TrackPointExtension/v1">
            <gpxtpx:hr>97</gpxtpx:hr>
          </gpxtpx:TrackPointExtension>
        </extensions>
      </trkpt>
      <trkpt lat="43.14" lon="1.31203">
        <ele>256</ele>
        <time>2023-03-05T15:28:38Z</time>
        <extensions>
          <gpxtpx:TrackPointExtension xmlns:gpxtpx="http://www.garmin.com/xmlschemas/TrackPointExtension/v1">
            <gpxtpx:hr>97</gpxtpx:hr>
          </gpxtpx:TrackPointExtension>
        </extensions>
      </trkpt>
      <trkpt lat="43.14016" lon="1.31203">
        <ele>256</ele>
        <time>2023-03-05T15:28:41Z</time>
        <extensions>
          <gpxtpx:TrackPointExtension xmlns:gpxtpx="http://www.garmin.com/xmlschemas/TrackPointExtension/v1">
            <gpxtpx:hr>97</gpxtpx:hr>
          </gpxtpx:TrackPointExtension>
        </extensions>
      </trkpt>
      <trkpt lat="43.14026" lon="1.31204">
        <ele>256</ele>
        <time>2023-03-05T15:28:43Z</time>
        <extensions>
          <gpxtpx:TrackPointExtension xmlns:gpxtpx="http://www.garmin.com/xmlschemas/TrackPointExtension/v1">
            <gpxtpx:hr>97</gpxtpx:hr>
          </gpxtpx:TrackPointExtension>
        </extensions>
      </trkpt>
      <trkpt lat="43.14031" lon="1.31205">
        <ele>256</ele>
        <time>2023-03-05T15:28:44Z</time>
        <extensions>
          <gpxtpx:TrackPointExtension xmlns:gpxtpx="http://www.garmin.com/xmlschemas/TrackPointExtension/v1">
            <gpxtpx:hr>91</gpxtpx:hr>
          </gpxtpx:TrackPointExtension>
        </extensions>
      </trkpt>
      <trkpt lat="43.14035" lon="1.31205">
        <ele>256</ele>
        <time>2023-03-05T15:28:45Z</time>
        <extensions>
          <gpxtpx:TrackPointExtension xmlns:gpxtpx="http://www.garmin.com/xmlschemas/TrackPointExtension/v1">
            <gpxtpx:hr>91</gpxtpx:hr>
          </gpxtpx:TrackPointExtension>
        </extensions>
      </trkpt>
      <trkpt lat="43.14047" lon="1.31208">
        <ele>256</ele>
        <time>2023-03-05T15:28:48Z</time>
        <extensions>
          <gpxtpx:TrackPointExtension xmlns:gpxtpx="http://www.garmin.com/xmlschemas/TrackPointExtension/v1">
            <gpxtpx:hr>91</gpxtpx:hr>
          </gpxtpx:TrackPointExtension>
        </extensions>
      </trkpt>
      <trkpt lat="43.14054" lon="1.31209">
        <ele>256</ele>
        <time>2023-03-05T15:28:50Z</time>
        <extensions>
          <gpxtpx:TrackPointExtension xmlns:gpxtpx="http://www.garmin.com/xmlschemas/TrackPointExtension/v1">
            <gpxtpx:hr>91</gpxtpx:hr>
          </gpxtpx:TrackPointExtension>
        </extensions>
      </trkpt>
      <trkpt lat="43.14059" lon="1.31207">
        <ele>256</ele>
        <time>2023-03-05T15:28:51Z</time>
        <extensions>
          <gpxtpx:TrackPointExtension xmlns:gpxtpx="http://www.garmin.com/xmlschemas/TrackPointExtension/v1">
            <gpxtpx:hr>92</gpxtpx:hr>
          </gpxtpx:TrackPointExtension>
        </extensions>
      </trkpt>
      <trkpt lat="43.1407" lon="1.31194">
        <ele>256</ele>
        <time>2023-03-05T15:28:54Z</time>
        <extensions>
          <gpxtpx:TrackPointExtension xmlns:gpxtpx="http://www.garmin.com/xmlschemas/TrackPointExtension/v1">
            <gpxtpx:hr>92</gpxtpx:hr>
          </gpxtpx:TrackPointExtension>
        </extensions>
      </trkpt>
      <trkpt lat="43.14072" lon="1.31189">
        <ele>256</ele>
        <time>2023-03-05T15:28:55Z</time>
        <extensions>
          <gpxtpx:TrackPointExtension xmlns:gpxtpx="http://www.garmin.com/xmlschemas/TrackPointExtension/v1">
            <gpxtpx:hr>92</gpxtpx:hr>
          </gpxtpx:TrackPointExtension>
        </extensions>
      </trkpt>
      <trkpt lat="43.14074" lon="1.31183">
        <ele>256</ele>
        <time>2023-03-05T15:28:56Z</time>
        <extensions>
          <gpxtpx:TrackPointExtension xmlns:gpxtpx="http://www.garmin.com/xmlschemas/TrackPointExtension/v1">
            <gpxtpx:hr>87</gpxtpx:hr>
          </gpxtpx:TrackPointExtension>
        </extensions>
      </trkpt>
      <trkpt lat="43.14076" lon="1.31178">
        <ele>256</ele>
        <time>2023-03-05T15:28:57Z</time>
        <extensions>
          <gpxtpx:TrackPointExtension xmlns:gpxtpx="http://www.garmin.com/xmlschemas/TrackPointExtension/v1">
            <gpxtpx:hr>83</gpxtpx:hr>
          </gpxtpx:TrackPointExtension>
        </extensions>
      </trkpt>
      <trkpt lat="43.14078" lon="1.31172">
        <ele>256</ele>
        <time>2023-03-05T15:28:58Z</time>
        <extensions>
          <gpxtpx:TrackPointExtension xmlns:gpxtpx="http://www.garmin.com/xmlschemas/TrackPointExtension/v1">
            <gpxtpx:hr>83</gpxtpx:hr>
          </gpxtpx:TrackPointExtension>
        </extensions>
      </trkpt>
      <trkpt lat="43.1408" lon="1.31166">
        <ele>256</ele>
        <time>2023-03-05T15:28:59Z</time>
        <extensions>
          <gpxtpx:TrackPointExtension xmlns:gpxtpx="http://www.garmin.com/xmlschemas/TrackPointExtension/v1">
            <gpxtpx:hr>83</gpxtpx:hr>
          </gpxtpx:TrackPointExtension>
        </extensions>
      </trkpt>
      <trkpt lat="43.14087" lon="1.31147">
        <ele>256</ele>
        <time>2023-03-05T15:29:02Z</time>
        <extensions>
          <gpxtpx:TrackPointExtension xmlns:gpxtpx="http://www.garmin.com/xmlschemas/TrackPointExtension/v1">
            <gpxtpx:hr>83</gpxtpx:hr>
          </gpxtpx:TrackPointExtension>
        </extensions>
      </trkpt>
      <trkpt lat="43.14092" lon="1.31134">
        <ele>256</ele>
        <time>2023-03-05T15:29:04Z</time>
        <extensions>
          <gpxtpx:TrackPointExtension xmlns:gpxtpx="http://www.garmin.com/xmlschemas/TrackPointExtension/v1">
            <gpxtpx:hr>83</gpxtpx:hr>
          </gpxtpx:TrackPointExtension>
        </extensions>
      </trkpt>
      <trkpt lat="43.14102" lon="1.31103">
        <ele>256</ele>
        <time>2023-03-05T15:29:09Z</time>
        <extensions>
          <gpxtpx:TrackPointExtension xmlns:gpxtpx="http://www.garmin.com/xmlschemas/TrackPointExtension/v1">
            <gpxtpx:hr>79</gpxtpx:hr>
          </gpxtpx:TrackPointExtension>
        </extensions>
      </trkpt>
      <trkpt lat="43.14103" lon="1.31097">
        <ele>256</ele>
        <time>2023-03-05T15:29:10Z</time>
        <extensions>
          <gpxtpx:TrackPointExtension xmlns:gpxtpx="http://www.garmin.com/xmlschemas/TrackPointExtension/v1">
            <gpxtpx:hr>76</gpxtpx:hr>
          </gpxtpx:TrackPointExtension>
        </extensions>
      </trkpt>
      <trkpt lat="43.14105" lon="1.31092">
        <ele>256</ele>
        <time>2023-03-05T15:29:11Z</time>
        <extensions>
          <gpxtpx:TrackPointExtension xmlns:gpxtpx="http://www.garmin.com/xmlschemas/TrackPointExtension/v1">
            <gpxtpx:hr>76</gpxtpx:hr>
          </gpxtpx:TrackPointExtension>
        </extensions>
      </trkpt>
      <trkpt lat="43.14106" lon="1.31087">
        <ele>256</ele>
        <time>2023-03-05T15:29:12Z</time>
        <extensions>
          <gpxtpx:TrackPointExtension xmlns:gpxtpx="http://www.garmin.com/xmlschemas/TrackPointExtension/v1">
            <gpxtpx:hr>76</gpxtpx:hr>
          </gpxtpx:TrackPointExtension>
        </extensions>
      </trkpt>
      <trkpt lat="43.14116" lon="1.31055">
        <ele>256</ele>
        <time>2023-03-05T15:29:18Z</time>
        <extensions>
          <gpxtpx:TrackPointExtension xmlns:gpxtpx="http://www.garmin.com/xmlschemas/TrackPointExtension/v1">
            <gpxtpx:hr>74</gpxtpx:hr>
          </gpxtpx:TrackPointExtension>
        </extensions>
      </trkpt>
      <trkpt lat="43.14122" lon="1.31037">
        <ele>256</ele>
        <time>2023-03-05T15:29:21Z</time>
        <extensions>
          <gpxtpx:TrackPointExtension xmlns:gpxtpx="http://www.garmin.com/xmlschemas/TrackPointExtension/v1">
            <gpxtpx:hr>72</gpxtpx:hr>
          </gpxtpx:TrackPointExtension>
        </extensions>
      </trkpt>
      <trkpt lat="43.14124" lon="1.31031">
        <ele>256</ele>
        <time>2023-03-05T15:29:22Z</time>
        <extensions>
          <gpxtpx:TrackPointExtension xmlns:gpxtpx="http://www.garmin.com/xmlschemas/TrackPointExtension/v1">
            <gpxtpx:hr>81</gpxtpx:hr>
          </gpxtpx:TrackPointExtension>
        </extensions>
      </trkpt>
      <trkpt lat="43.14126" lon="1.31025">
        <ele>256</ele>
        <time>2023-03-05T15:29:23Z</time>
        <extensions>
          <gpxtpx:TrackPointExtension xmlns:gpxtpx="http://www.garmin.com/xmlschemas/TrackPointExtension/v1">
            <gpxtpx:hr>90</gpxtpx:hr>
          </gpxtpx:TrackPointExtension>
        </extensions>
      </trkpt>
      <trkpt lat="43.14127" lon="1.3102">
        <ele>256</ele>
        <time>2023-03-05T15:29:24Z</time>
        <extensions>
          <gpxtpx:TrackPointExtension xmlns:gpxtpx="http://www.garmin.com/xmlschemas/TrackPointExtension/v1">
            <gpxtpx:hr>90</gpxtpx:hr>
          </gpxtpx:TrackPointExtension>
        </extensions>
      </trkpt>
      <trkpt lat="43.14131" lon="1.31009">
        <ele>256</ele>
        <time>2023-03-05T15:29:26Z</time>
        <extensions>
          <gpxtpx:TrackPointExtension xmlns:gpxtpx="http://www.garmin.com/xmlschemas/TrackPointExtension/v1">
            <gpxtpx:hr>92</gpxtpx:hr>
          </gpxtpx:TrackPointExtension>
        </extensions>
      </trkpt>
      <trkpt lat="43.14141" lon="1.30986">
        <ele>256</ele>
        <time>2023-03-05T15:29:30Z</time>
        <extensions>
          <gpxtpx:TrackPointExtension xmlns:gpxtpx="http://www.garmin.com/xmlschemas/TrackPointExtension/v1">
            <gpxtpx:hr>94</gpxtpx:hr>
          </gpxtpx:TrackPointExtension>
        </extensions>
      </trkpt>
      <trkpt lat="43.14144" lon="1.3098">
        <ele>256</ele>
        <time>2023-03-05T15:29:31Z</time>
        <extensions>
          <gpxtpx:TrackPointExtension xmlns:gpxtpx="http://www.garmin.com/xmlschemas/TrackPointExtension/v1">
            <gpxtpx:hr>97</gpxtpx:hr>
          </gpxtpx:TrackPointExtension>
        </extensions>
      </trkpt>
      <trkpt lat="43.14163" lon="1.30937">
        <ele>256</ele>
        <time>2023-03-05T15:29:38Z</time>
        <extensions>
          <gpxtpx:TrackPointExtension xmlns:gpxtpx="http://www.garmin.com/xmlschemas/TrackPointExtension/v1">
            <gpxtpx:hr>99</gpxtpx:hr>
          </gpxtpx:TrackPointExtension>
        </extensions>
      </trkpt>
      <trkpt lat="43.14176" lon="1.30911">
        <ele>256</ele>
        <time>2023-03-05T15:29:43Z</time>
        <extensions>
          <gpxtpx:TrackPointExtension xmlns:gpxtpx="http://www.garmin.com/xmlschemas/TrackPointExtension/v1">
            <gpxtpx:hr>101</gpxtpx:hr>
          </gpxtpx:TrackPointExtension>
        </extensions>
      </trkpt>
      <trkpt lat="43.14184" lon="1.30902">
        <ele>256</ele>
        <time>2023-03-05T15:29:45Z</time>
        <extensions>
          <gpxtpx:TrackPointExtension xmlns:gpxtpx="http://www.garmin.com/xmlschemas/TrackPointExtension/v1">
            <gpxtpx:hr>101</gpxtpx:hr>
          </gpxtpx:TrackPointExtension>
        </extensions>
      </trkpt>
      <trkpt lat="43.14215" lon="1.3087">
        <ele>256</ele>
        <time>2023-03-05T15:29:52Z</time>
        <extensions>
          <gpxtpx:TrackPointExtension xmlns:gpxtpx="http://www.garmin.com/xmlschemas/TrackPointExtension/v1">
            <gpxtpx:hr>101</gpxtpx:hr>
          </gpxtpx:TrackPointExtension>
        </extensions>
      </trkpt>
      <trkpt lat="43.14246" lon="1.30841">
        <ele>256</ele>
        <time>2023-03-05T15:29:59Z</time>
        <extensions>
          <gpxtpx:TrackPointExtension xmlns:gpxtpx="http://www.garmin.com/xmlschemas/TrackPointExtension/v1">
            <gpxtpx:hr>101</gpxtpx:hr>
          </gpxtpx:TrackPointExtension>
        </extensions>
      </trkpt>
      <trkpt lat="43.14251" lon="1.30838">
        <ele>255.6</ele>
        <time>2023-03-05T15:30:00Z</time>
        <extensions>
          <gpxtpx:TrackPointExtension xmlns:gpxtpx="http://www.garmin.com/xmlschemas/TrackPointExtension/v1">
            <gpxtpx:hr>101</gpxtpx:hr>
          </gpxtpx:TrackPointExtension>
        </extensions>
      </trkpt>
      <trkpt lat="43.14256" lon="1.30834">
        <ele>255</ele>
        <time>2023-03-05T15:30:01Z</time>
        <extensions>
          <gpxtpx:TrackPointExtension xmlns:gpxtpx="http://www.garmin.com/xmlschemas/TrackPointExtension/v1">
            <gpxtpx:hr>103</gpxtpx:hr>
          </gpxtpx:TrackPointExtension>
        </extensions>
      </trkpt>
      <trkpt lat="43.1426" lon="1.3083">
        <ele>254.6</ele>
        <time>2023-03-05T15:30:02Z</time>
        <extensions>
          <gpxtpx:TrackPointExtension xmlns:gpxtpx="http://www.garmin.com/xmlschemas/TrackPointExtension/v1">
            <gpxtpx:hr>103</gpxtpx:hr>
          </gpxtpx:TrackPointExtension>
        </extensions>
      </trkpt>
      <trkpt lat="43.14264" lon="1.30825">
        <ele>254.2</ele>
        <time>2023-03-05T15:30:03Z</time>
        <extensions>
          <gpxtpx:TrackPointExtension xmlns:gpxtpx="http://www.garmin.com/xmlschemas/TrackPointExtension/v1">
            <gpxtpx:hr>103</gpxtpx:hr>
          </gpxtpx:TrackPointExtension>
        </extensions>
      </trkpt>
      <trkpt lat="43.14268" lon="1.30821">
        <ele>253.8</ele>
        <time>2023-03-05T15:30:04Z</time>
        <extensions>
          <gpxtpx:TrackPointExtension xmlns:gpxtpx="http://www.garmin.com/xmlschemas/TrackPointExtension/v1">
            <gpxtpx:hr>105</gpxtpx:hr>
          </gpxtpx:TrackPointExtension>
        </extensions>
      </trkpt>
      <trkpt lat="43.14271" lon="1.30817">
        <ele>253.8</ele>
        <time>2023-03-05T15:30:05Z</time>
        <extensions>
          <gpxtpx:TrackPointExtension xmlns:gpxtpx="http://www.garmin.com/xmlschemas/TrackPointExtension/v1">
            <gpxtpx:hr>105</gpxtpx:hr>
          </gpxtpx:TrackPointExtension>
        </extensions>
      </trkpt>
      <trkpt lat="43.1428" lon="1.30798">
        <ele>253.8</ele>
        <time>2023-03-05T15:30:10Z</time>
        <extensions>
          <gpxtpx:TrackPointExtension xmlns:gpxtpx="http://www.garmin.com/xmlschemas/TrackPointExtension/v1">
            <gpxtpx:hr>105</gpxtpx:hr>
          </gpxtpx:TrackPointExtension>
        </extensions>
      </trkpt>
      <trkpt lat="43.1427" lon="1.30786">
        <ele>253.8</ele>
        <time>2023-03-05T15:30:13Z</time>
        <extensions>
          <gpxtpx:TrackPointExtension xmlns:gpxtpx="http://www.garmin.com/xmlschemas/TrackPointExtension/v1">
            <gpxtpx:hr>105</gpxtpx:hr>
          </gpxtpx:TrackPointExtension>
        </extensions>
      </trkpt>
      <trkpt lat="43.14259" lon="1.30775">
        <ele>253.8</ele>
        <time>2023-03-05T15:30:16Z</time>
        <extensions>
          <gpxtpx:TrackPointExtension xmlns:gpxtpx="http://www.garmin.com/xmlschemas/TrackPointExtension/v1">
            <gpxtpx:hr>105</gpxtpx:hr>
          </gpxtpx:TrackPointExtension>
        </extensions>
      </trkpt>
      <trkpt lat="43.14258" lon="1.3077">
        <ele>253.8</ele>
        <time>2023-03-05T15:30:17Z</time>
        <extensions>
          <gpxtpx:TrackPointExtension xmlns:gpxtpx="http://www.garmin.com/xmlschemas/TrackPointExtension/v1">
            <gpxtpx:hr>105</gpxtpx:hr>
          </gpxtpx:TrackPointExtension>
        </extensions>
      </trkpt>
      <trkpt lat="43.14263" lon="1.30755">
        <ele>253.8</ele>
        <time>2023-03-05T15:30:20Z</time>
        <extensions>
          <gpxtpx:TrackPointExtension xmlns:gpxtpx="http://www.garmin.com/xmlschemas/TrackPointExtension/v1">
            <gpxtpx:hr>109</gpxtpx:hr>
          </gpxtpx:TrackPointExtension>
        </extensions>
      </trkpt>
      <trkpt lat="43.14266" lon="1.3075">
        <ele>253.8</ele>
        <time>2023-03-05T15:30:21Z</time>
        <extensions>
          <gpxtpx:TrackPointExtension xmlns:gpxtpx="http://www.garmin.com/xmlschemas/TrackPointExtension/v1">
            <gpxtpx:hr>110</gpxtpx:hr>
          </gpxtpx:TrackPointExtension>
        </extensions>
      </trkpt>
      <trkpt lat="43.14271" lon="1.30738">
        <ele>253.8</ele>
        <time>2023-03-05T15:30:23Z</time>
        <extensions>
          <gpxtpx:TrackPointExtension xmlns:gpxtpx="http://www.garmin.com/xmlschemas/TrackPointExtension/v1">
            <gpxtpx:hr>111</gpxtpx:hr>
          </gpxtpx:TrackPointExtension>
        </extensions>
      </trkpt>
      <trkpt lat="43.14273" lon="1.30727">
        <ele>253.8</ele>
        <time>2023-03-05T15:30:25Z</time>
        <extensions>
          <gpxtpx:TrackPointExtension xmlns:gpxtpx="http://www.garmin.com/xmlschemas/TrackPointExtension/v1">
            <gpxtpx:hr>111</gpxtpx:hr>
          </gpxtpx:TrackPointExtension>
        </extensions>
      </trkpt>
      <trkpt lat="43.14265" lon="1.30714">
        <ele>253.8</ele>
        <time>2023-03-05T15:30:28Z</time>
        <extensions>
          <gpxtpx:TrackPointExtension xmlns:gpxtpx="http://www.garmin.com/xmlschemas/TrackPointExtension/v1">
            <gpxtpx:hr>111</gpxtpx:hr>
          </gpxtpx:TrackPointExtension>
        </extensions>
      </trkpt>
      <trkpt lat="43.14256" lon="1.30705">
        <ele>253.8</ele>
        <time>2023-03-05T15:30:30Z</time>
        <extensions>
          <gpxtpx:TrackPointExtension xmlns:gpxtpx="http://www.garmin.com/xmlschemas/TrackPointExtension/v1">
            <gpxtpx:hr>111</gpxtpx:hr>
          </gpxtpx:TrackPointExtension>
        </extensions>
      </trkpt>
      <trkpt lat="43.14239" lon="1.30686">
        <ele>253.8</ele>
        <time>2023-03-05T15:30:34Z</time>
        <extensions>
          <gpxtpx:TrackPointExtension xmlns:gpxtpx="http://www.garmin.com/xmlschemas/TrackPointExtension/v1">
            <gpxtpx:hr>112</gpxtpx:hr>
          </gpxtpx:TrackPointExtension>
        </extensions>
      </trkpt>
      <trkpt lat="43.14222" lon="1.30666">
        <ele>254.2</ele>
        <time>2023-03-05T15:30:38Z</time>
        <extensions>
          <gpxtpx:TrackPointExtension xmlns:gpxtpx="http://www.garmin.com/xmlschemas/TrackPointExtension/v1">
            <gpxtpx:hr>112</gpxtpx:hr>
          </gpxtpx:TrackPointExtension>
        </extensions>
      </trkpt>
      <trkpt lat="43.14218" lon="1.30662">
        <ele>254.6</ele>
        <time>2023-03-05T15:30:39Z</time>
        <extensions>
          <gpxtpx:TrackPointExtension xmlns:gpxtpx="http://www.garmin.com/xmlschemas/TrackPointExtension/v1">
            <gpxtpx:hr>112</gpxtpx:hr>
          </gpxtpx:TrackPointExtension>
        </extensions>
      </trkpt>
      <trkpt lat="43.14214" lon="1.30657">
        <ele>255</ele>
        <time>2023-03-05T15:30:40Z</time>
        <extensions>
          <gpxtpx:TrackPointExtension xmlns:gpxtpx="http://www.garmin.com/xmlschemas/TrackPointExtension/v1">
            <gpxtpx:hr>112</gpxtpx:hr>
          </gpxtpx:TrackPointExtension>
        </extensions>
      </trkpt>
      <trkpt lat="43.1421" lon="1.30653">
        <ele>255.4</ele>
        <time>2023-03-05T15:30:41Z</time>
        <extensions>
          <gpxtpx:TrackPointExtension xmlns:gpxtpx="http://www.garmin.com/xmlschemas/TrackPointExtension/v1">
            <gpxtpx:hr>112</gpxtpx:hr>
          </gpxtpx:TrackPointExtension>
        </extensions>
      </trkpt>
      <trkpt lat="43.14206" lon="1.30649">
        <ele>255.8</ele>
        <time>2023-03-05T15:30:42Z</time>
        <extensions>
          <gpxtpx:TrackPointExtension xmlns:gpxtpx="http://www.garmin.com/xmlschemas/TrackPointExtension/v1">
            <gpxtpx:hr>112</gpxtpx:hr>
          </gpxtpx:TrackPointExtension>
        </extensions>
      </trkpt>
      <trkpt lat="43.1418" lon="1.30619">
        <ele>255.8</ele>
        <time>2023-03-05T15:30:49Z</time>
        <extensions>
          <gpxtpx:TrackPointExtension xmlns:gpxtpx="http://www.garmin.com/xmlschemas/TrackPointExtension/v1">
            <gpxtpx:hr>115</gpxtpx:hr>
          </gpxtpx:TrackPointExtension>
        </extensions>
      </trkpt>
      <trkpt lat="43.14177" lon="1.30615">
        <ele>255.8</ele>
        <time>2023-03-05T15:30:50Z</time>
        <extensions>
          <gpxtpx:TrackPointExtension xmlns:gpxtpx="http://www.garmin.com/xmlschemas/TrackPointExtension/v1">
            <gpxtpx:hr>116</gpxtpx:hr>
          </gpxtpx:TrackPointExtension>
        </extensions>
      </trkpt>
      <trkpt lat="43.14148" lon="1.3058">
        <ele>255.8</ele>
        <time>2023-03-05T15:30:58Z</time>
        <extensions>
          <gpxtpx:TrackPointExtension xmlns:gpxtpx="http://www.garmin.com/xmlschemas/TrackPointExtension/v1">
            <gpxtpx:hr>119</gpxtpx:hr>
          </gpxtpx:TrackPointExtension>
        </extensions>
      </trkpt>
      <trkpt lat="43.14142" lon="1.30571">
        <ele>255.8</ele>
        <time>2023-03-05T15:31:00Z</time>
        <extensions>
          <gpxtpx:TrackPointExtension xmlns:gpxtpx="http://www.garmin.com/xmlschemas/TrackPointExtension/v1">
            <gpxtpx:hr>120</gpxtpx:hr>
          </gpxtpx:TrackPointExtension>
        </extensions>
      </trkpt>
      <trkpt lat="43.14127" lon="1.30547">
        <ele>255.8</ele>
        <time>2023-03-05T15:31:05Z</time>
        <extensions>
          <gpxtpx:TrackPointExtension xmlns:gpxtpx="http://www.garmin.com/xmlschemas/TrackPointExtension/v1">
            <gpxtpx:hr>120</gpxtpx:hr>
          </gpxtpx:TrackPointExtension>
        </extensions>
      </trkpt>
      <trkpt lat="43.14123" lon="1.30535">
        <ele>255.8</ele>
        <time>2023-03-05T15:31:07Z</time>
        <extensions>
          <gpxtpx:TrackPointExtension xmlns:gpxtpx="http://www.garmin.com/xmlschemas/TrackPointExtension/v1">
            <gpxtpx:hr>121</gpxtpx:hr>
          </gpxtpx:TrackPointExtension>
        </extensions>
      </trkpt>
      <trkpt lat="43.14116" lon="1.30512">
        <ele>255.8</ele>
        <time>2023-03-05T15:31:11Z</time>
        <extensions>
          <gpxtpx:TrackPointExtension xmlns:gpxtpx="http://www.garmin.com/xmlschemas/TrackPointExtension/v1">
            <gpxtpx:hr>121</gpxtpx:hr>
          </gpxtpx:TrackPointExtension>
        </extensions>
      </trkpt>
      <trkpt lat="43.1411" lon="1.30497">
        <ele>255.8</ele>
        <time>2023-03-05T15:31:14Z</time>
        <extensions>
          <gpxtpx:TrackPointExtension xmlns:gpxtpx="http://www.garmin.com/xmlschemas/TrackPointExtension/v1">
            <gpxtpx:hr>121</gpxtpx:hr>
          </gpxtpx:TrackPointExtension>
        </extensions>
      </trkpt>
      <trkpt lat="43.14096" lon="1.30464">
        <ele>256.2</ele>
        <time>2023-03-05T15:31:21Z</time>
        <extensions>
          <gpxtpx:TrackPointExtension xmlns:gpxtpx="http://www.garmin.com/xmlschemas/TrackPointExtension/v1">
            <gpxtpx:hr>121</gpxtpx:hr>
          </gpxtpx:TrackPointExtension>
        </extensions>
      </trkpt>
      <trkpt lat="43.14094" lon="1.3046">
        <ele>256.6</ele>
        <time>2023-03-05T15:31:22Z</time>
        <extensions>
          <gpxtpx:TrackPointExtension xmlns:gpxtpx="http://www.garmin.com/xmlschemas/TrackPointExtension/v1">
            <gpxtpx:hr>121</gpxtpx:hr>
          </gpxtpx:TrackPointExtension>
        </extensions>
      </trkpt>
      <trkpt lat="43.14091" lon="1.30456">
        <ele>257</ele>
        <time>2023-03-05T15:31:23Z</time>
        <extensions>
          <gpxtpx:TrackPointExtension xmlns:gpxtpx="http://www.garmin.com/xmlschemas/TrackPointExtension/v1">
            <gpxtpx:hr>121</gpxtpx:hr>
          </gpxtpx:TrackPointExtension>
        </extensions>
      </trkpt>
      <trkpt lat="43.14089" lon="1.30452">
        <ele>257.4</ele>
        <time>2023-03-05T15:31:24Z</time>
        <extensions>
          <gpxtpx:TrackPointExtension xmlns:gpxtpx="http://www.garmin.com/xmlschemas/TrackPointExtension/v1">
            <gpxtpx:hr>121</gpxtpx:hr>
          </gpxtpx:TrackPointExtension>
        </extensions>
      </trkpt>
      <trkpt lat="43.14087" lon="1.30448">
        <ele>257.8</ele>
        <time>2023-03-05T15:31:25Z</time>
        <extensions>
          <gpxtpx:TrackPointExtension xmlns:gpxtpx="http://www.garmin.com/xmlschemas/TrackPointExtension/v1">
            <gpxtpx:hr>121</gpxtpx:hr>
          </gpxtpx:TrackPointExtension>
        </extensions>
      </trkpt>
      <trkpt lat="43.14078" lon="1.30427">
        <ele>257.8</ele>
        <time>2023-03-05T15:31:30Z</time>
        <extensions>
          <gpxtpx:TrackPointExtension xmlns:gpxtpx="http://www.garmin.com/xmlschemas/TrackPointExtension/v1">
            <gpxtpx:hr>121</gpxtpx:hr>
          </gpxtpx:TrackPointExtension>
        </extensions>
      </trkpt>
      <trkpt lat="43.14079" lon="1.30422">
        <ele>257.8</ele>
        <time>2023-03-05T15:31:31Z</time>
        <extensions>
          <gpxtpx:TrackPointExtension xmlns:gpxtpx="http://www.garmin.com/xmlschemas/TrackPointExtension/v1">
            <gpxtpx:hr>121</gpxtpx:hr>
          </gpxtpx:TrackPointExtension>
        </extensions>
      </trkpt>
      <trkpt lat="43.14088" lon="1.30418">
        <ele>257.8</ele>
        <time>2023-03-05T15:31:34Z</time>
        <extensions>
          <gpxtpx:TrackPointExtension xmlns:gpxtpx="http://www.garmin.com/xmlschemas/TrackPointExtension/v1">
            <gpxtpx:hr>121</gpxtpx:hr>
          </gpxtpx:TrackPointExtension>
        </extensions>
      </trkpt>
      <trkpt lat="43.14094" lon="1.30417">
        <ele>258.2</ele>
        <time>2023-03-05T15:31:36Z</time>
        <extensions>
          <gpxtpx:TrackPointExtension xmlns:gpxtpx="http://www.garmin.com/xmlschemas/TrackPointExtension/v1">
            <gpxtpx:hr>121</gpxtpx:hr>
          </gpxtpx:TrackPointExtension>
        </extensions>
      </trkpt>
      <trkpt lat="43.14097" lon="1.30416">
        <ele>258.6</ele>
        <time>2023-03-05T15:31:37Z</time>
        <extensions>
          <gpxtpx:TrackPointExtension xmlns:gpxtpx="http://www.garmin.com/xmlschemas/TrackPointExtension/v1">
            <gpxtpx:hr>121</gpxtpx:hr>
          </gpxtpx:TrackPointExtension>
        </extensions>
      </trkpt>
      <trkpt lat="43.14099" lon="1.30415">
        <ele>259</ele>
        <time>2023-03-05T15:31:38Z</time>
        <extensions>
          <gpxtpx:TrackPointExtension xmlns:gpxtpx="http://www.garmin.com/xmlschemas/TrackPointExtension/v1">
            <gpxtpx:hr>121</gpxtpx:hr>
          </gpxtpx:TrackPointExtension>
        </extensions>
      </trkpt>
      <trkpt lat="43.14101" lon="1.30413">
        <ele>259.4</ele>
        <time>2023-03-05T15:31:39Z</time>
        <extensions>
          <gpxtpx:TrackPointExtension xmlns:gpxtpx="http://www.garmin.com/xmlschemas/TrackPointExtension/v1">
            <gpxtpx:hr>121</gpxtpx:hr>
          </gpxtpx:TrackPointExtension>
        </extensions>
      </trkpt>
      <trkpt lat="43.14103" lon="1.30411">
        <ele>259.8</ele>
        <time>2023-03-05T15:31:40Z</time>
        <extensions>
          <gpxtpx:TrackPointExtension xmlns:gpxtpx="http://www.garmin.com/xmlschemas/TrackPointExtension/v1">
            <gpxtpx:hr>121</gpxtpx:hr>
          </gpxtpx:TrackPointExtension>
        </extensions>
      </trkpt>
      <trkpt lat="43.14104" lon="1.30407">
        <ele>259.8</ele>
        <time>2023-03-05T15:31:43Z</time>
        <extensions>
          <gpxtpx:TrackPointExtension xmlns:gpxtpx="http://www.garmin.com/xmlschemas/TrackPointExtension/v1">
            <gpxtpx:hr>121</gpxtpx:hr>
          </gpxtpx:TrackPointExtension>
        </extensions>
      </trkpt>
    </trkseg>
  </trk>
</gpx>